<?xml version="1.0" encoding="UTF-8" standalone="no" ?>
<gpx xmlns="http://www.topografix.com/GPX/1/1" xmlns:xsi="http://www.w3.org/2001/XMLSchema-instance" xsi:schemaLocation="http://www.topografix.com/GPX/1/1 http://www.topografix.com/GPX/1/1/gpx.xsd" version="1.1" creator="VisuGPX - https://www.visugpx.com">
  <metadata>
    <name>Tour de Belchamp</name>
    <desc><![CDATA[Tour de Belchamp ]]></desc>
  </metadata>
  <trk>
    <name><![CDATA[Rue Antoine Coysevox]]></name>
    <desc><![CDATA[Tour de Belchamp ]]></desc>
    <trkseg>
      <trkpt lat="47.51798" lon="6.77454">
        <ele>388</ele>
        <time>2015-03-01T08:10:43.972Z</time>
      </trkpt>
      <trkpt lat="47.518" lon="6.77425">
        <ele>387</ele>
        <time>2015-03-01T08:10:44.970Z</time>
      </trkpt>
      <trkpt lat="47.51773" lon="6.7744">
        <ele>388</ele>
        <time>2015-03-01T08:10:45.969Z</time>
      </trkpt>
      <trkpt lat="47.51779" lon="6.77449">
        <ele>388</ele>
        <time>2015-03-01T08:10:46.990Z</time>
      </trkpt>
      <trkpt lat="47.51804" lon="6.77446">
        <ele>387</ele>
        <time>2015-03-01T08:10:47.987Z</time>
      </trkpt>
      <trkpt lat="47.51804" lon="6.77466">
        <ele>388</ele>
        <time>2015-03-01T08:10:48.983Z</time>
      </trkpt>
      <trkpt lat="47.51819" lon="6.77448">
        <ele>387</ele>
        <time>2015-03-01T08:10:49.991Z</time>
      </trkpt>
      <trkpt lat="47.5181" lon="6.77467">
        <ele>388</ele>
        <time>2015-03-01T08:10:50.965Z</time>
      </trkpt>
      <trkpt lat="47.51802" lon="6.77456">
        <ele>388</ele>
        <time>2015-03-01T08:10:51.976Z</time>
      </trkpt>
      <trkpt lat="47.51792" lon="6.77446">
        <ele>388</ele>
        <time>2015-03-01T08:10:52.976Z</time>
      </trkpt>
      <trkpt lat="47.51791" lon="6.77442">
        <ele>388</ele>
        <time>2015-03-01T08:10:53.970Z</time>
      </trkpt>
      <trkpt lat="47.5179" lon="6.775">
        <ele>388</ele>
        <time>2015-03-01T08:10:54.970Z</time>
      </trkpt>
      <trkpt lat="47.51783" lon="6.77519">
        <ele>389</ele>
        <time>2015-03-01T08:10:55.990Z</time>
      </trkpt>
      <trkpt lat="47.51783" lon="6.77524">
        <ele>389</ele>
        <time>2015-03-01T08:10:57.013Z</time>
      </trkpt>
      <trkpt lat="47.51792" lon="6.77516">
        <ele>389</ele>
        <time>2015-03-01T08:10:58.026Z</time>
      </trkpt>
      <trkpt lat="47.51797" lon="6.77525">
        <ele>389</ele>
        <time>2015-03-01T08:10:59.026Z</time>
      </trkpt>
      <trkpt lat="47.51779" lon="6.77502">
        <ele>389</ele>
        <time>2015-03-01T08:11:00.026Z</time>
      </trkpt>
      <trkpt lat="47.5178" lon="6.77512">
        <ele>389</ele>
        <time>2015-03-01T08:11:01.012Z</time>
      </trkpt>
      <trkpt lat="47.518" lon="6.77475">
        <ele>388</ele>
        <time>2015-03-01T08:11:02.019Z</time>
      </trkpt>
      <trkpt lat="47.51791" lon="6.77461">
        <ele>388</ele>
        <time>2015-03-01T08:11:02.980Z</time>
      </trkpt>
      <trkpt lat="47.51803" lon="6.77432">
        <ele>387</ele>
        <time>2015-03-01T08:11:03.980Z</time>
      </trkpt>
      <trkpt lat="47.51803" lon="6.77425">
        <ele>387</ele>
        <time>2015-03-01T08:11:04.959Z</time>
      </trkpt>
      <trkpt lat="47.51813" lon="6.77428">
        <ele>387</ele>
        <time>2015-03-01T08:11:05.956Z</time>
      </trkpt>
      <trkpt lat="47.51803" lon="6.77437">
        <ele>387</ele>
        <time>2015-03-01T08:11:06.956Z</time>
      </trkpt>
      <trkpt lat="47.51791" lon="6.77455">
        <ele>388</ele>
        <time>2015-03-01T08:11:07.956Z</time>
      </trkpt>
      <trkpt lat="47.51783" lon="6.77487">
        <ele>388</ele>
        <time>2015-03-01T08:11:08.956Z</time>
      </trkpt>
      <trkpt lat="47.51798" lon="6.77463">
        <ele>388</ele>
        <time>2015-03-01T08:11:10.011Z</time>
      </trkpt>
      <trkpt lat="47.51796" lon="6.77475">
        <ele>388</ele>
        <time>2015-03-01T08:11:10.969Z</time>
      </trkpt>
      <trkpt lat="47.51794" lon="6.77471">
        <ele>388</ele>
        <time>2015-03-01T08:11:11.969Z</time>
      </trkpt>
      <trkpt lat="47.51802" lon="6.77483">
        <ele>388</ele>
        <time>2015-03-01T08:11:12.963Z</time>
      </trkpt>
      <trkpt lat="47.518" lon="6.77479">
        <ele>388</ele>
        <time>2015-03-01T08:11:13.963Z</time>
      </trkpt>
      <trkpt lat="47.51802" lon="6.77474">
        <ele>388</ele>
        <time>2015-03-01T08:11:14.960Z</time>
      </trkpt>
      <trkpt lat="47.51801" lon="6.77463">
        <ele>388</ele>
        <time>2015-03-01T08:11:15.975Z</time>
      </trkpt>
      <trkpt lat="47.518" lon="6.77468">
        <ele>388</ele>
        <time>2015-03-01T08:16:51.000Z</time>
      </trkpt>
      <trkpt lat="47.51797" lon="6.77472">
        <ele>388</ele>
        <time>2015-03-01T08:16:52.000Z</time>
      </trkpt>
      <trkpt lat="47.51793" lon="6.77475">
        <ele>388</ele>
        <time>2015-03-01T08:16:53.000Z</time>
      </trkpt>
      <trkpt lat="47.51789" lon="6.77474">
        <ele>388</ele>
        <time>2015-03-01T08:16:54.000Z</time>
      </trkpt>
      <trkpt lat="47.51786" lon="6.77475">
        <ele>388</ele>
        <time>2015-03-01T08:16:55.000Z</time>
      </trkpt>
      <trkpt lat="47.51782" lon="6.77478">
        <ele>388</ele>
        <time>2015-03-01T08:16:56.000Z</time>
      </trkpt>
      <trkpt lat="47.51779" lon="6.77478">
        <ele>388</ele>
        <time>2015-03-01T08:16:57.000Z</time>
      </trkpt>
      <trkpt lat="47.51776" lon="6.77477">
        <ele>388</ele>
        <time>2015-03-01T08:16:58.000Z</time>
      </trkpt>
      <trkpt lat="47.51772" lon="6.77477">
        <ele>388</ele>
        <time>2015-03-01T08:16:59.000Z</time>
      </trkpt>
      <trkpt lat="47.51768" lon="6.77476">
        <ele>388</ele>
        <time>2015-03-01T08:17:00.000Z</time>
      </trkpt>
      <trkpt lat="47.51765" lon="6.77476">
        <ele>388</ele>
        <time>2015-03-01T08:17:01.000Z</time>
      </trkpt>
      <trkpt lat="47.51761" lon="6.77475">
        <ele>389</ele>
        <time>2015-03-01T08:17:02.000Z</time>
      </trkpt>
      <trkpt lat="47.51757" lon="6.77475">
        <ele>389</ele>
        <time>2015-03-01T08:17:03.000Z</time>
      </trkpt>
      <trkpt lat="47.51752" lon="6.77475">
        <ele>389</ele>
        <time>2015-03-01T08:17:04.000Z</time>
      </trkpt>
      <trkpt lat="47.51748" lon="6.77474">
        <ele>389</ele>
        <time>2015-03-01T08:17:05.000Z</time>
      </trkpt>
      <trkpt lat="47.51744" lon="6.77474">
        <ele>389</ele>
        <time>2015-03-01T08:17:06.000Z</time>
      </trkpt>
      <trkpt lat="47.51739" lon="6.77473">
        <ele>389</ele>
        <time>2015-03-01T08:17:07.000Z</time>
      </trkpt>
      <trkpt lat="47.51735" lon="6.77473">
        <ele>389</ele>
        <time>2015-03-01T08:17:08.000Z</time>
      </trkpt>
      <trkpt lat="47.51731" lon="6.77473">
        <ele>389</ele>
        <time>2015-03-01T08:17:09.000Z</time>
      </trkpt>
      <trkpt lat="47.51727" lon="6.77476">
        <ele>389</ele>
        <time>2015-03-01T08:17:10.000Z</time>
      </trkpt>
      <trkpt lat="47.51724" lon="6.7748">
        <ele>389</ele>
        <time>2015-03-01T08:17:11.000Z</time>
      </trkpt>
      <trkpt lat="47.5172" lon="6.77485">
        <ele>389</ele>
        <time>2015-03-01T08:17:12.000Z</time>
      </trkpt>
      <trkpt lat="47.51717" lon="6.77492">
        <ele>389</ele>
        <time>2015-03-01T08:17:13.000Z</time>
      </trkpt>
      <trkpt lat="47.51714" lon="6.77499">
        <ele>389</ele>
        <time>2015-03-01T08:17:14.000Z</time>
      </trkpt>
      <trkpt lat="47.51712" lon="6.77506">
        <ele>390</ele>
        <time>2015-03-01T08:17:15.000Z</time>
      </trkpt>
      <trkpt lat="47.51711" lon="6.77513">
        <ele>390</ele>
        <time>2015-03-01T08:17:16.000Z</time>
      </trkpt>
      <trkpt lat="47.5171" lon="6.77521">
        <ele>390</ele>
        <time>2015-03-01T08:17:17.000Z</time>
      </trkpt>
      <trkpt lat="47.51708" lon="6.77533">
        <ele>390</ele>
        <time>2015-03-01T08:17:18.000Z</time>
      </trkpt>
      <trkpt lat="47.51709" lon="6.77539">
        <ele>390</ele>
        <time>2015-03-01T08:17:19.000Z</time>
      </trkpt>
      <trkpt lat="47.51709" lon="6.77544">
        <ele>390</ele>
        <time>2015-03-01T08:17:20.000Z</time>
      </trkpt>
      <trkpt lat="47.51708" lon="6.77551">
        <ele>390</ele>
        <time>2015-03-01T08:17:21.000Z</time>
      </trkpt>
      <trkpt lat="47.51705" lon="6.77555">
        <ele>390</ele>
        <time>2015-03-01T08:17:22.000Z</time>
      </trkpt>
      <trkpt lat="47.51703" lon="6.77558">
        <ele>390</ele>
        <time>2015-03-01T08:17:23.000Z</time>
      </trkpt>
      <trkpt lat="47.51701" lon="6.7756">
        <ele>390</ele>
        <time>2015-03-01T08:17:24.000Z</time>
      </trkpt>
      <trkpt lat="47.51697" lon="6.77558">
        <ele>390</ele>
        <time>2015-03-01T08:17:26.000Z</time>
      </trkpt>
      <trkpt lat="47.51696" lon="6.77557">
        <ele>390</ele>
        <time>2015-03-01T08:17:27.000Z</time>
      </trkpt>
      <trkpt lat="47.51692" lon="6.77554">
        <ele>390</ele>
        <time>2015-03-01T08:17:29.000Z</time>
      </trkpt>
      <trkpt lat="47.5169" lon="6.77552">
        <ele>390</ele>
        <time>2015-03-01T08:17:30.000Z</time>
      </trkpt>
      <trkpt lat="47.51687" lon="6.77549">
        <ele>390</ele>
        <time>2015-03-01T08:17:31.000Z</time>
      </trkpt>
      <trkpt lat="47.51684" lon="6.77544">
        <ele>390</ele>
        <time>2015-03-01T08:17:32.000Z</time>
      </trkpt>
      <trkpt lat="47.51678" lon="6.77532">
        <ele>390</ele>
        <time>2015-03-01T08:17:33.000Z</time>
      </trkpt>
      <trkpt lat="47.51673" lon="6.77526">
        <ele>390</ele>
        <time>2015-03-01T08:17:34.000Z</time>
      </trkpt>
      <trkpt lat="47.51668" lon="6.77519">
        <ele>389</ele>
        <time>2015-03-01T08:17:35.000Z</time>
      </trkpt>
      <trkpt lat="47.51663" lon="6.77512">
        <ele>388</ele>
        <time>2015-03-01T08:17:36.000Z</time>
      </trkpt>
      <trkpt lat="47.51658" lon="6.77506">
        <ele>388</ele>
        <time>2015-03-01T08:17:37.000Z</time>
      </trkpt>
      <trkpt lat="47.51654" lon="6.77499">
        <ele>388</ele>
        <time>2015-03-01T08:17:38.000Z</time>
      </trkpt>
      <trkpt lat="47.5165" lon="6.77493">
        <ele>387</ele>
        <time>2015-03-01T08:17:39.000Z</time>
      </trkpt>
      <trkpt lat="47.51646" lon="6.77488">
        <ele>387</ele>
        <time>2015-03-01T08:17:40.000Z</time>
      </trkpt>
      <trkpt lat="47.51641" lon="6.77481">
        <ele>387</ele>
        <time>2015-03-01T08:17:41.000Z</time>
      </trkpt>
      <trkpt lat="47.51636" lon="6.77474">
        <ele>386</ele>
        <time>2015-03-01T08:17:42.000Z</time>
      </trkpt>
      <trkpt lat="47.51631" lon="6.77468">
        <ele>386</ele>
        <time>2015-03-01T08:17:43.000Z</time>
      </trkpt>
      <trkpt lat="47.51627" lon="6.77462">
        <ele>386</ele>
        <time>2015-03-01T08:17:44.000Z</time>
      </trkpt>
      <trkpt lat="47.51622" lon="6.77456">
        <ele>386</ele>
        <time>2015-03-01T08:17:45.000Z</time>
      </trkpt>
      <trkpt lat="47.51616" lon="6.7745">
        <ele>385</ele>
        <time>2015-03-01T08:17:46.000Z</time>
      </trkpt>
      <trkpt lat="47.51611" lon="6.77444">
        <ele>385</ele>
        <time>2015-03-01T08:17:47.000Z</time>
      </trkpt>
      <trkpt lat="47.51605" lon="6.77437">
        <ele>385</ele>
        <time>2015-03-01T08:17:48.000Z</time>
      </trkpt>
      <trkpt lat="47.516" lon="6.77429">
        <ele>385</ele>
        <time>2015-03-01T08:17:49.000Z</time>
      </trkpt>
      <trkpt lat="47.51596" lon="6.77421">
        <ele>384</ele>
        <time>2015-03-01T08:17:50.000Z</time>
      </trkpt>
      <trkpt lat="47.5159" lon="6.77414">
        <ele>383</ele>
        <time>2015-03-01T08:17:51.000Z</time>
      </trkpt>
      <trkpt lat="47.51584" lon="6.77407">
        <ele>383</ele>
        <time>2015-03-01T08:17:52.000Z</time>
      </trkpt>
      <trkpt lat="47.51578" lon="6.77398">
        <ele>382</ele>
        <time>2015-03-01T08:17:53.000Z</time>
      </trkpt>
      <trkpt lat="47.51574" lon="6.7739">
        <ele>381</ele>
        <time>2015-03-01T08:17:54.000Z</time>
      </trkpt>
      <trkpt lat="47.51567" lon="6.77382">
        <ele>381</ele>
        <time>2015-03-01T08:17:55.000Z</time>
      </trkpt>
      <trkpt lat="47.51559" lon="6.77375">
        <ele>381</ele>
        <time>2015-03-01T08:17:56.000Z</time>
      </trkpt>
      <trkpt lat="47.51552" lon="6.77366">
        <ele>381</ele>
        <time>2015-03-01T08:17:57.000Z</time>
      </trkpt>
      <trkpt lat="47.51544" lon="6.77358">
        <ele>380</ele>
        <time>2015-03-01T08:17:58.000Z</time>
      </trkpt>
      <trkpt lat="47.51536" lon="6.77351">
        <ele>380</ele>
        <time>2015-03-01T08:17:59.000Z</time>
      </trkpt>
      <trkpt lat="47.51529" lon="6.77343">
        <ele>380</ele>
        <time>2015-03-01T08:18:00.000Z</time>
      </trkpt>
      <trkpt lat="47.51524" lon="6.77335">
        <ele>380</ele>
        <time>2015-03-01T08:18:01.000Z</time>
      </trkpt>
      <trkpt lat="47.51515" lon="6.77327">
        <ele>378</ele>
        <time>2015-03-01T08:18:02.000Z</time>
      </trkpt>
      <trkpt lat="47.51508" lon="6.77318">
        <ele>378</ele>
        <time>2015-03-01T08:18:03.000Z</time>
      </trkpt>
      <trkpt lat="47.515" lon="6.77307">
        <ele>377</ele>
        <time>2015-03-01T08:18:04.000Z</time>
      </trkpt>
      <trkpt lat="47.51494" lon="6.77296">
        <ele>377</ele>
        <time>2015-03-01T08:18:05.000Z</time>
      </trkpt>
      <trkpt lat="47.51492" lon="6.77285">
        <ele>377</ele>
        <time>2015-03-01T08:18:06.000Z</time>
      </trkpt>
      <trkpt lat="47.51491" lon="6.77272">
        <ele>377</ele>
        <time>2015-03-01T08:18:07.000Z</time>
      </trkpt>
      <trkpt lat="47.51489" lon="6.7726">
        <ele>376</ele>
        <time>2015-03-01T08:18:08.000Z</time>
      </trkpt>
      <trkpt lat="47.51489" lon="6.77248">
        <ele>376</ele>
        <time>2015-03-01T08:18:09.000Z</time>
      </trkpt>
      <trkpt lat="47.5149" lon="6.77236">
        <ele>375</ele>
        <time>2015-03-01T08:18:10.000Z</time>
      </trkpt>
      <trkpt lat="47.5149" lon="6.77225">
        <ele>375</ele>
        <time>2015-03-01T08:18:11.000Z</time>
      </trkpt>
      <trkpt lat="47.51489" lon="6.77215">
        <ele>375</ele>
        <time>2015-03-01T08:18:12.000Z</time>
      </trkpt>
      <trkpt lat="47.51488" lon="6.77207">
        <ele>375</ele>
        <time>2015-03-01T08:18:13.000Z</time>
      </trkpt>
      <trkpt lat="47.51486" lon="6.77199">
        <ele>375</ele>
        <time>2015-03-01T08:18:14.000Z</time>
      </trkpt>
      <trkpt lat="47.51482" lon="6.77194">
        <ele>375</ele>
        <time>2015-03-01T08:18:15.000Z</time>
      </trkpt>
      <trkpt lat="47.51476" lon="6.77193">
        <ele>375</ele>
        <time>2015-03-01T08:18:16.000Z</time>
      </trkpt>
      <trkpt lat="47.51469" lon="6.77195">
        <ele>375</ele>
        <time>2015-03-01T08:18:17.000Z</time>
      </trkpt>
      <trkpt lat="47.51459" lon="6.77202">
        <ele>375</ele>
        <time>2015-03-01T08:18:18.000Z</time>
      </trkpt>
      <trkpt lat="47.51451" lon="6.77207">
        <ele>375</ele>
        <time>2015-03-01T08:18:19.000Z</time>
      </trkpt>
      <trkpt lat="47.51442" lon="6.77211">
        <ele>375</ele>
        <time>2015-03-01T08:18:20.000Z</time>
      </trkpt>
      <trkpt lat="47.51434" lon="6.77215">
        <ele>375</ele>
        <time>2015-03-01T08:18:21.000Z</time>
      </trkpt>
      <trkpt lat="47.51426" lon="6.77219">
        <ele>375</ele>
        <time>2015-03-01T08:18:22.000Z</time>
      </trkpt>
      <trkpt lat="47.51418" lon="6.77222">
        <ele>375</ele>
        <time>2015-03-01T08:18:23.000Z</time>
      </trkpt>
      <trkpt lat="47.51412" lon="6.77226">
        <ele>376</ele>
        <time>2015-03-01T08:18:24.000Z</time>
      </trkpt>
      <trkpt lat="47.51406" lon="6.77229">
        <ele>376</ele>
        <time>2015-03-01T08:18:25.000Z</time>
      </trkpt>
      <trkpt lat="47.51399" lon="6.77233">
        <ele>376</ele>
        <time>2015-03-01T08:18:26.000Z</time>
      </trkpt>
      <trkpt lat="47.51393" lon="6.77236">
        <ele>376</ele>
        <time>2015-03-01T08:18:27.000Z</time>
      </trkpt>
      <trkpt lat="47.51388" lon="6.77239">
        <ele>376</ele>
        <time>2015-03-01T08:18:28.000Z</time>
      </trkpt>
      <trkpt lat="47.51383" lon="6.77242">
        <ele>376</ele>
        <time>2015-03-01T08:18:29.000Z</time>
      </trkpt>
      <trkpt lat="47.51378" lon="6.77245">
        <ele>376</ele>
        <time>2015-03-01T08:18:30.000Z</time>
      </trkpt>
      <trkpt lat="47.51373" lon="6.77248">
        <ele>376</ele>
        <time>2015-03-01T08:18:31.000Z</time>
      </trkpt>
      <trkpt lat="47.51369" lon="6.77251">
        <ele>377</ele>
        <time>2015-03-01T08:18:32.000Z</time>
      </trkpt>
      <trkpt lat="47.51366" lon="6.77254">
        <ele>378</ele>
        <time>2015-03-01T08:18:33.000Z</time>
      </trkpt>
      <trkpt lat="47.51362" lon="6.77257">
        <ele>378</ele>
        <time>2015-03-01T08:18:34.000Z</time>
      </trkpt>
      <trkpt lat="47.51358" lon="6.7726">
        <ele>378</ele>
        <time>2015-03-01T08:18:35.000Z</time>
      </trkpt>
      <trkpt lat="47.51355" lon="6.77262">
        <ele>378</ele>
        <time>2015-03-01T08:18:36.000Z</time>
      </trkpt>
      <trkpt lat="47.51352" lon="6.77265">
        <ele>378</ele>
        <time>2015-03-01T08:18:37.000Z</time>
      </trkpt>
      <trkpt lat="47.51349" lon="6.77267">
        <ele>378</ele>
        <time>2015-03-01T08:18:38.000Z</time>
      </trkpt>
      <trkpt lat="47.51347" lon="6.7727">
        <ele>378</ele>
        <time>2015-03-01T08:18:39.000Z</time>
      </trkpt>
      <trkpt lat="47.51344" lon="6.77272">
        <ele>378</ele>
        <time>2015-03-01T08:18:40.000Z</time>
      </trkpt>
      <trkpt lat="47.51341" lon="6.77274">
        <ele>378</ele>
        <time>2015-03-01T08:18:41.000Z</time>
      </trkpt>
      <trkpt lat="47.51338" lon="6.77276">
        <ele>378</ele>
        <time>2015-03-01T08:18:42.000Z</time>
      </trkpt>
      <trkpt lat="47.51335" lon="6.77278">
        <ele>378</ele>
        <time>2015-03-01T08:18:43.000Z</time>
      </trkpt>
      <trkpt lat="47.51332" lon="6.7728">
        <ele>377</ele>
        <time>2015-03-01T08:18:44.000Z</time>
      </trkpt>
      <trkpt lat="47.51329" lon="6.77281">
        <ele>377</ele>
        <time>2015-03-01T08:18:45.000Z</time>
      </trkpt>
      <trkpt lat="47.51326" lon="6.77283">
        <ele>377</ele>
        <time>2015-03-01T08:18:46.000Z</time>
      </trkpt>
      <trkpt lat="47.51323" lon="6.77284">
        <ele>377</ele>
        <time>2015-03-01T08:18:47.000Z</time>
      </trkpt>
      <trkpt lat="47.51319" lon="6.77285">
        <ele>377</ele>
        <time>2015-03-01T08:18:48.000Z</time>
      </trkpt>
      <trkpt lat="47.51316" lon="6.77285">
        <ele>377</ele>
        <time>2015-03-01T08:18:49.000Z</time>
      </trkpt>
      <trkpt lat="47.51313" lon="6.77285">
        <ele>377</ele>
        <time>2015-03-01T08:18:50.000Z</time>
      </trkpt>
      <trkpt lat="47.5131" lon="6.77285">
        <ele>377</ele>
        <time>2015-03-01T08:18:51.000Z</time>
      </trkpt>
      <trkpt lat="47.51306" lon="6.77285">
        <ele>377</ele>
        <time>2015-03-01T08:18:52.000Z</time>
      </trkpt>
      <trkpt lat="47.51303" lon="6.77284">
        <ele>377</ele>
        <time>2015-03-01T08:18:53.000Z</time>
      </trkpt>
      <trkpt lat="47.51299" lon="6.77283">
        <ele>377</ele>
        <time>2015-03-01T08:18:54.000Z</time>
      </trkpt>
      <trkpt lat="47.51296" lon="6.77282">
        <ele>377</ele>
        <time>2015-03-01T08:18:55.000Z</time>
      </trkpt>
      <trkpt lat="47.51292" lon="6.7728">
        <ele>377</ele>
        <time>2015-03-01T08:18:56.000Z</time>
      </trkpt>
      <trkpt lat="47.51289" lon="6.77278">
        <ele>377</ele>
        <time>2015-03-01T08:18:57.000Z</time>
      </trkpt>
      <trkpt lat="47.51286" lon="6.77276">
        <ele>377</ele>
        <time>2015-03-01T08:18:58.000Z</time>
      </trkpt>
      <trkpt lat="47.51283" lon="6.77274">
        <ele>377</ele>
        <time>2015-03-01T08:18:59.000Z</time>
      </trkpt>
      <trkpt lat="47.5128" lon="6.77272">
        <ele>377</ele>
        <time>2015-03-01T08:19:00.000Z</time>
      </trkpt>
      <trkpt lat="47.51276" lon="6.77271">
        <ele>377</ele>
        <time>2015-03-01T08:19:01.000Z</time>
      </trkpt>
      <trkpt lat="47.51273" lon="6.77269">
        <ele>377</ele>
        <time>2015-03-01T08:19:02.000Z</time>
      </trkpt>
      <trkpt lat="47.5127" lon="6.77267">
        <ele>377</ele>
        <time>2015-03-01T08:19:03.000Z</time>
      </trkpt>
      <trkpt lat="47.51267" lon="6.77265">
        <ele>377</ele>
        <time>2015-03-01T08:19:04.000Z</time>
      </trkpt>
      <trkpt lat="47.51263" lon="6.77263">
        <ele>377</ele>
        <time>2015-03-01T08:19:05.000Z</time>
      </trkpt>
      <trkpt lat="47.5126" lon="6.77261">
        <ele>378</ele>
        <time>2015-03-01T08:19:06.000Z</time>
      </trkpt>
      <trkpt lat="47.51257" lon="6.77258">
        <ele>378</ele>
        <time>2015-03-01T08:19:07.000Z</time>
      </trkpt>
      <trkpt lat="47.51253" lon="6.77255">
        <ele>378</ele>
        <time>2015-03-01T08:19:08.000Z</time>
      </trkpt>
      <trkpt lat="47.5125" lon="6.77251">
        <ele>379</ele>
        <time>2015-03-01T08:19:09.000Z</time>
      </trkpt>
      <trkpt lat="47.51247" lon="6.77247">
        <ele>378</ele>
        <time>2015-03-01T08:19:10.000Z</time>
      </trkpt>
      <trkpt lat="47.51244" lon="6.77242">
        <ele>377</ele>
        <time>2015-03-01T08:19:11.000Z</time>
      </trkpt>
      <trkpt lat="47.51242" lon="6.77237">
        <ele>377</ele>
        <time>2015-03-01T08:19:12.000Z</time>
      </trkpt>
      <trkpt lat="47.51239" lon="6.77231">
        <ele>376</ele>
        <time>2015-03-01T08:19:13.000Z</time>
      </trkpt>
      <trkpt lat="47.51237" lon="6.77225">
        <ele>376</ele>
        <time>2015-03-01T08:19:14.000Z</time>
      </trkpt>
      <trkpt lat="47.51234" lon="6.77219">
        <ele>376</ele>
        <time>2015-03-01T08:19:15.000Z</time>
      </trkpt>
      <trkpt lat="47.51232" lon="6.77213">
        <ele>376</ele>
        <time>2015-03-01T08:19:16.000Z</time>
      </trkpt>
      <trkpt lat="47.5123" lon="6.77207">
        <ele>376</ele>
        <time>2015-03-01T08:19:17.000Z</time>
      </trkpt>
      <trkpt lat="47.51228" lon="6.77201">
        <ele>376</ele>
        <time>2015-03-01T08:19:18.000Z</time>
      </trkpt>
      <trkpt lat="47.51225" lon="6.77195">
        <ele>376</ele>
        <time>2015-03-01T08:19:19.000Z</time>
      </trkpt>
      <trkpt lat="47.51223" lon="6.77189">
        <ele>376</ele>
        <time>2015-03-01T08:19:20.000Z</time>
      </trkpt>
      <trkpt lat="47.51222" lon="6.77184">
        <ele>376</ele>
        <time>2015-03-01T08:19:21.000Z</time>
      </trkpt>
      <trkpt lat="47.5122" lon="6.77178">
        <ele>376</ele>
        <time>2015-03-01T08:19:22.000Z</time>
      </trkpt>
      <trkpt lat="47.51217" lon="6.77172">
        <ele>376</ele>
        <time>2015-03-01T08:19:23.000Z</time>
      </trkpt>
      <trkpt lat="47.51215" lon="6.77162">
        <ele>378</ele>
        <time>2015-03-01T08:19:24.000Z</time>
      </trkpt>
      <trkpt lat="47.51212" lon="6.77157">
        <ele>378</ele>
        <time>2015-03-01T08:19:25.000Z</time>
      </trkpt>
      <trkpt lat="47.51209" lon="6.77151">
        <ele>378</ele>
        <time>2015-03-01T08:19:26.000Z</time>
      </trkpt>
      <trkpt lat="47.51206" lon="6.77145">
        <ele>378</ele>
        <time>2015-03-01T08:19:27.000Z</time>
      </trkpt>
      <trkpt lat="47.51203" lon="6.77138">
        <ele>378</ele>
        <time>2015-03-01T08:19:28.000Z</time>
      </trkpt>
      <trkpt lat="47.51198" lon="6.77132">
        <ele>378</ele>
        <time>2015-03-01T08:19:29.000Z</time>
      </trkpt>
      <trkpt lat="47.51195" lon="6.77124">
        <ele>378</ele>
        <time>2015-03-01T08:19:30.000Z</time>
      </trkpt>
      <trkpt lat="47.51192" lon="6.77116">
        <ele>378</ele>
        <time>2015-03-01T08:19:31.000Z</time>
      </trkpt>
      <trkpt lat="47.51189" lon="6.77107">
        <ele>378</ele>
        <time>2015-03-01T08:19:32.000Z</time>
      </trkpt>
      <trkpt lat="47.51186" lon="6.77098">
        <ele>378</ele>
        <time>2015-03-01T08:19:33.000Z</time>
      </trkpt>
      <trkpt lat="47.51183" lon="6.77091">
        <ele>378</ele>
        <time>2015-03-01T08:19:34.000Z</time>
      </trkpt>
      <trkpt lat="47.51179" lon="6.77083">
        <ele>377</ele>
        <time>2015-03-01T08:19:35.000Z</time>
      </trkpt>
      <trkpt lat="47.51175" lon="6.77075">
        <ele>377</ele>
        <time>2015-03-01T08:19:36.000Z</time>
      </trkpt>
      <trkpt lat="47.5117" lon="6.77067">
        <ele>377</ele>
        <time>2015-03-01T08:19:37.000Z</time>
      </trkpt>
      <trkpt lat="47.51165" lon="6.7706">
        <ele>376</ele>
        <time>2015-03-01T08:19:38.000Z</time>
      </trkpt>
      <trkpt lat="47.5116" lon="6.77053">
        <ele>376</ele>
        <time>2015-03-01T08:19:39.000Z</time>
      </trkpt>
      <trkpt lat="47.51154" lon="6.77049">
        <ele>376</ele>
        <time>2015-03-01T08:19:40.000Z</time>
      </trkpt>
      <trkpt lat="47.51147" lon="6.77043">
        <ele>376</ele>
        <time>2015-03-01T08:19:41.000Z</time>
      </trkpt>
      <trkpt lat="47.51142" lon="6.77038">
        <ele>375</ele>
        <time>2015-03-01T08:19:42.000Z</time>
      </trkpt>
      <trkpt lat="47.51136" lon="6.77033">
        <ele>375</ele>
        <time>2015-03-01T08:19:43.000Z</time>
      </trkpt>
      <trkpt lat="47.51128" lon="6.77029">
        <ele>375</ele>
        <time>2015-03-01T08:19:44.000Z</time>
      </trkpt>
      <trkpt lat="47.51122" lon="6.77023">
        <ele>375</ele>
        <time>2015-03-01T08:19:45.000Z</time>
      </trkpt>
      <trkpt lat="47.51115" lon="6.77018">
        <ele>375</ele>
        <time>2015-03-01T08:19:46.000Z</time>
      </trkpt>
      <trkpt lat="47.51109" lon="6.77013">
        <ele>375</ele>
        <time>2015-03-01T08:19:47.000Z</time>
      </trkpt>
      <trkpt lat="47.51103" lon="6.77008">
        <ele>375</ele>
        <time>2015-03-01T08:19:48.000Z</time>
      </trkpt>
      <trkpt lat="47.51098" lon="6.77003">
        <ele>375</ele>
        <time>2015-03-01T08:19:49.000Z</time>
      </trkpt>
      <trkpt lat="47.51092" lon="6.76997">
        <ele>375</ele>
        <time>2015-03-01T08:19:50.000Z</time>
      </trkpt>
      <trkpt lat="47.51086" lon="6.76994">
        <ele>375</ele>
        <time>2015-03-01T08:19:51.000Z</time>
      </trkpt>
      <trkpt lat="47.5108" lon="6.76991">
        <ele>375</ele>
        <time>2015-03-01T08:19:52.000Z</time>
      </trkpt>
      <trkpt lat="47.51073" lon="6.76986">
        <ele>375</ele>
        <time>2015-03-01T08:19:53.000Z</time>
      </trkpt>
      <trkpt lat="47.51068" lon="6.76982">
        <ele>375</ele>
        <time>2015-03-01T08:19:54.000Z</time>
      </trkpt>
      <trkpt lat="47.51062" lon="6.76979">
        <ele>375</ele>
        <time>2015-03-01T08:19:55.000Z</time>
      </trkpt>
      <trkpt lat="47.51057" lon="6.76974">
        <ele>375</ele>
        <time>2015-03-01T08:19:56.000Z</time>
      </trkpt>
      <trkpt lat="47.51052" lon="6.76971">
        <ele>375</ele>
        <time>2015-03-01T08:19:57.000Z</time>
      </trkpt>
      <trkpt lat="47.51047" lon="6.76967">
        <ele>375</ele>
        <time>2015-03-01T08:19:58.000Z</time>
      </trkpt>
      <trkpt lat="47.51041" lon="6.76963">
        <ele>375</ele>
        <time>2015-03-01T08:19:59.000Z</time>
      </trkpt>
      <trkpt lat="47.51037" lon="6.76957">
        <ele>375</ele>
        <time>2015-03-01T08:20:00.000Z</time>
      </trkpt>
      <trkpt lat="47.51031" lon="6.76953">
        <ele>375</ele>
        <time>2015-03-01T08:20:01.000Z</time>
      </trkpt>
      <trkpt lat="47.51027" lon="6.76947">
        <ele>375</ele>
        <time>2015-03-01T08:20:02.000Z</time>
      </trkpt>
      <trkpt lat="47.51023" lon="6.76942">
        <ele>375</ele>
        <time>2015-03-01T08:20:03.000Z</time>
      </trkpt>
      <trkpt lat="47.51019" lon="6.76936">
        <ele>375</ele>
        <time>2015-03-01T08:20:04.000Z</time>
      </trkpt>
      <trkpt lat="47.51015" lon="6.7693">
        <ele>375</ele>
        <time>2015-03-01T08:20:05.000Z</time>
      </trkpt>
      <trkpt lat="47.5101" lon="6.76928">
        <ele>375</ele>
        <time>2015-03-01T08:20:06.000Z</time>
      </trkpt>
      <trkpt lat="47.51005" lon="6.76924">
        <ele>376</ele>
        <time>2015-03-01T08:20:07.000Z</time>
      </trkpt>
      <trkpt lat="47.51002" lon="6.7692">
        <ele>376</ele>
        <time>2015-03-01T08:20:08.000Z</time>
      </trkpt>
      <trkpt lat="47.51" lon="6.76916">
        <ele>376</ele>
        <time>2015-03-01T08:20:09.000Z</time>
      </trkpt>
      <trkpt lat="47.50999" lon="6.7691">
        <ele>376</ele>
        <time>2015-03-01T08:20:10.000Z</time>
      </trkpt>
      <trkpt lat="47.50999" lon="6.76904">
        <ele>377</ele>
        <time>2015-03-01T08:20:11.000Z</time>
      </trkpt>
      <trkpt lat="47.50998" lon="6.76898">
        <ele>377</ele>
        <time>2015-03-01T08:20:12.000Z</time>
      </trkpt>
      <trkpt lat="47.50995" lon="6.76893">
        <ele>377</ele>
        <time>2015-03-01T08:20:13.000Z</time>
      </trkpt>
      <trkpt lat="47.50992" lon="6.7689">
        <ele>377</ele>
        <time>2015-03-01T08:20:14.000Z</time>
      </trkpt>
      <trkpt lat="47.50987" lon="6.7689">
        <ele>377</ele>
        <time>2015-03-01T08:20:15.000Z</time>
      </trkpt>
      <trkpt lat="47.50982" lon="6.76891">
        <ele>377</ele>
        <time>2015-03-01T08:20:16.000Z</time>
      </trkpt>
      <trkpt lat="47.50976" lon="6.76891">
        <ele>377</ele>
        <time>2015-03-01T08:20:17.000Z</time>
      </trkpt>
      <trkpt lat="47.50972" lon="6.7689">
        <ele>377</ele>
        <time>2015-03-01T08:20:18.000Z</time>
      </trkpt>
      <trkpt lat="47.50967" lon="6.76889">
        <ele>377</ele>
        <time>2015-03-01T08:20:19.000Z</time>
      </trkpt>
      <trkpt lat="47.50963" lon="6.76888">
        <ele>377</ele>
        <time>2015-03-01T08:20:20.000Z</time>
      </trkpt>
      <trkpt lat="47.50959" lon="6.76886">
        <ele>377</ele>
        <time>2015-03-01T08:20:21.000Z</time>
      </trkpt>
      <trkpt lat="47.50955" lon="6.76883">
        <ele>378</ele>
        <time>2015-03-01T08:20:22.000Z</time>
      </trkpt>
      <trkpt lat="47.50952" lon="6.7688">
        <ele>378</ele>
        <time>2015-03-01T08:20:23.000Z</time>
      </trkpt>
      <trkpt lat="47.50948" lon="6.76876">
        <ele>378</ele>
        <time>2015-03-01T08:20:24.000Z</time>
      </trkpt>
      <trkpt lat="47.50944" lon="6.76872">
        <ele>378</ele>
        <time>2015-03-01T08:20:25.000Z</time>
      </trkpt>
      <trkpt lat="47.50941" lon="6.76868">
        <ele>378</ele>
        <time>2015-03-01T08:20:26.000Z</time>
      </trkpt>
      <trkpt lat="47.50937" lon="6.76864">
        <ele>378</ele>
        <time>2015-03-01T08:20:27.000Z</time>
      </trkpt>
      <trkpt lat="47.50934" lon="6.7686">
        <ele>378</ele>
        <time>2015-03-01T08:20:28.000Z</time>
      </trkpt>
      <trkpt lat="47.50932" lon="6.76856">
        <ele>378</ele>
        <time>2015-03-01T08:20:29.000Z</time>
      </trkpt>
      <trkpt lat="47.50929" lon="6.76851">
        <ele>379</ele>
        <time>2015-03-01T08:20:30.000Z</time>
      </trkpt>
      <trkpt lat="47.50927" lon="6.76847">
        <ele>379</ele>
        <time>2015-03-01T08:20:31.000Z</time>
      </trkpt>
      <trkpt lat="47.50925" lon="6.76843">
        <ele>379</ele>
        <time>2015-03-01T08:20:32.000Z</time>
      </trkpt>
      <trkpt lat="47.50923" lon="6.76838">
        <ele>379</ele>
        <time>2015-03-01T08:20:33.000Z</time>
      </trkpt>
      <trkpt lat="47.50921" lon="6.76834">
        <ele>380</ele>
        <time>2015-03-01T08:20:34.000Z</time>
      </trkpt>
      <trkpt lat="47.50918" lon="6.76829">
        <ele>379</ele>
        <time>2015-03-01T08:20:35.000Z</time>
      </trkpt>
      <trkpt lat="47.50916" lon="6.76824">
        <ele>380</ele>
        <time>2015-03-01T08:20:36.000Z</time>
      </trkpt>
      <trkpt lat="47.50914" lon="6.7682">
        <ele>381</ele>
        <time>2015-03-01T08:20:37.000Z</time>
      </trkpt>
      <trkpt lat="47.50912" lon="6.76815">
        <ele>381</ele>
        <time>2015-03-01T08:20:38.000Z</time>
      </trkpt>
      <trkpt lat="47.50909" lon="6.7681">
        <ele>381</ele>
        <time>2015-03-01T08:20:39.000Z</time>
      </trkpt>
      <trkpt lat="47.50907" lon="6.76805">
        <ele>381</ele>
        <time>2015-03-01T08:20:40.000Z</time>
      </trkpt>
      <trkpt lat="47.50905" lon="6.768">
        <ele>381</ele>
        <time>2015-03-01T08:20:41.000Z</time>
      </trkpt>
      <trkpt lat="47.50903" lon="6.76796">
        <ele>381</ele>
        <time>2015-03-01T08:20:42.000Z</time>
      </trkpt>
      <trkpt lat="47.50901" lon="6.76791">
        <ele>381</ele>
        <time>2015-03-01T08:20:43.000Z</time>
      </trkpt>
      <trkpt lat="47.50899" lon="6.76787">
        <ele>381</ele>
        <time>2015-03-01T08:20:44.000Z</time>
      </trkpt>
      <trkpt lat="47.50897" lon="6.76782">
        <ele>381</ele>
        <time>2015-03-01T08:20:45.000Z</time>
      </trkpt>
      <trkpt lat="47.50895" lon="6.76777">
        <ele>381</ele>
        <time>2015-03-01T08:20:46.000Z</time>
      </trkpt>
      <trkpt lat="47.50894" lon="6.76773">
        <ele>381</ele>
        <time>2015-03-01T08:20:47.000Z</time>
      </trkpt>
      <trkpt lat="47.50892" lon="6.76768">
        <ele>381</ele>
        <time>2015-03-01T08:20:48.000Z</time>
      </trkpt>
      <trkpt lat="47.5089" lon="6.76764">
        <ele>381</ele>
        <time>2015-03-01T08:20:49.000Z</time>
      </trkpt>
      <trkpt lat="47.50888" lon="6.7676">
        <ele>381</ele>
        <time>2015-03-01T08:20:50.000Z</time>
      </trkpt>
      <trkpt lat="47.50886" lon="6.76755">
        <ele>381</ele>
        <time>2015-03-01T08:20:51.000Z</time>
      </trkpt>
      <trkpt lat="47.50884" lon="6.76751">
        <ele>381</ele>
        <time>2015-03-01T08:20:52.000Z</time>
      </trkpt>
      <trkpt lat="47.50882" lon="6.76747">
        <ele>382</ele>
        <time>2015-03-01T08:20:53.000Z</time>
      </trkpt>
      <trkpt lat="47.50881" lon="6.76742">
        <ele>382</ele>
        <time>2015-03-01T08:20:54.000Z</time>
      </trkpt>
      <trkpt lat="47.50879" lon="6.76737">
        <ele>383</ele>
        <time>2015-03-01T08:20:55.000Z</time>
      </trkpt>
      <trkpt lat="47.50878" lon="6.76733">
        <ele>383</ele>
        <time>2015-03-01T08:20:56.000Z</time>
      </trkpt>
      <trkpt lat="47.50876" lon="6.76728">
        <ele>383</ele>
        <time>2015-03-01T08:20:57.000Z</time>
      </trkpt>
      <trkpt lat="47.50875" lon="6.76723">
        <ele>383</ele>
        <time>2015-03-01T08:20:58.000Z</time>
      </trkpt>
      <trkpt lat="47.50874" lon="6.76719">
        <ele>383</ele>
        <time>2015-03-01T08:20:59.000Z</time>
      </trkpt>
      <trkpt lat="47.50872" lon="6.76714">
        <ele>383</ele>
        <time>2015-03-01T08:21:00.000Z</time>
      </trkpt>
      <trkpt lat="47.50871" lon="6.76709">
        <ele>383</ele>
        <time>2015-03-01T08:21:01.000Z</time>
      </trkpt>
      <trkpt lat="47.50869" lon="6.76704">
        <ele>384</ele>
        <time>2015-03-01T08:21:02.000Z</time>
      </trkpt>
      <trkpt lat="47.50867" lon="6.767">
        <ele>384</ele>
        <time>2015-03-01T08:21:03.000Z</time>
      </trkpt>
      <trkpt lat="47.50866" lon="6.76696">
        <ele>384</ele>
        <time>2015-03-01T08:21:04.000Z</time>
      </trkpt>
      <trkpt lat="47.50864" lon="6.76691">
        <ele>384</ele>
        <time>2015-03-01T08:21:05.000Z</time>
      </trkpt>
      <trkpt lat="47.50862" lon="6.76687">
        <ele>384</ele>
        <time>2015-03-01T08:21:06.000Z</time>
      </trkpt>
      <trkpt lat="47.5086" lon="6.76682">
        <ele>385</ele>
        <time>2015-03-01T08:21:07.000Z</time>
      </trkpt>
      <trkpt lat="47.50858" lon="6.76678">
        <ele>385</ele>
        <time>2015-03-01T08:21:08.000Z</time>
      </trkpt>
      <trkpt lat="47.50857" lon="6.76673">
        <ele>385</ele>
        <time>2015-03-01T08:21:09.000Z</time>
      </trkpt>
      <trkpt lat="47.50855" lon="6.76669">
        <ele>386</ele>
        <time>2015-03-01T08:21:10.000Z</time>
      </trkpt>
      <trkpt lat="47.50854" lon="6.76664">
        <ele>387</ele>
        <time>2015-03-01T08:21:11.000Z</time>
      </trkpt>
      <trkpt lat="47.50852" lon="6.7666">
        <ele>387</ele>
        <time>2015-03-01T08:21:12.000Z</time>
      </trkpt>
      <trkpt lat="47.5085" lon="6.76656">
        <ele>387</ele>
        <time>2015-03-01T08:21:13.000Z</time>
      </trkpt>
      <trkpt lat="47.50848" lon="6.76652">
        <ele>387</ele>
        <time>2015-03-01T08:21:14.000Z</time>
      </trkpt>
      <trkpt lat="47.50847" lon="6.76648">
        <ele>387</ele>
        <time>2015-03-01T08:21:15.000Z</time>
      </trkpt>
      <trkpt lat="47.50845" lon="6.76644">
        <ele>387</ele>
        <time>2015-03-01T08:21:16.000Z</time>
      </trkpt>
      <trkpt lat="47.50843" lon="6.7664">
        <ele>387</ele>
        <time>2015-03-01T08:21:17.000Z</time>
      </trkpt>
      <trkpt lat="47.50842" lon="6.76637">
        <ele>387</ele>
        <time>2015-03-01T08:21:18.000Z</time>
      </trkpt>
      <trkpt lat="47.5084" lon="6.76633">
        <ele>387</ele>
        <time>2015-03-01T08:21:19.000Z</time>
      </trkpt>
      <trkpt lat="47.50838" lon="6.7663">
        <ele>387</ele>
        <time>2015-03-01T08:21:20.000Z</time>
      </trkpt>
      <trkpt lat="47.50836" lon="6.76627">
        <ele>387</ele>
        <time>2015-03-01T08:21:21.000Z</time>
      </trkpt>
      <trkpt lat="47.50835" lon="6.76623">
        <ele>387</ele>
        <time>2015-03-01T08:21:22.000Z</time>
      </trkpt>
      <trkpt lat="47.50833" lon="6.7662">
        <ele>390</ele>
        <time>2015-03-01T08:21:23.000Z</time>
      </trkpt>
      <trkpt lat="47.50832" lon="6.76616">
        <ele>390</ele>
        <time>2015-03-01T08:21:24.000Z</time>
      </trkpt>
      <trkpt lat="47.5083" lon="6.76612">
        <ele>390</ele>
        <time>2015-03-01T08:21:25.000Z</time>
      </trkpt>
      <trkpt lat="47.50829" lon="6.76609">
        <ele>390</ele>
        <time>2015-03-01T08:21:26.000Z</time>
      </trkpt>
      <trkpt lat="47.50828" lon="6.76605">
        <ele>390</ele>
        <time>2015-03-01T08:21:27.000Z</time>
      </trkpt>
      <trkpt lat="47.50826" lon="6.76601">
        <ele>390</ele>
        <time>2015-03-01T08:21:28.000Z</time>
      </trkpt>
      <trkpt lat="47.50825" lon="6.76598">
        <ele>390</ele>
        <time>2015-03-01T08:21:29.000Z</time>
      </trkpt>
      <trkpt lat="47.50823" lon="6.76592">
        <ele>390</ele>
        <time>2015-03-01T08:21:31.000Z</time>
      </trkpt>
      <trkpt lat="47.50821" lon="6.76591">
        <ele>390</ele>
        <time>2015-03-01T08:21:32.000Z</time>
      </trkpt>
      <trkpt lat="47.50817" lon="6.76593">
        <ele>390</ele>
        <time>2015-03-01T08:21:34.000Z</time>
      </trkpt>
      <trkpt lat="47.50815" lon="6.76595">
        <ele>390</ele>
        <time>2015-03-01T08:21:35.000Z</time>
      </trkpt>
      <trkpt lat="47.5081" lon="6.76595">
        <ele>390</ele>
        <time>2015-03-01T08:21:37.000Z</time>
      </trkpt>
      <trkpt lat="47.50809" lon="6.76593">
        <ele>390</ele>
        <time>2015-03-01T08:21:38.000Z</time>
      </trkpt>
      <trkpt lat="47.50808" lon="6.7659">
        <ele>390</ele>
        <time>2015-03-01T08:21:39.000Z</time>
      </trkpt>
      <trkpt lat="47.50807" lon="6.76587">
        <ele>390</ele>
        <time>2015-03-01T08:21:40.000Z</time>
      </trkpt>
      <trkpt lat="47.50804" lon="6.76584">
        <ele>391</ele>
        <time>2015-03-01T08:21:42.000Z</time>
      </trkpt>
      <trkpt lat="47.50803" lon="6.76584">
        <ele>391</ele>
        <time>2015-03-01T08:21:43.000Z</time>
      </trkpt>
      <trkpt lat="47.50799" lon="6.76585">
        <ele>391</ele>
        <time>2015-03-01T08:21:45.000Z</time>
      </trkpt>
      <trkpt lat="47.50797" lon="6.76585">
        <ele>391</ele>
        <time>2015-03-01T08:21:46.000Z</time>
      </trkpt>
      <trkpt lat="47.50793" lon="6.76586">
        <ele>391</ele>
        <time>2015-03-01T08:21:48.000Z</time>
      </trkpt>
      <trkpt lat="47.50791" lon="6.76586">
        <ele>391</ele>
        <time>2015-03-01T08:21:49.000Z</time>
      </trkpt>
      <trkpt lat="47.50789" lon="6.76587">
        <ele>391</ele>
        <time>2015-03-01T08:21:50.000Z</time>
      </trkpt>
      <trkpt lat="47.50786" lon="6.76587">
        <ele>391</ele>
        <time>2015-03-01T08:21:51.000Z</time>
      </trkpt>
      <trkpt lat="47.50783" lon="6.76588">
        <ele>391</ele>
        <time>2015-03-01T08:21:52.000Z</time>
      </trkpt>
      <trkpt lat="47.5078" lon="6.76588">
        <ele>392</ele>
        <time>2015-03-01T08:21:53.000Z</time>
      </trkpt>
      <trkpt lat="47.50777" lon="6.76589">
        <ele>392</ele>
        <time>2015-03-01T08:21:54.000Z</time>
      </trkpt>
      <trkpt lat="47.50773" lon="6.76589">
        <ele>392</ele>
        <time>2015-03-01T08:21:55.000Z</time>
      </trkpt>
      <trkpt lat="47.5077" lon="6.76589">
        <ele>392</ele>
        <time>2015-03-01T08:21:56.000Z</time>
      </trkpt>
      <trkpt lat="47.50767" lon="6.7659">
        <ele>392</ele>
        <time>2015-03-01T08:21:57.000Z</time>
      </trkpt>
      <trkpt lat="47.50764" lon="6.7659">
        <ele>392</ele>
        <time>2015-03-01T08:21:58.000Z</time>
      </trkpt>
      <trkpt lat="47.50761" lon="6.76591">
        <ele>393</ele>
        <time>2015-03-01T08:21:59.000Z</time>
      </trkpt>
      <trkpt lat="47.50757" lon="6.76591">
        <ele>393</ele>
        <time>2015-03-01T08:22:00.000Z</time>
      </trkpt>
      <trkpt lat="47.50754" lon="6.76591">
        <ele>393</ele>
        <time>2015-03-01T08:22:01.000Z</time>
      </trkpt>
      <trkpt lat="47.50751" lon="6.76591">
        <ele>393</ele>
        <time>2015-03-01T08:22:02.000Z</time>
      </trkpt>
      <trkpt lat="47.50748" lon="6.76591">
        <ele>394</ele>
        <time>2015-03-01T08:22:03.000Z</time>
      </trkpt>
      <trkpt lat="47.50745" lon="6.76591">
        <ele>394</ele>
        <time>2015-03-01T08:22:04.000Z</time>
      </trkpt>
      <trkpt lat="47.50743" lon="6.76591">
        <ele>394</ele>
        <time>2015-03-01T08:22:05.000Z</time>
      </trkpt>
      <trkpt lat="47.5074" lon="6.76591">
        <ele>394</ele>
        <time>2015-03-01T08:22:06.000Z</time>
      </trkpt>
      <trkpt lat="47.50737" lon="6.76592">
        <ele>394</ele>
        <time>2015-03-01T08:22:07.000Z</time>
      </trkpt>
      <trkpt lat="47.50734" lon="6.76592">
        <ele>394</ele>
        <time>2015-03-01T08:22:08.000Z</time>
      </trkpt>
      <trkpt lat="47.50731" lon="6.76592">
        <ele>394</ele>
        <time>2015-03-01T08:22:09.000Z</time>
      </trkpt>
      <trkpt lat="47.50728" lon="6.76592">
        <ele>394</ele>
        <time>2015-03-01T08:22:10.000Z</time>
      </trkpt>
      <trkpt lat="47.50725" lon="6.76592">
        <ele>394</ele>
        <time>2015-03-01T08:22:11.000Z</time>
      </trkpt>
      <trkpt lat="47.50722" lon="6.76592">
        <ele>394</ele>
        <time>2015-03-01T08:22:12.000Z</time>
      </trkpt>
      <trkpt lat="47.5072" lon="6.76592">
        <ele>394</ele>
        <time>2015-03-01T08:22:13.000Z</time>
      </trkpt>
      <trkpt lat="47.50717" lon="6.76591">
        <ele>394</ele>
        <time>2015-03-01T08:22:14.000Z</time>
      </trkpt>
      <trkpt lat="47.50714" lon="6.76591">
        <ele>395</ele>
        <time>2015-03-01T08:22:15.000Z</time>
      </trkpt>
      <trkpt lat="47.50711" lon="6.7659">
        <ele>395</ele>
        <time>2015-03-01T08:22:16.000Z</time>
      </trkpt>
      <trkpt lat="47.50708" lon="6.7659">
        <ele>395</ele>
        <time>2015-03-01T08:22:17.000Z</time>
      </trkpt>
      <trkpt lat="47.50705" lon="6.76589">
        <ele>395</ele>
        <time>2015-03-01T08:22:18.000Z</time>
      </trkpt>
      <trkpt lat="47.50702" lon="6.76588">
        <ele>395</ele>
        <time>2015-03-01T08:22:19.000Z</time>
      </trkpt>
      <trkpt lat="47.50699" lon="6.76587">
        <ele>395</ele>
        <time>2015-03-01T08:22:20.000Z</time>
      </trkpt>
      <trkpt lat="47.50697" lon="6.76587">
        <ele>395</ele>
        <time>2015-03-01T08:22:21.000Z</time>
      </trkpt>
      <trkpt lat="47.50694" lon="6.76587">
        <ele>395</ele>
        <time>2015-03-01T08:22:22.000Z</time>
      </trkpt>
      <trkpt lat="47.50691" lon="6.76587">
        <ele>395</ele>
        <time>2015-03-01T08:22:23.000Z</time>
      </trkpt>
      <trkpt lat="47.50688" lon="6.76587">
        <ele>395</ele>
        <time>2015-03-01T08:22:24.000Z</time>
      </trkpt>
      <trkpt lat="47.50686" lon="6.76587">
        <ele>396</ele>
        <time>2015-03-01T08:22:25.000Z</time>
      </trkpt>
      <trkpt lat="47.50683" lon="6.76587">
        <ele>396</ele>
        <time>2015-03-01T08:22:26.000Z</time>
      </trkpt>
      <trkpt lat="47.5068" lon="6.76588">
        <ele>396</ele>
        <time>2015-03-01T08:22:27.000Z</time>
      </trkpt>
      <trkpt lat="47.50677" lon="6.76588">
        <ele>396</ele>
        <time>2015-03-01T08:22:28.000Z</time>
      </trkpt>
      <trkpt lat="47.50675" lon="6.76589">
        <ele>396</ele>
        <time>2015-03-01T08:22:29.000Z</time>
      </trkpt>
      <trkpt lat="47.50672" lon="6.76589">
        <ele>396</ele>
        <time>2015-03-01T08:22:30.000Z</time>
      </trkpt>
      <trkpt lat="47.50669" lon="6.76589">
        <ele>396</ele>
        <time>2015-03-01T08:22:31.000Z</time>
      </trkpt>
      <trkpt lat="47.50667" lon="6.7659">
        <ele>396</ele>
        <time>2015-03-01T08:22:32.000Z</time>
      </trkpt>
      <trkpt lat="47.50664" lon="6.76591">
        <ele>397</ele>
        <time>2015-03-01T08:22:33.000Z</time>
      </trkpt>
      <trkpt lat="47.50662" lon="6.76591">
        <ele>397</ele>
        <time>2015-03-01T08:22:34.000Z</time>
      </trkpt>
      <trkpt lat="47.50659" lon="6.76592">
        <ele>397</ele>
        <time>2015-03-01T08:22:35.000Z</time>
      </trkpt>
      <trkpt lat="47.50657" lon="6.76593">
        <ele>397</ele>
        <time>2015-03-01T08:22:36.000Z</time>
      </trkpt>
      <trkpt lat="47.50654" lon="6.76594">
        <ele>397</ele>
        <time>2015-03-01T08:22:37.000Z</time>
      </trkpt>
      <trkpt lat="47.50652" lon="6.76595">
        <ele>397</ele>
        <time>2015-03-01T08:22:38.000Z</time>
      </trkpt>
      <trkpt lat="47.50649" lon="6.76596">
        <ele>397</ele>
        <time>2015-03-01T08:22:39.000Z</time>
      </trkpt>
      <trkpt lat="47.50647" lon="6.76597">
        <ele>397</ele>
        <time>2015-03-01T08:22:40.000Z</time>
      </trkpt>
      <trkpt lat="47.50644" lon="6.76598">
        <ele>397</ele>
        <time>2015-03-01T08:22:41.000Z</time>
      </trkpt>
      <trkpt lat="47.50642" lon="6.76598">
        <ele>397</ele>
        <time>2015-03-01T08:22:42.000Z</time>
      </trkpt>
      <trkpt lat="47.5064" lon="6.766">
        <ele>397</ele>
        <time>2015-03-01T08:22:43.000Z</time>
      </trkpt>
      <trkpt lat="47.50637" lon="6.766">
        <ele>397</ele>
        <time>2015-03-01T08:22:44.000Z</time>
      </trkpt>
      <trkpt lat="47.50635" lon="6.76601">
        <ele>397</ele>
        <time>2015-03-01T08:22:45.000Z</time>
      </trkpt>
      <trkpt lat="47.50632" lon="6.76603">
        <ele>397</ele>
        <time>2015-03-01T08:22:47.000Z</time>
      </trkpt>
      <trkpt lat="47.5063" lon="6.76604">
        <ele>397</ele>
        <time>2015-03-01T08:22:48.000Z</time>
      </trkpt>
      <trkpt lat="47.50627" lon="6.76606">
        <ele>397</ele>
        <time>2015-03-01T08:22:51.000Z</time>
      </trkpt>
      <trkpt lat="47.50626" lon="6.76607">
        <ele>397</ele>
        <time>2015-03-01T08:22:52.000Z</time>
      </trkpt>
      <trkpt lat="47.50622" lon="6.76609">
        <ele>397</ele>
        <time>2015-03-01T08:22:54.000Z</time>
      </trkpt>
      <trkpt lat="47.5062" lon="6.76611">
        <ele>397</ele>
        <time>2015-03-01T08:22:55.000Z</time>
      </trkpt>
      <trkpt lat="47.50617" lon="6.76612">
        <ele>397</ele>
        <time>2015-03-01T08:22:56.000Z</time>
      </trkpt>
      <trkpt lat="47.50614" lon="6.76613">
        <ele>398</ele>
        <time>2015-03-01T08:22:57.000Z</time>
      </trkpt>
      <trkpt lat="47.50611" lon="6.76614">
        <ele>398</ele>
        <time>2015-03-01T08:22:58.000Z</time>
      </trkpt>
      <trkpt lat="47.50608" lon="6.76615">
        <ele>398</ele>
        <time>2015-03-01T08:22:59.000Z</time>
      </trkpt>
      <trkpt lat="47.50605" lon="6.76617">
        <ele>398</ele>
        <time>2015-03-01T08:23:00.000Z</time>
      </trkpt>
      <trkpt lat="47.50603" lon="6.76618">
        <ele>398</ele>
        <time>2015-03-01T08:23:01.000Z</time>
      </trkpt>
      <trkpt lat="47.506" lon="6.76619">
        <ele>398</ele>
        <time>2015-03-01T08:23:02.000Z</time>
      </trkpt>
      <trkpt lat="47.50597" lon="6.7662">
        <ele>398</ele>
        <time>2015-03-01T08:23:03.000Z</time>
      </trkpt>
      <trkpt lat="47.50594" lon="6.76621">
        <ele>398</ele>
        <time>2015-03-01T08:23:04.000Z</time>
      </trkpt>
      <trkpt lat="47.50592" lon="6.76623">
        <ele>398</ele>
        <time>2015-03-01T08:23:05.000Z</time>
      </trkpt>
      <trkpt lat="47.50589" lon="6.76624">
        <ele>398</ele>
        <time>2015-03-01T08:23:06.000Z</time>
      </trkpt>
      <trkpt lat="47.50586" lon="6.76625">
        <ele>398</ele>
        <time>2015-03-01T08:23:07.000Z</time>
      </trkpt>
      <trkpt lat="47.50583" lon="6.76626">
        <ele>399</ele>
        <time>2015-03-01T08:23:08.000Z</time>
      </trkpt>
      <trkpt lat="47.50581" lon="6.76627">
        <ele>399</ele>
        <time>2015-03-01T08:23:09.000Z</time>
      </trkpt>
      <trkpt lat="47.50578" lon="6.76627">
        <ele>399</ele>
        <time>2015-03-01T08:23:10.000Z</time>
      </trkpt>
      <trkpt lat="47.50575" lon="6.76628">
        <ele>399</ele>
        <time>2015-03-01T08:23:11.000Z</time>
      </trkpt>
      <trkpt lat="47.50573" lon="6.76628">
        <ele>399</ele>
        <time>2015-03-01T08:23:12.000Z</time>
      </trkpt>
      <trkpt lat="47.5057" lon="6.76629">
        <ele>399</ele>
        <time>2015-03-01T08:23:13.000Z</time>
      </trkpt>
      <trkpt lat="47.50568" lon="6.76629">
        <ele>399</ele>
        <time>2015-03-01T08:23:14.000Z</time>
      </trkpt>
      <trkpt lat="47.50565" lon="6.7663">
        <ele>399</ele>
        <time>2015-03-01T08:23:15.000Z</time>
      </trkpt>
      <trkpt lat="47.50563" lon="6.76631">
        <ele>399</ele>
        <time>2015-03-01T08:23:16.000Z</time>
      </trkpt>
      <trkpt lat="47.5056" lon="6.76632">
        <ele>399</ele>
        <time>2015-03-01T08:23:17.000Z</time>
      </trkpt>
      <trkpt lat="47.50558" lon="6.76632">
        <ele>399</ele>
        <time>2015-03-01T08:23:18.000Z</time>
      </trkpt>
      <trkpt lat="47.50555" lon="6.76633">
        <ele>399</ele>
        <time>2015-03-01T08:23:19.000Z</time>
      </trkpt>
      <trkpt lat="47.50553" lon="6.76634">
        <ele>399</ele>
        <time>2015-03-01T08:23:20.000Z</time>
      </trkpt>
      <trkpt lat="47.5055" lon="6.76635">
        <ele>399</ele>
        <time>2015-03-01T08:23:21.000Z</time>
      </trkpt>
      <trkpt lat="47.50547" lon="6.76635">
        <ele>399</ele>
        <time>2015-03-01T08:23:22.000Z</time>
      </trkpt>
      <trkpt lat="47.50544" lon="6.76636">
        <ele>399</ele>
        <time>2015-03-01T08:23:23.000Z</time>
      </trkpt>
      <trkpt lat="47.50541" lon="6.76636">
        <ele>399</ele>
        <time>2015-03-01T08:23:24.000Z</time>
      </trkpt>
      <trkpt lat="47.50538" lon="6.76637">
        <ele>399</ele>
        <time>2015-03-01T08:23:25.000Z</time>
      </trkpt>
      <trkpt lat="47.50536" lon="6.76638">
        <ele>399</ele>
        <time>2015-03-01T08:23:26.000Z</time>
      </trkpt>
      <trkpt lat="47.50533" lon="6.76638">
        <ele>399</ele>
        <time>2015-03-01T08:23:27.000Z</time>
      </trkpt>
      <trkpt lat="47.5053" lon="6.76639">
        <ele>399</ele>
        <time>2015-03-01T08:23:28.000Z</time>
      </trkpt>
      <trkpt lat="47.50527" lon="6.7664">
        <ele>399</ele>
        <time>2015-03-01T08:23:29.000Z</time>
      </trkpt>
      <trkpt lat="47.50524" lon="6.7664">
        <ele>399</ele>
        <time>2015-03-01T08:23:30.000Z</time>
      </trkpt>
      <trkpt lat="47.50521" lon="6.76641">
        <ele>399</ele>
        <time>2015-03-01T08:23:31.000Z</time>
      </trkpt>
      <trkpt lat="47.50517" lon="6.76642">
        <ele>399</ele>
        <time>2015-03-01T08:23:32.000Z</time>
      </trkpt>
      <trkpt lat="47.50514" lon="6.76642">
        <ele>399</ele>
        <time>2015-03-01T08:23:33.000Z</time>
      </trkpt>
      <trkpt lat="47.50511" lon="6.76643">
        <ele>399</ele>
        <time>2015-03-01T08:23:34.000Z</time>
      </trkpt>
      <trkpt lat="47.50509" lon="6.76643">
        <ele>399</ele>
        <time>2015-03-01T08:23:35.000Z</time>
      </trkpt>
      <trkpt lat="47.50506" lon="6.76644">
        <ele>399</ele>
        <time>2015-03-01T08:23:36.000Z</time>
      </trkpt>
      <trkpt lat="47.50503" lon="6.76645">
        <ele>399</ele>
        <time>2015-03-01T08:23:37.000Z</time>
      </trkpt>
      <trkpt lat="47.505" lon="6.76646">
        <ele>399</ele>
        <time>2015-03-01T08:23:38.000Z</time>
      </trkpt>
      <trkpt lat="47.50497" lon="6.76647">
        <ele>399</ele>
        <time>2015-03-01T08:23:39.000Z</time>
      </trkpt>
      <trkpt lat="47.50495" lon="6.76648">
        <ele>399</ele>
        <time>2015-03-01T08:23:40.000Z</time>
      </trkpt>
      <trkpt lat="47.50493" lon="6.76649">
        <ele>399</ele>
        <time>2015-03-01T08:23:41.000Z</time>
      </trkpt>
      <trkpt lat="47.5049" lon="6.7665">
        <ele>399</ele>
        <time>2015-03-01T08:23:42.000Z</time>
      </trkpt>
      <trkpt lat="47.50488" lon="6.76651">
        <ele>399</ele>
        <time>2015-03-01T08:23:43.000Z</time>
      </trkpt>
      <trkpt lat="47.50484" lon="6.76652">
        <ele>399</ele>
        <time>2015-03-01T08:23:45.000Z</time>
      </trkpt>
      <trkpt lat="47.50482" lon="6.76653">
        <ele>399</ele>
        <time>2015-03-01T08:23:46.000Z</time>
      </trkpt>
      <trkpt lat="47.50479" lon="6.76654">
        <ele>399</ele>
        <time>2015-03-01T08:23:48.000Z</time>
      </trkpt>
      <trkpt lat="47.50477" lon="6.76655">
        <ele>398</ele>
        <time>2015-03-01T08:23:49.000Z</time>
      </trkpt>
      <trkpt lat="47.50474" lon="6.76657">
        <ele>398</ele>
        <time>2015-03-01T08:23:54.000Z</time>
      </trkpt>
      <trkpt lat="47.50473" lon="6.76657">
        <ele>398</ele>
        <time>2015-03-01T08:23:55.000Z</time>
      </trkpt>
      <trkpt lat="47.50469" lon="6.76659">
        <ele>398</ele>
        <time>2015-03-01T08:23:59.000Z</time>
      </trkpt>
      <trkpt lat="47.50467" lon="6.7666">
        <ele>398</ele>
        <time>2015-03-01T08:24:00.000Z</time>
      </trkpt>
      <trkpt lat="47.50465" lon="6.76661">
        <ele>398</ele>
        <time>2015-03-01T08:24:01.000Z</time>
      </trkpt>
      <trkpt lat="47.50463" lon="6.76662">
        <ele>398</ele>
        <time>2015-03-01T08:24:02.000Z</time>
      </trkpt>
      <trkpt lat="47.50461" lon="6.76663">
        <ele>398</ele>
        <time>2015-03-01T08:24:03.000Z</time>
      </trkpt>
      <trkpt lat="47.50459" lon="6.76665">
        <ele>398</ele>
        <time>2015-03-01T08:24:04.000Z</time>
      </trkpt>
      <trkpt lat="47.50457" lon="6.76667">
        <ele>398</ele>
        <time>2015-03-01T08:24:05.000Z</time>
      </trkpt>
      <trkpt lat="47.50455" lon="6.76668">
        <ele>397</ele>
        <time>2015-03-01T08:24:06.000Z</time>
      </trkpt>
      <trkpt lat="47.50453" lon="6.7667">
        <ele>397</ele>
        <time>2015-03-01T08:24:07.000Z</time>
      </trkpt>
      <trkpt lat="47.50451" lon="6.76672">
        <ele>397</ele>
        <time>2015-03-01T08:24:08.000Z</time>
      </trkpt>
      <trkpt lat="47.50449" lon="6.76674">
        <ele>397</ele>
        <time>2015-03-01T08:24:09.000Z</time>
      </trkpt>
      <trkpt lat="47.50447" lon="6.76676">
        <ele>397</ele>
        <time>2015-03-01T08:24:10.000Z</time>
      </trkpt>
      <trkpt lat="47.50443" lon="6.7668">
        <ele>397</ele>
        <time>2015-03-01T08:24:12.000Z</time>
      </trkpt>
      <trkpt lat="47.50441" lon="6.76681">
        <ele>397</ele>
        <time>2015-03-01T08:24:13.000Z</time>
      </trkpt>
      <trkpt lat="47.50438" lon="6.76683">
        <ele>397</ele>
        <time>2015-03-01T08:24:15.000Z</time>
      </trkpt>
      <trkpt lat="47.50436" lon="6.76685">
        <ele>397</ele>
        <time>2015-03-01T08:24:16.000Z</time>
      </trkpt>
      <trkpt lat="47.50433" lon="6.76687">
        <ele>397</ele>
        <time>2015-03-01T08:24:18.000Z</time>
      </trkpt>
      <trkpt lat="47.50431" lon="6.76688">
        <ele>397</ele>
        <time>2015-03-01T08:24:19.000Z</time>
      </trkpt>
      <trkpt lat="47.50428" lon="6.7669">
        <ele>397</ele>
        <time>2015-03-01T08:24:21.000Z</time>
      </trkpt>
      <trkpt lat="47.50425" lon="6.76691">
        <ele>397</ele>
        <time>2015-03-01T08:24:22.000Z</time>
      </trkpt>
      <trkpt lat="47.50423" lon="6.76693">
        <ele>397</ele>
        <time>2015-03-01T08:24:23.000Z</time>
      </trkpt>
      <trkpt lat="47.50421" lon="6.76694">
        <ele>397</ele>
        <time>2015-03-01T08:24:24.000Z</time>
      </trkpt>
      <trkpt lat="47.50417" lon="6.76696">
        <ele>397</ele>
        <time>2015-03-01T08:24:26.000Z</time>
      </trkpt>
      <trkpt lat="47.50415" lon="6.76697">
        <ele>397</ele>
        <time>2015-03-01T08:24:27.000Z</time>
      </trkpt>
      <trkpt lat="47.50412" lon="6.76698">
        <ele>397</ele>
        <time>2015-03-01T08:24:29.000Z</time>
      </trkpt>
      <trkpt lat="47.5041" lon="6.76698">
        <ele>397</ele>
        <time>2015-03-01T08:24:30.000Z</time>
      </trkpt>
      <trkpt lat="47.50407" lon="6.76699">
        <ele>397</ele>
        <time>2015-03-01T08:24:33.000Z</time>
      </trkpt>
      <trkpt lat="47.50406" lon="6.767">
        <ele>397</ele>
        <time>2015-03-01T08:24:34.000Z</time>
      </trkpt>
      <trkpt lat="47.50402" lon="6.76702">
        <ele>397</ele>
        <time>2015-03-01T08:24:36.000Z</time>
      </trkpt>
      <trkpt lat="47.50401" lon="6.76703">
        <ele>397</ele>
        <time>2015-03-01T08:24:37.000Z</time>
      </trkpt>
      <trkpt lat="47.50397" lon="6.76706">
        <ele>397</ele>
        <time>2015-03-01T08:24:39.000Z</time>
      </trkpt>
      <trkpt lat="47.50395" lon="6.76708">
        <ele>397</ele>
        <time>2015-03-01T08:24:40.000Z</time>
      </trkpt>
      <trkpt lat="47.50393" lon="6.7671">
        <ele>398</ele>
        <time>2015-03-01T08:24:41.000Z</time>
      </trkpt>
      <trkpt lat="47.50391" lon="6.76712">
        <ele>398</ele>
        <time>2015-03-01T08:24:42.000Z</time>
      </trkpt>
      <trkpt lat="47.50388" lon="6.76713">
        <ele>398</ele>
        <time>2015-03-01T08:24:43.000Z</time>
      </trkpt>
      <trkpt lat="47.50386" lon="6.76715">
        <ele>398</ele>
        <time>2015-03-01T08:24:44.000Z</time>
      </trkpt>
      <trkpt lat="47.50383" lon="6.76716">
        <ele>398</ele>
        <time>2015-03-01T08:24:45.000Z</time>
      </trkpt>
      <trkpt lat="47.50381" lon="6.76717">
        <ele>398</ele>
        <time>2015-03-01T08:24:46.000Z</time>
      </trkpt>
      <trkpt lat="47.50376" lon="6.76716">
        <ele>398</ele>
        <time>2015-03-01T08:24:47.000Z</time>
      </trkpt>
      <trkpt lat="47.50371" lon="6.76716">
        <ele>398</ele>
        <time>2015-03-01T08:24:48.000Z</time>
      </trkpt>
      <trkpt lat="47.50367" lon="6.76716">
        <ele>398</ele>
        <time>2015-03-01T08:24:49.000Z</time>
      </trkpt>
      <trkpt lat="47.50363" lon="6.76716">
        <ele>398</ele>
        <time>2015-03-01T08:24:50.000Z</time>
      </trkpt>
      <trkpt lat="47.50359" lon="6.76717">
        <ele>398</ele>
        <time>2015-03-01T08:24:51.000Z</time>
      </trkpt>
      <trkpt lat="47.50355" lon="6.76717">
        <ele>398</ele>
        <time>2015-03-01T08:24:52.000Z</time>
      </trkpt>
      <trkpt lat="47.50352" lon="6.76718">
        <ele>398</ele>
        <time>2015-03-01T08:24:53.000Z</time>
      </trkpt>
      <trkpt lat="47.50349" lon="6.76718">
        <ele>398</ele>
        <time>2015-03-01T08:24:54.000Z</time>
      </trkpt>
      <trkpt lat="47.50346" lon="6.76719">
        <ele>398</ele>
        <time>2015-03-01T08:24:55.000Z</time>
      </trkpt>
      <trkpt lat="47.50343" lon="6.76719">
        <ele>398</ele>
        <time>2015-03-01T08:24:56.000Z</time>
      </trkpt>
      <trkpt lat="47.5034" lon="6.7672">
        <ele>398</ele>
        <time>2015-03-01T08:24:57.000Z</time>
      </trkpt>
      <trkpt lat="47.50338" lon="6.76721">
        <ele>398</ele>
        <time>2015-03-01T08:24:58.000Z</time>
      </trkpt>
      <trkpt lat="47.50335" lon="6.76722">
        <ele>398</ele>
        <time>2015-03-01T08:24:59.000Z</time>
      </trkpt>
      <trkpt lat="47.50332" lon="6.76722">
        <ele>398</ele>
        <time>2015-03-01T08:25:00.000Z</time>
      </trkpt>
      <trkpt lat="47.5033" lon="6.76723">
        <ele>398</ele>
        <time>2015-03-01T08:25:01.000Z</time>
      </trkpt>
      <trkpt lat="47.50327" lon="6.76723">
        <ele>398</ele>
        <time>2015-03-01T08:25:02.000Z</time>
      </trkpt>
      <trkpt lat="47.50324" lon="6.76724">
        <ele>398</ele>
        <time>2015-03-01T08:25:03.000Z</time>
      </trkpt>
      <trkpt lat="47.50321" lon="6.76725">
        <ele>398</ele>
        <time>2015-03-01T08:25:04.000Z</time>
      </trkpt>
      <trkpt lat="47.50319" lon="6.76726">
        <ele>398</ele>
        <time>2015-03-01T08:25:05.000Z</time>
      </trkpt>
      <trkpt lat="47.50316" lon="6.76727">
        <ele>398</ele>
        <time>2015-03-01T08:25:06.000Z</time>
      </trkpt>
      <trkpt lat="47.50314" lon="6.76728">
        <ele>398</ele>
        <time>2015-03-01T08:25:07.000Z</time>
      </trkpt>
      <trkpt lat="47.50311" lon="6.76729">
        <ele>398</ele>
        <time>2015-03-01T08:25:08.000Z</time>
      </trkpt>
      <trkpt lat="47.50308" lon="6.7673">
        <ele>398</ele>
        <time>2015-03-01T08:25:09.000Z</time>
      </trkpt>
      <trkpt lat="47.50305" lon="6.76731">
        <ele>398</ele>
        <time>2015-03-01T08:25:10.000Z</time>
      </trkpt>
      <trkpt lat="47.50301" lon="6.76732">
        <ele>398</ele>
        <time>2015-03-01T08:25:12.000Z</time>
      </trkpt>
      <trkpt lat="47.50299" lon="6.76732">
        <ele>399</ele>
        <time>2015-03-01T08:25:13.000Z</time>
      </trkpt>
      <trkpt lat="47.50296" lon="6.76733">
        <ele>399</ele>
        <time>2015-03-01T08:25:15.000Z</time>
      </trkpt>
      <trkpt lat="47.50293" lon="6.76734">
        <ele>399</ele>
        <time>2015-03-01T08:25:16.000Z</time>
      </trkpt>
      <trkpt lat="47.50291" lon="6.76734">
        <ele>399</ele>
        <time>2015-03-01T08:25:17.000Z</time>
      </trkpt>
      <trkpt lat="47.50288" lon="6.76735">
        <ele>399</ele>
        <time>2015-03-01T08:25:18.000Z</time>
      </trkpt>
      <trkpt lat="47.50285" lon="6.76735">
        <ele>399</ele>
        <time>2015-03-01T08:25:19.000Z</time>
      </trkpt>
      <trkpt lat="47.50283" lon="6.76736">
        <ele>399</ele>
        <time>2015-03-01T08:25:20.000Z</time>
      </trkpt>
      <trkpt lat="47.5028" lon="6.76736">
        <ele>399</ele>
        <time>2015-03-01T08:25:21.000Z</time>
      </trkpt>
      <trkpt lat="47.50278" lon="6.76737">
        <ele>399</ele>
        <time>2015-03-01T08:25:22.000Z</time>
      </trkpt>
      <trkpt lat="47.50275" lon="6.76738">
        <ele>399</ele>
        <time>2015-03-01T08:25:23.000Z</time>
      </trkpt>
      <trkpt lat="47.50273" lon="6.76739">
        <ele>399</ele>
        <time>2015-03-01T08:25:24.000Z</time>
      </trkpt>
      <trkpt lat="47.5027" lon="6.7674">
        <ele>399</ele>
        <time>2015-03-01T08:25:25.000Z</time>
      </trkpt>
      <trkpt lat="47.50268" lon="6.76741">
        <ele>399</ele>
        <time>2015-03-01T08:25:26.000Z</time>
      </trkpt>
      <trkpt lat="47.50265" lon="6.76741">
        <ele>399</ele>
        <time>2015-03-01T08:25:27.000Z</time>
      </trkpt>
      <trkpt lat="47.50262" lon="6.76742">
        <ele>399</ele>
        <time>2015-03-01T08:25:28.000Z</time>
      </trkpt>
      <trkpt lat="47.5026" lon="6.76743">
        <ele>399</ele>
        <time>2015-03-01T08:25:29.000Z</time>
      </trkpt>
      <trkpt lat="47.50257" lon="6.76743">
        <ele>400</ele>
        <time>2015-03-01T08:25:30.000Z</time>
      </trkpt>
      <trkpt lat="47.50254" lon="6.76743">
        <ele>400</ele>
        <time>2015-03-01T08:25:31.000Z</time>
      </trkpt>
      <trkpt lat="47.50252" lon="6.76742">
        <ele>400</ele>
        <time>2015-03-01T08:25:32.000Z</time>
      </trkpt>
      <trkpt lat="47.50248" lon="6.76739">
        <ele>401</ele>
        <time>2015-03-01T08:25:34.000Z</time>
      </trkpt>
      <trkpt lat="47.50246" lon="6.76737">
        <ele>401</ele>
        <time>2015-03-01T08:25:35.000Z</time>
      </trkpt>
      <trkpt lat="47.50244" lon="6.76732">
        <ele>401</ele>
        <time>2015-03-01T08:25:37.000Z</time>
      </trkpt>
      <trkpt lat="47.50243" lon="6.7673">
        <ele>401</ele>
        <time>2015-03-01T08:25:38.000Z</time>
      </trkpt>
      <trkpt lat="47.50241" lon="6.76727">
        <ele>401</ele>
        <time>2015-03-01T08:25:39.000Z</time>
      </trkpt>
      <trkpt lat="47.5024" lon="6.76724">
        <ele>401</ele>
        <time>2015-03-01T08:25:40.000Z</time>
      </trkpt>
      <trkpt lat="47.50238" lon="6.76721">
        <ele>401</ele>
        <time>2015-03-01T08:25:41.000Z</time>
      </trkpt>
      <trkpt lat="47.50237" lon="6.76718">
        <ele>401</ele>
        <time>2015-03-01T08:25:42.000Z</time>
      </trkpt>
      <trkpt lat="47.50235" lon="6.76715">
        <ele>402</ele>
        <time>2015-03-01T08:25:43.000Z</time>
      </trkpt>
      <trkpt lat="47.50233" lon="6.76712">
        <ele>402</ele>
        <time>2015-03-01T08:25:44.000Z</time>
      </trkpt>
      <trkpt lat="47.50232" lon="6.76709">
        <ele>402</ele>
        <time>2015-03-01T08:25:45.000Z</time>
      </trkpt>
      <trkpt lat="47.50231" lon="6.76706">
        <ele>402</ele>
        <time>2015-03-01T08:25:46.000Z</time>
      </trkpt>
      <trkpt lat="47.5023" lon="6.76703">
        <ele>402</ele>
        <time>2015-03-01T08:25:47.000Z</time>
      </trkpt>
      <trkpt lat="47.50229" lon="6.76699">
        <ele>401</ele>
        <time>2015-03-01T08:25:48.000Z</time>
      </trkpt>
      <trkpt lat="47.50228" lon="6.76695">
        <ele>401</ele>
        <time>2015-03-01T08:25:49.000Z</time>
      </trkpt>
      <trkpt lat="47.50227" lon="6.76691">
        <ele>401</ele>
        <time>2015-03-01T08:25:50.000Z</time>
      </trkpt>
      <trkpt lat="47.50226" lon="6.76687">
        <ele>401</ele>
        <time>2015-03-01T08:25:51.000Z</time>
      </trkpt>
      <trkpt lat="47.50225" lon="6.76683">
        <ele>401</ele>
        <time>2015-03-01T08:25:52.000Z</time>
      </trkpt>
      <trkpt lat="47.50223" lon="6.76679">
        <ele>401</ele>
        <time>2015-03-01T08:25:53.000Z</time>
      </trkpt>
      <trkpt lat="47.50222" lon="6.76674">
        <ele>401</ele>
        <time>2015-03-01T08:25:54.000Z</time>
      </trkpt>
      <trkpt lat="47.5022" lon="6.7667">
        <ele>401</ele>
        <time>2015-03-01T08:25:55.000Z</time>
      </trkpt>
      <trkpt lat="47.50219" lon="6.76666">
        <ele>401</ele>
        <time>2015-03-01T08:25:56.000Z</time>
      </trkpt>
      <trkpt lat="47.50217" lon="6.76662">
        <ele>401</ele>
        <time>2015-03-01T08:25:57.000Z</time>
      </trkpt>
      <trkpt lat="47.50216" lon="6.76658">
        <ele>401</ele>
        <time>2015-03-01T08:25:58.000Z</time>
      </trkpt>
      <trkpt lat="47.50215" lon="6.76653">
        <ele>402</ele>
        <time>2015-03-01T08:25:59.000Z</time>
      </trkpt>
      <trkpt lat="47.50214" lon="6.76649">
        <ele>402</ele>
        <time>2015-03-01T08:26:00.000Z</time>
      </trkpt>
      <trkpt lat="47.50213" lon="6.76645">
        <ele>402</ele>
        <time>2015-03-01T08:26:01.000Z</time>
      </trkpt>
      <trkpt lat="47.50211" lon="6.76641">
        <ele>402</ele>
        <time>2015-03-01T08:26:02.000Z</time>
      </trkpt>
      <trkpt lat="47.5021" lon="6.76637">
        <ele>402</ele>
        <time>2015-03-01T08:26:03.000Z</time>
      </trkpt>
      <trkpt lat="47.50209" lon="6.76633">
        <ele>402</ele>
        <time>2015-03-01T08:26:04.000Z</time>
      </trkpt>
      <trkpt lat="47.50207" lon="6.76629">
        <ele>402</ele>
        <time>2015-03-01T08:26:05.000Z</time>
      </trkpt>
      <trkpt lat="47.50206" lon="6.76625">
        <ele>402</ele>
        <time>2015-03-01T08:26:06.000Z</time>
      </trkpt>
      <trkpt lat="47.50204" lon="6.76621">
        <ele>402</ele>
        <time>2015-03-01T08:26:07.000Z</time>
      </trkpt>
      <trkpt lat="47.50203" lon="6.76617">
        <ele>402</ele>
        <time>2015-03-01T08:26:08.000Z</time>
      </trkpt>
      <trkpt lat="47.50201" lon="6.76612">
        <ele>402</ele>
        <time>2015-03-01T08:26:09.000Z</time>
      </trkpt>
      <trkpt lat="47.502" lon="6.76608">
        <ele>403</ele>
        <time>2015-03-01T08:26:10.000Z</time>
      </trkpt>
      <trkpt lat="47.50199" lon="6.76604">
        <ele>403</ele>
        <time>2015-03-01T08:26:11.000Z</time>
      </trkpt>
      <trkpt lat="47.50199" lon="6.766">
        <ele>403</ele>
        <time>2015-03-01T08:26:12.000Z</time>
      </trkpt>
      <trkpt lat="47.50198" lon="6.76596">
        <ele>403</ele>
        <time>2015-03-01T08:26:13.000Z</time>
      </trkpt>
      <trkpt lat="47.50198" lon="6.76592">
        <ele>403</ele>
        <time>2015-03-01T08:26:14.000Z</time>
      </trkpt>
      <trkpt lat="47.50198" lon="6.76588">
        <ele>403</ele>
        <time>2015-03-01T08:26:15.000Z</time>
      </trkpt>
      <trkpt lat="47.50198" lon="6.76585">
        <ele>403</ele>
        <time>2015-03-01T08:26:16.000Z</time>
      </trkpt>
      <trkpt lat="47.50198" lon="6.7658">
        <ele>402</ele>
        <time>2015-03-01T08:26:18.000Z</time>
      </trkpt>
      <trkpt lat="47.50198" lon="6.76577">
        <ele>402</ele>
        <time>2015-03-01T08:26:19.000Z</time>
      </trkpt>
      <trkpt lat="47.50199" lon="6.76571">
        <ele>402</ele>
        <time>2015-03-01T08:26:21.000Z</time>
      </trkpt>
      <trkpt lat="47.50201" lon="6.76568">
        <ele>402</ele>
        <time>2015-03-01T08:26:22.000Z</time>
      </trkpt>
      <trkpt lat="47.50202" lon="6.76565">
        <ele>402</ele>
        <time>2015-03-01T08:26:23.000Z</time>
      </trkpt>
      <trkpt lat="47.50204" lon="6.76563">
        <ele>401</ele>
        <time>2015-03-01T08:26:24.000Z</time>
      </trkpt>
      <trkpt lat="47.50206" lon="6.76561">
        <ele>401</ele>
        <time>2015-03-01T08:26:25.000Z</time>
      </trkpt>
      <trkpt lat="47.50209" lon="6.7656">
        <ele>401</ele>
        <time>2015-03-01T08:26:26.000Z</time>
      </trkpt>
      <trkpt lat="47.50211" lon="6.76559">
        <ele>401</ele>
        <time>2015-03-01T08:26:27.000Z</time>
      </trkpt>
      <trkpt lat="47.50213" lon="6.76559">
        <ele>401</ele>
        <time>2015-03-01T08:26:28.000Z</time>
      </trkpt>
      <trkpt lat="47.50217" lon="6.76559">
        <ele>400</ele>
        <time>2015-03-01T08:26:30.000Z</time>
      </trkpt>
      <trkpt lat="47.5022" lon="6.76557">
        <ele>400</ele>
        <time>2015-03-01T08:26:31.000Z</time>
      </trkpt>
      <trkpt lat="47.50222" lon="6.76553">
        <ele>400</ele>
        <time>2015-03-01T08:26:32.000Z</time>
      </trkpt>
      <trkpt lat="47.50223" lon="6.76549">
        <ele>400</ele>
        <time>2015-03-01T08:26:33.000Z</time>
      </trkpt>
      <trkpt lat="47.50225" lon="6.76544">
        <ele>400</ele>
        <time>2015-03-01T08:26:34.000Z</time>
      </trkpt>
      <trkpt lat="47.50226" lon="6.76538">
        <ele>399</ele>
        <time>2015-03-01T08:26:35.000Z</time>
      </trkpt>
      <trkpt lat="47.50227" lon="6.76533">
        <ele>399</ele>
        <time>2015-03-01T08:26:36.000Z</time>
      </trkpt>
      <trkpt lat="47.50228" lon="6.76527">
        <ele>399</ele>
        <time>2015-03-01T08:26:37.000Z</time>
      </trkpt>
      <trkpt lat="47.50228" lon="6.76522">
        <ele>398</ele>
        <time>2015-03-01T08:26:38.000Z</time>
      </trkpt>
      <trkpt lat="47.50228" lon="6.76516">
        <ele>398</ele>
        <time>2015-03-01T08:26:39.000Z</time>
      </trkpt>
      <trkpt lat="47.50227" lon="6.76511">
        <ele>398</ele>
        <time>2015-03-01T08:26:40.000Z</time>
      </trkpt>
      <trkpt lat="47.50227" lon="6.76505">
        <ele>398</ele>
        <time>2015-03-01T08:26:41.000Z</time>
      </trkpt>
      <trkpt lat="47.50227" lon="6.765">
        <ele>395</ele>
        <time>2015-03-01T08:26:42.000Z</time>
      </trkpt>
      <trkpt lat="47.50226" lon="6.76495">
        <ele>395</ele>
        <time>2015-03-01T08:26:43.000Z</time>
      </trkpt>
      <trkpt lat="47.50226" lon="6.76489">
        <ele>395</ele>
        <time>2015-03-01T08:26:44.000Z</time>
      </trkpt>
      <trkpt lat="47.50226" lon="6.76483">
        <ele>395</ele>
        <time>2015-03-01T08:26:45.000Z</time>
      </trkpt>
      <trkpt lat="47.50225" lon="6.76477">
        <ele>395</ele>
        <time>2015-03-01T08:26:46.000Z</time>
      </trkpt>
      <trkpt lat="47.50223" lon="6.7647">
        <ele>394</ele>
        <time>2015-03-01T08:26:47.000Z</time>
      </trkpt>
      <trkpt lat="47.50221" lon="6.76463">
        <ele>394</ele>
        <time>2015-03-01T08:26:48.000Z</time>
      </trkpt>
      <trkpt lat="47.50219" lon="6.76456">
        <ele>394</ele>
        <time>2015-03-01T08:26:49.000Z</time>
      </trkpt>
      <trkpt lat="47.50217" lon="6.7645">
        <ele>394</ele>
        <time>2015-03-01T08:26:50.000Z</time>
      </trkpt>
      <trkpt lat="47.50216" lon="6.76444">
        <ele>394</ele>
        <time>2015-03-01T08:26:51.000Z</time>
      </trkpt>
      <trkpt lat="47.50215" lon="6.76438">
        <ele>394</ele>
        <time>2015-03-01T08:26:52.000Z</time>
      </trkpt>
      <trkpt lat="47.50213" lon="6.76432">
        <ele>394</ele>
        <time>2015-03-01T08:26:53.000Z</time>
      </trkpt>
      <trkpt lat="47.5021" lon="6.76426">
        <ele>394</ele>
        <time>2015-03-01T08:26:54.000Z</time>
      </trkpt>
      <trkpt lat="47.50208" lon="6.7642">
        <ele>394</ele>
        <time>2015-03-01T08:26:55.000Z</time>
      </trkpt>
      <trkpt lat="47.50206" lon="6.76414">
        <ele>390</ele>
        <time>2015-03-01T08:26:56.000Z</time>
      </trkpt>
      <trkpt lat="47.50204" lon="6.76407">
        <ele>390</ele>
        <time>2015-03-01T08:26:57.000Z</time>
      </trkpt>
      <trkpt lat="47.50202" lon="6.764">
        <ele>390</ele>
        <time>2015-03-01T08:26:58.000Z</time>
      </trkpt>
      <trkpt lat="47.502" lon="6.76393">
        <ele>390</ele>
        <time>2015-03-01T08:26:59.000Z</time>
      </trkpt>
      <trkpt lat="47.502" lon="6.76387">
        <ele>390</ele>
        <time>2015-03-01T08:27:00.000Z</time>
      </trkpt>
      <trkpt lat="47.50199" lon="6.7638">
        <ele>390</ele>
        <time>2015-03-01T08:27:01.000Z</time>
      </trkpt>
      <trkpt lat="47.50199" lon="6.76373">
        <ele>390</ele>
        <time>2015-03-01T08:27:02.000Z</time>
      </trkpt>
      <trkpt lat="47.50198" lon="6.76366">
        <ele>389</ele>
        <time>2015-03-01T08:27:03.000Z</time>
      </trkpt>
      <trkpt lat="47.50198" lon="6.76359">
        <ele>389</ele>
        <time>2015-03-01T08:27:04.000Z</time>
      </trkpt>
      <trkpt lat="47.50198" lon="6.76352">
        <ele>389</ele>
        <time>2015-03-01T08:27:05.000Z</time>
      </trkpt>
      <trkpt lat="47.50198" lon="6.76345">
        <ele>389</ele>
        <time>2015-03-01T08:27:06.000Z</time>
      </trkpt>
      <trkpt lat="47.50198" lon="6.76337">
        <ele>389</ele>
        <time>2015-03-01T08:27:07.000Z</time>
      </trkpt>
      <trkpt lat="47.50195" lon="6.76318">
        <ele>386</ele>
        <time>2015-03-01T08:27:08.000Z</time>
      </trkpt>
      <trkpt lat="47.50195" lon="6.76312">
        <ele>386</ele>
        <time>2015-03-01T08:27:09.000Z</time>
      </trkpt>
      <trkpt lat="47.50195" lon="6.76304">
        <ele>386</ele>
        <time>2015-03-01T08:27:10.000Z</time>
      </trkpt>
      <trkpt lat="47.50197" lon="6.76298">
        <ele>385</ele>
        <time>2015-03-01T08:27:11.000Z</time>
      </trkpt>
      <trkpt lat="47.50196" lon="6.76291">
        <ele>385</ele>
        <time>2015-03-01T08:27:12.000Z</time>
      </trkpt>
      <trkpt lat="47.50188" lon="6.76283">
        <ele>385</ele>
        <time>2015-03-01T08:27:13.000Z</time>
      </trkpt>
      <trkpt lat="47.50187" lon="6.76276">
        <ele>385</ele>
        <time>2015-03-01T08:27:14.000Z</time>
      </trkpt>
      <trkpt lat="47.50185" lon="6.76269">
        <ele>385</ele>
        <time>2015-03-01T08:27:15.000Z</time>
      </trkpt>
      <trkpt lat="47.50185" lon="6.76262">
        <ele>385</ele>
        <time>2015-03-01T08:27:16.000Z</time>
      </trkpt>
      <trkpt lat="47.50181" lon="6.76255">
        <ele>385</ele>
        <time>2015-03-01T08:27:17.000Z</time>
      </trkpt>
      <trkpt lat="47.50182" lon="6.76246">
        <ele>383</ele>
        <time>2015-03-01T08:27:18.000Z</time>
      </trkpt>
      <trkpt lat="47.50178" lon="6.76236">
        <ele>383</ele>
        <time>2015-03-01T08:27:19.000Z</time>
      </trkpt>
      <trkpt lat="47.50177" lon="6.76228">
        <ele>382</ele>
        <time>2015-03-01T08:27:20.000Z</time>
      </trkpt>
      <trkpt lat="47.50175" lon="6.76221">
        <ele>382</ele>
        <time>2015-03-01T08:27:21.000Z</time>
      </trkpt>
      <trkpt lat="47.50176" lon="6.76213">
        <ele>381</ele>
        <time>2015-03-01T08:27:22.000Z</time>
      </trkpt>
      <trkpt lat="47.50179" lon="6.76205">
        <ele>380</ele>
        <time>2015-03-01T08:27:23.000Z</time>
      </trkpt>
      <trkpt lat="47.5018" lon="6.76195">
        <ele>380</ele>
        <time>2015-03-01T08:27:24.000Z</time>
      </trkpt>
      <trkpt lat="47.50175" lon="6.76186">
        <ele>379</ele>
        <time>2015-03-01T08:27:25.000Z</time>
      </trkpt>
      <trkpt lat="47.50159" lon="6.76177">
        <ele>382</ele>
        <time>2015-03-01T08:27:26.000Z</time>
      </trkpt>
      <trkpt lat="47.5016" lon="6.76167">
        <ele>380</ele>
        <time>2015-03-01T08:27:27.000Z</time>
      </trkpt>
      <trkpt lat="47.50161" lon="6.76159">
        <ele>379</ele>
        <time>2015-03-01T08:27:28.000Z</time>
      </trkpt>
      <trkpt lat="47.5016" lon="6.76152">
        <ele>380</ele>
        <time>2015-03-01T08:27:29.000Z</time>
      </trkpt>
      <trkpt lat="47.50162" lon="6.76145">
        <ele>381</ele>
        <time>2015-03-01T08:27:30.000Z</time>
      </trkpt>
      <trkpt lat="47.50163" lon="6.76138">
        <ele>381</ele>
        <time>2015-03-01T08:27:31.000Z</time>
      </trkpt>
      <trkpt lat="47.50164" lon="6.76129">
        <ele>381</ele>
        <time>2015-03-01T08:27:32.000Z</time>
      </trkpt>
      <trkpt lat="47.50164" lon="6.76121">
        <ele>381</ele>
        <time>2015-03-01T08:27:33.000Z</time>
      </trkpt>
      <trkpt lat="47.50167" lon="6.76114">
        <ele>376</ele>
        <time>2015-03-01T08:27:34.000Z</time>
      </trkpt>
      <trkpt lat="47.50164" lon="6.76105">
        <ele>379</ele>
        <time>2015-03-01T08:27:35.000Z</time>
      </trkpt>
      <trkpt lat="47.50163" lon="6.76091">
        <ele>377</ele>
        <time>2015-03-01T08:27:36.000Z</time>
      </trkpt>
      <trkpt lat="47.50168" lon="6.76076">
        <ele>374</ele>
        <time>2015-03-01T08:27:37.000Z</time>
      </trkpt>
      <trkpt lat="47.50169" lon="6.76067">
        <ele>373</ele>
        <time>2015-03-01T08:27:38.000Z</time>
      </trkpt>
      <trkpt lat="47.50161" lon="6.76051">
        <ele>377</ele>
        <time>2015-03-01T08:27:39.000Z</time>
      </trkpt>
      <trkpt lat="47.50157" lon="6.76037">
        <ele>376</ele>
        <time>2015-03-01T08:27:40.000Z</time>
      </trkpt>
      <trkpt lat="47.50153" lon="6.76025">
        <ele>376</ele>
        <time>2015-03-01T08:27:41.000Z</time>
      </trkpt>
      <trkpt lat="47.50147" lon="6.76017">
        <ele>376</ele>
        <time>2015-03-01T08:27:42.000Z</time>
      </trkpt>
      <trkpt lat="47.50137" lon="6.7601">
        <ele>376</ele>
        <time>2015-03-01T08:27:43.000Z</time>
      </trkpt>
      <trkpt lat="47.50126" lon="6.76002">
        <ele>377</ele>
        <time>2015-03-01T08:27:44.000Z</time>
      </trkpt>
      <trkpt lat="47.50117" lon="6.75992">
        <ele>374</ele>
        <time>2015-03-01T08:27:45.000Z</time>
      </trkpt>
      <trkpt lat="47.50111" lon="6.75985">
        <ele>374</ele>
        <time>2015-03-01T08:27:46.000Z</time>
      </trkpt>
      <trkpt lat="47.50104" lon="6.75976">
        <ele>374</ele>
        <time>2015-03-01T08:27:47.000Z</time>
      </trkpt>
      <trkpt lat="47.50098" lon="6.75968">
        <ele>374</ele>
        <time>2015-03-01T08:27:48.000Z</time>
      </trkpt>
      <trkpt lat="47.50094" lon="6.75962">
        <ele>374</ele>
        <time>2015-03-01T08:27:49.000Z</time>
      </trkpt>
      <trkpt lat="47.50088" lon="6.75956">
        <ele>374</ele>
        <time>2015-03-01T08:27:50.000Z</time>
      </trkpt>
      <trkpt lat="47.50083" lon="6.75949">
        <ele>374</ele>
        <time>2015-03-01T08:27:51.000Z</time>
      </trkpt>
      <trkpt lat="47.5008" lon="6.75944">
        <ele>377</ele>
        <time>2015-03-01T08:27:52.000Z</time>
      </trkpt>
      <trkpt lat="47.50075" lon="6.75939">
        <ele>377</ele>
        <time>2015-03-01T08:27:53.000Z</time>
      </trkpt>
      <trkpt lat="47.50073" lon="6.75933">
        <ele>377</ele>
        <time>2015-03-01T08:27:54.000Z</time>
      </trkpt>
      <trkpt lat="47.50071" lon="6.75927">
        <ele>376</ele>
        <time>2015-03-01T08:27:55.000Z</time>
      </trkpt>
      <trkpt lat="47.50066" lon="6.7592">
        <ele>376</ele>
        <time>2015-03-01T08:27:56.000Z</time>
      </trkpt>
      <trkpt lat="47.50061" lon="6.75914">
        <ele>375</ele>
        <time>2015-03-01T08:27:57.000Z</time>
      </trkpt>
      <trkpt lat="47.50056" lon="6.75909">
        <ele>375</ele>
        <time>2015-03-01T08:27:58.000Z</time>
      </trkpt>
      <trkpt lat="47.50053" lon="6.75903">
        <ele>376</ele>
        <time>2015-03-01T08:27:59.000Z</time>
      </trkpt>
      <trkpt lat="47.5005" lon="6.75897">
        <ele>376</ele>
        <time>2015-03-01T08:28:00.000Z</time>
      </trkpt>
      <trkpt lat="47.50047" lon="6.75893">
        <ele>376</ele>
        <time>2015-03-01T08:28:01.000Z</time>
      </trkpt>
      <trkpt lat="47.50042" lon="6.75885">
        <ele>376</ele>
        <time>2015-03-01T08:28:02.000Z</time>
      </trkpt>
      <trkpt lat="47.50041" lon="6.75875">
        <ele>376</ele>
        <time>2015-03-01T08:28:03.000Z</time>
      </trkpt>
      <trkpt lat="47.50042" lon="6.75866">
        <ele>376</ele>
        <time>2015-03-01T08:28:04.000Z</time>
      </trkpt>
      <trkpt lat="47.50037" lon="6.75861">
        <ele>376</ele>
        <time>2015-03-01T08:28:05.000Z</time>
      </trkpt>
      <trkpt lat="47.50031" lon="6.75855">
        <ele>376</ele>
        <time>2015-03-01T08:28:06.000Z</time>
      </trkpt>
      <trkpt lat="47.50022" lon="6.7585">
        <ele>377</ele>
        <time>2015-03-01T08:28:07.000Z</time>
      </trkpt>
      <trkpt lat="47.50018" lon="6.75845">
        <ele>377</ele>
        <time>2015-03-01T08:28:08.000Z</time>
      </trkpt>
      <trkpt lat="47.50015" lon="6.75839">
        <ele>378</ele>
        <time>2015-03-01T08:28:09.000Z</time>
      </trkpt>
      <trkpt lat="47.50015" lon="6.75828">
        <ele>377</ele>
        <time>2015-03-01T08:28:10.000Z</time>
      </trkpt>
      <trkpt lat="47.5001" lon="6.75817">
        <ele>376</ele>
        <time>2015-03-01T08:28:11.000Z</time>
      </trkpt>
      <trkpt lat="47.50009" lon="6.75806">
        <ele>376</ele>
        <time>2015-03-01T08:28:12.000Z</time>
      </trkpt>
      <trkpt lat="47.50007" lon="6.75796">
        <ele>376</ele>
        <time>2015-03-01T08:28:13.000Z</time>
      </trkpt>
      <trkpt lat="47.50001" lon="6.7579">
        <ele>375</ele>
        <time>2015-03-01T08:28:14.000Z</time>
      </trkpt>
      <trkpt lat="47.49992" lon="6.75784">
        <ele>375</ele>
        <time>2015-03-01T08:28:15.000Z</time>
      </trkpt>
      <trkpt lat="47.49983" lon="6.75777">
        <ele>375</ele>
        <time>2015-03-01T08:28:16.000Z</time>
      </trkpt>
      <trkpt lat="47.49978" lon="6.75773">
        <ele>375</ele>
        <time>2015-03-01T08:28:17.000Z</time>
      </trkpt>
      <trkpt lat="47.49975" lon="6.7577">
        <ele>375</ele>
        <time>2015-03-01T08:28:18.000Z</time>
      </trkpt>
      <trkpt lat="47.49973" lon="6.75768">
        <ele>374</ele>
        <time>2015-03-01T08:28:19.000Z</time>
      </trkpt>
      <trkpt lat="47.49966" lon="6.75765">
        <ele>374</ele>
        <time>2015-03-01T08:28:20.000Z</time>
      </trkpt>
      <trkpt lat="47.49961" lon="6.75758">
        <ele>374</ele>
        <time>2015-03-01T08:28:21.000Z</time>
      </trkpt>
      <trkpt lat="47.49958" lon="6.7575">
        <ele>371</ele>
        <time>2015-03-01T08:28:22.000Z</time>
      </trkpt>
      <trkpt lat="47.49955" lon="6.75745">
        <ele>371</ele>
        <time>2015-03-01T08:28:23.000Z</time>
      </trkpt>
      <trkpt lat="47.49953" lon="6.75738">
        <ele>371</ele>
        <time>2015-03-01T08:28:24.000Z</time>
      </trkpt>
      <trkpt lat="47.49946" lon="6.75732">
        <ele>370</ele>
        <time>2015-03-01T08:28:25.000Z</time>
      </trkpt>
      <trkpt lat="47.49941" lon="6.75727">
        <ele>370</ele>
        <time>2015-03-01T08:28:26.000Z</time>
      </trkpt>
      <trkpt lat="47.49938" lon="6.75724">
        <ele>370</ele>
        <time>2015-03-01T08:28:27.000Z</time>
      </trkpt>
      <trkpt lat="47.49934" lon="6.75721">
        <ele>370</ele>
        <time>2015-03-01T08:28:28.000Z</time>
      </trkpt>
      <trkpt lat="47.49929" lon="6.7572">
        <ele>370</ele>
        <time>2015-03-01T08:28:29.000Z</time>
      </trkpt>
      <trkpt lat="47.49925" lon="6.75719">
        <ele>370</ele>
        <time>2015-03-01T08:28:30.000Z</time>
      </trkpt>
      <trkpt lat="47.49921" lon="6.75719">
        <ele>370</ele>
        <time>2015-03-01T08:28:31.000Z</time>
      </trkpt>
      <trkpt lat="47.49917" lon="6.7572">
        <ele>370</ele>
        <time>2015-03-01T08:28:32.000Z</time>
      </trkpt>
      <trkpt lat="47.49912" lon="6.75721">
        <ele>365</ele>
        <time>2015-03-01T08:28:33.000Z</time>
      </trkpt>
      <trkpt lat="47.49898" lon="6.75724">
        <ele>364</ele>
        <time>2015-03-01T08:28:34.000Z</time>
      </trkpt>
      <trkpt lat="47.49891" lon="6.75723">
        <ele>364</ele>
        <time>2015-03-01T08:28:35.000Z</time>
      </trkpt>
      <trkpt lat="47.49884" lon="6.75725">
        <ele>363</ele>
        <time>2015-03-01T08:28:36.000Z</time>
      </trkpt>
      <trkpt lat="47.49877" lon="6.75726">
        <ele>363</ele>
        <time>2015-03-01T08:28:37.000Z</time>
      </trkpt>
      <trkpt lat="47.4987" lon="6.75726">
        <ele>362</ele>
        <time>2015-03-01T08:28:38.000Z</time>
      </trkpt>
      <trkpt lat="47.49865" lon="6.75725">
        <ele>362</ele>
        <time>2015-03-01T08:28:39.000Z</time>
      </trkpt>
      <trkpt lat="47.4986" lon="6.75727">
        <ele>362</ele>
        <time>2015-03-01T08:28:40.000Z</time>
      </trkpt>
      <trkpt lat="47.49853" lon="6.75727">
        <ele>361</ele>
        <time>2015-03-01T08:28:41.000Z</time>
      </trkpt>
      <trkpt lat="47.49846" lon="6.7573">
        <ele>361</ele>
        <time>2015-03-01T08:28:42.000Z</time>
      </trkpt>
      <trkpt lat="47.49838" lon="6.75733">
        <ele>360</ele>
        <time>2015-03-01T08:28:43.000Z</time>
      </trkpt>
      <trkpt lat="47.4983" lon="6.75734">
        <ele>355</ele>
        <time>2015-03-01T08:28:44.000Z</time>
      </trkpt>
      <trkpt lat="47.49822" lon="6.75734">
        <ele>355</ele>
        <time>2015-03-01T08:28:45.000Z</time>
      </trkpt>
      <trkpt lat="47.49811" lon="6.75737">
        <ele>354</ele>
        <time>2015-03-01T08:28:46.000Z</time>
      </trkpt>
      <trkpt lat="47.49803" lon="6.75739">
        <ele>353</ele>
        <time>2015-03-01T08:28:47.000Z</time>
      </trkpt>
      <trkpt lat="47.49793" lon="6.7574">
        <ele>352</ele>
        <time>2015-03-01T08:28:48.000Z</time>
      </trkpt>
      <trkpt lat="47.49786" lon="6.75742">
        <ele>352</ele>
        <time>2015-03-01T08:28:49.000Z</time>
      </trkpt>
      <trkpt lat="47.49778" lon="6.75746">
        <ele>351</ele>
        <time>2015-03-01T08:28:50.000Z</time>
      </trkpt>
      <trkpt lat="47.4977" lon="6.75749">
        <ele>351</ele>
        <time>2015-03-01T08:28:51.000Z</time>
      </trkpt>
      <trkpt lat="47.49764" lon="6.75752">
        <ele>355</ele>
        <time>2015-03-01T08:28:52.000Z</time>
      </trkpt>
      <trkpt lat="47.49758" lon="6.75753">
        <ele>354</ele>
        <time>2015-03-01T08:28:53.000Z</time>
      </trkpt>
      <trkpt lat="47.49752" lon="6.75754">
        <ele>353</ele>
        <time>2015-03-01T08:28:54.000Z</time>
      </trkpt>
      <trkpt lat="47.49745" lon="6.75756">
        <ele>352</ele>
        <time>2015-03-01T08:28:55.000Z</time>
      </trkpt>
      <trkpt lat="47.49737" lon="6.75759">
        <ele>353</ele>
        <time>2015-03-01T08:28:56.000Z</time>
      </trkpt>
      <trkpt lat="47.49731" lon="6.75761">
        <ele>353</ele>
        <time>2015-03-01T08:28:57.000Z</time>
      </trkpt>
      <trkpt lat="47.49725" lon="6.75763">
        <ele>353</ele>
        <time>2015-03-01T08:28:58.000Z</time>
      </trkpt>
      <trkpt lat="47.49718" lon="6.75764">
        <ele>353</ele>
        <time>2015-03-01T08:28:59.000Z</time>
      </trkpt>
      <trkpt lat="47.49712" lon="6.75766">
        <ele>353</ele>
        <time>2015-03-01T08:29:00.000Z</time>
      </trkpt>
      <trkpt lat="47.49705" lon="6.75766">
        <ele>353</ele>
        <time>2015-03-01T08:29:01.000Z</time>
      </trkpt>
      <trkpt lat="47.49696" lon="6.75767">
        <ele>352</ele>
        <time>2015-03-01T08:29:02.000Z</time>
      </trkpt>
      <trkpt lat="47.49691" lon="6.75769">
        <ele>352</ele>
        <time>2015-03-01T08:29:03.000Z</time>
      </trkpt>
      <trkpt lat="47.49683" lon="6.75767">
        <ele>351</ele>
        <time>2015-03-01T08:29:04.000Z</time>
      </trkpt>
      <trkpt lat="47.49676" lon="6.75769">
        <ele>350</ele>
        <time>2015-03-01T08:29:05.000Z</time>
      </trkpt>
      <trkpt lat="47.49669" lon="6.7577">
        <ele>350</ele>
        <time>2015-03-01T08:29:06.000Z</time>
      </trkpt>
      <trkpt lat="47.49664" lon="6.75771">
        <ele>346</ele>
        <time>2015-03-01T08:29:07.000Z</time>
      </trkpt>
      <trkpt lat="47.49657" lon="6.75768">
        <ele>345</ele>
        <time>2015-03-01T08:29:08.000Z</time>
      </trkpt>
      <trkpt lat="47.49653" lon="6.75767">
        <ele>345</ele>
        <time>2015-03-01T08:29:09.000Z</time>
      </trkpt>
      <trkpt lat="47.49647" lon="6.75766">
        <ele>345</ele>
        <time>2015-03-01T08:29:10.000Z</time>
      </trkpt>
      <trkpt lat="47.49642" lon="6.75765">
        <ele>345</ele>
        <time>2015-03-01T08:29:11.000Z</time>
      </trkpt>
      <trkpt lat="47.49636" lon="6.75766">
        <ele>345</ele>
        <time>2015-03-01T08:29:12.000Z</time>
      </trkpt>
      <trkpt lat="47.49629" lon="6.75765">
        <ele>344</ele>
        <time>2015-03-01T08:29:13.000Z</time>
      </trkpt>
      <trkpt lat="47.49624" lon="6.75766">
        <ele>344</ele>
        <time>2015-03-01T08:29:14.000Z</time>
      </trkpt>
      <trkpt lat="47.49621" lon="6.75766">
        <ele>344</ele>
        <time>2015-03-01T08:29:15.000Z</time>
      </trkpt>
      <trkpt lat="47.49617" lon="6.75763">
        <ele>343</ele>
        <time>2015-03-01T08:29:16.000Z</time>
      </trkpt>
      <trkpt lat="47.49613" lon="6.75762">
        <ele>343</ele>
        <time>2015-03-01T08:29:17.000Z</time>
      </trkpt>
      <trkpt lat="47.49608" lon="6.75762">
        <ele>342</ele>
        <time>2015-03-01T08:29:18.000Z</time>
      </trkpt>
      <trkpt lat="47.49602" lon="6.7576">
        <ele>341</ele>
        <time>2015-03-01T08:29:19.000Z</time>
      </trkpt>
      <trkpt lat="47.49595" lon="6.7576">
        <ele>340</ele>
        <time>2015-03-01T08:29:20.000Z</time>
      </trkpt>
      <trkpt lat="47.49589" lon="6.75759">
        <ele>338</ele>
        <time>2015-03-01T08:29:21.000Z</time>
      </trkpt>
      <trkpt lat="47.49584" lon="6.75758">
        <ele>337</ele>
        <time>2015-03-01T08:29:22.000Z</time>
      </trkpt>
      <trkpt lat="47.49578" lon="6.75756">
        <ele>335</ele>
        <time>2015-03-01T08:29:23.000Z</time>
      </trkpt>
      <trkpt lat="47.49573" lon="6.75749">
        <ele>331</ele>
        <time>2015-03-01T08:29:24.000Z</time>
      </trkpt>
      <trkpt lat="47.4957" lon="6.75745">
        <ele>330</ele>
        <time>2015-03-01T08:29:25.000Z</time>
      </trkpt>
      <trkpt lat="47.49568" lon="6.75742">
        <ele>329</ele>
        <time>2015-03-01T08:29:26.000Z</time>
      </trkpt>
      <trkpt lat="47.49567" lon="6.75743">
        <ele>329</ele>
        <time>2015-03-01T08:29:28.000Z</time>
      </trkpt>
      <trkpt lat="47.49559" lon="6.75752">
        <ele>335</ele>
        <time>2015-03-01T08:29:29.000Z</time>
      </trkpt>
      <trkpt lat="47.49559" lon="6.75747">
        <ele>328</ele>
        <time>2015-03-01T08:29:31.000Z</time>
      </trkpt>
      <trkpt lat="47.49561" lon="6.75745">
        <ele>328</ele>
        <time>2015-03-01T08:29:32.000Z</time>
      </trkpt>
      <trkpt lat="47.49564" lon="6.75742">
        <ele>329</ele>
        <time>2015-03-01T08:29:33.000Z</time>
      </trkpt>
      <trkpt lat="47.49567" lon="6.75739">
        <ele>329</ele>
        <time>2015-03-01T08:29:34.000Z</time>
      </trkpt>
      <trkpt lat="47.4957" lon="6.75736">
        <ele>329</ele>
        <time>2015-03-01T08:29:35.000Z</time>
      </trkpt>
      <trkpt lat="47.49574" lon="6.75734">
        <ele>329</ele>
        <time>2015-03-01T08:29:36.000Z</time>
      </trkpt>
      <trkpt lat="47.49578" lon="6.75731">
        <ele>329</ele>
        <time>2015-03-01T08:29:37.000Z</time>
      </trkpt>
      <trkpt lat="47.49582" lon="6.75728">
        <ele>329</ele>
        <time>2015-03-01T08:29:38.000Z</time>
      </trkpt>
      <trkpt lat="47.49585" lon="6.75725">
        <ele>332</ele>
        <time>2015-03-01T08:29:39.000Z</time>
      </trkpt>
      <trkpt lat="47.49589" lon="6.75721">
        <ele>331</ele>
        <time>2015-03-01T08:29:40.000Z</time>
      </trkpt>
      <trkpt lat="47.49592" lon="6.75717">
        <ele>331</ele>
        <time>2015-03-01T08:29:41.000Z</time>
      </trkpt>
      <trkpt lat="47.49594" lon="6.75712">
        <ele>331</ele>
        <time>2015-03-01T08:29:42.000Z</time>
      </trkpt>
      <trkpt lat="47.49597" lon="6.75706">
        <ele>330</ele>
        <time>2015-03-01T08:29:43.000Z</time>
      </trkpt>
      <trkpt lat="47.49599" lon="6.757">
        <ele>329</ele>
        <time>2015-03-01T08:29:44.000Z</time>
      </trkpt>
      <trkpt lat="47.49599" lon="6.75694">
        <ele>329</ele>
        <time>2015-03-01T08:29:45.000Z</time>
      </trkpt>
      <trkpt lat="47.49599" lon="6.75688">
        <ele>328</ele>
        <time>2015-03-01T08:29:46.000Z</time>
      </trkpt>
      <trkpt lat="47.49597" lon="6.75682">
        <ele>327</ele>
        <time>2015-03-01T08:29:47.000Z</time>
      </trkpt>
      <trkpt lat="47.49595" lon="6.75676">
        <ele>326</ele>
        <time>2015-03-01T08:29:48.000Z</time>
      </trkpt>
      <trkpt lat="47.49591" lon="6.75671">
        <ele>324</ele>
        <time>2015-03-01T08:29:49.000Z</time>
      </trkpt>
      <trkpt lat="47.49573" lon="6.75681">
        <ele>323</ele>
        <time>2015-03-01T08:29:50.000Z</time>
      </trkpt>
      <trkpt lat="47.49567" lon="6.75682">
        <ele>324</ele>
        <time>2015-03-01T08:29:51.000Z</time>
      </trkpt>
      <trkpt lat="47.49564" lon="6.75688">
        <ele>324</ele>
        <time>2015-03-01T08:29:52.000Z</time>
      </trkpt>
      <trkpt lat="47.49561" lon="6.75694">
        <ele>324</ele>
        <time>2015-03-01T08:29:53.000Z</time>
      </trkpt>
      <trkpt lat="47.49556" lon="6.757">
        <ele>325</ele>
        <time>2015-03-01T08:29:54.000Z</time>
      </trkpt>
      <trkpt lat="47.49552" lon="6.75704">
        <ele>325</ele>
        <time>2015-03-01T08:29:55.000Z</time>
      </trkpt>
      <trkpt lat="47.49547" lon="6.75709">
        <ele>325</ele>
        <time>2015-03-01T08:29:56.000Z</time>
      </trkpt>
      <trkpt lat="47.49542" lon="6.75715">
        <ele>325</ele>
        <time>2015-03-01T08:29:57.000Z</time>
      </trkpt>
      <trkpt lat="47.49537" lon="6.7572">
        <ele>325</ele>
        <time>2015-03-01T08:29:58.000Z</time>
      </trkpt>
      <trkpt lat="47.49531" lon="6.75723">
        <ele>325</ele>
        <time>2015-03-01T08:29:59.000Z</time>
      </trkpt>
      <trkpt lat="47.49526" lon="6.75726">
        <ele>325</ele>
        <time>2015-03-01T08:30:00.000Z</time>
      </trkpt>
      <trkpt lat="47.49521" lon="6.7573">
        <ele>325</ele>
        <time>2015-03-01T08:30:01.000Z</time>
      </trkpt>
      <trkpt lat="47.49517" lon="6.75732">
        <ele>325</ele>
        <time>2015-03-01T08:30:02.000Z</time>
      </trkpt>
      <trkpt lat="47.49511" lon="6.75733">
        <ele>325</ele>
        <time>2015-03-01T08:30:03.000Z</time>
      </trkpt>
      <trkpt lat="47.49506" lon="6.75736">
        <ele>325</ele>
        <time>2015-03-01T08:30:04.000Z</time>
      </trkpt>
      <trkpt lat="47.49502" lon="6.75738">
        <ele>324</ele>
        <time>2015-03-01T08:30:05.000Z</time>
      </trkpt>
      <trkpt lat="47.49498" lon="6.75739">
        <ele>323</ele>
        <time>2015-03-01T08:30:06.000Z</time>
      </trkpt>
      <trkpt lat="47.49493" lon="6.75739">
        <ele>323</ele>
        <time>2015-03-01T08:30:07.000Z</time>
      </trkpt>
      <trkpt lat="47.49489" lon="6.75739">
        <ele>323</ele>
        <time>2015-03-01T08:30:08.000Z</time>
      </trkpt>
      <trkpt lat="47.49485" lon="6.75736">
        <ele>322</ele>
        <time>2015-03-01T08:30:09.000Z</time>
      </trkpt>
      <trkpt lat="47.49481" lon="6.75731">
        <ele>322</ele>
        <time>2015-03-01T08:30:10.000Z</time>
      </trkpt>
      <trkpt lat="47.49479" lon="6.75725">
        <ele>322</ele>
        <time>2015-03-01T08:30:11.000Z</time>
      </trkpt>
      <trkpt lat="47.49477" lon="6.75718">
        <ele>322</ele>
        <time>2015-03-01T08:30:12.000Z</time>
      </trkpt>
      <trkpt lat="47.49475" lon="6.75712">
        <ele>321</ele>
        <time>2015-03-01T08:30:13.000Z</time>
      </trkpt>
      <trkpt lat="47.49473" lon="6.75706">
        <ele>321</ele>
        <time>2015-03-01T08:30:14.000Z</time>
      </trkpt>
      <trkpt lat="47.49471" lon="6.757">
        <ele>321</ele>
        <time>2015-03-01T08:30:15.000Z</time>
      </trkpt>
      <trkpt lat="47.49466" lon="6.75697">
        <ele>321</ele>
        <time>2015-03-01T08:30:16.000Z</time>
      </trkpt>
      <trkpt lat="47.49463" lon="6.75695">
        <ele>321</ele>
        <time>2015-03-01T08:30:17.000Z</time>
      </trkpt>
      <trkpt lat="47.49458" lon="6.75698">
        <ele>321</ele>
        <time>2015-03-01T08:30:18.000Z</time>
      </trkpt>
      <trkpt lat="47.49454" lon="6.75701">
        <ele>321</ele>
        <time>2015-03-01T08:30:19.000Z</time>
      </trkpt>
      <trkpt lat="47.49449" lon="6.75702">
        <ele>321</ele>
        <time>2015-03-01T08:30:20.000Z</time>
      </trkpt>
      <trkpt lat="47.49445" lon="6.75699">
        <ele>321</ele>
        <time>2015-03-01T08:30:21.000Z</time>
      </trkpt>
      <trkpt lat="47.49443" lon="6.75696">
        <ele>321</ele>
        <time>2015-03-01T08:30:22.000Z</time>
      </trkpt>
      <trkpt lat="47.49441" lon="6.75691">
        <ele>320</ele>
        <time>2015-03-01T08:30:23.000Z</time>
      </trkpt>
      <trkpt lat="47.49439" lon="6.75685">
        <ele>320</ele>
        <time>2015-03-01T08:30:24.000Z</time>
      </trkpt>
      <trkpt lat="47.49437" lon="6.75679">
        <ele>320</ele>
        <time>2015-03-01T08:30:25.000Z</time>
      </trkpt>
      <trkpt lat="47.49434" lon="6.75674">
        <ele>320</ele>
        <time>2015-03-01T08:30:26.000Z</time>
      </trkpt>
      <trkpt lat="47.49432" lon="6.7567">
        <ele>320</ele>
        <time>2015-03-01T08:30:27.000Z</time>
      </trkpt>
      <trkpt lat="47.49429" lon="6.75668">
        <ele>320</ele>
        <time>2015-03-01T08:30:28.000Z</time>
      </trkpt>
      <trkpt lat="47.49426" lon="6.75669">
        <ele>320</ele>
        <time>2015-03-01T08:30:29.000Z</time>
      </trkpt>
      <trkpt lat="47.49423" lon="6.75672">
        <ele>320</ele>
        <time>2015-03-01T08:30:30.000Z</time>
      </trkpt>
      <trkpt lat="47.49419" lon="6.75676">
        <ele>320</ele>
        <time>2015-03-01T08:30:31.000Z</time>
      </trkpt>
      <trkpt lat="47.49412" lon="6.75681">
        <ele>319</ele>
        <time>2015-03-01T08:30:32.000Z</time>
      </trkpt>
      <trkpt lat="47.49408" lon="6.75686">
        <ele>319</ele>
        <time>2015-03-01T08:30:33.000Z</time>
      </trkpt>
      <trkpt lat="47.49403" lon="6.75691">
        <ele>319</ele>
        <time>2015-03-01T08:30:34.000Z</time>
      </trkpt>
      <trkpt lat="47.49398" lon="6.75694">
        <ele>319</ele>
        <time>2015-03-01T08:30:35.000Z</time>
      </trkpt>
      <trkpt lat="47.49393" lon="6.75697">
        <ele>319</ele>
        <time>2015-03-01T08:30:36.000Z</time>
      </trkpt>
      <trkpt lat="47.49388" lon="6.757">
        <ele>319</ele>
        <time>2015-03-01T08:30:37.000Z</time>
      </trkpt>
      <trkpt lat="47.49386" lon="6.75703">
        <ele>319</ele>
        <time>2015-03-01T08:30:38.000Z</time>
      </trkpt>
      <trkpt lat="47.49382" lon="6.75706">
        <ele>319</ele>
        <time>2015-03-01T08:30:39.000Z</time>
      </trkpt>
      <trkpt lat="47.49379" lon="6.75709">
        <ele>319</ele>
        <time>2015-03-01T08:30:40.000Z</time>
      </trkpt>
      <trkpt lat="47.49376" lon="6.75712">
        <ele>319</ele>
        <time>2015-03-01T08:30:41.000Z</time>
      </trkpt>
      <trkpt lat="47.49373" lon="6.75713">
        <ele>319</ele>
        <time>2015-03-01T08:30:42.000Z</time>
      </trkpt>
      <trkpt lat="47.4937" lon="6.75716">
        <ele>319</ele>
        <time>2015-03-01T08:30:43.000Z</time>
      </trkpt>
      <trkpt lat="47.49366" lon="6.75716">
        <ele>319</ele>
        <time>2015-03-01T08:30:46.000Z</time>
      </trkpt>
      <trkpt lat="47.49362" lon="6.75718">
        <ele>319</ele>
        <time>2015-03-01T08:30:47.000Z</time>
      </trkpt>
      <trkpt lat="47.49358" lon="6.7572">
        <ele>319</ele>
        <time>2015-03-01T08:30:48.000Z</time>
      </trkpt>
      <trkpt lat="47.49354" lon="6.75723">
        <ele>319</ele>
        <time>2015-03-01T08:30:49.000Z</time>
      </trkpt>
      <trkpt lat="47.4935" lon="6.75726">
        <ele>319</ele>
        <time>2015-03-01T08:30:50.000Z</time>
      </trkpt>
      <trkpt lat="47.49346" lon="6.75728">
        <ele>318</ele>
        <time>2015-03-01T08:30:51.000Z</time>
      </trkpt>
      <trkpt lat="47.49342" lon="6.75731">
        <ele>318</ele>
        <time>2015-03-01T08:30:52.000Z</time>
      </trkpt>
      <trkpt lat="47.49338" lon="6.75734">
        <ele>318</ele>
        <time>2015-03-01T08:30:53.000Z</time>
      </trkpt>
      <trkpt lat="47.49333" lon="6.75737">
        <ele>318</ele>
        <time>2015-03-01T08:30:54.000Z</time>
      </trkpt>
      <trkpt lat="47.49329" lon="6.7574">
        <ele>318</ele>
        <time>2015-03-01T08:30:55.000Z</time>
      </trkpt>
      <trkpt lat="47.49325" lon="6.75743">
        <ele>318</ele>
        <time>2015-03-01T08:30:56.000Z</time>
      </trkpt>
      <trkpt lat="47.49321" lon="6.75746">
        <ele>319</ele>
        <time>2015-03-01T08:30:57.000Z</time>
      </trkpt>
      <trkpt lat="47.49316" lon="6.7575">
        <ele>319</ele>
        <time>2015-03-01T08:30:58.000Z</time>
      </trkpt>
      <trkpt lat="47.49312" lon="6.75754">
        <ele>318</ele>
        <time>2015-03-01T08:30:59.000Z</time>
      </trkpt>
      <trkpt lat="47.49308" lon="6.75757">
        <ele>318</ele>
        <time>2015-03-01T08:31:00.000Z</time>
      </trkpt>
      <trkpt lat="47.49305" lon="6.75762">
        <ele>318</ele>
        <time>2015-03-01T08:31:01.000Z</time>
      </trkpt>
      <trkpt lat="47.49301" lon="6.75766">
        <ele>318</ele>
        <time>2015-03-01T08:31:02.000Z</time>
      </trkpt>
      <trkpt lat="47.49297" lon="6.75771">
        <ele>318</ele>
        <time>2015-03-01T08:31:03.000Z</time>
      </trkpt>
      <trkpt lat="47.49293" lon="6.75776">
        <ele>318</ele>
        <time>2015-03-01T08:31:04.000Z</time>
      </trkpt>
      <trkpt lat="47.4929" lon="6.7578">
        <ele>318</ele>
        <time>2015-03-01T08:31:05.000Z</time>
      </trkpt>
      <trkpt lat="47.49287" lon="6.75785">
        <ele>318</ele>
        <time>2015-03-01T08:31:06.000Z</time>
      </trkpt>
      <trkpt lat="47.49281" lon="6.75793">
        <ele>318</ele>
        <time>2015-03-01T08:31:07.000Z</time>
      </trkpt>
      <trkpt lat="47.49278" lon="6.75798">
        <ele>318</ele>
        <time>2015-03-01T08:31:08.000Z</time>
      </trkpt>
      <trkpt lat="47.49274" lon="6.75804">
        <ele>317</ele>
        <time>2015-03-01T08:31:09.000Z</time>
      </trkpt>
      <trkpt lat="47.49269" lon="6.75809">
        <ele>317</ele>
        <time>2015-03-01T08:31:10.000Z</time>
      </trkpt>
      <trkpt lat="47.49266" lon="6.75815">
        <ele>316</ele>
        <time>2015-03-01T08:31:11.000Z</time>
      </trkpt>
      <trkpt lat="47.49262" lon="6.75821">
        <ele>316</ele>
        <time>2015-03-01T08:31:12.000Z</time>
      </trkpt>
      <trkpt lat="47.49257" lon="6.7583">
        <ele>315</ele>
        <time>2015-03-01T08:31:13.000Z</time>
      </trkpt>
      <trkpt lat="47.49254" lon="6.75836">
        <ele>314</ele>
        <time>2015-03-01T08:31:14.000Z</time>
      </trkpt>
      <trkpt lat="47.49251" lon="6.75842">
        <ele>315</ele>
        <time>2015-03-01T08:31:15.000Z</time>
      </trkpt>
      <trkpt lat="47.49248" lon="6.7585">
        <ele>316</ele>
        <time>2015-03-01T08:31:16.000Z</time>
      </trkpt>
      <trkpt lat="47.49245" lon="6.75856">
        <ele>317</ele>
        <time>2015-03-01T08:31:17.000Z</time>
      </trkpt>
      <trkpt lat="47.49243" lon="6.75863">
        <ele>317</ele>
        <time>2015-03-01T08:31:18.000Z</time>
      </trkpt>
      <trkpt lat="47.4924" lon="6.7587">
        <ele>318</ele>
        <time>2015-03-01T08:31:19.000Z</time>
      </trkpt>
      <trkpt lat="47.49237" lon="6.75877">
        <ele>318</ele>
        <time>2015-03-01T08:31:20.000Z</time>
      </trkpt>
      <trkpt lat="47.49233" lon="6.75883">
        <ele>318</ele>
        <time>2015-03-01T08:31:21.000Z</time>
      </trkpt>
      <trkpt lat="47.49231" lon="6.75891">
        <ele>318</ele>
        <time>2015-03-01T08:31:22.000Z</time>
      </trkpt>
      <trkpt lat="47.49228" lon="6.75897">
        <ele>318</ele>
        <time>2015-03-01T08:31:23.000Z</time>
      </trkpt>
      <trkpt lat="47.49224" lon="6.75903">
        <ele>319</ele>
        <time>2015-03-01T08:31:24.000Z</time>
      </trkpt>
      <trkpt lat="47.49222" lon="6.75911">
        <ele>319</ele>
        <time>2015-03-01T08:31:25.000Z</time>
      </trkpt>
      <trkpt lat="47.49219" lon="6.75916">
        <ele>319</ele>
        <time>2015-03-01T08:31:26.000Z</time>
      </trkpt>
      <trkpt lat="47.49216" lon="6.75922">
        <ele>320</ele>
        <time>2015-03-01T08:31:27.000Z</time>
      </trkpt>
      <trkpt lat="47.49214" lon="6.7593">
        <ele>320</ele>
        <time>2015-03-01T08:31:28.000Z</time>
      </trkpt>
      <trkpt lat="47.4921" lon="6.75935">
        <ele>320</ele>
        <time>2015-03-01T08:31:29.000Z</time>
      </trkpt>
      <trkpt lat="47.49207" lon="6.75942">
        <ele>320</ele>
        <time>2015-03-01T08:31:30.000Z</time>
      </trkpt>
      <trkpt lat="47.49205" lon="6.75948">
        <ele>320</ele>
        <time>2015-03-01T08:31:31.000Z</time>
      </trkpt>
      <trkpt lat="47.49201" lon="6.75953">
        <ele>320</ele>
        <time>2015-03-01T08:31:32.000Z</time>
      </trkpt>
      <trkpt lat="47.49196" lon="6.75959">
        <ele>320</ele>
        <time>2015-03-01T08:31:33.000Z</time>
      </trkpt>
      <trkpt lat="47.49193" lon="6.75967">
        <ele>320</ele>
        <time>2015-03-01T08:31:34.000Z</time>
      </trkpt>
      <trkpt lat="47.49189" lon="6.75975">
        <ele>320</ele>
        <time>2015-03-01T08:31:35.000Z</time>
      </trkpt>
      <trkpt lat="47.49186" lon="6.75981">
        <ele>320</ele>
        <time>2015-03-01T08:31:36.000Z</time>
      </trkpt>
      <trkpt lat="47.49182" lon="6.75987">
        <ele>320</ele>
        <time>2015-03-01T08:31:37.000Z</time>
      </trkpt>
      <trkpt lat="47.49178" lon="6.75993">
        <ele>320</ele>
        <time>2015-03-01T08:31:38.000Z</time>
      </trkpt>
      <trkpt lat="47.49176" lon="6.76">
        <ele>320</ele>
        <time>2015-03-01T08:31:39.000Z</time>
      </trkpt>
      <trkpt lat="47.49172" lon="6.7601">
        <ele>320</ele>
        <time>2015-03-01T08:31:40.000Z</time>
      </trkpt>
      <trkpt lat="47.49168" lon="6.76018">
        <ele>320</ele>
        <time>2015-03-01T08:31:41.000Z</time>
      </trkpt>
      <trkpt lat="47.49165" lon="6.76027">
        <ele>322</ele>
        <time>2015-03-01T08:31:42.000Z</time>
      </trkpt>
      <trkpt lat="47.49162" lon="6.76034">
        <ele>322</ele>
        <time>2015-03-01T08:31:43.000Z</time>
      </trkpt>
      <trkpt lat="47.49159" lon="6.76041">
        <ele>322</ele>
        <time>2015-03-01T08:31:44.000Z</time>
      </trkpt>
      <trkpt lat="47.49156" lon="6.76048">
        <ele>322</ele>
        <time>2015-03-01T08:31:45.000Z</time>
      </trkpt>
      <trkpt lat="47.49153" lon="6.76056">
        <ele>322</ele>
        <time>2015-03-01T08:31:46.000Z</time>
      </trkpt>
      <trkpt lat="47.49151" lon="6.76064">
        <ele>322</ele>
        <time>2015-03-01T08:31:47.000Z</time>
      </trkpt>
      <trkpt lat="47.49149" lon="6.76071">
        <ele>322</ele>
        <time>2015-03-01T08:31:48.000Z</time>
      </trkpt>
      <trkpt lat="47.49148" lon="6.76079">
        <ele>322</ele>
        <time>2015-03-01T08:31:49.000Z</time>
      </trkpt>
      <trkpt lat="47.49146" lon="6.76088">
        <ele>321</ele>
        <time>2015-03-01T08:31:50.000Z</time>
      </trkpt>
      <trkpt lat="47.49144" lon="6.76096">
        <ele>321</ele>
        <time>2015-03-01T08:31:51.000Z</time>
      </trkpt>
      <trkpt lat="47.49142" lon="6.76104">
        <ele>321</ele>
        <time>2015-03-01T08:31:52.000Z</time>
      </trkpt>
      <trkpt lat="47.4914" lon="6.76111">
        <ele>322</ele>
        <time>2015-03-01T08:31:53.000Z</time>
      </trkpt>
      <trkpt lat="47.49138" lon="6.76119">
        <ele>322</ele>
        <time>2015-03-01T08:31:54.000Z</time>
      </trkpt>
      <trkpt lat="47.49137" lon="6.76126">
        <ele>322</ele>
        <time>2015-03-01T08:31:55.000Z</time>
      </trkpt>
      <trkpt lat="47.49136" lon="6.76132">
        <ele>322</ele>
        <time>2015-03-01T08:31:56.000Z</time>
      </trkpt>
      <trkpt lat="47.49134" lon="6.76138">
        <ele>322</ele>
        <time>2015-03-01T08:31:57.000Z</time>
      </trkpt>
      <trkpt lat="47.49133" lon="6.76144">
        <ele>322</ele>
        <time>2015-03-01T08:31:58.000Z</time>
      </trkpt>
      <trkpt lat="47.49132" lon="6.76149">
        <ele>322</ele>
        <time>2015-03-01T08:31:59.000Z</time>
      </trkpt>
      <trkpt lat="47.4913" lon="6.76155">
        <ele>322</ele>
        <time>2015-03-01T08:32:00.000Z</time>
      </trkpt>
      <trkpt lat="47.4913" lon="6.76161">
        <ele>322</ele>
        <time>2015-03-01T08:32:01.000Z</time>
      </trkpt>
      <trkpt lat="47.4913" lon="6.76166">
        <ele>322</ele>
        <time>2015-03-01T08:32:02.000Z</time>
      </trkpt>
      <trkpt lat="47.4913" lon="6.76172">
        <ele>321</ele>
        <time>2015-03-01T08:32:03.000Z</time>
      </trkpt>
      <trkpt lat="47.49129" lon="6.76179">
        <ele>321</ele>
        <time>2015-03-01T08:32:04.000Z</time>
      </trkpt>
      <trkpt lat="47.49128" lon="6.76185">
        <ele>321</ele>
        <time>2015-03-01T08:32:05.000Z</time>
      </trkpt>
      <trkpt lat="47.49128" lon="6.76193">
        <ele>321</ele>
        <time>2015-03-01T08:32:06.000Z</time>
      </trkpt>
      <trkpt lat="47.49128" lon="6.762">
        <ele>321</ele>
        <time>2015-03-01T08:32:07.000Z</time>
      </trkpt>
      <trkpt lat="47.49129" lon="6.76207">
        <ele>321</ele>
        <time>2015-03-01T08:32:08.000Z</time>
      </trkpt>
      <trkpt lat="47.49127" lon="6.76214">
        <ele>321</ele>
        <time>2015-03-01T08:32:09.000Z</time>
      </trkpt>
      <trkpt lat="47.49127" lon="6.76221">
        <ele>321</ele>
        <time>2015-03-01T08:32:10.000Z</time>
      </trkpt>
      <trkpt lat="47.49126" lon="6.76228">
        <ele>321</ele>
        <time>2015-03-01T08:32:11.000Z</time>
      </trkpt>
      <trkpt lat="47.49125" lon="6.76237">
        <ele>321</ele>
        <time>2015-03-01T08:32:12.000Z</time>
      </trkpt>
      <trkpt lat="47.49125" lon="6.76245">
        <ele>321</ele>
        <time>2015-03-01T08:32:13.000Z</time>
      </trkpt>
      <trkpt lat="47.49125" lon="6.76254">
        <ele>320</ele>
        <time>2015-03-01T08:32:14.000Z</time>
      </trkpt>
      <trkpt lat="47.49124" lon="6.76261">
        <ele>320</ele>
        <time>2015-03-01T08:32:15.000Z</time>
      </trkpt>
      <trkpt lat="47.49125" lon="6.76269">
        <ele>320</ele>
        <time>2015-03-01T08:32:16.000Z</time>
      </trkpt>
      <trkpt lat="47.49125" lon="6.76276">
        <ele>320</ele>
        <time>2015-03-01T08:32:17.000Z</time>
      </trkpt>
      <trkpt lat="47.49124" lon="6.76282">
        <ele>320</ele>
        <time>2015-03-01T08:32:18.000Z</time>
      </trkpt>
      <trkpt lat="47.49123" lon="6.76288">
        <ele>320</ele>
        <time>2015-03-01T08:32:19.000Z</time>
      </trkpt>
      <trkpt lat="47.49122" lon="6.76294">
        <ele>320</ele>
        <time>2015-03-01T08:32:20.000Z</time>
      </trkpt>
      <trkpt lat="47.49122" lon="6.76304">
        <ele>320</ele>
        <time>2015-03-01T08:32:21.000Z</time>
      </trkpt>
      <trkpt lat="47.49121" lon="6.76311">
        <ele>320</ele>
        <time>2015-03-01T08:32:22.000Z</time>
      </trkpt>
      <trkpt lat="47.49121" lon="6.76318">
        <ele>319</ele>
        <time>2015-03-01T08:32:23.000Z</time>
      </trkpt>
      <trkpt lat="47.4912" lon="6.76325">
        <ele>320</ele>
        <time>2015-03-01T08:32:24.000Z</time>
      </trkpt>
      <trkpt lat="47.49121" lon="6.76332">
        <ele>319</ele>
        <time>2015-03-01T08:32:25.000Z</time>
      </trkpt>
      <trkpt lat="47.4912" lon="6.76339">
        <ele>318</ele>
        <time>2015-03-01T08:32:26.000Z</time>
      </trkpt>
      <trkpt lat="47.49122" lon="6.76347">
        <ele>318</ele>
        <time>2015-03-01T08:32:27.000Z</time>
      </trkpt>
      <trkpt lat="47.49122" lon="6.76355">
        <ele>318</ele>
        <time>2015-03-01T08:32:28.000Z</time>
      </trkpt>
      <trkpt lat="47.49121" lon="6.76361">
        <ele>318</ele>
        <time>2015-03-01T08:32:29.000Z</time>
      </trkpt>
      <trkpt lat="47.4912" lon="6.76369">
        <ele>318</ele>
        <time>2015-03-01T08:32:30.000Z</time>
      </trkpt>
      <trkpt lat="47.49119" lon="6.76379">
        <ele>318</ele>
        <time>2015-03-01T08:32:31.000Z</time>
      </trkpt>
      <trkpt lat="47.49121" lon="6.76386">
        <ele>318</ele>
        <time>2015-03-01T08:32:32.000Z</time>
      </trkpt>
      <trkpt lat="47.49121" lon="6.76394">
        <ele>318</ele>
        <time>2015-03-01T08:32:33.000Z</time>
      </trkpt>
      <trkpt lat="47.4912" lon="6.76404">
        <ele>318</ele>
        <time>2015-03-01T08:32:34.000Z</time>
      </trkpt>
      <trkpt lat="47.49121" lon="6.76416">
        <ele>318</ele>
        <time>2015-03-01T08:32:35.000Z</time>
      </trkpt>
      <trkpt lat="47.49122" lon="6.76424">
        <ele>317</ele>
        <time>2015-03-01T08:32:36.000Z</time>
      </trkpt>
      <trkpt lat="47.49119" lon="6.76432">
        <ele>317</ele>
        <time>2015-03-01T08:32:37.000Z</time>
      </trkpt>
      <trkpt lat="47.49119" lon="6.76439">
        <ele>317</ele>
        <time>2015-03-01T08:32:38.000Z</time>
      </trkpt>
      <trkpt lat="47.4912" lon="6.76444">
        <ele>317</ele>
        <time>2015-03-01T08:32:39.000Z</time>
      </trkpt>
      <trkpt lat="47.49119" lon="6.76453">
        <ele>317</ele>
        <time>2015-03-01T08:32:40.000Z</time>
      </trkpt>
      <trkpt lat="47.49117" lon="6.76461">
        <ele>317</ele>
        <time>2015-03-01T08:32:41.000Z</time>
      </trkpt>
      <trkpt lat="47.49117" lon="6.7647">
        <ele>317</ele>
        <time>2015-03-01T08:32:42.000Z</time>
      </trkpt>
      <trkpt lat="47.49117" lon="6.76479">
        <ele>317</ele>
        <time>2015-03-01T08:32:43.000Z</time>
      </trkpt>
      <trkpt lat="47.49115" lon="6.76487">
        <ele>318</ele>
        <time>2015-03-01T08:32:44.000Z</time>
      </trkpt>
      <trkpt lat="47.49114" lon="6.76495">
        <ele>318</ele>
        <time>2015-03-01T08:32:45.000Z</time>
      </trkpt>
      <trkpt lat="47.49115" lon="6.76504">
        <ele>317</ele>
        <time>2015-03-01T08:32:46.000Z</time>
      </trkpt>
      <trkpt lat="47.49116" lon="6.7651">
        <ele>317</ele>
        <time>2015-03-01T08:32:47.000Z</time>
      </trkpt>
      <trkpt lat="47.49122" lon="6.76515">
        <ele>316</ele>
        <time>2015-03-01T08:32:48.000Z</time>
      </trkpt>
      <trkpt lat="47.49127" lon="6.76516">
        <ele>316</ele>
        <time>2015-03-01T08:32:49.000Z</time>
      </trkpt>
      <trkpt lat="47.49133" lon="6.76516">
        <ele>316</ele>
        <time>2015-03-01T08:32:50.000Z</time>
      </trkpt>
      <trkpt lat="47.49139" lon="6.76516">
        <ele>315</ele>
        <time>2015-03-01T08:32:51.000Z</time>
      </trkpt>
      <trkpt lat="47.49145" lon="6.76513">
        <ele>315</ele>
        <time>2015-03-01T08:32:52.000Z</time>
      </trkpt>
      <trkpt lat="47.49151" lon="6.7651">
        <ele>315</ele>
        <time>2015-03-01T08:32:53.000Z</time>
      </trkpt>
      <trkpt lat="47.49157" lon="6.76506">
        <ele>314</ele>
        <time>2015-03-01T08:32:54.000Z</time>
      </trkpt>
      <trkpt lat="47.49161" lon="6.76504">
        <ele>314</ele>
        <time>2015-03-01T08:32:55.000Z</time>
      </trkpt>
      <trkpt lat="47.49164" lon="6.76502">
        <ele>313</ele>
        <time>2015-03-01T08:32:56.000Z</time>
      </trkpt>
      <trkpt lat="47.49167" lon="6.765">
        <ele>313</ele>
        <time>2015-03-01T08:32:57.000Z</time>
      </trkpt>
      <trkpt lat="47.4917" lon="6.76499">
        <ele>314</ele>
        <time>2015-03-01T08:32:58.000Z</time>
      </trkpt>
      <trkpt lat="47.49173" lon="6.76496">
        <ele>314</ele>
        <time>2015-03-01T08:32:59.000Z</time>
      </trkpt>
      <trkpt lat="47.49175" lon="6.76493">
        <ele>315</ele>
        <time>2015-03-01T08:33:00.000Z</time>
      </trkpt>
      <trkpt lat="47.49177" lon="6.76488">
        <ele>315</ele>
        <time>2015-03-01T08:33:02.000Z</time>
      </trkpt>
      <trkpt lat="47.49177" lon="6.76486">
        <ele>315</ele>
        <time>2015-03-01T08:33:03.000Z</time>
      </trkpt>
      <trkpt lat="47.49174" lon="6.76483">
        <ele>315</ele>
        <time>2015-03-01T08:33:06.000Z</time>
      </trkpt>
      <trkpt lat="47.49173" lon="6.76482">
        <ele>315</ele>
        <time>2015-03-01T08:33:07.000Z</time>
      </trkpt>
      <trkpt lat="47.49169" lon="6.76484">
        <ele>315</ele>
        <time>2015-03-01T08:33:13.000Z</time>
      </trkpt>
      <trkpt lat="47.49169" lon="6.76485">
        <ele>315</ele>
        <time>2015-03-01T08:33:14.000Z</time>
      </trkpt>
      <trkpt lat="47.49172" lon="6.76483">
        <ele>315</ele>
        <time>2015-03-01T08:36:58.000Z</time>
      </trkpt>
      <trkpt lat="47.49174" lon="6.76483">
        <ele>315</ele>
        <time>2015-03-01T08:36:59.000Z</time>
      </trkpt>
      <trkpt lat="47.49177" lon="6.76484">
        <ele>316</ele>
        <time>2015-03-01T08:37:01.000Z</time>
      </trkpt>
      <trkpt lat="47.49178" lon="6.76486">
        <ele>315</ele>
        <time>2015-03-01T08:37:02.000Z</time>
      </trkpt>
      <trkpt lat="47.49179" lon="6.76492">
        <ele>315</ele>
        <time>2015-03-01T08:37:04.000Z</time>
      </trkpt>
      <trkpt lat="47.49178" lon="6.76494">
        <ele>315</ele>
        <time>2015-03-01T08:37:05.000Z</time>
      </trkpt>
      <trkpt lat="47.49176" lon="6.76499">
        <ele>315</ele>
        <time>2015-03-01T08:37:07.000Z</time>
      </trkpt>
      <trkpt lat="47.49174" lon="6.76501">
        <ele>314</ele>
        <time>2015-03-01T08:37:08.000Z</time>
      </trkpt>
      <trkpt lat="47.49171" lon="6.76504">
        <ele>314</ele>
        <time>2015-03-01T08:37:10.000Z</time>
      </trkpt>
      <trkpt lat="47.49168" lon="6.76505">
        <ele>314</ele>
        <time>2015-03-01T08:37:11.000Z</time>
      </trkpt>
      <trkpt lat="47.49166" lon="6.76506">
        <ele>314</ele>
        <time>2015-03-01T08:37:12.000Z</time>
      </trkpt>
      <trkpt lat="47.49163" lon="6.76508">
        <ele>314</ele>
        <time>2015-03-01T08:37:13.000Z</time>
      </trkpt>
      <trkpt lat="47.49159" lon="6.76511">
        <ele>314</ele>
        <time>2015-03-01T08:37:14.000Z</time>
      </trkpt>
      <trkpt lat="47.49156" lon="6.76514">
        <ele>314</ele>
        <time>2015-03-01T08:37:15.000Z</time>
      </trkpt>
      <trkpt lat="47.49151" lon="6.76516">
        <ele>315</ele>
        <time>2015-03-01T08:37:16.000Z</time>
      </trkpt>
      <trkpt lat="47.49147" lon="6.76519">
        <ele>315</ele>
        <time>2015-03-01T08:37:17.000Z</time>
      </trkpt>
      <trkpt lat="47.49143" lon="6.76522">
        <ele>315</ele>
        <time>2015-03-01T08:37:18.000Z</time>
      </trkpt>
      <trkpt lat="47.49139" lon="6.76523">
        <ele>315</ele>
        <time>2015-03-01T08:37:19.000Z</time>
      </trkpt>
      <trkpt lat="47.49136" lon="6.76524">
        <ele>315</ele>
        <time>2015-03-01T08:37:20.000Z</time>
      </trkpt>
      <trkpt lat="47.49132" lon="6.76524">
        <ele>316</ele>
        <time>2015-03-01T08:37:21.000Z</time>
      </trkpt>
      <trkpt lat="47.49128" lon="6.76524">
        <ele>316</ele>
        <time>2015-03-01T08:37:22.000Z</time>
      </trkpt>
      <trkpt lat="47.49125" lon="6.76525">
        <ele>316</ele>
        <time>2015-03-01T08:37:23.000Z</time>
      </trkpt>
      <trkpt lat="47.49123" lon="6.76528">
        <ele>316</ele>
        <time>2015-03-01T08:37:24.000Z</time>
      </trkpt>
      <trkpt lat="47.49121" lon="6.76532">
        <ele>316</ele>
        <time>2015-03-01T08:37:25.000Z</time>
      </trkpt>
      <trkpt lat="47.49121" lon="6.76538">
        <ele>316</ele>
        <time>2015-03-01T08:37:26.000Z</time>
      </trkpt>
      <trkpt lat="47.49121" lon="6.76545">
        <ele>316</ele>
        <time>2015-03-01T08:37:27.000Z</time>
      </trkpt>
      <trkpt lat="47.49122" lon="6.76551">
        <ele>316</ele>
        <time>2015-03-01T08:37:28.000Z</time>
      </trkpt>
      <trkpt lat="47.49123" lon="6.76558">
        <ele>316</ele>
        <time>2015-03-01T08:37:29.000Z</time>
      </trkpt>
      <trkpt lat="47.49124" lon="6.76565">
        <ele>315</ele>
        <time>2015-03-01T08:37:30.000Z</time>
      </trkpt>
      <trkpt lat="47.49127" lon="6.76574">
        <ele>315</ele>
        <time>2015-03-01T08:37:31.000Z</time>
      </trkpt>
      <trkpt lat="47.49128" lon="6.7658">
        <ele>315</ele>
        <time>2015-03-01T08:37:32.000Z</time>
      </trkpt>
      <trkpt lat="47.49129" lon="6.76586">
        <ele>314</ele>
        <time>2015-03-01T08:37:33.000Z</time>
      </trkpt>
      <trkpt lat="47.4913" lon="6.76592">
        <ele>314</ele>
        <time>2015-03-01T08:37:34.000Z</time>
      </trkpt>
      <trkpt lat="47.49131" lon="6.76599">
        <ele>314</ele>
        <time>2015-03-01T08:37:35.000Z</time>
      </trkpt>
      <trkpt lat="47.49131" lon="6.76605">
        <ele>314</ele>
        <time>2015-03-01T08:37:36.000Z</time>
      </trkpt>
      <trkpt lat="47.49132" lon="6.76613">
        <ele>314</ele>
        <time>2015-03-01T08:37:37.000Z</time>
      </trkpt>
      <trkpt lat="47.49133" lon="6.7662">
        <ele>314</ele>
        <time>2015-03-01T08:37:38.000Z</time>
      </trkpt>
      <trkpt lat="47.49134" lon="6.76626">
        <ele>314</ele>
        <time>2015-03-01T08:37:39.000Z</time>
      </trkpt>
      <trkpt lat="47.49134" lon="6.76632">
        <ele>314</ele>
        <time>2015-03-01T08:37:40.000Z</time>
      </trkpt>
      <trkpt lat="47.49135" lon="6.76638">
        <ele>314</ele>
        <time>2015-03-01T08:37:41.000Z</time>
      </trkpt>
      <trkpt lat="47.49136" lon="6.76645">
        <ele>314</ele>
        <time>2015-03-01T08:37:42.000Z</time>
      </trkpt>
      <trkpt lat="47.49136" lon="6.76652">
        <ele>314</ele>
        <time>2015-03-01T08:37:43.000Z</time>
      </trkpt>
      <trkpt lat="47.49137" lon="6.76659">
        <ele>314</ele>
        <time>2015-03-01T08:37:44.000Z</time>
      </trkpt>
      <trkpt lat="47.49137" lon="6.76665">
        <ele>314</ele>
        <time>2015-03-01T08:37:45.000Z</time>
      </trkpt>
      <trkpt lat="47.49138" lon="6.76672">
        <ele>314</ele>
        <time>2015-03-01T08:37:46.000Z</time>
      </trkpt>
      <trkpt lat="47.49139" lon="6.76679">
        <ele>314</ele>
        <time>2015-03-01T08:37:47.000Z</time>
      </trkpt>
      <trkpt lat="47.49139" lon="6.76687">
        <ele>313</ele>
        <time>2015-03-01T08:37:48.000Z</time>
      </trkpt>
      <trkpt lat="47.49141" lon="6.76693">
        <ele>313</ele>
        <time>2015-03-01T08:37:49.000Z</time>
      </trkpt>
      <trkpt lat="47.49142" lon="6.767">
        <ele>313</ele>
        <time>2015-03-01T08:37:50.000Z</time>
      </trkpt>
      <trkpt lat="47.49143" lon="6.76707">
        <ele>313</ele>
        <time>2015-03-01T08:37:51.000Z</time>
      </trkpt>
      <trkpt lat="47.49144" lon="6.76714">
        <ele>313</ele>
        <time>2015-03-01T08:37:52.000Z</time>
      </trkpt>
      <trkpt lat="47.49147" lon="6.7672">
        <ele>313</ele>
        <time>2015-03-01T08:37:53.000Z</time>
      </trkpt>
      <trkpt lat="47.49146" lon="6.76727">
        <ele>313</ele>
        <time>2015-03-01T08:37:54.000Z</time>
      </trkpt>
      <trkpt lat="47.49146" lon="6.76734">
        <ele>313</ele>
        <time>2015-03-01T08:37:55.000Z</time>
      </trkpt>
      <trkpt lat="47.49147" lon="6.76741">
        <ele>313</ele>
        <time>2015-03-01T08:37:56.000Z</time>
      </trkpt>
      <trkpt lat="47.49148" lon="6.76747">
        <ele>313</ele>
        <time>2015-03-01T08:37:57.000Z</time>
      </trkpt>
      <trkpt lat="47.49149" lon="6.76754">
        <ele>313</ele>
        <time>2015-03-01T08:37:58.000Z</time>
      </trkpt>
      <trkpt lat="47.49148" lon="6.76762">
        <ele>313</ele>
        <time>2015-03-01T08:37:59.000Z</time>
      </trkpt>
      <trkpt lat="47.49149" lon="6.76769">
        <ele>313</ele>
        <time>2015-03-01T08:38:00.000Z</time>
      </trkpt>
      <trkpt lat="47.49149" lon="6.76776">
        <ele>312</ele>
        <time>2015-03-01T08:38:01.000Z</time>
      </trkpt>
      <trkpt lat="47.49149" lon="6.76783">
        <ele>312</ele>
        <time>2015-03-01T08:38:02.000Z</time>
      </trkpt>
      <trkpt lat="47.4915" lon="6.7679">
        <ele>312</ele>
        <time>2015-03-01T08:38:03.000Z</time>
      </trkpt>
      <trkpt lat="47.49149" lon="6.76796">
        <ele>312</ele>
        <time>2015-03-01T08:38:04.000Z</time>
      </trkpt>
      <trkpt lat="47.49149" lon="6.76803">
        <ele>312</ele>
        <time>2015-03-01T08:38:05.000Z</time>
      </trkpt>
      <trkpt lat="47.4915" lon="6.7681">
        <ele>312</ele>
        <time>2015-03-01T08:38:06.000Z</time>
      </trkpt>
      <trkpt lat="47.4915" lon="6.76818">
        <ele>313</ele>
        <time>2015-03-01T08:38:07.000Z</time>
      </trkpt>
      <trkpt lat="47.49151" lon="6.76825">
        <ele>313</ele>
        <time>2015-03-01T08:38:08.000Z</time>
      </trkpt>
      <trkpt lat="47.49151" lon="6.76831">
        <ele>313</ele>
        <time>2015-03-01T08:38:09.000Z</time>
      </trkpt>
      <trkpt lat="47.49151" lon="6.76838">
        <ele>313</ele>
        <time>2015-03-01T08:38:10.000Z</time>
      </trkpt>
      <trkpt lat="47.49151" lon="6.76846">
        <ele>312</ele>
        <time>2015-03-01T08:38:11.000Z</time>
      </trkpt>
      <trkpt lat="47.4915" lon="6.76852">
        <ele>312</ele>
        <time>2015-03-01T08:38:12.000Z</time>
      </trkpt>
      <trkpt lat="47.49151" lon="6.76859">
        <ele>312</ele>
        <time>2015-03-01T08:38:13.000Z</time>
      </trkpt>
      <trkpt lat="47.49151" lon="6.76867">
        <ele>312</ele>
        <time>2015-03-01T08:38:14.000Z</time>
      </trkpt>
      <trkpt lat="47.49152" lon="6.76873">
        <ele>312</ele>
        <time>2015-03-01T08:38:15.000Z</time>
      </trkpt>
      <trkpt lat="47.49152" lon="6.7688">
        <ele>312</ele>
        <time>2015-03-01T08:38:16.000Z</time>
      </trkpt>
      <trkpt lat="47.49152" lon="6.76886">
        <ele>312</ele>
        <time>2015-03-01T08:38:17.000Z</time>
      </trkpt>
      <trkpt lat="47.49152" lon="6.76893">
        <ele>312</ele>
        <time>2015-03-01T08:38:18.000Z</time>
      </trkpt>
      <trkpt lat="47.49152" lon="6.76901">
        <ele>312</ele>
        <time>2015-03-01T08:38:19.000Z</time>
      </trkpt>
      <trkpt lat="47.49152" lon="6.76908">
        <ele>312</ele>
        <time>2015-03-01T08:38:20.000Z</time>
      </trkpt>
      <trkpt lat="47.49152" lon="6.76916">
        <ele>313</ele>
        <time>2015-03-01T08:38:21.000Z</time>
      </trkpt>
      <trkpt lat="47.49151" lon="6.76922">
        <ele>312</ele>
        <time>2015-03-01T08:38:22.000Z</time>
      </trkpt>
      <trkpt lat="47.49151" lon="6.76928">
        <ele>312</ele>
        <time>2015-03-01T08:38:23.000Z</time>
      </trkpt>
      <trkpt lat="47.49151" lon="6.76934">
        <ele>312</ele>
        <time>2015-03-01T08:38:24.000Z</time>
      </trkpt>
      <trkpt lat="47.49151" lon="6.76942">
        <ele>312</ele>
        <time>2015-03-01T08:38:25.000Z</time>
      </trkpt>
      <trkpt lat="47.4915" lon="6.76949">
        <ele>312</ele>
        <time>2015-03-01T08:38:26.000Z</time>
      </trkpt>
      <trkpt lat="47.4915" lon="6.76954">
        <ele>312</ele>
        <time>2015-03-01T08:38:27.000Z</time>
      </trkpt>
      <trkpt lat="47.4915" lon="6.7696">
        <ele>312</ele>
        <time>2015-03-01T08:38:28.000Z</time>
      </trkpt>
      <trkpt lat="47.49148" lon="6.76964">
        <ele>312</ele>
        <time>2015-03-01T08:38:29.000Z</time>
      </trkpt>
      <trkpt lat="47.49149" lon="6.76968">
        <ele>312</ele>
        <time>2015-03-01T08:38:30.000Z</time>
      </trkpt>
      <trkpt lat="47.49149" lon="6.76975">
        <ele>312</ele>
        <time>2015-03-01T08:38:31.000Z</time>
      </trkpt>
      <trkpt lat="47.49151" lon="6.76982">
        <ele>312</ele>
        <time>2015-03-01T08:38:32.000Z</time>
      </trkpt>
      <trkpt lat="47.49152" lon="6.76987">
        <ele>312</ele>
        <time>2015-03-01T08:38:33.000Z</time>
      </trkpt>
      <trkpt lat="47.49154" lon="6.76993">
        <ele>312</ele>
        <time>2015-03-01T08:38:34.000Z</time>
      </trkpt>
      <trkpt lat="47.49156" lon="6.76999">
        <ele>312</ele>
        <time>2015-03-01T08:38:35.000Z</time>
      </trkpt>
      <trkpt lat="47.49159" lon="6.77006">
        <ele>312</ele>
        <time>2015-03-01T08:38:36.000Z</time>
      </trkpt>
      <trkpt lat="47.49161" lon="6.77012">
        <ele>312</ele>
        <time>2015-03-01T08:38:37.000Z</time>
      </trkpt>
      <trkpt lat="47.49163" lon="6.77018">
        <ele>312</ele>
        <time>2015-03-01T08:38:38.000Z</time>
      </trkpt>
      <trkpt lat="47.49165" lon="6.77024">
        <ele>312</ele>
        <time>2015-03-01T08:38:39.000Z</time>
      </trkpt>
      <trkpt lat="47.49167" lon="6.7703">
        <ele>312</ele>
        <time>2015-03-01T08:38:40.000Z</time>
      </trkpt>
      <trkpt lat="47.49168" lon="6.77037">
        <ele>313</ele>
        <time>2015-03-01T08:38:41.000Z</time>
      </trkpt>
      <trkpt lat="47.49169" lon="6.77044">
        <ele>313</ele>
        <time>2015-03-01T08:38:42.000Z</time>
      </trkpt>
      <trkpt lat="47.49171" lon="6.77051">
        <ele>313</ele>
        <time>2015-03-01T08:38:43.000Z</time>
      </trkpt>
      <trkpt lat="47.49171" lon="6.77057">
        <ele>313</ele>
        <time>2015-03-01T08:38:44.000Z</time>
      </trkpt>
      <trkpt lat="47.49172" lon="6.77063">
        <ele>313</ele>
        <time>2015-03-01T08:38:45.000Z</time>
      </trkpt>
      <trkpt lat="47.49173" lon="6.77071">
        <ele>312</ele>
        <time>2015-03-01T08:38:46.000Z</time>
      </trkpt>
      <trkpt lat="47.49174" lon="6.77077">
        <ele>312</ele>
        <time>2015-03-01T08:38:47.000Z</time>
      </trkpt>
      <trkpt lat="47.49175" lon="6.77084">
        <ele>312</ele>
        <time>2015-03-01T08:38:48.000Z</time>
      </trkpt>
      <trkpt lat="47.49176" lon="6.77091">
        <ele>312</ele>
        <time>2015-03-01T08:38:49.000Z</time>
      </trkpt>
      <trkpt lat="47.49177" lon="6.77097">
        <ele>312</ele>
        <time>2015-03-01T08:38:50.000Z</time>
      </trkpt>
      <trkpt lat="47.49177" lon="6.77104">
        <ele>312</ele>
        <time>2015-03-01T08:38:51.000Z</time>
      </trkpt>
      <trkpt lat="47.49177" lon="6.77109">
        <ele>313</ele>
        <time>2015-03-01T08:38:52.000Z</time>
      </trkpt>
      <trkpt lat="47.49178" lon="6.77114">
        <ele>313</ele>
        <time>2015-03-01T08:38:53.000Z</time>
      </trkpt>
      <trkpt lat="47.49179" lon="6.77118">
        <ele>313</ele>
        <time>2015-03-01T08:38:54.000Z</time>
      </trkpt>
      <trkpt lat="47.49179" lon="6.77122">
        <ele>313</ele>
        <time>2015-03-01T08:38:55.000Z</time>
      </trkpt>
      <trkpt lat="47.49178" lon="6.77126">
        <ele>313</ele>
        <time>2015-03-01T08:38:56.000Z</time>
      </trkpt>
      <trkpt lat="47.49179" lon="6.77132">
        <ele>313</ele>
        <time>2015-03-01T08:39:04.000Z</time>
      </trkpt>
      <trkpt lat="47.4918" lon="6.77134">
        <ele>313</ele>
        <time>2015-03-01T08:39:05.000Z</time>
      </trkpt>
      <trkpt lat="47.49181" lon="6.77138">
        <ele>313</ele>
        <time>2015-03-01T08:39:07.000Z</time>
      </trkpt>
      <trkpt lat="47.49183" lon="6.77143">
        <ele>313</ele>
        <time>2015-03-01T08:39:08.000Z</time>
      </trkpt>
      <trkpt lat="47.49184" lon="6.77148">
        <ele>313</ele>
        <time>2015-03-01T08:39:09.000Z</time>
      </trkpt>
      <trkpt lat="47.49185" lon="6.77155">
        <ele>313</ele>
        <time>2015-03-01T08:39:10.000Z</time>
      </trkpt>
      <trkpt lat="47.49186" lon="6.7717">
        <ele>313</ele>
        <time>2015-03-01T08:39:11.000Z</time>
      </trkpt>
      <trkpt lat="47.49185" lon="6.77177">
        <ele>313</ele>
        <time>2015-03-01T08:39:12.000Z</time>
      </trkpt>
      <trkpt lat="47.49185" lon="6.77182">
        <ele>313</ele>
        <time>2015-03-01T08:39:13.000Z</time>
      </trkpt>
      <trkpt lat="47.49185" lon="6.77188">
        <ele>313</ele>
        <time>2015-03-01T08:39:14.000Z</time>
      </trkpt>
      <trkpt lat="47.49185" lon="6.77194">
        <ele>312</ele>
        <time>2015-03-01T08:39:15.000Z</time>
      </trkpt>
      <trkpt lat="47.49185" lon="6.77201">
        <ele>312</ele>
        <time>2015-03-01T08:39:16.000Z</time>
      </trkpt>
      <trkpt lat="47.49185" lon="6.77207">
        <ele>312</ele>
        <time>2015-03-01T08:39:17.000Z</time>
      </trkpt>
      <trkpt lat="47.49185" lon="6.77214">
        <ele>312</ele>
        <time>2015-03-01T08:39:18.000Z</time>
      </trkpt>
      <trkpt lat="47.49185" lon="6.77221">
        <ele>312</ele>
        <time>2015-03-01T08:39:19.000Z</time>
      </trkpt>
      <trkpt lat="47.49185" lon="6.77227">
        <ele>312</ele>
        <time>2015-03-01T08:39:20.000Z</time>
      </trkpt>
      <trkpt lat="47.49186" lon="6.77232">
        <ele>312</ele>
        <time>2015-03-01T08:39:21.000Z</time>
      </trkpt>
      <trkpt lat="47.49185" lon="6.77236">
        <ele>312</ele>
        <time>2015-03-01T08:39:22.000Z</time>
      </trkpt>
      <trkpt lat="47.49188" lon="6.77242">
        <ele>312</ele>
        <time>2015-03-01T08:39:23.000Z</time>
      </trkpt>
      <trkpt lat="47.49188" lon="6.77246">
        <ele>312</ele>
        <time>2015-03-01T08:39:24.000Z</time>
      </trkpt>
      <trkpt lat="47.49189" lon="6.77253">
        <ele>311</ele>
        <time>2015-03-01T08:39:25.000Z</time>
      </trkpt>
      <trkpt lat="47.49188" lon="6.77259">
        <ele>311</ele>
        <time>2015-03-01T08:39:26.000Z</time>
      </trkpt>
      <trkpt lat="47.49187" lon="6.77266">
        <ele>311</ele>
        <time>2015-03-01T08:39:27.000Z</time>
      </trkpt>
      <trkpt lat="47.49187" lon="6.77275">
        <ele>311</ele>
        <time>2015-03-01T08:39:28.000Z</time>
      </trkpt>
      <trkpt lat="47.49187" lon="6.77282">
        <ele>311</ele>
        <time>2015-03-01T08:39:29.000Z</time>
      </trkpt>
      <trkpt lat="47.49188" lon="6.77291">
        <ele>311</ele>
        <time>2015-03-01T08:39:30.000Z</time>
      </trkpt>
      <trkpt lat="47.49188" lon="6.77298">
        <ele>311</ele>
        <time>2015-03-01T08:39:31.000Z</time>
      </trkpt>
      <trkpt lat="47.49188" lon="6.77306">
        <ele>311</ele>
        <time>2015-03-01T08:39:32.000Z</time>
      </trkpt>
      <trkpt lat="47.49187" lon="6.77313">
        <ele>311</ele>
        <time>2015-03-01T08:39:33.000Z</time>
      </trkpt>
      <trkpt lat="47.49187" lon="6.77321">
        <ele>310</ele>
        <time>2015-03-01T08:39:34.000Z</time>
      </trkpt>
      <trkpt lat="47.49185" lon="6.77327">
        <ele>310</ele>
        <time>2015-03-01T08:39:35.000Z</time>
      </trkpt>
      <trkpt lat="47.49182" lon="6.77333">
        <ele>310</ele>
        <time>2015-03-01T08:39:36.000Z</time>
      </trkpt>
      <trkpt lat="47.4918" lon="6.77337">
        <ele>310</ele>
        <time>2015-03-01T08:39:37.000Z</time>
      </trkpt>
      <trkpt lat="47.49177" lon="6.77335">
        <ele>310</ele>
        <time>2015-03-01T08:39:38.000Z</time>
      </trkpt>
      <trkpt lat="47.49175" lon="6.77335">
        <ele>310</ele>
        <time>2015-03-01T08:39:39.000Z</time>
      </trkpt>
      <trkpt lat="47.49172" lon="6.77335">
        <ele>310</ele>
        <time>2015-03-01T08:39:40.000Z</time>
      </trkpt>
      <trkpt lat="47.4917" lon="6.77335">
        <ele>310</ele>
        <time>2015-03-01T08:39:41.000Z</time>
      </trkpt>
      <trkpt lat="47.49168" lon="6.77335">
        <ele>310</ele>
        <time>2015-03-01T08:39:42.000Z</time>
      </trkpt>
      <trkpt lat="47.49164" lon="6.77334">
        <ele>310</ele>
        <time>2015-03-01T08:39:44.000Z</time>
      </trkpt>
      <trkpt lat="47.49162" lon="6.77334">
        <ele>310</ele>
        <time>2015-03-01T08:39:45.000Z</time>
      </trkpt>
      <trkpt lat="47.49158" lon="6.77333">
        <ele>310</ele>
        <time>2015-03-01T08:39:47.000Z</time>
      </trkpt>
      <trkpt lat="47.49156" lon="6.77332">
        <ele>310</ele>
        <time>2015-03-01T08:39:48.000Z</time>
      </trkpt>
      <trkpt lat="47.49154" lon="6.77332">
        <ele>310</ele>
        <time>2015-03-01T08:39:49.000Z</time>
      </trkpt>
      <trkpt lat="47.49152" lon="6.77331">
        <ele>311</ele>
        <time>2015-03-01T08:39:50.000Z</time>
      </trkpt>
      <trkpt lat="47.49149" lon="6.77331">
        <ele>311</ele>
        <time>2015-03-01T08:39:51.000Z</time>
      </trkpt>
      <trkpt lat="47.49146" lon="6.77331">
        <ele>311</ele>
        <time>2015-03-01T08:39:52.000Z</time>
      </trkpt>
      <trkpt lat="47.49142" lon="6.7733">
        <ele>311</ele>
        <time>2015-03-01T08:39:53.000Z</time>
      </trkpt>
      <trkpt lat="47.49139" lon="6.7733">
        <ele>311</ele>
        <time>2015-03-01T08:39:54.000Z</time>
      </trkpt>
      <trkpt lat="47.49135" lon="6.77329">
        <ele>311</ele>
        <time>2015-03-01T08:39:55.000Z</time>
      </trkpt>
      <trkpt lat="47.4913" lon="6.77329">
        <ele>311</ele>
        <time>2015-03-01T08:39:56.000Z</time>
      </trkpt>
      <trkpt lat="47.49126" lon="6.77328">
        <ele>311</ele>
        <time>2015-03-01T08:39:57.000Z</time>
      </trkpt>
      <trkpt lat="47.49121" lon="6.77328">
        <ele>311</ele>
        <time>2015-03-01T08:39:58.000Z</time>
      </trkpt>
      <trkpt lat="47.49115" lon="6.77326">
        <ele>311</ele>
        <time>2015-03-01T08:39:59.000Z</time>
      </trkpt>
      <trkpt lat="47.49111" lon="6.77325">
        <ele>311</ele>
        <time>2015-03-01T08:40:00.000Z</time>
      </trkpt>
      <trkpt lat="47.49105" lon="6.77325">
        <ele>311</ele>
        <time>2015-03-01T08:40:01.000Z</time>
      </trkpt>
      <trkpt lat="47.49101" lon="6.77324">
        <ele>311</ele>
        <time>2015-03-01T08:40:02.000Z</time>
      </trkpt>
      <trkpt lat="47.49096" lon="6.77324">
        <ele>311</ele>
        <time>2015-03-01T08:40:03.000Z</time>
      </trkpt>
      <trkpt lat="47.49091" lon="6.77324">
        <ele>311</ele>
        <time>2015-03-01T08:40:04.000Z</time>
      </trkpt>
      <trkpt lat="47.49086" lon="6.77323">
        <ele>311</ele>
        <time>2015-03-01T08:40:05.000Z</time>
      </trkpt>
      <trkpt lat="47.49082" lon="6.77323">
        <ele>311</ele>
        <time>2015-03-01T08:40:06.000Z</time>
      </trkpt>
      <trkpt lat="47.49077" lon="6.77323">
        <ele>311</ele>
        <time>2015-03-01T08:40:07.000Z</time>
      </trkpt>
      <trkpt lat="47.49072" lon="6.77322">
        <ele>311</ele>
        <time>2015-03-01T08:40:08.000Z</time>
      </trkpt>
      <trkpt lat="47.49067" lon="6.77323">
        <ele>311</ele>
        <time>2015-03-01T08:40:09.000Z</time>
      </trkpt>
      <trkpt lat="47.49062" lon="6.77323">
        <ele>311</ele>
        <time>2015-03-01T08:40:10.000Z</time>
      </trkpt>
      <trkpt lat="47.49057" lon="6.77322">
        <ele>311</ele>
        <time>2015-03-01T08:40:11.000Z</time>
      </trkpt>
      <trkpt lat="47.49051" lon="6.77322">
        <ele>311</ele>
        <time>2015-03-01T08:40:12.000Z</time>
      </trkpt>
      <trkpt lat="47.49047" lon="6.77321">
        <ele>311</ele>
        <time>2015-03-01T08:40:13.000Z</time>
      </trkpt>
      <trkpt lat="47.49043" lon="6.7732">
        <ele>311</ele>
        <time>2015-03-01T08:40:14.000Z</time>
      </trkpt>
      <trkpt lat="47.49038" lon="6.7732">
        <ele>311</ele>
        <time>2015-03-01T08:40:15.000Z</time>
      </trkpt>
      <trkpt lat="47.49034" lon="6.7732">
        <ele>311</ele>
        <time>2015-03-01T08:40:16.000Z</time>
      </trkpt>
      <trkpt lat="47.49029" lon="6.7732">
        <ele>311</ele>
        <time>2015-03-01T08:40:17.000Z</time>
      </trkpt>
      <trkpt lat="47.49024" lon="6.7732">
        <ele>311</ele>
        <time>2015-03-01T08:40:18.000Z</time>
      </trkpt>
      <trkpt lat="47.49019" lon="6.7732">
        <ele>311</ele>
        <time>2015-03-01T08:40:19.000Z</time>
      </trkpt>
      <trkpt lat="47.49014" lon="6.77321">
        <ele>311</ele>
        <time>2015-03-01T08:40:20.000Z</time>
      </trkpt>
      <trkpt lat="47.4901" lon="6.77321">
        <ele>311</ele>
        <time>2015-03-01T08:40:21.000Z</time>
      </trkpt>
      <trkpt lat="47.49005" lon="6.7732">
        <ele>311</ele>
        <time>2015-03-01T08:40:22.000Z</time>
      </trkpt>
      <trkpt lat="47.49001" lon="6.7732">
        <ele>311</ele>
        <time>2015-03-01T08:40:23.000Z</time>
      </trkpt>
      <trkpt lat="47.48997" lon="6.7732">
        <ele>311</ele>
        <time>2015-03-01T08:40:24.000Z</time>
      </trkpt>
      <trkpt lat="47.48992" lon="6.7732">
        <ele>311</ele>
        <time>2015-03-01T08:40:25.000Z</time>
      </trkpt>
      <trkpt lat="47.48987" lon="6.77319">
        <ele>311</ele>
        <time>2015-03-01T08:40:26.000Z</time>
      </trkpt>
      <trkpt lat="47.48982" lon="6.77319">
        <ele>311</ele>
        <time>2015-03-01T08:40:27.000Z</time>
      </trkpt>
      <trkpt lat="47.48977" lon="6.77318">
        <ele>311</ele>
        <time>2015-03-01T08:40:28.000Z</time>
      </trkpt>
      <trkpt lat="47.48973" lon="6.77318">
        <ele>311</ele>
        <time>2015-03-01T08:40:29.000Z</time>
      </trkpt>
      <trkpt lat="47.48968" lon="6.77317">
        <ele>311</ele>
        <time>2015-03-01T08:40:30.000Z</time>
      </trkpt>
      <trkpt lat="47.48963" lon="6.77316">
        <ele>311</ele>
        <time>2015-03-01T08:40:31.000Z</time>
      </trkpt>
      <trkpt lat="47.48958" lon="6.77315">
        <ele>311</ele>
        <time>2015-03-01T08:40:32.000Z</time>
      </trkpt>
      <trkpt lat="47.48952" lon="6.77313">
        <ele>311</ele>
        <time>2015-03-01T08:40:33.000Z</time>
      </trkpt>
      <trkpt lat="47.48948" lon="6.77311">
        <ele>311</ele>
        <time>2015-03-01T08:40:34.000Z</time>
      </trkpt>
      <trkpt lat="47.48943" lon="6.77309">
        <ele>311</ele>
        <time>2015-03-01T08:40:35.000Z</time>
      </trkpt>
      <trkpt lat="47.48938" lon="6.77306">
        <ele>311</ele>
        <time>2015-03-01T08:40:36.000Z</time>
      </trkpt>
      <trkpt lat="47.48933" lon="6.77304">
        <ele>311</ele>
        <time>2015-03-01T08:40:37.000Z</time>
      </trkpt>
      <trkpt lat="47.48928" lon="6.77302">
        <ele>311</ele>
        <time>2015-03-01T08:40:38.000Z</time>
      </trkpt>
      <trkpt lat="47.48922" lon="6.773">
        <ele>311</ele>
        <time>2015-03-01T08:40:39.000Z</time>
      </trkpt>
      <trkpt lat="47.48917" lon="6.77298">
        <ele>311</ele>
        <time>2015-03-01T08:40:40.000Z</time>
      </trkpt>
      <trkpt lat="47.48912" lon="6.77296">
        <ele>310</ele>
        <time>2015-03-01T08:40:41.000Z</time>
      </trkpt>
      <trkpt lat="47.48907" lon="6.77293">
        <ele>310</ele>
        <time>2015-03-01T08:40:42.000Z</time>
      </trkpt>
      <trkpt lat="47.48903" lon="6.77292">
        <ele>310</ele>
        <time>2015-03-01T08:40:43.000Z</time>
      </trkpt>
      <trkpt lat="47.48897" lon="6.7729">
        <ele>310</ele>
        <time>2015-03-01T08:40:44.000Z</time>
      </trkpt>
      <trkpt lat="47.48892" lon="6.77289">
        <ele>310</ele>
        <time>2015-03-01T08:40:45.000Z</time>
      </trkpt>
      <trkpt lat="47.48887" lon="6.77287">
        <ele>310</ele>
        <time>2015-03-01T08:40:46.000Z</time>
      </trkpt>
      <trkpt lat="47.48882" lon="6.77286">
        <ele>310</ele>
        <time>2015-03-01T08:40:47.000Z</time>
      </trkpt>
      <trkpt lat="47.48877" lon="6.77284">
        <ele>310</ele>
        <time>2015-03-01T08:40:48.000Z</time>
      </trkpt>
      <trkpt lat="47.48873" lon="6.77283">
        <ele>310</ele>
        <time>2015-03-01T08:40:49.000Z</time>
      </trkpt>
      <trkpt lat="47.48867" lon="6.7728">
        <ele>310</ele>
        <time>2015-03-01T08:40:50.000Z</time>
      </trkpt>
      <trkpt lat="47.48862" lon="6.77279">
        <ele>310</ele>
        <time>2015-03-01T08:40:51.000Z</time>
      </trkpt>
      <trkpt lat="47.48858" lon="6.77276">
        <ele>310</ele>
        <time>2015-03-01T08:40:52.000Z</time>
      </trkpt>
      <trkpt lat="47.48853" lon="6.77273">
        <ele>310</ele>
        <time>2015-03-01T08:40:53.000Z</time>
      </trkpt>
      <trkpt lat="47.48848" lon="6.7727">
        <ele>310</ele>
        <time>2015-03-01T08:40:54.000Z</time>
      </trkpt>
      <trkpt lat="47.48844" lon="6.77267">
        <ele>310</ele>
        <time>2015-03-01T08:40:55.000Z</time>
      </trkpt>
      <trkpt lat="47.48839" lon="6.77265">
        <ele>310</ele>
        <time>2015-03-01T08:40:56.000Z</time>
      </trkpt>
      <trkpt lat="47.48835" lon="6.77263">
        <ele>311</ele>
        <time>2015-03-01T08:40:57.000Z</time>
      </trkpt>
      <trkpt lat="47.4883" lon="6.77259">
        <ele>311</ele>
        <time>2015-03-01T08:40:58.000Z</time>
      </trkpt>
      <trkpt lat="47.48825" lon="6.77256">
        <ele>311</ele>
        <time>2015-03-01T08:40:59.000Z</time>
      </trkpt>
      <trkpt lat="47.48821" lon="6.77253">
        <ele>310</ele>
        <time>2015-03-01T08:41:00.000Z</time>
      </trkpt>
      <trkpt lat="47.48816" lon="6.7725">
        <ele>311</ele>
        <time>2015-03-01T08:41:01.000Z</time>
      </trkpt>
      <trkpt lat="47.48811" lon="6.77246">
        <ele>311</ele>
        <time>2015-03-01T08:41:02.000Z</time>
      </trkpt>
      <trkpt lat="47.48806" lon="6.77242">
        <ele>311</ele>
        <time>2015-03-01T08:41:03.000Z</time>
      </trkpt>
      <trkpt lat="47.48801" lon="6.77238">
        <ele>310</ele>
        <time>2015-03-01T08:41:04.000Z</time>
      </trkpt>
      <trkpt lat="47.48797" lon="6.77235">
        <ele>310</ele>
        <time>2015-03-01T08:41:05.000Z</time>
      </trkpt>
      <trkpt lat="47.48792" lon="6.77231">
        <ele>310</ele>
        <time>2015-03-01T08:41:06.000Z</time>
      </trkpt>
      <trkpt lat="47.48788" lon="6.77228">
        <ele>310</ele>
        <time>2015-03-01T08:41:07.000Z</time>
      </trkpt>
      <trkpt lat="47.48783" lon="6.77224">
        <ele>310</ele>
        <time>2015-03-01T08:41:08.000Z</time>
      </trkpt>
      <trkpt lat="47.48778" lon="6.7722">
        <ele>310</ele>
        <time>2015-03-01T08:41:09.000Z</time>
      </trkpt>
      <trkpt lat="47.48774" lon="6.77217">
        <ele>310</ele>
        <time>2015-03-01T08:41:10.000Z</time>
      </trkpt>
      <trkpt lat="47.48769" lon="6.77213">
        <ele>310</ele>
        <time>2015-03-01T08:41:11.000Z</time>
      </trkpt>
      <trkpt lat="47.48765" lon="6.7721">
        <ele>310</ele>
        <time>2015-03-01T08:41:12.000Z</time>
      </trkpt>
      <trkpt lat="47.4876" lon="6.77206">
        <ele>310</ele>
        <time>2015-03-01T08:41:13.000Z</time>
      </trkpt>
      <trkpt lat="47.48756" lon="6.77202">
        <ele>310</ele>
        <time>2015-03-01T08:41:14.000Z</time>
      </trkpt>
      <trkpt lat="47.48752" lon="6.77198">
        <ele>310</ele>
        <time>2015-03-01T08:41:15.000Z</time>
      </trkpt>
      <trkpt lat="47.48747" lon="6.77195">
        <ele>310</ele>
        <time>2015-03-01T08:41:16.000Z</time>
      </trkpt>
      <trkpt lat="47.48742" lon="6.77192">
        <ele>310</ele>
        <time>2015-03-01T08:41:17.000Z</time>
      </trkpt>
      <trkpt lat="47.48738" lon="6.77189">
        <ele>310</ele>
        <time>2015-03-01T08:41:18.000Z</time>
      </trkpt>
      <trkpt lat="47.48733" lon="6.77186">
        <ele>310</ele>
        <time>2015-03-01T08:41:19.000Z</time>
      </trkpt>
      <trkpt lat="47.48729" lon="6.77182">
        <ele>311</ele>
        <time>2015-03-01T08:41:20.000Z</time>
      </trkpt>
      <trkpt lat="47.48724" lon="6.77179">
        <ele>311</ele>
        <time>2015-03-01T08:41:21.000Z</time>
      </trkpt>
      <trkpt lat="47.48719" lon="6.77175">
        <ele>311</ele>
        <time>2015-03-01T08:41:22.000Z</time>
      </trkpt>
      <trkpt lat="47.48714" lon="6.77172">
        <ele>311</ele>
        <time>2015-03-01T08:41:23.000Z</time>
      </trkpt>
      <trkpt lat="47.4871" lon="6.77169">
        <ele>311</ele>
        <time>2015-03-01T08:41:24.000Z</time>
      </trkpt>
      <trkpt lat="47.48705" lon="6.77165">
        <ele>311</ele>
        <time>2015-03-01T08:41:25.000Z</time>
      </trkpt>
      <trkpt lat="47.487" lon="6.77161">
        <ele>311</ele>
        <time>2015-03-01T08:41:26.000Z</time>
      </trkpt>
      <trkpt lat="47.48696" lon="6.77157">
        <ele>311</ele>
        <time>2015-03-01T08:41:27.000Z</time>
      </trkpt>
      <trkpt lat="47.48691" lon="6.77153">
        <ele>311</ele>
        <time>2015-03-01T08:41:28.000Z</time>
      </trkpt>
      <trkpt lat="47.48687" lon="6.77148">
        <ele>311</ele>
        <time>2015-03-01T08:41:29.000Z</time>
      </trkpt>
      <trkpt lat="47.48682" lon="6.77144">
        <ele>311</ele>
        <time>2015-03-01T08:41:30.000Z</time>
      </trkpt>
      <trkpt lat="47.48678" lon="6.7714">
        <ele>311</ele>
        <time>2015-03-01T08:41:31.000Z</time>
      </trkpt>
      <trkpt lat="47.48674" lon="6.77136">
        <ele>312</ele>
        <time>2015-03-01T08:41:32.000Z</time>
      </trkpt>
      <trkpt lat="47.4867" lon="6.77133">
        <ele>312</ele>
        <time>2015-03-01T08:41:33.000Z</time>
      </trkpt>
      <trkpt lat="47.48666" lon="6.77128">
        <ele>312</ele>
        <time>2015-03-01T08:41:34.000Z</time>
      </trkpt>
      <trkpt lat="47.4866" lon="6.77123">
        <ele>312</ele>
        <time>2015-03-01T08:41:35.000Z</time>
      </trkpt>
      <trkpt lat="47.48655" lon="6.77118">
        <ele>312</ele>
        <time>2015-03-01T08:41:36.000Z</time>
      </trkpt>
      <trkpt lat="47.4865" lon="6.77113">
        <ele>312</ele>
        <time>2015-03-01T08:41:37.000Z</time>
      </trkpt>
      <trkpt lat="47.48646" lon="6.77108">
        <ele>312</ele>
        <time>2015-03-01T08:41:38.000Z</time>
      </trkpt>
      <trkpt lat="47.48641" lon="6.77103">
        <ele>312</ele>
        <time>2015-03-01T08:41:39.000Z</time>
      </trkpt>
      <trkpt lat="47.48636" lon="6.77098">
        <ele>312</ele>
        <time>2015-03-01T08:41:40.000Z</time>
      </trkpt>
      <trkpt lat="47.48631" lon="6.77093">
        <ele>312</ele>
        <time>2015-03-01T08:41:41.000Z</time>
      </trkpt>
      <trkpt lat="47.48627" lon="6.77089">
        <ele>312</ele>
        <time>2015-03-01T08:41:42.000Z</time>
      </trkpt>
      <trkpt lat="47.48623" lon="6.77086">
        <ele>312</ele>
        <time>2015-03-01T08:41:43.000Z</time>
      </trkpt>
      <trkpt lat="47.48618" lon="6.77083">
        <ele>313</ele>
        <time>2015-03-01T08:41:44.000Z</time>
      </trkpt>
      <trkpt lat="47.48614" lon="6.77081">
        <ele>313</ele>
        <time>2015-03-01T08:41:45.000Z</time>
      </trkpt>
      <trkpt lat="47.48609" lon="6.77078">
        <ele>313</ele>
        <time>2015-03-01T08:41:46.000Z</time>
      </trkpt>
      <trkpt lat="47.48604" lon="6.77074">
        <ele>313</ele>
        <time>2015-03-01T08:41:47.000Z</time>
      </trkpt>
      <trkpt lat="47.48599" lon="6.77071">
        <ele>313</ele>
        <time>2015-03-01T08:41:48.000Z</time>
      </trkpt>
      <trkpt lat="47.48594" lon="6.77066">
        <ele>313</ele>
        <time>2015-03-01T08:41:49.000Z</time>
      </trkpt>
      <trkpt lat="47.48589" lon="6.77063">
        <ele>313</ele>
        <time>2015-03-01T08:41:50.000Z</time>
      </trkpt>
      <trkpt lat="47.48584" lon="6.77061">
        <ele>313</ele>
        <time>2015-03-01T08:41:51.000Z</time>
      </trkpt>
      <trkpt lat="47.48579" lon="6.77057">
        <ele>314</ele>
        <time>2015-03-01T08:41:52.000Z</time>
      </trkpt>
      <trkpt lat="47.48576" lon="6.77056">
        <ele>314</ele>
        <time>2015-03-01T08:41:53.000Z</time>
      </trkpt>
      <trkpt lat="47.48573" lon="6.77054">
        <ele>314</ele>
        <time>2015-03-01T08:41:54.000Z</time>
      </trkpt>
      <trkpt lat="47.48569" lon="6.77051">
        <ele>314</ele>
        <time>2015-03-01T08:41:55.000Z</time>
      </trkpt>
      <trkpt lat="47.48566" lon="6.77048">
        <ele>314</ele>
        <time>2015-03-01T08:41:56.000Z</time>
      </trkpt>
      <trkpt lat="47.48562" lon="6.77047">
        <ele>314</ele>
        <time>2015-03-01T08:41:57.000Z</time>
      </trkpt>
      <trkpt lat="47.48557" lon="6.77044">
        <ele>314</ele>
        <time>2015-03-01T08:41:58.000Z</time>
      </trkpt>
      <trkpt lat="47.4855" lon="6.77043">
        <ele>314</ele>
        <time>2015-03-01T08:41:59.000Z</time>
      </trkpt>
      <trkpt lat="47.48544" lon="6.7704">
        <ele>314</ele>
        <time>2015-03-01T08:42:00.000Z</time>
      </trkpt>
      <trkpt lat="47.48539" lon="6.77036">
        <ele>314</ele>
        <time>2015-03-01T08:42:01.000Z</time>
      </trkpt>
      <trkpt lat="47.48533" lon="6.77031">
        <ele>314</ele>
        <time>2015-03-01T08:42:02.000Z</time>
      </trkpt>
      <trkpt lat="47.48528" lon="6.77027">
        <ele>314</ele>
        <time>2015-03-01T08:42:03.000Z</time>
      </trkpt>
      <trkpt lat="47.48523" lon="6.77023">
        <ele>314</ele>
        <time>2015-03-01T08:42:04.000Z</time>
      </trkpt>
      <trkpt lat="47.48518" lon="6.77019">
        <ele>315</ele>
        <time>2015-03-01T08:42:05.000Z</time>
      </trkpt>
      <trkpt lat="47.48513" lon="6.77015">
        <ele>315</ele>
        <time>2015-03-01T08:42:06.000Z</time>
      </trkpt>
      <trkpt lat="47.48508" lon="6.77012">
        <ele>315</ele>
        <time>2015-03-01T08:42:07.000Z</time>
      </trkpt>
      <trkpt lat="47.48503" lon="6.77008">
        <ele>315</ele>
        <time>2015-03-01T08:42:08.000Z</time>
      </trkpt>
      <trkpt lat="47.48497" lon="6.77005">
        <ele>315</ele>
        <time>2015-03-01T08:42:09.000Z</time>
      </trkpt>
      <trkpt lat="47.48491" lon="6.77001">
        <ele>315</ele>
        <time>2015-03-01T08:42:10.000Z</time>
      </trkpt>
      <trkpt lat="47.48486" lon="6.76998">
        <ele>316</ele>
        <time>2015-03-01T08:42:11.000Z</time>
      </trkpt>
      <trkpt lat="47.48481" lon="6.76994">
        <ele>315</ele>
        <time>2015-03-01T08:42:12.000Z</time>
      </trkpt>
      <trkpt lat="47.48476" lon="6.76991">
        <ele>315</ele>
        <time>2015-03-01T08:42:13.000Z</time>
      </trkpt>
      <trkpt lat="47.48471" lon="6.76988">
        <ele>315</ele>
        <time>2015-03-01T08:42:14.000Z</time>
      </trkpt>
      <trkpt lat="47.48465" lon="6.76985">
        <ele>315</ele>
        <time>2015-03-01T08:42:15.000Z</time>
      </trkpt>
      <trkpt lat="47.48461" lon="6.76982">
        <ele>315</ele>
        <time>2015-03-01T08:42:16.000Z</time>
      </trkpt>
      <trkpt lat="47.48456" lon="6.76978">
        <ele>315</ele>
        <time>2015-03-01T08:42:17.000Z</time>
      </trkpt>
      <trkpt lat="47.48451" lon="6.76974">
        <ele>315</ele>
        <time>2015-03-01T08:42:18.000Z</time>
      </trkpt>
      <trkpt lat="47.48446" lon="6.7697">
        <ele>315</ele>
        <time>2015-03-01T08:42:19.000Z</time>
      </trkpt>
      <trkpt lat="47.48441" lon="6.76967">
        <ele>315</ele>
        <time>2015-03-01T08:42:20.000Z</time>
      </trkpt>
      <trkpt lat="47.48436" lon="6.76964">
        <ele>314</ele>
        <time>2015-03-01T08:42:21.000Z</time>
      </trkpt>
      <trkpt lat="47.48431" lon="6.76961">
        <ele>314</ele>
        <time>2015-03-01T08:42:22.000Z</time>
      </trkpt>
      <trkpt lat="47.48426" lon="6.76959">
        <ele>314</ele>
        <time>2015-03-01T08:42:23.000Z</time>
      </trkpt>
      <trkpt lat="47.48421" lon="6.76957">
        <ele>314</ele>
        <time>2015-03-01T08:42:24.000Z</time>
      </trkpt>
      <trkpt lat="47.48415" lon="6.76954">
        <ele>312</ele>
        <time>2015-03-01T08:42:25.000Z</time>
      </trkpt>
      <trkpt lat="47.48409" lon="6.76953">
        <ele>312</ele>
        <time>2015-03-01T08:42:26.000Z</time>
      </trkpt>
      <trkpt lat="47.48403" lon="6.7695">
        <ele>312</ele>
        <time>2015-03-01T08:42:27.000Z</time>
      </trkpt>
      <trkpt lat="47.48398" lon="6.76947">
        <ele>312</ele>
        <time>2015-03-01T08:42:28.000Z</time>
      </trkpt>
      <trkpt lat="47.48393" lon="6.76944">
        <ele>312</ele>
        <time>2015-03-01T08:42:29.000Z</time>
      </trkpt>
      <trkpt lat="47.48388" lon="6.76941">
        <ele>312</ele>
        <time>2015-03-01T08:42:30.000Z</time>
      </trkpt>
      <trkpt lat="47.48383" lon="6.76938">
        <ele>312</ele>
        <time>2015-03-01T08:42:31.000Z</time>
      </trkpt>
      <trkpt lat="47.48378" lon="6.76934">
        <ele>312</ele>
        <time>2015-03-01T08:42:32.000Z</time>
      </trkpt>
      <trkpt lat="47.48372" lon="6.7693">
        <ele>312</ele>
        <time>2015-03-01T08:42:33.000Z</time>
      </trkpt>
      <trkpt lat="47.48367" lon="6.76927">
        <ele>311</ele>
        <time>2015-03-01T08:42:34.000Z</time>
      </trkpt>
      <trkpt lat="47.48362" lon="6.76924">
        <ele>311</ele>
        <time>2015-03-01T08:42:35.000Z</time>
      </trkpt>
      <trkpt lat="47.48357" lon="6.7692">
        <ele>311</ele>
        <time>2015-03-01T08:42:36.000Z</time>
      </trkpt>
      <trkpt lat="47.48351" lon="6.76917">
        <ele>311</ele>
        <time>2015-03-01T08:42:37.000Z</time>
      </trkpt>
      <trkpt lat="47.48346" lon="6.76913">
        <ele>310</ele>
        <time>2015-03-01T08:42:38.000Z</time>
      </trkpt>
      <trkpt lat="47.4834" lon="6.7691">
        <ele>310</ele>
        <time>2015-03-01T08:42:39.000Z</time>
      </trkpt>
      <trkpt lat="47.48335" lon="6.76907">
        <ele>310</ele>
        <time>2015-03-01T08:42:40.000Z</time>
      </trkpt>
      <trkpt lat="47.4833" lon="6.76903">
        <ele>310</ele>
        <time>2015-03-01T08:42:41.000Z</time>
      </trkpt>
      <trkpt lat="47.48325" lon="6.769">
        <ele>310</ele>
        <time>2015-03-01T08:42:42.000Z</time>
      </trkpt>
      <trkpt lat="47.4832" lon="6.76896">
        <ele>310</ele>
        <time>2015-03-01T08:42:43.000Z</time>
      </trkpt>
      <trkpt lat="47.48316" lon="6.76892">
        <ele>310</ele>
        <time>2015-03-01T08:42:44.000Z</time>
      </trkpt>
      <trkpt lat="47.48311" lon="6.76888">
        <ele>310</ele>
        <time>2015-03-01T08:42:45.000Z</time>
      </trkpt>
      <trkpt lat="47.48306" lon="6.76884">
        <ele>310</ele>
        <time>2015-03-01T08:42:46.000Z</time>
      </trkpt>
      <trkpt lat="47.48301" lon="6.7688">
        <ele>310</ele>
        <time>2015-03-01T08:42:47.000Z</time>
      </trkpt>
      <trkpt lat="47.48296" lon="6.76877">
        <ele>310</ele>
        <time>2015-03-01T08:42:48.000Z</time>
      </trkpt>
      <trkpt lat="47.48292" lon="6.76872">
        <ele>310</ele>
        <time>2015-03-01T08:42:49.000Z</time>
      </trkpt>
      <trkpt lat="47.48288" lon="6.76868">
        <ele>310</ele>
        <time>2015-03-01T08:42:50.000Z</time>
      </trkpt>
      <trkpt lat="47.48284" lon="6.76863">
        <ele>310</ele>
        <time>2015-03-01T08:42:51.000Z</time>
      </trkpt>
      <trkpt lat="47.4828" lon="6.76857">
        <ele>310</ele>
        <time>2015-03-01T08:42:52.000Z</time>
      </trkpt>
      <trkpt lat="47.48276" lon="6.76852">
        <ele>310</ele>
        <time>2015-03-01T08:42:53.000Z</time>
      </trkpt>
      <trkpt lat="47.48272" lon="6.76846">
        <ele>311</ele>
        <time>2015-03-01T08:42:54.000Z</time>
      </trkpt>
      <trkpt lat="47.48269" lon="6.76841">
        <ele>311</ele>
        <time>2015-03-01T08:42:55.000Z</time>
      </trkpt>
      <trkpt lat="47.48265" lon="6.76835">
        <ele>311</ele>
        <time>2015-03-01T08:42:56.000Z</time>
      </trkpt>
      <trkpt lat="47.48261" lon="6.7683">
        <ele>312</ele>
        <time>2015-03-01T08:42:57.000Z</time>
      </trkpt>
      <trkpt lat="47.48257" lon="6.76824">
        <ele>312</ele>
        <time>2015-03-01T08:42:58.000Z</time>
      </trkpt>
      <trkpt lat="47.48253" lon="6.76819">
        <ele>312</ele>
        <time>2015-03-01T08:42:59.000Z</time>
      </trkpt>
      <trkpt lat="47.48249" lon="6.76814">
        <ele>312</ele>
        <time>2015-03-01T08:43:00.000Z</time>
      </trkpt>
      <trkpt lat="47.48244" lon="6.76809">
        <ele>312</ele>
        <time>2015-03-01T08:43:01.000Z</time>
      </trkpt>
      <trkpt lat="47.4824" lon="6.76804">
        <ele>312</ele>
        <time>2015-03-01T08:43:02.000Z</time>
      </trkpt>
      <trkpt lat="47.48235" lon="6.768">
        <ele>312</ele>
        <time>2015-03-01T08:43:03.000Z</time>
      </trkpt>
      <trkpt lat="47.4823" lon="6.76798">
        <ele>312</ele>
        <time>2015-03-01T08:43:04.000Z</time>
      </trkpt>
      <trkpt lat="47.48225" lon="6.76795">
        <ele>312</ele>
        <time>2015-03-01T08:43:05.000Z</time>
      </trkpt>
      <trkpt lat="47.4822" lon="6.76793">
        <ele>312</ele>
        <time>2015-03-01T08:43:06.000Z</time>
      </trkpt>
      <trkpt lat="47.48215" lon="6.76791">
        <ele>312</ele>
        <time>2015-03-01T08:43:07.000Z</time>
      </trkpt>
      <trkpt lat="47.4821" lon="6.76788">
        <ele>312</ele>
        <time>2015-03-01T08:43:08.000Z</time>
      </trkpt>
      <trkpt lat="47.48204" lon="6.76786">
        <ele>312</ele>
        <time>2015-03-01T08:43:09.000Z</time>
      </trkpt>
      <trkpt lat="47.48199" lon="6.76783">
        <ele>312</ele>
        <time>2015-03-01T08:43:10.000Z</time>
      </trkpt>
      <trkpt lat="47.48194" lon="6.7678">
        <ele>312</ele>
        <time>2015-03-01T08:43:11.000Z</time>
      </trkpt>
      <trkpt lat="47.48189" lon="6.76776">
        <ele>312</ele>
        <time>2015-03-01T08:43:12.000Z</time>
      </trkpt>
      <trkpt lat="47.48184" lon="6.76772">
        <ele>312</ele>
        <time>2015-03-01T08:43:13.000Z</time>
      </trkpt>
      <trkpt lat="47.48179" lon="6.76767">
        <ele>312</ele>
        <time>2015-03-01T08:43:14.000Z</time>
      </trkpt>
      <trkpt lat="47.48175" lon="6.76762">
        <ele>313</ele>
        <time>2015-03-01T08:43:15.000Z</time>
      </trkpt>
      <trkpt lat="47.48171" lon="6.76757">
        <ele>313</ele>
        <time>2015-03-01T08:43:16.000Z</time>
      </trkpt>
      <trkpt lat="47.48167" lon="6.76751">
        <ele>313</ele>
        <time>2015-03-01T08:43:17.000Z</time>
      </trkpt>
      <trkpt lat="47.48163" lon="6.76745">
        <ele>313</ele>
        <time>2015-03-01T08:43:18.000Z</time>
      </trkpt>
      <trkpt lat="47.48159" lon="6.7674">
        <ele>313</ele>
        <time>2015-03-01T08:43:19.000Z</time>
      </trkpt>
      <trkpt lat="47.48155" lon="6.76734">
        <ele>312</ele>
        <time>2015-03-01T08:43:20.000Z</time>
      </trkpt>
      <trkpt lat="47.48152" lon="6.76728">
        <ele>312</ele>
        <time>2015-03-01T08:43:21.000Z</time>
      </trkpt>
      <trkpt lat="47.48149" lon="6.76721">
        <ele>312</ele>
        <time>2015-03-01T08:43:22.000Z</time>
      </trkpt>
      <trkpt lat="47.48146" lon="6.76714">
        <ele>312</ele>
        <time>2015-03-01T08:43:23.000Z</time>
      </trkpt>
      <trkpt lat="47.48143" lon="6.76708">
        <ele>312</ele>
        <time>2015-03-01T08:43:24.000Z</time>
      </trkpt>
      <trkpt lat="47.4814" lon="6.76701">
        <ele>312</ele>
        <time>2015-03-01T08:43:25.000Z</time>
      </trkpt>
      <trkpt lat="47.48136" lon="6.76695">
        <ele>312</ele>
        <time>2015-03-01T08:43:26.000Z</time>
      </trkpt>
      <trkpt lat="47.48133" lon="6.76689">
        <ele>312</ele>
        <time>2015-03-01T08:43:27.000Z</time>
      </trkpt>
      <trkpt lat="47.4813" lon="6.76683">
        <ele>312</ele>
        <time>2015-03-01T08:43:28.000Z</time>
      </trkpt>
      <trkpt lat="47.48126" lon="6.76678">
        <ele>312</ele>
        <time>2015-03-01T08:43:29.000Z</time>
      </trkpt>
      <trkpt lat="47.48122" lon="6.76672">
        <ele>312</ele>
        <time>2015-03-01T08:43:30.000Z</time>
      </trkpt>
      <trkpt lat="47.48119" lon="6.76667">
        <ele>312</ele>
        <time>2015-03-01T08:43:31.000Z</time>
      </trkpt>
      <trkpt lat="47.48116" lon="6.76662">
        <ele>312</ele>
        <time>2015-03-01T08:43:32.000Z</time>
      </trkpt>
      <trkpt lat="47.48113" lon="6.76657">
        <ele>312</ele>
        <time>2015-03-01T08:43:33.000Z</time>
      </trkpt>
      <trkpt lat="47.4811" lon="6.76652">
        <ele>312</ele>
        <time>2015-03-01T08:43:34.000Z</time>
      </trkpt>
      <trkpt lat="47.48107" lon="6.76646">
        <ele>312</ele>
        <time>2015-03-01T08:43:35.000Z</time>
      </trkpt>
      <trkpt lat="47.48105" lon="6.76642">
        <ele>313</ele>
        <time>2015-03-01T08:43:36.000Z</time>
      </trkpt>
      <trkpt lat="47.48103" lon="6.76636">
        <ele>313</ele>
        <time>2015-03-01T08:43:37.000Z</time>
      </trkpt>
      <trkpt lat="47.48101" lon="6.76631">
        <ele>313</ele>
        <time>2015-03-01T08:43:38.000Z</time>
      </trkpt>
      <trkpt lat="47.48099" lon="6.76624">
        <ele>313</ele>
        <time>2015-03-01T08:43:39.000Z</time>
      </trkpt>
      <trkpt lat="47.48098" lon="6.76618">
        <ele>313</ele>
        <time>2015-03-01T08:43:40.000Z</time>
      </trkpt>
      <trkpt lat="47.48098" lon="6.76612">
        <ele>313</ele>
        <time>2015-03-01T08:43:41.000Z</time>
      </trkpt>
      <trkpt lat="47.48099" lon="6.76605">
        <ele>313</ele>
        <time>2015-03-01T08:43:42.000Z</time>
      </trkpt>
      <trkpt lat="47.481" lon="6.76598">
        <ele>313</ele>
        <time>2015-03-01T08:43:43.000Z</time>
      </trkpt>
      <trkpt lat="47.48102" lon="6.76592">
        <ele>313</ele>
        <time>2015-03-01T08:43:44.000Z</time>
      </trkpt>
      <trkpt lat="47.48105" lon="6.76586">
        <ele>313</ele>
        <time>2015-03-01T08:43:45.000Z</time>
      </trkpt>
      <trkpt lat="47.48108" lon="6.76581">
        <ele>317</ele>
        <time>2015-03-01T08:43:46.000Z</time>
      </trkpt>
      <trkpt lat="47.48111" lon="6.76576">
        <ele>317</ele>
        <time>2015-03-01T08:43:47.000Z</time>
      </trkpt>
      <trkpt lat="47.48114" lon="6.7657">
        <ele>318</ele>
        <time>2015-03-01T08:43:48.000Z</time>
      </trkpt>
      <trkpt lat="47.48117" lon="6.76565">
        <ele>318</ele>
        <time>2015-03-01T08:43:49.000Z</time>
      </trkpt>
      <trkpt lat="47.48119" lon="6.7656">
        <ele>318</ele>
        <time>2015-03-01T08:43:50.000Z</time>
      </trkpt>
      <trkpt lat="47.48119" lon="6.76555">
        <ele>319</ele>
        <time>2015-03-01T08:43:51.000Z</time>
      </trkpt>
      <trkpt lat="47.48119" lon="6.76551">
        <ele>319</ele>
        <time>2015-03-01T08:43:52.000Z</time>
      </trkpt>
      <trkpt lat="47.48116" lon="6.76546">
        <ele>319</ele>
        <time>2015-03-01T08:43:53.000Z</time>
      </trkpt>
      <trkpt lat="47.48114" lon="6.76541">
        <ele>319</ele>
        <time>2015-03-01T08:43:53.998Z</time>
      </trkpt>
      <trkpt lat="47.48104" lon="6.76542">
        <ele>318</ele>
        <time>2015-03-01T08:43:55.000Z</time>
      </trkpt>
      <trkpt lat="47.48103" lon="6.7654">
        <ele>318</ele>
        <time>2015-03-01T08:43:56.000Z</time>
      </trkpt>
      <trkpt lat="47.48101" lon="6.76538">
        <ele>318</ele>
        <time>2015-03-01T08:43:57.000Z</time>
      </trkpt>
      <trkpt lat="47.48099" lon="6.76535">
        <ele>318</ele>
        <time>2015-03-01T08:43:58.000Z</time>
      </trkpt>
      <trkpt lat="47.48098" lon="6.7653">
        <ele>318</ele>
        <time>2015-03-01T08:43:59.000Z</time>
      </trkpt>
      <trkpt lat="47.48094" lon="6.7653">
        <ele>318</ele>
        <time>2015-03-01T08:44:03.000Z</time>
      </trkpt>
      <trkpt lat="47.48091" lon="6.76532">
        <ele>318</ele>
        <time>2015-03-01T08:44:04.000Z</time>
      </trkpt>
      <trkpt lat="47.48088" lon="6.76535">
        <ele>317</ele>
        <time>2015-03-01T08:44:05.000Z</time>
      </trkpt>
      <trkpt lat="47.48084" lon="6.76538">
        <ele>317</ele>
        <time>2015-03-01T08:44:06.000Z</time>
      </trkpt>
      <trkpt lat="47.48081" lon="6.76541">
        <ele>312</ele>
        <time>2015-03-01T08:44:07.000Z</time>
      </trkpt>
      <trkpt lat="47.48078" lon="6.76544">
        <ele>312</ele>
        <time>2015-03-01T08:44:08.000Z</time>
      </trkpt>
      <trkpt lat="47.48074" lon="6.76548">
        <ele>312</ele>
        <time>2015-03-01T08:44:09.000Z</time>
      </trkpt>
      <trkpt lat="47.48071" lon="6.76551">
        <ele>312</ele>
        <time>2015-03-01T08:44:10.000Z</time>
      </trkpt>
      <trkpt lat="47.48069" lon="6.76554">
        <ele>312</ele>
        <time>2015-03-01T08:44:11.000Z</time>
      </trkpt>
      <trkpt lat="47.48063" lon="6.76558">
        <ele>312</ele>
        <time>2015-03-01T08:44:12.000Z</time>
      </trkpt>
      <trkpt lat="47.48059" lon="6.76561">
        <ele>312</ele>
        <time>2015-03-01T08:44:13.000Z</time>
      </trkpt>
      <trkpt lat="47.48055" lon="6.76564">
        <ele>312</ele>
        <time>2015-03-01T08:44:14.000Z</time>
      </trkpt>
      <trkpt lat="47.48051" lon="6.76567">
        <ele>312</ele>
        <time>2015-03-01T08:44:15.000Z</time>
      </trkpt>
      <trkpt lat="47.48049" lon="6.7657">
        <ele>312</ele>
        <time>2015-03-01T08:44:16.000Z</time>
      </trkpt>
      <trkpt lat="47.48045" lon="6.76573">
        <ele>312</ele>
        <time>2015-03-01T08:44:17.000Z</time>
      </trkpt>
      <trkpt lat="47.48043" lon="6.76575">
        <ele>312</ele>
        <time>2015-03-01T08:44:18.000Z</time>
      </trkpt>
      <trkpt lat="47.4804" lon="6.76578">
        <ele>312</ele>
        <time>2015-03-01T08:44:19.000Z</time>
      </trkpt>
      <trkpt lat="47.48037" lon="6.76582">
        <ele>312</ele>
        <time>2015-03-01T08:44:20.000Z</time>
      </trkpt>
      <trkpt lat="47.48032" lon="6.76585">
        <ele>312</ele>
        <time>2015-03-01T08:44:21.000Z</time>
      </trkpt>
      <trkpt lat="47.48026" lon="6.76588">
        <ele>312</ele>
        <time>2015-03-01T08:44:22.000Z</time>
      </trkpt>
      <trkpt lat="47.48022" lon="6.7659">
        <ele>312</ele>
        <time>2015-03-01T08:44:23.000Z</time>
      </trkpt>
      <trkpt lat="47.48018" lon="6.76593">
        <ele>312</ele>
        <time>2015-03-01T08:44:24.000Z</time>
      </trkpt>
      <trkpt lat="47.48013" lon="6.76596">
        <ele>312</ele>
        <time>2015-03-01T08:44:25.000Z</time>
      </trkpt>
      <trkpt lat="47.48011" lon="6.76598">
        <ele>312</ele>
        <time>2015-03-01T08:44:27.000Z</time>
      </trkpt>
      <trkpt lat="47.48006" lon="6.76601">
        <ele>312</ele>
        <time>2015-03-01T08:44:28.000Z</time>
      </trkpt>
      <trkpt lat="47.48002" lon="6.76604">
        <ele>312</ele>
        <time>2015-03-01T08:44:29.000Z</time>
      </trkpt>
      <trkpt lat="47.47998" lon="6.76607">
        <ele>312</ele>
        <time>2015-03-01T08:44:30.000Z</time>
      </trkpt>
      <trkpt lat="47.47994" lon="6.76609">
        <ele>312</ele>
        <time>2015-03-01T08:44:31.000Z</time>
      </trkpt>
      <trkpt lat="47.4799" lon="6.76611">
        <ele>312</ele>
        <time>2015-03-01T08:44:32.000Z</time>
      </trkpt>
      <trkpt lat="47.47986" lon="6.76613">
        <ele>311</ele>
        <time>2015-03-01T08:44:33.000Z</time>
      </trkpt>
      <trkpt lat="47.47982" lon="6.76615">
        <ele>311</ele>
        <time>2015-03-01T08:44:34.000Z</time>
      </trkpt>
      <trkpt lat="47.47978" lon="6.76616">
        <ele>311</ele>
        <time>2015-03-01T08:44:35.000Z</time>
      </trkpt>
      <trkpt lat="47.47975" lon="6.76618">
        <ele>311</ele>
        <time>2015-03-01T08:44:36.000Z</time>
      </trkpt>
      <trkpt lat="47.47972" lon="6.7662">
        <ele>311</ele>
        <time>2015-03-01T08:44:37.000Z</time>
      </trkpt>
      <trkpt lat="47.4797" lon="6.76621">
        <ele>311</ele>
        <time>2015-03-01T08:44:38.000Z</time>
      </trkpt>
      <trkpt lat="47.47966" lon="6.76622">
        <ele>311</ele>
        <time>2015-03-01T08:44:41.000Z</time>
      </trkpt>
      <trkpt lat="47.47964" lon="6.76622">
        <ele>311</ele>
        <time>2015-03-01T08:44:42.000Z</time>
      </trkpt>
      <trkpt lat="47.47961" lon="6.76621">
        <ele>311</ele>
        <time>2015-03-01T08:44:43.000Z</time>
      </trkpt>
      <trkpt lat="47.47957" lon="6.76621">
        <ele>311</ele>
        <time>2015-03-01T08:44:44.000Z</time>
      </trkpt>
      <trkpt lat="47.47952" lon="6.76621">
        <ele>311</ele>
        <time>2015-03-01T08:44:45.000Z</time>
      </trkpt>
      <trkpt lat="47.47947" lon="6.76622">
        <ele>311</ele>
        <time>2015-03-01T08:44:46.000Z</time>
      </trkpt>
      <trkpt lat="47.47943" lon="6.76625">
        <ele>311</ele>
        <time>2015-03-01T08:44:47.000Z</time>
      </trkpt>
      <trkpt lat="47.47936" lon="6.76631">
        <ele>311</ele>
        <time>2015-03-01T08:44:48.000Z</time>
      </trkpt>
      <trkpt lat="47.47932" lon="6.76634">
        <ele>311</ele>
        <time>2015-03-01T08:44:49.000Z</time>
      </trkpt>
      <trkpt lat="47.47926" lon="6.76638">
        <ele>311</ele>
        <time>2015-03-01T08:44:50.000Z</time>
      </trkpt>
      <trkpt lat="47.47922" lon="6.76641">
        <ele>311</ele>
        <time>2015-03-01T08:44:51.000Z</time>
      </trkpt>
      <trkpt lat="47.47918" lon="6.76645">
        <ele>311</ele>
        <time>2015-03-01T08:44:52.000Z</time>
      </trkpt>
      <trkpt lat="47.47914" lon="6.7665">
        <ele>310</ele>
        <time>2015-03-01T08:44:53.000Z</time>
      </trkpt>
      <trkpt lat="47.4791" lon="6.76655">
        <ele>310</ele>
        <time>2015-03-01T08:44:54.000Z</time>
      </trkpt>
      <trkpt lat="47.47906" lon="6.7666">
        <ele>310</ele>
        <time>2015-03-01T08:44:55.000Z</time>
      </trkpt>
      <trkpt lat="47.47902" lon="6.76666">
        <ele>310</ele>
        <time>2015-03-01T08:44:56.000Z</time>
      </trkpt>
      <trkpt lat="47.47899" lon="6.76673">
        <ele>311</ele>
        <time>2015-03-01T08:44:57.000Z</time>
      </trkpt>
      <trkpt lat="47.47896" lon="6.76679">
        <ele>310</ele>
        <time>2015-03-01T08:44:58.000Z</time>
      </trkpt>
      <trkpt lat="47.47893" lon="6.76685">
        <ele>310</ele>
        <time>2015-03-01T08:44:59.000Z</time>
      </trkpt>
      <trkpt lat="47.47891" lon="6.76691">
        <ele>310</ele>
        <time>2015-03-01T08:45:00.000Z</time>
      </trkpt>
      <trkpt lat="47.47889" lon="6.76697">
        <ele>310</ele>
        <time>2015-03-01T08:45:01.000Z</time>
      </trkpt>
      <trkpt lat="47.47886" lon="6.76703">
        <ele>310</ele>
        <time>2015-03-01T08:45:02.000Z</time>
      </trkpt>
      <trkpt lat="47.47884" lon="6.76709">
        <ele>310</ele>
        <time>2015-03-01T08:45:03.000Z</time>
      </trkpt>
      <trkpt lat="47.47881" lon="6.76715">
        <ele>310</ele>
        <time>2015-03-01T08:45:04.000Z</time>
      </trkpt>
      <trkpt lat="47.47879" lon="6.76721">
        <ele>310</ele>
        <time>2015-03-01T08:45:05.000Z</time>
      </trkpt>
      <trkpt lat="47.47876" lon="6.76727">
        <ele>310</ele>
        <time>2015-03-01T08:45:06.000Z</time>
      </trkpt>
      <trkpt lat="47.47874" lon="6.76733">
        <ele>310</ele>
        <time>2015-03-01T08:45:07.000Z</time>
      </trkpt>
      <trkpt lat="47.47872" lon="6.76738">
        <ele>310</ele>
        <time>2015-03-01T08:45:08.000Z</time>
      </trkpt>
      <trkpt lat="47.47869" lon="6.76744">
        <ele>310</ele>
        <time>2015-03-01T08:45:09.000Z</time>
      </trkpt>
      <trkpt lat="47.47866" lon="6.76749">
        <ele>310</ele>
        <time>2015-03-01T08:45:10.000Z</time>
      </trkpt>
      <trkpt lat="47.47863" lon="6.76755">
        <ele>311</ele>
        <time>2015-03-01T08:45:11.000Z</time>
      </trkpt>
      <trkpt lat="47.47861" lon="6.7676">
        <ele>311</ele>
        <time>2015-03-01T08:45:12.000Z</time>
      </trkpt>
      <trkpt lat="47.47858" lon="6.76765">
        <ele>311</ele>
        <time>2015-03-01T08:45:13.000Z</time>
      </trkpt>
      <trkpt lat="47.47855" lon="6.76772">
        <ele>311</ele>
        <time>2015-03-01T08:45:14.000Z</time>
      </trkpt>
      <trkpt lat="47.47852" lon="6.76778">
        <ele>311</ele>
        <time>2015-03-01T08:45:15.000Z</time>
      </trkpt>
      <trkpt lat="47.4785" lon="6.76784">
        <ele>311</ele>
        <time>2015-03-01T08:45:16.000Z</time>
      </trkpt>
      <trkpt lat="47.47847" lon="6.76789">
        <ele>311</ele>
        <time>2015-03-01T08:45:17.000Z</time>
      </trkpt>
      <trkpt lat="47.47844" lon="6.76794">
        <ele>311</ele>
        <time>2015-03-01T08:45:18.000Z</time>
      </trkpt>
      <trkpt lat="47.47841" lon="6.76799">
        <ele>311</ele>
        <time>2015-03-01T08:45:19.000Z</time>
      </trkpt>
      <trkpt lat="47.47837" lon="6.76804">
        <ele>311</ele>
        <time>2015-03-01T08:45:20.000Z</time>
      </trkpt>
      <trkpt lat="47.47833" lon="6.76807">
        <ele>310</ele>
        <time>2015-03-01T08:45:21.000Z</time>
      </trkpt>
      <trkpt lat="47.47828" lon="6.76806">
        <ele>310</ele>
        <time>2015-03-01T08:45:22.000Z</time>
      </trkpt>
      <trkpt lat="47.47823" lon="6.76805">
        <ele>310</ele>
        <time>2015-03-01T08:45:23.000Z</time>
      </trkpt>
      <trkpt lat="47.47817" lon="6.76804">
        <ele>310</ele>
        <time>2015-03-01T08:45:24.000Z</time>
      </trkpt>
      <trkpt lat="47.47812" lon="6.76803">
        <ele>310</ele>
        <time>2015-03-01T08:45:25.000Z</time>
      </trkpt>
      <trkpt lat="47.47807" lon="6.76801">
        <ele>310</ele>
        <time>2015-03-01T08:45:26.000Z</time>
      </trkpt>
      <trkpt lat="47.47802" lon="6.768">
        <ele>310</ele>
        <time>2015-03-01T08:45:27.000Z</time>
      </trkpt>
      <trkpt lat="47.47797" lon="6.76798">
        <ele>310</ele>
        <time>2015-03-01T08:45:28.000Z</time>
      </trkpt>
      <trkpt lat="47.47792" lon="6.76796">
        <ele>310</ele>
        <time>2015-03-01T08:45:29.000Z</time>
      </trkpt>
      <trkpt lat="47.47787" lon="6.76795">
        <ele>311</ele>
        <time>2015-03-01T08:45:30.000Z</time>
      </trkpt>
      <trkpt lat="47.47782" lon="6.76795">
        <ele>311</ele>
        <time>2015-03-01T08:45:31.000Z</time>
      </trkpt>
      <trkpt lat="47.47778" lon="6.76795">
        <ele>311</ele>
        <time>2015-03-01T08:45:32.000Z</time>
      </trkpt>
      <trkpt lat="47.47773" lon="6.76795">
        <ele>311</ele>
        <time>2015-03-01T08:45:33.000Z</time>
      </trkpt>
      <trkpt lat="47.47768" lon="6.76796">
        <ele>311</ele>
        <time>2015-03-01T08:45:34.000Z</time>
      </trkpt>
      <trkpt lat="47.47764" lon="6.76795">
        <ele>311</ele>
        <time>2015-03-01T08:45:35.000Z</time>
      </trkpt>
      <trkpt lat="47.47759" lon="6.76795">
        <ele>311</ele>
        <time>2015-03-01T08:45:36.000Z</time>
      </trkpt>
      <trkpt lat="47.47754" lon="6.76795">
        <ele>311</ele>
        <time>2015-03-01T08:45:37.001Z</time>
      </trkpt>
      <trkpt lat="47.4775" lon="6.76795">
        <ele>311</ele>
        <time>2015-03-01T08:45:38.000Z</time>
      </trkpt>
      <trkpt lat="47.47745" lon="6.76795">
        <ele>311</ele>
        <time>2015-03-01T08:45:39.000Z</time>
      </trkpt>
      <trkpt lat="47.47741" lon="6.76795">
        <ele>311</ele>
        <time>2015-03-01T08:45:40.000Z</time>
      </trkpt>
      <trkpt lat="47.47736" lon="6.76801">
        <ele>311</ele>
        <time>2015-03-01T08:45:41.000Z</time>
      </trkpt>
      <trkpt lat="47.4773" lon="6.76806">
        <ele>311</ele>
        <time>2015-03-01T08:45:42.000Z</time>
      </trkpt>
      <trkpt lat="47.47726" lon="6.76812">
        <ele>311</ele>
        <time>2015-03-01T08:45:43.000Z</time>
      </trkpt>
      <trkpt lat="47.47722" lon="6.76819">
        <ele>311</ele>
        <time>2015-03-01T08:45:44.000Z</time>
      </trkpt>
      <trkpt lat="47.47719" lon="6.76827">
        <ele>311</ele>
        <time>2015-03-01T08:45:45.000Z</time>
      </trkpt>
      <trkpt lat="47.47717" lon="6.76834">
        <ele>311</ele>
        <time>2015-03-01T08:45:46.000Z</time>
      </trkpt>
      <trkpt lat="47.47714" lon="6.76841">
        <ele>311</ele>
        <time>2015-03-01T08:45:47.000Z</time>
      </trkpt>
      <trkpt lat="47.47712" lon="6.76847">
        <ele>311</ele>
        <time>2015-03-01T08:45:48.000Z</time>
      </trkpt>
      <trkpt lat="47.47708" lon="6.76853">
        <ele>311</ele>
        <time>2015-03-01T08:45:49.000Z</time>
      </trkpt>
      <trkpt lat="47.47705" lon="6.76858">
        <ele>311</ele>
        <time>2015-03-01T08:45:50.000Z</time>
      </trkpt>
      <trkpt lat="47.47703" lon="6.76863">
        <ele>311</ele>
        <time>2015-03-01T08:45:51.000Z</time>
      </trkpt>
      <trkpt lat="47.477" lon="6.7687">
        <ele>311</ele>
        <time>2015-03-01T08:45:52.000Z</time>
      </trkpt>
      <trkpt lat="47.47698" lon="6.76876">
        <ele>311</ele>
        <time>2015-03-01T08:45:53.001Z</time>
      </trkpt>
      <trkpt lat="47.47697" lon="6.76883">
        <ele>311</ele>
        <time>2015-03-01T08:45:54.000Z</time>
      </trkpt>
      <trkpt lat="47.47695" lon="6.76891">
        <ele>311</ele>
        <time>2015-03-01T08:45:55.000Z</time>
      </trkpt>
      <trkpt lat="47.47695" lon="6.76896">
        <ele>311</ele>
        <time>2015-03-01T08:45:56.000Z</time>
      </trkpt>
      <trkpt lat="47.47693" lon="6.76902">
        <ele>311</ele>
        <time>2015-03-01T08:45:57.000Z</time>
      </trkpt>
      <trkpt lat="47.47691" lon="6.76909">
        <ele>311</ele>
        <time>2015-03-01T08:45:58.001Z</time>
      </trkpt>
      <trkpt lat="47.47687" lon="6.76914">
        <ele>311</ele>
        <time>2015-03-01T08:45:59.000Z</time>
      </trkpt>
      <trkpt lat="47.47684" lon="6.7692">
        <ele>311</ele>
        <time>2015-03-01T08:46:00.000Z</time>
      </trkpt>
      <trkpt lat="47.47681" lon="6.76925">
        <ele>311</ele>
        <time>2015-03-01T08:46:01.000Z</time>
      </trkpt>
      <trkpt lat="47.47677" lon="6.76931">
        <ele>311</ele>
        <time>2015-03-01T08:46:02.000Z</time>
      </trkpt>
      <trkpt lat="47.47675" lon="6.76937">
        <ele>311</ele>
        <time>2015-03-01T08:46:03.000Z</time>
      </trkpt>
      <trkpt lat="47.47675" lon="6.76944">
        <ele>311</ele>
        <time>2015-03-01T08:46:04.000Z</time>
      </trkpt>
      <trkpt lat="47.47673" lon="6.7695">
        <ele>311</ele>
        <time>2015-03-01T08:46:05.000Z</time>
      </trkpt>
      <trkpt lat="47.47671" lon="6.76956">
        <ele>311</ele>
        <time>2015-03-01T08:46:06.000Z</time>
      </trkpt>
      <trkpt lat="47.47668" lon="6.76961">
        <ele>311</ele>
        <time>2015-03-01T08:46:07.000Z</time>
      </trkpt>
      <trkpt lat="47.47666" lon="6.76967">
        <ele>311</ele>
        <time>2015-03-01T08:46:08.000Z</time>
      </trkpt>
      <trkpt lat="47.47664" lon="6.76971">
        <ele>311</ele>
        <time>2015-03-01T08:46:09.000Z</time>
      </trkpt>
      <trkpt lat="47.47662" lon="6.76976">
        <ele>311</ele>
        <time>2015-03-01T08:46:10.000Z</time>
      </trkpt>
      <trkpt lat="47.47662" lon="6.76982">
        <ele>311</ele>
        <time>2015-03-01T08:46:11.000Z</time>
      </trkpt>
      <trkpt lat="47.4766" lon="6.76988">
        <ele>311</ele>
        <time>2015-03-01T08:46:12.000Z</time>
      </trkpt>
      <trkpt lat="47.47656" lon="6.76992">
        <ele>311</ele>
        <time>2015-03-01T08:46:13.000Z</time>
      </trkpt>
      <trkpt lat="47.47657" lon="6.76996">
        <ele>311</ele>
        <time>2015-03-01T08:46:14.000Z</time>
      </trkpt>
      <trkpt lat="47.47655" lon="6.77">
        <ele>311</ele>
        <time>2015-03-01T08:46:15.000Z</time>
      </trkpt>
      <trkpt lat="47.47654" lon="6.77003">
        <ele>311</ele>
        <time>2015-03-01T08:46:16.000Z</time>
      </trkpt>
      <trkpt lat="47.47653" lon="6.77007">
        <ele>311</ele>
        <time>2015-03-01T08:46:17.000Z</time>
      </trkpt>
      <trkpt lat="47.47653" lon="6.77014">
        <ele>311</ele>
        <time>2015-03-01T08:46:18.000Z</time>
      </trkpt>
      <trkpt lat="47.47652" lon="6.77019">
        <ele>311</ele>
        <time>2015-03-01T08:46:19.000Z</time>
      </trkpt>
      <trkpt lat="47.47651" lon="6.77025">
        <ele>311</ele>
        <time>2015-03-01T08:46:20.000Z</time>
      </trkpt>
      <trkpt lat="47.47651" lon="6.77029">
        <ele>311</ele>
        <time>2015-03-01T08:46:21.000Z</time>
      </trkpt>
      <trkpt lat="47.4765" lon="6.77034">
        <ele>311</ele>
        <time>2015-03-01T08:46:22.000Z</time>
      </trkpt>
      <trkpt lat="47.47649" lon="6.77038">
        <ele>311</ele>
        <time>2015-03-01T08:46:23.000Z</time>
      </trkpt>
      <trkpt lat="47.47648" lon="6.77042">
        <ele>311</ele>
        <time>2015-03-01T08:46:24.000Z</time>
      </trkpt>
      <trkpt lat="47.47648" lon="6.77046">
        <ele>311</ele>
        <time>2015-03-01T08:46:25.000Z</time>
      </trkpt>
      <trkpt lat="47.47647" lon="6.77049">
        <ele>311</ele>
        <time>2015-03-01T08:46:26.000Z</time>
      </trkpt>
      <trkpt lat="47.47647" lon="6.77054">
        <ele>311</ele>
        <time>2015-03-01T08:46:27.000Z</time>
      </trkpt>
      <trkpt lat="47.47646" lon="6.77058">
        <ele>311</ele>
        <time>2015-03-01T08:46:28.000Z</time>
      </trkpt>
      <trkpt lat="47.47646" lon="6.77063">
        <ele>311</ele>
        <time>2015-03-01T08:46:29.000Z</time>
      </trkpt>
      <trkpt lat="47.47645" lon="6.77068">
        <ele>311</ele>
        <time>2015-03-01T08:46:30.000Z</time>
      </trkpt>
      <trkpt lat="47.47644" lon="6.77074">
        <ele>311</ele>
        <time>2015-03-01T08:46:31.000Z</time>
      </trkpt>
      <trkpt lat="47.47643" lon="6.7708">
        <ele>311</ele>
        <time>2015-03-01T08:46:32.000Z</time>
      </trkpt>
      <trkpt lat="47.47642" lon="6.77085">
        <ele>311</ele>
        <time>2015-03-01T08:46:33.000Z</time>
      </trkpt>
      <trkpt lat="47.47641" lon="6.77091">
        <ele>311</ele>
        <time>2015-03-01T08:46:34.000Z</time>
      </trkpt>
      <trkpt lat="47.4764" lon="6.77097">
        <ele>311</ele>
        <time>2015-03-01T08:46:35.000Z</time>
      </trkpt>
      <trkpt lat="47.4764" lon="6.77105">
        <ele>310</ele>
        <time>2015-03-01T08:46:36.000Z</time>
      </trkpt>
      <trkpt lat="47.47638" lon="6.77113">
        <ele>310</ele>
        <time>2015-03-01T08:46:37.000Z</time>
      </trkpt>
      <trkpt lat="47.47638" lon="6.7712">
        <ele>310</ele>
        <time>2015-03-01T08:46:38.000Z</time>
      </trkpt>
      <trkpt lat="47.47637" lon="6.77127">
        <ele>310</ele>
        <time>2015-03-01T08:46:39.000Z</time>
      </trkpt>
      <trkpt lat="47.47635" lon="6.77134">
        <ele>310</ele>
        <time>2015-03-01T08:46:40.000Z</time>
      </trkpt>
      <trkpt lat="47.47634" lon="6.77141">
        <ele>310</ele>
        <time>2015-03-01T08:46:41.000Z</time>
      </trkpt>
      <trkpt lat="47.47631" lon="6.77147">
        <ele>310</ele>
        <time>2015-03-01T08:46:42.000Z</time>
      </trkpt>
      <trkpt lat="47.47629" lon="6.77154">
        <ele>310</ele>
        <time>2015-03-01T08:46:43.000Z</time>
      </trkpt>
      <trkpt lat="47.47626" lon="6.7716">
        <ele>310</ele>
        <time>2015-03-01T08:46:44.000Z</time>
      </trkpt>
      <trkpt lat="47.47623" lon="6.77166">
        <ele>310</ele>
        <time>2015-03-01T08:46:45.000Z</time>
      </trkpt>
      <trkpt lat="47.4762" lon="6.77172">
        <ele>310</ele>
        <time>2015-03-01T08:46:46.000Z</time>
      </trkpt>
      <trkpt lat="47.47617" lon="6.77177">
        <ele>310</ele>
        <time>2015-03-01T08:46:47.000Z</time>
      </trkpt>
      <trkpt lat="47.47614" lon="6.77183">
        <ele>310</ele>
        <time>2015-03-01T08:46:48.000Z</time>
      </trkpt>
      <trkpt lat="47.47609" lon="6.77186">
        <ele>310</ele>
        <time>2015-03-01T08:46:49.000Z</time>
      </trkpt>
      <trkpt lat="47.47605" lon="6.77186">
        <ele>310</ele>
        <time>2015-03-01T08:46:50.000Z</time>
      </trkpt>
      <trkpt lat="47.47601" lon="6.77184">
        <ele>310</ele>
        <time>2015-03-01T08:46:51.000Z</time>
      </trkpt>
      <trkpt lat="47.47596" lon="6.77181">
        <ele>310</ele>
        <time>2015-03-01T08:46:52.000Z</time>
      </trkpt>
      <trkpt lat="47.47592" lon="6.77178">
        <ele>310</ele>
        <time>2015-03-01T08:46:53.000Z</time>
      </trkpt>
      <trkpt lat="47.47588" lon="6.77176">
        <ele>309</ele>
        <time>2015-03-01T08:46:54.000Z</time>
      </trkpt>
      <trkpt lat="47.47584" lon="6.77173">
        <ele>309</ele>
        <time>2015-03-01T08:46:55.000Z</time>
      </trkpt>
      <trkpt lat="47.47579" lon="6.7717">
        <ele>309</ele>
        <time>2015-03-01T08:46:56.000Z</time>
      </trkpt>
      <trkpt lat="47.47575" lon="6.77167">
        <ele>309</ele>
        <time>2015-03-01T08:46:57.000Z</time>
      </trkpt>
      <trkpt lat="47.4757" lon="6.77165">
        <ele>309</ele>
        <time>2015-03-01T08:46:58.000Z</time>
      </trkpt>
      <trkpt lat="47.47566" lon="6.77162">
        <ele>309</ele>
        <time>2015-03-01T08:46:59.000Z</time>
      </trkpt>
      <trkpt lat="47.47561" lon="6.77158">
        <ele>310</ele>
        <time>2015-03-01T08:47:00.000Z</time>
      </trkpt>
      <trkpt lat="47.47558" lon="6.77155">
        <ele>310</ele>
        <time>2015-03-01T08:47:01.000Z</time>
      </trkpt>
      <trkpt lat="47.47554" lon="6.77152">
        <ele>310</ele>
        <time>2015-03-01T08:47:02.001Z</time>
      </trkpt>
      <trkpt lat="47.4755" lon="6.77149">
        <ele>310</ele>
        <time>2015-03-01T08:47:03.000Z</time>
      </trkpt>
      <trkpt lat="47.47547" lon="6.77147">
        <ele>310</ele>
        <time>2015-03-01T08:47:04.000Z</time>
      </trkpt>
      <trkpt lat="47.47543" lon="6.77144">
        <ele>310</ele>
        <time>2015-03-01T08:47:05.000Z</time>
      </trkpt>
      <trkpt lat="47.4754" lon="6.77142">
        <ele>310</ele>
        <time>2015-03-01T08:47:06.000Z</time>
      </trkpt>
      <trkpt lat="47.47535" lon="6.7714">
        <ele>310</ele>
        <time>2015-03-01T08:47:07.000Z</time>
      </trkpt>
      <trkpt lat="47.47531" lon="6.77139">
        <ele>310</ele>
        <time>2015-03-01T08:47:08.000Z</time>
      </trkpt>
      <trkpt lat="47.47526" lon="6.7714">
        <ele>310</ele>
        <time>2015-03-01T08:47:08.999Z</time>
      </trkpt>
      <trkpt lat="47.47523" lon="6.77145">
        <ele>310</ele>
        <time>2015-03-01T08:47:10.000Z</time>
      </trkpt>
      <trkpt lat="47.47519" lon="6.77149">
        <ele>310</ele>
        <time>2015-03-01T08:47:11.000Z</time>
      </trkpt>
      <trkpt lat="47.47515" lon="6.77152">
        <ele>310</ele>
        <time>2015-03-01T08:47:12.001Z</time>
      </trkpt>
      <trkpt lat="47.47511" lon="6.77156">
        <ele>309</ele>
        <time>2015-03-01T08:47:13.000Z</time>
      </trkpt>
      <trkpt lat="47.4751" lon="6.77162">
        <ele>309</ele>
        <time>2015-03-01T08:47:14.000Z</time>
      </trkpt>
      <trkpt lat="47.4751" lon="6.77171">
        <ele>310</ele>
        <time>2015-03-01T08:47:15.000Z</time>
      </trkpt>
      <trkpt lat="47.47516" lon="6.77181">
        <ele>310</ele>
        <time>2015-03-01T08:47:16.000Z</time>
      </trkpt>
      <trkpt lat="47.47515" lon="6.7719">
        <ele>310</ele>
        <time>2015-03-01T08:47:17.000Z</time>
      </trkpt>
      <trkpt lat="47.47514" lon="6.77195">
        <ele>310</ele>
        <time>2015-03-01T08:47:18.000Z</time>
      </trkpt>
      <trkpt lat="47.47512" lon="6.772">
        <ele>310</ele>
        <time>2015-03-01T08:47:19.000Z</time>
      </trkpt>
      <trkpt lat="47.4751" lon="6.77206">
        <ele>310</ele>
        <time>2015-03-01T08:47:20.000Z</time>
      </trkpt>
      <trkpt lat="47.47508" lon="6.77211">
        <ele>311</ele>
        <time>2015-03-01T08:47:21.000Z</time>
      </trkpt>
      <trkpt lat="47.47505" lon="6.77218">
        <ele>311</ele>
        <time>2015-03-01T08:47:22.000Z</time>
      </trkpt>
      <trkpt lat="47.47502" lon="6.77223">
        <ele>311</ele>
        <time>2015-03-01T08:47:23.000Z</time>
      </trkpt>
      <trkpt lat="47.475" lon="6.77227">
        <ele>311</ele>
        <time>2015-03-01T08:47:24.000Z</time>
      </trkpt>
      <trkpt lat="47.47498" lon="6.77231">
        <ele>312</ele>
        <time>2015-03-01T08:47:25.000Z</time>
      </trkpt>
      <trkpt lat="47.47495" lon="6.77235">
        <ele>312</ele>
        <time>2015-03-01T08:47:26.000Z</time>
      </trkpt>
      <trkpt lat="47.47492" lon="6.7724">
        <ele>312</ele>
        <time>2015-03-01T08:47:27.000Z</time>
      </trkpt>
      <trkpt lat="47.47489" lon="6.77243">
        <ele>312</ele>
        <time>2015-03-01T08:47:27.999Z</time>
      </trkpt>
      <trkpt lat="47.47486" lon="6.77247">
        <ele>312</ele>
        <time>2015-03-01T08:47:29.000Z</time>
      </trkpt>
      <trkpt lat="47.47483" lon="6.77252">
        <ele>313</ele>
        <time>2015-03-01T08:47:30.000Z</time>
      </trkpt>
      <trkpt lat="47.47482" lon="6.77257">
        <ele>313</ele>
        <time>2015-03-01T08:47:31.000Z</time>
      </trkpt>
      <trkpt lat="47.47479" lon="6.77261">
        <ele>314</ele>
        <time>2015-03-01T08:47:32.000Z</time>
      </trkpt>
      <trkpt lat="47.47477" lon="6.77266">
        <ele>314</ele>
        <time>2015-03-01T08:47:32.999Z</time>
      </trkpt>
      <trkpt lat="47.47475" lon="6.7727">
        <ele>314</ele>
        <time>2015-03-01T08:47:34.000Z</time>
      </trkpt>
      <trkpt lat="47.47472" lon="6.77272">
        <ele>314</ele>
        <time>2015-03-01T08:47:35.000Z</time>
      </trkpt>
      <trkpt lat="47.47471" lon="6.77274">
        <ele>314</ele>
        <time>2015-03-01T08:47:36.000Z</time>
      </trkpt>
      <trkpt lat="47.4747" lon="6.77279">
        <ele>314</ele>
        <time>2015-03-01T08:47:38.000Z</time>
      </trkpt>
      <trkpt lat="47.47471" lon="6.77283">
        <ele>314</ele>
        <time>2015-03-01T08:47:39.000Z</time>
      </trkpt>
      <trkpt lat="47.47472" lon="6.77287">
        <ele>314</ele>
        <time>2015-03-01T08:47:40.000Z</time>
      </trkpt>
      <trkpt lat="47.47474" lon="6.77291">
        <ele>314</ele>
        <time>2015-03-01T08:47:41.000Z</time>
      </trkpt>
      <trkpt lat="47.47477" lon="6.77295">
        <ele>314</ele>
        <time>2015-03-01T08:47:42.000Z</time>
      </trkpt>
      <trkpt lat="47.47479" lon="6.77299">
        <ele>314</ele>
        <time>2015-03-01T08:47:43.000Z</time>
      </trkpt>
      <trkpt lat="47.47481" lon="6.77302">
        <ele>314</ele>
        <time>2015-03-01T08:47:44.000Z</time>
      </trkpt>
      <trkpt lat="47.47483" lon="6.77305">
        <ele>314</ele>
        <time>2015-03-01T08:47:45.000Z</time>
      </trkpt>
      <trkpt lat="47.47486" lon="6.77307">
        <ele>315</ele>
        <time>2015-03-01T08:47:46.000Z</time>
      </trkpt>
      <trkpt lat="47.47489" lon="6.7731">
        <ele>315</ele>
        <time>2015-03-01T08:47:47.000Z</time>
      </trkpt>
      <trkpt lat="47.47493" lon="6.77314">
        <ele>315</ele>
        <time>2015-03-01T08:47:48.000Z</time>
      </trkpt>
      <trkpt lat="47.47496" lon="6.77318">
        <ele>315</ele>
        <time>2015-03-01T08:47:49.000Z</time>
      </trkpt>
      <trkpt lat="47.47499" lon="6.77322">
        <ele>315</ele>
        <time>2015-03-01T08:47:50.000Z</time>
      </trkpt>
      <trkpt lat="47.47503" lon="6.77327">
        <ele>314</ele>
        <time>2015-03-01T08:47:51.000Z</time>
      </trkpt>
      <trkpt lat="47.47506" lon="6.77332">
        <ele>314</ele>
        <time>2015-03-01T08:47:52.000Z</time>
      </trkpt>
      <trkpt lat="47.47509" lon="6.77336">
        <ele>315</ele>
        <time>2015-03-01T08:47:53.000Z</time>
      </trkpt>
      <trkpt lat="47.47513" lon="6.77341">
        <ele>315</ele>
        <time>2015-03-01T08:47:54.000Z</time>
      </trkpt>
      <trkpt lat="47.47516" lon="6.77345">
        <ele>315</ele>
        <time>2015-03-01T08:47:55.000Z</time>
      </trkpt>
      <trkpt lat="47.47519" lon="6.7735">
        <ele>314</ele>
        <time>2015-03-01T08:47:55.999Z</time>
      </trkpt>
      <trkpt lat="47.47523" lon="6.77355">
        <ele>314</ele>
        <time>2015-03-01T08:47:57.000Z</time>
      </trkpt>
      <trkpt lat="47.47526" lon="6.7736">
        <ele>314</ele>
        <time>2015-03-01T08:47:58.000Z</time>
      </trkpt>
      <trkpt lat="47.4753" lon="6.77365">
        <ele>314</ele>
        <time>2015-03-01T08:47:59.000Z</time>
      </trkpt>
      <trkpt lat="47.47532" lon="6.7737">
        <ele>314</ele>
        <time>2015-03-01T08:48:00.000Z</time>
      </trkpt>
      <trkpt lat="47.47535" lon="6.77376">
        <ele>314</ele>
        <time>2015-03-01T08:48:01.000Z</time>
      </trkpt>
      <trkpt lat="47.47538" lon="6.77382">
        <ele>314</ele>
        <time>2015-03-01T08:48:02.000Z</time>
      </trkpt>
      <trkpt lat="47.47541" lon="6.77388">
        <ele>314</ele>
        <time>2015-03-01T08:48:03.000Z</time>
      </trkpt>
      <trkpt lat="47.47544" lon="6.77394">
        <ele>314</ele>
        <time>2015-03-01T08:48:04.000Z</time>
      </trkpt>
      <trkpt lat="47.47546" lon="6.77399">
        <ele>314</ele>
        <time>2015-03-01T08:48:05.000Z</time>
      </trkpt>
      <trkpt lat="47.47549" lon="6.77405">
        <ele>314</ele>
        <time>2015-03-01T08:48:06.000Z</time>
      </trkpt>
      <trkpt lat="47.47552" lon="6.7741">
        <ele>314</ele>
        <time>2015-03-01T08:48:07.000Z</time>
      </trkpt>
      <trkpt lat="47.47555" lon="6.77416">
        <ele>314</ele>
        <time>2015-03-01T08:48:08.000Z</time>
      </trkpt>
      <trkpt lat="47.47559" lon="6.7742">
        <ele>315</ele>
        <time>2015-03-01T08:48:09.000Z</time>
      </trkpt>
      <trkpt lat="47.47563" lon="6.77426">
        <ele>315</ele>
        <time>2015-03-01T08:48:10.000Z</time>
      </trkpt>
      <trkpt lat="47.47567" lon="6.7743">
        <ele>315</ele>
        <time>2015-03-01T08:48:11.000Z</time>
      </trkpt>
      <trkpt lat="47.47571" lon="6.77435">
        <ele>315</ele>
        <time>2015-03-01T08:48:12.000Z</time>
      </trkpt>
      <trkpt lat="47.47576" lon="6.7744">
        <ele>315</ele>
        <time>2015-03-01T08:48:13.000Z</time>
      </trkpt>
      <trkpt lat="47.4758" lon="6.77444">
        <ele>315</ele>
        <time>2015-03-01T08:48:14.000Z</time>
      </trkpt>
      <trkpt lat="47.47584" lon="6.77451">
        <ele>314</ele>
        <time>2015-03-01T08:48:15.000Z</time>
      </trkpt>
      <trkpt lat="47.47589" lon="6.77458">
        <ele>314</ele>
        <time>2015-03-01T08:48:16.000Z</time>
      </trkpt>
      <trkpt lat="47.47594" lon="6.77461">
        <ele>314</ele>
        <time>2015-03-01T08:48:17.000Z</time>
      </trkpt>
      <trkpt lat="47.47597" lon="6.77466">
        <ele>314</ele>
        <time>2015-03-01T08:48:18.000Z</time>
      </trkpt>
      <trkpt lat="47.47601" lon="6.77471">
        <ele>314</ele>
        <time>2015-03-01T08:48:19.000Z</time>
      </trkpt>
      <trkpt lat="47.47605" lon="6.77475">
        <ele>314</ele>
        <time>2015-03-01T08:48:20.000Z</time>
      </trkpt>
      <trkpt lat="47.47608" lon="6.77479">
        <ele>314</ele>
        <time>2015-03-01T08:48:21.000Z</time>
      </trkpt>
      <trkpt lat="47.47612" lon="6.77484">
        <ele>314</ele>
        <time>2015-03-01T08:48:22.000Z</time>
      </trkpt>
      <trkpt lat="47.47615" lon="6.77488">
        <ele>314</ele>
        <time>2015-03-01T08:48:23.000Z</time>
      </trkpt>
      <trkpt lat="47.4762" lon="6.77492">
        <ele>314</ele>
        <time>2015-03-01T08:48:24.000Z</time>
      </trkpt>
      <trkpt lat="47.47623" lon="6.77496">
        <ele>314</ele>
        <time>2015-03-01T08:48:25.000Z</time>
      </trkpt>
      <trkpt lat="47.47627" lon="6.775">
        <ele>314</ele>
        <time>2015-03-01T08:48:26.000Z</time>
      </trkpt>
      <trkpt lat="47.4763" lon="6.77504">
        <ele>315</ele>
        <time>2015-03-01T08:48:27.000Z</time>
      </trkpt>
      <trkpt lat="47.47633" lon="6.77508">
        <ele>315</ele>
        <time>2015-03-01T08:48:28.000Z</time>
      </trkpt>
      <trkpt lat="47.47637" lon="6.77512">
        <ele>315</ele>
        <time>2015-03-01T08:48:29.000Z</time>
      </trkpt>
      <trkpt lat="47.4764" lon="6.77516">
        <ele>315</ele>
        <time>2015-03-01T08:48:30.000Z</time>
      </trkpt>
      <trkpt lat="47.47643" lon="6.7752">
        <ele>315</ele>
        <time>2015-03-01T08:48:31.000Z</time>
      </trkpt>
      <trkpt lat="47.47646" lon="6.77525">
        <ele>315</ele>
        <time>2015-03-01T08:48:32.000Z</time>
      </trkpt>
      <trkpt lat="47.4765" lon="6.77529">
        <ele>315</ele>
        <time>2015-03-01T08:48:33.000Z</time>
      </trkpt>
      <trkpt lat="47.47653" lon="6.77534">
        <ele>315</ele>
        <time>2015-03-01T08:48:34.000Z</time>
      </trkpt>
      <trkpt lat="47.47657" lon="6.77539">
        <ele>315</ele>
        <time>2015-03-01T08:48:35.000Z</time>
      </trkpt>
      <trkpt lat="47.4766" lon="6.77543">
        <ele>315</ele>
        <time>2015-03-01T08:48:36.000Z</time>
      </trkpt>
      <trkpt lat="47.47663" lon="6.77548">
        <ele>315</ele>
        <time>2015-03-01T08:48:37.000Z</time>
      </trkpt>
      <trkpt lat="47.47666" lon="6.77553">
        <ele>315</ele>
        <time>2015-03-01T08:48:38.000Z</time>
      </trkpt>
      <trkpt lat="47.4767" lon="6.77558">
        <ele>314</ele>
        <time>2015-03-01T08:48:39.000Z</time>
      </trkpt>
      <trkpt lat="47.47674" lon="6.77562">
        <ele>314</ele>
        <time>2015-03-01T08:48:40.000Z</time>
      </trkpt>
      <trkpt lat="47.47677" lon="6.77567">
        <ele>314</ele>
        <time>2015-03-01T08:48:41.000Z</time>
      </trkpt>
      <trkpt lat="47.4768" lon="6.77572">
        <ele>314</ele>
        <time>2015-03-01T08:48:42.000Z</time>
      </trkpt>
      <trkpt lat="47.47683" lon="6.77576">
        <ele>314</ele>
        <time>2015-03-01T08:48:43.000Z</time>
      </trkpt>
      <trkpt lat="47.47687" lon="6.77581">
        <ele>314</ele>
        <time>2015-03-01T08:48:44.000Z</time>
      </trkpt>
      <trkpt lat="47.47691" lon="6.77586">
        <ele>314</ele>
        <time>2015-03-01T08:48:45.000Z</time>
      </trkpt>
      <trkpt lat="47.47694" lon="6.77592">
        <ele>314</ele>
        <time>2015-03-01T08:48:46.000Z</time>
      </trkpt>
      <trkpt lat="47.47696" lon="6.77598">
        <ele>314</ele>
        <time>2015-03-01T08:48:47.000Z</time>
      </trkpt>
      <trkpt lat="47.47699" lon="6.77605">
        <ele>314</ele>
        <time>2015-03-01T08:48:48.000Z</time>
      </trkpt>
      <trkpt lat="47.47701" lon="6.77611">
        <ele>314</ele>
        <time>2015-03-01T08:48:49.000Z</time>
      </trkpt>
      <trkpt lat="47.47702" lon="6.77617">
        <ele>314</ele>
        <time>2015-03-01T08:48:50.000Z</time>
      </trkpt>
      <trkpt lat="47.47703" lon="6.77624">
        <ele>314</ele>
        <time>2015-03-01T08:48:51.000Z</time>
      </trkpt>
      <trkpt lat="47.47704" lon="6.7763">
        <ele>314</ele>
        <time>2015-03-01T08:48:52.000Z</time>
      </trkpt>
      <trkpt lat="47.47706" lon="6.77635">
        <ele>314</ele>
        <time>2015-03-01T08:48:53.000Z</time>
      </trkpt>
      <trkpt lat="47.47707" lon="6.77642">
        <ele>314</ele>
        <time>2015-03-01T08:48:54.000Z</time>
      </trkpt>
      <trkpt lat="47.47708" lon="6.77649">
        <ele>314</ele>
        <time>2015-03-01T08:48:55.000Z</time>
      </trkpt>
      <trkpt lat="47.47708" lon="6.77657">
        <ele>314</ele>
        <time>2015-03-01T08:48:56.000Z</time>
      </trkpt>
      <trkpt lat="47.4771" lon="6.77663">
        <ele>314</ele>
        <time>2015-03-01T08:48:57.000Z</time>
      </trkpt>
      <trkpt lat="47.47711" lon="6.7767">
        <ele>315</ele>
        <time>2015-03-01T08:48:58.000Z</time>
      </trkpt>
      <trkpt lat="47.47712" lon="6.77677">
        <ele>315</ele>
        <time>2015-03-01T08:48:59.000Z</time>
      </trkpt>
      <trkpt lat="47.47714" lon="6.77683">
        <ele>315</ele>
        <time>2015-03-01T08:49:00.000Z</time>
      </trkpt>
      <trkpt lat="47.47716" lon="6.77688">
        <ele>315</ele>
        <time>2015-03-01T08:49:01.000Z</time>
      </trkpt>
      <trkpt lat="47.47717" lon="6.77694">
        <ele>315</ele>
        <time>2015-03-01T08:49:02.000Z</time>
      </trkpt>
      <trkpt lat="47.47719" lon="6.77702">
        <ele>315</ele>
        <time>2015-03-01T08:49:03.000Z</time>
      </trkpt>
      <trkpt lat="47.47717" lon="6.77709">
        <ele>315</ele>
        <time>2015-03-01T08:49:04.000Z</time>
      </trkpt>
      <trkpt lat="47.47715" lon="6.77715">
        <ele>315</ele>
        <time>2015-03-01T08:49:05.000Z</time>
      </trkpt>
      <trkpt lat="47.47714" lon="6.77721">
        <ele>315</ele>
        <time>2015-03-01T08:49:06.000Z</time>
      </trkpt>
      <trkpt lat="47.47714" lon="6.77726">
        <ele>316</ele>
        <time>2015-03-01T08:49:07.000Z</time>
      </trkpt>
      <trkpt lat="47.47713" lon="6.77732">
        <ele>316</ele>
        <time>2015-03-01T08:49:08.000Z</time>
      </trkpt>
      <trkpt lat="47.47712" lon="6.77737">
        <ele>316</ele>
        <time>2015-03-01T08:49:09.000Z</time>
      </trkpt>
      <trkpt lat="47.47712" lon="6.77743">
        <ele>316</ele>
        <time>2015-03-01T08:49:10.000Z</time>
      </trkpt>
      <trkpt lat="47.47711" lon="6.77748">
        <ele>316</ele>
        <time>2015-03-01T08:49:11.000Z</time>
      </trkpt>
      <trkpt lat="47.4771" lon="6.77755">
        <ele>316</ele>
        <time>2015-03-01T08:49:12.000Z</time>
      </trkpt>
      <trkpt lat="47.47709" lon="6.77761">
        <ele>316</ele>
        <time>2015-03-01T08:49:13.000Z</time>
      </trkpt>
      <trkpt lat="47.47708" lon="6.77768">
        <ele>316</ele>
        <time>2015-03-01T08:49:14.000Z</time>
      </trkpt>
      <trkpt lat="47.47707" lon="6.77775">
        <ele>316</ele>
        <time>2015-03-01T08:49:14.999Z</time>
      </trkpt>
      <trkpt lat="47.47707" lon="6.7778">
        <ele>316</ele>
        <time>2015-03-01T08:49:16.000Z</time>
      </trkpt>
      <trkpt lat="47.47706" lon="6.77786">
        <ele>316</ele>
        <time>2015-03-01T08:49:17.000Z</time>
      </trkpt>
      <trkpt lat="47.47708" lon="6.77792">
        <ele>317</ele>
        <time>2015-03-01T08:49:18.000Z</time>
      </trkpt>
      <trkpt lat="47.47707" lon="6.77796">
        <ele>317</ele>
        <time>2015-03-01T08:49:19.000Z</time>
      </trkpt>
      <trkpt lat="47.47707" lon="6.77801">
        <ele>317</ele>
        <time>2015-03-01T08:49:20.000Z</time>
      </trkpt>
      <trkpt lat="47.47707" lon="6.77806">
        <ele>317</ele>
        <time>2015-03-01T08:49:21.000Z</time>
      </trkpt>
      <trkpt lat="47.47707" lon="6.7781">
        <ele>317</ele>
        <time>2015-03-01T08:49:22.000Z</time>
      </trkpt>
      <trkpt lat="47.47706" lon="6.77815">
        <ele>317</ele>
        <time>2015-03-01T08:49:23.000Z</time>
      </trkpt>
      <trkpt lat="47.47706" lon="6.7782">
        <ele>317</ele>
        <time>2015-03-01T08:49:24.000Z</time>
      </trkpt>
      <trkpt lat="47.47706" lon="6.77824">
        <ele>317</ele>
        <time>2015-03-01T08:49:25.000Z</time>
      </trkpt>
      <trkpt lat="47.47706" lon="6.7783">
        <ele>317</ele>
        <time>2015-03-01T08:49:26.000Z</time>
      </trkpt>
      <trkpt lat="47.47706" lon="6.77835">
        <ele>318</ele>
        <time>2015-03-01T08:49:27.000Z</time>
      </trkpt>
      <trkpt lat="47.47706" lon="6.77841">
        <ele>318</ele>
        <time>2015-03-01T08:49:28.000Z</time>
      </trkpt>
      <trkpt lat="47.47707" lon="6.77846">
        <ele>318</ele>
        <time>2015-03-01T08:49:29.000Z</time>
      </trkpt>
      <trkpt lat="47.47707" lon="6.77852">
        <ele>318</ele>
        <time>2015-03-01T08:49:30.000Z</time>
      </trkpt>
      <trkpt lat="47.47708" lon="6.77858">
        <ele>318</ele>
        <time>2015-03-01T08:49:31.000Z</time>
      </trkpt>
      <trkpt lat="47.47708" lon="6.77864">
        <ele>318</ele>
        <time>2015-03-01T08:49:32.000Z</time>
      </trkpt>
      <trkpt lat="47.47708" lon="6.7787">
        <ele>318</ele>
        <time>2015-03-01T08:49:33.000Z</time>
      </trkpt>
      <trkpt lat="47.47709" lon="6.77875">
        <ele>318</ele>
        <time>2015-03-01T08:49:34.000Z</time>
      </trkpt>
      <trkpt lat="47.4771" lon="6.77881">
        <ele>318</ele>
        <time>2015-03-01T08:49:35.000Z</time>
      </trkpt>
      <trkpt lat="47.47711" lon="6.77887">
        <ele>318</ele>
        <time>2015-03-01T08:49:36.000Z</time>
      </trkpt>
      <trkpt lat="47.47712" lon="6.77895">
        <ele>318</ele>
        <time>2015-03-01T08:49:37.000Z</time>
      </trkpt>
      <trkpt lat="47.47713" lon="6.77901">
        <ele>318</ele>
        <time>2015-03-01T08:49:38.000Z</time>
      </trkpt>
      <trkpt lat="47.47715" lon="6.77906">
        <ele>318</ele>
        <time>2015-03-01T08:49:39.000Z</time>
      </trkpt>
      <trkpt lat="47.47716" lon="6.77911">
        <ele>318</ele>
        <time>2015-03-01T08:49:40.000Z</time>
      </trkpt>
      <trkpt lat="47.47717" lon="6.77916">
        <ele>318</ele>
        <time>2015-03-01T08:49:41.000Z</time>
      </trkpt>
      <trkpt lat="47.47717" lon="6.77921">
        <ele>319</ele>
        <time>2015-03-01T08:49:42.000Z</time>
      </trkpt>
      <trkpt lat="47.47718" lon="6.77927">
        <ele>319</ele>
        <time>2015-03-01T08:49:43.000Z</time>
      </trkpt>
      <trkpt lat="47.47719" lon="6.77933">
        <ele>320</ele>
        <time>2015-03-01T08:49:44.000Z</time>
      </trkpt>
      <trkpt lat="47.4772" lon="6.77938">
        <ele>320</ele>
        <time>2015-03-01T08:49:45.000Z</time>
      </trkpt>
      <trkpt lat="47.47721" lon="6.77944">
        <ele>320</ele>
        <time>2015-03-01T08:49:46.000Z</time>
      </trkpt>
      <trkpt lat="47.47721" lon="6.77949">
        <ele>320</ele>
        <time>2015-03-01T08:49:47.000Z</time>
      </trkpt>
      <trkpt lat="47.47722" lon="6.77955">
        <ele>320</ele>
        <time>2015-03-01T08:49:48.000Z</time>
      </trkpt>
      <trkpt lat="47.47723" lon="6.7796">
        <ele>320</ele>
        <time>2015-03-01T08:49:49.000Z</time>
      </trkpt>
      <trkpt lat="47.47724" lon="6.77966">
        <ele>320</ele>
        <time>2015-03-01T08:49:50.000Z</time>
      </trkpt>
      <trkpt lat="47.47725" lon="6.77971">
        <ele>320</ele>
        <time>2015-03-01T08:49:51.000Z</time>
      </trkpt>
      <trkpt lat="47.47726" lon="6.77976">
        <ele>320</ele>
        <time>2015-03-01T08:49:52.000Z</time>
      </trkpt>
      <trkpt lat="47.47727" lon="6.77981">
        <ele>320</ele>
        <time>2015-03-01T08:49:53.000Z</time>
      </trkpt>
      <trkpt lat="47.47728" lon="6.77986">
        <ele>320</ele>
        <time>2015-03-01T08:49:54.000Z</time>
      </trkpt>
      <trkpt lat="47.47728" lon="6.77992">
        <ele>320</ele>
        <time>2015-03-01T08:49:55.000Z</time>
      </trkpt>
      <trkpt lat="47.47729" lon="6.77997">
        <ele>320</ele>
        <time>2015-03-01T08:49:56.000Z</time>
      </trkpt>
      <trkpt lat="47.4773" lon="6.78002">
        <ele>321</ele>
        <time>2015-03-01T08:49:57.000Z</time>
      </trkpt>
      <trkpt lat="47.47731" lon="6.78007">
        <ele>321</ele>
        <time>2015-03-01T08:49:58.000Z</time>
      </trkpt>
      <trkpt lat="47.47731" lon="6.78012">
        <ele>321</ele>
        <time>2015-03-01T08:49:59.000Z</time>
      </trkpt>
      <trkpt lat="47.47732" lon="6.78017">
        <ele>321</ele>
        <time>2015-03-01T08:50:00.000Z</time>
      </trkpt>
      <trkpt lat="47.47733" lon="6.78022">
        <ele>321</ele>
        <time>2015-03-01T08:50:01.000Z</time>
      </trkpt>
      <trkpt lat="47.47733" lon="6.78027">
        <ele>321</ele>
        <time>2015-03-01T08:50:02.000Z</time>
      </trkpt>
      <trkpt lat="47.47734" lon="6.78033">
        <ele>321</ele>
        <time>2015-03-01T08:50:03.000Z</time>
      </trkpt>
      <trkpt lat="47.47733" lon="6.78039">
        <ele>322</ele>
        <time>2015-03-01T08:50:04.000Z</time>
      </trkpt>
      <trkpt lat="47.47733" lon="6.78044">
        <ele>322</ele>
        <time>2015-03-01T08:50:05.000Z</time>
      </trkpt>
      <trkpt lat="47.47732" lon="6.78049">
        <ele>322</ele>
        <time>2015-03-01T08:50:06.000Z</time>
      </trkpt>
      <trkpt lat="47.47732" lon="6.78055">
        <ele>322</ele>
        <time>2015-03-01T08:50:07.000Z</time>
      </trkpt>
      <trkpt lat="47.47731" lon="6.78059">
        <ele>322</ele>
        <time>2015-03-01T08:50:08.000Z</time>
      </trkpt>
      <trkpt lat="47.4773" lon="6.78064">
        <ele>322</ele>
        <time>2015-03-01T08:50:09.000Z</time>
      </trkpt>
      <trkpt lat="47.47729" lon="6.78069">
        <ele>322</ele>
        <time>2015-03-01T08:50:10.000Z</time>
      </trkpt>
      <trkpt lat="47.47727" lon="6.78073">
        <ele>322</ele>
        <time>2015-03-01T08:50:11.000Z</time>
      </trkpt>
      <trkpt lat="47.47726" lon="6.78077">
        <ele>322</ele>
        <time>2015-03-01T08:50:12.000Z</time>
      </trkpt>
      <trkpt lat="47.47724" lon="6.78082">
        <ele>322</ele>
        <time>2015-03-01T08:50:13.000Z</time>
      </trkpt>
      <trkpt lat="47.47722" lon="6.78085">
        <ele>324</ele>
        <time>2015-03-01T08:50:14.000Z</time>
      </trkpt>
      <trkpt lat="47.47721" lon="6.78089">
        <ele>325</ele>
        <time>2015-03-01T08:50:15.000Z</time>
      </trkpt>
      <trkpt lat="47.47719" lon="6.78093">
        <ele>325</ele>
        <time>2015-03-01T08:50:16.000Z</time>
      </trkpt>
      <trkpt lat="47.47718" lon="6.78096">
        <ele>325</ele>
        <time>2015-03-01T08:50:17.000Z</time>
      </trkpt>
      <trkpt lat="47.47716" lon="6.78099">
        <ele>325</ele>
        <time>2015-03-01T08:50:18.000Z</time>
      </trkpt>
      <trkpt lat="47.47715" lon="6.78103">
        <ele>325</ele>
        <time>2015-03-01T08:50:19.000Z</time>
      </trkpt>
      <trkpt lat="47.47713" lon="6.78106">
        <ele>325</ele>
        <time>2015-03-01T08:50:20.000Z</time>
      </trkpt>
      <trkpt lat="47.47711" lon="6.7811">
        <ele>326</ele>
        <time>2015-03-01T08:50:21.000Z</time>
      </trkpt>
      <trkpt lat="47.4771" lon="6.78113">
        <ele>326</ele>
        <time>2015-03-01T08:50:22.000Z</time>
      </trkpt>
      <trkpt lat="47.47709" lon="6.78117">
        <ele>326</ele>
        <time>2015-03-01T08:50:23.000Z</time>
      </trkpt>
      <trkpt lat="47.47708" lon="6.7812">
        <ele>326</ele>
        <time>2015-03-01T08:50:24.000Z</time>
      </trkpt>
      <trkpt lat="47.47707" lon="6.78124">
        <ele>326</ele>
        <time>2015-03-01T08:50:25.000Z</time>
      </trkpt>
      <trkpt lat="47.47706" lon="6.7813">
        <ele>326</ele>
        <time>2015-03-01T08:50:27.000Z</time>
      </trkpt>
      <trkpt lat="47.47705" lon="6.78132">
        <ele>327</ele>
        <time>2015-03-01T08:50:28.000Z</time>
      </trkpt>
      <trkpt lat="47.47703" lon="6.78137">
        <ele>327</ele>
        <time>2015-03-01T08:50:30.000Z</time>
      </trkpt>
      <trkpt lat="47.47702" lon="6.7814">
        <ele>327</ele>
        <time>2015-03-01T08:50:31.000Z</time>
      </trkpt>
      <trkpt lat="47.47701" lon="6.78146">
        <ele>327</ele>
        <time>2015-03-01T08:50:33.000Z</time>
      </trkpt>
      <trkpt lat="47.477" lon="6.78148">
        <ele>327</ele>
        <time>2015-03-01T08:50:34.000Z</time>
      </trkpt>
      <trkpt lat="47.47698" lon="6.78153">
        <ele>328</ele>
        <time>2015-03-01T08:50:36.000Z</time>
      </trkpt>
      <trkpt lat="47.47697" lon="6.78155">
        <ele>328</ele>
        <time>2015-03-01T08:50:36.999Z</time>
      </trkpt>
      <trkpt lat="47.47694" lon="6.7816">
        <ele>328</ele>
        <time>2015-03-01T08:50:41.000Z</time>
      </trkpt>
      <trkpt lat="47.47694" lon="6.78162">
        <ele>328</ele>
        <time>2015-03-01T08:50:42.000Z</time>
      </trkpt>
      <trkpt lat="47.47693" lon="6.78167">
        <ele>332</ele>
        <time>2015-03-01T08:50:44.000Z</time>
      </trkpt>
      <trkpt lat="47.47692" lon="6.7817">
        <ele>332</ele>
        <time>2015-03-01T08:50:45.000Z</time>
      </trkpt>
      <trkpt lat="47.47691" lon="6.78176">
        <ele>332</ele>
        <time>2015-03-01T08:50:47.000Z</time>
      </trkpt>
      <trkpt lat="47.47691" lon="6.78178">
        <ele>332</ele>
        <time>2015-03-01T08:50:48.000Z</time>
      </trkpt>
      <trkpt lat="47.4769" lon="6.78184">
        <ele>332</ele>
        <time>2015-03-01T08:50:50.000Z</time>
      </trkpt>
      <trkpt lat="47.4769" lon="6.78186">
        <ele>332</ele>
        <time>2015-03-01T08:50:51.000Z</time>
      </trkpt>
      <trkpt lat="47.47689" lon="6.78193">
        <ele>332</ele>
        <time>2015-03-01T08:50:54.000Z</time>
      </trkpt>
      <trkpt lat="47.4769" lon="6.78195">
        <ele>332</ele>
        <time>2015-03-01T08:50:55.000Z</time>
      </trkpt>
      <trkpt lat="47.4769" lon="6.782">
        <ele>332</ele>
        <time>2015-03-01T08:50:57.000Z</time>
      </trkpt>
      <trkpt lat="47.4769" lon="6.78202">
        <ele>332</ele>
        <time>2015-03-01T08:50:58.000Z</time>
      </trkpt>
      <trkpt lat="47.4769" lon="6.78208">
        <ele>333</ele>
        <time>2015-03-01T08:51:00.000Z</time>
      </trkpt>
      <trkpt lat="47.4769" lon="6.7821">
        <ele>333</ele>
        <time>2015-03-01T08:51:01.000Z</time>
      </trkpt>
      <trkpt lat="47.47691" lon="6.78215">
        <ele>333</ele>
        <time>2015-03-01T08:51:03.000Z</time>
      </trkpt>
      <trkpt lat="47.47692" lon="6.78218">
        <ele>333</ele>
        <time>2015-03-01T08:51:04.000Z</time>
      </trkpt>
      <trkpt lat="47.47693" lon="6.78223">
        <ele>333</ele>
        <time>2015-03-01T08:51:06.000Z</time>
      </trkpt>
      <trkpt lat="47.47694" lon="6.78225">
        <ele>333</ele>
        <time>2015-03-01T08:51:07.000Z</time>
      </trkpt>
      <trkpt lat="47.47695" lon="6.78231">
        <ele>334</ele>
        <time>2015-03-01T08:51:09.000Z</time>
      </trkpt>
      <trkpt lat="47.47696" lon="6.78234">
        <ele>334</ele>
        <time>2015-03-01T08:51:10.000Z</time>
      </trkpt>
      <trkpt lat="47.47698" lon="6.78239">
        <ele>334</ele>
        <time>2015-03-01T08:51:12.000Z</time>
      </trkpt>
      <trkpt lat="47.47699" lon="6.78241">
        <ele>334</ele>
        <time>2015-03-01T08:51:13.000Z</time>
      </trkpt>
      <trkpt lat="47.47701" lon="6.78246">
        <ele>334</ele>
        <time>2015-03-01T08:51:15.000Z</time>
      </trkpt>
      <trkpt lat="47.47701" lon="6.78249">
        <ele>334</ele>
        <time>2015-03-01T08:51:16.000Z</time>
      </trkpt>
      <trkpt lat="47.47703" lon="6.78254">
        <ele>337</ele>
        <time>2015-03-01T08:51:18.000Z</time>
      </trkpt>
      <trkpt lat="47.47704" lon="6.78256">
        <ele>337</ele>
        <time>2015-03-01T08:51:19.000Z</time>
      </trkpt>
      <trkpt lat="47.47706" lon="6.78262">
        <ele>337</ele>
        <time>2015-03-01T08:51:22.000Z</time>
      </trkpt>
      <trkpt lat="47.47706" lon="6.78264">
        <ele>337</ele>
        <time>2015-03-01T08:51:23.000Z</time>
      </trkpt>
      <trkpt lat="47.47708" lon="6.78269">
        <ele>337</ele>
        <time>2015-03-01T08:51:25.000Z</time>
      </trkpt>
      <trkpt lat="47.47709" lon="6.78272">
        <ele>337</ele>
        <time>2015-03-01T08:51:26.000Z</time>
      </trkpt>
      <trkpt lat="47.4771" lon="6.78277">
        <ele>337</ele>
        <time>2015-03-01T08:51:27.999Z</time>
      </trkpt>
      <trkpt lat="47.4771" lon="6.7828">
        <ele>337</ele>
        <time>2015-03-01T08:51:29.000Z</time>
      </trkpt>
      <trkpt lat="47.47712" lon="6.78286">
        <ele>337</ele>
        <time>2015-03-01T08:51:31.000Z</time>
      </trkpt>
      <trkpt lat="47.47712" lon="6.78289">
        <ele>337</ele>
        <time>2015-03-01T08:51:32.000Z</time>
      </trkpt>
      <trkpt lat="47.47713" lon="6.78295">
        <ele>337</ele>
        <time>2015-03-01T08:51:34.000Z</time>
      </trkpt>
      <trkpt lat="47.47713" lon="6.78298">
        <ele>337</ele>
        <time>2015-03-01T08:51:35.000Z</time>
      </trkpt>
      <trkpt lat="47.47713" lon="6.78303">
        <ele>338</ele>
        <time>2015-03-01T08:51:37.000Z</time>
      </trkpt>
      <trkpt lat="47.47713" lon="6.78305">
        <ele>338</ele>
        <time>2015-03-01T08:51:38.000Z</time>
      </trkpt>
      <trkpt lat="47.47712" lon="6.78311">
        <ele>338</ele>
        <time>2015-03-01T08:51:41.000Z</time>
      </trkpt>
      <trkpt lat="47.47712" lon="6.78313">
        <ele>338</ele>
        <time>2015-03-01T08:51:42.000Z</time>
      </trkpt>
      <trkpt lat="47.47712" lon="6.7832">
        <ele>338</ele>
        <time>2015-03-01T08:51:44.000Z</time>
      </trkpt>
      <trkpt lat="47.47711" lon="6.78323">
        <ele>338</ele>
        <time>2015-03-01T08:51:45.000Z</time>
      </trkpt>
      <trkpt lat="47.47711" lon="6.78326">
        <ele>338</ele>
        <time>2015-03-01T08:51:46.000Z</time>
      </trkpt>
      <trkpt lat="47.4771" lon="6.7833">
        <ele>338</ele>
        <time>2015-03-01T08:51:47.000Z</time>
      </trkpt>
      <trkpt lat="47.47709" lon="6.78334">
        <ele>340</ele>
        <time>2015-03-01T08:51:48.000Z</time>
      </trkpt>
      <trkpt lat="47.47709" lon="6.78337">
        <ele>340</ele>
        <time>2015-03-01T08:51:49.000Z</time>
      </trkpt>
      <trkpt lat="47.47708" lon="6.78341">
        <ele>340</ele>
        <time>2015-03-01T08:51:50.000Z</time>
      </trkpt>
      <trkpt lat="47.47706" lon="6.78344">
        <ele>340</ele>
        <time>2015-03-01T08:51:51.000Z</time>
      </trkpt>
      <trkpt lat="47.47705" lon="6.78347">
        <ele>341</ele>
        <time>2015-03-01T08:51:52.000Z</time>
      </trkpt>
      <trkpt lat="47.47703" lon="6.7835">
        <ele>341</ele>
        <time>2015-03-01T08:51:53.000Z</time>
      </trkpt>
      <trkpt lat="47.47701" lon="6.78353">
        <ele>341</ele>
        <time>2015-03-01T08:51:54.000Z</time>
      </trkpt>
      <trkpt lat="47.477" lon="6.78357">
        <ele>341</ele>
        <time>2015-03-01T08:51:55.000Z</time>
      </trkpt>
      <trkpt lat="47.47698" lon="6.7836">
        <ele>341</ele>
        <time>2015-03-01T08:51:56.000Z</time>
      </trkpt>
      <trkpt lat="47.47696" lon="6.78364">
        <ele>341</ele>
        <time>2015-03-01T08:51:57.000Z</time>
      </trkpt>
      <trkpt lat="47.47693" lon="6.78368">
        <ele>341</ele>
        <time>2015-03-01T08:51:58.000Z</time>
      </trkpt>
      <trkpt lat="47.47691" lon="6.78371">
        <ele>341</ele>
        <time>2015-03-01T08:51:59.000Z</time>
      </trkpt>
      <trkpt lat="47.47689" lon="6.78375">
        <ele>341</ele>
        <time>2015-03-01T08:52:00.000Z</time>
      </trkpt>
      <trkpt lat="47.47687" lon="6.78378">
        <ele>341</ele>
        <time>2015-03-01T08:52:01.000Z</time>
      </trkpt>
      <trkpt lat="47.47685" lon="6.78381">
        <ele>341</ele>
        <time>2015-03-01T08:52:02.000Z</time>
      </trkpt>
      <trkpt lat="47.47683" lon="6.78384">
        <ele>341</ele>
        <time>2015-03-01T08:52:03.001Z</time>
      </trkpt>
      <trkpt lat="47.47682" lon="6.78387">
        <ele>341</ele>
        <time>2015-03-01T08:52:04.000Z</time>
      </trkpt>
      <trkpt lat="47.4768" lon="6.7839">
        <ele>341</ele>
        <time>2015-03-01T08:52:05.000Z</time>
      </trkpt>
      <trkpt lat="47.47678" lon="6.78393">
        <ele>341</ele>
        <time>2015-03-01T08:52:06.000Z</time>
      </trkpt>
      <trkpt lat="47.47677" lon="6.78395">
        <ele>341</ele>
        <time>2015-03-01T08:52:07.000Z</time>
      </trkpt>
      <trkpt lat="47.47675" lon="6.78398">
        <ele>341</ele>
        <time>2015-03-01T08:52:08.000Z</time>
      </trkpt>
      <trkpt lat="47.47673" lon="6.78401">
        <ele>341</ele>
        <time>2015-03-01T08:52:09.000Z</time>
      </trkpt>
      <trkpt lat="47.47672" lon="6.78404">
        <ele>341</ele>
        <time>2015-03-01T08:52:10.000Z</time>
      </trkpt>
      <trkpt lat="47.4767" lon="6.78407">
        <ele>341</ele>
        <time>2015-03-01T08:52:11.000Z</time>
      </trkpt>
      <trkpt lat="47.47669" lon="6.7841">
        <ele>341</ele>
        <time>2015-03-01T08:52:12.000Z</time>
      </trkpt>
      <trkpt lat="47.47666" lon="6.78414">
        <ele>342</ele>
        <time>2015-03-01T08:52:13.000Z</time>
      </trkpt>
      <trkpt lat="47.47662" lon="6.78418">
        <ele>342</ele>
        <time>2015-03-01T08:52:14.000Z</time>
      </trkpt>
      <trkpt lat="47.47661" lon="6.78421">
        <ele>342</ele>
        <time>2015-03-01T08:52:15.000Z</time>
      </trkpt>
      <trkpt lat="47.47656" lon="6.78423">
        <ele>343</ele>
        <time>2015-03-01T08:52:20.000Z</time>
      </trkpt>
      <trkpt lat="47.47656" lon="6.78422">
        <ele>343</ele>
        <time>2015-03-01T08:52:21.000Z</time>
      </trkpt>
      <trkpt lat="47.47652" lon="6.78423">
        <ele>344</ele>
        <time>2015-03-01T08:52:29.000Z</time>
      </trkpt>
      <trkpt lat="47.47651" lon="6.78422">
        <ele>344</ele>
        <time>2015-03-01T08:52:30.000Z</time>
      </trkpt>
      <trkpt lat="47.47652" lon="6.78416">
        <ele>344</ele>
        <time>2015-03-01T08:52:42.000Z</time>
      </trkpt>
      <trkpt lat="47.47653" lon="6.78415">
        <ele>344</ele>
        <time>2015-03-01T08:52:43.000Z</time>
      </trkpt>
      <trkpt lat="47.47649" lon="6.78413">
        <ele>344</ele>
        <time>2015-03-01T08:53:03.000Z</time>
      </trkpt>
      <trkpt lat="47.47648" lon="6.78412">
        <ele>344</ele>
        <time>2015-03-01T08:53:04.000Z</time>
      </trkpt>
      <trkpt lat="47.47645" lon="6.7841">
        <ele>345</ele>
        <time>2015-03-01T08:53:07.000Z</time>
      </trkpt>
      <trkpt lat="47.47644" lon="6.78409">
        <ele>345</ele>
        <time>2015-03-01T08:53:08.000Z</time>
      </trkpt>
      <trkpt lat="47.4764" lon="6.78406">
        <ele>345</ele>
        <time>2015-03-01T08:53:12.000Z</time>
      </trkpt>
      <trkpt lat="47.47639" lon="6.78406">
        <ele>346</ele>
        <time>2015-03-01T08:53:13.000Z</time>
      </trkpt>
      <trkpt lat="47.47635" lon="6.78401">
        <ele>346</ele>
        <time>2015-03-01T08:53:26.000Z</time>
      </trkpt>
      <trkpt lat="47.47636" lon="6.78401">
        <ele>346</ele>
        <time>2015-03-01T08:53:27.000Z</time>
      </trkpt>
      <trkpt lat="47.47633" lon="6.78398">
        <ele>346</ele>
        <time>2015-03-01T08:53:31.000Z</time>
      </trkpt>
      <trkpt lat="47.47632" lon="6.78396">
        <ele>346</ele>
        <time>2015-03-01T08:53:32.000Z</time>
      </trkpt>
      <trkpt lat="47.4763" lon="6.78392">
        <ele>347</ele>
        <time>2015-03-01T08:53:34.000Z</time>
      </trkpt>
      <trkpt lat="47.47629" lon="6.78389">
        <ele>347</ele>
        <time>2015-03-01T08:53:35.000Z</time>
      </trkpt>
      <trkpt lat="47.47627" lon="6.78385">
        <ele>347</ele>
        <time>2015-03-01T08:53:36.000Z</time>
      </trkpt>
      <trkpt lat="47.47626" lon="6.78382">
        <ele>347</ele>
        <time>2015-03-01T08:53:37.000Z</time>
      </trkpt>
      <trkpt lat="47.47624" lon="6.78379">
        <ele>347</ele>
        <time>2015-03-01T08:53:38.000Z</time>
      </trkpt>
      <trkpt lat="47.47622" lon="6.78376">
        <ele>347</ele>
        <time>2015-03-01T08:53:39.000Z</time>
      </trkpt>
      <trkpt lat="47.47619" lon="6.78371">
        <ele>347</ele>
        <time>2015-03-01T08:53:41.000Z</time>
      </trkpt>
      <trkpt lat="47.47618" lon="6.78369">
        <ele>347</ele>
        <time>2015-03-01T08:53:42.000Z</time>
      </trkpt>
      <trkpt lat="47.47616" lon="6.78366">
        <ele>348</ele>
        <time>2015-03-01T08:53:43.000Z</time>
      </trkpt>
      <trkpt lat="47.47615" lon="6.78363">
        <ele>348</ele>
        <time>2015-03-01T08:53:44.000Z</time>
      </trkpt>
      <trkpt lat="47.47612" lon="6.78359">
        <ele>348</ele>
        <time>2015-03-01T08:53:46.000Z</time>
      </trkpt>
      <trkpt lat="47.4761" lon="6.78357">
        <ele>348</ele>
        <time>2015-03-01T08:53:47.000Z</time>
      </trkpt>
      <trkpt lat="47.47608" lon="6.78352">
        <ele>348</ele>
        <time>2015-03-01T08:53:49.000Z</time>
      </trkpt>
      <trkpt lat="47.47607" lon="6.78348">
        <ele>348</ele>
        <time>2015-03-01T08:53:50.000Z</time>
      </trkpt>
      <trkpt lat="47.47605" lon="6.78345">
        <ele>348</ele>
        <time>2015-03-01T08:53:51.000Z</time>
      </trkpt>
      <trkpt lat="47.47603" lon="6.78342">
        <ele>349</ele>
        <time>2015-03-01T08:53:52.000Z</time>
      </trkpt>
      <trkpt lat="47.47601" lon="6.78338">
        <ele>349</ele>
        <time>2015-03-01T08:53:53.000Z</time>
      </trkpt>
      <trkpt lat="47.47599" lon="6.78335">
        <ele>349</ele>
        <time>2015-03-01T08:53:54.000Z</time>
      </trkpt>
      <trkpt lat="47.47598" lon="6.78332">
        <ele>349</ele>
        <time>2015-03-01T08:53:55.000Z</time>
      </trkpt>
      <trkpt lat="47.47596" lon="6.78329">
        <ele>349</ele>
        <time>2015-03-01T08:53:56.000Z</time>
      </trkpt>
      <trkpt lat="47.47594" lon="6.78325">
        <ele>349</ele>
        <time>2015-03-01T08:53:57.000Z</time>
      </trkpt>
      <trkpt lat="47.47592" lon="6.78322">
        <ele>349</ele>
        <time>2015-03-01T08:53:58.000Z</time>
      </trkpt>
      <trkpt lat="47.47591" lon="6.78319">
        <ele>348</ele>
        <time>2015-03-01T08:53:59.000Z</time>
      </trkpt>
      <trkpt lat="47.47589" lon="6.78316">
        <ele>348</ele>
        <time>2015-03-01T08:54:00.000Z</time>
      </trkpt>
      <trkpt lat="47.47588" lon="6.78313">
        <ele>348</ele>
        <time>2015-03-01T08:54:01.000Z</time>
      </trkpt>
      <trkpt lat="47.47587" lon="6.7831">
        <ele>348</ele>
        <time>2015-03-01T08:54:02.000Z</time>
      </trkpt>
      <trkpt lat="47.47585" lon="6.78307">
        <ele>347</ele>
        <time>2015-03-01T08:54:03.000Z</time>
      </trkpt>
      <trkpt lat="47.47583" lon="6.78304">
        <ele>352</ele>
        <time>2015-03-01T08:54:04.000Z</time>
      </trkpt>
      <trkpt lat="47.47581" lon="6.78301">
        <ele>352</ele>
        <time>2015-03-01T08:54:05.000Z</time>
      </trkpt>
      <trkpt lat="47.47578" lon="6.78297">
        <ele>352</ele>
        <time>2015-03-01T08:54:06.000Z</time>
      </trkpt>
      <trkpt lat="47.47576" lon="6.78294">
        <ele>352</ele>
        <time>2015-03-01T08:54:07.000Z</time>
      </trkpt>
      <trkpt lat="47.47574" lon="6.78292">
        <ele>351</ele>
        <time>2015-03-01T08:54:08.000Z</time>
      </trkpt>
      <trkpt lat="47.47573" lon="6.78289">
        <ele>351</ele>
        <time>2015-03-01T08:54:09.000Z</time>
      </trkpt>
      <trkpt lat="47.4757" lon="6.78287">
        <ele>351</ele>
        <time>2015-03-01T08:54:10.000Z</time>
      </trkpt>
      <trkpt lat="47.47568" lon="6.78283">
        <ele>351</ele>
        <time>2015-03-01T08:54:11.000Z</time>
      </trkpt>
      <trkpt lat="47.47566" lon="6.78279">
        <ele>351</ele>
        <time>2015-03-01T08:54:12.000Z</time>
      </trkpt>
      <trkpt lat="47.47563" lon="6.78275">
        <ele>351</ele>
        <time>2015-03-01T08:54:12.999Z</time>
      </trkpt>
      <trkpt lat="47.4756" lon="6.78271">
        <ele>351</ele>
        <time>2015-03-01T08:54:14.000Z</time>
      </trkpt>
      <trkpt lat="47.47557" lon="6.78267">
        <ele>351</ele>
        <time>2015-03-01T08:54:15.000Z</time>
      </trkpt>
      <trkpt lat="47.4755" lon="6.78259">
        <ele>351</ele>
        <time>2015-03-01T08:54:16.000Z</time>
      </trkpt>
      <trkpt lat="47.47547" lon="6.78254">
        <ele>352</ele>
        <time>2015-03-01T08:54:17.000Z</time>
      </trkpt>
      <trkpt lat="47.47545" lon="6.7825">
        <ele>349</ele>
        <time>2015-03-01T08:54:18.000Z</time>
      </trkpt>
      <trkpt lat="47.47542" lon="6.78245">
        <ele>349</ele>
        <time>2015-03-01T08:54:19.000Z</time>
      </trkpt>
      <trkpt lat="47.47539" lon="6.78241">
        <ele>349</ele>
        <time>2015-03-01T08:54:20.000Z</time>
      </trkpt>
      <trkpt lat="47.47536" lon="6.78237">
        <ele>349</ele>
        <time>2015-03-01T08:54:21.000Z</time>
      </trkpt>
      <trkpt lat="47.47534" lon="6.78233">
        <ele>349</ele>
        <time>2015-03-01T08:54:22.000Z</time>
      </trkpt>
      <trkpt lat="47.47532" lon="6.78228">
        <ele>349</ele>
        <time>2015-03-01T08:54:23.000Z</time>
      </trkpt>
      <trkpt lat="47.47529" lon="6.78224">
        <ele>349</ele>
        <time>2015-03-01T08:54:24.000Z</time>
      </trkpt>
      <trkpt lat="47.47526" lon="6.78219">
        <ele>349</ele>
        <time>2015-03-01T08:54:25.000Z</time>
      </trkpt>
      <trkpt lat="47.47524" lon="6.78215">
        <ele>349</ele>
        <time>2015-03-01T08:54:26.000Z</time>
      </trkpt>
      <trkpt lat="47.47521" lon="6.78211">
        <ele>349</ele>
        <time>2015-03-01T08:54:27.000Z</time>
      </trkpt>
      <trkpt lat="47.47518" lon="6.78207">
        <ele>349</ele>
        <time>2015-03-01T08:54:28.000Z</time>
      </trkpt>
      <trkpt lat="47.47516" lon="6.78203">
        <ele>349</ele>
        <time>2015-03-01T08:54:29.000Z</time>
      </trkpt>
      <trkpt lat="47.47513" lon="6.78199">
        <ele>349</ele>
        <time>2015-03-01T08:54:30.000Z</time>
      </trkpt>
      <trkpt lat="47.4751" lon="6.78195">
        <ele>349</ele>
        <time>2015-03-01T08:54:31.000Z</time>
      </trkpt>
      <trkpt lat="47.47507" lon="6.7819">
        <ele>349</ele>
        <time>2015-03-01T08:54:32.000Z</time>
      </trkpt>
      <trkpt lat="47.47504" lon="6.78185">
        <ele>349</ele>
        <time>2015-03-01T08:54:33.000Z</time>
      </trkpt>
      <trkpt lat="47.47501" lon="6.7818">
        <ele>349</ele>
        <time>2015-03-01T08:54:34.000Z</time>
      </trkpt>
      <trkpt lat="47.47498" lon="6.78176">
        <ele>350</ele>
        <time>2015-03-01T08:54:35.000Z</time>
      </trkpt>
      <trkpt lat="47.47495" lon="6.78171">
        <ele>350</ele>
        <time>2015-03-01T08:54:36.000Z</time>
      </trkpt>
      <trkpt lat="47.47492" lon="6.78166">
        <ele>349</ele>
        <time>2015-03-01T08:54:37.000Z</time>
      </trkpt>
      <trkpt lat="47.4749" lon="6.78162">
        <ele>349</ele>
        <time>2015-03-01T08:54:37.999Z</time>
      </trkpt>
      <trkpt lat="47.47487" lon="6.78157">
        <ele>348</ele>
        <time>2015-03-01T08:54:39.000Z</time>
      </trkpt>
      <trkpt lat="47.47484" lon="6.78153">
        <ele>348</ele>
        <time>2015-03-01T08:54:40.000Z</time>
      </trkpt>
      <trkpt lat="47.47481" lon="6.78148">
        <ele>348</ele>
        <time>2015-03-01T08:54:41.000Z</time>
      </trkpt>
      <trkpt lat="47.47478" lon="6.78144">
        <ele>348</ele>
        <time>2015-03-01T08:54:42.000Z</time>
      </trkpt>
      <trkpt lat="47.47475" lon="6.7814">
        <ele>348</ele>
        <time>2015-03-01T08:54:43.000Z</time>
      </trkpt>
      <trkpt lat="47.47472" lon="6.78135">
        <ele>348</ele>
        <time>2015-03-01T08:54:44.000Z</time>
      </trkpt>
      <trkpt lat="47.4747" lon="6.78131">
        <ele>348</ele>
        <time>2015-03-01T08:54:45.000Z</time>
      </trkpt>
      <trkpt lat="47.47467" lon="6.78126">
        <ele>348</ele>
        <time>2015-03-01T08:54:46.000Z</time>
      </trkpt>
      <trkpt lat="47.47464" lon="6.7812">
        <ele>347</ele>
        <time>2015-03-01T08:54:47.000Z</time>
      </trkpt>
      <trkpt lat="47.4746" lon="6.78116">
        <ele>347</ele>
        <time>2015-03-01T08:54:47.999Z</time>
      </trkpt>
      <trkpt lat="47.47458" lon="6.78111">
        <ele>347</ele>
        <time>2015-03-01T08:54:49.000Z</time>
      </trkpt>
      <trkpt lat="47.47455" lon="6.78106">
        <ele>347</ele>
        <time>2015-03-01T08:54:50.000Z</time>
      </trkpt>
      <trkpt lat="47.47453" lon="6.78102">
        <ele>347</ele>
        <time>2015-03-01T08:54:51.000Z</time>
      </trkpt>
      <trkpt lat="47.47449" lon="6.78097">
        <ele>347</ele>
        <time>2015-03-01T08:54:52.000Z</time>
      </trkpt>
      <trkpt lat="47.47446" lon="6.78092">
        <ele>347</ele>
        <time>2015-03-01T08:54:53.000Z</time>
      </trkpt>
      <trkpt lat="47.47441" lon="6.78088">
        <ele>347</ele>
        <time>2015-03-01T08:54:54.000Z</time>
      </trkpt>
      <trkpt lat="47.47438" lon="6.78084">
        <ele>347</ele>
        <time>2015-03-01T08:54:55.000Z</time>
      </trkpt>
      <trkpt lat="47.47435" lon="6.78079">
        <ele>344</ele>
        <time>2015-03-01T08:54:56.000Z</time>
      </trkpt>
      <trkpt lat="47.47432" lon="6.78074">
        <ele>344</ele>
        <time>2015-03-01T08:54:57.000Z</time>
      </trkpt>
      <trkpt lat="47.47428" lon="6.78069">
        <ele>344</ele>
        <time>2015-03-01T08:54:57.999Z</time>
      </trkpt>
      <trkpt lat="47.47426" lon="6.78064">
        <ele>343</ele>
        <time>2015-03-01T08:54:59.000Z</time>
      </trkpt>
      <trkpt lat="47.47422" lon="6.7806">
        <ele>343</ele>
        <time>2015-03-01T08:55:00.000Z</time>
      </trkpt>
      <trkpt lat="47.47419" lon="6.78056">
        <ele>343</ele>
        <time>2015-03-01T08:55:01.000Z</time>
      </trkpt>
      <trkpt lat="47.47416" lon="6.78052">
        <ele>345</ele>
        <time>2015-03-01T08:55:02.000Z</time>
      </trkpt>
      <trkpt lat="47.47412" lon="6.78048">
        <ele>345</ele>
        <time>2015-03-01T08:55:03.000Z</time>
      </trkpt>
      <trkpt lat="47.47408" lon="6.78045">
        <ele>345</ele>
        <time>2015-03-01T08:55:04.000Z</time>
      </trkpt>
      <trkpt lat="47.47403" lon="6.78041">
        <ele>345</ele>
        <time>2015-03-01T08:55:05.000Z</time>
      </trkpt>
      <trkpt lat="47.474" lon="6.78037">
        <ele>345</ele>
        <time>2015-03-01T08:55:06.000Z</time>
      </trkpt>
      <trkpt lat="47.47397" lon="6.78033">
        <ele>344</ele>
        <time>2015-03-01T08:55:07.000Z</time>
      </trkpt>
      <trkpt lat="47.47394" lon="6.78028">
        <ele>344</ele>
        <time>2015-03-01T08:55:08.000Z</time>
      </trkpt>
      <trkpt lat="47.47391" lon="6.78022">
        <ele>344</ele>
        <time>2015-03-01T08:55:09.000Z</time>
      </trkpt>
      <trkpt lat="47.4739" lon="6.78015">
        <ele>344</ele>
        <time>2015-03-01T08:55:10.000Z</time>
      </trkpt>
      <trkpt lat="47.47389" lon="6.78009">
        <ele>344</ele>
        <time>2015-03-01T08:55:11.000Z</time>
      </trkpt>
      <trkpt lat="47.47387" lon="6.78003">
        <ele>344</ele>
        <time>2015-03-01T08:55:12.000Z</time>
      </trkpt>
      <trkpt lat="47.47386" lon="6.77997">
        <ele>341</ele>
        <time>2015-03-01T08:55:13.000Z</time>
      </trkpt>
      <trkpt lat="47.47383" lon="6.77995">
        <ele>341</ele>
        <time>2015-03-01T08:55:14.000Z</time>
      </trkpt>
      <trkpt lat="47.47379" lon="6.77995">
        <ele>341</ele>
        <time>2015-03-01T08:55:15.000Z</time>
      </trkpt>
      <trkpt lat="47.47376" lon="6.77996">
        <ele>341</ele>
        <time>2015-03-01T08:55:16.000Z</time>
      </trkpt>
      <trkpt lat="47.47375" lon="6.77999">
        <ele>341</ele>
        <time>2015-03-01T08:55:17.000Z</time>
      </trkpt>
      <trkpt lat="47.47373" lon="6.78003">
        <ele>344</ele>
        <time>2015-03-01T08:55:18.000Z</time>
      </trkpt>
      <trkpt lat="47.4737" lon="6.78006">
        <ele>344</ele>
        <time>2015-03-01T08:55:19.000Z</time>
      </trkpt>
      <trkpt lat="47.47368" lon="6.7801">
        <ele>344</ele>
        <time>2015-03-01T08:55:20.000Z</time>
      </trkpt>
      <trkpt lat="47.47366" lon="6.78014">
        <ele>344</ele>
        <time>2015-03-01T08:55:21.000Z</time>
      </trkpt>
      <trkpt lat="47.47364" lon="6.78018">
        <ele>345</ele>
        <time>2015-03-01T08:55:22.000Z</time>
      </trkpt>
      <trkpt lat="47.47362" lon="6.78021">
        <ele>345</ele>
        <time>2015-03-01T08:55:23.000Z</time>
      </trkpt>
      <trkpt lat="47.4736" lon="6.78024">
        <ele>345</ele>
        <time>2015-03-01T08:55:24.000Z</time>
      </trkpt>
      <trkpt lat="47.47359" lon="6.78027">
        <ele>345</ele>
        <time>2015-03-01T08:55:25.000Z</time>
      </trkpt>
      <trkpt lat="47.47358" lon="6.7803">
        <ele>345</ele>
        <time>2015-03-01T08:55:26.000Z</time>
      </trkpt>
      <trkpt lat="47.47358" lon="6.78034">
        <ele>345</ele>
        <time>2015-03-01T08:55:27.000Z</time>
      </trkpt>
      <trkpt lat="47.47357" lon="6.78037">
        <ele>345</ele>
        <time>2015-03-01T08:55:28.000Z</time>
      </trkpt>
      <trkpt lat="47.47357" lon="6.78041">
        <ele>345</ele>
        <time>2015-03-01T08:55:29.000Z</time>
      </trkpt>
      <trkpt lat="47.47356" lon="6.78044">
        <ele>345</ele>
        <time>2015-03-01T08:55:30.000Z</time>
      </trkpt>
      <trkpt lat="47.47355" lon="6.78047">
        <ele>345</ele>
        <time>2015-03-01T08:55:31.000Z</time>
      </trkpt>
      <trkpt lat="47.47354" lon="6.78051">
        <ele>346</ele>
        <time>2015-03-01T08:55:32.000Z</time>
      </trkpt>
      <trkpt lat="47.47354" lon="6.78054">
        <ele>346</ele>
        <time>2015-03-01T08:55:33.000Z</time>
      </trkpt>
      <trkpt lat="47.47353" lon="6.78057">
        <ele>346</ele>
        <time>2015-03-01T08:55:34.000Z</time>
      </trkpt>
      <trkpt lat="47.47352" lon="6.78061">
        <ele>346</ele>
        <time>2015-03-01T08:55:35.000Z</time>
      </trkpt>
      <trkpt lat="47.47351" lon="6.78065">
        <ele>346</ele>
        <time>2015-03-01T08:55:36.000Z</time>
      </trkpt>
      <trkpt lat="47.47349" lon="6.78069">
        <ele>346</ele>
        <time>2015-03-01T08:55:37.000Z</time>
      </trkpt>
      <trkpt lat="47.47348" lon="6.78072">
        <ele>346</ele>
        <time>2015-03-01T08:55:38.000Z</time>
      </trkpt>
      <trkpt lat="47.47348" lon="6.78076">
        <ele>347</ele>
        <time>2015-03-01T08:55:39.000Z</time>
      </trkpt>
      <trkpt lat="47.47347" lon="6.78079">
        <ele>347</ele>
        <time>2015-03-01T08:55:40.000Z</time>
      </trkpt>
      <trkpt lat="47.47346" lon="6.78082">
        <ele>347</ele>
        <time>2015-03-01T08:55:41.000Z</time>
      </trkpt>
      <trkpt lat="47.47345" lon="6.78085">
        <ele>349</ele>
        <time>2015-03-01T08:55:42.000Z</time>
      </trkpt>
      <trkpt lat="47.47345" lon="6.78088">
        <ele>349</ele>
        <time>2015-03-01T08:55:43.000Z</time>
      </trkpt>
      <trkpt lat="47.47344" lon="6.78092">
        <ele>349</ele>
        <time>2015-03-01T08:55:44.000Z</time>
      </trkpt>
      <trkpt lat="47.47343" lon="6.78095">
        <ele>349</ele>
        <time>2015-03-01T08:55:45.000Z</time>
      </trkpt>
      <trkpt lat="47.47342" lon="6.78099">
        <ele>349</ele>
        <time>2015-03-01T08:55:46.000Z</time>
      </trkpt>
      <trkpt lat="47.47341" lon="6.78103">
        <ele>349</ele>
        <time>2015-03-01T08:55:47.000Z</time>
      </trkpt>
      <trkpt lat="47.4734" lon="6.78106">
        <ele>349</ele>
        <time>2015-03-01T08:55:48.000Z</time>
      </trkpt>
      <trkpt lat="47.47338" lon="6.78111">
        <ele>350</ele>
        <time>2015-03-01T08:55:50.000Z</time>
      </trkpt>
      <trkpt lat="47.47338" lon="6.78114">
        <ele>350</ele>
        <time>2015-03-01T08:55:51.000Z</time>
      </trkpt>
      <trkpt lat="47.47336" lon="6.78119">
        <ele>350</ele>
        <time>2015-03-01T08:55:54.000Z</time>
      </trkpt>
      <trkpt lat="47.47335" lon="6.78121">
        <ele>350</ele>
        <time>2015-03-01T08:55:55.000Z</time>
      </trkpt>
      <trkpt lat="47.47334" lon="6.78124">
        <ele>350</ele>
        <time>2015-03-01T08:55:56.000Z</time>
      </trkpt>
      <trkpt lat="47.47333" lon="6.78128">
        <ele>352</ele>
        <time>2015-03-01T08:55:57.000Z</time>
      </trkpt>
      <trkpt lat="47.47332" lon="6.78132">
        <ele>352</ele>
        <time>2015-03-01T08:55:58.000Z</time>
      </trkpt>
      <trkpt lat="47.47331" lon="6.78135">
        <ele>352</ele>
        <time>2015-03-01T08:55:59.000Z</time>
      </trkpt>
      <trkpt lat="47.47329" lon="6.78139">
        <ele>352</ele>
        <time>2015-03-01T08:56:00.000Z</time>
      </trkpt>
      <trkpt lat="47.47328" lon="6.78142">
        <ele>352</ele>
        <time>2015-03-01T08:56:01.000Z</time>
      </trkpt>
      <trkpt lat="47.47327" lon="6.78146">
        <ele>352</ele>
        <time>2015-03-01T08:56:02.000Z</time>
      </trkpt>
      <trkpt lat="47.47326" lon="6.78149">
        <ele>352</ele>
        <time>2015-03-01T08:56:03.000Z</time>
      </trkpt>
      <trkpt lat="47.47325" lon="6.78153">
        <ele>353</ele>
        <time>2015-03-01T08:56:04.000Z</time>
      </trkpt>
      <trkpt lat="47.47324" lon="6.78156">
        <ele>353</ele>
        <time>2015-03-01T08:56:05.000Z</time>
      </trkpt>
      <trkpt lat="47.47323" lon="6.78159">
        <ele>353</ele>
        <time>2015-03-01T08:56:06.000Z</time>
      </trkpt>
      <trkpt lat="47.47322" lon="6.78163">
        <ele>353</ele>
        <time>2015-03-01T08:56:07.000Z</time>
      </trkpt>
      <trkpt lat="47.47321" lon="6.78166">
        <ele>353</ele>
        <time>2015-03-01T08:56:08.000Z</time>
      </trkpt>
      <trkpt lat="47.47319" lon="6.78169">
        <ele>354</ele>
        <time>2015-03-01T08:56:09.000Z</time>
      </trkpt>
      <trkpt lat="47.47318" lon="6.78172">
        <ele>354</ele>
        <time>2015-03-01T08:56:10.000Z</time>
      </trkpt>
      <trkpt lat="47.47317" lon="6.78175">
        <ele>354</ele>
        <time>2015-03-01T08:56:11.000Z</time>
      </trkpt>
      <trkpt lat="47.47316" lon="6.78179">
        <ele>355</ele>
        <time>2015-03-01T08:56:12.000Z</time>
      </trkpt>
      <trkpt lat="47.47315" lon="6.78183">
        <ele>355</ele>
        <time>2015-03-01T08:56:13.000Z</time>
      </trkpt>
      <trkpt lat="47.47314" lon="6.78186">
        <ele>355</ele>
        <time>2015-03-01T08:56:14.000Z</time>
      </trkpt>
      <trkpt lat="47.47313" lon="6.7819">
        <ele>355</ele>
        <time>2015-03-01T08:56:15.000Z</time>
      </trkpt>
      <trkpt lat="47.47311" lon="6.78195">
        <ele>355</ele>
        <time>2015-03-01T08:56:17.000Z</time>
      </trkpt>
      <trkpt lat="47.4731" lon="6.78199">
        <ele>355</ele>
        <time>2015-03-01T08:56:18.000Z</time>
      </trkpt>
      <trkpt lat="47.47309" lon="6.78202">
        <ele>355</ele>
        <time>2015-03-01T08:56:19.000Z</time>
      </trkpt>
      <trkpt lat="47.47308" lon="6.78206">
        <ele>355</ele>
        <time>2015-03-01T08:56:20.000Z</time>
      </trkpt>
      <trkpt lat="47.47307" lon="6.78209">
        <ele>356</ele>
        <time>2015-03-01T08:56:21.000Z</time>
      </trkpt>
      <trkpt lat="47.47306" lon="6.78212">
        <ele>356</ele>
        <time>2015-03-01T08:56:22.000Z</time>
      </trkpt>
      <trkpt lat="47.47305" lon="6.78216">
        <ele>356</ele>
        <time>2015-03-01T08:56:23.000Z</time>
      </trkpt>
      <trkpt lat="47.47304" lon="6.7822">
        <ele>356</ele>
        <time>2015-03-01T08:56:24.000Z</time>
      </trkpt>
      <trkpt lat="47.47303" lon="6.78225">
        <ele>356</ele>
        <time>2015-03-01T08:56:25.000Z</time>
      </trkpt>
      <trkpt lat="47.47302" lon="6.7823">
        <ele>356</ele>
        <time>2015-03-01T08:56:26.000Z</time>
      </trkpt>
      <trkpt lat="47.47301" lon="6.78235">
        <ele>356</ele>
        <time>2015-03-01T08:56:27.000Z</time>
      </trkpt>
      <trkpt lat="47.47301" lon="6.7824">
        <ele>356</ele>
        <time>2015-03-01T08:56:28.000Z</time>
      </trkpt>
      <trkpt lat="47.47301" lon="6.78244">
        <ele>356</ele>
        <time>2015-03-01T08:56:29.000Z</time>
      </trkpt>
      <trkpt lat="47.473" lon="6.78249">
        <ele>356</ele>
        <time>2015-03-01T08:56:30.000Z</time>
      </trkpt>
      <trkpt lat="47.47299" lon="6.78253">
        <ele>358</ele>
        <time>2015-03-01T08:56:31.000Z</time>
      </trkpt>
      <trkpt lat="47.47298" lon="6.78257">
        <ele>358</ele>
        <time>2015-03-01T08:56:32.000Z</time>
      </trkpt>
      <trkpt lat="47.47296" lon="6.78261">
        <ele>358</ele>
        <time>2015-03-01T08:56:33.000Z</time>
      </trkpt>
      <trkpt lat="47.47294" lon="6.78265">
        <ele>358</ele>
        <time>2015-03-01T08:56:34.000Z</time>
      </trkpt>
      <trkpt lat="47.47293" lon="6.78268">
        <ele>358</ele>
        <time>2015-03-01T08:56:35.000Z</time>
      </trkpt>
      <trkpt lat="47.47292" lon="6.78271">
        <ele>358</ele>
        <time>2015-03-01T08:56:36.000Z</time>
      </trkpt>
      <trkpt lat="47.4729" lon="6.78277">
        <ele>358</ele>
        <time>2015-03-01T08:56:38.000Z</time>
      </trkpt>
      <trkpt lat="47.47289" lon="6.7828">
        <ele>358</ele>
        <time>2015-03-01T08:56:39.000Z</time>
      </trkpt>
      <trkpt lat="47.47288" lon="6.78283">
        <ele>358</ele>
        <time>2015-03-01T08:56:40.000Z</time>
      </trkpt>
      <trkpt lat="47.47288" lon="6.78286">
        <ele>358</ele>
        <time>2015-03-01T08:56:41.000Z</time>
      </trkpt>
      <trkpt lat="47.47286" lon="6.78292">
        <ele>358</ele>
        <time>2015-03-01T08:56:43.000Z</time>
      </trkpt>
      <trkpt lat="47.47285" lon="6.78295">
        <ele>358</ele>
        <time>2015-03-01T08:56:44.000Z</time>
      </trkpt>
      <trkpt lat="47.47284" lon="6.78301">
        <ele>358</ele>
        <time>2015-03-01T08:56:46.000Z</time>
      </trkpt>
      <trkpt lat="47.47283" lon="6.78303">
        <ele>358</ele>
        <time>2015-03-01T08:56:47.000Z</time>
      </trkpt>
      <trkpt lat="47.4728" lon="6.78307">
        <ele>358</ele>
        <time>2015-03-01T08:56:49.000Z</time>
      </trkpt>
      <trkpt lat="47.47279" lon="6.78308">
        <ele>358</ele>
        <time>2015-03-01T08:56:50.000Z</time>
      </trkpt>
      <trkpt lat="47.47279" lon="6.78315">
        <ele>358</ele>
        <time>2015-03-01T08:56:53.000Z</time>
      </trkpt>
      <trkpt lat="47.47279" lon="6.78317">
        <ele>358</ele>
        <time>2015-03-01T08:56:54.000Z</time>
      </trkpt>
      <trkpt lat="47.47279" lon="6.78324">
        <ele>358</ele>
        <time>2015-03-01T08:56:56.000Z</time>
      </trkpt>
      <trkpt lat="47.47278" lon="6.78327">
        <ele>358</ele>
        <time>2015-03-01T08:56:57.000Z</time>
      </trkpt>
      <trkpt lat="47.47278" lon="6.78331">
        <ele>358</ele>
        <time>2015-03-01T08:56:58.000Z</time>
      </trkpt>
      <trkpt lat="47.47278" lon="6.78335">
        <ele>360</ele>
        <time>2015-03-01T08:56:59.000Z</time>
      </trkpt>
      <trkpt lat="47.47277" lon="6.78339">
        <ele>360</ele>
        <time>2015-03-01T08:57:00.000Z</time>
      </trkpt>
      <trkpt lat="47.47276" lon="6.78343">
        <ele>360</ele>
        <time>2015-03-01T08:57:01.000Z</time>
      </trkpt>
      <trkpt lat="47.47275" lon="6.78346">
        <ele>360</ele>
        <time>2015-03-01T08:57:02.000Z</time>
      </trkpt>
      <trkpt lat="47.47273" lon="6.7835">
        <ele>360</ele>
        <time>2015-03-01T08:57:03.000Z</time>
      </trkpt>
      <trkpt lat="47.47272" lon="6.78354">
        <ele>360</ele>
        <time>2015-03-01T08:57:04.000Z</time>
      </trkpt>
      <trkpt lat="47.4727" lon="6.78357">
        <ele>360</ele>
        <time>2015-03-01T08:57:05.000Z</time>
      </trkpt>
      <trkpt lat="47.47269" lon="6.7836">
        <ele>360</ele>
        <time>2015-03-01T08:57:06.000Z</time>
      </trkpt>
      <trkpt lat="47.47268" lon="6.78363">
        <ele>360</ele>
        <time>2015-03-01T08:57:07.000Z</time>
      </trkpt>
      <trkpt lat="47.47266" lon="6.78369">
        <ele>360</ele>
        <time>2015-03-01T08:57:09.000Z</time>
      </trkpt>
      <trkpt lat="47.47265" lon="6.78371">
        <ele>360</ele>
        <time>2015-03-01T08:57:10.000Z</time>
      </trkpt>
      <trkpt lat="47.47263" lon="6.78376">
        <ele>360</ele>
        <time>2015-03-01T08:57:13.000Z</time>
      </trkpt>
      <trkpt lat="47.47263" lon="6.78377">
        <ele>360</ele>
        <time>2015-03-01T08:57:14.000Z</time>
      </trkpt>
      <trkpt lat="47.47263" lon="6.78382">
        <ele>360</ele>
        <time>2015-03-01T08:57:16.000Z</time>
      </trkpt>
      <trkpt lat="47.47262" lon="6.78385">
        <ele>360</ele>
        <time>2015-03-01T08:57:17.000Z</time>
      </trkpt>
      <trkpt lat="47.47261" lon="6.78391">
        <ele>360</ele>
        <time>2015-03-01T08:57:19.000Z</time>
      </trkpt>
      <trkpt lat="47.4726" lon="6.78394">
        <ele>360</ele>
        <time>2015-03-01T08:57:20.000Z</time>
      </trkpt>
      <trkpt lat="47.47258" lon="6.78399">
        <ele>360</ele>
        <time>2015-03-01T08:57:22.000Z</time>
      </trkpt>
      <trkpt lat="47.47258" lon="6.78401">
        <ele>360</ele>
        <time>2015-03-01T08:57:23.000Z</time>
      </trkpt>
      <trkpt lat="47.47255" lon="6.78405">
        <ele>360</ele>
        <time>2015-03-01T08:57:25.000Z</time>
      </trkpt>
      <trkpt lat="47.47255" lon="6.78408">
        <ele>360</ele>
        <time>2015-03-01T08:57:26.000Z</time>
      </trkpt>
      <trkpt lat="47.47253" lon="6.78413">
        <ele>360</ele>
        <time>2015-03-01T08:57:28.000Z</time>
      </trkpt>
      <trkpt lat="47.47253" lon="6.78415">
        <ele>360</ele>
        <time>2015-03-01T08:57:29.000Z</time>
      </trkpt>
      <trkpt lat="47.47252" lon="6.78421">
        <ele>360</ele>
        <time>2015-03-01T08:57:31.000Z</time>
      </trkpt>
      <trkpt lat="47.47251" lon="6.78424">
        <ele>360</ele>
        <time>2015-03-01T08:57:32.000Z</time>
      </trkpt>
      <trkpt lat="47.4725" lon="6.78429">
        <ele>361</ele>
        <time>2015-03-01T08:57:34.000Z</time>
      </trkpt>
      <trkpt lat="47.4725" lon="6.78431">
        <ele>360</ele>
        <time>2015-03-01T08:57:35.000Z</time>
      </trkpt>
      <trkpt lat="47.47248" lon="6.78436">
        <ele>360</ele>
        <time>2015-03-01T08:57:37.000Z</time>
      </trkpt>
      <trkpt lat="47.47248" lon="6.78439">
        <ele>360</ele>
        <time>2015-03-01T08:57:37.998Z</time>
      </trkpt>
      <trkpt lat="47.47247" lon="6.78445">
        <ele>360</ele>
        <time>2015-03-01T08:57:40.000Z</time>
      </trkpt>
      <trkpt lat="47.47247" lon="6.78448">
        <ele>360</ele>
        <time>2015-03-01T08:57:41.000Z</time>
      </trkpt>
      <trkpt lat="47.47246" lon="6.78453">
        <ele>360</ele>
        <time>2015-03-01T08:57:43.000Z</time>
      </trkpt>
      <trkpt lat="47.47246" lon="6.78456">
        <ele>360</ele>
        <time>2015-03-01T08:57:44.000Z</time>
      </trkpt>
      <trkpt lat="47.47244" lon="6.78461">
        <ele>360</ele>
        <time>2015-03-01T08:57:46.000Z</time>
      </trkpt>
      <trkpt lat="47.47243" lon="6.78463">
        <ele>360</ele>
        <time>2015-03-01T08:57:47.000Z</time>
      </trkpt>
      <trkpt lat="47.47241" lon="6.78469">
        <ele>361</ele>
        <time>2015-03-01T08:57:49.000Z</time>
      </trkpt>
      <trkpt lat="47.4724" lon="6.78471">
        <ele>361</ele>
        <time>2015-03-01T08:57:50.000Z</time>
      </trkpt>
      <trkpt lat="47.47239" lon="6.78474">
        <ele>361</ele>
        <time>2015-03-01T08:57:51.000Z</time>
      </trkpt>
      <trkpt lat="47.47238" lon="6.78478">
        <ele>361</ele>
        <time>2015-03-01T08:57:52.000Z</time>
      </trkpt>
      <trkpt lat="47.47235" lon="6.78483">
        <ele>361</ele>
        <time>2015-03-01T08:57:54.000Z</time>
      </trkpt>
      <trkpt lat="47.47234" lon="6.78486">
        <ele>361</ele>
        <time>2015-03-01T08:57:55.000Z</time>
      </trkpt>
      <trkpt lat="47.47231" lon="6.78488">
        <ele>361</ele>
        <time>2015-03-01T08:57:57.000Z</time>
      </trkpt>
      <trkpt lat="47.47228" lon="6.78488">
        <ele>361</ele>
        <time>2015-03-01T08:57:58.000Z</time>
      </trkpt>
      <trkpt lat="47.47226" lon="6.78487">
        <ele>361</ele>
        <time>2015-03-01T08:57:59.000Z</time>
      </trkpt>
      <trkpt lat="47.47224" lon="6.78486">
        <ele>361</ele>
        <time>2015-03-01T08:58:00.000Z</time>
      </trkpt>
      <trkpt lat="47.4722" lon="6.78484">
        <ele>360</ele>
        <time>2015-03-01T08:58:02.000Z</time>
      </trkpt>
      <trkpt lat="47.47217" lon="6.78482">
        <ele>360</ele>
        <time>2015-03-01T08:58:03.000Z</time>
      </trkpt>
      <trkpt lat="47.47215" lon="6.78481">
        <ele>360</ele>
        <time>2015-03-01T08:58:04.000Z</time>
      </trkpt>
      <trkpt lat="47.47212" lon="6.78479">
        <ele>360</ele>
        <time>2015-03-01T08:58:05.000Z</time>
      </trkpt>
      <trkpt lat="47.4721" lon="6.78478">
        <ele>360</ele>
        <time>2015-03-01T08:58:06.000Z</time>
      </trkpt>
      <trkpt lat="47.47207" lon="6.78477">
        <ele>360</ele>
        <time>2015-03-01T08:58:07.000Z</time>
      </trkpt>
      <trkpt lat="47.47205" lon="6.78476">
        <ele>360</ele>
        <time>2015-03-01T08:58:08.000Z</time>
      </trkpt>
      <trkpt lat="47.47202" lon="6.78475">
        <ele>360</ele>
        <time>2015-03-01T08:58:09.000Z</time>
      </trkpt>
      <trkpt lat="47.472" lon="6.78474">
        <ele>360</ele>
        <time>2015-03-01T08:58:10.000Z</time>
      </trkpt>
      <trkpt lat="47.47197" lon="6.78473">
        <ele>360</ele>
        <time>2015-03-01T08:58:11.000Z</time>
      </trkpt>
      <trkpt lat="47.47195" lon="6.78472">
        <ele>360</ele>
        <time>2015-03-01T08:58:12.000Z</time>
      </trkpt>
      <trkpt lat="47.47192" lon="6.7847">
        <ele>360</ele>
        <time>2015-03-01T08:58:13.000Z</time>
      </trkpt>
      <trkpt lat="47.4719" lon="6.78469">
        <ele>360</ele>
        <time>2015-03-01T08:58:14.000Z</time>
      </trkpt>
      <trkpt lat="47.47187" lon="6.78468">
        <ele>360</ele>
        <time>2015-03-01T08:58:15.000Z</time>
      </trkpt>
      <trkpt lat="47.47183" lon="6.78466">
        <ele>360</ele>
        <time>2015-03-01T08:58:17.000Z</time>
      </trkpt>
      <trkpt lat="47.47181" lon="6.78465">
        <ele>360</ele>
        <time>2015-03-01T08:58:18.000Z</time>
      </trkpt>
      <trkpt lat="47.47177" lon="6.78463">
        <ele>360</ele>
        <time>2015-03-01T08:58:20.001Z</time>
      </trkpt>
      <trkpt lat="47.47174" lon="6.78462">
        <ele>360</ele>
        <time>2015-03-01T08:58:21.000Z</time>
      </trkpt>
      <trkpt lat="47.47172" lon="6.7846">
        <ele>360</ele>
        <time>2015-03-01T08:58:22.000Z</time>
      </trkpt>
      <trkpt lat="47.47169" lon="6.78459">
        <ele>360</ele>
        <time>2015-03-01T08:58:23.000Z</time>
      </trkpt>
      <trkpt lat="47.47166" lon="6.78457">
        <ele>359</ele>
        <time>2015-03-01T08:58:24.000Z</time>
      </trkpt>
      <trkpt lat="47.47164" lon="6.78456">
        <ele>358</ele>
        <time>2015-03-01T08:58:24.999Z</time>
      </trkpt>
      <trkpt lat="47.47159" lon="6.78454">
        <ele>358</ele>
        <time>2015-03-01T08:58:27.000Z</time>
      </trkpt>
      <trkpt lat="47.47157" lon="6.78452">
        <ele>358</ele>
        <time>2015-03-01T08:58:28.000Z</time>
      </trkpt>
      <trkpt lat="47.47155" lon="6.78451">
        <ele>358</ele>
        <time>2015-03-01T08:58:29.000Z</time>
      </trkpt>
      <trkpt lat="47.47153" lon="6.78449">
        <ele>358</ele>
        <time>2015-03-01T08:58:30.000Z</time>
      </trkpt>
      <trkpt lat="47.47151" lon="6.78448">
        <ele>358</ele>
        <time>2015-03-01T08:58:31.000Z</time>
      </trkpt>
      <trkpt lat="47.47148" lon="6.78447">
        <ele>358</ele>
        <time>2015-03-01T08:58:32.000Z</time>
      </trkpt>
      <trkpt lat="47.47145" lon="6.78445">
        <ele>358</ele>
        <time>2015-03-01T08:58:33.000Z</time>
      </trkpt>
      <trkpt lat="47.47142" lon="6.78445">
        <ele>358</ele>
        <time>2015-03-01T08:58:34.000Z</time>
      </trkpt>
      <trkpt lat="47.4714" lon="6.78444">
        <ele>358</ele>
        <time>2015-03-01T08:58:35.000Z</time>
      </trkpt>
      <trkpt lat="47.47137" lon="6.78443">
        <ele>358</ele>
        <time>2015-03-01T08:58:36.000Z</time>
      </trkpt>
      <trkpt lat="47.47133" lon="6.78442">
        <ele>358</ele>
        <time>2015-03-01T08:58:37.000Z</time>
      </trkpt>
      <trkpt lat="47.47129" lon="6.78441">
        <ele>358</ele>
        <time>2015-03-01T08:58:38.000Z</time>
      </trkpt>
      <trkpt lat="47.47119" lon="6.78442">
        <ele>358</ele>
        <time>2015-03-01T08:58:39.000Z</time>
      </trkpt>
      <trkpt lat="47.47114" lon="6.78442">
        <ele>358</ele>
        <time>2015-03-01T08:58:40.000Z</time>
      </trkpt>
      <trkpt lat="47.4711" lon="6.78439">
        <ele>358</ele>
        <time>2015-03-01T08:58:41.000Z</time>
      </trkpt>
      <trkpt lat="47.47108" lon="6.78438">
        <ele>357</ele>
        <time>2015-03-01T08:58:42.000Z</time>
      </trkpt>
      <trkpt lat="47.47105" lon="6.78437">
        <ele>357</ele>
        <time>2015-03-01T08:58:43.000Z</time>
      </trkpt>
      <trkpt lat="47.47102" lon="6.78437">
        <ele>357</ele>
        <time>2015-03-01T08:58:44.000Z</time>
      </trkpt>
      <trkpt lat="47.47095" lon="6.78436">
        <ele>357</ele>
        <time>2015-03-01T08:58:45.000Z</time>
      </trkpt>
      <trkpt lat="47.47091" lon="6.78436">
        <ele>357</ele>
        <time>2015-03-01T08:58:46.000Z</time>
      </trkpt>
      <trkpt lat="47.47087" lon="6.78436">
        <ele>357</ele>
        <time>2015-03-01T08:58:48.000Z</time>
      </trkpt>
      <trkpt lat="47.47085" lon="6.78436">
        <ele>357</ele>
        <time>2015-03-01T08:58:49.000Z</time>
      </trkpt>
      <trkpt lat="47.4708" lon="6.78438">
        <ele>356</ele>
        <time>2015-03-01T08:58:50.000Z</time>
      </trkpt>
      <trkpt lat="47.47076" lon="6.78438">
        <ele>356</ele>
        <time>2015-03-01T08:58:51.000Z</time>
      </trkpt>
      <trkpt lat="47.47073" lon="6.78437">
        <ele>355</ele>
        <time>2015-03-01T08:58:52.000Z</time>
      </trkpt>
      <trkpt lat="47.47071" lon="6.78437">
        <ele>355</ele>
        <time>2015-03-01T08:58:53.000Z</time>
      </trkpt>
      <trkpt lat="47.47068" lon="6.78437">
        <ele>355</ele>
        <time>2015-03-01T08:58:54.000Z</time>
      </trkpt>
      <trkpt lat="47.47066" lon="6.78436">
        <ele>355</ele>
        <time>2015-03-01T08:58:55.000Z</time>
      </trkpt>
      <trkpt lat="47.47063" lon="6.78436">
        <ele>355</ele>
        <time>2015-03-01T08:58:56.000Z</time>
      </trkpt>
      <trkpt lat="47.4706" lon="6.78435">
        <ele>355</ele>
        <time>2015-03-01T08:58:57.000Z</time>
      </trkpt>
      <trkpt lat="47.47058" lon="6.78434">
        <ele>355</ele>
        <time>2015-03-01T08:58:58.000Z</time>
      </trkpt>
      <trkpt lat="47.47055" lon="6.78432">
        <ele>355</ele>
        <time>2015-03-01T08:58:59.000Z</time>
      </trkpt>
      <trkpt lat="47.47052" lon="6.78431">
        <ele>355</ele>
        <time>2015-03-01T08:59:00.000Z</time>
      </trkpt>
      <trkpt lat="47.47049" lon="6.7843">
        <ele>355</ele>
        <time>2015-03-01T08:59:01.000Z</time>
      </trkpt>
      <trkpt lat="47.47047" lon="6.78428">
        <ele>355</ele>
        <time>2015-03-01T08:59:02.000Z</time>
      </trkpt>
      <trkpt lat="47.47044" lon="6.78427">
        <ele>355</ele>
        <time>2015-03-01T08:59:03.000Z</time>
      </trkpt>
      <trkpt lat="47.47041" lon="6.78425">
        <ele>354</ele>
        <time>2015-03-01T08:59:04.000Z</time>
      </trkpt>
      <trkpt lat="47.47038" lon="6.78423">
        <ele>354</ele>
        <time>2015-03-01T08:59:05.000Z</time>
      </trkpt>
      <trkpt lat="47.47035" lon="6.7842">
        <ele>354</ele>
        <time>2015-03-01T08:59:06.000Z</time>
      </trkpt>
      <trkpt lat="47.47032" lon="6.78418">
        <ele>354</ele>
        <time>2015-03-01T08:59:07.000Z</time>
      </trkpt>
      <trkpt lat="47.47029" lon="6.78415">
        <ele>350</ele>
        <time>2015-03-01T08:59:08.000Z</time>
      </trkpt>
      <trkpt lat="47.47025" lon="6.78411">
        <ele>349</ele>
        <time>2015-03-01T08:59:09.000Z</time>
      </trkpt>
      <trkpt lat="47.47022" lon="6.78407">
        <ele>349</ele>
        <time>2015-03-01T08:59:10.000Z</time>
      </trkpt>
      <trkpt lat="47.47019" lon="6.78403">
        <ele>349</ele>
        <time>2015-03-01T08:59:11.000Z</time>
      </trkpt>
      <trkpt lat="47.47017" lon="6.784">
        <ele>349</ele>
        <time>2015-03-01T08:59:12.000Z</time>
      </trkpt>
      <trkpt lat="47.47014" lon="6.78397">
        <ele>349</ele>
        <time>2015-03-01T08:59:13.000Z</time>
      </trkpt>
      <trkpt lat="47.47012" lon="6.78394">
        <ele>349</ele>
        <time>2015-03-01T08:59:14.000Z</time>
      </trkpt>
      <trkpt lat="47.47007" lon="6.78392">
        <ele>349</ele>
        <time>2015-03-01T08:59:16.000Z</time>
      </trkpt>
      <trkpt lat="47.47005" lon="6.78392">
        <ele>349</ele>
        <time>2015-03-01T08:59:17.000Z</time>
      </trkpt>
      <trkpt lat="47.47003" lon="6.78393">
        <ele>349</ele>
        <time>2015-03-01T08:59:18.000Z</time>
      </trkpt>
      <trkpt lat="47.47" lon="6.78394">
        <ele>349</ele>
        <time>2015-03-01T08:59:19.000Z</time>
      </trkpt>
      <trkpt lat="47.46998" lon="6.78397">
        <ele>347</ele>
        <time>2015-03-01T08:59:20.000Z</time>
      </trkpt>
      <trkpt lat="47.46996" lon="6.78399">
        <ele>348</ele>
        <time>2015-03-01T08:59:21.000Z</time>
      </trkpt>
      <trkpt lat="47.46994" lon="6.78402">
        <ele>348</ele>
        <time>2015-03-01T08:59:22.000Z</time>
      </trkpt>
      <trkpt lat="47.46992" lon="6.78406">
        <ele>348</ele>
        <time>2015-03-01T08:59:23.000Z</time>
      </trkpt>
      <trkpt lat="47.4699" lon="6.78409">
        <ele>348</ele>
        <time>2015-03-01T08:59:24.000Z</time>
      </trkpt>
      <trkpt lat="47.46988" lon="6.78411">
        <ele>348</ele>
        <time>2015-03-01T08:59:25.000Z</time>
      </trkpt>
      <trkpt lat="47.46985" lon="6.78413">
        <ele>348</ele>
        <time>2015-03-01T08:59:26.000Z</time>
      </trkpt>
      <trkpt lat="47.46983" lon="6.78415">
        <ele>348</ele>
        <time>2015-03-01T08:59:27.000Z</time>
      </trkpt>
      <trkpt lat="47.4698" lon="6.78417">
        <ele>350</ele>
        <time>2015-03-01T08:59:29.000Z</time>
      </trkpt>
      <trkpt lat="47.46978" lon="6.78418">
        <ele>350</ele>
        <time>2015-03-01T08:59:30.000Z</time>
      </trkpt>
      <trkpt lat="47.46974" lon="6.78421">
        <ele>350</ele>
        <time>2015-03-01T08:59:31.999Z</time>
      </trkpt>
      <trkpt lat="47.46972" lon="6.78423">
        <ele>350</ele>
        <time>2015-03-01T08:59:33.000Z</time>
      </trkpt>
      <trkpt lat="47.4697" lon="6.78425">
        <ele>350</ele>
        <time>2015-03-01T08:59:34.000Z</time>
      </trkpt>
      <trkpt lat="47.46968" lon="6.78428">
        <ele>350</ele>
        <time>2015-03-01T08:59:35.000Z</time>
      </trkpt>
      <trkpt lat="47.46966" lon="6.78431">
        <ele>350</ele>
        <time>2015-03-01T08:59:36.000Z</time>
      </trkpt>
      <trkpt lat="47.46965" lon="6.78434">
        <ele>350</ele>
        <time>2015-03-01T08:59:37.000Z</time>
      </trkpt>
      <trkpt lat="47.46963" lon="6.78437">
        <ele>350</ele>
        <time>2015-03-01T08:59:38.000Z</time>
      </trkpt>
      <trkpt lat="47.46962" lon="6.78441">
        <ele>350</ele>
        <time>2015-03-01T08:59:39.000Z</time>
      </trkpt>
      <trkpt lat="47.4696" lon="6.78444">
        <ele>350</ele>
        <time>2015-03-01T08:59:40.000Z</time>
      </trkpt>
      <trkpt lat="47.46958" lon="6.78448">
        <ele>350</ele>
        <time>2015-03-01T08:59:41.000Z</time>
      </trkpt>
      <trkpt lat="47.46956" lon="6.78451">
        <ele>350</ele>
        <time>2015-03-01T08:59:42.000Z</time>
      </trkpt>
      <trkpt lat="47.46953" lon="6.78454">
        <ele>350</ele>
        <time>2015-03-01T08:59:42.999Z</time>
      </trkpt>
      <trkpt lat="47.4695" lon="6.78457">
        <ele>350</ele>
        <time>2015-03-01T08:59:44.000Z</time>
      </trkpt>
      <trkpt lat="47.46948" lon="6.7846">
        <ele>350</ele>
        <time>2015-03-01T08:59:45.000Z</time>
      </trkpt>
      <trkpt lat="47.46947" lon="6.78463">
        <ele>350</ele>
        <time>2015-03-01T08:59:46.000Z</time>
      </trkpt>
      <trkpt lat="47.46946" lon="6.78466">
        <ele>350</ele>
        <time>2015-03-01T08:59:47.000Z</time>
      </trkpt>
      <trkpt lat="47.46945" lon="6.7847">
        <ele>350</ele>
        <time>2015-03-01T08:59:48.000Z</time>
      </trkpt>
      <trkpt lat="47.46944" lon="6.78473">
        <ele>350</ele>
        <time>2015-03-01T08:59:49.000Z</time>
      </trkpt>
      <trkpt lat="47.46942" lon="6.78476">
        <ele>350</ele>
        <time>2015-03-01T08:59:50.000Z</time>
      </trkpt>
      <trkpt lat="47.46941" lon="6.7848">
        <ele>350</ele>
        <time>2015-03-01T08:59:51.000Z</time>
      </trkpt>
      <trkpt lat="47.46938" lon="6.78483">
        <ele>350</ele>
        <time>2015-03-01T08:59:52.000Z</time>
      </trkpt>
      <trkpt lat="47.46937" lon="6.78487">
        <ele>349</ele>
        <time>2015-03-01T08:59:53.000Z</time>
      </trkpt>
      <trkpt lat="47.46935" lon="6.7849">
        <ele>349</ele>
        <time>2015-03-01T08:59:54.000Z</time>
      </trkpt>
      <trkpt lat="47.46936" lon="6.78494">
        <ele>349</ele>
        <time>2015-03-01T08:59:55.000Z</time>
      </trkpt>
      <trkpt lat="47.46936" lon="6.78497">
        <ele>349</ele>
        <time>2015-03-01T08:59:56.000Z</time>
      </trkpt>
      <trkpt lat="47.46936" lon="6.78501">
        <ele>351</ele>
        <time>2015-03-01T08:59:57.000Z</time>
      </trkpt>
      <trkpt lat="47.46935" lon="6.78507">
        <ele>351</ele>
        <time>2015-03-01T08:59:59.000Z</time>
      </trkpt>
      <trkpt lat="47.46934" lon="6.7851">
        <ele>351</ele>
        <time>2015-03-01T08:59:59.999Z</time>
      </trkpt>
      <trkpt lat="47.46932" lon="6.78514">
        <ele>351</ele>
        <time>2015-03-01T09:00:02.000Z</time>
      </trkpt>
      <trkpt lat="47.46931" lon="6.78516">
        <ele>351</ele>
        <time>2015-03-01T09:00:03.001Z</time>
      </trkpt>
      <trkpt lat="47.46931" lon="6.78521">
        <ele>351</ele>
        <time>2015-03-01T09:00:05.000Z</time>
      </trkpt>
      <trkpt lat="47.4693" lon="6.78524">
        <ele>351</ele>
        <time>2015-03-01T09:00:06.000Z</time>
      </trkpt>
      <trkpt lat="47.4693" lon="6.78528">
        <ele>351</ele>
        <time>2015-03-01T09:00:07.000Z</time>
      </trkpt>
      <trkpt lat="47.46929" lon="6.78531">
        <ele>352</ele>
        <time>2015-03-01T09:00:08.000Z</time>
      </trkpt>
      <trkpt lat="47.46929" lon="6.78535">
        <ele>352</ele>
        <time>2015-03-01T09:00:09.000Z</time>
      </trkpt>
      <trkpt lat="47.46928" lon="6.78539">
        <ele>352</ele>
        <time>2015-03-01T09:00:10.000Z</time>
      </trkpt>
      <trkpt lat="47.46927" lon="6.78544">
        <ele>352</ele>
        <time>2015-03-01T09:00:11.000Z</time>
      </trkpt>
      <trkpt lat="47.46927" lon="6.78548">
        <ele>352</ele>
        <time>2015-03-01T09:00:12.000Z</time>
      </trkpt>
      <trkpt lat="47.46926" lon="6.78555">
        <ele>352</ele>
        <time>2015-03-01T09:00:14.000Z</time>
      </trkpt>
      <trkpt lat="47.46926" lon="6.78558">
        <ele>351</ele>
        <time>2015-03-01T09:00:15.001Z</time>
      </trkpt>
      <trkpt lat="47.46925" lon="6.78562">
        <ele>351</ele>
        <time>2015-03-01T09:00:16.000Z</time>
      </trkpt>
      <trkpt lat="47.46924" lon="6.78566">
        <ele>351</ele>
        <time>2015-03-01T09:00:17.000Z</time>
      </trkpt>
      <trkpt lat="47.46922" lon="6.78569">
        <ele>351</ele>
        <time>2015-03-01T09:00:18.003Z</time>
      </trkpt>
      <trkpt lat="47.46919" lon="6.78574">
        <ele>350</ele>
        <time>2015-03-01T09:00:19.000Z</time>
      </trkpt>
      <trkpt lat="47.46917" lon="6.78577">
        <ele>349</ele>
        <time>2015-03-01T09:00:20.000Z</time>
      </trkpt>
      <trkpt lat="47.46914" lon="6.78578">
        <ele>349</ele>
        <time>2015-03-01T09:00:21.000Z</time>
      </trkpt>
      <trkpt lat="47.46911" lon="6.78578">
        <ele>350</ele>
        <time>2015-03-01T09:00:22.000Z</time>
      </trkpt>
      <trkpt lat="47.46908" lon="6.78577">
        <ele>350</ele>
        <time>2015-03-01T09:00:23.000Z</time>
      </trkpt>
      <trkpt lat="47.46905" lon="6.78577">
        <ele>351</ele>
        <time>2015-03-01T09:00:24.000Z</time>
      </trkpt>
      <trkpt lat="47.46902" lon="6.78578">
        <ele>351</ele>
        <time>2015-03-01T09:00:25.000Z</time>
      </trkpt>
      <trkpt lat="47.46898" lon="6.78578">
        <ele>351</ele>
        <time>2015-03-01T09:00:27.000Z</time>
      </trkpt>
      <trkpt lat="47.46897" lon="6.78578">
        <ele>352</ele>
        <time>2015-03-01T09:00:28.000Z</time>
      </trkpt>
      <trkpt lat="47.46893" lon="6.7858">
        <ele>352</ele>
        <time>2015-03-01T09:00:35.000Z</time>
      </trkpt>
      <trkpt lat="47.46892" lon="6.7858">
        <ele>352</ele>
        <time>2015-03-01T09:00:36.000Z</time>
      </trkpt>
      <trkpt lat="47.46887" lon="6.7858">
        <ele>353</ele>
        <time>2015-03-01T09:00:39.000Z</time>
      </trkpt>
      <trkpt lat="47.46886" lon="6.78579">
        <ele>353</ele>
        <time>2015-03-01T09:00:40.000Z</time>
      </trkpt>
      <trkpt lat="47.46882" lon="6.78579">
        <ele>353</ele>
        <time>2015-03-01T09:00:46.000Z</time>
      </trkpt>
      <trkpt lat="47.46881" lon="6.78579">
        <ele>353</ele>
        <time>2015-03-01T09:00:47.000Z</time>
      </trkpt>
      <trkpt lat="47.46876" lon="6.78579">
        <ele>354</ele>
        <time>2015-03-01T09:00:50.000Z</time>
      </trkpt>
      <trkpt lat="47.46875" lon="6.78579">
        <ele>354</ele>
        <time>2015-03-01T09:00:51.000Z</time>
      </trkpt>
      <trkpt lat="47.46871" lon="6.78579">
        <ele>354</ele>
        <time>2015-03-01T09:00:55.000Z</time>
      </trkpt>
      <trkpt lat="47.4687" lon="6.78579">
        <ele>354</ele>
        <time>2015-03-01T09:00:56.000Z</time>
      </trkpt>
      <trkpt lat="47.46867" lon="6.78579">
        <ele>355</ele>
        <time>2015-03-01T09:00:58.000Z</time>
      </trkpt>
      <trkpt lat="47.46865" lon="6.7858">
        <ele>355</ele>
        <time>2015-03-01T09:00:59.000Z</time>
      </trkpt>
      <trkpt lat="47.46862" lon="6.78581">
        <ele>355</ele>
        <time>2015-03-01T09:01:00.000Z</time>
      </trkpt>
      <trkpt lat="47.4686" lon="6.78581">
        <ele>356</ele>
        <time>2015-03-01T09:01:01.000Z</time>
      </trkpt>
      <trkpt lat="47.46856" lon="6.78582">
        <ele>356</ele>
        <time>2015-03-01T09:01:03.000Z</time>
      </trkpt>
      <trkpt lat="47.46855" lon="6.78583">
        <ele>356</ele>
        <time>2015-03-01T09:01:04.000Z</time>
      </trkpt>
      <trkpt lat="47.46851" lon="6.78584">
        <ele>358</ele>
        <time>2015-03-01T09:01:07.000Z</time>
      </trkpt>
      <trkpt lat="47.4685" lon="6.78585">
        <ele>358</ele>
        <time>2015-03-01T09:01:08.000Z</time>
      </trkpt>
      <trkpt lat="47.46846" lon="6.78588">
        <ele>358</ele>
        <time>2015-03-01T09:01:11.000Z</time>
      </trkpt>
      <trkpt lat="47.46846" lon="6.78588">
        <ele>358</ele>
        <time>2015-03-01T09:01:12.000Z</time>
      </trkpt>
      <trkpt lat="47.46842" lon="6.78591">
        <ele>358</ele>
        <time>2015-03-01T09:01:16.000Z</time>
      </trkpt>
      <trkpt lat="47.4684" lon="6.78593">
        <ele>359</ele>
        <time>2015-03-01T09:01:17.000Z</time>
      </trkpt>
      <trkpt lat="47.46837" lon="6.78595">
        <ele>359</ele>
        <time>2015-03-01T09:01:19.000Z</time>
      </trkpt>
      <trkpt lat="47.46836" lon="6.78596">
        <ele>358</ele>
        <time>2015-03-01T09:01:19.999Z</time>
      </trkpt>
      <trkpt lat="47.46835" lon="6.78601">
        <ele>358</ele>
        <time>2015-03-01T09:01:23.000Z</time>
      </trkpt>
      <trkpt lat="47.46834" lon="6.78603">
        <ele>358</ele>
        <time>2015-03-01T09:01:24.000Z</time>
      </trkpt>
      <trkpt lat="47.46833" lon="6.78607">
        <ele>364</ele>
        <time>2015-03-01T09:01:27.000Z</time>
      </trkpt>
      <trkpt lat="47.46829" lon="6.78612">
        <ele>365</ele>
        <time>2015-03-01T09:01:28.000Z</time>
      </trkpt>
      <trkpt lat="47.46826" lon="6.78616">
        <ele>365</ele>
        <time>2015-03-01T09:01:30.000Z</time>
      </trkpt>
      <trkpt lat="47.46824" lon="6.78617">
        <ele>365</ele>
        <time>2015-03-01T09:01:31.000Z</time>
      </trkpt>
      <trkpt lat="47.46821" lon="6.78621">
        <ele>365</ele>
        <time>2015-03-01T09:01:34.000Z</time>
      </trkpt>
      <trkpt lat="47.4682" lon="6.78623">
        <ele>365</ele>
        <time>2015-03-01T09:01:35.000Z</time>
      </trkpt>
      <trkpt lat="47.46817" lon="6.78628">
        <ele>366</ele>
        <time>2015-03-01T09:01:38.000Z</time>
      </trkpt>
      <trkpt lat="47.46816" lon="6.78628">
        <ele>366</ele>
        <time>2015-03-01T09:01:39.000Z</time>
      </trkpt>
      <trkpt lat="47.46813" lon="6.78631">
        <ele>366</ele>
        <time>2015-03-01T09:01:50.999Z</time>
      </trkpt>
      <trkpt lat="47.46812" lon="6.78632">
        <ele>366</ele>
        <time>2015-03-01T09:01:52.000Z</time>
      </trkpt>
      <trkpt lat="47.46812" lon="6.78638">
        <ele>366</ele>
        <time>2015-03-01T09:02:10.000Z</time>
      </trkpt>
      <trkpt lat="47.46813" lon="6.78639">
        <ele>366</ele>
        <time>2015-03-01T09:02:11.001Z</time>
      </trkpt>
      <trkpt lat="47.46815" lon="6.78644">
        <ele>366</ele>
        <time>2015-03-01T09:02:18.000Z</time>
      </trkpt>
      <trkpt lat="47.46814" lon="6.78645">
        <ele>366</ele>
        <time>2015-03-01T09:02:19.000Z</time>
      </trkpt>
      <trkpt lat="47.46812" lon="6.7865">
        <ele>366</ele>
        <time>2015-03-01T09:02:23.000Z</time>
      </trkpt>
      <trkpt lat="47.46811" lon="6.78651">
        <ele>366</ele>
        <time>2015-03-01T09:02:24.000Z</time>
      </trkpt>
      <trkpt lat="47.46807" lon="6.78654">
        <ele>366</ele>
        <time>2015-03-01T09:02:27.000Z</time>
      </trkpt>
      <trkpt lat="47.46806" lon="6.78655">
        <ele>366</ele>
        <time>2015-03-01T09:02:28.000Z</time>
      </trkpt>
      <trkpt lat="47.46803" lon="6.78657">
        <ele>366</ele>
        <time>2015-03-01T09:02:31.000Z</time>
      </trkpt>
      <trkpt lat="47.46801" lon="6.78658">
        <ele>367</ele>
        <time>2015-03-01T09:02:32.000Z</time>
      </trkpt>
      <trkpt lat="47.46798" lon="6.7866">
        <ele>367</ele>
        <time>2015-03-01T09:02:35.000Z</time>
      </trkpt>
      <trkpt lat="47.46797" lon="6.7866">
        <ele>367</ele>
        <time>2015-03-01T09:02:36.000Z</time>
      </trkpt>
      <trkpt lat="47.46793" lon="6.78661">
        <ele>367</ele>
        <time>2015-03-01T09:02:39.000Z</time>
      </trkpt>
      <trkpt lat="47.46791" lon="6.78661">
        <ele>367</ele>
        <time>2015-03-01T09:02:40.000Z</time>
      </trkpt>
      <trkpt lat="47.46787" lon="6.78661">
        <ele>368</ele>
        <time>2015-03-01T09:02:44.000Z</time>
      </trkpt>
      <trkpt lat="47.46786" lon="6.78661">
        <ele>368</ele>
        <time>2015-03-01T09:02:45.000Z</time>
      </trkpt>
      <trkpt lat="47.46783" lon="6.78661">
        <ele>368</ele>
        <time>2015-03-01T09:02:47.000Z</time>
      </trkpt>
      <trkpt lat="47.46781" lon="6.78661">
        <ele>368</ele>
        <time>2015-03-01T09:02:48.000Z</time>
      </trkpt>
      <trkpt lat="47.46777" lon="6.78661">
        <ele>369</ele>
        <time>2015-03-01T09:02:52.000Z</time>
      </trkpt>
      <trkpt lat="47.46776" lon="6.78661">
        <ele>369</ele>
        <time>2015-03-01T09:02:53.000Z</time>
      </trkpt>
      <trkpt lat="47.46772" lon="6.78662">
        <ele>369</ele>
        <time>2015-03-01T09:03:12.000Z</time>
      </trkpt>
      <trkpt lat="47.46771" lon="6.78662">
        <ele>369</ele>
        <time>2015-03-01T09:03:13.000Z</time>
      </trkpt>
      <trkpt lat="47.46769" lon="6.78667">
        <ele>369</ele>
        <time>2015-03-01T09:03:18.000Z</time>
      </trkpt>
      <trkpt lat="47.46768" lon="6.78668">
        <ele>369</ele>
        <time>2015-03-01T09:03:19.000Z</time>
      </trkpt>
      <trkpt lat="47.46766" lon="6.78672">
        <ele>369</ele>
        <time>2015-03-01T09:03:22.000Z</time>
      </trkpt>
      <trkpt lat="47.46765" lon="6.78674">
        <ele>369</ele>
        <time>2015-03-01T09:03:23.000Z</time>
      </trkpt>
      <trkpt lat="47.46764" lon="6.78679">
        <ele>369</ele>
        <time>2015-03-01T09:03:27.000Z</time>
      </trkpt>
      <trkpt lat="47.46763" lon="6.78681">
        <ele>369</ele>
        <time>2015-03-01T09:03:28.000Z</time>
      </trkpt>
      <trkpt lat="47.46761" lon="6.78685">
        <ele>368</ele>
        <time>2015-03-01T09:03:32.000Z</time>
      </trkpt>
      <trkpt lat="47.46761" lon="6.78686">
        <ele>368</ele>
        <time>2015-03-01T09:03:33.000Z</time>
      </trkpt>
      <trkpt lat="47.46757" lon="6.78689">
        <ele>368</ele>
        <time>2015-03-01T09:03:36.000Z</time>
      </trkpt>
      <trkpt lat="47.46756" lon="6.78689">
        <ele>368</ele>
        <time>2015-03-01T09:03:37.000Z</time>
      </trkpt>
      <trkpt lat="47.46752" lon="6.78688">
        <ele>369</ele>
        <time>2015-03-01T09:03:40.000Z</time>
      </trkpt>
      <trkpt lat="47.46751" lon="6.78688">
        <ele>369</ele>
        <time>2015-03-01T09:03:41.000Z</time>
      </trkpt>
      <trkpt lat="47.46747" lon="6.78691">
        <ele>373</ele>
        <time>2015-03-01T09:03:50.000Z</time>
      </trkpt>
      <trkpt lat="47.46746" lon="6.78692">
        <ele>373</ele>
        <time>2015-03-01T09:03:51.000Z</time>
      </trkpt>
      <trkpt lat="47.46742" lon="6.78695">
        <ele>373</ele>
        <time>2015-03-01T09:03:58.000Z</time>
      </trkpt>
      <trkpt lat="47.46742" lon="6.78695">
        <ele>373</ele>
        <time>2015-03-01T09:03:59.000Z</time>
      </trkpt>
      <trkpt lat="47.46742" lon="6.78702">
        <ele>373</ele>
        <time>2015-03-01T09:04:16.000Z</time>
      </trkpt>
      <trkpt lat="47.46741" lon="6.78703">
        <ele>373</ele>
        <time>2015-03-01T09:04:17.000Z</time>
      </trkpt>
      <trkpt lat="47.4674" lon="6.78708">
        <ele>373</ele>
        <time>2015-03-01T09:04:22.000Z</time>
      </trkpt>
      <trkpt lat="47.4674" lon="6.78712">
        <ele>372</ele>
        <time>2015-03-01T09:04:23.000Z</time>
      </trkpt>
      <trkpt lat="47.46739" lon="6.78718">
        <ele>372</ele>
        <time>2015-03-01T09:04:25.000Z</time>
      </trkpt>
      <trkpt lat="47.46739" lon="6.78721">
        <ele>372</ele>
        <time>2015-03-01T09:04:26.000Z</time>
      </trkpt>
      <trkpt lat="47.46739" lon="6.78727">
        <ele>371</ele>
        <time>2015-03-01T09:04:28.002Z</time>
      </trkpt>
      <trkpt lat="47.46738" lon="6.78731">
        <ele>371</ele>
        <time>2015-03-01T09:04:29.000Z</time>
      </trkpt>
      <trkpt lat="47.46737" lon="6.78737">
        <ele>371</ele>
        <time>2015-03-01T09:04:30.999Z</time>
      </trkpt>
      <trkpt lat="47.46736" lon="6.7874">
        <ele>371</ele>
        <time>2015-03-01T09:04:32.000Z</time>
      </trkpt>
      <trkpt lat="47.46735" lon="6.78743">
        <ele>370</ele>
        <time>2015-03-01T09:04:33.000Z</time>
      </trkpt>
      <trkpt lat="47.46735" lon="6.78747">
        <ele>370</ele>
        <time>2015-03-01T09:04:34.000Z</time>
      </trkpt>
      <trkpt lat="47.46735" lon="6.78751">
        <ele>368</ele>
        <time>2015-03-01T09:04:35.000Z</time>
      </trkpt>
      <trkpt lat="47.46735" lon="6.78756">
        <ele>368</ele>
        <time>2015-03-01T09:04:36.000Z</time>
      </trkpt>
      <trkpt lat="47.46735" lon="6.7876">
        <ele>368</ele>
        <time>2015-03-01T09:04:37.000Z</time>
      </trkpt>
      <trkpt lat="47.46735" lon="6.78764">
        <ele>369</ele>
        <time>2015-03-01T09:04:38.000Z</time>
      </trkpt>
      <trkpt lat="47.46735" lon="6.78768">
        <ele>369</ele>
        <time>2015-03-01T09:04:39.000Z</time>
      </trkpt>
      <trkpt lat="47.46734" lon="6.78772">
        <ele>369</ele>
        <time>2015-03-01T09:04:40.000Z</time>
      </trkpt>
      <trkpt lat="47.46733" lon="6.78776">
        <ele>369</ele>
        <time>2015-03-01T09:04:41.000Z</time>
      </trkpt>
      <trkpt lat="47.46732" lon="6.78781">
        <ele>369</ele>
        <time>2015-03-01T09:04:42.000Z</time>
      </trkpt>
      <trkpt lat="47.4673" lon="6.78785">
        <ele>369</ele>
        <time>2015-03-01T09:04:43.000Z</time>
      </trkpt>
      <trkpt lat="47.46728" lon="6.78789">
        <ele>369</ele>
        <time>2015-03-01T09:04:44.000Z</time>
      </trkpt>
      <trkpt lat="47.46726" lon="6.78792">
        <ele>369</ele>
        <time>2015-03-01T09:04:45.000Z</time>
      </trkpt>
      <trkpt lat="47.46724" lon="6.78795">
        <ele>369</ele>
        <time>2015-03-01T09:04:46.000Z</time>
      </trkpt>
      <trkpt lat="47.46722" lon="6.78798">
        <ele>369</ele>
        <time>2015-03-01T09:04:47.000Z</time>
      </trkpt>
      <trkpt lat="47.4672" lon="6.78801">
        <ele>369</ele>
        <time>2015-03-01T09:04:48.000Z</time>
      </trkpt>
      <trkpt lat="47.46717" lon="6.78803">
        <ele>369</ele>
        <time>2015-03-01T09:04:49.000Z</time>
      </trkpt>
      <trkpt lat="47.46715" lon="6.78806">
        <ele>369</ele>
        <time>2015-03-01T09:04:50.000Z</time>
      </trkpt>
      <trkpt lat="47.46714" lon="6.78809">
        <ele>369</ele>
        <time>2015-03-01T09:04:51.000Z</time>
      </trkpt>
      <trkpt lat="47.46712" lon="6.78812">
        <ele>369</ele>
        <time>2015-03-01T09:04:52.000Z</time>
      </trkpt>
      <trkpt lat="47.4671" lon="6.78815">
        <ele>369</ele>
        <time>2015-03-01T09:04:53.000Z</time>
      </trkpt>
      <trkpt lat="47.46709" lon="6.78818">
        <ele>369</ele>
        <time>2015-03-01T09:04:54.000Z</time>
      </trkpt>
      <trkpt lat="47.46707" lon="6.7882">
        <ele>369</ele>
        <time>2015-03-01T09:04:55.000Z</time>
      </trkpt>
      <trkpt lat="47.46705" lon="6.78823">
        <ele>369</ele>
        <time>2015-03-01T09:04:56.000Z</time>
      </trkpt>
      <trkpt lat="47.46703" lon="6.78828">
        <ele>370</ele>
        <time>2015-03-01T09:04:58.000Z</time>
      </trkpt>
      <trkpt lat="47.46702" lon="6.7883">
        <ele>370</ele>
        <time>2015-03-01T09:04:59.000Z</time>
      </trkpt>
      <trkpt lat="47.46699" lon="6.78834">
        <ele>369</ele>
        <time>2015-03-01T09:05:01.000Z</time>
      </trkpt>
      <trkpt lat="47.46698" lon="6.78835">
        <ele>369</ele>
        <time>2015-03-01T09:05:02.000Z</time>
      </trkpt>
      <trkpt lat="47.46695" lon="6.78839">
        <ele>369</ele>
        <time>2015-03-01T09:05:04.000Z</time>
      </trkpt>
      <trkpt lat="47.46694" lon="6.78841">
        <ele>369</ele>
        <time>2015-03-01T09:05:05.000Z</time>
      </trkpt>
      <trkpt lat="47.46693" lon="6.78847">
        <ele>369</ele>
        <time>2015-03-01T09:05:07.000Z</time>
      </trkpt>
      <trkpt lat="47.46691" lon="6.7885">
        <ele>369</ele>
        <time>2015-03-01T09:05:08.000Z</time>
      </trkpt>
      <trkpt lat="47.4669" lon="6.78853">
        <ele>369</ele>
        <time>2015-03-01T09:05:09.000Z</time>
      </trkpt>
      <trkpt lat="47.46688" lon="6.78856">
        <ele>369</ele>
        <time>2015-03-01T09:05:10.000Z</time>
      </trkpt>
      <trkpt lat="47.46686" lon="6.78859">
        <ele>369</ele>
        <time>2015-03-01T09:05:11.000Z</time>
      </trkpt>
      <trkpt lat="47.46685" lon="6.78861">
        <ele>369</ele>
        <time>2015-03-01T09:05:12.000Z</time>
      </trkpt>
      <trkpt lat="47.46683" lon="6.78867">
        <ele>370</ele>
        <time>2015-03-01T09:05:14.000Z</time>
      </trkpt>
      <trkpt lat="47.46682" lon="6.78869">
        <ele>370</ele>
        <time>2015-03-01T09:05:15.000Z</time>
      </trkpt>
      <trkpt lat="47.4668" lon="6.78872">
        <ele>370</ele>
        <time>2015-03-01T09:05:16.000Z</time>
      </trkpt>
      <trkpt lat="47.46679" lon="6.78875">
        <ele>370</ele>
        <time>2015-03-01T09:05:17.000Z</time>
      </trkpt>
      <trkpt lat="47.46677" lon="6.78877">
        <ele>370</ele>
        <time>2015-03-01T09:05:18.000Z</time>
      </trkpt>
      <trkpt lat="47.46676" lon="6.7888">
        <ele>370</ele>
        <time>2015-03-01T09:05:19.000Z</time>
      </trkpt>
      <trkpt lat="47.46674" lon="6.78882">
        <ele>370</ele>
        <time>2015-03-01T09:05:20.000Z</time>
      </trkpt>
      <trkpt lat="47.46672" lon="6.78885">
        <ele>370</ele>
        <time>2015-03-01T09:05:21.000Z</time>
      </trkpt>
      <trkpt lat="47.4667" lon="6.78888">
        <ele>370</ele>
        <time>2015-03-01T09:05:22.000Z</time>
      </trkpt>
      <trkpt lat="47.46668" lon="6.7889">
        <ele>370</ele>
        <time>2015-03-01T09:05:23.000Z</time>
      </trkpt>
      <trkpt lat="47.46665" lon="6.78892">
        <ele>376</ele>
        <time>2015-03-01T09:05:24.000Z</time>
      </trkpt>
      <trkpt lat="47.46663" lon="6.78894">
        <ele>376</ele>
        <time>2015-03-01T09:05:25.000Z</time>
      </trkpt>
      <trkpt lat="47.46661" lon="6.78896">
        <ele>375</ele>
        <time>2015-03-01T09:05:26.000Z</time>
      </trkpt>
      <trkpt lat="47.46659" lon="6.78898">
        <ele>375</ele>
        <time>2015-03-01T09:05:27.000Z</time>
      </trkpt>
      <trkpt lat="47.46657" lon="6.78904">
        <ele>375</ele>
        <time>2015-03-01T09:05:29.000Z</time>
      </trkpt>
      <trkpt lat="47.46656" lon="6.78907">
        <ele>375</ele>
        <time>2015-03-01T09:05:30.000Z</time>
      </trkpt>
      <trkpt lat="47.46654" lon="6.78912">
        <ele>375</ele>
        <time>2015-03-01T09:05:32.000Z</time>
      </trkpt>
      <trkpt lat="47.46654" lon="6.78915">
        <ele>375</ele>
        <time>2015-03-01T09:05:33.000Z</time>
      </trkpt>
      <trkpt lat="47.46652" lon="6.78919">
        <ele>375</ele>
        <time>2015-03-01T09:05:35.000Z</time>
      </trkpt>
      <trkpt lat="47.46651" lon="6.78922">
        <ele>375</ele>
        <time>2015-03-01T09:05:36.000Z</time>
      </trkpt>
      <trkpt lat="47.46649" lon="6.78927">
        <ele>375</ele>
        <time>2015-03-01T09:05:38.000Z</time>
      </trkpt>
      <trkpt lat="47.46648" lon="6.78929">
        <ele>375</ele>
        <time>2015-03-01T09:05:39.000Z</time>
      </trkpt>
      <trkpt lat="47.46646" lon="6.78934">
        <ele>376</ele>
        <time>2015-03-01T09:05:41.000Z</time>
      </trkpt>
      <trkpt lat="47.46646" lon="6.78936">
        <ele>376</ele>
        <time>2015-03-01T09:05:42.000Z</time>
      </trkpt>
      <trkpt lat="47.46644" lon="6.78941">
        <ele>376</ele>
        <time>2015-03-01T09:05:44.000Z</time>
      </trkpt>
      <trkpt lat="47.46643" lon="6.78944">
        <ele>376</ele>
        <time>2015-03-01T09:05:45.000Z</time>
      </trkpt>
      <trkpt lat="47.4664" lon="6.78949">
        <ele>376</ele>
        <time>2015-03-01T09:05:47.002Z</time>
      </trkpt>
      <trkpt lat="47.46639" lon="6.78951">
        <ele>377</ele>
        <time>2015-03-01T09:05:48.000Z</time>
      </trkpt>
      <trkpt lat="47.46636" lon="6.78955">
        <ele>377</ele>
        <time>2015-03-01T09:05:50.000Z</time>
      </trkpt>
      <trkpt lat="47.46634" lon="6.78958">
        <ele>377</ele>
        <time>2015-03-01T09:05:51.000Z</time>
      </trkpt>
      <trkpt lat="47.46632" lon="6.7896">
        <ele>377</ele>
        <time>2015-03-01T09:05:52.000Z</time>
      </trkpt>
      <trkpt lat="47.4663" lon="6.78962">
        <ele>377</ele>
        <time>2015-03-01T09:05:52.999Z</time>
      </trkpt>
      <trkpt lat="47.46628" lon="6.78965">
        <ele>377</ele>
        <time>2015-03-01T09:05:55.000Z</time>
      </trkpt>
      <trkpt lat="47.46626" lon="6.78968">
        <ele>377</ele>
        <time>2015-03-01T09:05:56.000Z</time>
      </trkpt>
      <trkpt lat="47.46623" lon="6.78972">
        <ele>377</ele>
        <time>2015-03-01T09:05:58.000Z</time>
      </trkpt>
      <trkpt lat="47.46622" lon="6.78975">
        <ele>378</ele>
        <time>2015-03-01T09:05:59.000Z</time>
      </trkpt>
      <trkpt lat="47.46621" lon="6.78979">
        <ele>378</ele>
        <time>2015-03-01T09:06:01.000Z</time>
      </trkpt>
      <trkpt lat="47.4662" lon="6.78982">
        <ele>378</ele>
        <time>2015-03-01T09:06:02.000Z</time>
      </trkpt>
      <trkpt lat="47.46618" lon="6.78987">
        <ele>378</ele>
        <time>2015-03-01T09:06:04.000Z</time>
      </trkpt>
      <trkpt lat="47.46617" lon="6.78989">
        <ele>378</ele>
        <time>2015-03-01T09:06:05.000Z</time>
      </trkpt>
      <trkpt lat="47.46616" lon="6.78994">
        <ele>378</ele>
        <time>2015-03-01T09:06:07.000Z</time>
      </trkpt>
      <trkpt lat="47.46614" lon="6.78996">
        <ele>378</ele>
        <time>2015-03-01T09:06:08.000Z</time>
      </trkpt>
      <trkpt lat="47.46612" lon="6.79001">
        <ele>378</ele>
        <time>2015-03-01T09:06:10.000Z</time>
      </trkpt>
      <trkpt lat="47.46611" lon="6.79003">
        <ele>378</ele>
        <time>2015-03-01T09:06:11.000Z</time>
      </trkpt>
      <trkpt lat="47.46609" lon="6.79007">
        <ele>379</ele>
        <time>2015-03-01T09:06:13.000Z</time>
      </trkpt>
      <trkpt lat="47.46608" lon="6.79009">
        <ele>379</ele>
        <time>2015-03-01T09:06:14.000Z</time>
      </trkpt>
      <trkpt lat="47.46607" lon="6.79013">
        <ele>379</ele>
        <time>2015-03-01T09:06:16.000Z</time>
      </trkpt>
      <trkpt lat="47.46606" lon="6.79015">
        <ele>379</ele>
        <time>2015-03-01T09:06:17.000Z</time>
      </trkpt>
      <trkpt lat="47.46605" lon="6.79019">
        <ele>379</ele>
        <time>2015-03-01T09:06:19.000Z</time>
      </trkpt>
      <trkpt lat="47.46604" lon="6.79021">
        <ele>379</ele>
        <time>2015-03-01T09:06:20.000Z</time>
      </trkpt>
      <trkpt lat="47.46602" lon="6.79025">
        <ele>379</ele>
        <time>2015-03-01T09:06:22.000Z</time>
      </trkpt>
      <trkpt lat="47.46601" lon="6.79027">
        <ele>379</ele>
        <time>2015-03-01T09:06:23.000Z</time>
      </trkpt>
      <trkpt lat="47.466" lon="6.79031">
        <ele>379</ele>
        <time>2015-03-01T09:06:25.000Z</time>
      </trkpt>
      <trkpt lat="47.46599" lon="6.79033">
        <ele>379</ele>
        <time>2015-03-01T09:06:26.000Z</time>
      </trkpt>
      <trkpt lat="47.46598" lon="6.79037">
        <ele>379</ele>
        <time>2015-03-01T09:06:28.000Z</time>
      </trkpt>
      <trkpt lat="47.46596" lon="6.79039">
        <ele>379</ele>
        <time>2015-03-01T09:06:29.000Z</time>
      </trkpt>
      <trkpt lat="47.46593" lon="6.79043">
        <ele>379</ele>
        <time>2015-03-01T09:06:31.000Z</time>
      </trkpt>
      <trkpt lat="47.46592" lon="6.79044">
        <ele>379</ele>
        <time>2015-03-01T09:06:32.000Z</time>
      </trkpt>
      <trkpt lat="47.4659" lon="6.79048">
        <ele>379</ele>
        <time>2015-03-01T09:06:34.000Z</time>
      </trkpt>
      <trkpt lat="47.4659" lon="6.7905">
        <ele>379</ele>
        <time>2015-03-01T09:06:35.000Z</time>
      </trkpt>
      <trkpt lat="47.46588" lon="6.79054">
        <ele>380</ele>
        <time>2015-03-01T09:06:37.000Z</time>
      </trkpt>
      <trkpt lat="47.46587" lon="6.79056">
        <ele>380</ele>
        <time>2015-03-01T09:06:38.000Z</time>
      </trkpt>
      <trkpt lat="47.46585" lon="6.7906">
        <ele>380</ele>
        <time>2015-03-01T09:06:40.000Z</time>
      </trkpt>
      <trkpt lat="47.46584" lon="6.79062">
        <ele>380</ele>
        <time>2015-03-01T09:06:41.000Z</time>
      </trkpt>
      <trkpt lat="47.46581" lon="6.79066">
        <ele>385</ele>
        <time>2015-03-01T09:06:43.000Z</time>
      </trkpt>
      <trkpt lat="47.4658" lon="6.79068">
        <ele>385</ele>
        <time>2015-03-01T09:06:44.000Z</time>
      </trkpt>
      <trkpt lat="47.46578" lon="6.79073">
        <ele>385</ele>
        <time>2015-03-01T09:06:46.000Z</time>
      </trkpt>
      <trkpt lat="47.46576" lon="6.79075">
        <ele>385</ele>
        <time>2015-03-01T09:06:47.000Z</time>
      </trkpt>
      <trkpt lat="47.46574" lon="6.79078">
        <ele>385</ele>
        <time>2015-03-01T09:06:49.000Z</time>
      </trkpt>
      <trkpt lat="47.46573" lon="6.7908">
        <ele>385</ele>
        <time>2015-03-01T09:06:50.000Z</time>
      </trkpt>
      <trkpt lat="47.46572" lon="6.79086">
        <ele>385</ele>
        <time>2015-03-01T09:06:53.000Z</time>
      </trkpt>
      <trkpt lat="47.46572" lon="6.79088">
        <ele>385</ele>
        <time>2015-03-01T09:06:54.000Z</time>
      </trkpt>
      <trkpt lat="47.4657" lon="6.79092">
        <ele>385</ele>
        <time>2015-03-01T09:06:56.000Z</time>
      </trkpt>
      <trkpt lat="47.46569" lon="6.79094">
        <ele>385</ele>
        <time>2015-03-01T09:06:57.000Z</time>
      </trkpt>
      <trkpt lat="47.46568" lon="6.79099">
        <ele>386</ele>
        <time>2015-03-01T09:06:59.000Z</time>
      </trkpt>
      <trkpt lat="47.46567" lon="6.79101">
        <ele>386</ele>
        <time>2015-03-01T09:07:00.000Z</time>
      </trkpt>
      <trkpt lat="47.46564" lon="6.79106">
        <ele>386</ele>
        <time>2015-03-01T09:07:02.000Z</time>
      </trkpt>
      <trkpt lat="47.46563" lon="6.79109">
        <ele>386</ele>
        <time>2015-03-01T09:07:03.000Z</time>
      </trkpt>
      <trkpt lat="47.46561" lon="6.79113">
        <ele>386</ele>
        <time>2015-03-01T09:07:05.000Z</time>
      </trkpt>
      <trkpt lat="47.46559" lon="6.79116">
        <ele>386</ele>
        <time>2015-03-01T09:07:06.000Z</time>
      </trkpt>
      <trkpt lat="47.46556" lon="6.7912">
        <ele>386</ele>
        <time>2015-03-01T09:07:08.000Z</time>
      </trkpt>
      <trkpt lat="47.46555" lon="6.79122">
        <ele>386</ele>
        <time>2015-03-01T09:07:09.000Z</time>
      </trkpt>
      <trkpt lat="47.46553" lon="6.79126">
        <ele>386</ele>
        <time>2015-03-01T09:07:11.000Z</time>
      </trkpt>
      <trkpt lat="47.46551" lon="6.79127">
        <ele>386</ele>
        <time>2015-03-01T09:07:12.000Z</time>
      </trkpt>
      <trkpt lat="47.46548" lon="6.7913">
        <ele>387</ele>
        <time>2015-03-01T09:07:14.000Z</time>
      </trkpt>
      <trkpt lat="47.46547" lon="6.79132">
        <ele>387</ele>
        <time>2015-03-01T09:07:15.000Z</time>
      </trkpt>
      <trkpt lat="47.46544" lon="6.79135">
        <ele>387</ele>
        <time>2015-03-01T09:07:17.000Z</time>
      </trkpt>
      <trkpt lat="47.46542" lon="6.79137">
        <ele>387</ele>
        <time>2015-03-01T09:07:18.000Z</time>
      </trkpt>
      <trkpt lat="47.46539" lon="6.7914">
        <ele>387</ele>
        <time>2015-03-01T09:07:20.000Z</time>
      </trkpt>
      <trkpt lat="47.46537" lon="6.79141">
        <ele>387</ele>
        <time>2015-03-01T09:07:21.000Z</time>
      </trkpt>
      <trkpt lat="47.46534" lon="6.79144">
        <ele>387</ele>
        <time>2015-03-01T09:07:23.000Z</time>
      </trkpt>
      <trkpt lat="47.46533" lon="6.79145">
        <ele>387</ele>
        <time>2015-03-01T09:07:24.000Z</time>
      </trkpt>
      <trkpt lat="47.46532" lon="6.79149">
        <ele>387</ele>
        <time>2015-03-01T09:07:26.000Z</time>
      </trkpt>
      <trkpt lat="47.46531" lon="6.79151">
        <ele>387</ele>
        <time>2015-03-01T09:07:27.000Z</time>
      </trkpt>
      <trkpt lat="47.46529" lon="6.79156">
        <ele>387</ele>
        <time>2015-03-01T09:07:29.000Z</time>
      </trkpt>
      <trkpt lat="47.46528" lon="6.79158">
        <ele>387</ele>
        <time>2015-03-01T09:07:30.000Z</time>
      </trkpt>
      <trkpt lat="47.46525" lon="6.79162">
        <ele>387</ele>
        <time>2015-03-01T09:07:32.000Z</time>
      </trkpt>
      <trkpt lat="47.46524" lon="6.79165">
        <ele>387</ele>
        <time>2015-03-01T09:07:33.000Z</time>
      </trkpt>
      <trkpt lat="47.46522" lon="6.79169">
        <ele>387</ele>
        <time>2015-03-01T09:07:35.000Z</time>
      </trkpt>
      <trkpt lat="47.46521" lon="6.79171">
        <ele>387</ele>
        <time>2015-03-01T09:07:36.000Z</time>
      </trkpt>
      <trkpt lat="47.46524" lon="6.79175">
        <ele>387</ele>
        <time>2015-03-01T09:07:56.000Z</time>
      </trkpt>
      <trkpt lat="47.46526" lon="6.79174">
        <ele>387</ele>
        <time>2015-03-01T09:07:57.001Z</time>
      </trkpt>
      <trkpt lat="47.46526" lon="6.79167">
        <ele>387</ele>
        <time>2015-03-01T09:07:59.000Z</time>
      </trkpt>
      <trkpt lat="47.46527" lon="6.79164">
        <ele>387</ele>
        <time>2015-03-01T09:08:00.000Z</time>
      </trkpt>
      <trkpt lat="47.46529" lon="6.79159">
        <ele>387</ele>
        <time>2015-03-01T09:08:02.000Z</time>
      </trkpt>
      <trkpt lat="47.46531" lon="6.79157">
        <ele>387</ele>
        <time>2015-03-01T09:08:03.000Z</time>
      </trkpt>
      <trkpt lat="47.46534" lon="6.79152">
        <ele>387</ele>
        <time>2015-03-01T09:08:05.000Z</time>
      </trkpt>
      <trkpt lat="47.46535" lon="6.79149">
        <ele>387</ele>
        <time>2015-03-01T09:08:06.000Z</time>
      </trkpt>
      <trkpt lat="47.46536" lon="6.79144">
        <ele>387</ele>
        <time>2015-03-01T09:08:08.000Z</time>
      </trkpt>
      <trkpt lat="47.46537" lon="6.79141">
        <ele>387</ele>
        <time>2015-03-01T09:08:09.000Z</time>
      </trkpt>
      <trkpt lat="47.46539" lon="6.79139">
        <ele>387</ele>
        <time>2015-03-01T09:08:10.000Z</time>
      </trkpt>
      <trkpt lat="47.46541" lon="6.79136">
        <ele>387</ele>
        <time>2015-03-01T09:08:11.000Z</time>
      </trkpt>
      <trkpt lat="47.46543" lon="6.79134">
        <ele>387</ele>
        <time>2015-03-01T09:08:12.000Z</time>
      </trkpt>
      <trkpt lat="47.46545" lon="6.79132">
        <ele>387</ele>
        <time>2015-03-01T09:08:13.000Z</time>
      </trkpt>
      <trkpt lat="47.46549" lon="6.79127">
        <ele>387</ele>
        <time>2015-03-01T09:08:15.000Z</time>
      </trkpt>
      <trkpt lat="47.4655" lon="6.79125">
        <ele>386</ele>
        <time>2015-03-01T09:08:16.000Z</time>
      </trkpt>
      <trkpt lat="47.46552" lon="6.79121">
        <ele>386</ele>
        <time>2015-03-01T09:08:18.000Z</time>
      </trkpt>
      <trkpt lat="47.46553" lon="6.79119">
        <ele>386</ele>
        <time>2015-03-01T09:08:19.000Z</time>
      </trkpt>
      <trkpt lat="47.46551" lon="6.79114">
        <ele>386</ele>
        <time>2015-03-01T09:08:22.000Z</time>
      </trkpt>
      <trkpt lat="47.4655" lon="6.79112">
        <ele>386</ele>
        <time>2015-03-01T09:08:23.000Z</time>
      </trkpt>
      <trkpt lat="47.46546" lon="6.79109">
        <ele>387</ele>
        <time>2015-03-01T09:08:26.000Z</time>
      </trkpt>
      <trkpt lat="47.46544" lon="6.79109">
        <ele>387</ele>
        <time>2015-03-01T09:08:27.000Z</time>
      </trkpt>
      <trkpt lat="47.46542" lon="6.79109">
        <ele>387</ele>
        <time>2015-03-01T09:08:28.000Z</time>
      </trkpt>
      <trkpt lat="47.46539" lon="6.79109">
        <ele>387</ele>
        <time>2015-03-01T09:08:29.000Z</time>
      </trkpt>
      <trkpt lat="47.46535" lon="6.79109">
        <ele>387</ele>
        <time>2015-03-01T09:08:31.000Z</time>
      </trkpt>
      <trkpt lat="47.46533" lon="6.79108">
        <ele>387</ele>
        <time>2015-03-01T09:08:32.000Z</time>
      </trkpt>
      <trkpt lat="47.46529" lon="6.79105">
        <ele>387</ele>
        <time>2015-03-01T09:08:34.999Z</time>
      </trkpt>
      <trkpt lat="47.46529" lon="6.79104">
        <ele>387</ele>
        <time>2015-03-01T09:08:36.000Z</time>
      </trkpt>
      <trkpt lat="47.46526" lon="6.79098">
        <ele>388</ele>
        <time>2015-03-01T09:08:39.000Z</time>
      </trkpt>
      <trkpt lat="47.46526" lon="6.79097">
        <ele>388</ele>
        <time>2015-03-01T09:08:40.000Z</time>
      </trkpt>
      <trkpt lat="47.46523" lon="6.79094">
        <ele>388</ele>
        <time>2015-03-01T09:08:43.000Z</time>
      </trkpt>
      <trkpt lat="47.46521" lon="6.79093">
        <ele>388</ele>
        <time>2015-03-01T09:08:44.000Z</time>
      </trkpt>
      <trkpt lat="47.46518" lon="6.7909">
        <ele>388</ele>
        <time>2015-03-01T09:08:47.000Z</time>
      </trkpt>
      <trkpt lat="47.46516" lon="6.79089">
        <ele>388</ele>
        <time>2015-03-01T09:08:48.000Z</time>
      </trkpt>
      <trkpt lat="47.46513" lon="6.79087">
        <ele>389</ele>
        <time>2015-03-01T09:08:51.000Z</time>
      </trkpt>
      <trkpt lat="47.46512" lon="6.79087">
        <ele>389</ele>
        <time>2015-03-01T09:08:52.000Z</time>
      </trkpt>
      <trkpt lat="47.46509" lon="6.79083">
        <ele>389</ele>
        <time>2015-03-01T09:08:55.000Z</time>
      </trkpt>
      <trkpt lat="47.46508" lon="6.79082">
        <ele>389</ele>
        <time>2015-03-01T09:08:56.000Z</time>
      </trkpt>
      <trkpt lat="47.46507" lon="6.79075">
        <ele>389</ele>
        <time>2015-03-01T09:09:00.000Z</time>
      </trkpt>
      <trkpt lat="47.46507" lon="6.79073">
        <ele>389</ele>
        <time>2015-03-01T09:09:01.000Z</time>
      </trkpt>
      <trkpt lat="47.46505" lon="6.79068">
        <ele>389</ele>
        <time>2015-03-01T09:09:04.000Z</time>
      </trkpt>
      <trkpt lat="47.46504" lon="6.79066">
        <ele>389</ele>
        <time>2015-03-01T09:09:05.000Z</time>
      </trkpt>
      <trkpt lat="47.465" lon="6.79062">
        <ele>388</ele>
        <time>2015-03-01T09:09:08.000Z</time>
      </trkpt>
      <trkpt lat="47.46499" lon="6.79061">
        <ele>391</ele>
        <time>2015-03-01T09:09:08.999Z</time>
      </trkpt>
      <trkpt lat="47.46496" lon="6.79058">
        <ele>391</ele>
        <time>2015-03-01T09:09:11.000Z</time>
      </trkpt>
      <trkpt lat="47.46495" lon="6.79056">
        <ele>391</ele>
        <time>2015-03-01T09:09:12.000Z</time>
      </trkpt>
      <trkpt lat="47.46493" lon="6.79053">
        <ele>391</ele>
        <time>2015-03-01T09:09:14.000Z</time>
      </trkpt>
      <trkpt lat="47.46491" lon="6.79051">
        <ele>391</ele>
        <time>2015-03-01T09:09:15.000Z</time>
      </trkpt>
      <trkpt lat="47.46487" lon="6.79048">
        <ele>391</ele>
        <time>2015-03-01T09:09:17.000Z</time>
      </trkpt>
      <trkpt lat="47.46486" lon="6.79046">
        <ele>391</ele>
        <time>2015-03-01T09:09:18.000Z</time>
      </trkpt>
      <trkpt lat="47.46483" lon="6.79042">
        <ele>391</ele>
        <time>2015-03-01T09:09:20.000Z</time>
      </trkpt>
      <trkpt lat="47.46482" lon="6.79038">
        <ele>391</ele>
        <time>2015-03-01T09:09:21.000Z</time>
      </trkpt>
      <trkpt lat="47.46482" lon="6.79033">
        <ele>392</ele>
        <time>2015-03-01T09:09:23.000Z</time>
      </trkpt>
      <trkpt lat="47.46482" lon="6.7903">
        <ele>392</ele>
        <time>2015-03-01T09:09:24.000Z</time>
      </trkpt>
      <trkpt lat="47.46483" lon="6.79025">
        <ele>392</ele>
        <time>2015-03-01T09:09:26.000Z</time>
      </trkpt>
      <trkpt lat="47.46484" lon="6.79023">
        <ele>392</ele>
        <time>2015-03-01T09:09:27.000Z</time>
      </trkpt>
      <trkpt lat="47.46486" lon="6.79018">
        <ele>392</ele>
        <time>2015-03-01T09:09:29.000Z</time>
      </trkpt>
      <trkpt lat="47.46487" lon="6.79015">
        <ele>392</ele>
        <time>2015-03-01T09:09:30.000Z</time>
      </trkpt>
      <trkpt lat="47.46489" lon="6.7901">
        <ele>391</ele>
        <time>2015-03-01T09:09:32.000Z</time>
      </trkpt>
      <trkpt lat="47.4649" lon="6.79008">
        <ele>391</ele>
        <time>2015-03-01T09:09:33.000Z</time>
      </trkpt>
      <trkpt lat="47.46492" lon="6.79004">
        <ele>391</ele>
        <time>2015-03-01T09:09:35.000Z</time>
      </trkpt>
      <trkpt lat="47.46493" lon="6.79002">
        <ele>391</ele>
        <time>2015-03-01T09:09:36.000Z</time>
      </trkpt>
      <trkpt lat="47.46496" lon="6.78998">
        <ele>392</ele>
        <time>2015-03-01T09:09:38.000Z</time>
      </trkpt>
      <trkpt lat="47.46496" lon="6.78997">
        <ele>392</ele>
        <time>2015-03-01T09:09:39.000Z</time>
      </trkpt>
      <trkpt lat="47.46497" lon="6.78992">
        <ele>393</ele>
        <time>2015-03-01T09:09:42.000Z</time>
      </trkpt>
      <trkpt lat="47.46497" lon="6.7899">
        <ele>393</ele>
        <time>2015-03-01T09:09:43.000Z</time>
      </trkpt>
      <trkpt lat="47.46496" lon="6.78983">
        <ele>394</ele>
        <time>2015-03-01T09:09:46.000Z</time>
      </trkpt>
      <trkpt lat="47.46495" lon="6.78981">
        <ele>395</ele>
        <time>2015-03-01T09:09:47.000Z</time>
      </trkpt>
      <trkpt lat="47.46494" lon="6.78975">
        <ele>395</ele>
        <time>2015-03-01T09:09:50.000Z</time>
      </trkpt>
      <trkpt lat="47.46494" lon="6.78973">
        <ele>395</ele>
        <time>2015-03-01T09:09:51.000Z</time>
      </trkpt>
      <trkpt lat="47.46495" lon="6.78968">
        <ele>396</ele>
        <time>2015-03-01T09:09:53.000Z</time>
      </trkpt>
      <trkpt lat="47.46494" lon="6.78966">
        <ele>396</ele>
        <time>2015-03-01T09:09:54.000Z</time>
      </trkpt>
      <trkpt lat="47.46494" lon="6.78961">
        <ele>396</ele>
        <time>2015-03-01T09:09:57.000Z</time>
      </trkpt>
      <trkpt lat="47.46494" lon="6.78959">
        <ele>396</ele>
        <time>2015-03-01T09:09:58.000Z</time>
      </trkpt>
      <trkpt lat="47.46492" lon="6.78953">
        <ele>397</ele>
        <time>2015-03-01T09:10:01.000Z</time>
      </trkpt>
      <trkpt lat="47.46491" lon="6.78952">
        <ele>397</ele>
        <time>2015-03-01T09:10:02.000Z</time>
      </trkpt>
      <trkpt lat="47.46489" lon="6.78949">
        <ele>397</ele>
        <time>2015-03-01T09:10:04.000Z</time>
      </trkpt>
      <trkpt lat="47.46488" lon="6.78947">
        <ele>397</ele>
        <time>2015-03-01T09:10:05.000Z</time>
      </trkpt>
      <trkpt lat="47.46487" lon="6.78941">
        <ele>397</ele>
        <time>2015-03-01T09:10:08.000Z</time>
      </trkpt>
      <trkpt lat="47.46487" lon="6.7894">
        <ele>397</ele>
        <time>2015-03-01T09:10:09.000Z</time>
      </trkpt>
      <trkpt lat="47.46486" lon="6.78934">
        <ele>397</ele>
        <time>2015-03-01T09:10:13.000Z</time>
      </trkpt>
      <trkpt lat="47.46485" lon="6.78933">
        <ele>397</ele>
        <time>2015-03-01T09:10:14.000Z</time>
      </trkpt>
      <trkpt lat="47.46484" lon="6.78928">
        <ele>397</ele>
        <time>2015-03-01T09:10:16.999Z</time>
      </trkpt>
      <trkpt lat="47.46482" lon="6.78926">
        <ele>397</ele>
        <time>2015-03-01T09:10:18.000Z</time>
      </trkpt>
      <trkpt lat="47.46479" lon="6.78924">
        <ele>398</ele>
        <time>2015-03-01T09:10:20.000Z</time>
      </trkpt>
      <trkpt lat="47.46478" lon="6.78922">
        <ele>398</ele>
        <time>2015-03-01T09:10:21.000Z</time>
      </trkpt>
      <trkpt lat="47.46476" lon="6.78918">
        <ele>398</ele>
        <time>2015-03-01T09:10:25.000Z</time>
      </trkpt>
      <trkpt lat="47.46475" lon="6.78916">
        <ele>401</ele>
        <time>2015-03-01T09:10:26.000Z</time>
      </trkpt>
      <trkpt lat="47.46473" lon="6.78912">
        <ele>402</ele>
        <time>2015-03-01T09:10:29.000Z</time>
      </trkpt>
      <trkpt lat="47.46472" lon="6.78911">
        <ele>402</ele>
        <time>2015-03-01T09:10:30.000Z</time>
      </trkpt>
      <trkpt lat="47.46472" lon="6.78905">
        <ele>402</ele>
        <time>2015-03-01T09:10:35.000Z</time>
      </trkpt>
      <trkpt lat="47.46472" lon="6.78904">
        <ele>402</ele>
        <time>2015-03-01T09:10:36.000Z</time>
      </trkpt>
      <trkpt lat="47.46473" lon="6.789">
        <ele>402</ele>
        <time>2015-03-01T09:10:38.000Z</time>
      </trkpt>
      <trkpt lat="47.46474" lon="6.78898">
        <ele>402</ele>
        <time>2015-03-01T09:10:39.000Z</time>
      </trkpt>
      <trkpt lat="47.46476" lon="6.78895">
        <ele>402</ele>
        <time>2015-03-01T09:10:40.000Z</time>
      </trkpt>
      <trkpt lat="47.46477" lon="6.78892">
        <ele>402</ele>
        <time>2015-03-01T09:10:41.000Z</time>
      </trkpt>
      <trkpt lat="47.46479" lon="6.78889">
        <ele>402</ele>
        <time>2015-03-01T09:10:42.000Z</time>
      </trkpt>
      <trkpt lat="47.46481" lon="6.78888">
        <ele>402</ele>
        <time>2015-03-01T09:10:43.000Z</time>
      </trkpt>
      <trkpt lat="47.4648" lon="6.78884">
        <ele>402</ele>
        <time>2015-03-01T09:10:45.999Z</time>
      </trkpt>
      <trkpt lat="47.46475" lon="6.78884">
        <ele>402</ele>
        <time>2015-03-01T09:10:47.000Z</time>
      </trkpt>
      <trkpt lat="47.46472" lon="6.78885">
        <ele>403</ele>
        <time>2015-03-01T09:10:48.000Z</time>
      </trkpt>
      <trkpt lat="47.4647" lon="6.78885">
        <ele>403</ele>
        <time>2015-03-01T09:10:49.000Z</time>
      </trkpt>
      <trkpt lat="47.46466" lon="6.78884">
        <ele>403</ele>
        <time>2015-03-01T09:10:51.000Z</time>
      </trkpt>
      <trkpt lat="47.46465" lon="6.78881">
        <ele>403</ele>
        <time>2015-03-01T09:10:52.000Z</time>
      </trkpt>
      <trkpt lat="47.46463" lon="6.78877">
        <ele>404</ele>
        <time>2015-03-01T09:10:54.000Z</time>
      </trkpt>
      <trkpt lat="47.4646" lon="6.78874">
        <ele>404</ele>
        <time>2015-03-01T09:10:55.000Z</time>
      </trkpt>
      <trkpt lat="47.46457" lon="6.78869">
        <ele>404</ele>
        <time>2015-03-01T09:10:57.000Z</time>
      </trkpt>
      <trkpt lat="47.46456" lon="6.78867">
        <ele>404</ele>
        <time>2015-03-01T09:10:58.000Z</time>
      </trkpt>
      <trkpt lat="47.46454" lon="6.78862">
        <ele>405</ele>
        <time>2015-03-01T09:11:00.000Z</time>
      </trkpt>
      <trkpt lat="47.46453" lon="6.7886">
        <ele>405</ele>
        <time>2015-03-01T09:11:01.000Z</time>
      </trkpt>
      <trkpt lat="47.46452" lon="6.78855">
        <ele>405</ele>
        <time>2015-03-01T09:11:03.000Z</time>
      </trkpt>
      <trkpt lat="47.46451" lon="6.78854">
        <ele>405</ele>
        <time>2015-03-01T09:11:04.000Z</time>
      </trkpt>
      <trkpt lat="47.46448" lon="6.78849">
        <ele>406</ele>
        <time>2015-03-01T09:11:07.000Z</time>
      </trkpt>
      <trkpt lat="47.46448" lon="6.78847">
        <ele>406</ele>
        <time>2015-03-01T09:11:08.000Z</time>
      </trkpt>
      <trkpt lat="47.46448" lon="6.78841">
        <ele>406</ele>
        <time>2015-03-01T09:11:10.000Z</time>
      </trkpt>
      <trkpt lat="47.46448" lon="6.78839">
        <ele>406</ele>
        <time>2015-03-01T09:11:11.000Z</time>
      </trkpt>
      <trkpt lat="47.46447" lon="6.78832">
        <ele>408</ele>
        <time>2015-03-01T09:11:13.999Z</time>
      </trkpt>
      <trkpt lat="47.46446" lon="6.7883">
        <ele>408</ele>
        <time>2015-03-01T09:11:15.000Z</time>
      </trkpt>
      <trkpt lat="47.46443" lon="6.78827">
        <ele>408</ele>
        <time>2015-03-01T09:11:18.000Z</time>
      </trkpt>
      <trkpt lat="47.46442" lon="6.78825">
        <ele>409</ele>
        <time>2015-03-01T09:11:19.000Z</time>
      </trkpt>
      <trkpt lat="47.4644" lon="6.78822">
        <ele>409</ele>
        <time>2015-03-01T09:11:21.000Z</time>
      </trkpt>
      <trkpt lat="47.46439" lon="6.78819">
        <ele>409</ele>
        <time>2015-03-01T09:11:22.000Z</time>
      </trkpt>
      <trkpt lat="47.46437" lon="6.78815">
        <ele>409</ele>
        <time>2015-03-01T09:11:24.000Z</time>
      </trkpt>
      <trkpt lat="47.46436" lon="6.78813">
        <ele>409</ele>
        <time>2015-03-01T09:11:25.000Z</time>
      </trkpt>
      <trkpt lat="47.46434" lon="6.78809">
        <ele>409</ele>
        <time>2015-03-01T09:11:28.000Z</time>
      </trkpt>
      <trkpt lat="47.46433" lon="6.78807">
        <ele>409</ele>
        <time>2015-03-01T09:11:29.000Z</time>
      </trkpt>
      <trkpt lat="47.46431" lon="6.78802">
        <ele>409</ele>
        <time>2015-03-01T09:11:32.000Z</time>
      </trkpt>
      <trkpt lat="47.46431" lon="6.788">
        <ele>409</ele>
        <time>2015-03-01T09:11:33.000Z</time>
      </trkpt>
      <trkpt lat="47.4643" lon="6.78796">
        <ele>409</ele>
        <time>2015-03-01T09:11:35.000Z</time>
      </trkpt>
      <trkpt lat="47.46431" lon="6.78792">
        <ele>409</ele>
        <time>2015-03-01T09:11:36.000Z</time>
      </trkpt>
      <trkpt lat="47.46433" lon="6.78787">
        <ele>409</ele>
        <time>2015-03-01T09:11:37.000Z</time>
      </trkpt>
      <trkpt lat="47.46434" lon="6.78784">
        <ele>409</ele>
        <time>2015-03-01T09:11:38.000Z</time>
      </trkpt>
      <trkpt lat="47.46435" lon="6.78781">
        <ele>409</ele>
        <time>2015-03-01T09:11:39.000Z</time>
      </trkpt>
      <trkpt lat="47.46436" lon="6.78778">
        <ele>409</ele>
        <time>2015-03-01T09:11:40.000Z</time>
      </trkpt>
      <trkpt lat="47.46436" lon="6.78773">
        <ele>409</ele>
        <time>2015-03-01T09:11:42.000Z</time>
      </trkpt>
      <trkpt lat="47.46436" lon="6.7877">
        <ele>409</ele>
        <time>2015-03-01T09:11:43.000Z</time>
      </trkpt>
      <trkpt lat="47.46434" lon="6.78765">
        <ele>410</ele>
        <time>2015-03-01T09:11:46.000Z</time>
      </trkpt>
      <trkpt lat="47.46433" lon="6.78761">
        <ele>410</ele>
        <time>2015-03-01T09:11:47.000Z</time>
      </trkpt>
      <trkpt lat="47.46431" lon="6.78756">
        <ele>411</ele>
        <time>2015-03-01T09:11:51.000Z</time>
      </trkpt>
      <trkpt lat="47.46431" lon="6.78755">
        <ele>411</ele>
        <time>2015-03-01T09:11:52.000Z</time>
      </trkpt>
      <trkpt lat="47.46431" lon="6.78752">
        <ele>411</ele>
        <time>2015-03-01T09:11:54.000Z</time>
      </trkpt>
      <trkpt lat="47.46428" lon="6.78748">
        <ele>412</ele>
        <time>2015-03-01T09:11:55.000Z</time>
      </trkpt>
      <trkpt lat="47.46425" lon="6.78745">
        <ele>413</ele>
        <time>2015-03-01T09:11:56.000Z</time>
      </trkpt>
      <trkpt lat="47.46423" lon="6.78741">
        <ele>413</ele>
        <time>2015-03-01T09:11:57.000Z</time>
      </trkpt>
      <trkpt lat="47.46424" lon="6.78735">
        <ele>412</ele>
        <time>2015-03-01T09:11:59.000Z</time>
      </trkpt>
      <trkpt lat="47.46424" lon="6.78733">
        <ele>412</ele>
        <time>2015-03-01T09:12:00.000Z</time>
      </trkpt>
      <trkpt lat="47.46423" lon="6.78727">
        <ele>411</ele>
        <time>2015-03-01T09:12:04.000Z</time>
      </trkpt>
      <trkpt lat="47.46423" lon="6.78726">
        <ele>411</ele>
        <time>2015-03-01T09:12:05.000Z</time>
      </trkpt>
      <trkpt lat="47.46421" lon="6.78721">
        <ele>411</ele>
        <time>2015-03-01T09:12:08.000Z</time>
      </trkpt>
      <trkpt lat="47.46419" lon="6.78719">
        <ele>411</ele>
        <time>2015-03-01T09:12:09.000Z</time>
      </trkpt>
      <trkpt lat="47.46415" lon="6.78716">
        <ele>414</ele>
        <time>2015-03-01T09:12:11.000Z</time>
      </trkpt>
      <trkpt lat="47.46414" lon="6.78715">
        <ele>414</ele>
        <time>2015-03-01T09:12:12.000Z</time>
      </trkpt>
      <trkpt lat="47.46414" lon="6.7871">
        <ele>414</ele>
        <time>2015-03-01T09:12:16.000Z</time>
      </trkpt>
      <trkpt lat="47.46415" lon="6.78708">
        <ele>414</ele>
        <time>2015-03-01T09:12:17.000Z</time>
      </trkpt>
      <trkpt lat="47.46416" lon="6.78703">
        <ele>414</ele>
        <time>2015-03-01T09:12:19.000Z</time>
      </trkpt>
      <trkpt lat="47.46416" lon="6.78699">
        <ele>414</ele>
        <time>2015-03-01T09:12:20.000Z</time>
      </trkpt>
      <trkpt lat="47.46416" lon="6.78695">
        <ele>414</ele>
        <time>2015-03-01T09:12:21.000Z</time>
      </trkpt>
      <trkpt lat="47.46415" lon="6.78691">
        <ele>414</ele>
        <time>2015-03-01T09:12:22.000Z</time>
      </trkpt>
      <trkpt lat="47.46415" lon="6.78687">
        <ele>414</ele>
        <time>2015-03-01T09:12:23.000Z</time>
      </trkpt>
      <trkpt lat="47.46414" lon="6.78683">
        <ele>414</ele>
        <time>2015-03-01T09:12:24.000Z</time>
      </trkpt>
      <trkpt lat="47.46413" lon="6.78678">
        <ele>414</ele>
        <time>2015-03-01T09:12:25.000Z</time>
      </trkpt>
      <trkpt lat="47.46412" lon="6.78674">
        <ele>414</ele>
        <time>2015-03-01T09:12:26.000Z</time>
      </trkpt>
      <trkpt lat="47.4641" lon="6.78669">
        <ele>415</ele>
        <time>2015-03-01T09:12:27.000Z</time>
      </trkpt>
      <trkpt lat="47.46409" lon="6.78665">
        <ele>414</ele>
        <time>2015-03-01T09:12:28.000Z</time>
      </trkpt>
      <trkpt lat="47.46408" lon="6.78661">
        <ele>414</ele>
        <time>2015-03-01T09:12:29.000Z</time>
      </trkpt>
      <trkpt lat="47.46407" lon="6.78657">
        <ele>413</ele>
        <time>2015-03-01T09:12:30.000Z</time>
      </trkpt>
      <trkpt lat="47.46405" lon="6.78653">
        <ele>413</ele>
        <time>2015-03-01T09:12:31.000Z</time>
      </trkpt>
      <trkpt lat="47.46404" lon="6.78649">
        <ele>413</ele>
        <time>2015-03-01T09:12:32.000Z</time>
      </trkpt>
      <trkpt lat="47.46403" lon="6.78645">
        <ele>413</ele>
        <time>2015-03-01T09:12:33.000Z</time>
      </trkpt>
      <trkpt lat="47.46402" lon="6.78642">
        <ele>413</ele>
        <time>2015-03-01T09:12:34.000Z</time>
      </trkpt>
      <trkpt lat="47.46401" lon="6.78638">
        <ele>413</ele>
        <time>2015-03-01T09:12:35.000Z</time>
      </trkpt>
      <trkpt lat="47.464" lon="6.78634">
        <ele>412</ele>
        <time>2015-03-01T09:12:36.000Z</time>
      </trkpt>
      <trkpt lat="47.46399" lon="6.7863">
        <ele>412</ele>
        <time>2015-03-01T09:12:37.000Z</time>
      </trkpt>
      <trkpt lat="47.46398" lon="6.78625">
        <ele>412</ele>
        <time>2015-03-01T09:12:38.000Z</time>
      </trkpt>
      <trkpt lat="47.46397" lon="6.7862">
        <ele>412</ele>
        <time>2015-03-01T09:12:39.000Z</time>
      </trkpt>
      <trkpt lat="47.46395" lon="6.78615">
        <ele>412</ele>
        <time>2015-03-01T09:12:40.000Z</time>
      </trkpt>
      <trkpt lat="47.46393" lon="6.7861">
        <ele>412</ele>
        <time>2015-03-01T09:12:41.000Z</time>
      </trkpt>
      <trkpt lat="47.46392" lon="6.78605">
        <ele>412</ele>
        <time>2015-03-01T09:12:42.000Z</time>
      </trkpt>
      <trkpt lat="47.4639" lon="6.786">
        <ele>412</ele>
        <time>2015-03-01T09:12:43.000Z</time>
      </trkpt>
      <trkpt lat="47.46389" lon="6.78596">
        <ele>412</ele>
        <time>2015-03-01T09:12:44.000Z</time>
      </trkpt>
      <trkpt lat="47.46387" lon="6.78592">
        <ele>412</ele>
        <time>2015-03-01T09:12:45.000Z</time>
      </trkpt>
      <trkpt lat="47.46386" lon="6.78588">
        <ele>412</ele>
        <time>2015-03-01T09:12:46.000Z</time>
      </trkpt>
      <trkpt lat="47.46385" lon="6.78583">
        <ele>410</ele>
        <time>2015-03-01T09:12:47.000Z</time>
      </trkpt>
      <trkpt lat="47.46383" lon="6.78579">
        <ele>409</ele>
        <time>2015-03-01T09:12:48.000Z</time>
      </trkpt>
      <trkpt lat="47.46383" lon="6.78575">
        <ele>409</ele>
        <time>2015-03-01T09:12:49.000Z</time>
      </trkpt>
      <trkpt lat="47.46382" lon="6.78571">
        <ele>409</ele>
        <time>2015-03-01T09:12:49.999Z</time>
      </trkpt>
      <trkpt lat="47.46382" lon="6.78567">
        <ele>409</ele>
        <time>2015-03-01T09:12:51.000Z</time>
      </trkpt>
      <trkpt lat="47.46381" lon="6.78563">
        <ele>409</ele>
        <time>2015-03-01T09:12:52.000Z</time>
      </trkpt>
      <trkpt lat="47.46381" lon="6.78559">
        <ele>409</ele>
        <time>2015-03-01T09:12:53.000Z</time>
      </trkpt>
      <trkpt lat="47.46382" lon="6.78554">
        <ele>409</ele>
        <time>2015-03-01T09:12:54.000Z</time>
      </trkpt>
      <trkpt lat="47.46382" lon="6.78549">
        <ele>409</ele>
        <time>2015-03-01T09:12:55.000Z</time>
      </trkpt>
      <trkpt lat="47.46384" lon="6.7854">
        <ele>408</ele>
        <time>2015-03-01T09:12:56.000Z</time>
      </trkpt>
      <trkpt lat="47.46383" lon="6.78534">
        <ele>408</ele>
        <time>2015-03-01T09:12:57.000Z</time>
      </trkpt>
      <trkpt lat="47.46383" lon="6.78528">
        <ele>408</ele>
        <time>2015-03-01T09:12:58.000Z</time>
      </trkpt>
      <trkpt lat="47.46383" lon="6.78522">
        <ele>408</ele>
        <time>2015-03-01T09:12:59.000Z</time>
      </trkpt>
      <trkpt lat="47.46383" lon="6.78517">
        <ele>408</ele>
        <time>2015-03-01T09:13:00.000Z</time>
      </trkpt>
      <trkpt lat="47.46382" lon="6.78512">
        <ele>408</ele>
        <time>2015-03-01T09:13:01.000Z</time>
      </trkpt>
      <trkpt lat="47.46382" lon="6.78505">
        <ele>408</ele>
        <time>2015-03-01T09:13:02.000Z</time>
      </trkpt>
      <trkpt lat="47.46383" lon="6.78498">
        <ele>405</ele>
        <time>2015-03-01T09:13:03.000Z</time>
      </trkpt>
      <trkpt lat="47.46384" lon="6.78492">
        <ele>405</ele>
        <time>2015-03-01T09:13:04.000Z</time>
      </trkpt>
      <trkpt lat="47.46384" lon="6.78485">
        <ele>404</ele>
        <time>2015-03-01T09:13:05.001Z</time>
      </trkpt>
      <trkpt lat="47.46381" lon="6.78481">
        <ele>404</ele>
        <time>2015-03-01T09:13:06.000Z</time>
      </trkpt>
      <trkpt lat="47.46381" lon="6.78476">
        <ele>404</ele>
        <time>2015-03-01T09:13:07.000Z</time>
      </trkpt>
      <trkpt lat="47.4638" lon="6.78471">
        <ele>404</ele>
        <time>2015-03-01T09:13:08.000Z</time>
      </trkpt>
      <trkpt lat="47.4638" lon="6.78466">
        <ele>404</ele>
        <time>2015-03-01T09:13:09.000Z</time>
      </trkpt>
      <trkpt lat="47.46379" lon="6.7846">
        <ele>403</ele>
        <time>2015-03-01T09:13:10.000Z</time>
      </trkpt>
      <trkpt lat="47.46376" lon="6.78453">
        <ele>403</ele>
        <time>2015-03-01T09:13:11.000Z</time>
      </trkpt>
      <trkpt lat="47.46375" lon="6.78449">
        <ele>403</ele>
        <time>2015-03-01T09:13:12.000Z</time>
      </trkpt>
      <trkpt lat="47.46376" lon="6.78445">
        <ele>403</ele>
        <time>2015-03-01T09:13:13.000Z</time>
      </trkpt>
      <trkpt lat="47.46372" lon="6.78443">
        <ele>403</ele>
        <time>2015-03-01T09:13:24.000Z</time>
      </trkpt>
      <trkpt lat="47.46371" lon="6.78443">
        <ele>403</ele>
        <time>2015-03-01T09:13:25.000Z</time>
      </trkpt>
      <trkpt lat="47.4637" lon="6.78437">
        <ele>403</ele>
        <time>2015-03-01T09:13:37.000Z</time>
      </trkpt>
      <trkpt lat="47.46369" lon="6.78435">
        <ele>402</ele>
        <time>2015-03-01T09:13:38.000Z</time>
      </trkpt>
      <trkpt lat="47.46367" lon="6.78432">
        <ele>402</ele>
        <time>2015-03-01T09:13:43.000Z</time>
      </trkpt>
      <trkpt lat="47.46366" lon="6.78429">
        <ele>402</ele>
        <time>2015-03-01T09:13:44.000Z</time>
      </trkpt>
      <trkpt lat="47.46365" lon="6.78425">
        <ele>402</ele>
        <time>2015-03-01T09:13:46.000Z</time>
      </trkpt>
      <trkpt lat="47.46364" lon="6.7842">
        <ele>402</ele>
        <time>2015-03-01T09:13:47.000Z</time>
      </trkpt>
      <trkpt lat="47.46368" lon="6.78416">
        <ele>397</ele>
        <time>2015-03-01T09:14:05.000Z</time>
      </trkpt>
      <trkpt lat="47.46368" lon="6.78416">
        <ele>397</ele>
        <time>2015-03-01T09:14:06.000Z</time>
      </trkpt>
      <trkpt lat="47.46367" lon="6.7841">
        <ele>397</ele>
        <time>2015-03-01T09:14:19.000Z</time>
      </trkpt>
      <trkpt lat="47.46366" lon="6.78409">
        <ele>397</ele>
        <time>2015-03-01T09:14:20.000Z</time>
      </trkpt>
      <trkpt lat="47.46363" lon="6.78405">
        <ele>397</ele>
        <time>2015-03-01T09:14:23.000Z</time>
      </trkpt>
      <trkpt lat="47.46363" lon="6.78404">
        <ele>397</ele>
        <time>2015-03-01T09:14:24.000Z</time>
      </trkpt>
      <trkpt lat="47.4636" lon="6.78398">
        <ele>397</ele>
        <time>2015-03-01T09:15:00.000Z</time>
      </trkpt>
      <trkpt lat="47.46361" lon="6.78398">
        <ele>397</ele>
        <time>2015-03-01T09:15:01.000Z</time>
      </trkpt>
      <trkpt lat="47.46358" lon="6.78392">
        <ele>397</ele>
        <time>2015-03-01T09:15:23.000Z</time>
      </trkpt>
      <trkpt lat="47.46358" lon="6.78392">
        <ele>397</ele>
        <time>2015-03-01T09:15:24.000Z</time>
      </trkpt>
      <trkpt lat="47.46355" lon="6.78388">
        <ele>396</ele>
        <time>2015-03-01T09:15:30.000Z</time>
      </trkpt>
      <trkpt lat="47.46355" lon="6.78387">
        <ele>396</ele>
        <time>2015-03-01T09:15:31.000Z</time>
      </trkpt>
      <trkpt lat="47.46354" lon="6.78381">
        <ele>396</ele>
        <time>2015-03-01T09:15:39.000Z</time>
      </trkpt>
      <trkpt lat="47.46354" lon="6.7838">
        <ele>396</ele>
        <time>2015-03-01T09:15:40.000Z</time>
      </trkpt>
      <trkpt lat="47.46353" lon="6.78374">
        <ele>396</ele>
        <time>2015-03-01T09:15:46.000Z</time>
      </trkpt>
      <trkpt lat="47.46353" lon="6.78373">
        <ele>396</ele>
        <time>2015-03-01T09:15:47.000Z</time>
      </trkpt>
      <trkpt lat="47.46352" lon="6.78367">
        <ele>395</ele>
        <time>2015-03-01T09:16:05.000Z</time>
      </trkpt>
      <trkpt lat="47.46352" lon="6.78366">
        <ele>395</ele>
        <time>2015-03-01T09:16:06.000Z</time>
      </trkpt>
      <trkpt lat="47.46351" lon="6.78361">
        <ele>395</ele>
        <time>2015-03-01T09:16:12.000Z</time>
      </trkpt>
      <trkpt lat="47.4635" lon="6.78359">
        <ele>395</ele>
        <time>2015-03-01T09:16:13.000Z</time>
      </trkpt>
      <trkpt lat="47.46349" lon="6.78354">
        <ele>395</ele>
        <time>2015-03-01T09:16:16.000Z</time>
      </trkpt>
      <trkpt lat="47.46348" lon="6.78353">
        <ele>394</ele>
        <time>2015-03-01T09:16:17.000Z</time>
      </trkpt>
      <trkpt lat="47.46346" lon="6.78348">
        <ele>394</ele>
        <time>2015-03-01T09:16:20.000Z</time>
      </trkpt>
      <trkpt lat="47.46346" lon="6.78346">
        <ele>394</ele>
        <time>2015-03-01T09:16:21.000Z</time>
      </trkpt>
      <trkpt lat="47.46345" lon="6.78341">
        <ele>394</ele>
        <time>2015-03-01T09:16:24.000Z</time>
      </trkpt>
      <trkpt lat="47.46345" lon="6.78339">
        <ele>394</ele>
        <time>2015-03-01T09:16:25.000Z</time>
      </trkpt>
      <trkpt lat="47.46345" lon="6.78333">
        <ele>391</ele>
        <time>2015-03-01T09:16:29.000Z</time>
      </trkpt>
      <trkpt lat="47.46346" lon="6.78331">
        <ele>391</ele>
        <time>2015-03-01T09:16:30.000Z</time>
      </trkpt>
      <trkpt lat="47.46347" lon="6.78326">
        <ele>390</ele>
        <time>2015-03-01T09:16:33.000Z</time>
      </trkpt>
      <trkpt lat="47.46346" lon="6.78324">
        <ele>390</ele>
        <time>2015-03-01T09:16:34.000Z</time>
      </trkpt>
      <trkpt lat="47.46345" lon="6.78318">
        <ele>390</ele>
        <time>2015-03-01T09:16:41.000Z</time>
      </trkpt>
      <trkpt lat="47.46345" lon="6.78317">
        <ele>390</ele>
        <time>2015-03-01T09:16:42.000Z</time>
      </trkpt>
      <trkpt lat="47.46347" lon="6.78312">
        <ele>389</ele>
        <time>2015-03-01T09:16:50.000Z</time>
      </trkpt>
      <trkpt lat="47.46348" lon="6.78311">
        <ele>389</ele>
        <time>2015-03-01T09:16:51.000Z</time>
      </trkpt>
      <trkpt lat="47.46351" lon="6.78308">
        <ele>389</ele>
        <time>2015-03-01T09:16:54.000Z</time>
      </trkpt>
      <trkpt lat="47.46352" lon="6.78307">
        <ele>389</ele>
        <time>2015-03-01T09:16:55.001Z</time>
      </trkpt>
      <trkpt lat="47.46354" lon="6.78304">
        <ele>389</ele>
        <time>2015-03-01T09:16:58.000Z</time>
      </trkpt>
      <trkpt lat="47.46356" lon="6.78303">
        <ele>388</ele>
        <time>2015-03-01T09:16:59.000Z</time>
      </trkpt>
      <trkpt lat="47.46358" lon="6.78301">
        <ele>388</ele>
        <time>2015-03-01T09:17:08.000Z</time>
      </trkpt>
      <trkpt lat="47.4636" lon="6.783">
        <ele>388</ele>
        <time>2015-03-01T09:17:09.000Z</time>
      </trkpt>
      <trkpt lat="47.46363" lon="6.78298">
        <ele>388</ele>
        <time>2015-03-01T09:17:11.000Z</time>
      </trkpt>
      <trkpt lat="47.46364" lon="6.78297">
        <ele>388</ele>
        <time>2015-03-01T09:17:12.000Z</time>
      </trkpt>
      <trkpt lat="47.46366" lon="6.78295">
        <ele>388</ele>
        <time>2015-03-01T09:17:13.000Z</time>
      </trkpt>
      <trkpt lat="47.46369" lon="6.78294">
        <ele>388</ele>
        <time>2015-03-01T09:17:14.000Z</time>
      </trkpt>
      <trkpt lat="47.46371" lon="6.78293">
        <ele>387</ele>
        <time>2015-03-01T09:17:15.000Z</time>
      </trkpt>
      <trkpt lat="47.46373" lon="6.78292">
        <ele>387</ele>
        <time>2015-03-01T09:17:16.000Z</time>
      </trkpt>
      <trkpt lat="47.46377" lon="6.78289">
        <ele>387</ele>
        <time>2015-03-01T09:17:18.000Z</time>
      </trkpt>
      <trkpt lat="47.46378" lon="6.78287">
        <ele>387</ele>
        <time>2015-03-01T09:17:19.000Z</time>
      </trkpt>
      <trkpt lat="47.46377" lon="6.78282">
        <ele>387</ele>
        <time>2015-03-01T09:17:24.000Z</time>
      </trkpt>
      <trkpt lat="47.46377" lon="6.7828">
        <ele>387</ele>
        <time>2015-03-01T09:17:25.000Z</time>
      </trkpt>
      <trkpt lat="47.46381" lon="6.78277">
        <ele>386</ele>
        <time>2015-03-01T09:17:30.000Z</time>
      </trkpt>
      <trkpt lat="47.46382" lon="6.78277">
        <ele>386</ele>
        <time>2015-03-01T09:17:31.000Z</time>
      </trkpt>
      <trkpt lat="47.46385" lon="6.78279">
        <ele>386</ele>
        <time>2015-03-01T09:17:32.000Z</time>
      </trkpt>
      <trkpt lat="47.46386" lon="6.78279">
        <ele>386</ele>
        <time>2015-03-01T09:17:33.000Z</time>
      </trkpt>
      <trkpt lat="47.46388" lon="6.78281">
        <ele>386</ele>
        <time>2015-03-01T09:17:41.000Z</time>
      </trkpt>
      <trkpt lat="47.46389" lon="6.78284">
        <ele>386</ele>
        <time>2015-03-01T09:17:42.000Z</time>
      </trkpt>
      <trkpt lat="47.46391" lon="6.78287">
        <ele>386</ele>
        <time>2015-03-01T09:17:43.000Z</time>
      </trkpt>
      <trkpt lat="47.46393" lon="6.7829">
        <ele>386</ele>
        <time>2015-03-01T09:17:44.000Z</time>
      </trkpt>
      <trkpt lat="47.46397" lon="6.78287">
        <ele>386</ele>
        <time>2015-03-01T09:17:46.000Z</time>
      </trkpt>
      <trkpt lat="47.46399" lon="6.78283">
        <ele>386</ele>
        <time>2015-03-01T09:17:47.000Z</time>
      </trkpt>
      <trkpt lat="47.46402" lon="6.7828">
        <ele>386</ele>
        <time>2015-03-01T09:17:48.000Z</time>
      </trkpt>
      <trkpt lat="47.46405" lon="6.78278">
        <ele>385</ele>
        <time>2015-03-01T09:17:49.000Z</time>
      </trkpt>
      <trkpt lat="47.46409" lon="6.78277">
        <ele>385</ele>
        <time>2015-03-01T09:17:50.000Z</time>
      </trkpt>
      <trkpt lat="47.46412" lon="6.78277">
        <ele>385</ele>
        <time>2015-03-01T09:17:50.999Z</time>
      </trkpt>
      <trkpt lat="47.46415" lon="6.78277">
        <ele>385</ele>
        <time>2015-03-01T09:17:52.000Z</time>
      </trkpt>
      <trkpt lat="47.46418" lon="6.78278">
        <ele>382</ele>
        <time>2015-03-01T09:17:53.000Z</time>
      </trkpt>
      <trkpt lat="47.4642" lon="6.78278">
        <ele>382</ele>
        <time>2015-03-01T09:17:54.000Z</time>
      </trkpt>
      <trkpt lat="47.46422" lon="6.78278">
        <ele>382</ele>
        <time>2015-03-01T09:17:55.000Z</time>
      </trkpt>
      <trkpt lat="47.46424" lon="6.78279">
        <ele>382</ele>
        <time>2015-03-01T09:17:56.000Z</time>
      </trkpt>
      <trkpt lat="47.46426" lon="6.7828">
        <ele>383</ele>
        <time>2015-03-01T09:17:57.000Z</time>
      </trkpt>
      <trkpt lat="47.46429" lon="6.78283">
        <ele>383</ele>
        <time>2015-03-01T09:17:58.000Z</time>
      </trkpt>
      <trkpt lat="47.46431" lon="6.78285">
        <ele>383</ele>
        <time>2015-03-01T09:17:59.000Z</time>
      </trkpt>
      <trkpt lat="47.46433" lon="6.78287">
        <ele>383</ele>
        <time>2015-03-01T09:18:00.000Z</time>
      </trkpt>
      <trkpt lat="47.46435" lon="6.78289">
        <ele>383</ele>
        <time>2015-03-01T09:18:01.000Z</time>
      </trkpt>
      <trkpt lat="47.46439" lon="6.78292">
        <ele>383</ele>
        <time>2015-03-01T09:18:04.000Z</time>
      </trkpt>
      <trkpt lat="47.4644" lon="6.78293">
        <ele>383</ele>
        <time>2015-03-01T09:18:05.000Z</time>
      </trkpt>
      <trkpt lat="47.46444" lon="6.78293">
        <ele>383</ele>
        <time>2015-03-01T09:18:07.000Z</time>
      </trkpt>
      <trkpt lat="47.46445" lon="6.78292">
        <ele>383</ele>
        <time>2015-03-01T09:18:08.000Z</time>
      </trkpt>
      <trkpt lat="47.46448" lon="6.78296">
        <ele>383</ele>
        <time>2015-03-01T09:18:35.000Z</time>
      </trkpt>
      <trkpt lat="47.46448" lon="6.78296">
        <ele>383</ele>
        <time>2015-03-01T09:18:36.000Z</time>
      </trkpt>
      <trkpt lat="47.46448" lon="6.78303">
        <ele>384</ele>
        <time>2015-03-01T09:19:10.000Z</time>
      </trkpt>
      <trkpt lat="47.46447" lon="6.78304">
        <ele>384</ele>
        <time>2015-03-01T09:19:11.000Z</time>
      </trkpt>
      <trkpt lat="47.46443" lon="6.78306">
        <ele>384</ele>
        <time>2015-03-01T09:19:19.000Z</time>
      </trkpt>
      <trkpt lat="47.46443" lon="6.78307">
        <ele>384</ele>
        <time>2015-03-01T09:19:20.000Z</time>
      </trkpt>
      <trkpt lat="47.46439" lon="6.78308">
        <ele>384</ele>
        <time>2015-03-01T09:19:28.000Z</time>
      </trkpt>
      <trkpt lat="47.46438" lon="6.78308">
        <ele>384</ele>
        <time>2015-03-01T09:19:29.000Z</time>
      </trkpt>
      <trkpt lat="47.46434" lon="6.78306">
        <ele>384</ele>
        <time>2015-03-01T09:19:36.000Z</time>
      </trkpt>
      <trkpt lat="47.46433" lon="6.78307">
        <ele>384</ele>
        <time>2015-03-01T09:19:37.000Z</time>
      </trkpt>
      <trkpt lat="47.46433" lon="6.78302">
        <ele>384</ele>
        <time>2015-03-01T09:19:45.000Z</time>
      </trkpt>
      <trkpt lat="47.46432" lon="6.783">
        <ele>384</ele>
        <time>2015-03-01T09:19:46.000Z</time>
      </trkpt>
      <trkpt lat="47.46431" lon="6.78297">
        <ele>384</ele>
        <time>2015-03-01T09:19:47.000Z</time>
      </trkpt>
      <trkpt lat="47.4643" lon="6.78294">
        <ele>383</ele>
        <time>2015-03-01T09:19:48.000Z</time>
      </trkpt>
      <trkpt lat="47.46428" lon="6.78291">
        <ele>383</ele>
        <time>2015-03-01T09:19:49.000Z</time>
      </trkpt>
      <trkpt lat="47.46427" lon="6.78288">
        <ele>383</ele>
        <time>2015-03-01T09:19:50.000Z</time>
      </trkpt>
      <trkpt lat="47.46425" lon="6.78283">
        <ele>383</ele>
        <time>2015-03-01T09:19:52.000Z</time>
      </trkpt>
      <trkpt lat="47.46423" lon="6.78281">
        <ele>383</ele>
        <time>2015-03-01T09:19:53.000Z</time>
      </trkpt>
      <trkpt lat="47.46421" lon="6.7828">
        <ele>383</ele>
        <time>2015-03-01T09:19:54.000Z</time>
      </trkpt>
      <trkpt lat="47.46418" lon="6.7828">
        <ele>383</ele>
        <time>2015-03-01T09:19:55.000Z</time>
      </trkpt>
      <trkpt lat="47.46415" lon="6.78281">
        <ele>385</ele>
        <time>2015-03-01T09:19:56.000Z</time>
      </trkpt>
      <trkpt lat="47.46412" lon="6.78281">
        <ele>385</ele>
        <time>2015-03-01T09:19:57.000Z</time>
      </trkpt>
      <trkpt lat="47.46409" lon="6.78281">
        <ele>385</ele>
        <time>2015-03-01T09:19:58.000Z</time>
      </trkpt>
      <trkpt lat="47.46407" lon="6.78281">
        <ele>385</ele>
        <time>2015-03-01T09:19:59.000Z</time>
      </trkpt>
      <trkpt lat="47.46404" lon="6.78281">
        <ele>385</ele>
        <time>2015-03-01T09:20:00.000Z</time>
      </trkpt>
      <trkpt lat="47.46402" lon="6.78282">
        <ele>386</ele>
        <time>2015-03-01T09:20:01.000Z</time>
      </trkpt>
      <trkpt lat="47.46398" lon="6.78284">
        <ele>386</ele>
        <time>2015-03-01T09:20:03.000Z</time>
      </trkpt>
      <trkpt lat="47.46397" lon="6.78285">
        <ele>386</ele>
        <time>2015-03-01T09:20:04.000Z</time>
      </trkpt>
      <trkpt lat="47.46395" lon="6.78288">
        <ele>386</ele>
        <time>2015-03-01T09:20:07.001Z</time>
      </trkpt>
      <trkpt lat="47.46391" lon="6.78285">
        <ele>386</ele>
        <time>2015-03-01T09:20:08.000Z</time>
      </trkpt>
      <trkpt lat="47.46388" lon="6.78285">
        <ele>386</ele>
        <time>2015-03-01T09:20:09.000Z</time>
      </trkpt>
      <trkpt lat="47.46386" lon="6.78285">
        <ele>387</ele>
        <time>2015-03-01T09:20:10.000Z</time>
      </trkpt>
      <trkpt lat="47.46383" lon="6.78285">
        <ele>387</ele>
        <time>2015-03-01T09:20:11.000Z</time>
      </trkpt>
      <trkpt lat="47.4638" lon="6.78286">
        <ele>387</ele>
        <time>2015-03-01T09:20:12.000Z</time>
      </trkpt>
      <trkpt lat="47.46377" lon="6.78288">
        <ele>387</ele>
        <time>2015-03-01T09:20:13.000Z</time>
      </trkpt>
      <trkpt lat="47.46372" lon="6.78292">
        <ele>387</ele>
        <time>2015-03-01T09:20:14.000Z</time>
      </trkpt>
      <trkpt lat="47.46368" lon="6.78294">
        <ele>388</ele>
        <time>2015-03-01T09:20:15.000Z</time>
      </trkpt>
      <trkpt lat="47.46367" lon="6.78294">
        <ele>388</ele>
        <time>2015-03-01T09:20:16.000Z</time>
      </trkpt>
      <trkpt lat="47.46364" lon="6.78295">
        <ele>388</ele>
        <time>2015-03-01T09:20:16.999Z</time>
      </trkpt>
      <trkpt lat="47.46361" lon="6.78294">
        <ele>388</ele>
        <time>2015-03-01T09:20:18.000Z</time>
      </trkpt>
      <trkpt lat="47.46359" lon="6.78295">
        <ele>388</ele>
        <time>2015-03-01T09:20:18.999Z</time>
      </trkpt>
      <trkpt lat="47.46354" lon="6.78294">
        <ele>388</ele>
        <time>2015-03-01T09:20:20.000Z</time>
      </trkpt>
      <trkpt lat="47.46351" lon="6.78293">
        <ele>388</ele>
        <time>2015-03-01T09:20:22.000Z</time>
      </trkpt>
      <trkpt lat="47.46348" lon="6.78294">
        <ele>388</ele>
        <time>2015-03-01T09:20:23.000Z</time>
      </trkpt>
      <trkpt lat="47.46345" lon="6.78294">
        <ele>388</ele>
        <time>2015-03-01T09:20:24.000Z</time>
      </trkpt>
      <trkpt lat="47.46342" lon="6.78294">
        <ele>388</ele>
        <time>2015-03-01T09:20:25.000Z</time>
      </trkpt>
      <trkpt lat="47.46339" lon="6.78294">
        <ele>389</ele>
        <time>2015-03-01T09:20:26.000Z</time>
      </trkpt>
      <trkpt lat="47.46335" lon="6.78295">
        <ele>389</ele>
        <time>2015-03-01T09:20:27.000Z</time>
      </trkpt>
      <trkpt lat="47.46332" lon="6.78295">
        <ele>394</ele>
        <time>2015-03-01T09:20:28.000Z</time>
      </trkpt>
      <trkpt lat="47.46329" lon="6.78295">
        <ele>394</ele>
        <time>2015-03-01T09:20:29.001Z</time>
      </trkpt>
      <trkpt lat="47.46326" lon="6.78295">
        <ele>394</ele>
        <time>2015-03-01T09:20:30.000Z</time>
      </trkpt>
      <trkpt lat="47.46324" lon="6.78295">
        <ele>394</ele>
        <time>2015-03-01T09:20:31.000Z</time>
      </trkpt>
      <trkpt lat="47.4632" lon="6.78294">
        <ele>394</ele>
        <time>2015-03-01T09:20:32.000Z</time>
      </trkpt>
      <trkpt lat="47.46318" lon="6.78295">
        <ele>395</ele>
        <time>2015-03-01T09:20:33.000Z</time>
      </trkpt>
      <trkpt lat="47.46315" lon="6.78295">
        <ele>395</ele>
        <time>2015-03-01T09:20:33.999Z</time>
      </trkpt>
      <trkpt lat="47.46311" lon="6.78297">
        <ele>395</ele>
        <time>2015-03-01T09:20:35.000Z</time>
      </trkpt>
      <trkpt lat="47.46308" lon="6.78299">
        <ele>395</ele>
        <time>2015-03-01T09:20:36.000Z</time>
      </trkpt>
      <trkpt lat="47.46305" lon="6.78299">
        <ele>395</ele>
        <time>2015-03-01T09:20:37.000Z</time>
      </trkpt>
      <trkpt lat="47.46302" lon="6.78299">
        <ele>396</ele>
        <time>2015-03-01T09:20:38.000Z</time>
      </trkpt>
      <trkpt lat="47.46298" lon="6.78299">
        <ele>396</ele>
        <time>2015-03-01T09:20:39.000Z</time>
      </trkpt>
      <trkpt lat="47.46295" lon="6.783">
        <ele>396</ele>
        <time>2015-03-01T09:20:40.000Z</time>
      </trkpt>
      <trkpt lat="47.46293" lon="6.78301">
        <ele>396</ele>
        <time>2015-03-01T09:20:41.000Z</time>
      </trkpt>
      <trkpt lat="47.4629" lon="6.78302">
        <ele>396</ele>
        <time>2015-03-01T09:20:42.000Z</time>
      </trkpt>
      <trkpt lat="47.46288" lon="6.78303">
        <ele>396</ele>
        <time>2015-03-01T09:20:43.000Z</time>
      </trkpt>
      <trkpt lat="47.46284" lon="6.78303">
        <ele>397</ele>
        <time>2015-03-01T09:20:44.000Z</time>
      </trkpt>
      <trkpt lat="47.46281" lon="6.78303">
        <ele>397</ele>
        <time>2015-03-01T09:20:45.000Z</time>
      </trkpt>
      <trkpt lat="47.46278" lon="6.78303">
        <ele>397</ele>
        <time>2015-03-01T09:20:46.000Z</time>
      </trkpt>
      <trkpt lat="47.46275" lon="6.78304">
        <ele>397</ele>
        <time>2015-03-01T09:20:47.000Z</time>
      </trkpt>
      <trkpt lat="47.46271" lon="6.78304">
        <ele>398</ele>
        <time>2015-03-01T09:20:48.000Z</time>
      </trkpt>
      <trkpt lat="47.46269" lon="6.78305">
        <ele>398</ele>
        <time>2015-03-01T09:20:49.000Z</time>
      </trkpt>
      <trkpt lat="47.46266" lon="6.78305">
        <ele>398</ele>
        <time>2015-03-01T09:20:50.000Z</time>
      </trkpt>
      <trkpt lat="47.46264" lon="6.78305">
        <ele>398</ele>
        <time>2015-03-01T09:20:51.000Z</time>
      </trkpt>
      <trkpt lat="47.46259" lon="6.78306">
        <ele>398</ele>
        <time>2015-03-01T09:20:53.000Z</time>
      </trkpt>
      <trkpt lat="47.46257" lon="6.78306">
        <ele>398</ele>
        <time>2015-03-01T09:20:53.999Z</time>
      </trkpt>
      <trkpt lat="47.46254" lon="6.78306">
        <ele>399</ele>
        <time>2015-03-01T09:20:55.000Z</time>
      </trkpt>
      <trkpt lat="47.4625" lon="6.78307">
        <ele>399</ele>
        <time>2015-03-01T09:20:56.000Z</time>
      </trkpt>
      <trkpt lat="47.46247" lon="6.78308">
        <ele>404</ele>
        <time>2015-03-01T09:20:57.000Z</time>
      </trkpt>
      <trkpt lat="47.46244" lon="6.78309">
        <ele>404</ele>
        <time>2015-03-01T09:20:58.000Z</time>
      </trkpt>
      <trkpt lat="47.4624" lon="6.7831">
        <ele>404</ele>
        <time>2015-03-01T09:20:59.000Z</time>
      </trkpt>
      <trkpt lat="47.46238" lon="6.7831">
        <ele>404</ele>
        <time>2015-03-01T09:21:00.000Z</time>
      </trkpt>
      <trkpt lat="47.46235" lon="6.78311">
        <ele>404</ele>
        <time>2015-03-01T09:21:01.000Z</time>
      </trkpt>
      <trkpt lat="47.46232" lon="6.78313">
        <ele>404</ele>
        <time>2015-03-01T09:21:01.999Z</time>
      </trkpt>
      <trkpt lat="47.4623" lon="6.78313">
        <ele>404</ele>
        <time>2015-03-01T09:21:03.000Z</time>
      </trkpt>
      <trkpt lat="47.46227" lon="6.78314">
        <ele>404</ele>
        <time>2015-03-01T09:21:04.000Z</time>
      </trkpt>
      <trkpt lat="47.46225" lon="6.78315">
        <ele>405</ele>
        <time>2015-03-01T09:21:05.000Z</time>
      </trkpt>
      <trkpt lat="47.46222" lon="6.78316">
        <ele>405</ele>
        <time>2015-03-01T09:21:05.999Z</time>
      </trkpt>
      <trkpt lat="47.46219" lon="6.78317">
        <ele>405</ele>
        <time>2015-03-01T09:21:06.999Z</time>
      </trkpt>
      <trkpt lat="47.46216" lon="6.78318">
        <ele>405</ele>
        <time>2015-03-01T09:21:08.000Z</time>
      </trkpt>
      <trkpt lat="47.46214" lon="6.78319">
        <ele>405</ele>
        <time>2015-03-01T09:21:09.000Z</time>
      </trkpt>
      <trkpt lat="47.46212" lon="6.7832">
        <ele>405</ele>
        <time>2015-03-01T09:21:10.000Z</time>
      </trkpt>
      <trkpt lat="47.46207" lon="6.78321">
        <ele>405</ele>
        <time>2015-03-01T09:21:12.000Z</time>
      </trkpt>
      <trkpt lat="47.46205" lon="6.78321">
        <ele>406</ele>
        <time>2015-03-01T09:21:13.000Z</time>
      </trkpt>
      <trkpt lat="47.46201" lon="6.7832">
        <ele>406</ele>
        <time>2015-03-01T09:21:15.000Z</time>
      </trkpt>
      <trkpt lat="47.46199" lon="6.7832">
        <ele>406</ele>
        <time>2015-03-01T09:21:16.000Z</time>
      </trkpt>
      <trkpt lat="47.46196" lon="6.7832">
        <ele>406</ele>
        <time>2015-03-01T09:21:18.000Z</time>
      </trkpt>
      <trkpt lat="47.46194" lon="6.78321">
        <ele>406</ele>
        <time>2015-03-01T09:21:19.000Z</time>
      </trkpt>
      <trkpt lat="47.4619" lon="6.78321">
        <ele>406</ele>
        <time>2015-03-01T09:21:21.000Z</time>
      </trkpt>
      <trkpt lat="47.46188" lon="6.78321">
        <ele>406</ele>
        <time>2015-03-01T09:21:22.000Z</time>
      </trkpt>
      <trkpt lat="47.46184" lon="6.78322">
        <ele>407</ele>
        <time>2015-03-01T09:21:24.000Z</time>
      </trkpt>
      <trkpt lat="47.46182" lon="6.78323">
        <ele>407</ele>
        <time>2015-03-01T09:21:25.000Z</time>
      </trkpt>
      <trkpt lat="47.46179" lon="6.78323">
        <ele>407</ele>
        <time>2015-03-01T09:21:26.000Z</time>
      </trkpt>
      <trkpt lat="47.46177" lon="6.78324">
        <ele>407</ele>
        <time>2015-03-01T09:21:27.000Z</time>
      </trkpt>
      <trkpt lat="47.46173" lon="6.78324">
        <ele>407</ele>
        <time>2015-03-01T09:21:29.000Z</time>
      </trkpt>
      <trkpt lat="47.46171" lon="6.78323">
        <ele>407</ele>
        <time>2015-03-01T09:21:30.000Z</time>
      </trkpt>
      <trkpt lat="47.46167" lon="6.78323">
        <ele>407</ele>
        <time>2015-03-01T09:21:32.000Z</time>
      </trkpt>
      <trkpt lat="47.46166" lon="6.78322">
        <ele>409</ele>
        <time>2015-03-01T09:21:33.000Z</time>
      </trkpt>
      <trkpt lat="47.46162" lon="6.78322">
        <ele>409</ele>
        <time>2015-03-01T09:21:35.000Z</time>
      </trkpt>
      <trkpt lat="47.46159" lon="6.78323">
        <ele>409</ele>
        <time>2015-03-01T09:21:36.000Z</time>
      </trkpt>
      <trkpt lat="47.46156" lon="6.78324">
        <ele>409</ele>
        <time>2015-03-01T09:21:37.000Z</time>
      </trkpt>
      <trkpt lat="47.46153" lon="6.78325">
        <ele>409</ele>
        <time>2015-03-01T09:21:38.000Z</time>
      </trkpt>
      <trkpt lat="47.4615" lon="6.78326">
        <ele>409</ele>
        <time>2015-03-01T09:21:39.000Z</time>
      </trkpt>
      <trkpt lat="47.46147" lon="6.78327">
        <ele>409</ele>
        <time>2015-03-01T09:21:40.000Z</time>
      </trkpt>
      <trkpt lat="47.46144" lon="6.78328">
        <ele>409</ele>
        <time>2015-03-01T09:21:41.000Z</time>
      </trkpt>
      <trkpt lat="47.46141" lon="6.78328">
        <ele>409</ele>
        <time>2015-03-01T09:21:42.000Z</time>
      </trkpt>
      <trkpt lat="47.46138" lon="6.78328">
        <ele>409</ele>
        <time>2015-03-01T09:21:43.000Z</time>
      </trkpt>
      <trkpt lat="47.46136" lon="6.78328">
        <ele>409</ele>
        <time>2015-03-01T09:21:44.000Z</time>
      </trkpt>
      <trkpt lat="47.46133" lon="6.78327">
        <ele>410</ele>
        <time>2015-03-01T09:21:47.000Z</time>
      </trkpt>
      <trkpt lat="47.46132" lon="6.78328">
        <ele>410</ele>
        <time>2015-03-01T09:21:48.000Z</time>
      </trkpt>
      <trkpt lat="47.4613" lon="6.78328">
        <ele>410</ele>
        <time>2015-03-01T09:21:49.000Z</time>
      </trkpt>
      <trkpt lat="47.46127" lon="6.7833">
        <ele>410</ele>
        <time>2015-03-01T09:21:50.000Z</time>
      </trkpt>
      <trkpt lat="47.46123" lon="6.78331">
        <ele>410</ele>
        <time>2015-03-01T09:21:51.000Z</time>
      </trkpt>
      <trkpt lat="47.4612" lon="6.78332">
        <ele>410</ele>
        <time>2015-03-01T09:21:52.000Z</time>
      </trkpt>
      <trkpt lat="47.46116" lon="6.78334">
        <ele>409</ele>
        <time>2015-03-01T09:21:53.000Z</time>
      </trkpt>
      <trkpt lat="47.46113" lon="6.78336">
        <ele>409</ele>
        <time>2015-03-01T09:21:54.000Z</time>
      </trkpt>
      <trkpt lat="47.4611" lon="6.78337">
        <ele>409</ele>
        <time>2015-03-01T09:21:55.000Z</time>
      </trkpt>
      <trkpt lat="47.46107" lon="6.78339">
        <ele>409</ele>
        <time>2015-03-01T09:21:56.000Z</time>
      </trkpt>
      <trkpt lat="47.46103" lon="6.78339">
        <ele>409</ele>
        <time>2015-03-01T09:21:58.000Z</time>
      </trkpt>
      <trkpt lat="47.46101" lon="6.7834">
        <ele>409</ele>
        <time>2015-03-01T09:21:59.000Z</time>
      </trkpt>
      <trkpt lat="47.46097" lon="6.78341">
        <ele>409</ele>
        <time>2015-03-01T09:22:01.000Z</time>
      </trkpt>
      <trkpt lat="47.46094" lon="6.78342">
        <ele>409</ele>
        <time>2015-03-01T09:22:02.000Z</time>
      </trkpt>
      <trkpt lat="47.46091" lon="6.78343">
        <ele>409</ele>
        <time>2015-03-01T09:22:03.000Z</time>
      </trkpt>
      <trkpt lat="47.46088" lon="6.78344">
        <ele>409</ele>
        <time>2015-03-01T09:22:04.000Z</time>
      </trkpt>
      <trkpt lat="47.46085" lon="6.78345">
        <ele>409</ele>
        <time>2015-03-01T09:22:05.000Z</time>
      </trkpt>
      <trkpt lat="47.46082" lon="6.78347">
        <ele>407</ele>
        <time>2015-03-01T09:22:06.000Z</time>
      </trkpt>
      <trkpt lat="47.4608" lon="6.78348">
        <ele>407</ele>
        <time>2015-03-01T09:22:07.000Z</time>
      </trkpt>
      <trkpt lat="47.46077" lon="6.7835">
        <ele>407</ele>
        <time>2015-03-01T09:22:08.000Z</time>
      </trkpt>
      <trkpt lat="47.46074" lon="6.78351">
        <ele>407</ele>
        <time>2015-03-01T09:22:09.000Z</time>
      </trkpt>
      <trkpt lat="47.46072" lon="6.78353">
        <ele>407</ele>
        <time>2015-03-01T09:22:10.000Z</time>
      </trkpt>
      <trkpt lat="47.46069" lon="6.78354">
        <ele>407</ele>
        <time>2015-03-01T09:22:11.000Z</time>
      </trkpt>
      <trkpt lat="47.46067" lon="6.78356">
        <ele>406</ele>
        <time>2015-03-01T09:22:12.000Z</time>
      </trkpt>
      <trkpt lat="47.46065" lon="6.78358">
        <ele>406</ele>
        <time>2015-03-01T09:22:13.000Z</time>
      </trkpt>
      <trkpt lat="47.46063" lon="6.7836">
        <ele>406</ele>
        <time>2015-03-01T09:22:14.000Z</time>
      </trkpt>
      <trkpt lat="47.46061" lon="6.78362">
        <ele>406</ele>
        <time>2015-03-01T09:22:15.000Z</time>
      </trkpt>
      <trkpt lat="47.46058" lon="6.78364">
        <ele>406</ele>
        <time>2015-03-01T09:22:16.000Z</time>
      </trkpt>
      <trkpt lat="47.46055" lon="6.78365">
        <ele>406</ele>
        <time>2015-03-01T09:22:17.000Z</time>
      </trkpt>
      <trkpt lat="47.46052" lon="6.78366">
        <ele>406</ele>
        <time>2015-03-01T09:22:18.000Z</time>
      </trkpt>
      <trkpt lat="47.4605" lon="6.78367">
        <ele>406</ele>
        <time>2015-03-01T09:22:19.000Z</time>
      </trkpt>
      <trkpt lat="47.46047" lon="6.78369">
        <ele>406</ele>
        <time>2015-03-01T09:22:20.000Z</time>
      </trkpt>
      <trkpt lat="47.46044" lon="6.78372">
        <ele>406</ele>
        <time>2015-03-01T09:22:21.000Z</time>
      </trkpt>
      <trkpt lat="47.46042" lon="6.78375">
        <ele>405</ele>
        <time>2015-03-01T09:22:22.000Z</time>
      </trkpt>
      <trkpt lat="47.46039" lon="6.78378">
        <ele>405</ele>
        <time>2015-03-01T09:22:23.000Z</time>
      </trkpt>
      <trkpt lat="47.46036" lon="6.78382">
        <ele>405</ele>
        <time>2015-03-01T09:22:24.000Z</time>
      </trkpt>
      <trkpt lat="47.46033" lon="6.78386">
        <ele>405</ele>
        <time>2015-03-01T09:22:25.000Z</time>
      </trkpt>
      <trkpt lat="47.46029" lon="6.78389">
        <ele>405</ele>
        <time>2015-03-01T09:22:26.000Z</time>
      </trkpt>
      <trkpt lat="47.46026" lon="6.78392">
        <ele>405</ele>
        <time>2015-03-01T09:22:27.000Z</time>
      </trkpt>
      <trkpt lat="47.46023" lon="6.78395">
        <ele>405</ele>
        <time>2015-03-01T09:22:28.000Z</time>
      </trkpt>
      <trkpt lat="47.4602" lon="6.78397">
        <ele>404</ele>
        <time>2015-03-01T09:22:29.000Z</time>
      </trkpt>
      <trkpt lat="47.46017" lon="6.78399">
        <ele>404</ele>
        <time>2015-03-01T09:22:30.000Z</time>
      </trkpt>
      <trkpt lat="47.46014" lon="6.78401">
        <ele>404</ele>
        <time>2015-03-01T09:22:31.000Z</time>
      </trkpt>
      <trkpt lat="47.46012" lon="6.78403">
        <ele>404</ele>
        <time>2015-03-01T09:22:32.000Z</time>
      </trkpt>
      <trkpt lat="47.4601" lon="6.78405">
        <ele>404</ele>
        <time>2015-03-01T09:22:33.000Z</time>
      </trkpt>
      <trkpt lat="47.46008" lon="6.78407">
        <ele>403</ele>
        <time>2015-03-01T09:22:34.000Z</time>
      </trkpt>
      <trkpt lat="47.46006" lon="6.78412">
        <ele>403</ele>
        <time>2015-03-01T09:22:36.000Z</time>
      </trkpt>
      <trkpt lat="47.46005" lon="6.78415">
        <ele>403</ele>
        <time>2015-03-01T09:22:37.000Z</time>
      </trkpt>
      <trkpt lat="47.46003" lon="6.78421">
        <ele>403</ele>
        <time>2015-03-01T09:22:40.000Z</time>
      </trkpt>
      <trkpt lat="47.46004" lon="6.78422">
        <ele>403</ele>
        <time>2015-03-01T09:22:41.000Z</time>
      </trkpt>
      <trkpt lat="47.46005" lon="6.78428">
        <ele>403</ele>
        <time>2015-03-01T09:22:45.000Z</time>
      </trkpt>
      <trkpt lat="47.46005" lon="6.78429">
        <ele>404</ele>
        <time>2015-03-01T09:22:46.000Z</time>
      </trkpt>
      <trkpt lat="47.46004" lon="6.78435">
        <ele>404</ele>
        <time>2015-03-01T09:22:51.000Z</time>
      </trkpt>
      <trkpt lat="47.46003" lon="6.78436">
        <ele>404</ele>
        <time>2015-03-01T09:22:52.000Z</time>
      </trkpt>
      <trkpt lat="47.46001" lon="6.78442">
        <ele>404</ele>
        <time>2015-03-01T09:22:55.000Z</time>
      </trkpt>
      <trkpt lat="47.46" lon="6.78444">
        <ele>404</ele>
        <time>2015-03-01T09:22:56.000Z</time>
      </trkpt>
      <trkpt lat="47.45998" lon="6.78449">
        <ele>396</ele>
        <time>2015-03-01T09:23:00.000Z</time>
      </trkpt>
      <trkpt lat="47.45999" lon="6.78452">
        <ele>396</ele>
        <time>2015-03-01T09:23:01.000Z</time>
      </trkpt>
      <trkpt lat="47.45997" lon="6.78458">
        <ele>396</ele>
        <time>2015-03-01T09:23:08.000Z</time>
      </trkpt>
      <trkpt lat="47.45996" lon="6.78458">
        <ele>396</ele>
        <time>2015-03-01T09:23:09.000Z</time>
      </trkpt>
      <trkpt lat="47.45992" lon="6.7846">
        <ele>396</ele>
        <time>2015-03-01T09:23:11.000Z</time>
      </trkpt>
      <trkpt lat="47.45991" lon="6.7846">
        <ele>395</ele>
        <time>2015-03-01T09:23:12.000Z</time>
      </trkpt>
      <trkpt lat="47.45995" lon="6.78461">
        <ele>396</ele>
        <time>2015-03-01T09:23:29.021Z</time>
      </trkpt>
      <trkpt lat="47.45996" lon="6.78462">
        <ele>396</ele>
        <time>2015-03-01T09:23:30.000Z</time>
      </trkpt>
      <trkpt lat="47.45995" lon="6.78468">
        <ele>396</ele>
        <time>2015-03-01T09:23:38.000Z</time>
      </trkpt>
      <trkpt lat="47.45999" lon="6.7847">
        <ele>396</ele>
        <time>2015-03-01T09:23:39.000Z</time>
      </trkpt>
      <trkpt lat="47.46002" lon="6.78472">
        <ele>404</ele>
        <time>2015-03-01T09:23:42.000Z</time>
      </trkpt>
      <trkpt lat="47.46005" lon="6.78473">
        <ele>404</ele>
        <time>2015-03-01T09:23:43.000Z</time>
      </trkpt>
      <trkpt lat="47.46008" lon="6.78477">
        <ele>404</ele>
        <time>2015-03-01T09:23:45.000Z</time>
      </trkpt>
      <trkpt lat="47.46009" lon="6.78479">
        <ele>403</ele>
        <time>2015-03-01T09:23:46.000Z</time>
      </trkpt>
      <trkpt lat="47.4601" lon="6.78485">
        <ele>403</ele>
        <time>2015-03-01T09:23:51.999Z</time>
      </trkpt>
      <trkpt lat="47.46011" lon="6.78488">
        <ele>403</ele>
        <time>2015-03-01T09:23:53.000Z</time>
      </trkpt>
      <trkpt lat="47.46013" lon="6.78491">
        <ele>403</ele>
        <time>2015-03-01T09:23:57.000Z</time>
      </trkpt>
      <trkpt lat="47.46015" lon="6.78494">
        <ele>403</ele>
        <time>2015-03-01T09:23:58.000Z</time>
      </trkpt>
      <trkpt lat="47.46019" lon="6.78496">
        <ele>403</ele>
        <time>2015-03-01T09:24:07.000Z</time>
      </trkpt>
      <trkpt lat="47.4602" lon="6.78496">
        <ele>404</ele>
        <time>2015-03-01T09:24:08.000Z</time>
      </trkpt>
      <trkpt lat="47.46024" lon="6.78494">
        <ele>404</ele>
        <time>2015-03-01T09:24:12.000Z</time>
      </trkpt>
      <trkpt lat="47.46026" lon="6.78494">
        <ele>404</ele>
        <time>2015-03-01T09:24:13.000Z</time>
      </trkpt>
      <trkpt lat="47.46029" lon="6.78495">
        <ele>405</ele>
        <time>2015-03-01T09:24:15.000Z</time>
      </trkpt>
      <trkpt lat="47.46031" lon="6.78496">
        <ele>405</ele>
        <time>2015-03-01T09:24:16.000Z</time>
      </trkpt>
      <trkpt lat="47.46033" lon="6.785">
        <ele>403</ele>
        <time>2015-03-01T09:24:18.000Z</time>
      </trkpt>
      <trkpt lat="47.46034" lon="6.78502">
        <ele>403</ele>
        <time>2015-03-01T09:24:18.999Z</time>
      </trkpt>
      <trkpt lat="47.46034" lon="6.78507">
        <ele>403</ele>
        <time>2015-03-01T09:24:24.998Z</time>
      </trkpt>
      <trkpt lat="47.46036" lon="6.7851">
        <ele>403</ele>
        <time>2015-03-01T09:24:26.000Z</time>
      </trkpt>
      <trkpt lat="47.46039" lon="6.78511">
        <ele>403</ele>
        <time>2015-03-01T09:24:31.999Z</time>
      </trkpt>
      <trkpt lat="47.4604" lon="6.78517">
        <ele>403</ele>
        <time>2015-03-01T09:24:33.000Z</time>
      </trkpt>
      <trkpt lat="47.46042" lon="6.78519">
        <ele>403</ele>
        <time>2015-03-01T09:24:34.000Z</time>
      </trkpt>
      <trkpt lat="47.46044" lon="6.78522">
        <ele>404</ele>
        <time>2015-03-01T09:24:35.000Z</time>
      </trkpt>
      <trkpt lat="47.46045" lon="6.78523">
        <ele>404</ele>
        <time>2015-03-01T09:24:35.999Z</time>
      </trkpt>
      <trkpt lat="47.46048" lon="6.78526">
        <ele>404</ele>
        <time>2015-03-01T09:24:37.000Z</time>
      </trkpt>
      <trkpt lat="47.4605" lon="6.78531">
        <ele>404</ele>
        <time>2015-03-01T09:24:41.000Z</time>
      </trkpt>
      <trkpt lat="47.4605" lon="6.78532">
        <ele>404</ele>
        <time>2015-03-01T09:24:42.000Z</time>
      </trkpt>
      <trkpt lat="47.46052" lon="6.78536">
        <ele>404</ele>
        <time>2015-03-01T09:24:45.000Z</time>
      </trkpt>
      <trkpt lat="47.46053" lon="6.78538">
        <ele>404</ele>
        <time>2015-03-01T09:24:46.000Z</time>
      </trkpt>
      <trkpt lat="47.46055" lon="6.78542">
        <ele>403</ele>
        <time>2015-03-01T09:24:48.000Z</time>
      </trkpt>
      <trkpt lat="47.46056" lon="6.78544">
        <ele>403</ele>
        <time>2015-03-01T09:24:49.000Z</time>
      </trkpt>
      <trkpt lat="47.46058" lon="6.78549">
        <ele>403</ele>
        <time>2015-03-01T09:24:51.000Z</time>
      </trkpt>
      <trkpt lat="47.4606" lon="6.78552">
        <ele>403</ele>
        <time>2015-03-01T09:24:52.000Z</time>
      </trkpt>
      <trkpt lat="47.46062" lon="6.78555">
        <ele>403</ele>
        <time>2015-03-01T09:24:53.000Z</time>
      </trkpt>
      <trkpt lat="47.46064" lon="6.78558">
        <ele>403</ele>
        <time>2015-03-01T09:24:54.001Z</time>
      </trkpt>
      <trkpt lat="47.46065" lon="6.78561">
        <ele>403</ele>
        <time>2015-03-01T09:24:55.000Z</time>
      </trkpt>
      <trkpt lat="47.46067" lon="6.78563">
        <ele>403</ele>
        <time>2015-03-01T09:24:56.000Z</time>
      </trkpt>
      <trkpt lat="47.46069" lon="6.78566">
        <ele>403</ele>
        <time>2015-03-01T09:24:57.000Z</time>
      </trkpt>
      <trkpt lat="47.46072" lon="6.78569">
        <ele>403</ele>
        <time>2015-03-01T09:24:58.000Z</time>
      </trkpt>
      <trkpt lat="47.46074" lon="6.78571">
        <ele>404</ele>
        <time>2015-03-01T09:24:59.000Z</time>
      </trkpt>
      <trkpt lat="47.46076" lon="6.78573">
        <ele>404</ele>
        <time>2015-03-01T09:25:00.000Z</time>
      </trkpt>
      <trkpt lat="47.46078" lon="6.78575">
        <ele>404</ele>
        <time>2015-03-01T09:25:01.000Z</time>
      </trkpt>
      <trkpt lat="47.4608" lon="6.78577">
        <ele>404</ele>
        <time>2015-03-01T09:25:02.000Z</time>
      </trkpt>
      <trkpt lat="47.46082" lon="6.78583">
        <ele>404</ele>
        <time>2015-03-01T09:25:06.000Z</time>
      </trkpt>
      <trkpt lat="47.46082" lon="6.78583">
        <ele>404</ele>
        <time>2015-03-01T09:25:07.000Z</time>
      </trkpt>
      <trkpt lat="47.46084" lon="6.78587">
        <ele>404</ele>
        <time>2015-03-01T09:25:09.000Z</time>
      </trkpt>
      <trkpt lat="47.46084" lon="6.78589">
        <ele>404</ele>
        <time>2015-03-01T09:25:10.000Z</time>
      </trkpt>
      <trkpt lat="47.46085" lon="6.78593">
        <ele>404</ele>
        <time>2015-03-01T09:25:11.000Z</time>
      </trkpt>
      <trkpt lat="47.46086" lon="6.78597">
        <ele>404</ele>
        <time>2015-03-01T09:25:12.000Z</time>
      </trkpt>
      <trkpt lat="47.46086" lon="6.78601">
        <ele>404</ele>
        <time>2015-03-01T09:25:13.000Z</time>
      </trkpt>
      <trkpt lat="47.46087" lon="6.78604">
        <ele>404</ele>
        <time>2015-03-01T09:25:14.000Z</time>
      </trkpt>
      <trkpt lat="47.46087" lon="6.78607">
        <ele>404</ele>
        <time>2015-03-01T09:25:15.000Z</time>
      </trkpt>
      <trkpt lat="47.46089" lon="6.78612">
        <ele>405</ele>
        <time>2015-03-01T09:25:16.000Z</time>
      </trkpt>
      <trkpt lat="47.4609" lon="6.78616">
        <ele>405</ele>
        <time>2015-03-01T09:25:17.000Z</time>
      </trkpt>
      <trkpt lat="47.46092" lon="6.7862">
        <ele>405</ele>
        <time>2015-03-01T09:25:18.000Z</time>
      </trkpt>
      <trkpt lat="47.46094" lon="6.78624">
        <ele>405</ele>
        <time>2015-03-01T09:25:19.000Z</time>
      </trkpt>
      <trkpt lat="47.46096" lon="6.78627">
        <ele>405</ele>
        <time>2015-03-01T09:25:20.000Z</time>
      </trkpt>
      <trkpt lat="47.46097" lon="6.78631">
        <ele>405</ele>
        <time>2015-03-01T09:25:21.000Z</time>
      </trkpt>
      <trkpt lat="47.46098" lon="6.78634">
        <ele>404</ele>
        <time>2015-03-01T09:25:22.000Z</time>
      </trkpt>
      <trkpt lat="47.461" lon="6.78639">
        <ele>404</ele>
        <time>2015-03-01T09:25:24.000Z</time>
      </trkpt>
      <trkpt lat="47.46102" lon="6.78642">
        <ele>404</ele>
        <time>2015-03-01T09:25:25.000Z</time>
      </trkpt>
      <trkpt lat="47.46103" lon="6.78645">
        <ele>404</ele>
        <time>2015-03-01T09:25:26.000Z</time>
      </trkpt>
      <trkpt lat="47.46104" lon="6.78648">
        <ele>404</ele>
        <time>2015-03-01T09:25:27.000Z</time>
      </trkpt>
      <trkpt lat="47.46106" lon="6.78653">
        <ele>404</ele>
        <time>2015-03-01T09:25:29.000Z</time>
      </trkpt>
      <trkpt lat="47.46107" lon="6.78655">
        <ele>404</ele>
        <time>2015-03-01T09:25:29.999Z</time>
      </trkpt>
      <trkpt lat="47.46108" lon="6.78661">
        <ele>404</ele>
        <time>2015-03-01T09:25:32.000Z</time>
      </trkpt>
      <trkpt lat="47.46109" lon="6.78664">
        <ele>404</ele>
        <time>2015-03-01T09:25:33.000Z</time>
      </trkpt>
      <trkpt lat="47.46109" lon="6.7867">
        <ele>405</ele>
        <time>2015-03-01T09:25:35.000Z</time>
      </trkpt>
      <trkpt lat="47.46109" lon="6.78674">
        <ele>405</ele>
        <time>2015-03-01T09:25:36.000Z</time>
      </trkpt>
      <trkpt lat="47.46109" lon="6.78677">
        <ele>405</ele>
        <time>2015-03-01T09:25:37.000Z</time>
      </trkpt>
      <trkpt lat="47.46109" lon="6.78681">
        <ele>405</ele>
        <time>2015-03-01T09:25:38.000Z</time>
      </trkpt>
      <trkpt lat="47.4611" lon="6.78685">
        <ele>405</ele>
        <time>2015-03-01T09:25:39.000Z</time>
      </trkpt>
      <trkpt lat="47.46111" lon="6.78688">
        <ele>405</ele>
        <time>2015-03-01T09:25:40.000Z</time>
      </trkpt>
      <trkpt lat="47.46112" lon="6.78692">
        <ele>405</ele>
        <time>2015-03-01T09:25:41.000Z</time>
      </trkpt>
      <trkpt lat="47.46113" lon="6.78695">
        <ele>405</ele>
        <time>2015-03-01T09:25:42.000Z</time>
      </trkpt>
      <trkpt lat="47.46114" lon="6.78701">
        <ele>405</ele>
        <time>2015-03-01T09:25:44.000Z</time>
      </trkpt>
      <trkpt lat="47.46114" lon="6.78705">
        <ele>405</ele>
        <time>2015-03-01T09:25:45.000Z</time>
      </trkpt>
      <trkpt lat="47.46114" lon="6.78708">
        <ele>405</ele>
        <time>2015-03-01T09:25:46.000Z</time>
      </trkpt>
      <trkpt lat="47.46114" lon="6.78712">
        <ele>405</ele>
        <time>2015-03-01T09:25:47.000Z</time>
      </trkpt>
      <trkpt lat="47.46112" lon="6.78718">
        <ele>405</ele>
        <time>2015-03-01T09:25:49.000Z</time>
      </trkpt>
      <trkpt lat="47.46112" lon="6.7872">
        <ele>405</ele>
        <time>2015-03-01T09:25:50.000Z</time>
      </trkpt>
      <trkpt lat="47.46114" lon="6.78724">
        <ele>405</ele>
        <time>2015-03-01T09:25:52.000Z</time>
      </trkpt>
      <trkpt lat="47.46115" lon="6.78726">
        <ele>405</ele>
        <time>2015-03-01T09:25:53.000Z</time>
      </trkpt>
      <trkpt lat="47.46118" lon="6.78729">
        <ele>405</ele>
        <time>2015-03-01T09:25:56.000Z</time>
      </trkpt>
      <trkpt lat="47.4612" lon="6.78729">
        <ele>405</ele>
        <time>2015-03-01T09:25:57.000Z</time>
      </trkpt>
      <trkpt lat="47.46123" lon="6.7873">
        <ele>406</ele>
        <time>2015-03-01T09:25:59.000Z</time>
      </trkpt>
      <trkpt lat="47.46124" lon="6.78732">
        <ele>406</ele>
        <time>2015-03-01T09:26:00.000Z</time>
      </trkpt>
      <trkpt lat="47.46125" lon="6.78738">
        <ele>406</ele>
        <time>2015-03-01T09:26:02.000Z</time>
      </trkpt>
      <trkpt lat="47.46125" lon="6.78742">
        <ele>406</ele>
        <time>2015-03-01T09:26:03.000Z</time>
      </trkpt>
      <trkpt lat="47.46127" lon="6.78747">
        <ele>406</ele>
        <time>2015-03-01T09:26:11.000Z</time>
      </trkpt>
      <trkpt lat="47.4613" lon="6.78754">
        <ele>406</ele>
        <time>2015-03-01T09:26:12.000Z</time>
      </trkpt>
      <trkpt lat="47.46133" lon="6.7876">
        <ele>406</ele>
        <time>2015-03-01T09:26:13.000Z</time>
      </trkpt>
      <trkpt lat="47.46136" lon="6.78765">
        <ele>407</ele>
        <time>2015-03-01T09:26:16.000Z</time>
      </trkpt>
      <trkpt lat="47.46136" lon="6.78768">
        <ele>407</ele>
        <time>2015-03-01T09:26:17.000Z</time>
      </trkpt>
      <trkpt lat="47.46136" lon="6.78774">
        <ele>407</ele>
        <time>2015-03-01T09:26:19.000Z</time>
      </trkpt>
      <trkpt lat="47.46136" lon="6.78775">
        <ele>407</ele>
        <time>2015-03-01T09:26:20.000Z</time>
      </trkpt>
      <trkpt lat="47.46137" lon="6.7878">
        <ele>407</ele>
        <time>2015-03-01T09:26:23.000Z</time>
      </trkpt>
      <trkpt lat="47.46138" lon="6.78781">
        <ele>407</ele>
        <time>2015-03-01T09:26:24.000Z</time>
      </trkpt>
      <trkpt lat="47.46142" lon="6.78784">
        <ele>407</ele>
        <time>2015-03-01T09:26:27.000Z</time>
      </trkpt>
      <trkpt lat="47.46144" lon="6.78786">
        <ele>407</ele>
        <time>2015-03-01T09:26:28.000Z</time>
      </trkpt>
      <trkpt lat="47.46144" lon="6.78792">
        <ele>407</ele>
        <time>2015-03-01T09:26:52.000Z</time>
      </trkpt>
      <trkpt lat="47.46142" lon="6.78793">
        <ele>407</ele>
        <time>2015-03-01T09:26:53.000Z</time>
      </trkpt>
      <trkpt lat="47.46139" lon="6.78796">
        <ele>407</ele>
        <time>2015-03-01T09:26:55.000Z</time>
      </trkpt>
      <trkpt lat="47.46138" lon="6.78798">
        <ele>407</ele>
        <time>2015-03-01T09:26:56.000Z</time>
      </trkpt>
      <trkpt lat="47.4613" lon="6.78806">
        <ele>406</ele>
        <time>2015-03-01T09:26:57.000Z</time>
      </trkpt>
      <trkpt lat="47.46126" lon="6.78808">
        <ele>406</ele>
        <time>2015-03-01T09:26:58.000Z</time>
      </trkpt>
      <trkpt lat="47.46124" lon="6.78809">
        <ele>406</ele>
        <time>2015-03-01T09:26:59.000Z</time>
      </trkpt>
      <trkpt lat="47.46125" lon="6.78815">
        <ele>406</ele>
        <time>2015-03-01T09:27:03.000Z</time>
      </trkpt>
      <trkpt lat="47.46122" lon="6.78816">
        <ele>406</ele>
        <time>2015-03-01T09:27:04.000Z</time>
      </trkpt>
      <trkpt lat="47.46119" lon="6.78815">
        <ele>406</ele>
        <time>2015-03-01T09:27:06.000Z</time>
      </trkpt>
      <trkpt lat="47.46116" lon="6.78816">
        <ele>406</ele>
        <time>2015-03-01T09:27:07.000Z</time>
      </trkpt>
      <trkpt lat="47.4612" lon="6.78819">
        <ele>406</ele>
        <time>2015-03-01T09:27:41.000Z</time>
      </trkpt>
      <trkpt lat="47.46121" lon="6.78819">
        <ele>406</ele>
        <time>2015-03-01T09:27:42.000Z</time>
      </trkpt>
      <trkpt lat="47.46123" lon="6.78823">
        <ele>406</ele>
        <time>2015-03-01T09:27:46.000Z</time>
      </trkpt>
      <trkpt lat="47.46123" lon="6.78826">
        <ele>406</ele>
        <time>2015-03-01T09:27:47.000Z</time>
      </trkpt>
      <trkpt lat="47.46123" lon="6.78831">
        <ele>406</ele>
        <time>2015-03-01T09:27:49.000Z</time>
      </trkpt>
      <trkpt lat="47.46123" lon="6.78834">
        <ele>405</ele>
        <time>2015-03-01T09:27:50.000Z</time>
      </trkpt>
      <trkpt lat="47.46124" lon="6.78838">
        <ele>405</ele>
        <time>2015-03-01T09:27:52.000Z</time>
      </trkpt>
      <trkpt lat="47.46124" lon="6.7884">
        <ele>405</ele>
        <time>2015-03-01T09:27:53.000Z</time>
      </trkpt>
      <trkpt lat="47.46122" lon="6.78846">
        <ele>405</ele>
        <time>2015-03-01T09:28:34.000Z</time>
      </trkpt>
      <trkpt lat="47.46121" lon="6.78846">
        <ele>405</ele>
        <time>2015-03-01T09:28:35.000Z</time>
      </trkpt>
      <trkpt lat="47.46118" lon="6.7885">
        <ele>405</ele>
        <time>2015-03-01T09:28:41.000Z</time>
      </trkpt>
      <trkpt lat="47.46118" lon="6.7885">
        <ele>405</ele>
        <time>2015-03-01T09:28:42.000Z</time>
      </trkpt>
      <trkpt lat="47.46114" lon="6.78849">
        <ele>405</ele>
        <time>2015-03-01T09:28:46.000Z</time>
      </trkpt>
      <trkpt lat="47.46113" lon="6.78848">
        <ele>405</ele>
        <time>2015-03-01T09:28:47.000Z</time>
      </trkpt>
      <trkpt lat="47.4611" lon="6.78844">
        <ele>405</ele>
        <time>2015-03-01T09:28:51.000Z</time>
      </trkpt>
      <trkpt lat="47.46108" lon="6.78844">
        <ele>405</ele>
        <time>2015-03-01T09:28:52.000Z</time>
      </trkpt>
      <trkpt lat="47.46104" lon="6.78842">
        <ele>405</ele>
        <time>2015-03-01T09:28:55.000Z</time>
      </trkpt>
      <trkpt lat="47.46103" lon="6.78842">
        <ele>405</ele>
        <time>2015-03-01T09:28:56.000Z</time>
      </trkpt>
      <trkpt lat="47.46099" lon="6.78839">
        <ele>404</ele>
        <time>2015-03-01T09:28:59.000Z</time>
      </trkpt>
      <trkpt lat="47.46098" lon="6.78838">
        <ele>404</ele>
        <time>2015-03-01T09:29:00.000Z</time>
      </trkpt>
      <trkpt lat="47.46097" lon="6.78832">
        <ele>405</ele>
        <time>2015-03-01T09:29:04.000Z</time>
      </trkpt>
      <trkpt lat="47.46097" lon="6.7883">
        <ele>405</ele>
        <time>2015-03-01T09:29:05.000Z</time>
      </trkpt>
      <trkpt lat="47.461" lon="6.78827">
        <ele>405</ele>
        <time>2015-03-01T09:29:08.000Z</time>
      </trkpt>
      <trkpt lat="47.46101" lon="6.78825">
        <ele>405</ele>
        <time>2015-03-01T09:29:09.000Z</time>
      </trkpt>
      <trkpt lat="47.46106" lon="6.78823">
        <ele>406</ele>
        <time>2015-03-01T09:29:13.000Z</time>
      </trkpt>
      <trkpt lat="47.46106" lon="6.78823">
        <ele>406</ele>
        <time>2015-03-01T09:29:14.000Z</time>
      </trkpt>
      <trkpt lat="47.46111" lon="6.78823">
        <ele>406</ele>
        <time>2015-03-01T09:29:17.000Z</time>
      </trkpt>
      <trkpt lat="47.46113" lon="6.78823">
        <ele>406</ele>
        <time>2015-03-01T09:29:18.000Z</time>
      </trkpt>
      <trkpt lat="47.46116" lon="6.78822">
        <ele>406</ele>
        <time>2015-03-01T09:29:20.000Z</time>
      </trkpt>
      <trkpt lat="47.46118" lon="6.7882">
        <ele>406</ele>
        <time>2015-03-01T09:29:21.000Z</time>
      </trkpt>
      <trkpt lat="47.46121" lon="6.78818">
        <ele>406</ele>
        <time>2015-03-01T09:29:23.000Z</time>
      </trkpt>
      <trkpt lat="47.46122" lon="6.78817">
        <ele>406</ele>
        <time>2015-03-01T09:29:24.000Z</time>
      </trkpt>
      <trkpt lat="47.46126" lon="6.78815">
        <ele>406</ele>
        <time>2015-03-01T09:29:26.000Z</time>
      </trkpt>
      <trkpt lat="47.46128" lon="6.78813">
        <ele>406</ele>
        <time>2015-03-01T09:29:27.000Z</time>
      </trkpt>
      <trkpt lat="47.4613" lon="6.7881">
        <ele>406</ele>
        <time>2015-03-01T09:29:29.000Z</time>
      </trkpt>
      <trkpt lat="47.46131" lon="6.78809">
        <ele>407</ele>
        <time>2015-03-01T09:29:30.000Z</time>
      </trkpt>
      <trkpt lat="47.46135" lon="6.78805">
        <ele>407</ele>
        <time>2015-03-01T09:29:31.000Z</time>
      </trkpt>
      <trkpt lat="47.46137" lon="6.78805">
        <ele>407</ele>
        <time>2015-03-01T09:29:32.000Z</time>
      </trkpt>
      <trkpt lat="47.46141" lon="6.78801">
        <ele>407</ele>
        <time>2015-03-01T09:29:35.000Z</time>
      </trkpt>
      <trkpt lat="47.46143" lon="6.78801">
        <ele>407</ele>
        <time>2015-03-01T09:29:36.000Z</time>
      </trkpt>
      <trkpt lat="47.46144" lon="6.78796">
        <ele>407</ele>
        <time>2015-03-01T09:29:41.000Z</time>
      </trkpt>
      <trkpt lat="47.46145" lon="6.78795">
        <ele>407</ele>
        <time>2015-03-01T09:29:42.000Z</time>
      </trkpt>
      <trkpt lat="47.46149" lon="6.78795">
        <ele>407</ele>
        <time>2015-03-01T09:29:46.000Z</time>
      </trkpt>
      <trkpt lat="47.4615" lon="6.78796">
        <ele>407</ele>
        <time>2015-03-01T09:29:47.000Z</time>
      </trkpt>
      <trkpt lat="47.46152" lon="6.78797">
        <ele>407</ele>
        <time>2015-03-01T09:29:47.998Z</time>
      </trkpt>
      <trkpt lat="47.46155" lon="6.78798">
        <ele>407</ele>
        <time>2015-03-01T09:29:49.000Z</time>
      </trkpt>
      <trkpt lat="47.46157" lon="6.78799">
        <ele>407</ele>
        <time>2015-03-01T09:29:50.000Z</time>
      </trkpt>
      <trkpt lat="47.4616" lon="6.78798">
        <ele>407</ele>
        <time>2015-03-01T09:29:51.000Z</time>
      </trkpt>
      <trkpt lat="47.46163" lon="6.78795">
        <ele>407</ele>
        <time>2015-03-01T09:29:53.000Z</time>
      </trkpt>
      <trkpt lat="47.46165" lon="6.78795">
        <ele>407</ele>
        <time>2015-03-01T09:29:53.999Z</time>
      </trkpt>
      <trkpt lat="47.46165" lon="6.7879">
        <ele>407</ele>
        <time>2015-03-01T09:29:55.000Z</time>
      </trkpt>
      <trkpt lat="47.46166" lon="6.78787">
        <ele>407</ele>
        <time>2015-03-01T09:29:56.000Z</time>
      </trkpt>
      <trkpt lat="47.46169" lon="6.78783">
        <ele>409</ele>
        <time>2015-03-01T09:29:59.000Z</time>
      </trkpt>
      <trkpt lat="47.4617" lon="6.78781">
        <ele>409</ele>
        <time>2015-03-01T09:30:00.000Z</time>
      </trkpt>
      <trkpt lat="47.46172" lon="6.78776">
        <ele>409</ele>
        <time>2015-03-01T09:30:03.000Z</time>
      </trkpt>
      <trkpt lat="47.46173" lon="6.78775">
        <ele>409</ele>
        <time>2015-03-01T09:30:04.000Z</time>
      </trkpt>
      <trkpt lat="47.46176" lon="6.78769">
        <ele>409</ele>
        <time>2015-03-01T09:30:08.000Z</time>
      </trkpt>
      <trkpt lat="47.46176" lon="6.78769">
        <ele>409</ele>
        <time>2015-03-01T09:30:09.000Z</time>
      </trkpt>
      <trkpt lat="47.46179" lon="6.78768">
        <ele>409</ele>
        <time>2015-03-01T09:30:11.000Z</time>
      </trkpt>
      <trkpt lat="47.4618" lon="6.78768">
        <ele>409</ele>
        <time>2015-03-01T09:30:12.000Z</time>
      </trkpt>
      <trkpt lat="47.46184" lon="6.78768">
        <ele>409</ele>
        <time>2015-03-01T09:30:14.000Z</time>
      </trkpt>
      <trkpt lat="47.46185" lon="6.78767">
        <ele>409</ele>
        <time>2015-03-01T09:30:15.000Z</time>
      </trkpt>
      <trkpt lat="47.46189" lon="6.78766">
        <ele>409</ele>
        <time>2015-03-01T09:30:18.000Z</time>
      </trkpt>
      <trkpt lat="47.4619" lon="6.78765">
        <ele>409</ele>
        <time>2015-03-01T09:30:18.999Z</time>
      </trkpt>
      <trkpt lat="47.46193" lon="6.78762">
        <ele>409</ele>
        <time>2015-03-01T09:30:22.000Z</time>
      </trkpt>
      <trkpt lat="47.46194" lon="6.78761">
        <ele>409</ele>
        <time>2015-03-01T09:30:23.000Z</time>
      </trkpt>
      <trkpt lat="47.46197" lon="6.7876">
        <ele>409</ele>
        <time>2015-03-01T09:30:25.000Z</time>
      </trkpt>
      <trkpt lat="47.46199" lon="6.78759">
        <ele>409</ele>
        <time>2015-03-01T09:30:26.000Z</time>
      </trkpt>
      <trkpt lat="47.46203" lon="6.78757">
        <ele>409</ele>
        <time>2015-03-01T09:30:29.000Z</time>
      </trkpt>
      <trkpt lat="47.46205" lon="6.78757">
        <ele>409</ele>
        <time>2015-03-01T09:30:30.000Z</time>
      </trkpt>
      <trkpt lat="47.46207" lon="6.78757">
        <ele>409</ele>
        <time>2015-03-01T09:30:31.000Z</time>
      </trkpt>
      <trkpt lat="47.4621" lon="6.78758">
        <ele>410</ele>
        <time>2015-03-01T09:30:32.000Z</time>
      </trkpt>
      <trkpt lat="47.46214" lon="6.78758">
        <ele>410</ele>
        <time>2015-03-01T09:30:34.000Z</time>
      </trkpt>
      <trkpt lat="47.46216" lon="6.78757">
        <ele>410</ele>
        <time>2015-03-01T09:30:35.000Z</time>
      </trkpt>
      <trkpt lat="47.4622" lon="6.78755">
        <ele>410</ele>
        <time>2015-03-01T09:30:37.000Z</time>
      </trkpt>
      <trkpt lat="47.46221" lon="6.78755">
        <ele>410</ele>
        <time>2015-03-01T09:30:38.000Z</time>
      </trkpt>
      <trkpt lat="47.46225" lon="6.78753">
        <ele>410</ele>
        <time>2015-03-01T09:30:40.000Z</time>
      </trkpt>
      <trkpt lat="47.46227" lon="6.78752">
        <ele>410</ele>
        <time>2015-03-01T09:30:41.000Z</time>
      </trkpt>
      <trkpt lat="47.4623" lon="6.78751">
        <ele>410</ele>
        <time>2015-03-01T09:30:43.000Z</time>
      </trkpt>
      <trkpt lat="47.46231" lon="6.7875">
        <ele>410</ele>
        <time>2015-03-01T09:30:44.000Z</time>
      </trkpt>
      <trkpt lat="47.46235" lon="6.78749">
        <ele>409</ele>
        <time>2015-03-01T09:30:47.000Z</time>
      </trkpt>
      <trkpt lat="47.46237" lon="6.78749">
        <ele>409</ele>
        <time>2015-03-01T09:30:48.000Z</time>
      </trkpt>
      <trkpt lat="47.4624" lon="6.78747">
        <ele>409</ele>
        <time>2015-03-01T09:30:52.999Z</time>
      </trkpt>
      <trkpt lat="47.46242" lon="6.78747">
        <ele>409</ele>
        <time>2015-03-01T09:30:54.000Z</time>
      </trkpt>
      <trkpt lat="47.46244" lon="6.78748">
        <ele>410</ele>
        <time>2015-03-01T09:30:56.000Z</time>
      </trkpt>
      <trkpt lat="47.46246" lon="6.78748">
        <ele>410</ele>
        <time>2015-03-01T09:30:57.000Z</time>
      </trkpt>
      <trkpt lat="47.4625" lon="6.78745">
        <ele>410</ele>
        <time>2015-03-01T09:31:02.000Z</time>
      </trkpt>
      <trkpt lat="47.4625" lon="6.78745">
        <ele>410</ele>
        <time>2015-03-01T09:31:03.000Z</time>
      </trkpt>
      <trkpt lat="47.46254" lon="6.78742">
        <ele>410</ele>
        <time>2015-03-01T09:31:24.000Z</time>
      </trkpt>
      <trkpt lat="47.46255" lon="6.78741">
        <ele>410</ele>
        <time>2015-03-01T09:31:25.000Z</time>
      </trkpt>
      <trkpt lat="47.46258" lon="6.7874">
        <ele>410</ele>
        <time>2015-03-01T09:31:27.000Z</time>
      </trkpt>
      <trkpt lat="47.46259" lon="6.78739">
        <ele>410</ele>
        <time>2015-03-01T09:31:28.000Z</time>
      </trkpt>
      <trkpt lat="47.46263" lon="6.78737">
        <ele>410</ele>
        <time>2015-03-01T09:31:33.000Z</time>
      </trkpt>
      <trkpt lat="47.46264" lon="6.78738">
        <ele>410</ele>
        <time>2015-03-01T09:31:34.000Z</time>
      </trkpt>
      <trkpt lat="47.46267" lon="6.78739">
        <ele>410</ele>
        <time>2015-03-01T09:31:42.000Z</time>
      </trkpt>
      <trkpt lat="47.46269" lon="6.78738">
        <ele>410</ele>
        <time>2015-03-01T09:31:43.000Z</time>
      </trkpt>
      <trkpt lat="47.46272" lon="6.78735">
        <ele>410</ele>
        <time>2015-03-01T09:31:45.000Z</time>
      </trkpt>
      <trkpt lat="47.46273" lon="6.78734">
        <ele>410</ele>
        <time>2015-03-01T09:31:46.000Z</time>
      </trkpt>
      <trkpt lat="47.46276" lon="6.78732">
        <ele>410</ele>
        <time>2015-03-01T09:31:47.000Z</time>
      </trkpt>
      <trkpt lat="47.46278" lon="6.78732">
        <ele>410</ele>
        <time>2015-03-01T09:31:48.000Z</time>
      </trkpt>
      <trkpt lat="47.46282" lon="6.7873">
        <ele>410</ele>
        <time>2015-03-01T09:31:50.000Z</time>
      </trkpt>
      <trkpt lat="47.46283" lon="6.78729">
        <ele>410</ele>
        <time>2015-03-01T09:31:51.000Z</time>
      </trkpt>
      <trkpt lat="47.46286" lon="6.78727">
        <ele>410</ele>
        <time>2015-03-01T09:31:53.000Z</time>
      </trkpt>
      <trkpt lat="47.46288" lon="6.78726">
        <ele>410</ele>
        <time>2015-03-01T09:31:54.000Z</time>
      </trkpt>
      <trkpt lat="47.46291" lon="6.78726">
        <ele>410</ele>
        <time>2015-03-01T09:31:56.000Z</time>
      </trkpt>
      <trkpt lat="47.46295" lon="6.78727">
        <ele>411</ele>
        <time>2015-03-01T09:31:57.000Z</time>
      </trkpt>
      <trkpt lat="47.46298" lon="6.78727">
        <ele>411</ele>
        <time>2015-03-01T09:31:58.000Z</time>
      </trkpt>
      <trkpt lat="47.46301" lon="6.78727">
        <ele>411</ele>
        <time>2015-03-01T09:31:59.000Z</time>
      </trkpt>
      <trkpt lat="47.46304" lon="6.78727">
        <ele>411</ele>
        <time>2015-03-01T09:32:00.000Z</time>
      </trkpt>
      <trkpt lat="47.46308" lon="6.78727">
        <ele>411</ele>
        <time>2015-03-01T09:32:01.000Z</time>
      </trkpt>
      <trkpt lat="47.46311" lon="6.78726">
        <ele>411</ele>
        <time>2015-03-01T09:32:02.000Z</time>
      </trkpt>
      <trkpt lat="47.46314" lon="6.78726">
        <ele>411</ele>
        <time>2015-03-01T09:32:03.000Z</time>
      </trkpt>
      <trkpt lat="47.46317" lon="6.78725">
        <ele>411</ele>
        <time>2015-03-01T09:32:04.000Z</time>
      </trkpt>
      <trkpt lat="47.46319" lon="6.78724">
        <ele>411</ele>
        <time>2015-03-01T09:32:05.000Z</time>
      </trkpt>
      <trkpt lat="47.46323" lon="6.78721">
        <ele>411</ele>
        <time>2015-03-01T09:32:07.000Z</time>
      </trkpt>
      <trkpt lat="47.46325" lon="6.78721">
        <ele>411</ele>
        <time>2015-03-01T09:32:08.000Z</time>
      </trkpt>
      <trkpt lat="47.46328" lon="6.7872">
        <ele>411</ele>
        <time>2015-03-01T09:32:09.999Z</time>
      </trkpt>
      <trkpt lat="47.46331" lon="6.7872">
        <ele>411</ele>
        <time>2015-03-01T09:32:11.000Z</time>
      </trkpt>
      <trkpt lat="47.46334" lon="6.7872">
        <ele>413</ele>
        <time>2015-03-01T09:32:14.999Z</time>
      </trkpt>
      <trkpt lat="47.46336" lon="6.78719">
        <ele>413</ele>
        <time>2015-03-01T09:32:16.000Z</time>
      </trkpt>
      <trkpt lat="47.46339" lon="6.78715">
        <ele>413</ele>
        <time>2015-03-01T09:32:18.000Z</time>
      </trkpt>
      <trkpt lat="47.46341" lon="6.78713">
        <ele>413</ele>
        <time>2015-03-01T09:32:19.000Z</time>
      </trkpt>
      <trkpt lat="47.46344" lon="6.78711">
        <ele>413</ele>
        <time>2015-03-01T09:32:20.000Z</time>
      </trkpt>
      <trkpt lat="47.46346" lon="6.7871">
        <ele>413</ele>
        <time>2015-03-01T09:32:21.000Z</time>
      </trkpt>
      <trkpt lat="47.4635" lon="6.78707">
        <ele>413</ele>
        <time>2015-03-01T09:32:23.000Z</time>
      </trkpt>
      <trkpt lat="47.46352" lon="6.78707">
        <ele>413</ele>
        <time>2015-03-01T09:32:24.000Z</time>
      </trkpt>
      <trkpt lat="47.46356" lon="6.78705">
        <ele>413</ele>
        <time>2015-03-01T09:32:26.000Z</time>
      </trkpt>
      <trkpt lat="47.46357" lon="6.78704">
        <ele>413</ele>
        <time>2015-03-01T09:32:27.000Z</time>
      </trkpt>
      <trkpt lat="47.4636" lon="6.787">
        <ele>413</ele>
        <time>2015-03-01T09:32:29.000Z</time>
      </trkpt>
      <trkpt lat="47.46362" lon="6.78698">
        <ele>413</ele>
        <time>2015-03-01T09:32:30.000Z</time>
      </trkpt>
      <trkpt lat="47.46364" lon="6.78696">
        <ele>413</ele>
        <time>2015-03-01T09:32:31.000Z</time>
      </trkpt>
      <trkpt lat="47.46366" lon="6.78695">
        <ele>413</ele>
        <time>2015-03-01T09:32:32.000Z</time>
      </trkpt>
      <trkpt lat="47.4637" lon="6.78693">
        <ele>413</ele>
        <time>2015-03-01T09:32:34.000Z</time>
      </trkpt>
      <trkpt lat="47.46372" lon="6.78692">
        <ele>413</ele>
        <time>2015-03-01T09:32:35.000Z</time>
      </trkpt>
      <trkpt lat="47.46377" lon="6.78691">
        <ele>413</ele>
        <time>2015-03-01T09:32:37.000Z</time>
      </trkpt>
      <trkpt lat="47.46379" lon="6.78691">
        <ele>413</ele>
        <time>2015-03-01T09:32:38.000Z</time>
      </trkpt>
      <trkpt lat="47.46382" lon="6.78691">
        <ele>413</ele>
        <time>2015-03-01T09:32:39.000Z</time>
      </trkpt>
      <trkpt lat="47.46384" lon="6.78691">
        <ele>413</ele>
        <time>2015-03-01T09:32:40.000Z</time>
      </trkpt>
      <trkpt lat="47.46387" lon="6.7869">
        <ele>413</ele>
        <time>2015-03-01T09:32:41.000Z</time>
      </trkpt>
      <trkpt lat="47.46389" lon="6.78688">
        <ele>414</ele>
        <time>2015-03-01T09:32:42.000Z</time>
      </trkpt>
      <trkpt lat="47.46392" lon="6.78686">
        <ele>414</ele>
        <time>2015-03-01T09:32:43.000Z</time>
      </trkpt>
      <trkpt lat="47.46394" lon="6.78685">
        <ele>414</ele>
        <time>2015-03-01T09:32:44.000Z</time>
      </trkpt>
      <trkpt lat="47.46397" lon="6.78684">
        <ele>414</ele>
        <time>2015-03-01T09:32:45.000Z</time>
      </trkpt>
      <trkpt lat="47.464" lon="6.78684">
        <ele>414</ele>
        <time>2015-03-01T09:32:46.000Z</time>
      </trkpt>
      <trkpt lat="47.46402" lon="6.78684">
        <ele>414</ele>
        <time>2015-03-01T09:32:47.000Z</time>
      </trkpt>
      <trkpt lat="47.46405" lon="6.78684">
        <ele>414</ele>
        <time>2015-03-01T09:32:48.000Z</time>
      </trkpt>
      <trkpt lat="47.46408" lon="6.78684">
        <ele>414</ele>
        <time>2015-03-01T09:32:49.000Z</time>
      </trkpt>
      <trkpt lat="47.46418" lon="6.78688">
        <ele>412</ele>
        <time>2015-03-01T09:32:50.000Z</time>
      </trkpt>
      <trkpt lat="47.46421" lon="6.7869">
        <ele>411</ele>
        <time>2015-03-01T09:32:52.000Z</time>
      </trkpt>
      <trkpt lat="47.46422" lon="6.78692">
        <ele>411</ele>
        <time>2015-03-01T09:32:53.000Z</time>
      </trkpt>
      <trkpt lat="47.46423" lon="6.78697">
        <ele>411</ele>
        <time>2015-03-01T09:32:54.000Z</time>
      </trkpt>
      <trkpt lat="47.46426" lon="6.78705">
        <ele>411</ele>
        <time>2015-03-01T09:32:55.000Z</time>
      </trkpt>
      <trkpt lat="47.46427" lon="6.7871">
        <ele>411</ele>
        <time>2015-03-01T09:32:56.000Z</time>
      </trkpt>
      <trkpt lat="47.46429" lon="6.78715">
        <ele>411</ele>
        <time>2015-03-01T09:32:57.000Z</time>
      </trkpt>
      <trkpt lat="47.46428" lon="6.7872">
        <ele>411</ele>
        <time>2015-03-01T09:32:58.000Z</time>
      </trkpt>
      <trkpt lat="47.46429" lon="6.78727">
        <ele>411</ele>
        <time>2015-03-01T09:32:59.000Z</time>
      </trkpt>
      <trkpt lat="47.46429" lon="6.78732">
        <ele>411</ele>
        <time>2015-03-01T09:33:00.000Z</time>
      </trkpt>
      <trkpt lat="47.46429" lon="6.78736">
        <ele>411</ele>
        <time>2015-03-01T09:33:01.000Z</time>
      </trkpt>
      <trkpt lat="47.46431" lon="6.78741">
        <ele>412</ele>
        <time>2015-03-01T09:33:02.000Z</time>
      </trkpt>
      <trkpt lat="47.46433" lon="6.78746">
        <ele>412</ele>
        <time>2015-03-01T09:33:03.000Z</time>
      </trkpt>
      <trkpt lat="47.46435" lon="6.7875">
        <ele>411</ele>
        <time>2015-03-01T09:33:04.000Z</time>
      </trkpt>
      <trkpt lat="47.46436" lon="6.78753">
        <ele>410</ele>
        <time>2015-03-01T09:33:05.000Z</time>
      </trkpt>
      <trkpt lat="47.46437" lon="6.78756">
        <ele>410</ele>
        <time>2015-03-01T09:33:06.000Z</time>
      </trkpt>
      <trkpt lat="47.46438" lon="6.78759">
        <ele>410</ele>
        <time>2015-03-01T09:33:07.000Z</time>
      </trkpt>
      <trkpt lat="47.46441" lon="6.78764">
        <ele>409</ele>
        <time>2015-03-01T09:33:09.000Z</time>
      </trkpt>
      <trkpt lat="47.46442" lon="6.78766">
        <ele>409</ele>
        <time>2015-03-01T09:33:10.000Z</time>
      </trkpt>
      <trkpt lat="47.46444" lon="6.78771">
        <ele>408</ele>
        <time>2015-03-01T09:33:12.000Z</time>
      </trkpt>
      <trkpt lat="47.46446" lon="6.78774">
        <ele>408</ele>
        <time>2015-03-01T09:33:13.000Z</time>
      </trkpt>
      <trkpt lat="47.46447" lon="6.78778">
        <ele>408</ele>
        <time>2015-03-01T09:33:14.000Z</time>
      </trkpt>
      <trkpt lat="47.46449" lon="6.78783">
        <ele>408</ele>
        <time>2015-03-01T09:33:15.000Z</time>
      </trkpt>
      <trkpt lat="47.46451" lon="6.78787">
        <ele>407</ele>
        <time>2015-03-01T09:33:16.000Z</time>
      </trkpt>
      <trkpt lat="47.46452" lon="6.7879">
        <ele>407</ele>
        <time>2015-03-01T09:33:17.000Z</time>
      </trkpt>
      <trkpt lat="47.46453" lon="6.78797">
        <ele>407</ele>
        <time>2015-03-01T09:33:18.000Z</time>
      </trkpt>
      <trkpt lat="47.46454" lon="6.78803">
        <ele>407</ele>
        <time>2015-03-01T09:33:19.000Z</time>
      </trkpt>
      <trkpt lat="47.46455" lon="6.78808">
        <ele>407</ele>
        <time>2015-03-01T09:33:20.000Z</time>
      </trkpt>
      <trkpt lat="47.46456" lon="6.78812">
        <ele>407</ele>
        <time>2015-03-01T09:33:21.000Z</time>
      </trkpt>
      <trkpt lat="47.46456" lon="6.78815">
        <ele>407</ele>
        <time>2015-03-01T09:33:22.000Z</time>
      </trkpt>
      <trkpt lat="47.46457" lon="6.78818">
        <ele>407</ele>
        <time>2015-03-01T09:33:23.000Z</time>
      </trkpt>
      <trkpt lat="47.46458" lon="6.78821">
        <ele>407</ele>
        <time>2015-03-01T09:33:24.000Z</time>
      </trkpt>
      <trkpt lat="47.46459" lon="6.78824">
        <ele>406</ele>
        <time>2015-03-01T09:33:25.000Z</time>
      </trkpt>
      <trkpt lat="47.46461" lon="6.78827">
        <ele>406</ele>
        <time>2015-03-01T09:33:26.000Z</time>
      </trkpt>
      <trkpt lat="47.46462" lon="6.78831">
        <ele>406</ele>
        <time>2015-03-01T09:33:27.000Z</time>
      </trkpt>
      <trkpt lat="47.46463" lon="6.78834">
        <ele>404</ele>
        <time>2015-03-01T09:33:28.000Z</time>
      </trkpt>
      <trkpt lat="47.46464" lon="6.78841">
        <ele>404</ele>
        <time>2015-03-01T09:33:30.000Z</time>
      </trkpt>
      <trkpt lat="47.46463" lon="6.78843">
        <ele>404</ele>
        <time>2015-03-01T09:33:31.000Z</time>
      </trkpt>
      <trkpt lat="47.46462" lon="6.78849">
        <ele>404</ele>
        <time>2015-03-01T09:33:34.000Z</time>
      </trkpt>
      <trkpt lat="47.46463" lon="6.78852">
        <ele>404</ele>
        <time>2015-03-01T09:33:35.000Z</time>
      </trkpt>
      <trkpt lat="47.46463" lon="6.78856">
        <ele>404</ele>
        <time>2015-03-01T09:33:36.000Z</time>
      </trkpt>
      <trkpt lat="47.46463" lon="6.78861">
        <ele>404</ele>
        <time>2015-03-01T09:33:37.000Z</time>
      </trkpt>
      <trkpt lat="47.46464" lon="6.78865">
        <ele>404</ele>
        <time>2015-03-01T09:33:38.000Z</time>
      </trkpt>
      <trkpt lat="47.46465" lon="6.78871">
        <ele>404</ele>
        <time>2015-03-01T09:33:39.000Z</time>
      </trkpt>
      <trkpt lat="47.46465" lon="6.78876">
        <ele>403</ele>
        <time>2015-03-01T09:33:40.000Z</time>
      </trkpt>
      <trkpt lat="47.46467" lon="6.78881">
        <ele>403</ele>
        <time>2015-03-01T09:33:41.000Z</time>
      </trkpt>
      <trkpt lat="47.46467" lon="6.78887">
        <ele>403</ele>
        <time>2015-03-01T09:33:42.000Z</time>
      </trkpt>
      <trkpt lat="47.46468" lon="6.78891">
        <ele>403</ele>
        <time>2015-03-01T09:33:43.000Z</time>
      </trkpt>
      <trkpt lat="47.46468" lon="6.78895">
        <ele>403</ele>
        <time>2015-03-01T09:33:44.000Z</time>
      </trkpt>
      <trkpt lat="47.46468" lon="6.78898">
        <ele>403</ele>
        <time>2015-03-01T09:33:45.000Z</time>
      </trkpt>
      <trkpt lat="47.46469" lon="6.78903">
        <ele>402</ele>
        <time>2015-03-01T09:33:47.000Z</time>
      </trkpt>
      <trkpt lat="47.4647" lon="6.78906">
        <ele>402</ele>
        <time>2015-03-01T09:33:48.000Z</time>
      </trkpt>
      <trkpt lat="47.46471" lon="6.78911">
        <ele>402</ele>
        <time>2015-03-01T09:33:50.000Z</time>
      </trkpt>
      <trkpt lat="47.46471" lon="6.78914">
        <ele>402</ele>
        <time>2015-03-01T09:33:51.000Z</time>
      </trkpt>
      <trkpt lat="47.46471" lon="6.78918">
        <ele>398</ele>
        <time>2015-03-01T09:33:52.000Z</time>
      </trkpt>
      <trkpt lat="47.4647" lon="6.78922">
        <ele>398</ele>
        <time>2015-03-01T09:33:53.000Z</time>
      </trkpt>
      <trkpt lat="47.4647" lon="6.78927">
        <ele>398</ele>
        <time>2015-03-01T09:33:54.000Z</time>
      </trkpt>
      <trkpt lat="47.46469" lon="6.78932">
        <ele>398</ele>
        <time>2015-03-01T09:33:55.000Z</time>
      </trkpt>
      <trkpt lat="47.46469" lon="6.78938">
        <ele>398</ele>
        <time>2015-03-01T09:33:56.000Z</time>
      </trkpt>
      <trkpt lat="47.46469" lon="6.78944">
        <ele>398</ele>
        <time>2015-03-01T09:33:57.000Z</time>
      </trkpt>
      <trkpt lat="47.46469" lon="6.7895">
        <ele>398</ele>
        <time>2015-03-01T09:33:58.000Z</time>
      </trkpt>
      <trkpt lat="47.46469" lon="6.78956">
        <ele>398</ele>
        <time>2015-03-01T09:33:59.000Z</time>
      </trkpt>
      <trkpt lat="47.46469" lon="6.78962">
        <ele>397</ele>
        <time>2015-03-01T09:34:00.000Z</time>
      </trkpt>
      <trkpt lat="47.46469" lon="6.78967">
        <ele>397</ele>
        <time>2015-03-01T09:34:01.000Z</time>
      </trkpt>
      <trkpt lat="47.46468" lon="6.78972">
        <ele>397</ele>
        <time>2015-03-01T09:34:02.000Z</time>
      </trkpt>
      <trkpt lat="47.46467" lon="6.78977">
        <ele>397</ele>
        <time>2015-03-01T09:34:03.000Z</time>
      </trkpt>
      <trkpt lat="47.46467" lon="6.78981">
        <ele>397</ele>
        <time>2015-03-01T09:34:04.000Z</time>
      </trkpt>
      <trkpt lat="47.46467" lon="6.78984">
        <ele>396</ele>
        <time>2015-03-01T09:34:05.000Z</time>
      </trkpt>
      <trkpt lat="47.46467" lon="6.78988">
        <ele>396</ele>
        <time>2015-03-01T09:34:06.000Z</time>
      </trkpt>
      <trkpt lat="47.46468" lon="6.78991">
        <ele>396</ele>
        <time>2015-03-01T09:34:07.000Z</time>
      </trkpt>
      <trkpt lat="47.46468" lon="6.78996">
        <ele>396</ele>
        <time>2015-03-01T09:34:08.000Z</time>
      </trkpt>
      <trkpt lat="47.46469" lon="6.78999">
        <ele>396</ele>
        <time>2015-03-01T09:34:09.001Z</time>
      </trkpt>
      <trkpt lat="47.46469" lon="6.79005">
        <ele>392</ele>
        <time>2015-03-01T09:34:10.002Z</time>
      </trkpt>
      <trkpt lat="47.46468" lon="6.79012">
        <ele>392</ele>
        <time>2015-03-01T09:34:11.000Z</time>
      </trkpt>
      <trkpt lat="47.46467" lon="6.79017">
        <ele>392</ele>
        <time>2015-03-01T09:34:12.000Z</time>
      </trkpt>
      <trkpt lat="47.46466" lon="6.79023">
        <ele>392</ele>
        <time>2015-03-01T09:34:13.000Z</time>
      </trkpt>
      <trkpt lat="47.46464" lon="6.79029">
        <ele>392</ele>
        <time>2015-03-01T09:34:14.000Z</time>
      </trkpt>
      <trkpt lat="47.46463" lon="6.79033">
        <ele>392</ele>
        <time>2015-03-01T09:34:15.000Z</time>
      </trkpt>
      <trkpt lat="47.46463" lon="6.79039">
        <ele>392</ele>
        <time>2015-03-01T09:34:17.000Z</time>
      </trkpt>
      <trkpt lat="47.46463" lon="6.79041">
        <ele>392</ele>
        <time>2015-03-01T09:34:18.000Z</time>
      </trkpt>
      <trkpt lat="47.46463" lon="6.79046">
        <ele>392</ele>
        <time>2015-03-01T09:34:20.000Z</time>
      </trkpt>
      <trkpt lat="47.46463" lon="6.79048">
        <ele>392</ele>
        <time>2015-03-01T09:34:21.000Z</time>
      </trkpt>
      <trkpt lat="47.46464" lon="6.79054">
        <ele>391</ele>
        <time>2015-03-01T09:34:23.000Z</time>
      </trkpt>
      <trkpt lat="47.46465" lon="6.79058">
        <ele>391</ele>
        <time>2015-03-01T09:34:24.000Z</time>
      </trkpt>
      <trkpt lat="47.46467" lon="6.79063">
        <ele>391</ele>
        <time>2015-03-01T09:34:25.000Z</time>
      </trkpt>
      <trkpt lat="47.46467" lon="6.79066">
        <ele>391</ele>
        <time>2015-03-01T09:34:26.000Z</time>
      </trkpt>
      <trkpt lat="47.46469" lon="6.79072">
        <ele>391</ele>
        <time>2015-03-01T09:34:27.000Z</time>
      </trkpt>
      <trkpt lat="47.4647" lon="6.79077">
        <ele>391</ele>
        <time>2015-03-01T09:34:28.000Z</time>
      </trkpt>
      <trkpt lat="47.46471" lon="6.79082">
        <ele>391</ele>
        <time>2015-03-01T09:34:29.000Z</time>
      </trkpt>
      <trkpt lat="47.46471" lon="6.79087">
        <ele>390</ele>
        <time>2015-03-01T09:34:30.000Z</time>
      </trkpt>
      <trkpt lat="47.46471" lon="6.79091">
        <ele>390</ele>
        <time>2015-03-01T09:34:31.000Z</time>
      </trkpt>
      <trkpt lat="47.46471" lon="6.79098">
        <ele>390</ele>
        <time>2015-03-01T09:34:32.000Z</time>
      </trkpt>
      <trkpt lat="47.46471" lon="6.79103">
        <ele>390</ele>
        <time>2015-03-01T09:34:33.000Z</time>
      </trkpt>
      <trkpt lat="47.4647" lon="6.79108">
        <ele>390</ele>
        <time>2015-03-01T09:34:34.000Z</time>
      </trkpt>
      <trkpt lat="47.4647" lon="6.79113">
        <ele>390</ele>
        <time>2015-03-01T09:34:35.000Z</time>
      </trkpt>
      <trkpt lat="47.46469" lon="6.79118">
        <ele>390</ele>
        <time>2015-03-01T09:34:36.000Z</time>
      </trkpt>
      <trkpt lat="47.46469" lon="6.79122">
        <ele>390</ele>
        <time>2015-03-01T09:34:37.000Z</time>
      </trkpt>
      <trkpt lat="47.4647" lon="6.79128">
        <ele>390</ele>
        <time>2015-03-01T09:34:38.000Z</time>
      </trkpt>
      <trkpt lat="47.4647" lon="6.79133">
        <ele>390</ele>
        <time>2015-03-01T09:34:39.000Z</time>
      </trkpt>
      <trkpt lat="47.4647" lon="6.79139">
        <ele>390</ele>
        <time>2015-03-01T09:34:40.000Z</time>
      </trkpt>
      <trkpt lat="47.4647" lon="6.79145">
        <ele>390</ele>
        <time>2015-03-01T09:34:41.000Z</time>
      </trkpt>
      <trkpt lat="47.46471" lon="6.79152">
        <ele>390</ele>
        <time>2015-03-01T09:34:42.000Z</time>
      </trkpt>
      <trkpt lat="47.46472" lon="6.79157">
        <ele>390</ele>
        <time>2015-03-01T09:34:43.000Z</time>
      </trkpt>
      <trkpt lat="47.46474" lon="6.79163">
        <ele>390</ele>
        <time>2015-03-01T09:34:44.000Z</time>
      </trkpt>
      <trkpt lat="47.46477" lon="6.79167">
        <ele>389</ele>
        <time>2015-03-01T09:34:45.000Z</time>
      </trkpt>
      <trkpt lat="47.46478" lon="6.79171">
        <ele>389</ele>
        <time>2015-03-01T09:34:46.000Z</time>
      </trkpt>
      <trkpt lat="47.4648" lon="6.79177">
        <ele>389</ele>
        <time>2015-03-01T09:34:48.000Z</time>
      </trkpt>
      <trkpt lat="47.4648" lon="6.7918">
        <ele>389</ele>
        <time>2015-03-01T09:34:49.000Z</time>
      </trkpt>
      <trkpt lat="47.4648" lon="6.79183">
        <ele>389</ele>
        <time>2015-03-01T09:34:50.000Z</time>
      </trkpt>
      <trkpt lat="47.4648" lon="6.79187">
        <ele>389</ele>
        <time>2015-03-01T09:34:51.000Z</time>
      </trkpt>
      <trkpt lat="47.46479" lon="6.79191">
        <ele>389</ele>
        <time>2015-03-01T09:34:52.000Z</time>
      </trkpt>
      <trkpt lat="47.46479" lon="6.79195">
        <ele>389</ele>
        <time>2015-03-01T09:34:53.000Z</time>
      </trkpt>
      <trkpt lat="47.46478" lon="6.79199">
        <ele>389</ele>
        <time>2015-03-01T09:34:54.000Z</time>
      </trkpt>
      <trkpt lat="47.46477" lon="6.79202">
        <ele>389</ele>
        <time>2015-03-01T09:34:55.000Z</time>
      </trkpt>
      <trkpt lat="47.46476" lon="6.79206">
        <ele>389</ele>
        <time>2015-03-01T09:34:56.000Z</time>
      </trkpt>
      <trkpt lat="47.46476" lon="6.79209">
        <ele>389</ele>
        <time>2015-03-01T09:34:57.001Z</time>
      </trkpt>
      <trkpt lat="47.46477" lon="6.79213">
        <ele>389</ele>
        <time>2015-03-01T09:34:58.000Z</time>
      </trkpt>
      <trkpt lat="47.46477" lon="6.79216">
        <ele>389</ele>
        <time>2015-03-01T09:34:59.000Z</time>
      </trkpt>
      <trkpt lat="47.46477" lon="6.79222">
        <ele>389</ele>
        <time>2015-03-01T09:35:01.000Z</time>
      </trkpt>
      <trkpt lat="47.46476" lon="6.79224">
        <ele>389</ele>
        <time>2015-03-01T09:35:02.000Z</time>
      </trkpt>
      <trkpt lat="47.46475" lon="6.79229">
        <ele>389</ele>
        <time>2015-03-01T09:35:04.000Z</time>
      </trkpt>
      <trkpt lat="47.46474" lon="6.79231">
        <ele>389</ele>
        <time>2015-03-01T09:35:05.000Z</time>
      </trkpt>
      <trkpt lat="47.46472" lon="6.79236">
        <ele>389</ele>
        <time>2015-03-01T09:35:07.000Z</time>
      </trkpt>
      <trkpt lat="47.46472" lon="6.79239">
        <ele>389</ele>
        <time>2015-03-01T09:35:08.000Z</time>
      </trkpt>
      <trkpt lat="47.46472" lon="6.79241">
        <ele>389</ele>
        <time>2015-03-01T09:35:09.000Z</time>
      </trkpt>
      <trkpt lat="47.46473" lon="6.79245">
        <ele>389</ele>
        <time>2015-03-01T09:35:10.000Z</time>
      </trkpt>
      <trkpt lat="47.46473" lon="6.79249">
        <ele>389</ele>
        <time>2015-03-01T09:35:11.000Z</time>
      </trkpt>
      <trkpt lat="47.46473" lon="6.79252">
        <ele>387</ele>
        <time>2015-03-01T09:35:12.000Z</time>
      </trkpt>
      <trkpt lat="47.46473" lon="6.79256">
        <ele>387</ele>
        <time>2015-03-01T09:35:13.000Z</time>
      </trkpt>
      <trkpt lat="47.46473" lon="6.7926">
        <ele>387</ele>
        <time>2015-03-01T09:35:14.000Z</time>
      </trkpt>
      <trkpt lat="47.46473" lon="6.79263">
        <ele>387</ele>
        <time>2015-03-01T09:35:15.000Z</time>
      </trkpt>
      <trkpt lat="47.46473" lon="6.79267">
        <ele>387</ele>
        <time>2015-03-01T09:35:16.000Z</time>
      </trkpt>
      <trkpt lat="47.46472" lon="6.79272">
        <ele>387</ele>
        <time>2015-03-01T09:35:18.000Z</time>
      </trkpt>
      <trkpt lat="47.46471" lon="6.79274">
        <ele>387</ele>
        <time>2015-03-01T09:35:19.000Z</time>
      </trkpt>
      <trkpt lat="47.46469" lon="6.79279">
        <ele>387</ele>
        <time>2015-03-01T09:35:24.000Z</time>
      </trkpt>
      <trkpt lat="47.46468" lon="6.79279">
        <ele>386</ele>
        <time>2015-03-01T09:35:25.000Z</time>
      </trkpt>
      <trkpt lat="47.46465" lon="6.79285">
        <ele>386</ele>
        <time>2015-03-01T09:35:44.000Z</time>
      </trkpt>
      <trkpt lat="47.46465" lon="6.79286">
        <ele>386</ele>
        <time>2015-03-01T09:35:45.000Z</time>
      </trkpt>
      <trkpt lat="47.46465" lon="6.79292">
        <ele>386</ele>
        <time>2015-03-01T09:35:48.000Z</time>
      </trkpt>
      <trkpt lat="47.46466" lon="6.79295">
        <ele>386</ele>
        <time>2015-03-01T09:35:49.000Z</time>
      </trkpt>
      <trkpt lat="47.46466" lon="6.79301">
        <ele>386</ele>
        <time>2015-03-01T09:35:51.000Z</time>
      </trkpt>
      <trkpt lat="47.46467" lon="6.79304">
        <ele>386</ele>
        <time>2015-03-01T09:35:52.000Z</time>
      </trkpt>
      <trkpt lat="47.46469" lon="6.7931">
        <ele>386</ele>
        <time>2015-03-01T09:35:54.001Z</time>
      </trkpt>
      <trkpt lat="47.4647" lon="6.79313">
        <ele>386</ele>
        <time>2015-03-01T09:35:55.000Z</time>
      </trkpt>
      <trkpt lat="47.4647" lon="6.79316">
        <ele>386</ele>
        <time>2015-03-01T09:35:56.000Z</time>
      </trkpt>
      <trkpt lat="47.46471" lon="6.7932">
        <ele>386</ele>
        <time>2015-03-01T09:35:57.000Z</time>
      </trkpt>
      <trkpt lat="47.46471" lon="6.79324">
        <ele>385</ele>
        <time>2015-03-01T09:35:58.000Z</time>
      </trkpt>
      <trkpt lat="47.46472" lon="6.79329">
        <ele>385</ele>
        <time>2015-03-01T09:35:59.000Z</time>
      </trkpt>
      <trkpt lat="47.46473" lon="6.79334">
        <ele>384</ele>
        <time>2015-03-01T09:36:00.000Z</time>
      </trkpt>
      <trkpt lat="47.46474" lon="6.79339">
        <ele>384</ele>
        <time>2015-03-01T09:36:01.000Z</time>
      </trkpt>
      <trkpt lat="47.46474" lon="6.79344">
        <ele>384</ele>
        <time>2015-03-01T09:36:02.000Z</time>
      </trkpt>
      <trkpt lat="47.46474" lon="6.79349">
        <ele>384</ele>
        <time>2015-03-01T09:36:03.000Z</time>
      </trkpt>
      <trkpt lat="47.46474" lon="6.79353">
        <ele>384</ele>
        <time>2015-03-01T09:36:04.000Z</time>
      </trkpt>
      <trkpt lat="47.46473" lon="6.79356">
        <ele>384</ele>
        <time>2015-03-01T09:36:05.000Z</time>
      </trkpt>
      <trkpt lat="47.46472" lon="6.79361">
        <ele>384</ele>
        <time>2015-03-01T09:36:07.000Z</time>
      </trkpt>
      <trkpt lat="47.46471" lon="6.79365">
        <ele>384</ele>
        <time>2015-03-01T09:36:08.000Z</time>
      </trkpt>
      <trkpt lat="47.46471" lon="6.79368">
        <ele>384</ele>
        <time>2015-03-01T09:36:09.001Z</time>
      </trkpt>
      <trkpt lat="47.4647" lon="6.79375">
        <ele>384</ele>
        <time>2015-03-01T09:36:10.000Z</time>
      </trkpt>
      <trkpt lat="47.4647" lon="6.79378">
        <ele>384</ele>
        <time>2015-03-01T09:36:10.999Z</time>
      </trkpt>
      <trkpt lat="47.4647" lon="6.79386">
        <ele>384</ele>
        <time>2015-03-01T09:36:12.000Z</time>
      </trkpt>
      <trkpt lat="47.46469" lon="6.79391">
        <ele>384</ele>
        <time>2015-03-01T09:36:13.000Z</time>
      </trkpt>
      <trkpt lat="47.4647" lon="6.79397">
        <ele>384</ele>
        <time>2015-03-01T09:36:14.000Z</time>
      </trkpt>
      <trkpt lat="47.4647" lon="6.79403">
        <ele>384</ele>
        <time>2015-03-01T09:36:15.000Z</time>
      </trkpt>
      <trkpt lat="47.4647" lon="6.79409">
        <ele>384</ele>
        <time>2015-03-01T09:36:16.000Z</time>
      </trkpt>
      <trkpt lat="47.46469" lon="6.79414">
        <ele>384</ele>
        <time>2015-03-01T09:36:17.000Z</time>
      </trkpt>
      <trkpt lat="47.46469" lon="6.79419">
        <ele>383</ele>
        <time>2015-03-01T09:36:18.001Z</time>
      </trkpt>
      <trkpt lat="47.46469" lon="6.79427">
        <ele>383</ele>
        <time>2015-03-01T09:36:19.000Z</time>
      </trkpt>
      <trkpt lat="47.46469" lon="6.79433">
        <ele>383</ele>
        <time>2015-03-01T09:36:20.000Z</time>
      </trkpt>
      <trkpt lat="47.46469" lon="6.79439">
        <ele>383</ele>
        <time>2015-03-01T09:36:21.000Z</time>
      </trkpt>
      <trkpt lat="47.4647" lon="6.79444">
        <ele>383</ele>
        <time>2015-03-01T09:36:22.000Z</time>
      </trkpt>
      <trkpt lat="47.4647" lon="6.7945">
        <ele>382</ele>
        <time>2015-03-01T09:36:23.000Z</time>
      </trkpt>
      <trkpt lat="47.46471" lon="6.79455">
        <ele>382</ele>
        <time>2015-03-01T09:36:24.000Z</time>
      </trkpt>
      <trkpt lat="47.46471" lon="6.79459">
        <ele>382</ele>
        <time>2015-03-01T09:36:25.000Z</time>
      </trkpt>
      <trkpt lat="47.46472" lon="6.79463">
        <ele>382</ele>
        <time>2015-03-01T09:36:26.000Z</time>
      </trkpt>
      <trkpt lat="47.46472" lon="6.79466">
        <ele>382</ele>
        <time>2015-03-01T09:36:27.000Z</time>
      </trkpt>
      <trkpt lat="47.46471" lon="6.79472">
        <ele>382</ele>
        <time>2015-03-01T09:36:29.000Z</time>
      </trkpt>
      <trkpt lat="47.4647" lon="6.79475">
        <ele>382</ele>
        <time>2015-03-01T09:36:30.000Z</time>
      </trkpt>
      <trkpt lat="47.4647" lon="6.79479">
        <ele>382</ele>
        <time>2015-03-01T09:36:31.000Z</time>
      </trkpt>
      <trkpt lat="47.4647" lon="6.79482">
        <ele>382</ele>
        <time>2015-03-01T09:36:32.000Z</time>
      </trkpt>
      <trkpt lat="47.46469" lon="6.79485">
        <ele>382</ele>
        <time>2015-03-01T09:36:33.000Z</time>
      </trkpt>
      <trkpt lat="47.46469" lon="6.79488">
        <ele>382</ele>
        <time>2015-03-01T09:36:34.000Z</time>
      </trkpt>
      <trkpt lat="47.46468" lon="6.79492">
        <ele>382</ele>
        <time>2015-03-01T09:36:35.000Z</time>
      </trkpt>
      <trkpt lat="47.46468" lon="6.79496">
        <ele>382</ele>
        <time>2015-03-01T09:36:36.000Z</time>
      </trkpt>
      <trkpt lat="47.46468" lon="6.79499">
        <ele>382</ele>
        <time>2015-03-01T09:36:37.000Z</time>
      </trkpt>
      <trkpt lat="47.46467" lon="6.79502">
        <ele>380</ele>
        <time>2015-03-01T09:36:38.000Z</time>
      </trkpt>
      <trkpt lat="47.46466" lon="6.79506">
        <ele>380</ele>
        <time>2015-03-01T09:36:39.000Z</time>
      </trkpt>
      <trkpt lat="47.46465" lon="6.79509">
        <ele>380</ele>
        <time>2015-03-01T09:36:40.000Z</time>
      </trkpt>
      <trkpt lat="47.46464" lon="6.79513">
        <ele>380</ele>
        <time>2015-03-01T09:36:42.000Z</time>
      </trkpt>
      <trkpt lat="47.46464" lon="6.79516">
        <ele>380</ele>
        <time>2015-03-01T09:36:43.000Z</time>
      </trkpt>
      <trkpt lat="47.46466" lon="6.79521">
        <ele>380</ele>
        <time>2015-03-01T09:36:46.000Z</time>
      </trkpt>
      <trkpt lat="47.46466" lon="6.79522">
        <ele>380</ele>
        <time>2015-03-01T09:36:47.000Z</time>
      </trkpt>
      <trkpt lat="47.46465" lon="6.79528">
        <ele>380</ele>
        <time>2015-03-01T09:37:01.000Z</time>
      </trkpt>
      <trkpt lat="47.46465" lon="6.79529">
        <ele>380</ele>
        <time>2015-03-01T09:37:02.000Z</time>
      </trkpt>
      <trkpt lat="47.46468" lon="6.79532">
        <ele>380</ele>
        <time>2015-03-01T09:37:16.000Z</time>
      </trkpt>
      <trkpt lat="47.4647" lon="6.79533">
        <ele>380</ele>
        <time>2015-03-01T09:37:17.000Z</time>
      </trkpt>
      <trkpt lat="47.46472" lon="6.79535">
        <ele>380</ele>
        <time>2015-03-01T09:37:18.000Z</time>
      </trkpt>
      <trkpt lat="47.46474" lon="6.79538">
        <ele>380</ele>
        <time>2015-03-01T09:37:19.000Z</time>
      </trkpt>
      <trkpt lat="47.46476" lon="6.79541">
        <ele>380</ele>
        <time>2015-03-01T09:37:20.000Z</time>
      </trkpt>
      <trkpt lat="47.46478" lon="6.79543">
        <ele>379</ele>
        <time>2015-03-01T09:37:21.000Z</time>
      </trkpt>
      <trkpt lat="47.46481" lon="6.79547">
        <ele>379</ele>
        <time>2015-03-01T09:37:23.000Z</time>
      </trkpt>
      <trkpt lat="47.46484" lon="6.79548">
        <ele>379</ele>
        <time>2015-03-01T09:37:23.999Z</time>
      </trkpt>
      <trkpt lat="47.46485" lon="6.79548">
        <ele>379</ele>
        <time>2015-03-01T09:37:24.999Z</time>
      </trkpt>
      <trkpt lat="47.46488" lon="6.7955">
        <ele>379</ele>
        <time>2015-03-01T09:37:26.000Z</time>
      </trkpt>
      <trkpt lat="47.46492" lon="6.79551">
        <ele>379</ele>
        <time>2015-03-01T09:37:28.000Z</time>
      </trkpt>
      <trkpt lat="47.46494" lon="6.79551">
        <ele>379</ele>
        <time>2015-03-01T09:37:29.000Z</time>
      </trkpt>
      <trkpt lat="47.46497" lon="6.79553">
        <ele>378</ele>
        <time>2015-03-01T09:37:31.000Z</time>
      </trkpt>
      <trkpt lat="47.46499" lon="6.79556">
        <ele>378</ele>
        <time>2015-03-01T09:37:32.000Z</time>
      </trkpt>
      <trkpt lat="47.46502" lon="6.79556">
        <ele>377</ele>
        <time>2015-03-01T09:37:35.000Z</time>
      </trkpt>
      <trkpt lat="47.46503" lon="6.79557">
        <ele>377</ele>
        <time>2015-03-01T09:37:36.000Z</time>
      </trkpt>
      <trkpt lat="47.46507" lon="6.79561">
        <ele>377</ele>
        <time>2015-03-01T09:37:43.000Z</time>
      </trkpt>
      <trkpt lat="47.46507" lon="6.79562">
        <ele>377</ele>
        <time>2015-03-01T09:37:44.000Z</time>
      </trkpt>
      <trkpt lat="47.46511" lon="6.79562">
        <ele>377</ele>
        <time>2015-03-01T09:37:50.000Z</time>
      </trkpt>
      <trkpt lat="47.46512" lon="6.79562">
        <ele>377</ele>
        <time>2015-03-01T09:37:50.999Z</time>
      </trkpt>
      <trkpt lat="47.46516" lon="6.79559">
        <ele>377</ele>
        <time>2015-03-01T09:37:59.999Z</time>
      </trkpt>
      <trkpt lat="47.46516" lon="6.79559">
        <ele>377</ele>
        <time>2015-03-01T09:38:01.000Z</time>
      </trkpt>
      <trkpt lat="47.4652" lon="6.79555">
        <ele>377</ele>
        <time>2015-03-01T09:38:05.999Z</time>
      </trkpt>
      <trkpt lat="47.46521" lon="6.79555">
        <ele>377</ele>
        <time>2015-03-01T09:38:07.000Z</time>
      </trkpt>
      <trkpt lat="47.46525" lon="6.79554">
        <ele>377</ele>
        <time>2015-03-01T09:38:33.000Z</time>
      </trkpt>
      <trkpt lat="47.46527" lon="6.79554">
        <ele>377</ele>
        <time>2015-03-01T09:38:34.000Z</time>
      </trkpt>
      <trkpt lat="47.46531" lon="6.79553">
        <ele>378</ele>
        <time>2015-03-01T09:38:36.000Z</time>
      </trkpt>
      <trkpt lat="47.46532" lon="6.79553">
        <ele>378</ele>
        <time>2015-03-01T09:38:37.000Z</time>
      </trkpt>
      <trkpt lat="47.46536" lon="6.79552">
        <ele>378</ele>
        <time>2015-03-01T09:38:41.000Z</time>
      </trkpt>
      <trkpt lat="47.46538" lon="6.79552">
        <ele>378</ele>
        <time>2015-03-01T09:38:42.000Z</time>
      </trkpt>
      <trkpt lat="47.46542" lon="6.7955">
        <ele>378</ele>
        <time>2015-03-01T09:38:44.000Z</time>
      </trkpt>
      <trkpt lat="47.46544" lon="6.79549">
        <ele>378</ele>
        <time>2015-03-01T09:38:45.000Z</time>
      </trkpt>
      <trkpt lat="47.46549" lon="6.79549">
        <ele>378</ele>
        <time>2015-03-01T09:38:47.000Z</time>
      </trkpt>
      <trkpt lat="47.4655" lon="6.79549">
        <ele>378</ele>
        <time>2015-03-01T09:38:48.000Z</time>
      </trkpt>
      <trkpt lat="47.46553" lon="6.7955">
        <ele>378</ele>
        <time>2015-03-01T09:38:49.000Z</time>
      </trkpt>
      <trkpt lat="47.46556" lon="6.79549">
        <ele>378</ele>
        <time>2015-03-01T09:38:50.000Z</time>
      </trkpt>
      <trkpt lat="47.46558" lon="6.79549">
        <ele>378</ele>
        <time>2015-03-01T09:38:51.000Z</time>
      </trkpt>
      <trkpt lat="47.4656" lon="6.79549">
        <ele>378</ele>
        <time>2015-03-01T09:38:52.000Z</time>
      </trkpt>
      <trkpt lat="47.46563" lon="6.79549">
        <ele>378</ele>
        <time>2015-03-01T09:38:53.000Z</time>
      </trkpt>
      <trkpt lat="47.46565" lon="6.79549">
        <ele>378</ele>
        <time>2015-03-01T09:38:54.000Z</time>
      </trkpt>
      <trkpt lat="47.46568" lon="6.79549">
        <ele>378</ele>
        <time>2015-03-01T09:38:56.000Z</time>
      </trkpt>
      <trkpt lat="47.4657" lon="6.79549">
        <ele>378</ele>
        <time>2015-03-01T09:38:57.000Z</time>
      </trkpt>
      <trkpt lat="47.46574" lon="6.79548">
        <ele>378</ele>
        <time>2015-03-01T09:38:59.000Z</time>
      </trkpt>
      <trkpt lat="47.46575" lon="6.79548">
        <ele>378</ele>
        <time>2015-03-01T09:39:00.000Z</time>
      </trkpt>
      <trkpt lat="47.4658" lon="6.79547">
        <ele>378</ele>
        <time>2015-03-01T09:39:03.000Z</time>
      </trkpt>
      <trkpt lat="47.46581" lon="6.79547">
        <ele>378</ele>
        <time>2015-03-01T09:39:04.000Z</time>
      </trkpt>
      <trkpt lat="47.46584" lon="6.79546">
        <ele>379</ele>
        <time>2015-03-01T09:39:08.001Z</time>
      </trkpt>
      <trkpt lat="47.46586" lon="6.79546">
        <ele>379</ele>
        <time>2015-03-01T09:39:09.000Z</time>
      </trkpt>
      <trkpt lat="47.46589" lon="6.79547">
        <ele>378</ele>
        <time>2015-03-01T09:39:11.000Z</time>
      </trkpt>
      <trkpt lat="47.46591" lon="6.79547">
        <ele>378</ele>
        <time>2015-03-01T09:39:12.000Z</time>
      </trkpt>
      <trkpt lat="47.46594" lon="6.7955">
        <ele>378</ele>
        <time>2015-03-01T09:39:17.000Z</time>
      </trkpt>
      <trkpt lat="47.46595" lon="6.79551">
        <ele>378</ele>
        <time>2015-03-01T09:39:18.000Z</time>
      </trkpt>
      <trkpt lat="47.46596" lon="6.79552">
        <ele>378</ele>
        <time>2015-03-01T09:39:19.000Z</time>
      </trkpt>
      <trkpt lat="47.46598" lon="6.79555">
        <ele>378</ele>
        <time>2015-03-01T09:39:20.000Z</time>
      </trkpt>
      <trkpt lat="47.466" lon="6.79558">
        <ele>378</ele>
        <time>2015-03-01T09:39:21.000Z</time>
      </trkpt>
      <trkpt lat="47.46602" lon="6.79559">
        <ele>378</ele>
        <time>2015-03-01T09:39:22.000Z</time>
      </trkpt>
      <trkpt lat="47.46606" lon="6.79559">
        <ele>378</ele>
        <time>2015-03-01T09:39:24.000Z</time>
      </trkpt>
      <trkpt lat="47.46607" lon="6.79559">
        <ele>378</ele>
        <time>2015-03-01T09:39:24.999Z</time>
      </trkpt>
      <trkpt lat="47.4661" lon="6.79555">
        <ele>378</ele>
        <time>2015-03-01T09:39:28.000Z</time>
      </trkpt>
      <trkpt lat="47.46611" lon="6.79553">
        <ele>378</ele>
        <time>2015-03-01T09:39:29.000Z</time>
      </trkpt>
      <trkpt lat="47.46613" lon="6.79549">
        <ele>378</ele>
        <time>2015-03-01T09:39:32.000Z</time>
      </trkpt>
      <trkpt lat="47.46614" lon="6.79547">
        <ele>378</ele>
        <time>2015-03-01T09:39:33.001Z</time>
      </trkpt>
      <trkpt lat="47.46617" lon="6.79546">
        <ele>378</ele>
        <time>2015-03-01T09:39:37.000Z</time>
      </trkpt>
      <trkpt lat="47.46618" lon="6.79548">
        <ele>378</ele>
        <time>2015-03-01T09:39:38.000Z</time>
      </trkpt>
      <trkpt lat="47.46621" lon="6.79551">
        <ele>378</ele>
        <time>2015-03-01T09:39:39.000Z</time>
      </trkpt>
      <trkpt lat="47.46623" lon="6.79554">
        <ele>378</ele>
        <time>2015-03-01T09:39:40.000Z</time>
      </trkpt>
      <trkpt lat="47.46624" lon="6.79556">
        <ele>378</ele>
        <time>2015-03-01T09:39:40.999Z</time>
      </trkpt>
      <trkpt lat="47.46627" lon="6.79559">
        <ele>378</ele>
        <time>2015-03-01T09:39:42.000Z</time>
      </trkpt>
      <trkpt lat="47.46631" lon="6.79559">
        <ele>378</ele>
        <time>2015-03-01T09:39:46.000Z</time>
      </trkpt>
      <trkpt lat="47.46633" lon="6.79558">
        <ele>378</ele>
        <time>2015-03-01T09:39:47.000Z</time>
      </trkpt>
      <trkpt lat="47.46637" lon="6.79557">
        <ele>378</ele>
        <time>2015-03-01T09:39:49.000Z</time>
      </trkpt>
      <trkpt lat="47.46639" lon="6.79557">
        <ele>377</ele>
        <time>2015-03-01T09:39:50.000Z</time>
      </trkpt>
      <trkpt lat="47.46643" lon="6.79555">
        <ele>377</ele>
        <time>2015-03-01T09:39:52.000Z</time>
      </trkpt>
      <trkpt lat="47.46644" lon="6.79554">
        <ele>377</ele>
        <time>2015-03-01T09:39:53.000Z</time>
      </trkpt>
      <trkpt lat="47.46648" lon="6.79552">
        <ele>377</ele>
        <time>2015-03-01T09:39:55.000Z</time>
      </trkpt>
      <trkpt lat="47.46649" lon="6.79551">
        <ele>377</ele>
        <time>2015-03-01T09:39:56.000Z</time>
      </trkpt>
      <trkpt lat="47.46653" lon="6.79549">
        <ele>378</ele>
        <time>2015-03-01T09:39:58.000Z</time>
      </trkpt>
      <trkpt lat="47.46654" lon="6.79548">
        <ele>378</ele>
        <time>2015-03-01T09:39:59.000Z</time>
      </trkpt>
      <trkpt lat="47.46657" lon="6.79545">
        <ele>378</ele>
        <time>2015-03-01T09:40:01.000Z</time>
      </trkpt>
      <trkpt lat="47.4666" lon="6.79544">
        <ele>378</ele>
        <time>2015-03-01T09:40:02.000Z</time>
      </trkpt>
      <trkpt lat="47.46664" lon="6.79543">
        <ele>378</ele>
        <time>2015-03-01T09:40:04.000Z</time>
      </trkpt>
      <trkpt lat="47.46665" lon="6.79542">
        <ele>378</ele>
        <time>2015-03-01T09:40:05.000Z</time>
      </trkpt>
      <trkpt lat="47.46668" lon="6.79537">
        <ele>376</ele>
        <time>2015-03-01T09:40:08.000Z</time>
      </trkpt>
      <trkpt lat="47.46669" lon="6.79536">
        <ele>376</ele>
        <time>2015-03-01T09:40:09.000Z</time>
      </trkpt>
      <trkpt lat="47.46672" lon="6.79534">
        <ele>376</ele>
        <time>2015-03-01T09:40:11.000Z</time>
      </trkpt>
      <trkpt lat="47.46674" lon="6.79532">
        <ele>376</ele>
        <time>2015-03-01T09:40:12.000Z</time>
      </trkpt>
      <trkpt lat="47.46677" lon="6.79529">
        <ele>376</ele>
        <time>2015-03-01T09:40:14.000Z</time>
      </trkpt>
      <trkpt lat="47.46679" lon="6.79527">
        <ele>376</ele>
        <time>2015-03-01T09:40:15.000Z</time>
      </trkpt>
      <trkpt lat="47.46681" lon="6.79524">
        <ele>376</ele>
        <time>2015-03-01T09:40:16.999Z</time>
      </trkpt>
      <trkpt lat="47.46682" lon="6.79521">
        <ele>376</ele>
        <time>2015-03-01T09:40:18.000Z</time>
      </trkpt>
      <trkpt lat="47.46685" lon="6.79518">
        <ele>376</ele>
        <time>2015-03-01T09:40:20.000Z</time>
      </trkpt>
      <trkpt lat="47.46687" lon="6.79516">
        <ele>376</ele>
        <time>2015-03-01T09:40:21.000Z</time>
      </trkpt>
      <trkpt lat="47.46691" lon="6.79513">
        <ele>376</ele>
        <time>2015-03-01T09:40:23.000Z</time>
      </trkpt>
      <trkpt lat="47.46692" lon="6.79511">
        <ele>376</ele>
        <time>2015-03-01T09:40:24.000Z</time>
      </trkpt>
      <trkpt lat="47.46694" lon="6.79506">
        <ele>376</ele>
        <time>2015-03-01T09:40:26.000Z</time>
      </trkpt>
      <trkpt lat="47.46694" lon="6.79504">
        <ele>376</ele>
        <time>2015-03-01T09:40:27.000Z</time>
      </trkpt>
      <trkpt lat="47.46695" lon="6.79498">
        <ele>378</ele>
        <time>2015-03-01T09:40:30.000Z</time>
      </trkpt>
      <trkpt lat="47.46696" lon="6.79496">
        <ele>378</ele>
        <time>2015-03-01T09:40:31.000Z</time>
      </trkpt>
      <trkpt lat="47.46697" lon="6.7949">
        <ele>378</ele>
        <time>2015-03-01T09:40:33.000Z</time>
      </trkpt>
      <trkpt lat="47.46699" lon="6.79487">
        <ele>378</ele>
        <time>2015-03-01T09:40:34.000Z</time>
      </trkpt>
      <trkpt lat="47.467" lon="6.79484">
        <ele>378</ele>
        <time>2015-03-01T09:40:35.000Z</time>
      </trkpt>
      <trkpt lat="47.46701" lon="6.79482">
        <ele>377</ele>
        <time>2015-03-01T09:40:36.000Z</time>
      </trkpt>
      <trkpt lat="47.46703" lon="6.79479">
        <ele>377</ele>
        <time>2015-03-01T09:40:37.000Z</time>
      </trkpt>
      <trkpt lat="47.46706" lon="6.79476">
        <ele>377</ele>
        <time>2015-03-01T09:40:38.000Z</time>
      </trkpt>
      <trkpt lat="47.46708" lon="6.79474">
        <ele>377</ele>
        <time>2015-03-01T09:40:39.000Z</time>
      </trkpt>
      <trkpt lat="47.4671" lon="6.79472">
        <ele>377</ele>
        <time>2015-03-01T09:40:40.000Z</time>
      </trkpt>
      <trkpt lat="47.46713" lon="6.79468">
        <ele>377</ele>
        <time>2015-03-01T09:40:42.000Z</time>
      </trkpt>
      <trkpt lat="47.46715" lon="6.79465">
        <ele>377</ele>
        <time>2015-03-01T09:40:43.000Z</time>
      </trkpt>
      <trkpt lat="47.46716" lon="6.79462">
        <ele>377</ele>
        <time>2015-03-01T09:40:44.000Z</time>
      </trkpt>
      <trkpt lat="47.46718" lon="6.7946">
        <ele>377</ele>
        <time>2015-03-01T09:40:45.000Z</time>
      </trkpt>
      <trkpt lat="47.46721" lon="6.79456">
        <ele>377</ele>
        <time>2015-03-01T09:40:47.000Z</time>
      </trkpt>
      <trkpt lat="47.46722" lon="6.79454">
        <ele>377</ele>
        <time>2015-03-01T09:40:48.000Z</time>
      </trkpt>
      <trkpt lat="47.46725" lon="6.7945">
        <ele>377</ele>
        <time>2015-03-01T09:40:49.999Z</time>
      </trkpt>
      <trkpt lat="47.46727" lon="6.79449">
        <ele>377</ele>
        <time>2015-03-01T09:40:51.000Z</time>
      </trkpt>
      <trkpt lat="47.46728" lon="6.79447">
        <ele>377</ele>
        <time>2015-03-01T09:40:51.999Z</time>
      </trkpt>
      <trkpt lat="47.46731" lon="6.79444">
        <ele>377</ele>
        <time>2015-03-01T09:40:53.000Z</time>
      </trkpt>
      <trkpt lat="47.46733" lon="6.79441">
        <ele>376</ele>
        <time>2015-03-01T09:40:54.000Z</time>
      </trkpt>
      <trkpt lat="47.46734" lon="6.79437">
        <ele>376</ele>
        <time>2015-03-01T09:40:55.000Z</time>
      </trkpt>
      <trkpt lat="47.46736" lon="6.79433">
        <ele>376</ele>
        <time>2015-03-01T09:40:56.000Z</time>
      </trkpt>
      <trkpt lat="47.46738" lon="6.7943">
        <ele>376</ele>
        <time>2015-03-01T09:40:57.000Z</time>
      </trkpt>
      <trkpt lat="47.46739" lon="6.79427">
        <ele>376</ele>
        <time>2015-03-01T09:40:58.000Z</time>
      </trkpt>
      <trkpt lat="47.4674" lon="6.79423">
        <ele>376</ele>
        <time>2015-03-01T09:40:59.000Z</time>
      </trkpt>
      <trkpt lat="47.46744" lon="6.79423">
        <ele>376</ele>
        <time>2015-03-01T09:41:01.000Z</time>
      </trkpt>
      <trkpt lat="47.46746" lon="6.79423">
        <ele>376</ele>
        <time>2015-03-01T09:41:02.000Z</time>
      </trkpt>
      <trkpt lat="47.46748" lon="6.79418">
        <ele>375</ele>
        <time>2015-03-01T09:41:05.000Z</time>
      </trkpt>
      <trkpt lat="47.46748" lon="6.79415">
        <ele>375</ele>
        <time>2015-03-01T09:41:06.000Z</time>
      </trkpt>
      <trkpt lat="47.46749" lon="6.7941">
        <ele>375</ele>
        <time>2015-03-01T09:41:07.000Z</time>
      </trkpt>
      <trkpt lat="47.4675" lon="6.79406">
        <ele>375</ele>
        <time>2015-03-01T09:41:08.000Z</time>
      </trkpt>
      <trkpt lat="47.4675" lon="6.79401">
        <ele>373</ele>
        <time>2015-03-01T09:41:09.000Z</time>
      </trkpt>
      <trkpt lat="47.46751" lon="6.79397">
        <ele>372</ele>
        <time>2015-03-01T09:41:10.000Z</time>
      </trkpt>
      <trkpt lat="47.46752" lon="6.7939">
        <ele>372</ele>
        <time>2015-03-01T09:41:15.000Z</time>
      </trkpt>
      <trkpt lat="47.46752" lon="6.7939">
        <ele>372</ele>
        <time>2015-03-01T09:41:16.000Z</time>
      </trkpt>
      <trkpt lat="47.46756" lon="6.79389">
        <ele>372</ele>
        <time>2015-03-01T09:41:32.000Z</time>
      </trkpt>
      <trkpt lat="47.46756" lon="6.79388">
        <ele>372</ele>
        <time>2015-03-01T09:41:33.000Z</time>
      </trkpt>
      <trkpt lat="47.46761" lon="6.79386">
        <ele>371</ele>
        <time>2015-03-01T09:41:38.000Z</time>
      </trkpt>
      <trkpt lat="47.46761" lon="6.79386">
        <ele>371</ele>
        <time>2015-03-01T09:41:39.000Z</time>
      </trkpt>
      <trkpt lat="47.46764" lon="6.7939">
        <ele>372</ele>
        <time>2015-03-01T09:41:48.000Z</time>
      </trkpt>
      <trkpt lat="47.46765" lon="6.79391">
        <ele>372</ele>
        <time>2015-03-01T09:41:49.000Z</time>
      </trkpt>
      <trkpt lat="47.46766" lon="6.79398">
        <ele>372</ele>
        <time>2015-03-01T09:41:57.000Z</time>
      </trkpt>
      <trkpt lat="47.46767" lon="6.79397">
        <ele>372</ele>
        <time>2015-03-01T09:41:58.000Z</time>
      </trkpt>
      <trkpt lat="47.46769" lon="6.79403">
        <ele>372</ele>
        <time>2015-03-01T09:42:08.999Z</time>
      </trkpt>
      <trkpt lat="47.4677" lon="6.79404">
        <ele>372</ele>
        <time>2015-03-01T09:42:10.000Z</time>
      </trkpt>
      <trkpt lat="47.4677" lon="6.7941">
        <ele>372</ele>
        <time>2015-03-01T09:42:17.000Z</time>
      </trkpt>
      <trkpt lat="47.4677" lon="6.79412">
        <ele>372</ele>
        <time>2015-03-01T09:42:18.000Z</time>
      </trkpt>
      <trkpt lat="47.46769" lon="6.79416">
        <ele>372</ele>
        <time>2015-03-01T09:42:19.999Z</time>
      </trkpt>
      <trkpt lat="47.46767" lon="6.79419">
        <ele>373</ele>
        <time>2015-03-01T09:42:21.000Z</time>
      </trkpt>
      <trkpt lat="47.46766" lon="6.79424">
        <ele>373</ele>
        <time>2015-03-01T09:42:23.000Z</time>
      </trkpt>
      <trkpt lat="47.46767" lon="6.79427">
        <ele>373</ele>
        <time>2015-03-01T09:42:24.000Z</time>
      </trkpt>
      <trkpt lat="47.46767" lon="6.79432">
        <ele>372</ele>
        <time>2015-03-01T09:42:26.000Z</time>
      </trkpt>
      <trkpt lat="47.46767" lon="6.79434">
        <ele>372</ele>
        <time>2015-03-01T09:42:27.000Z</time>
      </trkpt>
      <trkpt lat="47.46767" lon="6.79439">
        <ele>372</ele>
        <time>2015-03-01T09:42:29.000Z</time>
      </trkpt>
      <trkpt lat="47.46766" lon="6.79442">
        <ele>372</ele>
        <time>2015-03-01T09:42:30.000Z</time>
      </trkpt>
      <trkpt lat="47.46766" lon="6.79448">
        <ele>372</ele>
        <time>2015-03-01T09:42:32.000Z</time>
      </trkpt>
      <trkpt lat="47.46765" lon="6.7945">
        <ele>372</ele>
        <time>2015-03-01T09:42:33.000Z</time>
      </trkpt>
      <trkpt lat="47.46763" lon="6.79455">
        <ele>372</ele>
        <time>2015-03-01T09:42:35.000Z</time>
      </trkpt>
      <trkpt lat="47.46762" lon="6.79457">
        <ele>372</ele>
        <time>2015-03-01T09:42:36.000Z</time>
      </trkpt>
      <trkpt lat="47.46761" lon="6.79463">
        <ele>372</ele>
        <time>2015-03-01T09:42:39.000Z</time>
      </trkpt>
      <trkpt lat="47.4676" lon="6.79465">
        <ele>372</ele>
        <time>2015-03-01T09:42:40.000Z</time>
      </trkpt>
      <trkpt lat="47.46759" lon="6.7947">
        <ele>372</ele>
        <time>2015-03-01T09:42:43.000Z</time>
      </trkpt>
      <trkpt lat="47.46758" lon="6.79472">
        <ele>372</ele>
        <time>2015-03-01T09:42:44.000Z</time>
      </trkpt>
      <trkpt lat="47.46758" lon="6.79478">
        <ele>372</ele>
        <time>2015-03-01T09:42:47.000Z</time>
      </trkpt>
      <trkpt lat="47.46758" lon="6.7948">
        <ele>372</ele>
        <time>2015-03-01T09:42:48.000Z</time>
      </trkpt>
      <trkpt lat="47.46757" lon="6.79485">
        <ele>372</ele>
        <time>2015-03-01T09:42:50.000Z</time>
      </trkpt>
      <trkpt lat="47.46757" lon="6.79488">
        <ele>373</ele>
        <time>2015-03-01T09:42:51.000Z</time>
      </trkpt>
      <trkpt lat="47.46753" lon="6.79492">
        <ele>373</ele>
        <time>2015-03-01T09:43:02.000Z</time>
      </trkpt>
      <trkpt lat="47.46752" lon="6.79493">
        <ele>373</ele>
        <time>2015-03-01T09:43:03.000Z</time>
      </trkpt>
      <trkpt lat="47.46751" lon="6.79499">
        <ele>374</ele>
        <time>2015-03-01T09:43:07.000Z</time>
      </trkpt>
      <trkpt lat="47.46751" lon="6.79499">
        <ele>374</ele>
        <time>2015-03-01T09:43:08.000Z</time>
      </trkpt>
      <trkpt lat="47.46746" lon="6.79499">
        <ele>374</ele>
        <time>2015-03-01T09:43:29.000Z</time>
      </trkpt>
      <trkpt lat="47.46746" lon="6.79499">
        <ele>375</ele>
        <time>2015-03-01T09:43:30.000Z</time>
      </trkpt>
      <trkpt lat="47.46743" lon="6.79503">
        <ele>374</ele>
        <time>2015-03-01T09:44:06.000Z</time>
      </trkpt>
      <trkpt lat="47.46742" lon="6.79504">
        <ele>374</ele>
        <time>2015-03-01T09:44:07.000Z</time>
      </trkpt>
      <trkpt lat="47.46738" lon="6.79507">
        <ele>374</ele>
        <time>2015-03-01T09:44:15.000Z</time>
      </trkpt>
      <trkpt lat="47.46737" lon="6.79507">
        <ele>374</ele>
        <time>2015-03-01T09:44:16.000Z</time>
      </trkpt>
      <trkpt lat="47.46738" lon="6.79509">
        <ele>374</ele>
        <time>2015-03-01T09:44:17.000Z</time>
      </trkpt>
      <trkpt lat="47.46739" lon="6.79513">
        <ele>374</ele>
        <time>2015-03-01T09:44:17.999Z</time>
      </trkpt>
      <trkpt lat="47.46735" lon="6.79511">
        <ele>374</ele>
        <time>2015-03-01T09:44:28.000Z</time>
      </trkpt>
      <trkpt lat="47.46735" lon="6.79511">
        <ele>374</ele>
        <time>2015-03-01T09:44:29.000Z</time>
      </trkpt>
      <trkpt lat="47.46736" lon="6.79505">
        <ele>374</ele>
        <time>2015-03-01T09:44:48.000Z</time>
      </trkpt>
      <trkpt lat="47.46736" lon="6.79504">
        <ele>374</ele>
        <time>2015-03-01T09:44:49.000Z</time>
      </trkpt>
      <trkpt lat="47.46736" lon="6.79498">
        <ele>375</ele>
        <time>2015-03-01T09:45:06.000Z</time>
      </trkpt>
      <trkpt lat="47.46736" lon="6.79498">
        <ele>375</ele>
        <time>2015-03-01T09:45:07.000Z</time>
      </trkpt>
      <trkpt lat="47.4674" lon="6.79495">
        <ele>375</ele>
        <time>2015-03-01T09:45:17.000Z</time>
      </trkpt>
      <trkpt lat="47.4674" lon="6.79494">
        <ele>375</ele>
        <time>2015-03-01T09:45:17.999Z</time>
      </trkpt>
      <trkpt lat="47.46743" lon="6.79492">
        <ele>375</ele>
        <time>2015-03-01T09:45:28.000Z</time>
      </trkpt>
      <trkpt lat="47.46744" lon="6.7949">
        <ele>375</ele>
        <time>2015-03-01T09:45:29.000Z</time>
      </trkpt>
      <trkpt lat="47.46745" lon="6.79486">
        <ele>375</ele>
        <time>2015-03-01T09:45:31.000Z</time>
      </trkpt>
      <trkpt lat="47.46746" lon="6.79484">
        <ele>376</ele>
        <time>2015-03-01T09:45:32.000Z</time>
      </trkpt>
      <trkpt lat="47.46748" lon="6.79479">
        <ele>376</ele>
        <time>2015-03-01T09:45:34.000Z</time>
      </trkpt>
      <trkpt lat="47.4675" lon="6.79476">
        <ele>376</ele>
        <time>2015-03-01T09:45:35.000Z</time>
      </trkpt>
      <trkpt lat="47.46751" lon="6.79473">
        <ele>372</ele>
        <time>2015-03-01T09:45:36.000Z</time>
      </trkpt>
      <trkpt lat="47.46753" lon="6.7947">
        <ele>372</ele>
        <time>2015-03-01T09:45:37.000Z</time>
      </trkpt>
      <trkpt lat="47.46754" lon="6.79466">
        <ele>372</ele>
        <time>2015-03-01T09:45:38.000Z</time>
      </trkpt>
      <trkpt lat="47.46755" lon="6.79463">
        <ele>372</ele>
        <time>2015-03-01T09:45:39.000Z</time>
      </trkpt>
      <trkpt lat="47.46757" lon="6.79459">
        <ele>372</ele>
        <time>2015-03-01T09:45:40.000Z</time>
      </trkpt>
      <trkpt lat="47.46758" lon="6.79456">
        <ele>372</ele>
        <time>2015-03-01T09:45:41.000Z</time>
      </trkpt>
      <trkpt lat="47.4676" lon="6.79453">
        <ele>372</ele>
        <time>2015-03-01T09:45:42.000Z</time>
      </trkpt>
      <trkpt lat="47.46761" lon="6.79449">
        <ele>372</ele>
        <time>2015-03-01T09:45:43.000Z</time>
      </trkpt>
      <trkpt lat="47.46763" lon="6.79446">
        <ele>372</ele>
        <time>2015-03-01T09:45:44.000Z</time>
      </trkpt>
      <trkpt lat="47.46764" lon="6.79443">
        <ele>372</ele>
        <time>2015-03-01T09:45:45.001Z</time>
      </trkpt>
      <trkpt lat="47.46764" lon="6.79437">
        <ele>372</ele>
        <time>2015-03-01T09:45:47.000Z</time>
      </trkpt>
      <trkpt lat="47.46765" lon="6.79433">
        <ele>372</ele>
        <time>2015-03-01T09:45:48.000Z</time>
      </trkpt>
      <trkpt lat="47.46766" lon="6.79428">
        <ele>372</ele>
        <time>2015-03-01T09:45:50.000Z</time>
      </trkpt>
      <trkpt lat="47.46767" lon="6.79426">
        <ele>373</ele>
        <time>2015-03-01T09:45:51.000Z</time>
      </trkpt>
      <trkpt lat="47.46764" lon="6.7943">
        <ele>373</ele>
        <time>2015-03-01T09:46:20.000Z</time>
      </trkpt>
      <trkpt lat="47.46764" lon="6.79432">
        <ele>373</ele>
        <time>2015-03-01T09:46:21.000Z</time>
      </trkpt>
      <trkpt lat="47.46762" lon="6.79436">
        <ele>372</ele>
        <time>2015-03-01T09:46:23.000Z</time>
      </trkpt>
      <trkpt lat="47.46761" lon="6.79438">
        <ele>372</ele>
        <time>2015-03-01T09:46:24.000Z</time>
      </trkpt>
      <trkpt lat="47.46761" lon="6.79444">
        <ele>372</ele>
        <time>2015-03-01T09:46:27.000Z</time>
      </trkpt>
      <trkpt lat="47.46761" lon="6.79445">
        <ele>372</ele>
        <time>2015-03-01T09:46:28.000Z</time>
      </trkpt>
      <trkpt lat="47.46761" lon="6.79451">
        <ele>372</ele>
        <time>2015-03-01T09:46:31.000Z</time>
      </trkpt>
      <trkpt lat="47.4676" lon="6.79453">
        <ele>372</ele>
        <time>2015-03-01T09:46:32.000Z</time>
      </trkpt>
      <trkpt lat="47.46759" lon="6.79458">
        <ele>372</ele>
        <time>2015-03-01T09:46:34.000Z</time>
      </trkpt>
      <trkpt lat="47.46759" lon="6.7946">
        <ele>372</ele>
        <time>2015-03-01T09:46:35.000Z</time>
      </trkpt>
      <trkpt lat="47.46757" lon="6.79464">
        <ele>372</ele>
        <time>2015-03-01T09:46:37.000Z</time>
      </trkpt>
      <trkpt lat="47.46757" lon="6.79467">
        <ele>372</ele>
        <time>2015-03-01T09:46:38.000Z</time>
      </trkpt>
      <trkpt lat="47.46758" lon="6.79472">
        <ele>372</ele>
        <time>2015-03-01T09:46:40.000Z</time>
      </trkpt>
      <trkpt lat="47.46758" lon="6.79475">
        <ele>372</ele>
        <time>2015-03-01T09:46:41.000Z</time>
      </trkpt>
      <trkpt lat="47.46759" lon="6.7948">
        <ele>372</ele>
        <time>2015-03-01T09:46:43.000Z</time>
      </trkpt>
      <trkpt lat="47.46759" lon="6.79482">
        <ele>372</ele>
        <time>2015-03-01T09:46:44.000Z</time>
      </trkpt>
      <trkpt lat="47.46757" lon="6.79486">
        <ele>372</ele>
        <time>2015-03-01T09:46:46.000Z</time>
      </trkpt>
      <trkpt lat="47.46756" lon="6.79488">
        <ele>373</ele>
        <time>2015-03-01T09:46:47.000Z</time>
      </trkpt>
      <trkpt lat="47.46754" lon="6.7949">
        <ele>373</ele>
        <time>2015-03-01T09:46:48.000Z</time>
      </trkpt>
      <trkpt lat="47.46752" lon="6.79492">
        <ele>373</ele>
        <time>2015-03-01T09:46:49.000Z</time>
      </trkpt>
      <trkpt lat="47.4675" lon="6.79494">
        <ele>375</ele>
        <time>2015-03-01T09:46:49.999Z</time>
      </trkpt>
      <trkpt lat="47.46748" lon="6.79497">
        <ele>374</ele>
        <time>2015-03-01T09:46:51.000Z</time>
      </trkpt>
      <trkpt lat="47.46746" lon="6.79503">
        <ele>374</ele>
        <time>2015-03-01T09:46:53.000Z</time>
      </trkpt>
      <trkpt lat="47.46746" lon="6.79505">
        <ele>374</ele>
        <time>2015-03-01T09:46:54.000Z</time>
      </trkpt>
      <trkpt lat="47.46744" lon="6.79509">
        <ele>374</ele>
        <time>2015-03-01T09:46:56.001Z</time>
      </trkpt>
      <trkpt lat="47.46742" lon="6.79512">
        <ele>374</ele>
        <time>2015-03-01T09:46:57.000Z</time>
      </trkpt>
      <trkpt lat="47.46741" lon="6.79517">
        <ele>374</ele>
        <time>2015-03-01T09:46:59.000Z</time>
      </trkpt>
      <trkpt lat="47.4674" lon="6.79519">
        <ele>374</ele>
        <time>2015-03-01T09:47:00.000Z</time>
      </trkpt>
      <trkpt lat="47.46739" lon="6.79523">
        <ele>374</ele>
        <time>2015-03-01T09:47:02.000Z</time>
      </trkpt>
      <trkpt lat="47.46738" lon="6.79525">
        <ele>374</ele>
        <time>2015-03-01T09:47:03.000Z</time>
      </trkpt>
      <trkpt lat="47.46736" lon="6.79529">
        <ele>374</ele>
        <time>2015-03-01T09:47:05.000Z</time>
      </trkpt>
      <trkpt lat="47.46734" lon="6.79532">
        <ele>374</ele>
        <time>2015-03-01T09:47:06.000Z</time>
      </trkpt>
      <trkpt lat="47.46732" lon="6.79534">
        <ele>374</ele>
        <time>2015-03-01T09:47:07.000Z</time>
      </trkpt>
      <trkpt lat="47.4673" lon="6.79537">
        <ele>374</ele>
        <time>2015-03-01T09:47:08.000Z</time>
      </trkpt>
      <trkpt lat="47.46728" lon="6.79539">
        <ele>374</ele>
        <time>2015-03-01T09:47:09.000Z</time>
      </trkpt>
      <trkpt lat="47.46726" lon="6.79542">
        <ele>374</ele>
        <time>2015-03-01T09:47:10.000Z</time>
      </trkpt>
      <trkpt lat="47.46723" lon="6.79546">
        <ele>374</ele>
        <time>2015-03-01T09:47:12.000Z</time>
      </trkpt>
      <trkpt lat="47.46721" lon="6.79548">
        <ele>374</ele>
        <time>2015-03-01T09:47:13.000Z</time>
      </trkpt>
      <trkpt lat="47.46719" lon="6.7955">
        <ele>374</ele>
        <time>2015-03-01T09:47:14.000Z</time>
      </trkpt>
      <trkpt lat="47.46717" lon="6.79552">
        <ele>374</ele>
        <time>2015-03-01T09:47:15.000Z</time>
      </trkpt>
      <trkpt lat="47.46714" lon="6.79556">
        <ele>374</ele>
        <time>2015-03-01T09:47:17.000Z</time>
      </trkpt>
      <trkpt lat="47.46712" lon="6.79558">
        <ele>374</ele>
        <time>2015-03-01T09:47:18.000Z</time>
      </trkpt>
      <trkpt lat="47.4671" lon="6.79561">
        <ele>374</ele>
        <time>2015-03-01T09:47:20.000Z</time>
      </trkpt>
      <trkpt lat="47.46709" lon="6.79563">
        <ele>374</ele>
        <time>2015-03-01T09:47:21.000Z</time>
      </trkpt>
      <trkpt lat="47.46705" lon="6.79566">
        <ele>374</ele>
        <time>2015-03-01T09:47:23.000Z</time>
      </trkpt>
      <trkpt lat="47.46701" lon="6.79568">
        <ele>374</ele>
        <time>2015-03-01T09:47:24.000Z</time>
      </trkpt>
      <trkpt lat="47.46698" lon="6.79569">
        <ele>374</ele>
        <time>2015-03-01T09:47:25.000Z</time>
      </trkpt>
      <trkpt lat="47.46695" lon="6.7957">
        <ele>374</ele>
        <time>2015-03-01T09:47:26.000Z</time>
      </trkpt>
      <trkpt lat="47.46693" lon="6.79571">
        <ele>374</ele>
        <time>2015-03-01T09:47:26.999Z</time>
      </trkpt>
      <trkpt lat="47.46691" lon="6.79573">
        <ele>374</ele>
        <time>2015-03-01T09:47:28.000Z</time>
      </trkpt>
      <trkpt lat="47.46689" lon="6.79579">
        <ele>374</ele>
        <time>2015-03-01T09:47:31.000Z</time>
      </trkpt>
      <trkpt lat="47.46687" lon="6.79581">
        <ele>374</ele>
        <time>2015-03-01T09:47:32.000Z</time>
      </trkpt>
      <trkpt lat="47.46684" lon="6.79585">
        <ele>372</ele>
        <time>2015-03-01T09:47:34.000Z</time>
      </trkpt>
      <trkpt lat="47.46682" lon="6.79588">
        <ele>372</ele>
        <time>2015-03-01T09:47:35.000Z</time>
      </trkpt>
      <trkpt lat="47.4668" lon="6.7959">
        <ele>372</ele>
        <time>2015-03-01T09:47:36.000Z</time>
      </trkpt>
      <trkpt lat="47.46677" lon="6.79592">
        <ele>372</ele>
        <time>2015-03-01T09:47:37.000Z</time>
      </trkpt>
      <trkpt lat="47.46674" lon="6.79594">
        <ele>372</ele>
        <time>2015-03-01T09:47:38.000Z</time>
      </trkpt>
      <trkpt lat="47.46671" lon="6.79596">
        <ele>372</ele>
        <time>2015-03-01T09:47:39.000Z</time>
      </trkpt>
      <trkpt lat="47.46668" lon="6.796">
        <ele>372</ele>
        <time>2015-03-01T09:47:41.000Z</time>
      </trkpt>
      <trkpt lat="47.46667" lon="6.79601">
        <ele>372</ele>
        <time>2015-03-01T09:47:41.999Z</time>
      </trkpt>
      <trkpt lat="47.46664" lon="6.79603">
        <ele>374</ele>
        <time>2015-03-01T09:47:43.000Z</time>
      </trkpt>
      <trkpt lat="47.46661" lon="6.79605">
        <ele>374</ele>
        <time>2015-03-01T09:47:44.000Z</time>
      </trkpt>
      <trkpt lat="47.46658" lon="6.79608">
        <ele>374</ele>
        <time>2015-03-01T09:47:45.000Z</time>
      </trkpt>
      <trkpt lat="47.46657" lon="6.7961">
        <ele>374</ele>
        <time>2015-03-01T09:47:46.001Z</time>
      </trkpt>
      <trkpt lat="47.46652" lon="6.79612">
        <ele>374</ele>
        <time>2015-03-01T09:47:47.000Z</time>
      </trkpt>
      <trkpt lat="47.46649" lon="6.79613">
        <ele>374</ele>
        <time>2015-03-01T09:47:48.000Z</time>
      </trkpt>
      <trkpt lat="47.46646" lon="6.79614">
        <ele>374</ele>
        <time>2015-03-01T09:47:49.000Z</time>
      </trkpt>
      <trkpt lat="47.46644" lon="6.79615">
        <ele>374</ele>
        <time>2015-03-01T09:47:50.000Z</time>
      </trkpt>
      <trkpt lat="47.46641" lon="6.79616">
        <ele>374</ele>
        <time>2015-03-01T09:47:51.000Z</time>
      </trkpt>
      <trkpt lat="47.46639" lon="6.79617">
        <ele>374</ele>
        <time>2015-03-01T09:47:52.000Z</time>
      </trkpt>
      <trkpt lat="47.46636" lon="6.79618">
        <ele>374</ele>
        <time>2015-03-01T09:47:53.000Z</time>
      </trkpt>
      <trkpt lat="47.46633" lon="6.7962">
        <ele>374</ele>
        <time>2015-03-01T09:47:55.000Z</time>
      </trkpt>
      <trkpt lat="47.4663" lon="6.79619">
        <ele>374</ele>
        <time>2015-03-01T09:47:56.000Z</time>
      </trkpt>
      <trkpt lat="47.46627" lon="6.79618">
        <ele>374</ele>
        <time>2015-03-01T09:48:02.000Z</time>
      </trkpt>
      <trkpt lat="47.46625" lon="6.79618">
        <ele>374</ele>
        <time>2015-03-01T09:48:03.000Z</time>
      </trkpt>
      <trkpt lat="47.46621" lon="6.79618">
        <ele>374</ele>
        <time>2015-03-01T09:48:12.000Z</time>
      </trkpt>
      <trkpt lat="47.4662" lon="6.79618">
        <ele>374</ele>
        <time>2015-03-01T09:48:13.000Z</time>
      </trkpt>
      <trkpt lat="47.46616" lon="6.79618">
        <ele>374</ele>
        <time>2015-03-01T09:48:18.000Z</time>
      </trkpt>
      <trkpt lat="47.46615" lon="6.79619">
        <ele>374</ele>
        <time>2015-03-01T09:48:19.000Z</time>
      </trkpt>
      <trkpt lat="47.46613" lon="6.79621">
        <ele>374</ele>
        <time>2015-03-01T09:48:22.000Z</time>
      </trkpt>
      <trkpt lat="47.46611" lon="6.79623">
        <ele>374</ele>
        <time>2015-03-01T09:48:23.000Z</time>
      </trkpt>
      <trkpt lat="47.4661" lon="6.79624">
        <ele>374</ele>
        <time>2015-03-01T09:48:24.000Z</time>
      </trkpt>
      <trkpt lat="47.46607" lon="6.79625">
        <ele>374</ele>
        <time>2015-03-01T09:48:25.000Z</time>
      </trkpt>
      <trkpt lat="47.46605" lon="6.79627">
        <ele>374</ele>
        <time>2015-03-01T09:48:26.000Z</time>
      </trkpt>
      <trkpt lat="47.46603" lon="6.79629">
        <ele>374</ele>
        <time>2015-03-01T09:48:27.000Z</time>
      </trkpt>
      <trkpt lat="47.466" lon="6.79632">
        <ele>374</ele>
        <time>2015-03-01T09:48:29.000Z</time>
      </trkpt>
      <trkpt lat="47.46599" lon="6.79632">
        <ele>374</ele>
        <time>2015-03-01T09:48:30.000Z</time>
      </trkpt>
      <trkpt lat="47.46596" lon="6.79634">
        <ele>374</ele>
        <time>2015-03-01T09:48:32.000Z</time>
      </trkpt>
      <trkpt lat="47.46594" lon="6.79635">
        <ele>374</ele>
        <time>2015-03-01T09:48:33.000Z</time>
      </trkpt>
      <trkpt lat="47.4659" lon="6.79637">
        <ele>374</ele>
        <time>2015-03-01T09:48:35.000Z</time>
      </trkpt>
      <trkpt lat="47.46588" lon="6.79638">
        <ele>374</ele>
        <time>2015-03-01T09:48:36.000Z</time>
      </trkpt>
      <trkpt lat="47.46585" lon="6.7964">
        <ele>374</ele>
        <time>2015-03-01T09:48:37.999Z</time>
      </trkpt>
      <trkpt lat="47.46584" lon="6.79641">
        <ele>374</ele>
        <time>2015-03-01T09:48:39.000Z</time>
      </trkpt>
      <trkpt lat="47.4658" lon="6.79643">
        <ele>375</ele>
        <time>2015-03-01T09:48:42.000Z</time>
      </trkpt>
      <trkpt lat="47.46578" lon="6.79643">
        <ele>375</ele>
        <time>2015-03-01T09:48:43.000Z</time>
      </trkpt>
      <trkpt lat="47.46574" lon="6.79644">
        <ele>375</ele>
        <time>2015-03-01T09:48:45.000Z</time>
      </trkpt>
      <trkpt lat="47.46572" lon="6.79643">
        <ele>375</ele>
        <time>2015-03-01T09:48:46.000Z</time>
      </trkpt>
      <trkpt lat="47.46569" lon="6.79643">
        <ele>375</ele>
        <time>2015-03-01T09:48:48.000Z</time>
      </trkpt>
      <trkpt lat="47.46567" lon="6.79643">
        <ele>375</ele>
        <time>2015-03-01T09:48:49.000Z</time>
      </trkpt>
      <trkpt lat="47.46563" lon="6.79644">
        <ele>376</ele>
        <time>2015-03-01T09:48:51.000Z</time>
      </trkpt>
      <trkpt lat="47.4656" lon="6.79644">
        <ele>376</ele>
        <time>2015-03-01T09:48:52.000Z</time>
      </trkpt>
      <trkpt lat="47.46557" lon="6.79644">
        <ele>376</ele>
        <time>2015-03-01T09:48:53.000Z</time>
      </trkpt>
      <trkpt lat="47.46555" lon="6.79644">
        <ele>376</ele>
        <time>2015-03-01T09:48:54.000Z</time>
      </trkpt>
      <trkpt lat="47.46552" lon="6.79644">
        <ele>376</ele>
        <time>2015-03-01T09:48:55.000Z</time>
      </trkpt>
      <trkpt lat="47.46549" lon="6.79644">
        <ele>376</ele>
        <time>2015-03-01T09:48:56.000Z</time>
      </trkpt>
      <trkpt lat="47.46545" lon="6.79643">
        <ele>376</ele>
        <time>2015-03-01T09:48:58.000Z</time>
      </trkpt>
      <trkpt lat="47.46542" lon="6.79643">
        <ele>376</ele>
        <time>2015-03-01T09:48:59.000Z</time>
      </trkpt>
      <trkpt lat="47.46539" lon="6.79643">
        <ele>376</ele>
        <time>2015-03-01T09:49:00.000Z</time>
      </trkpt>
      <trkpt lat="47.46536" lon="6.79643">
        <ele>376</ele>
        <time>2015-03-01T09:49:01.000Z</time>
      </trkpt>
      <trkpt lat="47.46534" lon="6.79643">
        <ele>377</ele>
        <time>2015-03-01T09:49:02.000Z</time>
      </trkpt>
      <trkpt lat="47.4653" lon="6.79643">
        <ele>377</ele>
        <time>2015-03-01T09:49:04.000Z</time>
      </trkpt>
      <trkpt lat="47.46526" lon="6.79643">
        <ele>377</ele>
        <time>2015-03-01T09:49:06.000Z</time>
      </trkpt>
      <trkpt lat="47.46524" lon="6.79642">
        <ele>377</ele>
        <time>2015-03-01T09:49:07.000Z</time>
      </trkpt>
      <trkpt lat="47.46522" lon="6.79642">
        <ele>377</ele>
        <time>2015-03-01T09:49:08.000Z</time>
      </trkpt>
      <trkpt lat="47.46519" lon="6.79641">
        <ele>377</ele>
        <time>2015-03-01T09:49:09.000Z</time>
      </trkpt>
      <trkpt lat="47.46515" lon="6.7964">
        <ele>377</ele>
        <time>2015-03-01T09:49:11.000Z</time>
      </trkpt>
      <trkpt lat="47.46513" lon="6.7964">
        <ele>377</ele>
        <time>2015-03-01T09:49:12.000Z</time>
      </trkpt>
      <trkpt lat="47.46509" lon="6.7964">
        <ele>377</ele>
        <time>2015-03-01T09:49:14.000Z</time>
      </trkpt>
      <trkpt lat="47.46507" lon="6.79641">
        <ele>377</ele>
        <time>2015-03-01T09:49:15.000Z</time>
      </trkpt>
      <trkpt lat="47.46503" lon="6.79642">
        <ele>378</ele>
        <time>2015-03-01T09:49:20.999Z</time>
      </trkpt>
      <trkpt lat="47.46502" lon="6.79643">
        <ele>378</ele>
        <time>2015-03-01T09:49:22.000Z</time>
      </trkpt>
      <trkpt lat="47.46498" lon="6.79643">
        <ele>380</ele>
        <time>2015-03-01T09:49:30.000Z</time>
      </trkpt>
      <trkpt lat="47.46497" lon="6.79642">
        <ele>380</ele>
        <time>2015-03-01T09:49:31.000Z</time>
      </trkpt>
      <trkpt lat="47.46493" lon="6.79641">
        <ele>380</ele>
        <time>2015-03-01T09:49:34.000Z</time>
      </trkpt>
      <trkpt lat="47.46491" lon="6.79641">
        <ele>380</ele>
        <time>2015-03-01T09:49:35.000Z</time>
      </trkpt>
      <trkpt lat="47.46487" lon="6.79641">
        <ele>380</ele>
        <time>2015-03-01T09:49:37.000Z</time>
      </trkpt>
      <trkpt lat="47.46485" lon="6.7964">
        <ele>380</ele>
        <time>2015-03-01T09:49:38.000Z</time>
      </trkpt>
      <trkpt lat="47.46481" lon="6.79639">
        <ele>380</ele>
        <time>2015-03-01T09:49:40.000Z</time>
      </trkpt>
      <trkpt lat="47.4648" lon="6.79638">
        <ele>380</ele>
        <time>2015-03-01T09:49:41.000Z</time>
      </trkpt>
      <trkpt lat="47.46477" lon="6.79637">
        <ele>380</ele>
        <time>2015-03-01T09:49:43.000Z</time>
      </trkpt>
      <trkpt lat="47.46475" lon="6.79637">
        <ele>380</ele>
        <time>2015-03-01T09:49:44.000Z</time>
      </trkpt>
      <trkpt lat="47.46471" lon="6.79636">
        <ele>380</ele>
        <time>2015-03-01T09:49:46.000Z</time>
      </trkpt>
      <trkpt lat="47.46469" lon="6.79635">
        <ele>380</ele>
        <time>2015-03-01T09:49:47.000Z</time>
      </trkpt>
      <trkpt lat="47.46465" lon="6.79634">
        <ele>380</ele>
        <time>2015-03-01T09:49:49.000Z</time>
      </trkpt>
      <trkpt lat="47.46464" lon="6.79633">
        <ele>380</ele>
        <time>2015-03-01T09:49:50.000Z</time>
      </trkpt>
      <trkpt lat="47.46461" lon="6.79632">
        <ele>381</ele>
        <time>2015-03-01T09:49:52.000Z</time>
      </trkpt>
      <trkpt lat="47.46459" lon="6.79632">
        <ele>381</ele>
        <time>2015-03-01T09:49:53.000Z</time>
      </trkpt>
      <trkpt lat="47.46456" lon="6.79633">
        <ele>381</ele>
        <time>2015-03-01T09:49:54.000Z</time>
      </trkpt>
      <trkpt lat="47.46454" lon="6.79633">
        <ele>381</ele>
        <time>2015-03-01T09:49:55.000Z</time>
      </trkpt>
      <trkpt lat="47.46452" lon="6.79627">
        <ele>381</ele>
        <time>2015-03-01T09:50:18.000Z</time>
      </trkpt>
      <trkpt lat="47.46452" lon="6.79627">
        <ele>381</ele>
        <time>2015-03-01T09:50:19.000Z</time>
      </trkpt>
      <trkpt lat="47.46448" lon="6.79627">
        <ele>381</ele>
        <time>2015-03-01T09:50:32.000Z</time>
      </trkpt>
      <trkpt lat="47.46447" lon="6.79627">
        <ele>381</ele>
        <time>2015-03-01T09:50:33.000Z</time>
      </trkpt>
      <trkpt lat="47.46446" lon="6.79631">
        <ele>381</ele>
        <time>2015-03-01T09:50:36.000Z</time>
      </trkpt>
      <trkpt lat="47.46445" lon="6.79633">
        <ele>381</ele>
        <time>2015-03-01T09:50:37.000Z</time>
      </trkpt>
      <trkpt lat="47.46444" lon="6.79638">
        <ele>381</ele>
        <time>2015-03-01T09:50:40.000Z</time>
      </trkpt>
      <trkpt lat="47.46444" lon="6.7964">
        <ele>381</ele>
        <time>2015-03-01T09:50:41.000Z</time>
      </trkpt>
      <trkpt lat="47.46443" lon="6.79646">
        <ele>382</ele>
        <time>2015-03-01T09:50:45.000Z</time>
      </trkpt>
      <trkpt lat="47.46443" lon="6.79647">
        <ele>382</ele>
        <time>2015-03-01T09:50:46.000Z</time>
      </trkpt>
      <trkpt lat="47.46444" lon="6.79652">
        <ele>382</ele>
        <time>2015-03-01T09:50:48.000Z</time>
      </trkpt>
      <trkpt lat="47.46444" lon="6.79654">
        <ele>382</ele>
        <time>2015-03-01T09:50:49.000Z</time>
      </trkpt>
      <trkpt lat="47.46445" lon="6.7966">
        <ele>382</ele>
        <time>2015-03-01T09:50:52.000Z</time>
      </trkpt>
      <trkpt lat="47.46444" lon="6.79662">
        <ele>382</ele>
        <time>2015-03-01T09:50:53.000Z</time>
      </trkpt>
      <trkpt lat="47.46442" lon="6.79666">
        <ele>382</ele>
        <time>2015-03-01T09:50:55.000Z</time>
      </trkpt>
      <trkpt lat="47.46442" lon="6.79668">
        <ele>385</ele>
        <time>2015-03-01T09:50:56.000Z</time>
      </trkpt>
      <trkpt lat="47.4644" lon="6.79673">
        <ele>385</ele>
        <time>2015-03-01T09:50:58.000Z</time>
      </trkpt>
      <trkpt lat="47.46439" lon="6.79675">
        <ele>385</ele>
        <time>2015-03-01T09:50:59.000Z</time>
      </trkpt>
      <trkpt lat="47.46438" lon="6.7968">
        <ele>385</ele>
        <time>2015-03-01T09:51:01.000Z</time>
      </trkpt>
      <trkpt lat="47.46438" lon="6.79682">
        <ele>385</ele>
        <time>2015-03-01T09:51:02.000Z</time>
      </trkpt>
      <trkpt lat="47.46437" lon="6.79687">
        <ele>385</ele>
        <time>2015-03-01T09:51:04.000Z</time>
      </trkpt>
      <trkpt lat="47.46437" lon="6.7969">
        <ele>385</ele>
        <time>2015-03-01T09:51:05.000Z</time>
      </trkpt>
      <trkpt lat="47.46435" lon="6.79695">
        <ele>385</ele>
        <time>2015-03-01T09:51:07.000Z</time>
      </trkpt>
      <trkpt lat="47.46434" lon="6.79698">
        <ele>385</ele>
        <time>2015-03-01T09:51:08.000Z</time>
      </trkpt>
      <trkpt lat="47.46434" lon="6.79703">
        <ele>386</ele>
        <time>2015-03-01T09:51:11.000Z</time>
      </trkpt>
      <trkpt lat="47.46433" lon="6.79705">
        <ele>386</ele>
        <time>2015-03-01T09:51:12.000Z</time>
      </trkpt>
      <trkpt lat="47.46431" lon="6.79707">
        <ele>386</ele>
        <time>2015-03-01T09:51:13.000Z</time>
      </trkpt>
      <trkpt lat="47.46428" lon="6.7971">
        <ele>386</ele>
        <time>2015-03-01T09:51:14.000Z</time>
      </trkpt>
      <trkpt lat="47.46426" lon="6.79712">
        <ele>386</ele>
        <time>2015-03-01T09:51:15.000Z</time>
      </trkpt>
      <trkpt lat="47.46424" lon="6.79714">
        <ele>386</ele>
        <time>2015-03-01T09:51:16.000Z</time>
      </trkpt>
      <trkpt lat="47.46422" lon="6.79716">
        <ele>386</ele>
        <time>2015-03-01T09:51:17.000Z</time>
      </trkpt>
      <trkpt lat="47.4642" lon="6.79718">
        <ele>386</ele>
        <time>2015-03-01T09:51:18.000Z</time>
      </trkpt>
      <trkpt lat="47.46417" lon="6.79722">
        <ele>387</ele>
        <time>2015-03-01T09:51:20.000Z</time>
      </trkpt>
      <trkpt lat="47.46415" lon="6.79724">
        <ele>388</ele>
        <time>2015-03-01T09:51:21.000Z</time>
      </trkpt>
      <trkpt lat="47.46413" lon="6.79726">
        <ele>389</ele>
        <time>2015-03-01T09:51:22.000Z</time>
      </trkpt>
      <trkpt lat="47.46412" lon="6.79728">
        <ele>389</ele>
        <time>2015-03-01T09:51:23.000Z</time>
      </trkpt>
      <trkpt lat="47.4641" lon="6.79731">
        <ele>389</ele>
        <time>2015-03-01T09:51:24.000Z</time>
      </trkpt>
      <trkpt lat="47.46408" lon="6.79733">
        <ele>389</ele>
        <time>2015-03-01T09:51:25.000Z</time>
      </trkpt>
      <trkpt lat="47.46405" lon="6.79737">
        <ele>389</ele>
        <time>2015-03-01T09:51:27.000Z</time>
      </trkpt>
      <trkpt lat="47.46404" lon="6.79739">
        <ele>389</ele>
        <time>2015-03-01T09:51:28.000Z</time>
      </trkpt>
      <trkpt lat="47.464" lon="6.79742">
        <ele>389</ele>
        <time>2015-03-01T09:51:30.000Z</time>
      </trkpt>
      <trkpt lat="47.46399" lon="6.79744">
        <ele>389</ele>
        <time>2015-03-01T09:51:31.000Z</time>
      </trkpt>
      <trkpt lat="47.46397" lon="6.79748">
        <ele>389</ele>
        <time>2015-03-01T09:51:33.000Z</time>
      </trkpt>
      <trkpt lat="47.46397" lon="6.7975">
        <ele>392</ele>
        <time>2015-03-01T09:51:34.000Z</time>
      </trkpt>
      <trkpt lat="47.46397" lon="6.79755">
        <ele>392</ele>
        <time>2015-03-01T09:51:36.000Z</time>
      </trkpt>
      <trkpt lat="47.46396" lon="6.79757">
        <ele>392</ele>
        <time>2015-03-01T09:51:37.000Z</time>
      </trkpt>
      <trkpt lat="47.46394" lon="6.7976">
        <ele>392</ele>
        <time>2015-03-01T09:51:38.000Z</time>
      </trkpt>
      <trkpt lat="47.46393" lon="6.79762">
        <ele>392</ele>
        <time>2015-03-01T09:51:39.000Z</time>
      </trkpt>
      <trkpt lat="47.46391" lon="6.79764">
        <ele>392</ele>
        <time>2015-03-01T09:51:40.000Z</time>
      </trkpt>
      <trkpt lat="47.46389" lon="6.79766">
        <ele>393</ele>
        <time>2015-03-01T09:51:41.000Z</time>
      </trkpt>
      <trkpt lat="47.46386" lon="6.7977">
        <ele>393</ele>
        <time>2015-03-01T09:51:43.000Z</time>
      </trkpt>
      <trkpt lat="47.46386" lon="6.79772">
        <ele>393</ele>
        <time>2015-03-01T09:51:44.000Z</time>
      </trkpt>
      <trkpt lat="47.46385" lon="6.79777">
        <ele>393</ele>
        <time>2015-03-01T09:51:46.000Z</time>
      </trkpt>
      <trkpt lat="47.46385" lon="6.79779">
        <ele>393</ele>
        <time>2015-03-01T09:51:47.000Z</time>
      </trkpt>
      <trkpt lat="47.46384" lon="6.79783">
        <ele>393</ele>
        <time>2015-03-01T09:51:48.000Z</time>
      </trkpt>
      <trkpt lat="47.46383" lon="6.79786">
        <ele>394</ele>
        <time>2015-03-01T09:51:49.000Z</time>
      </trkpt>
      <trkpt lat="47.4638" lon="6.7979">
        <ele>394</ele>
        <time>2015-03-01T09:51:51.000Z</time>
      </trkpt>
      <trkpt lat="47.46379" lon="6.79793">
        <ele>394</ele>
        <time>2015-03-01T09:51:51.999Z</time>
      </trkpt>
      <trkpt lat="47.46377" lon="6.79798">
        <ele>394</ele>
        <time>2015-03-01T09:51:54.000Z</time>
      </trkpt>
      <trkpt lat="47.46376" lon="6.798">
        <ele>394</ele>
        <time>2015-03-01T09:51:55.000Z</time>
      </trkpt>
      <trkpt lat="47.46373" lon="6.79804">
        <ele>395</ele>
        <time>2015-03-01T09:51:57.000Z</time>
      </trkpt>
      <trkpt lat="47.46371" lon="6.79806">
        <ele>395</ele>
        <time>2015-03-01T09:51:58.000Z</time>
      </trkpt>
      <trkpt lat="47.4637" lon="6.79808">
        <ele>395</ele>
        <time>2015-03-01T09:51:59.000Z</time>
      </trkpt>
      <trkpt lat="47.46368" lon="6.7981">
        <ele>395</ele>
        <time>2015-03-01T09:52:00.000Z</time>
      </trkpt>
      <trkpt lat="47.46365" lon="6.79814">
        <ele>395</ele>
        <time>2015-03-01T09:52:02.000Z</time>
      </trkpt>
      <trkpt lat="47.46364" lon="6.79817">
        <ele>395</ele>
        <time>2015-03-01T09:52:03.000Z</time>
      </trkpt>
      <trkpt lat="47.46362" lon="6.7982">
        <ele>396</ele>
        <time>2015-03-01T09:52:05.000Z</time>
      </trkpt>
      <trkpt lat="47.46361" lon="6.79822">
        <ele>396</ele>
        <time>2015-03-01T09:52:06.000Z</time>
      </trkpt>
      <trkpt lat="47.46359" lon="6.79826">
        <ele>396</ele>
        <time>2015-03-01T09:52:08.000Z</time>
      </trkpt>
      <trkpt lat="47.46357" lon="6.79828">
        <ele>396</ele>
        <time>2015-03-01T09:52:09.000Z</time>
      </trkpt>
      <trkpt lat="47.46356" lon="6.79831">
        <ele>396</ele>
        <time>2015-03-01T09:52:10.000Z</time>
      </trkpt>
      <trkpt lat="47.46354" lon="6.79833">
        <ele>399</ele>
        <time>2015-03-01T09:52:11.000Z</time>
      </trkpt>
      <trkpt lat="47.46352" lon="6.79836">
        <ele>399</ele>
        <time>2015-03-01T09:52:12.000Z</time>
      </trkpt>
      <trkpt lat="47.46351" lon="6.79838">
        <ele>399</ele>
        <time>2015-03-01T09:52:13.000Z</time>
      </trkpt>
      <trkpt lat="47.46349" lon="6.79841">
        <ele>399</ele>
        <time>2015-03-01T09:52:14.000Z</time>
      </trkpt>
      <trkpt lat="47.46348" lon="6.79844">
        <ele>399</ele>
        <time>2015-03-01T09:52:15.000Z</time>
      </trkpt>
      <trkpt lat="47.46346" lon="6.79847">
        <ele>399</ele>
        <time>2015-03-01T09:52:16.000Z</time>
      </trkpt>
      <trkpt lat="47.46345" lon="6.7985">
        <ele>399</ele>
        <time>2015-03-01T09:52:17.000Z</time>
      </trkpt>
      <trkpt lat="47.46344" lon="6.79853">
        <ele>399</ele>
        <time>2015-03-01T09:52:18.000Z</time>
      </trkpt>
      <trkpt lat="47.46343" lon="6.79856">
        <ele>399</ele>
        <time>2015-03-01T09:52:19.000Z</time>
      </trkpt>
      <trkpt lat="47.46342" lon="6.79859">
        <ele>399</ele>
        <time>2015-03-01T09:52:20.000Z</time>
      </trkpt>
      <trkpt lat="47.4634" lon="6.79862">
        <ele>399</ele>
        <time>2015-03-01T09:52:21.000Z</time>
      </trkpt>
      <trkpt lat="47.46338" lon="6.79865">
        <ele>399</ele>
        <time>2015-03-01T09:52:22.000Z</time>
      </trkpt>
      <trkpt lat="47.46335" lon="6.79867">
        <ele>399</ele>
        <time>2015-03-01T09:52:23.000Z</time>
      </trkpt>
      <trkpt lat="47.46333" lon="6.79871">
        <ele>401</ele>
        <time>2015-03-01T09:52:24.000Z</time>
      </trkpt>
      <trkpt lat="47.46331" lon="6.79874">
        <ele>401</ele>
        <time>2015-03-01T09:52:25.000Z</time>
      </trkpt>
      <trkpt lat="47.46329" lon="6.79876">
        <ele>401</ele>
        <time>2015-03-01T09:52:26.000Z</time>
      </trkpt>
      <trkpt lat="47.46328" lon="6.79878">
        <ele>401</ele>
        <time>2015-03-01T09:52:27.000Z</time>
      </trkpt>
      <trkpt lat="47.46325" lon="6.79882">
        <ele>401</ele>
        <time>2015-03-01T09:52:29.000Z</time>
      </trkpt>
      <trkpt lat="47.46325" lon="6.79885">
        <ele>401</ele>
        <time>2015-03-01T09:52:30.000Z</time>
      </trkpt>
      <trkpt lat="47.46324" lon="6.7989">
        <ele>401</ele>
        <time>2015-03-01T09:52:32.000Z</time>
      </trkpt>
      <trkpt lat="47.46324" lon="6.79893">
        <ele>401</ele>
        <time>2015-03-01T09:52:33.000Z</time>
      </trkpt>
      <trkpt lat="47.46322" lon="6.79898">
        <ele>401</ele>
        <time>2015-03-01T09:52:35.000Z</time>
      </trkpt>
      <trkpt lat="47.4632" lon="6.799">
        <ele>401</ele>
        <time>2015-03-01T09:52:36.000Z</time>
      </trkpt>
      <trkpt lat="47.46317" lon="6.79903">
        <ele>401</ele>
        <time>2015-03-01T09:52:37.000Z</time>
      </trkpt>
      <trkpt lat="47.46315" lon="6.79905">
        <ele>401</ele>
        <time>2015-03-01T09:52:38.000Z</time>
      </trkpt>
      <trkpt lat="47.46313" lon="6.79908">
        <ele>401</ele>
        <time>2015-03-01T09:52:39.000Z</time>
      </trkpt>
      <trkpt lat="47.46311" lon="6.79912">
        <ele>401</ele>
        <time>2015-03-01T09:52:40.000Z</time>
      </trkpt>
      <trkpt lat="47.4631" lon="6.79915">
        <ele>402</ele>
        <time>2015-03-01T09:52:41.000Z</time>
      </trkpt>
      <trkpt lat="47.46309" lon="6.79917">
        <ele>402</ele>
        <time>2015-03-01T09:52:42.000Z</time>
      </trkpt>
      <trkpt lat="47.46308" lon="6.7992">
        <ele>402</ele>
        <time>2015-03-01T09:52:43.000Z</time>
      </trkpt>
      <trkpt lat="47.46306" lon="6.79924">
        <ele>402</ele>
        <time>2015-03-01T09:52:44.000Z</time>
      </trkpt>
      <trkpt lat="47.46305" lon="6.79927">
        <ele>402</ele>
        <time>2015-03-01T09:52:45.000Z</time>
      </trkpt>
      <trkpt lat="47.46304" lon="6.79931">
        <ele>402</ele>
        <time>2015-03-01T09:52:46.000Z</time>
      </trkpt>
      <trkpt lat="47.46303" lon="6.79937">
        <ele>402</ele>
        <time>2015-03-01T09:52:48.000Z</time>
      </trkpt>
      <trkpt lat="47.46302" lon="6.7994">
        <ele>402</ele>
        <time>2015-03-01T09:52:49.000Z</time>
      </trkpt>
      <trkpt lat="47.46301" lon="6.79945">
        <ele>402</ele>
        <time>2015-03-01T09:52:51.000Z</time>
      </trkpt>
      <trkpt lat="47.46301" lon="6.79949">
        <ele>402</ele>
        <time>2015-03-01T09:52:52.000Z</time>
      </trkpt>
      <trkpt lat="47.463" lon="6.79952">
        <ele>402</ele>
        <time>2015-03-01T09:52:53.000Z</time>
      </trkpt>
      <trkpt lat="47.46299" lon="6.79955">
        <ele>402</ele>
        <time>2015-03-01T09:52:53.999Z</time>
      </trkpt>
      <trkpt lat="47.46298" lon="6.7996">
        <ele>402</ele>
        <time>2015-03-01T09:52:55.000Z</time>
      </trkpt>
      <trkpt lat="47.46297" lon="6.79964">
        <ele>402</ele>
        <time>2015-03-01T09:52:56.000Z</time>
      </trkpt>
      <trkpt lat="47.46296" lon="6.79967">
        <ele>402</ele>
        <time>2015-03-01T09:52:57.000Z</time>
      </trkpt>
      <trkpt lat="47.46295" lon="6.79971">
        <ele>402</ele>
        <time>2015-03-01T09:52:58.000Z</time>
      </trkpt>
      <trkpt lat="47.46294" lon="6.79974">
        <ele>402</ele>
        <time>2015-03-01T09:52:59.000Z</time>
      </trkpt>
      <trkpt lat="47.46291" lon="6.79978">
        <ele>402</ele>
        <time>2015-03-01T09:53:00.000Z</time>
      </trkpt>
      <trkpt lat="47.46289" lon="6.79982">
        <ele>402</ele>
        <time>2015-03-01T09:53:01.000Z</time>
      </trkpt>
      <trkpt lat="47.46287" lon="6.79987">
        <ele>402</ele>
        <time>2015-03-01T09:53:02.000Z</time>
      </trkpt>
      <trkpt lat="47.46284" lon="6.79993">
        <ele>402</ele>
        <time>2015-03-01T09:53:03.000Z</time>
      </trkpt>
      <trkpt lat="47.46282" lon="6.79998">
        <ele>402</ele>
        <time>2015-03-01T09:53:04.000Z</time>
      </trkpt>
      <trkpt lat="47.46279" lon="6.8001">
        <ele>401</ele>
        <time>2015-03-01T09:53:05.000Z</time>
      </trkpt>
      <trkpt lat="47.46276" lon="6.80017">
        <ele>401</ele>
        <time>2015-03-01T09:53:06.000Z</time>
      </trkpt>
      <trkpt lat="47.46273" lon="6.80025">
        <ele>401</ele>
        <time>2015-03-01T09:53:07.000Z</time>
      </trkpt>
      <trkpt lat="47.46271" lon="6.80033">
        <ele>400</ele>
        <time>2015-03-01T09:53:08.000Z</time>
      </trkpt>
      <trkpt lat="47.46268" lon="6.8004">
        <ele>400</ele>
        <time>2015-03-01T09:53:09.000Z</time>
      </trkpt>
      <trkpt lat="47.46265" lon="6.80048">
        <ele>400</ele>
        <time>2015-03-01T09:53:10.000Z</time>
      </trkpt>
      <trkpt lat="47.46263" lon="6.80055">
        <ele>400</ele>
        <time>2015-03-01T09:53:11.000Z</time>
      </trkpt>
      <trkpt lat="47.4626" lon="6.8006">
        <ele>400</ele>
        <time>2015-03-01T09:53:12.000Z</time>
      </trkpt>
      <trkpt lat="47.46256" lon="6.80065">
        <ele>400</ele>
        <time>2015-03-01T09:53:13.000Z</time>
      </trkpt>
      <trkpt lat="47.46253" lon="6.80071">
        <ele>400</ele>
        <time>2015-03-01T09:53:14.000Z</time>
      </trkpt>
      <trkpt lat="47.46252" lon="6.80075">
        <ele>400</ele>
        <time>2015-03-01T09:53:15.000Z</time>
      </trkpt>
      <trkpt lat="47.4625" lon="6.80079">
        <ele>400</ele>
        <time>2015-03-01T09:53:16.000Z</time>
      </trkpt>
      <trkpt lat="47.4625" lon="6.80083">
        <ele>400</ele>
        <time>2015-03-01T09:53:17.000Z</time>
      </trkpt>
      <trkpt lat="47.46247" lon="6.80087">
        <ele>400</ele>
        <time>2015-03-01T09:53:18.000Z</time>
      </trkpt>
      <trkpt lat="47.46249" lon="6.80091">
        <ele>401</ele>
        <time>2015-03-01T09:53:19.000Z</time>
      </trkpt>
      <trkpt lat="47.46248" lon="6.80095">
        <ele>401</ele>
        <time>2015-03-01T09:53:20.000Z</time>
      </trkpt>
      <trkpt lat="47.46247" lon="6.80098">
        <ele>401</ele>
        <time>2015-03-01T09:53:21.000Z</time>
      </trkpt>
      <trkpt lat="47.46245" lon="6.80099">
        <ele>401</ele>
        <time>2015-03-01T09:53:22.000Z</time>
      </trkpt>
      <trkpt lat="47.46243" lon="6.80102">
        <ele>401</ele>
        <time>2015-03-01T09:53:23.000Z</time>
      </trkpt>
      <trkpt lat="47.46242" lon="6.80105">
        <ele>402</ele>
        <time>2015-03-01T09:53:24.000Z</time>
      </trkpt>
      <trkpt lat="47.46241" lon="6.80109">
        <ele>402</ele>
        <time>2015-03-01T09:53:25.000Z</time>
      </trkpt>
      <trkpt lat="47.4624" lon="6.80113">
        <ele>402</ele>
        <time>2015-03-01T09:53:26.000Z</time>
      </trkpt>
      <trkpt lat="47.4624" lon="6.80116">
        <ele>402</ele>
        <time>2015-03-01T09:53:27.000Z</time>
      </trkpt>
      <trkpt lat="47.46239" lon="6.8012">
        <ele>402</ele>
        <time>2015-03-01T09:53:28.000Z</time>
      </trkpt>
      <trkpt lat="47.46238" lon="6.80123">
        <ele>402</ele>
        <time>2015-03-01T09:53:29.000Z</time>
      </trkpt>
      <trkpt lat="47.46237" lon="6.80126">
        <ele>402</ele>
        <time>2015-03-01T09:53:30.000Z</time>
      </trkpt>
      <trkpt lat="47.46236" lon="6.80129">
        <ele>402</ele>
        <time>2015-03-01T09:53:31.000Z</time>
      </trkpt>
      <trkpt lat="47.46235" lon="6.80132">
        <ele>402</ele>
        <time>2015-03-01T09:53:32.000Z</time>
      </trkpt>
      <trkpt lat="47.46233" lon="6.80135">
        <ele>402</ele>
        <time>2015-03-01T09:53:33.000Z</time>
      </trkpt>
      <trkpt lat="47.46231" lon="6.80137">
        <ele>402</ele>
        <time>2015-03-01T09:53:34.000Z</time>
      </trkpt>
      <trkpt lat="47.46229" lon="6.8014">
        <ele>402</ele>
        <time>2015-03-01T09:53:35.000Z</time>
      </trkpt>
      <trkpt lat="47.46227" lon="6.80142">
        <ele>402</ele>
        <time>2015-03-01T09:53:36.000Z</time>
      </trkpt>
      <trkpt lat="47.46225" lon="6.80144">
        <ele>402</ele>
        <time>2015-03-01T09:53:37.000Z</time>
      </trkpt>
      <trkpt lat="47.46223" lon="6.80146">
        <ele>402</ele>
        <time>2015-03-01T09:53:38.000Z</time>
      </trkpt>
      <trkpt lat="47.4622" lon="6.8015">
        <ele>403</ele>
        <time>2015-03-01T09:53:40.000Z</time>
      </trkpt>
      <trkpt lat="47.46218" lon="6.80153">
        <ele>403</ele>
        <time>2015-03-01T09:53:41.000Z</time>
      </trkpt>
      <trkpt lat="47.46216" lon="6.80156">
        <ele>403</ele>
        <time>2015-03-01T09:53:42.000Z</time>
      </trkpt>
      <trkpt lat="47.46215" lon="6.80159">
        <ele>403</ele>
        <time>2015-03-01T09:53:43.000Z</time>
      </trkpt>
      <trkpt lat="47.46213" lon="6.80165">
        <ele>403</ele>
        <time>2015-03-01T09:53:45.000Z</time>
      </trkpt>
      <trkpt lat="47.46213" lon="6.80167">
        <ele>404</ele>
        <time>2015-03-01T09:53:46.000Z</time>
      </trkpt>
      <trkpt lat="47.46214" lon="6.80172">
        <ele>404</ele>
        <time>2015-03-01T09:53:48.000Z</time>
      </trkpt>
      <trkpt lat="47.46214" lon="6.80175">
        <ele>404</ele>
        <time>2015-03-01T09:53:49.000Z</time>
      </trkpt>
      <trkpt lat="47.46215" lon="6.80181">
        <ele>404</ele>
        <time>2015-03-01T09:53:51.000Z</time>
      </trkpt>
      <trkpt lat="47.46215" lon="6.80183">
        <ele>404</ele>
        <time>2015-03-01T09:53:52.000Z</time>
      </trkpt>
      <trkpt lat="47.46214" lon="6.8019">
        <ele>404</ele>
        <time>2015-03-01T09:53:55.000Z</time>
      </trkpt>
      <trkpt lat="47.46213" lon="6.80192">
        <ele>404</ele>
        <time>2015-03-01T09:53:56.000Z</time>
      </trkpt>
      <trkpt lat="47.46212" lon="6.80196">
        <ele>404</ele>
        <time>2015-03-01T09:53:58.000Z</time>
      </trkpt>
      <trkpt lat="47.46212" lon="6.80198">
        <ele>404</ele>
        <time>2015-03-01T09:53:58.999Z</time>
      </trkpt>
      <trkpt lat="47.4621" lon="6.80204">
        <ele>404</ele>
        <time>2015-03-01T09:54:01.000Z</time>
      </trkpt>
      <trkpt lat="47.46209" lon="6.80207">
        <ele>404</ele>
        <time>2015-03-01T09:54:02.000Z</time>
      </trkpt>
      <trkpt lat="47.46208" lon="6.80212">
        <ele>404</ele>
        <time>2015-03-01T09:54:04.000Z</time>
      </trkpt>
      <trkpt lat="47.46207" lon="6.80216">
        <ele>404</ele>
        <time>2015-03-01T09:54:05.000Z</time>
      </trkpt>
      <trkpt lat="47.46207" lon="6.8022">
        <ele>404</ele>
        <time>2015-03-01T09:54:06.000Z</time>
      </trkpt>
      <trkpt lat="47.46206" lon="6.80224">
        <ele>404</ele>
        <time>2015-03-01T09:54:07.000Z</time>
      </trkpt>
      <trkpt lat="47.46205" lon="6.80228">
        <ele>404</ele>
        <time>2015-03-01T09:54:08.000Z</time>
      </trkpt>
      <trkpt lat="47.46203" lon="6.80233">
        <ele>404</ele>
        <time>2015-03-01T09:54:09.000Z</time>
      </trkpt>
      <trkpt lat="47.46201" lon="6.80236">
        <ele>405</ele>
        <time>2015-03-01T09:54:10.000Z</time>
      </trkpt>
      <trkpt lat="47.462" lon="6.8024">
        <ele>405</ele>
        <time>2015-03-01T09:54:11.000Z</time>
      </trkpt>
      <trkpt lat="47.46199" lon="6.80246">
        <ele>405</ele>
        <time>2015-03-01T09:54:13.000Z</time>
      </trkpt>
      <trkpt lat="47.462" lon="6.80248">
        <ele>405</ele>
        <time>2015-03-01T09:54:14.000Z</time>
      </trkpt>
      <trkpt lat="47.46201" lon="6.80254">
        <ele>405</ele>
        <time>2015-03-01T09:54:16.000Z</time>
      </trkpt>
      <trkpt lat="47.46201" lon="6.80257">
        <ele>405</ele>
        <time>2015-03-01T09:54:17.000Z</time>
      </trkpt>
      <trkpt lat="47.462" lon="6.80262">
        <ele>405</ele>
        <time>2015-03-01T09:54:19.000Z</time>
      </trkpt>
      <trkpt lat="47.46199" lon="6.80264">
        <ele>405</ele>
        <time>2015-03-01T09:54:20.000Z</time>
      </trkpt>
      <trkpt lat="47.46197" lon="6.80268">
        <ele>405</ele>
        <time>2015-03-01T09:54:22.000Z</time>
      </trkpt>
      <trkpt lat="47.46196" lon="6.8027">
        <ele>405</ele>
        <time>2015-03-01T09:54:23.000Z</time>
      </trkpt>
      <trkpt lat="47.46193" lon="6.80273">
        <ele>405</ele>
        <time>2015-03-01T09:54:25.000Z</time>
      </trkpt>
      <trkpt lat="47.46192" lon="6.80275">
        <ele>405</ele>
        <time>2015-03-01T09:54:26.000Z</time>
      </trkpt>
      <trkpt lat="47.46189" lon="6.80278">
        <ele>405</ele>
        <time>2015-03-01T09:54:39.000Z</time>
      </trkpt>
      <trkpt lat="47.46187" lon="6.80278">
        <ele>405</ele>
        <time>2015-03-01T09:54:40.000Z</time>
      </trkpt>
      <trkpt lat="47.46184" lon="6.80279">
        <ele>405</ele>
        <time>2015-03-01T09:54:42.000Z</time>
      </trkpt>
      <trkpt lat="47.46182" lon="6.80278">
        <ele>405</ele>
        <time>2015-03-01T09:54:43.000Z</time>
      </trkpt>
      <trkpt lat="47.46178" lon="6.80275">
        <ele>406</ele>
        <time>2015-03-01T09:54:46.000Z</time>
      </trkpt>
      <trkpt lat="47.46176" lon="6.80275">
        <ele>406</ele>
        <time>2015-03-01T09:54:47.000Z</time>
      </trkpt>
      <trkpt lat="47.46172" lon="6.80275">
        <ele>406</ele>
        <time>2015-03-01T09:54:49.000Z</time>
      </trkpt>
      <trkpt lat="47.4617" lon="6.80275">
        <ele>406</ele>
        <time>2015-03-01T09:54:50.000Z</time>
      </trkpt>
      <trkpt lat="47.46168" lon="6.80274">
        <ele>406</ele>
        <time>2015-03-01T09:54:51.000Z</time>
      </trkpt>
      <trkpt lat="47.46165" lon="6.80274">
        <ele>409</ele>
        <time>2015-03-01T09:54:52.000Z</time>
      </trkpt>
      <trkpt lat="47.46162" lon="6.80273">
        <ele>409</ele>
        <time>2015-03-01T09:54:54.000Z</time>
      </trkpt>
      <trkpt lat="47.46159" lon="6.80272">
        <ele>409</ele>
        <time>2015-03-01T09:54:55.000Z</time>
      </trkpt>
      <trkpt lat="47.46155" lon="6.80271">
        <ele>409</ele>
        <time>2015-03-01T09:54:57.000Z</time>
      </trkpt>
      <trkpt lat="47.46154" lon="6.8027">
        <ele>409</ele>
        <time>2015-03-01T09:54:58.000Z</time>
      </trkpt>
      <trkpt lat="47.46149" lon="6.80269">
        <ele>409</ele>
        <time>2015-03-01T09:55:02.000Z</time>
      </trkpt>
      <trkpt lat="47.46147" lon="6.80268">
        <ele>409</ele>
        <time>2015-03-01T09:55:03.000Z</time>
      </trkpt>
      <trkpt lat="47.46145" lon="6.80268">
        <ele>409</ele>
        <time>2015-03-01T09:55:04.000Z</time>
      </trkpt>
      <trkpt lat="47.46143" lon="6.80267">
        <ele>409</ele>
        <time>2015-03-01T09:55:05.000Z</time>
      </trkpt>
      <trkpt lat="47.4614" lon="6.80266">
        <ele>409</ele>
        <time>2015-03-01T09:55:06.000Z</time>
      </trkpt>
      <trkpt lat="47.46138" lon="6.80265">
        <ele>409</ele>
        <time>2015-03-01T09:55:07.000Z</time>
      </trkpt>
      <trkpt lat="47.46134" lon="6.80263">
        <ele>409</ele>
        <time>2015-03-01T09:55:09.000Z</time>
      </trkpt>
      <trkpt lat="47.46132" lon="6.80262">
        <ele>409</ele>
        <time>2015-03-01T09:55:10.000Z</time>
      </trkpt>
      <trkpt lat="47.46129" lon="6.80261">
        <ele>409</ele>
        <time>2015-03-01T09:55:11.000Z</time>
      </trkpt>
      <trkpt lat="47.46127" lon="6.8026">
        <ele>409</ele>
        <time>2015-03-01T09:55:12.000Z</time>
      </trkpt>
      <trkpt lat="47.46122" lon="6.80258">
        <ele>409</ele>
        <time>2015-03-01T09:55:14.000Z</time>
      </trkpt>
      <trkpt lat="47.46121" lon="6.80258">
        <ele>409</ele>
        <time>2015-03-01T09:55:14.999Z</time>
      </trkpt>
      <trkpt lat="47.46117" lon="6.80254">
        <ele>409</ele>
        <time>2015-03-01T09:55:19.000Z</time>
      </trkpt>
      <trkpt lat="47.46116" lon="6.80254">
        <ele>409</ele>
        <time>2015-03-01T09:55:20.000Z</time>
      </trkpt>
      <trkpt lat="47.46112" lon="6.80253">
        <ele>409</ele>
        <time>2015-03-01T09:55:22.000Z</time>
      </trkpt>
      <trkpt lat="47.4611" lon="6.80252">
        <ele>409</ele>
        <time>2015-03-01T09:55:23.000Z</time>
      </trkpt>
      <trkpt lat="47.46107" lon="6.80252">
        <ele>409</ele>
        <time>2015-03-01T09:55:24.000Z</time>
      </trkpt>
      <trkpt lat="47.46105" lon="6.80251">
        <ele>409</ele>
        <time>2015-03-01T09:55:25.000Z</time>
      </trkpt>
      <trkpt lat="47.46103" lon="6.80251">
        <ele>409</ele>
        <time>2015-03-01T09:55:26.000Z</time>
      </trkpt>
      <trkpt lat="47.461" lon="6.8025">
        <ele>409</ele>
        <time>2015-03-01T09:55:27.000Z</time>
      </trkpt>
      <trkpt lat="47.46098" lon="6.80249">
        <ele>409</ele>
        <time>2015-03-01T09:55:28.000Z</time>
      </trkpt>
      <trkpt lat="47.46095" lon="6.80249">
        <ele>409</ele>
        <time>2015-03-01T09:55:29.000Z</time>
      </trkpt>
      <trkpt lat="47.46092" lon="6.80248">
        <ele>409</ele>
        <time>2015-03-01T09:55:30.000Z</time>
      </trkpt>
      <trkpt lat="47.4609" lon="6.80248">
        <ele>409</ele>
        <time>2015-03-01T09:55:31.000Z</time>
      </trkpt>
      <trkpt lat="47.46086" lon="6.80247">
        <ele>409</ele>
        <time>2015-03-01T09:55:33.000Z</time>
      </trkpt>
      <trkpt lat="47.46085" lon="6.80248">
        <ele>409</ele>
        <time>2015-03-01T09:55:34.000Z</time>
      </trkpt>
      <trkpt lat="47.46083" lon="6.80251">
        <ele>409</ele>
        <time>2015-03-01T09:55:37.000Z</time>
      </trkpt>
      <trkpt lat="47.46082" lon="6.80253">
        <ele>408</ele>
        <time>2015-03-01T09:55:38.000Z</time>
      </trkpt>
      <trkpt lat="47.4608" lon="6.80258">
        <ele>408</ele>
        <time>2015-03-01T09:55:40.000Z</time>
      </trkpt>
      <trkpt lat="47.46079" lon="6.80261">
        <ele>407</ele>
        <time>2015-03-01T09:55:41.000Z</time>
      </trkpt>
      <trkpt lat="47.46078" lon="6.80267">
        <ele>407</ele>
        <time>2015-03-01T09:55:43.000Z</time>
      </trkpt>
      <trkpt lat="47.46078" lon="6.8027">
        <ele>406</ele>
        <time>2015-03-01T09:55:44.000Z</time>
      </trkpt>
      <trkpt lat="47.46076" lon="6.80275">
        <ele>406</ele>
        <time>2015-03-01T09:55:46.000Z</time>
      </trkpt>
      <trkpt lat="47.46075" lon="6.80278">
        <ele>406</ele>
        <time>2015-03-01T09:55:47.000Z</time>
      </trkpt>
      <trkpt lat="47.46072" lon="6.80281">
        <ele>406</ele>
        <time>2015-03-01T09:55:49.000Z</time>
      </trkpt>
      <trkpt lat="47.4607" lon="6.80283">
        <ele>405</ele>
        <time>2015-03-01T09:55:50.000Z</time>
      </trkpt>
      <trkpt lat="47.46068" lon="6.80284">
        <ele>405</ele>
        <time>2015-03-01T09:55:51.000Z</time>
      </trkpt>
      <trkpt lat="47.46065" lon="6.80284">
        <ele>405</ele>
        <time>2015-03-01T09:55:52.000Z</time>
      </trkpt>
      <trkpt lat="47.46061" lon="6.80284">
        <ele>405</ele>
        <time>2015-03-01T09:55:54.000Z</time>
      </trkpt>
      <trkpt lat="47.46059" lon="6.80283">
        <ele>405</ele>
        <time>2015-03-01T09:55:55.000Z</time>
      </trkpt>
      <trkpt lat="47.46057" lon="6.80282">
        <ele>405</ele>
        <time>2015-03-01T09:55:56.000Z</time>
      </trkpt>
      <trkpt lat="47.46054" lon="6.80282">
        <ele>405</ele>
        <time>2015-03-01T09:55:57.000Z</time>
      </trkpt>
      <trkpt lat="47.46051" lon="6.80282">
        <ele>404</ele>
        <time>2015-03-01T09:55:58.000Z</time>
      </trkpt>
      <trkpt lat="47.46048" lon="6.80282">
        <ele>404</ele>
        <time>2015-03-01T09:55:59.000Z</time>
      </trkpt>
      <trkpt lat="47.46045" lon="6.80283">
        <ele>404</ele>
        <time>2015-03-01T09:56:00.000Z</time>
      </trkpt>
      <trkpt lat="47.46043" lon="6.80283">
        <ele>404</ele>
        <time>2015-03-01T09:56:01.001Z</time>
      </trkpt>
      <trkpt lat="47.46039" lon="6.80285">
        <ele>404</ele>
        <time>2015-03-01T09:56:03.000Z</time>
      </trkpt>
      <trkpt lat="47.46038" lon="6.80285">
        <ele>404</ele>
        <time>2015-03-01T09:56:04.000Z</time>
      </trkpt>
      <trkpt lat="47.46034" lon="6.80286">
        <ele>403</ele>
        <time>2015-03-01T09:58:59.000Z</time>
      </trkpt>
      <trkpt lat="47.46033" lon="6.80287">
        <ele>403</ele>
        <time>2015-03-01T09:59:00.000Z</time>
      </trkpt>
      <trkpt lat="47.46031" lon="6.80293">
        <ele>403</ele>
        <time>2015-03-01T09:59:03.000Z</time>
      </trkpt>
      <trkpt lat="47.46031" lon="6.80297">
        <ele>403</ele>
        <time>2015-03-01T09:59:04.000Z</time>
      </trkpt>
      <trkpt lat="47.46032" lon="6.80302">
        <ele>403</ele>
        <time>2015-03-01T09:59:05.000Z</time>
      </trkpt>
      <trkpt lat="47.46036" lon="6.80316">
        <ele>403</ele>
        <time>2015-03-01T09:59:06.000Z</time>
      </trkpt>
      <trkpt lat="47.46038" lon="6.80321">
        <ele>403</ele>
        <time>2015-03-01T09:59:07.000Z</time>
      </trkpt>
      <trkpt lat="47.46039" lon="6.80327">
        <ele>403</ele>
        <time>2015-03-01T09:59:08.000Z</time>
      </trkpt>
      <trkpt lat="47.4604" lon="6.80334">
        <ele>402</ele>
        <time>2015-03-01T09:59:09.000Z</time>
      </trkpt>
      <trkpt lat="47.4604" lon="6.80338">
        <ele>402</ele>
        <time>2015-03-01T09:59:10.000Z</time>
      </trkpt>
      <trkpt lat="47.46042" lon="6.80343">
        <ele>402</ele>
        <time>2015-03-01T09:59:11.000Z</time>
      </trkpt>
      <trkpt lat="47.46043" lon="6.80346">
        <ele>402</ele>
        <time>2015-03-01T09:59:12.000Z</time>
      </trkpt>
      <trkpt lat="47.46045" lon="6.80349">
        <ele>402</ele>
        <time>2015-03-01T09:59:13.000Z</time>
      </trkpt>
      <trkpt lat="47.46046" lon="6.80352">
        <ele>402</ele>
        <time>2015-03-01T09:59:14.000Z</time>
      </trkpt>
      <trkpt lat="47.46048" lon="6.80354">
        <ele>402</ele>
        <time>2015-03-01T09:59:15.000Z</time>
      </trkpt>
      <trkpt lat="47.46049" lon="6.80357">
        <ele>402</ele>
        <time>2015-03-01T09:59:16.000Z</time>
      </trkpt>
      <trkpt lat="47.4605" lon="6.80361">
        <ele>402</ele>
        <time>2015-03-01T09:59:17.000Z</time>
      </trkpt>
      <trkpt lat="47.46052" lon="6.80367">
        <ele>402</ele>
        <time>2015-03-01T09:59:18.000Z</time>
      </trkpt>
      <trkpt lat="47.46055" lon="6.80377">
        <ele>402</ele>
        <time>2015-03-01T09:59:19.000Z</time>
      </trkpt>
      <trkpt lat="47.46056" lon="6.80384">
        <ele>403</ele>
        <time>2015-03-01T09:59:20.000Z</time>
      </trkpt>
      <trkpt lat="47.46059" lon="6.80392">
        <ele>403</ele>
        <time>2015-03-01T09:59:21.000Z</time>
      </trkpt>
      <trkpt lat="47.4606" lon="6.804">
        <ele>403</ele>
        <time>2015-03-01T09:59:22.000Z</time>
      </trkpt>
      <trkpt lat="47.46062" lon="6.8041">
        <ele>403</ele>
        <time>2015-03-01T09:59:23.000Z</time>
      </trkpt>
      <trkpt lat="47.46062" lon="6.8042">
        <ele>402</ele>
        <time>2015-03-01T09:59:24.000Z</time>
      </trkpt>
      <trkpt lat="47.46063" lon="6.80431">
        <ele>402</ele>
        <time>2015-03-01T09:59:25.000Z</time>
      </trkpt>
      <trkpt lat="47.46064" lon="6.80441">
        <ele>401</ele>
        <time>2015-03-01T09:59:26.000Z</time>
      </trkpt>
      <trkpt lat="47.46065" lon="6.80453">
        <ele>401</ele>
        <time>2015-03-01T09:59:27.000Z</time>
      </trkpt>
      <trkpt lat="47.46068" lon="6.80465">
        <ele>401</ele>
        <time>2015-03-01T09:59:28.000Z</time>
      </trkpt>
      <trkpt lat="47.46068" lon="6.80475">
        <ele>401</ele>
        <time>2015-03-01T09:59:29.000Z</time>
      </trkpt>
      <trkpt lat="47.4607" lon="6.80485">
        <ele>401</ele>
        <time>2015-03-01T09:59:30.001Z</time>
      </trkpt>
      <trkpt lat="47.46071" lon="6.80494">
        <ele>401</ele>
        <time>2015-03-01T09:59:31.000Z</time>
      </trkpt>
      <trkpt lat="47.46066" lon="6.80503">
        <ele>400</ele>
        <time>2015-03-01T09:59:32.000Z</time>
      </trkpt>
      <trkpt lat="47.46059" lon="6.80515">
        <ele>399</ele>
        <time>2015-03-01T09:59:33.000Z</time>
      </trkpt>
      <trkpt lat="47.46056" lon="6.80527">
        <ele>399</ele>
        <time>2015-03-01T09:59:34.000Z</time>
      </trkpt>
      <trkpt lat="47.46052" lon="6.80539">
        <ele>399</ele>
        <time>2015-03-01T09:59:35.000Z</time>
      </trkpt>
      <trkpt lat="47.46049" lon="6.8055">
        <ele>398</ele>
        <time>2015-03-01T09:59:36.000Z</time>
      </trkpt>
      <trkpt lat="47.46048" lon="6.80561">
        <ele>398</ele>
        <time>2015-03-01T09:59:37.000Z</time>
      </trkpt>
      <trkpt lat="47.46048" lon="6.80569">
        <ele>398</ele>
        <time>2015-03-01T09:59:38.000Z</time>
      </trkpt>
      <trkpt lat="47.46049" lon="6.80576">
        <ele>398</ele>
        <time>2015-03-01T09:59:39.000Z</time>
      </trkpt>
      <trkpt lat="47.46047" lon="6.80579">
        <ele>398</ele>
        <time>2015-03-01T09:59:40.000Z</time>
      </trkpt>
      <trkpt lat="47.46044" lon="6.80584">
        <ele>396</ele>
        <time>2015-03-01T09:59:42.000Z</time>
      </trkpt>
      <trkpt lat="47.46043" lon="6.80584">
        <ele>396</ele>
        <time>2015-03-01T09:59:43.000Z</time>
      </trkpt>
      <trkpt lat="47.46042" lon="6.80586">
        <ele>396</ele>
        <time>2015-03-01T09:59:44.000Z</time>
      </trkpt>
      <trkpt lat="47.46039" lon="6.80589">
        <ele>396</ele>
        <time>2015-03-01T09:59:45.000Z</time>
      </trkpt>
      <trkpt lat="47.46038" lon="6.80592">
        <ele>396</ele>
        <time>2015-03-01T09:59:46.000Z</time>
      </trkpt>
      <trkpt lat="47.46036" lon="6.80596">
        <ele>396</ele>
        <time>2015-03-01T09:59:47.000Z</time>
      </trkpt>
      <trkpt lat="47.46034" lon="6.80599">
        <ele>396</ele>
        <time>2015-03-01T09:59:48.000Z</time>
      </trkpt>
      <trkpt lat="47.46033" lon="6.80603">
        <ele>396</ele>
        <time>2015-03-01T09:59:49.000Z</time>
      </trkpt>
      <trkpt lat="47.46031" lon="6.80608">
        <ele>395</ele>
        <time>2015-03-01T09:59:51.000Z</time>
      </trkpt>
      <trkpt lat="47.4603" lon="6.8061">
        <ele>395</ele>
        <time>2015-03-01T09:59:52.000Z</time>
      </trkpt>
      <trkpt lat="47.46028" lon="6.80614">
        <ele>395</ele>
        <time>2015-03-01T09:59:54.000Z</time>
      </trkpt>
      <trkpt lat="47.46028" lon="6.80617">
        <ele>395</ele>
        <time>2015-03-01T09:59:55.000Z</time>
      </trkpt>
      <trkpt lat="47.46028" lon="6.80622">
        <ele>395</ele>
        <time>2015-03-01T09:59:57.000Z</time>
      </trkpt>
      <trkpt lat="47.46029" lon="6.80625">
        <ele>395</ele>
        <time>2015-03-01T09:59:58.000Z</time>
      </trkpt>
      <trkpt lat="47.46029" lon="6.8063">
        <ele>395</ele>
        <time>2015-03-01T10:00:00.000Z</time>
      </trkpt>
      <trkpt lat="47.46028" lon="6.80633">
        <ele>395</ele>
        <time>2015-03-01T10:00:01.000Z</time>
      </trkpt>
      <trkpt lat="47.46026" lon="6.80637">
        <ele>394</ele>
        <time>2015-03-01T10:00:03.000Z</time>
      </trkpt>
      <trkpt lat="47.46024" lon="6.80638">
        <ele>394</ele>
        <time>2015-03-01T10:00:04.000Z</time>
      </trkpt>
      <trkpt lat="47.46021" lon="6.80642">
        <ele>394</ele>
        <time>2015-03-01T10:00:07.000Z</time>
      </trkpt>
      <trkpt lat="47.4602" lon="6.80645">
        <ele>394</ele>
        <time>2015-03-01T10:00:08.000Z</time>
      </trkpt>
      <trkpt lat="47.46019" lon="6.80651">
        <ele>394</ele>
        <time>2015-03-01T10:00:10.000Z</time>
      </trkpt>
      <trkpt lat="47.46018" lon="6.80653">
        <ele>393</ele>
        <time>2015-03-01T10:00:11.000Z</time>
      </trkpt>
      <trkpt lat="47.46015" lon="6.80657">
        <ele>393</ele>
        <time>2015-03-01T10:00:13.000Z</time>
      </trkpt>
      <trkpt lat="47.46013" lon="6.80658">
        <ele>393</ele>
        <time>2015-03-01T10:00:14.000Z</time>
      </trkpt>
      <trkpt lat="47.4601" lon="6.80661">
        <ele>393</ele>
        <time>2015-03-01T10:00:16.000Z</time>
      </trkpt>
      <trkpt lat="47.4601" lon="6.80663">
        <ele>392</ele>
        <time>2015-03-01T10:00:17.000Z</time>
      </trkpt>
      <trkpt lat="47.46011" lon="6.80669">
        <ele>391</ele>
        <time>2015-03-01T10:00:19.000Z</time>
      </trkpt>
      <trkpt lat="47.46011" lon="6.80672">
        <ele>391</ele>
        <time>2015-03-01T10:00:20.000Z</time>
      </trkpt>
      <trkpt lat="47.46008" lon="6.80675">
        <ele>391</ele>
        <time>2015-03-01T10:00:22.000Z</time>
      </trkpt>
      <trkpt lat="47.46005" lon="6.80677">
        <ele>391</ele>
        <time>2015-03-01T10:00:23.000Z</time>
      </trkpt>
      <trkpt lat="47.46002" lon="6.80679">
        <ele>391</ele>
        <time>2015-03-01T10:00:25.000Z</time>
      </trkpt>
      <trkpt lat="47.46" lon="6.8068">
        <ele>391</ele>
        <time>2015-03-01T10:00:26.000Z</time>
      </trkpt>
      <trkpt lat="47.45999" lon="6.80684">
        <ele>387</ele>
        <time>2015-03-01T10:00:28.000Z</time>
      </trkpt>
      <trkpt lat="47.45998" lon="6.80687">
        <ele>387</ele>
        <time>2015-03-01T10:00:29.000Z</time>
      </trkpt>
      <trkpt lat="47.45997" lon="6.80691">
        <ele>387</ele>
        <time>2015-03-01T10:00:30.000Z</time>
      </trkpt>
      <trkpt lat="47.45995" lon="6.80695">
        <ele>386</ele>
        <time>2015-03-01T10:00:31.000Z</time>
      </trkpt>
      <trkpt lat="47.45994" lon="6.80698">
        <ele>386</ele>
        <time>2015-03-01T10:00:32.000Z</time>
      </trkpt>
      <trkpt lat="47.45993" lon="6.80702">
        <ele>386</ele>
        <time>2015-03-01T10:00:33.000Z</time>
      </trkpt>
      <trkpt lat="47.45993" lon="6.80708">
        <ele>386</ele>
        <time>2015-03-01T10:00:35.000Z</time>
      </trkpt>
      <trkpt lat="47.45993" lon="6.8071">
        <ele>386</ele>
        <time>2015-03-01T10:00:36.000Z</time>
      </trkpt>
      <trkpt lat="47.45992" lon="6.80714">
        <ele>386</ele>
        <time>2015-03-01T10:00:38.000Z</time>
      </trkpt>
      <trkpt lat="47.45989" lon="6.80715">
        <ele>386</ele>
        <time>2015-03-01T10:00:39.000Z</time>
      </trkpt>
      <trkpt lat="47.45985" lon="6.80717">
        <ele>386</ele>
        <time>2015-03-01T10:00:40.000Z</time>
      </trkpt>
      <trkpt lat="47.45982" lon="6.80719">
        <ele>386</ele>
        <time>2015-03-01T10:00:41.000Z</time>
      </trkpt>
      <trkpt lat="47.45979" lon="6.80722">
        <ele>386</ele>
        <time>2015-03-01T10:00:42.000Z</time>
      </trkpt>
      <trkpt lat="47.45977" lon="6.80726">
        <ele>386</ele>
        <time>2015-03-01T10:00:43.000Z</time>
      </trkpt>
      <trkpt lat="47.45976" lon="6.80732">
        <ele>386</ele>
        <time>2015-03-01T10:00:45.000Z</time>
      </trkpt>
      <trkpt lat="47.45976" lon="6.80733">
        <ele>386</ele>
        <time>2015-03-01T10:00:46.000Z</time>
      </trkpt>
      <trkpt lat="47.45976" lon="6.80738">
        <ele>386</ele>
        <time>2015-03-01T10:00:51.999Z</time>
      </trkpt>
      <trkpt lat="47.45976" lon="6.8074">
        <ele>386</ele>
        <time>2015-03-01T10:00:53.000Z</time>
      </trkpt>
      <trkpt lat="47.45976" lon="6.80746">
        <ele>386</ele>
        <time>2015-03-01T10:00:59.000Z</time>
      </trkpt>
      <trkpt lat="47.45976" lon="6.80748">
        <ele>386</ele>
        <time>2015-03-01T10:01:00.000Z</time>
      </trkpt>
      <trkpt lat="47.45977" lon="6.80754">
        <ele>388</ele>
        <time>2015-03-01T10:01:03.000Z</time>
      </trkpt>
      <trkpt lat="47.45977" lon="6.80757">
        <ele>388</ele>
        <time>2015-03-01T10:01:04.000Z</time>
      </trkpt>
      <trkpt lat="47.45977" lon="6.80763">
        <ele>387</ele>
        <time>2015-03-01T10:01:15.000Z</time>
      </trkpt>
      <trkpt lat="47.45977" lon="6.80763">
        <ele>387</ele>
        <time>2015-03-01T10:01:16.000Z</time>
      </trkpt>
      <trkpt lat="47.45975" lon="6.80767">
        <ele>387</ele>
        <time>2015-03-01T10:01:20.000Z</time>
      </trkpt>
      <trkpt lat="47.45974" lon="6.80769">
        <ele>387</ele>
        <time>2015-03-01T10:01:21.000Z</time>
      </trkpt>
      <trkpt lat="47.45973" lon="6.80774">
        <ele>387</ele>
        <time>2015-03-01T10:01:23.000Z</time>
      </trkpt>
      <trkpt lat="47.45972" lon="6.80777">
        <ele>387</ele>
        <time>2015-03-01T10:01:24.000Z</time>
      </trkpt>
      <trkpt lat="47.45971" lon="6.80781">
        <ele>387</ele>
        <time>2015-03-01T10:01:26.000Z</time>
      </trkpt>
      <trkpt lat="47.45971" lon="6.80783">
        <ele>387</ele>
        <time>2015-03-01T10:01:27.000Z</time>
      </trkpt>
      <trkpt lat="47.45971" lon="6.80788">
        <ele>386</ele>
        <time>2015-03-01T10:01:29.000Z</time>
      </trkpt>
      <trkpt lat="47.4597" lon="6.80791">
        <ele>386</ele>
        <time>2015-03-01T10:01:30.000Z</time>
      </trkpt>
      <trkpt lat="47.45968" lon="6.80794">
        <ele>386</ele>
        <time>2015-03-01T10:01:32.000Z</time>
      </trkpt>
      <trkpt lat="47.45966" lon="6.80796">
        <ele>386</ele>
        <time>2015-03-01T10:01:33.000Z</time>
      </trkpt>
      <trkpt lat="47.45966" lon="6.80801">
        <ele>386</ele>
        <time>2015-03-01T10:01:35.000Z</time>
      </trkpt>
      <trkpt lat="47.45966" lon="6.80804">
        <ele>386</ele>
        <time>2015-03-01T10:01:36.000Z</time>
      </trkpt>
      <trkpt lat="47.45967" lon="6.80808">
        <ele>386</ele>
        <time>2015-03-01T10:01:37.000Z</time>
      </trkpt>
      <trkpt lat="47.45968" lon="6.80813">
        <ele>387</ele>
        <time>2015-03-01T10:01:38.000Z</time>
      </trkpt>
      <trkpt lat="47.45968" lon="6.80818">
        <ele>387</ele>
        <time>2015-03-01T10:01:39.000Z</time>
      </trkpt>
      <trkpt lat="47.45969" lon="6.80823">
        <ele>387</ele>
        <time>2015-03-01T10:01:40.000Z</time>
      </trkpt>
      <trkpt lat="47.45969" lon="6.80827">
        <ele>387</ele>
        <time>2015-03-01T10:01:41.000Z</time>
      </trkpt>
      <trkpt lat="47.4597" lon="6.80832">
        <ele>387</ele>
        <time>2015-03-01T10:01:42.000Z</time>
      </trkpt>
      <trkpt lat="47.4597" lon="6.80836">
        <ele>387</ele>
        <time>2015-03-01T10:01:43.000Z</time>
      </trkpt>
      <trkpt lat="47.45971" lon="6.8084">
        <ele>387</ele>
        <time>2015-03-01T10:01:44.000Z</time>
      </trkpt>
      <trkpt lat="47.45972" lon="6.80846">
        <ele>387</ele>
        <time>2015-03-01T10:01:46.000Z</time>
      </trkpt>
      <trkpt lat="47.45972" lon="6.80848">
        <ele>387</ele>
        <time>2015-03-01T10:01:47.000Z</time>
      </trkpt>
      <trkpt lat="47.45974" lon="6.80853">
        <ele>387</ele>
        <time>2015-03-01T10:01:51.000Z</time>
      </trkpt>
      <trkpt lat="47.45974" lon="6.80855">
        <ele>387</ele>
        <time>2015-03-01T10:01:52.000Z</time>
      </trkpt>
      <trkpt lat="47.45977" lon="6.80859">
        <ele>387</ele>
        <time>2015-03-01T10:01:54.000Z</time>
      </trkpt>
      <trkpt lat="47.45978" lon="6.80861">
        <ele>387</ele>
        <time>2015-03-01T10:01:55.000Z</time>
      </trkpt>
      <trkpt lat="47.45978" lon="6.80864">
        <ele>387</ele>
        <time>2015-03-01T10:01:56.000Z</time>
      </trkpt>
      <trkpt lat="47.45978" lon="6.80868">
        <ele>387</ele>
        <time>2015-03-01T10:01:57.000Z</time>
      </trkpt>
      <trkpt lat="47.45977" lon="6.80873">
        <ele>387</ele>
        <time>2015-03-01T10:01:58.000Z</time>
      </trkpt>
      <trkpt lat="47.45976" lon="6.80877">
        <ele>387</ele>
        <time>2015-03-01T10:01:59.000Z</time>
      </trkpt>
      <trkpt lat="47.45976" lon="6.80881">
        <ele>387</ele>
        <time>2015-03-01T10:02:00.000Z</time>
      </trkpt>
      <trkpt lat="47.45977" lon="6.80885">
        <ele>387</ele>
        <time>2015-03-01T10:02:01.000Z</time>
      </trkpt>
      <trkpt lat="47.45978" lon="6.80887">
        <ele>387</ele>
        <time>2015-03-01T10:02:02.000Z</time>
      </trkpt>
      <trkpt lat="47.4598" lon="6.80891">
        <ele>387</ele>
        <time>2015-03-01T10:02:04.000Z</time>
      </trkpt>
      <trkpt lat="47.45983" lon="6.80895">
        <ele>387</ele>
        <time>2015-03-01T10:02:06.000Z</time>
      </trkpt>
      <trkpt lat="47.45984" lon="6.80897">
        <ele>387</ele>
        <time>2015-03-01T10:02:07.000Z</time>
      </trkpt>
      <trkpt lat="47.45983" lon="6.80903">
        <ele>387</ele>
        <time>2015-03-01T10:02:09.000Z</time>
      </trkpt>
      <trkpt lat="47.45981" lon="6.80907">
        <ele>387</ele>
        <time>2015-03-01T10:02:10.000Z</time>
      </trkpt>
      <trkpt lat="47.45979" lon="6.80912">
        <ele>387</ele>
        <time>2015-03-01T10:02:11.000Z</time>
      </trkpt>
      <trkpt lat="47.45976" lon="6.80918">
        <ele>388</ele>
        <time>2015-03-01T10:02:12.000Z</time>
      </trkpt>
      <trkpt lat="47.45974" lon="6.80924">
        <ele>387</ele>
        <time>2015-03-01T10:02:13.000Z</time>
      </trkpt>
      <trkpt lat="47.45972" lon="6.80931">
        <ele>387</ele>
        <time>2015-03-01T10:02:14.000Z</time>
      </trkpt>
      <trkpt lat="47.4597" lon="6.80939">
        <ele>387</ele>
        <time>2015-03-01T10:02:15.000Z</time>
      </trkpt>
      <trkpt lat="47.45968" lon="6.80947">
        <ele>387</ele>
        <time>2015-03-01T10:02:16.000Z</time>
      </trkpt>
      <trkpt lat="47.45967" lon="6.80955">
        <ele>387</ele>
        <time>2015-03-01T10:02:17.000Z</time>
      </trkpt>
      <trkpt lat="47.45967" lon="6.80962">
        <ele>387</ele>
        <time>2015-03-01T10:02:18.000Z</time>
      </trkpt>
      <trkpt lat="47.45967" lon="6.8097">
        <ele>387</ele>
        <time>2015-03-01T10:02:19.000Z</time>
      </trkpt>
      <trkpt lat="47.45966" lon="6.80977">
        <ele>388</ele>
        <time>2015-03-01T10:02:20.000Z</time>
      </trkpt>
      <trkpt lat="47.45965" lon="6.80983">
        <ele>388</ele>
        <time>2015-03-01T10:02:21.000Z</time>
      </trkpt>
      <trkpt lat="47.45964" lon="6.80988">
        <ele>388</ele>
        <time>2015-03-01T10:02:22.000Z</time>
      </trkpt>
      <trkpt lat="47.45963" lon="6.80992">
        <ele>388</ele>
        <time>2015-03-01T10:02:23.000Z</time>
      </trkpt>
      <trkpt lat="47.45962" lon="6.80995">
        <ele>388</ele>
        <time>2015-03-01T10:02:24.000Z</time>
      </trkpt>
      <trkpt lat="47.45961" lon="6.81001">
        <ele>391</ele>
        <time>2015-03-01T10:02:27.000Z</time>
      </trkpt>
      <trkpt lat="47.45961" lon="6.81003">
        <ele>391</ele>
        <time>2015-03-01T10:02:28.000Z</time>
      </trkpt>
      <trkpt lat="47.45961" lon="6.81008">
        <ele>391</ele>
        <time>2015-03-01T10:02:31.000Z</time>
      </trkpt>
      <trkpt lat="47.45961" lon="6.8101">
        <ele>391</ele>
        <time>2015-03-01T10:02:32.000Z</time>
      </trkpt>
      <trkpt lat="47.45964" lon="6.81014">
        <ele>391</ele>
        <time>2015-03-01T10:02:41.000Z</time>
      </trkpt>
      <trkpt lat="47.45965" lon="6.81014">
        <ele>391</ele>
        <time>2015-03-01T10:02:42.000Z</time>
      </trkpt>
      <trkpt lat="47.45968" lon="6.81015">
        <ele>392</ele>
        <time>2015-03-01T10:02:53.000Z</time>
      </trkpt>
      <trkpt lat="47.45969" lon="6.81015">
        <ele>392</ele>
        <time>2015-03-01T10:02:54.000Z</time>
      </trkpt>
      <trkpt lat="47.45973" lon="6.81017">
        <ele>392</ele>
        <time>2015-03-01T10:02:57.000Z</time>
      </trkpt>
      <trkpt lat="47.45974" lon="6.81017">
        <ele>392</ele>
        <time>2015-03-01T10:02:58.000Z</time>
      </trkpt>
      <trkpt lat="47.45977" lon="6.81021">
        <ele>392</ele>
        <time>2015-03-01T10:03:01.000Z</time>
      </trkpt>
      <trkpt lat="47.45978" lon="6.81022">
        <ele>392</ele>
        <time>2015-03-01T10:03:02.000Z</time>
      </trkpt>
      <trkpt lat="47.45981" lon="6.81024">
        <ele>392</ele>
        <time>2015-03-01T10:03:04.000Z</time>
      </trkpt>
      <trkpt lat="47.45982" lon="6.81024">
        <ele>392</ele>
        <time>2015-03-01T10:03:04.999Z</time>
      </trkpt>
      <trkpt lat="47.45986" lon="6.81028">
        <ele>392</ele>
        <time>2015-03-01T10:03:07.000Z</time>
      </trkpt>
      <trkpt lat="47.45987" lon="6.8103">
        <ele>393</ele>
        <time>2015-03-01T10:03:08.000Z</time>
      </trkpt>
      <trkpt lat="47.4599" lon="6.81034">
        <ele>393</ele>
        <time>2015-03-01T10:03:10.000Z</time>
      </trkpt>
      <trkpt lat="47.45991" lon="6.81036">
        <ele>393</ele>
        <time>2015-03-01T10:03:11.000Z</time>
      </trkpt>
      <trkpt lat="47.45995" lon="6.81038">
        <ele>393</ele>
        <time>2015-03-01T10:03:16.000Z</time>
      </trkpt>
      <trkpt lat="47.45996" lon="6.81038">
        <ele>393</ele>
        <time>2015-03-01T10:03:17.000Z</time>
      </trkpt>
      <trkpt lat="47.45999" lon="6.81041">
        <ele>393</ele>
        <time>2015-03-01T10:03:20.000Z</time>
      </trkpt>
      <trkpt lat="47.46" lon="6.81042">
        <ele>398</ele>
        <time>2015-03-01T10:03:21.001Z</time>
      </trkpt>
      <trkpt lat="47.46004" lon="6.81045">
        <ele>398</ele>
        <time>2015-03-01T10:03:27.000Z</time>
      </trkpt>
      <trkpt lat="47.46005" lon="6.81045">
        <ele>398</ele>
        <time>2015-03-01T10:03:28.000Z</time>
      </trkpt>
      <trkpt lat="47.46009" lon="6.81046">
        <ele>398</ele>
        <time>2015-03-01T10:03:32.000Z</time>
      </trkpt>
      <trkpt lat="47.4601" lon="6.81047">
        <ele>398</ele>
        <time>2015-03-01T10:03:33.001Z</time>
      </trkpt>
      <trkpt lat="47.46014" lon="6.8105">
        <ele>398</ele>
        <time>2015-03-01T10:03:36.000Z</time>
      </trkpt>
      <trkpt lat="47.46015" lon="6.81052">
        <ele>398</ele>
        <time>2015-03-01T10:03:37.000Z</time>
      </trkpt>
      <trkpt lat="47.46018" lon="6.81056">
        <ele>399</ele>
        <time>2015-03-01T10:03:40.000Z</time>
      </trkpt>
      <trkpt lat="47.46018" lon="6.81057">
        <ele>399</ele>
        <time>2015-03-01T10:03:41.000Z</time>
      </trkpt>
      <trkpt lat="47.46019" lon="6.81063">
        <ele>399</ele>
        <time>2015-03-01T10:03:50.000Z</time>
      </trkpt>
      <trkpt lat="47.4602" lon="6.81064">
        <ele>399</ele>
        <time>2015-03-01T10:03:51.000Z</time>
      </trkpt>
      <trkpt lat="47.46024" lon="6.81067">
        <ele>399</ele>
        <time>2015-03-01T10:03:54.000Z</time>
      </trkpt>
      <trkpt lat="47.46025" lon="6.81067">
        <ele>399</ele>
        <time>2015-03-01T10:03:55.000Z</time>
      </trkpt>
      <trkpt lat="47.46029" lon="6.81065">
        <ele>399</ele>
        <time>2015-03-01T10:03:58.000Z</time>
      </trkpt>
      <trkpt lat="47.4603" lon="6.81067">
        <ele>399</ele>
        <time>2015-03-01T10:03:59.000Z</time>
      </trkpt>
      <trkpt lat="47.4603" lon="6.81073">
        <ele>399</ele>
        <time>2015-03-01T10:04:01.000Z</time>
      </trkpt>
      <trkpt lat="47.4603" lon="6.81076">
        <ele>399</ele>
        <time>2015-03-01T10:04:02.000Z</time>
      </trkpt>
      <trkpt lat="47.4603" lon="6.81082">
        <ele>399</ele>
        <time>2015-03-01T10:04:04.000Z</time>
      </trkpt>
      <trkpt lat="47.4603" lon="6.81085">
        <ele>401</ele>
        <time>2015-03-01T10:04:05.000Z</time>
      </trkpt>
      <trkpt lat="47.46029" lon="6.8109">
        <ele>401</ele>
        <time>2015-03-01T10:04:07.000Z</time>
      </trkpt>
      <trkpt lat="47.46029" lon="6.81092">
        <ele>401</ele>
        <time>2015-03-01T10:04:08.000Z</time>
      </trkpt>
      <trkpt lat="47.4603" lon="6.81098">
        <ele>401</ele>
        <time>2015-03-01T10:04:11.000Z</time>
      </trkpt>
      <trkpt lat="47.4603" lon="6.811">
        <ele>401</ele>
        <time>2015-03-01T10:04:12.000Z</time>
      </trkpt>
      <trkpt lat="47.46028" lon="6.81105">
        <ele>401</ele>
        <time>2015-03-01T10:04:19.000Z</time>
      </trkpt>
      <trkpt lat="47.46027" lon="6.81106">
        <ele>401</ele>
        <time>2015-03-01T10:04:20.000Z</time>
      </trkpt>
      <trkpt lat="47.46025" lon="6.81111">
        <ele>401</ele>
        <time>2015-03-01T10:04:23.999Z</time>
      </trkpt>
      <trkpt lat="47.46026" lon="6.81115">
        <ele>402</ele>
        <time>2015-03-01T10:04:25.000Z</time>
      </trkpt>
      <trkpt lat="47.46025" lon="6.8112">
        <ele>402</ele>
        <time>2015-03-01T10:04:27.000Z</time>
      </trkpt>
      <trkpt lat="47.46025" lon="6.81124">
        <ele>402</ele>
        <time>2015-03-01T10:04:28.000Z</time>
      </trkpt>
      <trkpt lat="47.46025" lon="6.81129">
        <ele>402</ele>
        <time>2015-03-01T10:04:30.000Z</time>
      </trkpt>
      <trkpt lat="47.46024" lon="6.8113">
        <ele>402</ele>
        <time>2015-03-01T10:04:31.000Z</time>
      </trkpt>
      <trkpt lat="47.46021" lon="6.81133">
        <ele>402</ele>
        <time>2015-03-01T10:04:35.000Z</time>
      </trkpt>
      <trkpt lat="47.4602" lon="6.81135">
        <ele>402</ele>
        <time>2015-03-01T10:04:36.000Z</time>
      </trkpt>
      <trkpt lat="47.46019" lon="6.8114">
        <ele>402</ele>
        <time>2015-03-01T10:04:39.000Z</time>
      </trkpt>
      <trkpt lat="47.46019" lon="6.81143">
        <ele>402</ele>
        <time>2015-03-01T10:04:40.000Z</time>
      </trkpt>
      <trkpt lat="47.46019" lon="6.81149">
        <ele>402</ele>
        <time>2015-03-01T10:04:42.000Z</time>
      </trkpt>
      <trkpt lat="47.46019" lon="6.81151">
        <ele>402</ele>
        <time>2015-03-01T10:04:42.999Z</time>
      </trkpt>
      <trkpt lat="47.46019" lon="6.81155">
        <ele>402</ele>
        <time>2015-03-01T10:04:44.000Z</time>
      </trkpt>
      <trkpt lat="47.46019" lon="6.81158">
        <ele>402</ele>
        <time>2015-03-01T10:04:45.000Z</time>
      </trkpt>
      <trkpt lat="47.46018" lon="6.81163">
        <ele>402</ele>
        <time>2015-03-01T10:04:47.000Z</time>
      </trkpt>
      <trkpt lat="47.46018" lon="6.81166">
        <ele>402</ele>
        <time>2015-03-01T10:04:48.000Z</time>
      </trkpt>
      <trkpt lat="47.46017" lon="6.81169">
        <ele>404</ele>
        <time>2015-03-01T10:04:50.000Z</time>
      </trkpt>
      <trkpt lat="47.46015" lon="6.81172">
        <ele>404</ele>
        <time>2015-03-01T10:04:51.000Z</time>
      </trkpt>
      <trkpt lat="47.46013" lon="6.81177">
        <ele>404</ele>
        <time>2015-03-01T10:04:54.000Z</time>
      </trkpt>
      <trkpt lat="47.46012" lon="6.81179">
        <ele>404</ele>
        <time>2015-03-01T10:04:55.000Z</time>
      </trkpt>
      <trkpt lat="47.46012" lon="6.81184">
        <ele>404</ele>
        <time>2015-03-01T10:04:58.000Z</time>
      </trkpt>
      <trkpt lat="47.46012" lon="6.81186">
        <ele>404</ele>
        <time>2015-03-01T10:04:59.000Z</time>
      </trkpt>
      <trkpt lat="47.46012" lon="6.81192">
        <ele>405</ele>
        <time>2015-03-01T10:05:01.000Z</time>
      </trkpt>
      <trkpt lat="47.46011" lon="6.81194">
        <ele>405</ele>
        <time>2015-03-01T10:05:02.000Z</time>
      </trkpt>
      <trkpt lat="47.4601" lon="6.81198">
        <ele>405</ele>
        <time>2015-03-01T10:05:04.000Z</time>
      </trkpt>
      <trkpt lat="47.4601" lon="6.812">
        <ele>405</ele>
        <time>2015-03-01T10:05:05.000Z</time>
      </trkpt>
      <trkpt lat="47.46009" lon="6.81202">
        <ele>405</ele>
        <time>2015-03-01T10:05:06.000Z</time>
      </trkpt>
      <trkpt lat="47.46008" lon="6.81207">
        <ele>405</ele>
        <time>2015-03-01T10:05:07.000Z</time>
      </trkpt>
      <trkpt lat="47.46007" lon="6.81213">
        <ele>405</ele>
        <time>2015-03-01T10:05:09.000Z</time>
      </trkpt>
      <trkpt lat="47.46006" lon="6.81215">
        <ele>405</ele>
        <time>2015-03-01T10:05:10.000Z</time>
      </trkpt>
      <trkpt lat="47.46004" lon="6.8122">
        <ele>405</ele>
        <time>2015-03-01T10:05:12.000Z</time>
      </trkpt>
      <trkpt lat="47.46004" lon="6.81223">
        <ele>405</ele>
        <time>2015-03-01T10:05:13.000Z</time>
      </trkpt>
      <trkpt lat="47.46002" lon="6.81226">
        <ele>405</ele>
        <time>2015-03-01T10:05:14.000Z</time>
      </trkpt>
      <trkpt lat="47.46001" lon="6.81228">
        <ele>405</ele>
        <time>2015-03-01T10:05:15.000Z</time>
      </trkpt>
      <trkpt lat="47.45998" lon="6.81232">
        <ele>404</ele>
        <time>2015-03-01T10:05:17.000Z</time>
      </trkpt>
      <trkpt lat="47.45997" lon="6.81233">
        <ele>404</ele>
        <time>2015-03-01T10:05:18.000Z</time>
      </trkpt>
      <trkpt lat="47.45995" lon="6.81237">
        <ele>404</ele>
        <time>2015-03-01T10:05:21.000Z</time>
      </trkpt>
      <trkpt lat="47.45994" lon="6.81239">
        <ele>404</ele>
        <time>2015-03-01T10:05:22.000Z</time>
      </trkpt>
      <trkpt lat="47.45993" lon="6.81243">
        <ele>404</ele>
        <time>2015-03-01T10:05:24.000Z</time>
      </trkpt>
      <trkpt lat="47.45992" lon="6.81246">
        <ele>404</ele>
        <time>2015-03-01T10:05:25.000Z</time>
      </trkpt>
      <trkpt lat="47.45991" lon="6.8125">
        <ele>406</ele>
        <time>2015-03-01T10:05:27.000Z</time>
      </trkpt>
      <trkpt lat="47.45991" lon="6.81254">
        <ele>406</ele>
        <time>2015-03-01T10:05:28.000Z</time>
      </trkpt>
      <trkpt lat="47.45991" lon="6.8126">
        <ele>406</ele>
        <time>2015-03-01T10:05:31.000Z</time>
      </trkpt>
      <trkpt lat="47.45991" lon="6.81262">
        <ele>406</ele>
        <time>2015-03-01T10:05:32.000Z</time>
      </trkpt>
      <trkpt lat="47.45991" lon="6.81267">
        <ele>407</ele>
        <time>2015-03-01T10:05:34.000Z</time>
      </trkpt>
      <trkpt lat="47.4599" lon="6.8127">
        <ele>407</ele>
        <time>2015-03-01T10:05:35.000Z</time>
      </trkpt>
      <trkpt lat="47.4599" lon="6.81274">
        <ele>407</ele>
        <time>2015-03-01T10:05:36.000Z</time>
      </trkpt>
      <trkpt lat="47.45989" lon="6.81279">
        <ele>407</ele>
        <time>2015-03-01T10:05:37.000Z</time>
      </trkpt>
      <trkpt lat="47.45988" lon="6.81284">
        <ele>408</ele>
        <time>2015-03-01T10:05:39.000Z</time>
      </trkpt>
      <trkpt lat="47.45987" lon="6.81289">
        <ele>408</ele>
        <time>2015-03-01T10:05:40.000Z</time>
      </trkpt>
      <trkpt lat="47.45986" lon="6.81294">
        <ele>409</ele>
        <time>2015-03-01T10:05:42.000Z</time>
      </trkpt>
      <trkpt lat="47.45986" lon="6.81296">
        <ele>409</ele>
        <time>2015-03-01T10:05:43.000Z</time>
      </trkpt>
      <trkpt lat="47.45984" lon="6.81302">
        <ele>409</ele>
        <time>2015-03-01T10:05:46.000Z</time>
      </trkpt>
      <trkpt lat="47.45982" lon="6.81305">
        <ele>409</ele>
        <time>2015-03-01T10:05:47.000Z</time>
      </trkpt>
      <trkpt lat="47.45981" lon="6.8131">
        <ele>410</ele>
        <time>2015-03-01T10:05:49.000Z</time>
      </trkpt>
      <trkpt lat="47.4598" lon="6.81312">
        <ele>410</ele>
        <time>2015-03-01T10:05:50.000Z</time>
      </trkpt>
      <trkpt lat="47.45979" lon="6.81317">
        <ele>410</ele>
        <time>2015-03-01T10:05:53.000Z</time>
      </trkpt>
      <trkpt lat="47.45978" lon="6.81321">
        <ele>410</ele>
        <time>2015-03-01T10:05:54.000Z</time>
      </trkpt>
      <trkpt lat="47.45977" lon="6.81326">
        <ele>411</ele>
        <time>2015-03-01T10:05:56.000Z</time>
      </trkpt>
      <trkpt lat="47.45976" lon="6.81329">
        <ele>411</ele>
        <time>2015-03-01T10:05:57.000Z</time>
      </trkpt>
      <trkpt lat="47.45974" lon="6.81334">
        <ele>415</ele>
        <time>2015-03-01T10:05:59.000Z</time>
      </trkpt>
      <trkpt lat="47.45973" lon="6.81336">
        <ele>415</ele>
        <time>2015-03-01T10:06:00.000Z</time>
      </trkpt>
      <trkpt lat="47.45971" lon="6.81342">
        <ele>415</ele>
        <time>2015-03-01T10:06:02.000Z</time>
      </trkpt>
      <trkpt lat="47.4597" lon="6.81345">
        <ele>415</ele>
        <time>2015-03-01T10:06:03.000Z</time>
      </trkpt>
      <trkpt lat="47.4597" lon="6.81351">
        <ele>416</ele>
        <time>2015-03-01T10:06:05.000Z</time>
      </trkpt>
      <trkpt lat="47.45969" lon="6.81354">
        <ele>416</ele>
        <time>2015-03-01T10:06:06.000Z</time>
      </trkpt>
      <trkpt lat="47.45968" lon="6.81359">
        <ele>416</ele>
        <time>2015-03-01T10:06:08.000Z</time>
      </trkpt>
      <trkpt lat="47.45967" lon="6.81361">
        <ele>416</ele>
        <time>2015-03-01T10:06:09.001Z</time>
      </trkpt>
      <trkpt lat="47.45966" lon="6.81365">
        <ele>416</ele>
        <time>2015-03-01T10:06:10.000Z</time>
      </trkpt>
      <trkpt lat="47.45965" lon="6.81368">
        <ele>416</ele>
        <time>2015-03-01T10:06:11.000Z</time>
      </trkpt>
      <trkpt lat="47.45965" lon="6.81374">
        <ele>416</ele>
        <time>2015-03-01T10:06:13.000Z</time>
      </trkpt>
      <trkpt lat="47.45964" lon="6.81377">
        <ele>417</ele>
        <time>2015-03-01T10:06:14.000Z</time>
      </trkpt>
      <trkpt lat="47.45963" lon="6.8138">
        <ele>417</ele>
        <time>2015-03-01T10:06:15.000Z</time>
      </trkpt>
      <trkpt lat="47.45962" lon="6.81384">
        <ele>417</ele>
        <time>2015-03-01T10:06:16.000Z</time>
      </trkpt>
      <trkpt lat="47.4596" lon="6.81387">
        <ele>417</ele>
        <time>2015-03-01T10:06:17.000Z</time>
      </trkpt>
      <trkpt lat="47.45959" lon="6.8139">
        <ele>417</ele>
        <time>2015-03-01T10:06:18.000Z</time>
      </trkpt>
      <trkpt lat="47.45958" lon="6.81394">
        <ele>417</ele>
        <time>2015-03-01T10:06:19.000Z</time>
      </trkpt>
      <trkpt lat="47.45957" lon="6.81397">
        <ele>417</ele>
        <time>2015-03-01T10:06:20.000Z</time>
      </trkpt>
      <trkpt lat="47.45956" lon="6.814">
        <ele>417</ele>
        <time>2015-03-01T10:06:21.000Z</time>
      </trkpt>
      <trkpt lat="47.45954" lon="6.81402">
        <ele>417</ele>
        <time>2015-03-01T10:06:22.000Z</time>
      </trkpt>
      <trkpt lat="47.45953" lon="6.81407">
        <ele>417</ele>
        <time>2015-03-01T10:06:24.000Z</time>
      </trkpt>
      <trkpt lat="47.45953" lon="6.8141">
        <ele>417</ele>
        <time>2015-03-01T10:06:25.000Z</time>
      </trkpt>
      <trkpt lat="47.45953" lon="6.81415">
        <ele>417</ele>
        <time>2015-03-01T10:06:27.000Z</time>
      </trkpt>
      <trkpt lat="47.45953" lon="6.81418">
        <ele>421</ele>
        <time>2015-03-01T10:06:28.000Z</time>
      </trkpt>
      <trkpt lat="47.45953" lon="6.81424">
        <ele>421</ele>
        <time>2015-03-01T10:06:30.000Z</time>
      </trkpt>
      <trkpt lat="47.45953" lon="6.81427">
        <ele>421</ele>
        <time>2015-03-01T10:06:31.000Z</time>
      </trkpt>
      <trkpt lat="47.45951" lon="6.81432">
        <ele>421</ele>
        <time>2015-03-01T10:06:33.000Z</time>
      </trkpt>
      <trkpt lat="47.4595" lon="6.81434">
        <ele>421</ele>
        <time>2015-03-01T10:06:34.000Z</time>
      </trkpt>
      <trkpt lat="47.4595" lon="6.81438">
        <ele>421</ele>
        <time>2015-03-01T10:06:36.000Z</time>
      </trkpt>
      <trkpt lat="47.45949" lon="6.8144">
        <ele>421</ele>
        <time>2015-03-01T10:06:37.000Z</time>
      </trkpt>
      <trkpt lat="47.45948" lon="6.81443">
        <ele>421</ele>
        <time>2015-03-01T10:06:38.000Z</time>
      </trkpt>
      <trkpt lat="47.45947" lon="6.81446">
        <ele>421</ele>
        <time>2015-03-01T10:06:39.000Z</time>
      </trkpt>
      <trkpt lat="47.45945" lon="6.81449">
        <ele>421</ele>
        <time>2015-03-01T10:06:40.000Z</time>
      </trkpt>
      <trkpt lat="47.45943" lon="6.81452">
        <ele>421</ele>
        <time>2015-03-01T10:06:41.000Z</time>
      </trkpt>
      <trkpt lat="47.45941" lon="6.81457">
        <ele>421</ele>
        <time>2015-03-01T10:06:43.000Z</time>
      </trkpt>
      <trkpt lat="47.45942" lon="6.81459">
        <ele>421</ele>
        <time>2015-03-01T10:06:44.000Z</time>
      </trkpt>
      <trkpt lat="47.45942" lon="6.81466">
        <ele>421</ele>
        <time>2015-03-01T10:06:47.000Z</time>
      </trkpt>
      <trkpt lat="47.45942" lon="6.81469">
        <ele>422</ele>
        <time>2015-03-01T10:06:48.000Z</time>
      </trkpt>
      <trkpt lat="47.45941" lon="6.81473">
        <ele>421</ele>
        <time>2015-03-01T10:06:49.000Z</time>
      </trkpt>
      <trkpt lat="47.4594" lon="6.81477">
        <ele>421</ele>
        <time>2015-03-01T10:06:50.000Z</time>
      </trkpt>
      <trkpt lat="47.45939" lon="6.81481">
        <ele>421</ele>
        <time>2015-03-01T10:06:51.000Z</time>
      </trkpt>
      <trkpt lat="47.45938" lon="6.81484">
        <ele>421</ele>
        <time>2015-03-01T10:06:52.000Z</time>
      </trkpt>
      <trkpt lat="47.45938" lon="6.81488">
        <ele>421</ele>
        <time>2015-03-01T10:06:53.000Z</time>
      </trkpt>
      <trkpt lat="47.45937" lon="6.81491">
        <ele>421</ele>
        <time>2015-03-01T10:06:54.000Z</time>
      </trkpt>
      <trkpt lat="47.45936" lon="6.81494">
        <ele>421</ele>
        <time>2015-03-01T10:06:55.000Z</time>
      </trkpt>
      <trkpt lat="47.45934" lon="6.81497">
        <ele>421</ele>
        <time>2015-03-01T10:06:56.000Z</time>
      </trkpt>
      <trkpt lat="47.45933" lon="6.81499">
        <ele>421</ele>
        <time>2015-03-01T10:06:57.000Z</time>
      </trkpt>
      <trkpt lat="47.45931" lon="6.81502">
        <ele>421</ele>
        <time>2015-03-01T10:06:58.000Z</time>
      </trkpt>
      <trkpt lat="47.45929" lon="6.81507">
        <ele>421</ele>
        <time>2015-03-01T10:07:00.000Z</time>
      </trkpt>
      <trkpt lat="47.45929" lon="6.81509">
        <ele>421</ele>
        <time>2015-03-01T10:07:01.000Z</time>
      </trkpt>
      <trkpt lat="47.45929" lon="6.81515">
        <ele>421</ele>
        <time>2015-03-01T10:07:03.000Z</time>
      </trkpt>
      <trkpt lat="47.45929" lon="6.81518">
        <ele>421</ele>
        <time>2015-03-01T10:07:04.000Z</time>
      </trkpt>
      <trkpt lat="47.4593" lon="6.81523">
        <ele>421</ele>
        <time>2015-03-01T10:07:06.000Z</time>
      </trkpt>
      <trkpt lat="47.45931" lon="6.81525">
        <ele>421</ele>
        <time>2015-03-01T10:07:07.000Z</time>
      </trkpt>
      <trkpt lat="47.45931" lon="6.81531">
        <ele>421</ele>
        <time>2015-03-01T10:07:09.000Z</time>
      </trkpt>
      <trkpt lat="47.45931" lon="6.81533">
        <ele>421</ele>
        <time>2015-03-01T10:07:10.000Z</time>
      </trkpt>
      <trkpt lat="47.45932" lon="6.81539">
        <ele>421</ele>
        <time>2015-03-01T10:07:12.000Z</time>
      </trkpt>
      <trkpt lat="47.45933" lon="6.81544">
        <ele>421</ele>
        <time>2015-03-01T10:07:13.000Z</time>
      </trkpt>
      <trkpt lat="47.45934" lon="6.81547">
        <ele>421</ele>
        <time>2015-03-01T10:07:13.999Z</time>
      </trkpt>
      <trkpt lat="47.45935" lon="6.81553">
        <ele>421</ele>
        <time>2015-03-01T10:07:15.000Z</time>
      </trkpt>
      <trkpt lat="47.45936" lon="6.81557">
        <ele>420</ele>
        <time>2015-03-01T10:07:15.999Z</time>
      </trkpt>
      <trkpt lat="47.45935" lon="6.81561">
        <ele>420</ele>
        <time>2015-03-01T10:07:17.000Z</time>
      </trkpt>
      <trkpt lat="47.45935" lon="6.81566">
        <ele>420</ele>
        <time>2015-03-01T10:07:18.000Z</time>
      </trkpt>
      <trkpt lat="47.45935" lon="6.81571">
        <ele>419</ele>
        <time>2015-03-01T10:07:19.000Z</time>
      </trkpt>
      <trkpt lat="47.45936" lon="6.81576">
        <ele>419</ele>
        <time>2015-03-01T10:07:20.000Z</time>
      </trkpt>
      <trkpt lat="47.45936" lon="6.81582">
        <ele>419</ele>
        <time>2015-03-01T10:07:21.000Z</time>
      </trkpt>
      <trkpt lat="47.45936" lon="6.81587">
        <ele>417</ele>
        <time>2015-03-01T10:07:22.000Z</time>
      </trkpt>
      <trkpt lat="47.45935" lon="6.81592">
        <ele>417</ele>
        <time>2015-03-01T10:07:23.000Z</time>
      </trkpt>
      <trkpt lat="47.45935" lon="6.81598">
        <ele>418</ele>
        <time>2015-03-01T10:07:24.000Z</time>
      </trkpt>
      <trkpt lat="47.45936" lon="6.81604">
        <ele>418</ele>
        <time>2015-03-01T10:07:25.000Z</time>
      </trkpt>
      <trkpt lat="47.45936" lon="6.8161">
        <ele>418</ele>
        <time>2015-03-01T10:07:26.000Z</time>
      </trkpt>
      <trkpt lat="47.45936" lon="6.81616">
        <ele>418</ele>
        <time>2015-03-01T10:07:27.000Z</time>
      </trkpt>
      <trkpt lat="47.45937" lon="6.81623">
        <ele>418</ele>
        <time>2015-03-01T10:07:28.000Z</time>
      </trkpt>
      <trkpt lat="47.45938" lon="6.81629">
        <ele>418</ele>
        <time>2015-03-01T10:07:29.000Z</time>
      </trkpt>
      <trkpt lat="47.45939" lon="6.81635">
        <ele>418</ele>
        <time>2015-03-01T10:07:30.000Z</time>
      </trkpt>
      <trkpt lat="47.4594" lon="6.81641">
        <ele>417</ele>
        <time>2015-03-01T10:07:31.000Z</time>
      </trkpt>
      <trkpt lat="47.45941" lon="6.81647">
        <ele>417</ele>
        <time>2015-03-01T10:07:32.000Z</time>
      </trkpt>
      <trkpt lat="47.45942" lon="6.81652">
        <ele>417</ele>
        <time>2015-03-01T10:07:33.000Z</time>
      </trkpt>
      <trkpt lat="47.45944" lon="6.81657">
        <ele>417</ele>
        <time>2015-03-01T10:07:34.000Z</time>
      </trkpt>
      <trkpt lat="47.45946" lon="6.81662">
        <ele>417</ele>
        <time>2015-03-01T10:07:35.000Z</time>
      </trkpt>
      <trkpt lat="47.45947" lon="6.81666">
        <ele>417</ele>
        <time>2015-03-01T10:07:36.000Z</time>
      </trkpt>
      <trkpt lat="47.45949" lon="6.81671">
        <ele>413</ele>
        <time>2015-03-01T10:07:37.000Z</time>
      </trkpt>
      <trkpt lat="47.45951" lon="6.81675">
        <ele>414</ele>
        <time>2015-03-01T10:07:38.000Z</time>
      </trkpt>
      <trkpt lat="47.45953" lon="6.81679">
        <ele>414</ele>
        <time>2015-03-01T10:07:39.000Z</time>
      </trkpt>
      <trkpt lat="47.45955" lon="6.81683">
        <ele>414</ele>
        <time>2015-03-01T10:07:40.000Z</time>
      </trkpt>
      <trkpt lat="47.45958" lon="6.81687">
        <ele>414</ele>
        <time>2015-03-01T10:07:40.999Z</time>
      </trkpt>
      <trkpt lat="47.4596" lon="6.8169">
        <ele>414</ele>
        <time>2015-03-01T10:07:42.000Z</time>
      </trkpt>
      <trkpt lat="47.45963" lon="6.81694">
        <ele>414</ele>
        <time>2015-03-01T10:07:43.000Z</time>
      </trkpt>
      <trkpt lat="47.45965" lon="6.81697">
        <ele>414</ele>
        <time>2015-03-01T10:07:44.000Z</time>
      </trkpt>
      <trkpt lat="47.45968" lon="6.81701">
        <ele>414</ele>
        <time>2015-03-01T10:07:45.000Z</time>
      </trkpt>
      <trkpt lat="47.4597" lon="6.81704">
        <ele>414</ele>
        <time>2015-03-01T10:07:46.000Z</time>
      </trkpt>
      <trkpt lat="47.45972" lon="6.81707">
        <ele>414</ele>
        <time>2015-03-01T10:07:47.000Z</time>
      </trkpt>
      <trkpt lat="47.45974" lon="6.8171">
        <ele>414</ele>
        <time>2015-03-01T10:07:48.000Z</time>
      </trkpt>
      <trkpt lat="47.45975" lon="6.81712">
        <ele>414</ele>
        <time>2015-03-01T10:07:49.000Z</time>
      </trkpt>
      <trkpt lat="47.45977" lon="6.81716">
        <ele>414</ele>
        <time>2015-03-01T10:07:51.000Z</time>
      </trkpt>
      <trkpt lat="47.45978" lon="6.81717">
        <ele>414</ele>
        <time>2015-03-01T10:07:52.000Z</time>
      </trkpt>
      <trkpt lat="47.45982" lon="6.8172">
        <ele>414</ele>
        <time>2015-03-01T10:07:55.000Z</time>
      </trkpt>
      <trkpt lat="47.45983" lon="6.81721">
        <ele>414</ele>
        <time>2015-03-01T10:07:56.000Z</time>
      </trkpt>
      <trkpt lat="47.45987" lon="6.81721">
        <ele>414</ele>
        <time>2015-03-01T10:07:59.000Z</time>
      </trkpt>
      <trkpt lat="47.45989" lon="6.81723">
        <ele>414</ele>
        <time>2015-03-01T10:08:00.000Z</time>
      </trkpt>
      <trkpt lat="47.45991" lon="6.81726">
        <ele>414</ele>
        <time>2015-03-01T10:08:01.000Z</time>
      </trkpt>
      <trkpt lat="47.45993" lon="6.81729">
        <ele>414</ele>
        <time>2015-03-01T10:08:02.000Z</time>
      </trkpt>
      <trkpt lat="47.45996" lon="6.81732">
        <ele>414</ele>
        <time>2015-03-01T10:08:03.000Z</time>
      </trkpt>
      <trkpt lat="47.45999" lon="6.81735">
        <ele>414</ele>
        <time>2015-03-01T10:08:04.000Z</time>
      </trkpt>
      <trkpt lat="47.46001" lon="6.81738">
        <ele>418</ele>
        <time>2015-03-01T10:08:05.000Z</time>
      </trkpt>
      <trkpt lat="47.46004" lon="6.8174">
        <ele>418</ele>
        <time>2015-03-01T10:08:06.000Z</time>
      </trkpt>
      <trkpt lat="47.46007" lon="6.81742">
        <ele>418</ele>
        <time>2015-03-01T10:08:07.000Z</time>
      </trkpt>
      <trkpt lat="47.4601" lon="6.81744">
        <ele>418</ele>
        <time>2015-03-01T10:08:08.000Z</time>
      </trkpt>
      <trkpt lat="47.46012" lon="6.81745">
        <ele>418</ele>
        <time>2015-03-01T10:08:09.000Z</time>
      </trkpt>
      <trkpt lat="47.46015" lon="6.81747">
        <ele>419</ele>
        <time>2015-03-01T10:08:10.000Z</time>
      </trkpt>
      <trkpt lat="47.46017" lon="6.81748">
        <ele>419</ele>
        <time>2015-03-01T10:08:11.000Z</time>
      </trkpt>
      <trkpt lat="47.46019" lon="6.81749">
        <ele>419</ele>
        <time>2015-03-01T10:08:12.000Z</time>
      </trkpt>
      <trkpt lat="47.46022" lon="6.8175">
        <ele>413</ele>
        <time>2015-03-01T10:08:13.000Z</time>
      </trkpt>
      <trkpt lat="47.46024" lon="6.81751">
        <ele>413</ele>
        <time>2015-03-01T10:08:14.000Z</time>
      </trkpt>
      <trkpt lat="47.46027" lon="6.81752">
        <ele>413</ele>
        <time>2015-03-01T10:08:15.000Z</time>
      </trkpt>
      <trkpt lat="47.46029" lon="6.81752">
        <ele>413</ele>
        <time>2015-03-01T10:08:16.000Z</time>
      </trkpt>
      <trkpt lat="47.46032" lon="6.81752">
        <ele>413</ele>
        <time>2015-03-01T10:08:17.000Z</time>
      </trkpt>
      <trkpt lat="47.46034" lon="6.81753">
        <ele>413</ele>
        <time>2015-03-01T10:08:18.000Z</time>
      </trkpt>
      <trkpt lat="47.46038" lon="6.81754">
        <ele>413</ele>
        <time>2015-03-01T10:08:21.000Z</time>
      </trkpt>
      <trkpt lat="47.46039" lon="6.81755">
        <ele>414</ele>
        <time>2015-03-01T10:08:22.001Z</time>
      </trkpt>
      <trkpt lat="47.46044" lon="6.81755">
        <ele>414</ele>
        <time>2015-03-01T10:08:24.000Z</time>
      </trkpt>
      <trkpt lat="47.46046" lon="6.81755">
        <ele>414</ele>
        <time>2015-03-01T10:08:25.000Z</time>
      </trkpt>
      <trkpt lat="47.46049" lon="6.81754">
        <ele>415</ele>
        <time>2015-03-01T10:08:26.000Z</time>
      </trkpt>
      <trkpt lat="47.46052" lon="6.81753">
        <ele>415</ele>
        <time>2015-03-01T10:08:27.000Z</time>
      </trkpt>
      <trkpt lat="47.46055" lon="6.81753">
        <ele>416</ele>
        <time>2015-03-01T10:08:28.000Z</time>
      </trkpt>
      <trkpt lat="47.46058" lon="6.81753">
        <ele>416</ele>
        <time>2015-03-01T10:08:29.000Z</time>
      </trkpt>
      <trkpt lat="47.46061" lon="6.81754">
        <ele>417</ele>
        <time>2015-03-01T10:08:30.000Z</time>
      </trkpt>
      <trkpt lat="47.46064" lon="6.81754">
        <ele>417</ele>
        <time>2015-03-01T10:08:31.001Z</time>
      </trkpt>
      <trkpt lat="47.46067" lon="6.81754">
        <ele>418</ele>
        <time>2015-03-01T10:08:32.000Z</time>
      </trkpt>
      <trkpt lat="47.4607" lon="6.81754">
        <ele>419</ele>
        <time>2015-03-01T10:08:33.000Z</time>
      </trkpt>
      <trkpt lat="47.46074" lon="6.81753">
        <ele>420</ele>
        <time>2015-03-01T10:08:35.000Z</time>
      </trkpt>
      <trkpt lat="47.46076" lon="6.81752">
        <ele>421</ele>
        <time>2015-03-01T10:08:36.000Z</time>
      </trkpt>
      <trkpt lat="47.46079" lon="6.81754">
        <ele>422</ele>
        <time>2015-03-01T10:08:38.000Z</time>
      </trkpt>
      <trkpt lat="47.46081" lon="6.81754">
        <ele>422</ele>
        <time>2015-03-01T10:08:39.000Z</time>
      </trkpt>
      <trkpt lat="47.46083" lon="6.81755">
        <ele>422</ele>
        <time>2015-03-01T10:08:40.000Z</time>
      </trkpt>
      <trkpt lat="47.46086" lon="6.81756">
        <ele>423</ele>
        <time>2015-03-01T10:08:41.000Z</time>
      </trkpt>
      <trkpt lat="47.46089" lon="6.81756">
        <ele>422</ele>
        <time>2015-03-01T10:08:42.000Z</time>
      </trkpt>
      <trkpt lat="47.46093" lon="6.81757">
        <ele>421</ele>
        <time>2015-03-01T10:08:43.000Z</time>
      </trkpt>
      <trkpt lat="47.46096" lon="6.81758">
        <ele>421</ele>
        <time>2015-03-01T10:08:44.000Z</time>
      </trkpt>
      <trkpt lat="47.461" lon="6.81759">
        <ele>420</ele>
        <time>2015-03-01T10:08:45.000Z</time>
      </trkpt>
      <trkpt lat="47.46103" lon="6.8176">
        <ele>420</ele>
        <time>2015-03-01T10:08:46.000Z</time>
      </trkpt>
      <trkpt lat="47.46106" lon="6.8176">
        <ele>419</ele>
        <time>2015-03-01T10:08:47.000Z</time>
      </trkpt>
      <trkpt lat="47.46109" lon="6.81761">
        <ele>419</ele>
        <time>2015-03-01T10:08:48.000Z</time>
      </trkpt>
      <trkpt lat="47.46113" lon="6.81761">
        <ele>419</ele>
        <time>2015-03-01T10:08:49.000Z</time>
      </trkpt>
      <trkpt lat="47.46117" lon="6.81762">
        <ele>418</ele>
        <time>2015-03-01T10:08:50.000Z</time>
      </trkpt>
      <trkpt lat="47.46121" lon="6.81764">
        <ele>418</ele>
        <time>2015-03-01T10:08:51.000Z</time>
      </trkpt>
      <trkpt lat="47.46125" lon="6.81766">
        <ele>418</ele>
        <time>2015-03-01T10:08:52.000Z</time>
      </trkpt>
      <trkpt lat="47.46128" lon="6.81767">
        <ele>418</ele>
        <time>2015-03-01T10:08:53.000Z</time>
      </trkpt>
      <trkpt lat="47.46132" lon="6.81769">
        <ele>418</ele>
        <time>2015-03-01T10:08:54.000Z</time>
      </trkpt>
      <trkpt lat="47.46136" lon="6.81771">
        <ele>418</ele>
        <time>2015-03-01T10:08:55.000Z</time>
      </trkpt>
      <trkpt lat="47.4614" lon="6.81773">
        <ele>417</ele>
        <time>2015-03-01T10:08:56.000Z</time>
      </trkpt>
      <trkpt lat="47.46144" lon="6.81774">
        <ele>417</ele>
        <time>2015-03-01T10:08:57.000Z</time>
      </trkpt>
      <trkpt lat="47.46147" lon="6.81776">
        <ele>417</ele>
        <time>2015-03-01T10:08:58.000Z</time>
      </trkpt>
      <trkpt lat="47.46151" lon="6.81778">
        <ele>417</ele>
        <time>2015-03-01T10:08:59.000Z</time>
      </trkpt>
      <trkpt lat="47.46155" lon="6.81781">
        <ele>417</ele>
        <time>2015-03-01T10:09:00.000Z</time>
      </trkpt>
      <trkpt lat="47.46159" lon="6.81783">
        <ele>417</ele>
        <time>2015-03-01T10:09:01.000Z</time>
      </trkpt>
      <trkpt lat="47.46163" lon="6.81785">
        <ele>416</ele>
        <time>2015-03-01T10:09:02.000Z</time>
      </trkpt>
      <trkpt lat="47.46167" lon="6.81786">
        <ele>416</ele>
        <time>2015-03-01T10:09:03.000Z</time>
      </trkpt>
      <trkpt lat="47.46171" lon="6.81787">
        <ele>416</ele>
        <time>2015-03-01T10:09:04.000Z</time>
      </trkpt>
      <trkpt lat="47.46175" lon="6.81788">
        <ele>416</ele>
        <time>2015-03-01T10:09:05.000Z</time>
      </trkpt>
      <trkpt lat="47.46179" lon="6.81789">
        <ele>415</ele>
        <time>2015-03-01T10:09:06.000Z</time>
      </trkpt>
      <trkpt lat="47.46183" lon="6.8179">
        <ele>415</ele>
        <time>2015-03-01T10:09:07.000Z</time>
      </trkpt>
      <trkpt lat="47.46188" lon="6.81791">
        <ele>415</ele>
        <time>2015-03-01T10:09:08.000Z</time>
      </trkpt>
      <trkpt lat="47.46192" lon="6.81792">
        <ele>415</ele>
        <time>2015-03-01T10:09:09.000Z</time>
      </trkpt>
      <trkpt lat="47.46197" lon="6.81793">
        <ele>415</ele>
        <time>2015-03-01T10:09:10.000Z</time>
      </trkpt>
      <trkpt lat="47.46201" lon="6.81794">
        <ele>415</ele>
        <time>2015-03-01T10:09:11.000Z</time>
      </trkpt>
      <trkpt lat="47.46205" lon="6.81796">
        <ele>414</ele>
        <time>2015-03-01T10:09:12.000Z</time>
      </trkpt>
      <trkpt lat="47.46209" lon="6.81798">
        <ele>414</ele>
        <time>2015-03-01T10:09:13.000Z</time>
      </trkpt>
      <trkpt lat="47.46216" lon="6.818">
        <ele>414</ele>
        <time>2015-03-01T10:09:14.000Z</time>
      </trkpt>
      <trkpt lat="47.4622" lon="6.81803">
        <ele>414</ele>
        <time>2015-03-01T10:09:15.000Z</time>
      </trkpt>
      <trkpt lat="47.46224" lon="6.81804">
        <ele>414</ele>
        <time>2015-03-01T10:09:16.000Z</time>
      </trkpt>
      <trkpt lat="47.46229" lon="6.81807">
        <ele>413</ele>
        <time>2015-03-01T10:09:17.000Z</time>
      </trkpt>
      <trkpt lat="47.46235" lon="6.81809">
        <ele>413</ele>
        <time>2015-03-01T10:09:18.000Z</time>
      </trkpt>
      <trkpt lat="47.4624" lon="6.81811">
        <ele>413</ele>
        <time>2015-03-01T10:09:19.000Z</time>
      </trkpt>
      <trkpt lat="47.46243" lon="6.81813">
        <ele>413</ele>
        <time>2015-03-01T10:09:20.000Z</time>
      </trkpt>
      <trkpt lat="47.46244" lon="6.81813">
        <ele>413</ele>
        <time>2015-03-01T10:09:21.000Z</time>
      </trkpt>
      <trkpt lat="47.46244" lon="6.81819">
        <ele>412</ele>
        <time>2015-03-01T10:09:24.000Z</time>
      </trkpt>
      <trkpt lat="47.46244" lon="6.81821">
        <ele>412</ele>
        <time>2015-03-01T10:09:25.000Z</time>
      </trkpt>
      <trkpt lat="47.46243" lon="6.81824">
        <ele>412</ele>
        <time>2015-03-01T10:09:25.999Z</time>
      </trkpt>
      <trkpt lat="47.46244" lon="6.81829">
        <ele>411</ele>
        <time>2015-03-01T10:09:27.000Z</time>
      </trkpt>
      <trkpt lat="47.46243" lon="6.81834">
        <ele>407</ele>
        <time>2015-03-01T10:09:29.000Z</time>
      </trkpt>
      <trkpt lat="47.46243" lon="6.81837">
        <ele>407</ele>
        <time>2015-03-01T10:09:30.000Z</time>
      </trkpt>
      <trkpt lat="47.46244" lon="6.81843">
        <ele>405</ele>
        <time>2015-03-01T10:09:33.000Z</time>
      </trkpt>
      <trkpt lat="47.46245" lon="6.81845">
        <ele>405</ele>
        <time>2015-03-01T10:09:34.000Z</time>
      </trkpt>
      <trkpt lat="47.46245" lon="6.81851">
        <ele>403</ele>
        <time>2015-03-01T10:09:37.000Z</time>
      </trkpt>
      <trkpt lat="47.46246" lon="6.81852">
        <ele>403</ele>
        <time>2015-03-01T10:09:38.000Z</time>
      </trkpt>
      <trkpt lat="47.46245" lon="6.81846">
        <ele>404</ele>
        <time>2015-03-01T10:13:22.000Z</time>
      </trkpt>
      <trkpt lat="47.46245" lon="6.81845">
        <ele>405</ele>
        <time>2015-03-01T10:13:23.000Z</time>
      </trkpt>
      <trkpt lat="47.46246" lon="6.81838">
        <ele>407</ele>
        <time>2015-03-01T10:13:35.000Z</time>
      </trkpt>
      <trkpt lat="47.46246" lon="6.81836">
        <ele>408</ele>
        <time>2015-03-01T10:13:36.000Z</time>
      </trkpt>
      <trkpt lat="47.46246" lon="6.81831">
        <ele>411</ele>
        <time>2015-03-01T10:13:39.000Z</time>
      </trkpt>
      <trkpt lat="47.46246" lon="6.81829">
        <ele>411</ele>
        <time>2015-03-01T10:13:40.000Z</time>
      </trkpt>
      <trkpt lat="47.46247" lon="6.81823">
        <ele>412</ele>
        <time>2015-03-01T10:13:43.000Z</time>
      </trkpt>
      <trkpt lat="47.46247" lon="6.8182">
        <ele>412</ele>
        <time>2015-03-01T10:13:44.000Z</time>
      </trkpt>
      <trkpt lat="47.46249" lon="6.81815">
        <ele>412</ele>
        <time>2015-03-01T10:13:47.000Z</time>
      </trkpt>
      <trkpt lat="47.4625" lon="6.81814">
        <ele>411</ele>
        <time>2015-03-01T10:13:48.000Z</time>
      </trkpt>
      <trkpt lat="47.46254" lon="6.81812">
        <ele>411</ele>
        <time>2015-03-01T10:13:50.000Z</time>
      </trkpt>
      <trkpt lat="47.46256" lon="6.81813">
        <ele>411</ele>
        <time>2015-03-01T10:13:51.000Z</time>
      </trkpt>
      <trkpt lat="47.46258" lon="6.81814">
        <ele>411</ele>
        <time>2015-03-01T10:13:52.000Z</time>
      </trkpt>
      <trkpt lat="47.46261" lon="6.81816">
        <ele>411</ele>
        <time>2015-03-01T10:13:53.000Z</time>
      </trkpt>
      <trkpt lat="47.46263" lon="6.81818">
        <ele>411</ele>
        <time>2015-03-01T10:13:54.000Z</time>
      </trkpt>
      <trkpt lat="47.46265" lon="6.81819">
        <ele>411</ele>
        <time>2015-03-01T10:13:55.000Z</time>
      </trkpt>
      <trkpt lat="47.46268" lon="6.8182">
        <ele>411</ele>
        <time>2015-03-01T10:13:56.000Z</time>
      </trkpt>
      <trkpt lat="47.46276" lon="6.81824">
        <ele>411</ele>
        <time>2015-03-01T10:13:57.000Z</time>
      </trkpt>
      <trkpt lat="47.46279" lon="6.81827">
        <ele>411</ele>
        <time>2015-03-01T10:13:58.000Z</time>
      </trkpt>
      <trkpt lat="47.46283" lon="6.81828">
        <ele>411</ele>
        <time>2015-03-01T10:13:59.000Z</time>
      </trkpt>
      <trkpt lat="47.46288" lon="6.81829">
        <ele>411</ele>
        <time>2015-03-01T10:14:00.000Z</time>
      </trkpt>
      <trkpt lat="47.46292" lon="6.81834">
        <ele>405</ele>
        <time>2015-03-01T10:14:01.000Z</time>
      </trkpt>
      <trkpt lat="47.46297" lon="6.81838">
        <ele>405</ele>
        <time>2015-03-01T10:14:02.000Z</time>
      </trkpt>
      <trkpt lat="47.46301" lon="6.81841">
        <ele>405</ele>
        <time>2015-03-01T10:14:03.000Z</time>
      </trkpt>
      <trkpt lat="47.46305" lon="6.81843">
        <ele>405</ele>
        <time>2015-03-01T10:14:04.000Z</time>
      </trkpt>
      <trkpt lat="47.46308" lon="6.81846">
        <ele>405</ele>
        <time>2015-03-01T10:14:05.000Z</time>
      </trkpt>
      <trkpt lat="47.46315" lon="6.81846">
        <ele>406</ele>
        <time>2015-03-01T10:14:06.000Z</time>
      </trkpt>
      <trkpt lat="47.46321" lon="6.81847">
        <ele>406</ele>
        <time>2015-03-01T10:14:07.000Z</time>
      </trkpt>
      <trkpt lat="47.46326" lon="6.81849">
        <ele>406</ele>
        <time>2015-03-01T10:14:08.000Z</time>
      </trkpt>
      <trkpt lat="47.46332" lon="6.81852">
        <ele>406</ele>
        <time>2015-03-01T10:14:09.000Z</time>
      </trkpt>
      <trkpt lat="47.46338" lon="6.81854">
        <ele>406</ele>
        <time>2015-03-01T10:14:10.000Z</time>
      </trkpt>
      <trkpt lat="47.46341" lon="6.81853">
        <ele>406</ele>
        <time>2015-03-01T10:14:11.000Z</time>
      </trkpt>
      <trkpt lat="47.46348" lon="6.81859">
        <ele>406</ele>
        <time>2015-03-01T10:14:12.000Z</time>
      </trkpt>
      <trkpt lat="47.46353" lon="6.81864">
        <ele>405</ele>
        <time>2015-03-01T10:14:13.000Z</time>
      </trkpt>
      <trkpt lat="47.46359" lon="6.81865">
        <ele>405</ele>
        <time>2015-03-01T10:14:14.000Z</time>
      </trkpt>
      <trkpt lat="47.46364" lon="6.81869">
        <ele>405</ele>
        <time>2015-03-01T10:14:15.000Z</time>
      </trkpt>
      <trkpt lat="47.46369" lon="6.81872">
        <ele>405</ele>
        <time>2015-03-01T10:14:16.000Z</time>
      </trkpt>
      <trkpt lat="47.46372" lon="6.81873">
        <ele>405</ele>
        <time>2015-03-01T10:14:17.000Z</time>
      </trkpt>
      <trkpt lat="47.46378" lon="6.81875">
        <ele>405</ele>
        <time>2015-03-01T10:14:18.000Z</time>
      </trkpt>
      <trkpt lat="47.46384" lon="6.81876">
        <ele>405</ele>
        <time>2015-03-01T10:14:19.000Z</time>
      </trkpt>
      <trkpt lat="47.46388" lon="6.81879">
        <ele>405</ele>
        <time>2015-03-01T10:14:20.000Z</time>
      </trkpt>
      <trkpt lat="47.46393" lon="6.81883">
        <ele>404</ele>
        <time>2015-03-01T10:14:21.000Z</time>
      </trkpt>
      <trkpt lat="47.46397" lon="6.81882">
        <ele>404</ele>
        <time>2015-03-01T10:14:22.000Z</time>
      </trkpt>
      <trkpt lat="47.46401" lon="6.81883">
        <ele>404</ele>
        <time>2015-03-01T10:14:23.000Z</time>
      </trkpt>
      <trkpt lat="47.46409" lon="6.81886">
        <ele>404</ele>
        <time>2015-03-01T10:14:24.000Z</time>
      </trkpt>
      <trkpt lat="47.46416" lon="6.81892">
        <ele>404</ele>
        <time>2015-03-01T10:14:25.000Z</time>
      </trkpt>
      <trkpt lat="47.46421" lon="6.81896">
        <ele>403</ele>
        <time>2015-03-01T10:14:26.000Z</time>
      </trkpt>
      <trkpt lat="47.46426" lon="6.81899">
        <ele>403</ele>
        <time>2015-03-01T10:14:27.000Z</time>
      </trkpt>
      <trkpt lat="47.46432" lon="6.81903">
        <ele>403</ele>
        <time>2015-03-01T10:14:28.000Z</time>
      </trkpt>
      <trkpt lat="47.46436" lon="6.81905">
        <ele>403</ele>
        <time>2015-03-01T10:14:29.000Z</time>
      </trkpt>
      <trkpt lat="47.4644" lon="6.81908">
        <ele>403</ele>
        <time>2015-03-01T10:14:30.000Z</time>
      </trkpt>
      <trkpt lat="47.46445" lon="6.81912">
        <ele>403</ele>
        <time>2015-03-01T10:14:31.000Z</time>
      </trkpt>
      <trkpt lat="47.46449" lon="6.81917">
        <ele>400</ele>
        <time>2015-03-01T10:14:32.000Z</time>
      </trkpt>
      <trkpt lat="47.46452" lon="6.8192">
        <ele>400</ele>
        <time>2015-03-01T10:14:33.000Z</time>
      </trkpt>
      <trkpt lat="47.46457" lon="6.81924">
        <ele>400</ele>
        <time>2015-03-01T10:14:34.000Z</time>
      </trkpt>
      <trkpt lat="47.46462" lon="6.81927">
        <ele>399</ele>
        <time>2015-03-01T10:14:35.000Z</time>
      </trkpt>
      <trkpt lat="47.46465" lon="6.81932">
        <ele>399</ele>
        <time>2015-03-01T10:14:36.000Z</time>
      </trkpt>
      <trkpt lat="47.46471" lon="6.81931">
        <ele>399</ele>
        <time>2015-03-01T10:14:37.000Z</time>
      </trkpt>
      <trkpt lat="47.46476" lon="6.81934">
        <ele>399</ele>
        <time>2015-03-01T10:14:38.000Z</time>
      </trkpt>
      <trkpt lat="47.46479" lon="6.81938">
        <ele>399</ele>
        <time>2015-03-01T10:14:39.000Z</time>
      </trkpt>
      <trkpt lat="47.46483" lon="6.8194">
        <ele>399</ele>
        <time>2015-03-01T10:14:40.000Z</time>
      </trkpt>
      <trkpt lat="47.46488" lon="6.81942">
        <ele>399</ele>
        <time>2015-03-01T10:14:41.000Z</time>
      </trkpt>
      <trkpt lat="47.46493" lon="6.81944">
        <ele>399</ele>
        <time>2015-03-01T10:14:42.000Z</time>
      </trkpt>
      <trkpt lat="47.46497" lon="6.81946">
        <ele>399</ele>
        <time>2015-03-01T10:14:43.000Z</time>
      </trkpt>
      <trkpt lat="47.46501" lon="6.8195">
        <ele>398</ele>
        <time>2015-03-01T10:14:44.000Z</time>
      </trkpt>
      <trkpt lat="47.46502" lon="6.81952">
        <ele>398</ele>
        <time>2015-03-01T10:14:45.000Z</time>
      </trkpt>
      <trkpt lat="47.46505" lon="6.81955">
        <ele>398</ele>
        <time>2015-03-01T10:14:46.000Z</time>
      </trkpt>
      <trkpt lat="47.46507" lon="6.81951">
        <ele>398</ele>
        <time>2015-03-01T10:14:59.000Z</time>
      </trkpt>
      <trkpt lat="47.46508" lon="6.81951">
        <ele>398</ele>
        <time>2015-03-01T10:15:00.000Z</time>
      </trkpt>
      <trkpt lat="47.46512" lon="6.81953">
        <ele>398</ele>
        <time>2015-03-01T10:15:02.000Z</time>
      </trkpt>
      <trkpt lat="47.46515" lon="6.81954">
        <ele>398</ele>
        <time>2015-03-01T10:15:03.000Z</time>
      </trkpt>
      <trkpt lat="47.46517" lon="6.81956">
        <ele>398</ele>
        <time>2015-03-01T10:15:04.000Z</time>
      </trkpt>
      <trkpt lat="47.4652" lon="6.81958">
        <ele>398</ele>
        <time>2015-03-01T10:15:05.000Z</time>
      </trkpt>
      <trkpt lat="47.46523" lon="6.8196">
        <ele>398</ele>
        <time>2015-03-01T10:15:06.000Z</time>
      </trkpt>
      <trkpt lat="47.46526" lon="6.81963">
        <ele>398</ele>
        <time>2015-03-01T10:15:07.000Z</time>
      </trkpt>
      <trkpt lat="47.46529" lon="6.81964">
        <ele>397</ele>
        <time>2015-03-01T10:15:08.000Z</time>
      </trkpt>
      <trkpt lat="47.46532" lon="6.81966">
        <ele>397</ele>
        <time>2015-03-01T10:15:09.000Z</time>
      </trkpt>
      <trkpt lat="47.46535" lon="6.81968">
        <ele>397</ele>
        <time>2015-03-01T10:15:10.000Z</time>
      </trkpt>
      <trkpt lat="47.46537" lon="6.81969">
        <ele>397</ele>
        <time>2015-03-01T10:15:11.000Z</time>
      </trkpt>
      <trkpt lat="47.46541" lon="6.8197">
        <ele>397</ele>
        <time>2015-03-01T10:15:12.000Z</time>
      </trkpt>
      <trkpt lat="47.46544" lon="6.81971">
        <ele>397</ele>
        <time>2015-03-01T10:15:13.000Z</time>
      </trkpt>
      <trkpt lat="47.46547" lon="6.81972">
        <ele>397</ele>
        <time>2015-03-01T10:15:14.000Z</time>
      </trkpt>
      <trkpt lat="47.46549" lon="6.81974">
        <ele>397</ele>
        <time>2015-03-01T10:15:15.000Z</time>
      </trkpt>
      <trkpt lat="47.46551" lon="6.81975">
        <ele>397</ele>
        <time>2015-03-01T10:15:16.000Z</time>
      </trkpt>
      <trkpt lat="47.46553" lon="6.81977">
        <ele>397</ele>
        <time>2015-03-01T10:15:17.000Z</time>
      </trkpt>
      <trkpt lat="47.46557" lon="6.81979">
        <ele>397</ele>
        <time>2015-03-01T10:15:19.000Z</time>
      </trkpt>
      <trkpt lat="47.46559" lon="6.8198">
        <ele>397</ele>
        <time>2015-03-01T10:15:20.000Z</time>
      </trkpt>
      <trkpt lat="47.46562" lon="6.81985">
        <ele>397</ele>
        <time>2015-03-01T10:15:56.000Z</time>
      </trkpt>
      <trkpt lat="47.46562" lon="6.81985">
        <ele>397</ele>
        <time>2015-03-01T10:15:57.000Z</time>
      </trkpt>
      <trkpt lat="47.46566" lon="6.81987">
        <ele>396</ele>
        <time>2015-03-01T10:17:20.000Z</time>
      </trkpt>
      <trkpt lat="47.46567" lon="6.81987">
        <ele>396</ele>
        <time>2015-03-01T10:17:21.000Z</time>
      </trkpt>
      <trkpt lat="47.4657" lon="6.8199">
        <ele>396</ele>
        <time>2015-03-01T10:17:52.000Z</time>
      </trkpt>
      <trkpt lat="47.46571" lon="6.81991">
        <ele>396</ele>
        <time>2015-03-01T10:17:53.000Z</time>
      </trkpt>
      <trkpt lat="47.46575" lon="6.81992">
        <ele>396</ele>
        <time>2015-03-01T10:20:40.000Z</time>
      </trkpt>
      <trkpt lat="47.46575" lon="6.81993">
        <ele>396</ele>
        <time>2015-03-01T10:20:41.000Z</time>
      </trkpt>
      <trkpt lat="47.46579" lon="6.81994">
        <ele>396</ele>
        <time>2015-03-01T10:29:35.000Z</time>
      </trkpt>
      <trkpt lat="47.46579" lon="6.81993">
        <ele>396</ele>
        <time>2015-03-01T10:29:36.000Z</time>
      </trkpt>
      <trkpt lat="47.46578" lon="6.81999">
        <ele>395</ele>
        <time>2015-03-01T10:29:43.000Z</time>
      </trkpt>
      <trkpt lat="47.46579" lon="6.82001">
        <ele>394</ele>
        <time>2015-03-01T10:29:44.000Z</time>
      </trkpt>
      <trkpt lat="47.46581" lon="6.82003">
        <ele>394</ele>
        <time>2015-03-01T10:29:46.000Z</time>
      </trkpt>
      <trkpt lat="47.46584" lon="6.82005">
        <ele>396</ele>
        <time>2015-03-01T10:29:47.000Z</time>
      </trkpt>
      <trkpt lat="47.46586" lon="6.82008">
        <ele>396</ele>
        <time>2015-03-01T10:29:48.000Z</time>
      </trkpt>
      <trkpt lat="47.4659" lon="6.8201">
        <ele>396</ele>
        <time>2015-03-01T10:29:49.000Z</time>
      </trkpt>
      <trkpt lat="47.46593" lon="6.82013">
        <ele>396</ele>
        <time>2015-03-01T10:29:50.000Z</time>
      </trkpt>
      <trkpt lat="47.46596" lon="6.82016">
        <ele>397</ele>
        <time>2015-03-01T10:29:51.000Z</time>
      </trkpt>
      <trkpt lat="47.466" lon="6.82019">
        <ele>397</ele>
        <time>2015-03-01T10:29:52.000Z</time>
      </trkpt>
      <trkpt lat="47.46603" lon="6.82022">
        <ele>397</ele>
        <time>2015-03-01T10:29:53.000Z</time>
      </trkpt>
      <trkpt lat="47.46607" lon="6.82025">
        <ele>397</ele>
        <time>2015-03-01T10:29:54.000Z</time>
      </trkpt>
      <trkpt lat="47.4661" lon="6.82028">
        <ele>398</ele>
        <time>2015-03-01T10:29:55.000Z</time>
      </trkpt>
      <trkpt lat="47.46615" lon="6.82032">
        <ele>398</ele>
        <time>2015-03-01T10:29:56.000Z</time>
      </trkpt>
      <trkpt lat="47.46619" lon="6.82034">
        <ele>398</ele>
        <time>2015-03-01T10:29:57.000Z</time>
      </trkpt>
      <trkpt lat="47.46623" lon="6.82037">
        <ele>398</ele>
        <time>2015-03-01T10:29:58.000Z</time>
      </trkpt>
      <trkpt lat="47.46627" lon="6.8204">
        <ele>398</ele>
        <time>2015-03-01T10:29:59.000Z</time>
      </trkpt>
      <trkpt lat="47.4663" lon="6.82041">
        <ele>399</ele>
        <time>2015-03-01T10:30:00.000Z</time>
      </trkpt>
      <trkpt lat="47.46633" lon="6.82042">
        <ele>399</ele>
        <time>2015-03-01T10:30:01.000Z</time>
      </trkpt>
      <trkpt lat="47.46636" lon="6.82042">
        <ele>399</ele>
        <time>2015-03-01T10:30:02.000Z</time>
      </trkpt>
      <trkpt lat="47.4664" lon="6.82042">
        <ele>399</ele>
        <time>2015-03-01T10:30:03.000Z</time>
      </trkpt>
      <trkpt lat="47.46643" lon="6.82042">
        <ele>399</ele>
        <time>2015-03-01T10:30:04.000Z</time>
      </trkpt>
      <trkpt lat="47.46646" lon="6.82042">
        <ele>399</ele>
        <time>2015-03-01T10:30:05.000Z</time>
      </trkpt>
      <trkpt lat="47.4665" lon="6.82043">
        <ele>400</ele>
        <time>2015-03-01T10:30:06.000Z</time>
      </trkpt>
      <trkpt lat="47.46654" lon="6.82043">
        <ele>400</ele>
        <time>2015-03-01T10:30:07.000Z</time>
      </trkpt>
      <trkpt lat="47.46657" lon="6.82043">
        <ele>400</ele>
        <time>2015-03-01T10:30:08.000Z</time>
      </trkpt>
      <trkpt lat="47.46661" lon="6.82043">
        <ele>400</ele>
        <time>2015-03-01T10:30:09.000Z</time>
      </trkpt>
      <trkpt lat="47.46664" lon="6.82043">
        <ele>400</ele>
        <time>2015-03-01T10:30:10.000Z</time>
      </trkpt>
      <trkpt lat="47.46667" lon="6.82042">
        <ele>406</ele>
        <time>2015-03-01T10:30:11.000Z</time>
      </trkpt>
      <trkpt lat="47.4667" lon="6.82041">
        <ele>406</ele>
        <time>2015-03-01T10:30:12.000Z</time>
      </trkpt>
      <trkpt lat="47.46673" lon="6.8204">
        <ele>406</ele>
        <time>2015-03-01T10:30:13.000Z</time>
      </trkpt>
      <trkpt lat="47.46676" lon="6.82038">
        <ele>406</ele>
        <time>2015-03-01T10:30:14.000Z</time>
      </trkpt>
      <trkpt lat="47.46679" lon="6.82036">
        <ele>406</ele>
        <time>2015-03-01T10:30:15.001Z</time>
      </trkpt>
      <trkpt lat="47.46682" lon="6.82034">
        <ele>406</ele>
        <time>2015-03-01T10:30:16.000Z</time>
      </trkpt>
      <trkpt lat="47.46684" lon="6.82032">
        <ele>406</ele>
        <time>2015-03-01T10:30:17.000Z</time>
      </trkpt>
      <trkpt lat="47.46687" lon="6.82028">
        <ele>406</ele>
        <time>2015-03-01T10:30:18.000Z</time>
      </trkpt>
      <trkpt lat="47.46689" lon="6.82026">
        <ele>406</ele>
        <time>2015-03-01T10:30:19.000Z</time>
      </trkpt>
      <trkpt lat="47.46692" lon="6.82023">
        <ele>406</ele>
        <time>2015-03-01T10:30:20.000Z</time>
      </trkpt>
      <trkpt lat="47.46694" lon="6.82021">
        <ele>407</ele>
        <time>2015-03-01T10:30:21.000Z</time>
      </trkpt>
      <trkpt lat="47.46697" lon="6.82021">
        <ele>407</ele>
        <time>2015-03-01T10:30:22.000Z</time>
      </trkpt>
      <trkpt lat="47.46699" lon="6.8202">
        <ele>407</ele>
        <time>2015-03-01T10:30:23.000Z</time>
      </trkpt>
      <trkpt lat="47.46701" lon="6.8202">
        <ele>407</ele>
        <time>2015-03-01T10:30:24.000Z</time>
      </trkpt>
      <trkpt lat="47.46703" lon="6.8202">
        <ele>407</ele>
        <time>2015-03-01T10:30:25.000Z</time>
      </trkpt>
      <trkpt lat="47.46706" lon="6.82019">
        <ele>407</ele>
        <time>2015-03-01T10:30:26.000Z</time>
      </trkpt>
      <trkpt lat="47.46709" lon="6.82019">
        <ele>407</ele>
        <time>2015-03-01T10:30:27.000Z</time>
      </trkpt>
      <trkpt lat="47.46711" lon="6.82019">
        <ele>407</ele>
        <time>2015-03-01T10:30:28.000Z</time>
      </trkpt>
      <trkpt lat="47.46714" lon="6.82019">
        <ele>407</ele>
        <time>2015-03-01T10:30:29.000Z</time>
      </trkpt>
      <trkpt lat="47.46717" lon="6.8202">
        <ele>408</ele>
        <time>2015-03-01T10:30:30.000Z</time>
      </trkpt>
      <trkpt lat="47.4672" lon="6.8202">
        <ele>408</ele>
        <time>2015-03-01T10:30:31.000Z</time>
      </trkpt>
      <trkpt lat="47.46723" lon="6.82021">
        <ele>408</ele>
        <time>2015-03-01T10:30:32.000Z</time>
      </trkpt>
      <trkpt lat="47.46726" lon="6.82021">
        <ele>408</ele>
        <time>2015-03-01T10:30:33.000Z</time>
      </trkpt>
      <trkpt lat="47.46729" lon="6.82022">
        <ele>408</ele>
        <time>2015-03-01T10:30:34.000Z</time>
      </trkpt>
      <trkpt lat="47.46732" lon="6.82023">
        <ele>408</ele>
        <time>2015-03-01T10:30:35.000Z</time>
      </trkpt>
      <trkpt lat="47.46736" lon="6.82024">
        <ele>408</ele>
        <time>2015-03-01T10:30:36.000Z</time>
      </trkpt>
      <trkpt lat="47.46739" lon="6.82024">
        <ele>408</ele>
        <time>2015-03-01T10:30:37.000Z</time>
      </trkpt>
      <trkpt lat="47.46742" lon="6.82025">
        <ele>408</ele>
        <time>2015-03-01T10:30:38.000Z</time>
      </trkpt>
      <trkpt lat="47.46745" lon="6.82026">
        <ele>408</ele>
        <time>2015-03-01T10:30:39.000Z</time>
      </trkpt>
      <trkpt lat="47.46749" lon="6.82026">
        <ele>408</ele>
        <time>2015-03-01T10:30:40.000Z</time>
      </trkpt>
      <trkpt lat="47.46752" lon="6.82028">
        <ele>410</ele>
        <time>2015-03-01T10:30:41.000Z</time>
      </trkpt>
      <trkpt lat="47.46755" lon="6.82029">
        <ele>410</ele>
        <time>2015-03-01T10:30:42.000Z</time>
      </trkpt>
      <trkpt lat="47.46758" lon="6.82031">
        <ele>410</ele>
        <time>2015-03-01T10:30:43.000Z</time>
      </trkpt>
      <trkpt lat="47.46761" lon="6.82034">
        <ele>410</ele>
        <time>2015-03-01T10:30:44.000Z</time>
      </trkpt>
      <trkpt lat="47.46764" lon="6.82036">
        <ele>410</ele>
        <time>2015-03-01T10:30:45.000Z</time>
      </trkpt>
      <trkpt lat="47.46767" lon="6.82039">
        <ele>410</ele>
        <time>2015-03-01T10:30:46.000Z</time>
      </trkpt>
      <trkpt lat="47.4677" lon="6.82041">
        <ele>410</ele>
        <time>2015-03-01T10:30:47.000Z</time>
      </trkpt>
      <trkpt lat="47.46773" lon="6.82044">
        <ele>410</ele>
        <time>2015-03-01T10:30:48.000Z</time>
      </trkpt>
      <trkpt lat="47.46776" lon="6.82046">
        <ele>410</ele>
        <time>2015-03-01T10:30:49.000Z</time>
      </trkpt>
      <trkpt lat="47.46778" lon="6.8205">
        <ele>410</ele>
        <time>2015-03-01T10:30:50.000Z</time>
      </trkpt>
      <trkpt lat="47.46781" lon="6.82052">
        <ele>410</ele>
        <time>2015-03-01T10:30:50.998Z</time>
      </trkpt>
      <trkpt lat="47.46784" lon="6.82056">
        <ele>410</ele>
        <time>2015-03-01T10:30:52.000Z</time>
      </trkpt>
      <trkpt lat="47.46786" lon="6.82059">
        <ele>409</ele>
        <time>2015-03-01T10:30:53.000Z</time>
      </trkpt>
      <trkpt lat="47.46789" lon="6.82061">
        <ele>409</ele>
        <time>2015-03-01T10:30:54.000Z</time>
      </trkpt>
      <trkpt lat="47.46792" lon="6.82063">
        <ele>409</ele>
        <time>2015-03-01T10:30:55.000Z</time>
      </trkpt>
      <trkpt lat="47.46795" lon="6.82065">
        <ele>409</ele>
        <time>2015-03-01T10:30:56.000Z</time>
      </trkpt>
      <trkpt lat="47.46798" lon="6.82067">
        <ele>409</ele>
        <time>2015-03-01T10:30:57.000Z</time>
      </trkpt>
      <trkpt lat="47.46801" lon="6.8207">
        <ele>409</ele>
        <time>2015-03-01T10:30:58.000Z</time>
      </trkpt>
      <trkpt lat="47.46805" lon="6.82073">
        <ele>409</ele>
        <time>2015-03-01T10:30:59.000Z</time>
      </trkpt>
      <trkpt lat="47.46808" lon="6.82077">
        <ele>409</ele>
        <time>2015-03-01T10:31:00.000Z</time>
      </trkpt>
      <trkpt lat="47.46811" lon="6.8208">
        <ele>409</ele>
        <time>2015-03-01T10:31:01.000Z</time>
      </trkpt>
      <trkpt lat="47.46814" lon="6.82084">
        <ele>406</ele>
        <time>2015-03-01T10:31:02.000Z</time>
      </trkpt>
      <trkpt lat="47.46817" lon="6.82086">
        <ele>407</ele>
        <time>2015-03-01T10:31:03.000Z</time>
      </trkpt>
      <trkpt lat="47.4682" lon="6.82089">
        <ele>407</ele>
        <time>2015-03-01T10:31:04.000Z</time>
      </trkpt>
      <trkpt lat="47.46823" lon="6.82091">
        <ele>407</ele>
        <time>2015-03-01T10:31:05.000Z</time>
      </trkpt>
      <trkpt lat="47.46826" lon="6.82093">
        <ele>407</ele>
        <time>2015-03-01T10:31:06.000Z</time>
      </trkpt>
      <trkpt lat="47.46831" lon="6.82095">
        <ele>407</ele>
        <time>2015-03-01T10:31:07.000Z</time>
      </trkpt>
      <trkpt lat="47.46838" lon="6.82101">
        <ele>405</ele>
        <time>2015-03-01T10:31:08.000Z</time>
      </trkpt>
      <trkpt lat="47.46843" lon="6.82104">
        <ele>405</ele>
        <time>2015-03-01T10:31:09.000Z</time>
      </trkpt>
      <trkpt lat="47.46849" lon="6.82107">
        <ele>404</ele>
        <time>2015-03-01T10:31:10.000Z</time>
      </trkpt>
      <trkpt lat="47.46855" lon="6.82113">
        <ele>403</ele>
        <time>2015-03-01T10:31:11.000Z</time>
      </trkpt>
      <trkpt lat="47.4686" lon="6.82117">
        <ele>403</ele>
        <time>2015-03-01T10:31:12.000Z</time>
      </trkpt>
      <trkpt lat="47.46867" lon="6.82125">
        <ele>402</ele>
        <time>2015-03-01T10:31:13.000Z</time>
      </trkpt>
      <trkpt lat="47.46874" lon="6.82132">
        <ele>402</ele>
        <time>2015-03-01T10:31:14.000Z</time>
      </trkpt>
      <trkpt lat="47.46882" lon="6.8214">
        <ele>401</ele>
        <time>2015-03-01T10:31:15.000Z</time>
      </trkpt>
      <trkpt lat="47.4689" lon="6.82148">
        <ele>401</ele>
        <time>2015-03-01T10:31:16.000Z</time>
      </trkpt>
      <trkpt lat="47.46896" lon="6.82154">
        <ele>401</ele>
        <time>2015-03-01T10:31:17.000Z</time>
      </trkpt>
      <trkpt lat="47.46905" lon="6.82163">
        <ele>400</ele>
        <time>2015-03-01T10:31:18.000Z</time>
      </trkpt>
      <trkpt lat="47.46913" lon="6.82171">
        <ele>398</ele>
        <time>2015-03-01T10:31:19.000Z</time>
      </trkpt>
      <trkpt lat="47.4692" lon="6.82178">
        <ele>397</ele>
        <time>2015-03-01T10:31:20.000Z</time>
      </trkpt>
      <trkpt lat="47.46928" lon="6.82182">
        <ele>396</ele>
        <time>2015-03-01T10:31:21.000Z</time>
      </trkpt>
      <trkpt lat="47.46937" lon="6.82179">
        <ele>396</ele>
        <time>2015-03-01T10:31:22.000Z</time>
      </trkpt>
      <trkpt lat="47.46945" lon="6.8218">
        <ele>396</ele>
        <time>2015-03-01T10:31:23.000Z</time>
      </trkpt>
      <trkpt lat="47.46953" lon="6.82182">
        <ele>396</ele>
        <time>2015-03-01T10:31:24.000Z</time>
      </trkpt>
      <trkpt lat="47.4696" lon="6.82182">
        <ele>395</ele>
        <time>2015-03-01T10:31:25.000Z</time>
      </trkpt>
      <trkpt lat="47.46969" lon="6.82183">
        <ele>395</ele>
        <time>2015-03-01T10:31:26.000Z</time>
      </trkpt>
      <trkpt lat="47.46975" lon="6.82186">
        <ele>395</ele>
        <time>2015-03-01T10:31:27.000Z</time>
      </trkpt>
      <trkpt lat="47.46981" lon="6.82187">
        <ele>395</ele>
        <time>2015-03-01T10:31:28.000Z</time>
      </trkpt>
      <trkpt lat="47.46988" lon="6.82189">
        <ele>396</ele>
        <time>2015-03-01T10:31:29.000Z</time>
      </trkpt>
      <trkpt lat="47.46995" lon="6.82189">
        <ele>396</ele>
        <time>2015-03-01T10:31:30.000Z</time>
      </trkpt>
      <trkpt lat="47.47002" lon="6.82191">
        <ele>397</ele>
        <time>2015-03-01T10:31:31.000Z</time>
      </trkpt>
      <trkpt lat="47.47007" lon="6.82192">
        <ele>397</ele>
        <time>2015-03-01T10:31:32.000Z</time>
      </trkpt>
      <trkpt lat="47.47013" lon="6.82194">
        <ele>398</ele>
        <time>2015-03-01T10:31:33.000Z</time>
      </trkpt>
      <trkpt lat="47.4702" lon="6.82196">
        <ele>398</ele>
        <time>2015-03-01T10:31:34.000Z</time>
      </trkpt>
      <trkpt lat="47.47027" lon="6.82198">
        <ele>398</ele>
        <time>2015-03-01T10:31:35.000Z</time>
      </trkpt>
      <trkpt lat="47.47033" lon="6.82198">
        <ele>398</ele>
        <time>2015-03-01T10:31:36.000Z</time>
      </trkpt>
      <trkpt lat="47.47041" lon="6.82202">
        <ele>398</ele>
        <time>2015-03-01T10:31:37.000Z</time>
      </trkpt>
      <trkpt lat="47.47049" lon="6.82203">
        <ele>398</ele>
        <time>2015-03-01T10:31:38.000Z</time>
      </trkpt>
      <trkpt lat="47.47055" lon="6.82202">
        <ele>399</ele>
        <time>2015-03-01T10:31:39.000Z</time>
      </trkpt>
      <trkpt lat="47.47061" lon="6.822">
        <ele>399</ele>
        <time>2015-03-01T10:31:40.000Z</time>
      </trkpt>
      <trkpt lat="47.47066" lon="6.82197">
        <ele>399</ele>
        <time>2015-03-01T10:31:41.000Z</time>
      </trkpt>
      <trkpt lat="47.47072" lon="6.82195">
        <ele>399</ele>
        <time>2015-03-01T10:31:42.000Z</time>
      </trkpt>
      <trkpt lat="47.47078" lon="6.82193">
        <ele>399</ele>
        <time>2015-03-01T10:31:43.000Z</time>
      </trkpt>
      <trkpt lat="47.47083" lon="6.82191">
        <ele>399</ele>
        <time>2015-03-01T10:31:44.000Z</time>
      </trkpt>
      <trkpt lat="47.47088" lon="6.82189">
        <ele>400</ele>
        <time>2015-03-01T10:31:45.000Z</time>
      </trkpt>
      <trkpt lat="47.47092" lon="6.82187">
        <ele>400</ele>
        <time>2015-03-01T10:31:46.000Z</time>
      </trkpt>
      <trkpt lat="47.47097" lon="6.82186">
        <ele>400</ele>
        <time>2015-03-01T10:31:47.000Z</time>
      </trkpt>
      <trkpt lat="47.47102" lon="6.82183">
        <ele>400</ele>
        <time>2015-03-01T10:31:48.000Z</time>
      </trkpt>
      <trkpt lat="47.47106" lon="6.82182">
        <ele>400</ele>
        <time>2015-03-01T10:31:49.001Z</time>
      </trkpt>
      <trkpt lat="47.47107" lon="6.82179">
        <ele>400</ele>
        <time>2015-03-01T10:31:50.000Z</time>
      </trkpt>
      <trkpt lat="47.47112" lon="6.82177">
        <ele>400</ele>
        <time>2015-03-01T10:31:51.000Z</time>
      </trkpt>
      <trkpt lat="47.47118" lon="6.82175">
        <ele>400</ele>
        <time>2015-03-01T10:31:52.000Z</time>
      </trkpt>
      <trkpt lat="47.47122" lon="6.82177">
        <ele>400</ele>
        <time>2015-03-01T10:31:53.000Z</time>
      </trkpt>
      <trkpt lat="47.47126" lon="6.82177">
        <ele>400</ele>
        <time>2015-03-01T10:31:54.000Z</time>
      </trkpt>
      <trkpt lat="47.4713" lon="6.82176">
        <ele>400</ele>
        <time>2015-03-01T10:31:56.000Z</time>
      </trkpt>
      <trkpt lat="47.47132" lon="6.82177">
        <ele>400</ele>
        <time>2015-03-01T10:31:57.000Z</time>
      </trkpt>
      <trkpt lat="47.47134" lon="6.82177">
        <ele>400</ele>
        <time>2015-03-01T10:31:58.000Z</time>
      </trkpt>
      <trkpt lat="47.47137" lon="6.82175">
        <ele>400</ele>
        <time>2015-03-01T10:31:59.000Z</time>
      </trkpt>
      <trkpt lat="47.4714" lon="6.82177">
        <ele>399</ele>
        <time>2015-03-01T10:32:00.000Z</time>
      </trkpt>
      <trkpt lat="47.47144" lon="6.82181">
        <ele>399</ele>
        <time>2015-03-01T10:32:01.000Z</time>
      </trkpt>
      <trkpt lat="47.47147" lon="6.82182">
        <ele>399</ele>
        <time>2015-03-01T10:32:02.000Z</time>
      </trkpt>
      <trkpt lat="47.47149" lon="6.82184">
        <ele>399</ele>
        <time>2015-03-01T10:32:03.000Z</time>
      </trkpt>
      <trkpt lat="47.47152" lon="6.82186">
        <ele>399</ele>
        <time>2015-03-01T10:32:04.000Z</time>
      </trkpt>
      <trkpt lat="47.47154" lon="6.82187">
        <ele>399</ele>
        <time>2015-03-01T10:32:05.001Z</time>
      </trkpt>
      <trkpt lat="47.47155" lon="6.8219">
        <ele>399</ele>
        <time>2015-03-01T10:32:06.000Z</time>
      </trkpt>
      <trkpt lat="47.47158" lon="6.82191">
        <ele>399</ele>
        <time>2015-03-01T10:32:07.000Z</time>
      </trkpt>
      <trkpt lat="47.4716" lon="6.82193">
        <ele>399</ele>
        <time>2015-03-01T10:32:08.000Z</time>
      </trkpt>
      <trkpt lat="47.47163" lon="6.82193">
        <ele>399</ele>
        <time>2015-03-01T10:32:09.000Z</time>
      </trkpt>
      <trkpt lat="47.47166" lon="6.82194">
        <ele>399</ele>
        <time>2015-03-01T10:32:10.000Z</time>
      </trkpt>
      <trkpt lat="47.4717" lon="6.82195">
        <ele>396</ele>
        <time>2015-03-01T10:32:11.000Z</time>
      </trkpt>
      <trkpt lat="47.47173" lon="6.82196">
        <ele>396</ele>
        <time>2015-03-01T10:32:12.000Z</time>
      </trkpt>
      <trkpt lat="47.47177" lon="6.82196">
        <ele>396</ele>
        <time>2015-03-01T10:32:13.000Z</time>
      </trkpt>
      <trkpt lat="47.4718" lon="6.82197">
        <ele>395</ele>
        <time>2015-03-01T10:32:14.000Z</time>
      </trkpt>
      <trkpt lat="47.47184" lon="6.82197">
        <ele>395</ele>
        <time>2015-03-01T10:32:15.000Z</time>
      </trkpt>
      <trkpt lat="47.47188" lon="6.82199">
        <ele>395</ele>
        <time>2015-03-01T10:32:16.000Z</time>
      </trkpt>
      <trkpt lat="47.47194" lon="6.82201">
        <ele>395</ele>
        <time>2015-03-01T10:32:17.000Z</time>
      </trkpt>
      <trkpt lat="47.47199" lon="6.82204">
        <ele>394</ele>
        <time>2015-03-01T10:32:18.000Z</time>
      </trkpt>
      <trkpt lat="47.47203" lon="6.82207">
        <ele>394</ele>
        <time>2015-03-01T10:32:19.000Z</time>
      </trkpt>
      <trkpt lat="47.47209" lon="6.82209">
        <ele>394</ele>
        <time>2015-03-01T10:32:20.000Z</time>
      </trkpt>
      <trkpt lat="47.47214" lon="6.82214">
        <ele>393</ele>
        <time>2015-03-01T10:32:21.000Z</time>
      </trkpt>
      <trkpt lat="47.47219" lon="6.82218">
        <ele>393</ele>
        <time>2015-03-01T10:32:22.000Z</time>
      </trkpt>
      <trkpt lat="47.47223" lon="6.82223">
        <ele>393</ele>
        <time>2015-03-01T10:32:22.999Z</time>
      </trkpt>
      <trkpt lat="47.47228" lon="6.82229">
        <ele>392</ele>
        <time>2015-03-01T10:32:24.000Z</time>
      </trkpt>
      <trkpt lat="47.47232" lon="6.82233">
        <ele>392</ele>
        <time>2015-03-01T10:32:25.000Z</time>
      </trkpt>
      <trkpt lat="47.47237" lon="6.82238">
        <ele>391</ele>
        <time>2015-03-01T10:32:26.000Z</time>
      </trkpt>
      <trkpt lat="47.4724" lon="6.82242">
        <ele>390</ele>
        <time>2015-03-01T10:32:27.000Z</time>
      </trkpt>
      <trkpt lat="47.47244" lon="6.82241">
        <ele>390</ele>
        <time>2015-03-01T10:32:28.000Z</time>
      </trkpt>
      <trkpt lat="47.47249" lon="6.82242">
        <ele>390</ele>
        <time>2015-03-01T10:32:29.000Z</time>
      </trkpt>
      <trkpt lat="47.47253" lon="6.82236">
        <ele>385</ele>
        <time>2015-03-01T10:32:30.000Z</time>
      </trkpt>
      <trkpt lat="47.47256" lon="6.8223">
        <ele>385</ele>
        <time>2015-03-01T10:32:31.000Z</time>
      </trkpt>
      <trkpt lat="47.47258" lon="6.82222">
        <ele>384</ele>
        <time>2015-03-01T10:32:32.000Z</time>
      </trkpt>
      <trkpt lat="47.47261" lon="6.82215">
        <ele>384</ele>
        <time>2015-03-01T10:32:33.000Z</time>
      </trkpt>
      <trkpt lat="47.47264" lon="6.82206">
        <ele>384</ele>
        <time>2015-03-01T10:32:34.000Z</time>
      </trkpt>
      <trkpt lat="47.47267" lon="6.82198">
        <ele>384</ele>
        <time>2015-03-01T10:32:35.000Z</time>
      </trkpt>
      <trkpt lat="47.47271" lon="6.82189">
        <ele>384</ele>
        <time>2015-03-01T10:32:36.000Z</time>
      </trkpt>
      <trkpt lat="47.47273" lon="6.8218">
        <ele>384</ele>
        <time>2015-03-01T10:32:37.000Z</time>
      </trkpt>
      <trkpt lat="47.47277" lon="6.8217">
        <ele>384</ele>
        <time>2015-03-01T10:32:38.000Z</time>
      </trkpt>
      <trkpt lat="47.4728" lon="6.82161">
        <ele>384</ele>
        <time>2015-03-01T10:32:39.000Z</time>
      </trkpt>
      <trkpt lat="47.47283" lon="6.82151">
        <ele>384</ele>
        <time>2015-03-01T10:32:40.000Z</time>
      </trkpt>
      <trkpt lat="47.47287" lon="6.82143">
        <ele>383</ele>
        <time>2015-03-01T10:32:41.000Z</time>
      </trkpt>
      <trkpt lat="47.4729" lon="6.82133">
        <ele>383</ele>
        <time>2015-03-01T10:32:42.000Z</time>
      </trkpt>
      <trkpt lat="47.47294" lon="6.82123">
        <ele>383</ele>
        <time>2015-03-01T10:32:43.000Z</time>
      </trkpt>
      <trkpt lat="47.47297" lon="6.82113">
        <ele>383</ele>
        <time>2015-03-01T10:32:44.000Z</time>
      </trkpt>
      <trkpt lat="47.473" lon="6.82104">
        <ele>382</ele>
        <time>2015-03-01T10:32:45.000Z</time>
      </trkpt>
      <trkpt lat="47.47304" lon="6.82095">
        <ele>382</ele>
        <time>2015-03-01T10:32:46.000Z</time>
      </trkpt>
      <trkpt lat="47.47308" lon="6.82084">
        <ele>381</ele>
        <time>2015-03-01T10:32:47.000Z</time>
      </trkpt>
      <trkpt lat="47.47311" lon="6.82074">
        <ele>382</ele>
        <time>2015-03-01T10:32:48.000Z</time>
      </trkpt>
      <trkpt lat="47.47314" lon="6.82064">
        <ele>382</ele>
        <time>2015-03-01T10:32:49.000Z</time>
      </trkpt>
      <trkpt lat="47.47317" lon="6.82055">
        <ele>382</ele>
        <time>2015-03-01T10:32:50.000Z</time>
      </trkpt>
      <trkpt lat="47.47322" lon="6.82045">
        <ele>382</ele>
        <time>2015-03-01T10:32:51.000Z</time>
      </trkpt>
      <trkpt lat="47.47327" lon="6.82034">
        <ele>381</ele>
        <time>2015-03-01T10:32:52.000Z</time>
      </trkpt>
      <trkpt lat="47.47333" lon="6.82026">
        <ele>381</ele>
        <time>2015-03-01T10:32:53.000Z</time>
      </trkpt>
      <trkpt lat="47.47339" lon="6.82019">
        <ele>378</ele>
        <time>2015-03-01T10:32:54.000Z</time>
      </trkpt>
      <trkpt lat="47.47348" lon="6.82015">
        <ele>378</ele>
        <time>2015-03-01T10:32:55.000Z</time>
      </trkpt>
      <trkpt lat="47.47356" lon="6.82013">
        <ele>378</ele>
        <time>2015-03-01T10:32:56.000Z</time>
      </trkpt>
      <trkpt lat="47.47363" lon="6.82012">
        <ele>378</ele>
        <time>2015-03-01T10:32:57.000Z</time>
      </trkpt>
      <trkpt lat="47.4737" lon="6.82011">
        <ele>378</ele>
        <time>2015-03-01T10:32:58.000Z</time>
      </trkpt>
      <trkpt lat="47.47376" lon="6.82012">
        <ele>379</ele>
        <time>2015-03-01T10:32:59.000Z</time>
      </trkpt>
      <trkpt lat="47.47381" lon="6.82015">
        <ele>379</ele>
        <time>2015-03-01T10:33:00.000Z</time>
      </trkpt>
      <trkpt lat="47.47386" lon="6.82018">
        <ele>379</ele>
        <time>2015-03-01T10:33:01.000Z</time>
      </trkpt>
      <trkpt lat="47.4739" lon="6.82021">
        <ele>379</ele>
        <time>2015-03-01T10:33:02.000Z</time>
      </trkpt>
      <trkpt lat="47.47392" lon="6.82021">
        <ele>379</ele>
        <time>2015-03-01T10:33:03.000Z</time>
      </trkpt>
      <trkpt lat="47.47395" lon="6.82023">
        <ele>379</ele>
        <time>2015-03-01T10:33:04.000Z</time>
      </trkpt>
      <trkpt lat="47.47398" lon="6.82026">
        <ele>379</ele>
        <time>2015-03-01T10:33:06.000Z</time>
      </trkpt>
      <trkpt lat="47.474" lon="6.82029">
        <ele>379</ele>
        <time>2015-03-01T10:33:07.000Z</time>
      </trkpt>
      <trkpt lat="47.47404" lon="6.8203">
        <ele>379</ele>
        <time>2015-03-01T10:33:11.000Z</time>
      </trkpt>
      <trkpt lat="47.47406" lon="6.82029">
        <ele>379</ele>
        <time>2015-03-01T10:33:12.000Z</time>
      </trkpt>
      <trkpt lat="47.4741" lon="6.82029">
        <ele>379</ele>
        <time>2015-03-01T10:33:15.001Z</time>
      </trkpt>
      <trkpt lat="47.47412" lon="6.82031">
        <ele>379</ele>
        <time>2015-03-01T10:33:16.000Z</time>
      </trkpt>
      <trkpt lat="47.47415" lon="6.82034">
        <ele>379</ele>
        <time>2015-03-01T10:33:18.000Z</time>
      </trkpt>
      <trkpt lat="47.47417" lon="6.82035">
        <ele>379</ele>
        <time>2015-03-01T10:33:19.000Z</time>
      </trkpt>
      <trkpt lat="47.4742" lon="6.82036">
        <ele>382</ele>
        <time>2015-03-01T10:33:21.000Z</time>
      </trkpt>
      <trkpt lat="47.47423" lon="6.82038">
        <ele>382</ele>
        <time>2015-03-01T10:33:22.000Z</time>
      </trkpt>
      <trkpt lat="47.47425" lon="6.82039">
        <ele>382</ele>
        <time>2015-03-01T10:33:23.000Z</time>
      </trkpt>
      <trkpt lat="47.47428" lon="6.8204">
        <ele>382</ele>
        <time>2015-03-01T10:33:24.000Z</time>
      </trkpt>
      <trkpt lat="47.47432" lon="6.82041">
        <ele>382</ele>
        <time>2015-03-01T10:33:25.000Z</time>
      </trkpt>
      <trkpt lat="47.47436" lon="6.82042">
        <ele>382</ele>
        <time>2015-03-01T10:33:26.000Z</time>
      </trkpt>
      <trkpt lat="47.47439" lon="6.82042">
        <ele>382</ele>
        <time>2015-03-01T10:33:27.000Z</time>
      </trkpt>
      <trkpt lat="47.47442" lon="6.82042">
        <ele>382</ele>
        <time>2015-03-01T10:33:28.000Z</time>
      </trkpt>
      <trkpt lat="47.47445" lon="6.82042">
        <ele>382</ele>
        <time>2015-03-01T10:33:29.000Z</time>
      </trkpt>
      <trkpt lat="47.47448" lon="6.82041">
        <ele>382</ele>
        <time>2015-03-01T10:33:30.000Z</time>
      </trkpt>
      <trkpt lat="47.47451" lon="6.8204">
        <ele>382</ele>
        <time>2015-03-01T10:33:31.002Z</time>
      </trkpt>
      <trkpt lat="47.47454" lon="6.8204">
        <ele>382</ele>
        <time>2015-03-01T10:33:32.000Z</time>
      </trkpt>
      <trkpt lat="47.47456" lon="6.82039">
        <ele>383</ele>
        <time>2015-03-01T10:33:33.000Z</time>
      </trkpt>
      <trkpt lat="47.47458" lon="6.82039">
        <ele>383</ele>
        <time>2015-03-01T10:33:34.000Z</time>
      </trkpt>
      <trkpt lat="47.47462" lon="6.82038">
        <ele>383</ele>
        <time>2015-03-01T10:33:36.000Z</time>
      </trkpt>
      <trkpt lat="47.47463" lon="6.82038">
        <ele>383</ele>
        <time>2015-03-01T10:33:37.000Z</time>
      </trkpt>
      <trkpt lat="47.47466" lon="6.82035">
        <ele>383</ele>
        <time>2015-03-01T10:33:39.000Z</time>
      </trkpt>
      <trkpt lat="47.47467" lon="6.82033">
        <ele>383</ele>
        <time>2015-03-01T10:33:40.000Z</time>
      </trkpt>
      <trkpt lat="47.4747" lon="6.8203">
        <ele>384</ele>
        <time>2015-03-01T10:33:42.000Z</time>
      </trkpt>
      <trkpt lat="47.47472" lon="6.82029">
        <ele>384</ele>
        <time>2015-03-01T10:33:43.000Z</time>
      </trkpt>
      <trkpt lat="47.47475" lon="6.82028">
        <ele>384</ele>
        <time>2015-03-01T10:33:45.000Z</time>
      </trkpt>
      <trkpt lat="47.47477" lon="6.82028">
        <ele>384</ele>
        <time>2015-03-01T10:33:45.999Z</time>
      </trkpt>
      <trkpt lat="47.4748" lon="6.82028">
        <ele>384</ele>
        <time>2015-03-01T10:33:47.000Z</time>
      </trkpt>
      <trkpt lat="47.47483" lon="6.82029">
        <ele>384</ele>
        <time>2015-03-01T10:33:48.000Z</time>
      </trkpt>
      <trkpt lat="47.47486" lon="6.82029">
        <ele>384</ele>
        <time>2015-03-01T10:33:49.000Z</time>
      </trkpt>
      <trkpt lat="47.47489" lon="6.82028">
        <ele>385</ele>
        <time>2015-03-01T10:33:50.000Z</time>
      </trkpt>
      <trkpt lat="47.47492" lon="6.82028">
        <ele>385</ele>
        <time>2015-03-01T10:33:51.000Z</time>
      </trkpt>
      <trkpt lat="47.47496" lon="6.82028">
        <ele>385</ele>
        <time>2015-03-01T10:33:52.000Z</time>
      </trkpt>
      <trkpt lat="47.47499" lon="6.82028">
        <ele>385</ele>
        <time>2015-03-01T10:33:53.000Z</time>
      </trkpt>
      <trkpt lat="47.47503" lon="6.82028">
        <ele>387</ele>
        <time>2015-03-01T10:33:54.000Z</time>
      </trkpt>
      <trkpt lat="47.47506" lon="6.82029">
        <ele>387</ele>
        <time>2015-03-01T10:33:55.000Z</time>
      </trkpt>
      <trkpt lat="47.47509" lon="6.82029">
        <ele>387</ele>
        <time>2015-03-01T10:33:56.000Z</time>
      </trkpt>
      <trkpt lat="47.47512" lon="6.8203">
        <ele>387</ele>
        <time>2015-03-01T10:33:57.000Z</time>
      </trkpt>
      <trkpt lat="47.47515" lon="6.8203">
        <ele>387</ele>
        <time>2015-03-01T10:33:58.000Z</time>
      </trkpt>
      <trkpt lat="47.47517" lon="6.82029">
        <ele>387</ele>
        <time>2015-03-01T10:33:59.000Z</time>
      </trkpt>
      <trkpt lat="47.4752" lon="6.82028">
        <ele>387</ele>
        <time>2015-03-01T10:34:00.000Z</time>
      </trkpt>
      <trkpt lat="47.47523" lon="6.82025">
        <ele>387</ele>
        <time>2015-03-01T10:34:02.000Z</time>
      </trkpt>
      <trkpt lat="47.47524" lon="6.82023">
        <ele>387</ele>
        <time>2015-03-01T10:34:03.000Z</time>
      </trkpt>
      <trkpt lat="47.47526" lon="6.82021">
        <ele>388</ele>
        <time>2015-03-01T10:34:04.000Z</time>
      </trkpt>
      <trkpt lat="47.47529" lon="6.8202">
        <ele>388</ele>
        <time>2015-03-01T10:34:05.000Z</time>
      </trkpt>
      <trkpt lat="47.47531" lon="6.82018">
        <ele>388</ele>
        <time>2015-03-01T10:34:06.000Z</time>
      </trkpt>
      <trkpt lat="47.47534" lon="6.82016">
        <ele>388</ele>
        <time>2015-03-01T10:34:07.000Z</time>
      </trkpt>
      <trkpt lat="47.47536" lon="6.82015">
        <ele>388</ele>
        <time>2015-03-01T10:34:08.000Z</time>
      </trkpt>
      <trkpt lat="47.47542" lon="6.82017">
        <ele>388</ele>
        <time>2015-03-01T10:34:09.000Z</time>
      </trkpt>
      <trkpt lat="47.47546" lon="6.82017">
        <ele>388</ele>
        <time>2015-03-01T10:34:10.000Z</time>
      </trkpt>
      <trkpt lat="47.47549" lon="6.82019">
        <ele>388</ele>
        <time>2015-03-01T10:34:11.000Z</time>
      </trkpt>
      <trkpt lat="47.47551" lon="6.8202">
        <ele>388</ele>
        <time>2015-03-01T10:34:12.000Z</time>
      </trkpt>
      <trkpt lat="47.47553" lon="6.82022">
        <ele>388</ele>
        <time>2015-03-01T10:34:13.000Z</time>
      </trkpt>
      <trkpt lat="47.47556" lon="6.82024">
        <ele>388</ele>
        <time>2015-03-01T10:34:14.000Z</time>
      </trkpt>
      <trkpt lat="47.4756" lon="6.82027">
        <ele>388</ele>
        <time>2015-03-01T10:34:15.000Z</time>
      </trkpt>
      <trkpt lat="47.47563" lon="6.8203">
        <ele>387</ele>
        <time>2015-03-01T10:34:16.000Z</time>
      </trkpt>
      <trkpt lat="47.47564" lon="6.82033">
        <ele>387</ele>
        <time>2015-03-01T10:34:17.000Z</time>
      </trkpt>
      <trkpt lat="47.47568" lon="6.82036">
        <ele>387</ele>
        <time>2015-03-01T10:34:18.000Z</time>
      </trkpt>
      <trkpt lat="47.47571" lon="6.82038">
        <ele>387</ele>
        <time>2015-03-01T10:34:19.000Z</time>
      </trkpt>
      <trkpt lat="47.47574" lon="6.82041">
        <ele>387</ele>
        <time>2015-03-01T10:34:20.000Z</time>
      </trkpt>
      <trkpt lat="47.47577" lon="6.82043">
        <ele>387</ele>
        <time>2015-03-01T10:34:21.000Z</time>
      </trkpt>
      <trkpt lat="47.47581" lon="6.82047">
        <ele>387</ele>
        <time>2015-03-01T10:34:22.000Z</time>
      </trkpt>
      <trkpt lat="47.47586" lon="6.8205">
        <ele>385</ele>
        <time>2015-03-01T10:34:23.000Z</time>
      </trkpt>
      <trkpt lat="47.4759" lon="6.82052">
        <ele>385</ele>
        <time>2015-03-01T10:34:24.000Z</time>
      </trkpt>
      <trkpt lat="47.47594" lon="6.82054">
        <ele>385</ele>
        <time>2015-03-01T10:34:25.000Z</time>
      </trkpt>
      <trkpt lat="47.47597" lon="6.82055">
        <ele>385</ele>
        <time>2015-03-01T10:34:26.000Z</time>
      </trkpt>
      <trkpt lat="47.47601" lon="6.82055">
        <ele>385</ele>
        <time>2015-03-01T10:34:37.000Z</time>
      </trkpt>
      <trkpt lat="47.47603" lon="6.82055">
        <ele>384</ele>
        <time>2015-03-01T10:34:38.000Z</time>
      </trkpt>
      <trkpt lat="47.47606" lon="6.82055">
        <ele>384</ele>
        <time>2015-03-01T10:34:40.000Z</time>
      </trkpt>
      <trkpt lat="47.47608" lon="6.82056">
        <ele>384</ele>
        <time>2015-03-01T10:34:41.000Z</time>
      </trkpt>
      <trkpt lat="47.4761" lon="6.82056">
        <ele>384</ele>
        <time>2015-03-01T10:34:42.000Z</time>
      </trkpt>
      <trkpt lat="47.47612" lon="6.82057">
        <ele>384</ele>
        <time>2015-03-01T10:34:43.000Z</time>
      </trkpt>
      <trkpt lat="47.47615" lon="6.82058">
        <ele>384</ele>
        <time>2015-03-01T10:34:44.000Z</time>
      </trkpt>
      <trkpt lat="47.47617" lon="6.8206">
        <ele>384</ele>
        <time>2015-03-01T10:34:45.000Z</time>
      </trkpt>
      <trkpt lat="47.47621" lon="6.82062">
        <ele>384</ele>
        <time>2015-03-01T10:34:47.000Z</time>
      </trkpt>
      <trkpt lat="47.47622" lon="6.82063">
        <ele>384</ele>
        <time>2015-03-01T10:34:48.000Z</time>
      </trkpt>
      <trkpt lat="47.47626" lon="6.82065">
        <ele>383</ele>
        <time>2015-03-01T10:34:50.000Z</time>
      </trkpt>
      <trkpt lat="47.47629" lon="6.82067">
        <ele>383</ele>
        <time>2015-03-01T10:34:51.000Z</time>
      </trkpt>
      <trkpt lat="47.47632" lon="6.82069">
        <ele>383</ele>
        <time>2015-03-01T10:34:52.000Z</time>
      </trkpt>
      <trkpt lat="47.47635" lon="6.82072">
        <ele>383</ele>
        <time>2015-03-01T10:34:53.000Z</time>
      </trkpt>
      <trkpt lat="47.47639" lon="6.82075">
        <ele>383</ele>
        <time>2015-03-01T10:34:54.000Z</time>
      </trkpt>
      <trkpt lat="47.47642" lon="6.82077">
        <ele>382</ele>
        <time>2015-03-01T10:34:54.999Z</time>
      </trkpt>
      <trkpt lat="47.47645" lon="6.82078">
        <ele>382</ele>
        <time>2015-03-01T10:34:56.000Z</time>
      </trkpt>
      <trkpt lat="47.47649" lon="6.8208">
        <ele>382</ele>
        <time>2015-03-01T10:34:57.000Z</time>
      </trkpt>
      <trkpt lat="47.47653" lon="6.82083">
        <ele>381</ele>
        <time>2015-03-01T10:34:58.000Z</time>
      </trkpt>
      <trkpt lat="47.47658" lon="6.82085">
        <ele>380</ele>
        <time>2015-03-01T10:34:59.000Z</time>
      </trkpt>
      <trkpt lat="47.47663" lon="6.82089">
        <ele>380</ele>
        <time>2015-03-01T10:35:00.000Z</time>
      </trkpt>
      <trkpt lat="47.47667" lon="6.82092">
        <ele>379</ele>
        <time>2015-03-01T10:35:01.000Z</time>
      </trkpt>
      <trkpt lat="47.47671" lon="6.82095">
        <ele>379</ele>
        <time>2015-03-01T10:35:02.000Z</time>
      </trkpt>
      <trkpt lat="47.47674" lon="6.82097">
        <ele>378</ele>
        <time>2015-03-01T10:35:03.000Z</time>
      </trkpt>
      <trkpt lat="47.47677" lon="6.82098">
        <ele>378</ele>
        <time>2015-03-01T10:35:04.000Z</time>
      </trkpt>
      <trkpt lat="47.47681" lon="6.821">
        <ele>378</ele>
        <time>2015-03-01T10:35:05.000Z</time>
      </trkpt>
      <trkpt lat="47.47684" lon="6.82101">
        <ele>378</ele>
        <time>2015-03-01T10:35:06.000Z</time>
      </trkpt>
      <trkpt lat="47.47688" lon="6.82103">
        <ele>378</ele>
        <time>2015-03-01T10:35:07.000Z</time>
      </trkpt>
      <trkpt lat="47.47692" lon="6.82106">
        <ele>377</ele>
        <time>2015-03-01T10:35:08.000Z</time>
      </trkpt>
      <trkpt lat="47.47696" lon="6.8211">
        <ele>377</ele>
        <time>2015-03-01T10:35:09.000Z</time>
      </trkpt>
      <trkpt lat="47.477" lon="6.82113">
        <ele>377</ele>
        <time>2015-03-01T10:35:10.000Z</time>
      </trkpt>
      <trkpt lat="47.47704" lon="6.82115">
        <ele>377</ele>
        <time>2015-03-01T10:35:11.000Z</time>
      </trkpt>
      <trkpt lat="47.47708" lon="6.82118">
        <ele>377</ele>
        <time>2015-03-01T10:35:12.000Z</time>
      </trkpt>
      <trkpt lat="47.47714" lon="6.82116">
        <ele>376</ele>
        <time>2015-03-01T10:35:13.001Z</time>
      </trkpt>
      <trkpt lat="47.47726" lon="6.82112">
        <ele>376</ele>
        <time>2015-03-01T10:35:14.000Z</time>
      </trkpt>
      <trkpt lat="47.47729" lon="6.82117">
        <ele>376</ele>
        <time>2015-03-01T10:35:15.000Z</time>
      </trkpt>
      <trkpt lat="47.47736" lon="6.82119">
        <ele>376</ele>
        <time>2015-03-01T10:35:16.000Z</time>
      </trkpt>
      <trkpt lat="47.47741" lon="6.82116">
        <ele>376</ele>
        <time>2015-03-01T10:35:17.000Z</time>
      </trkpt>
      <trkpt lat="47.4775" lon="6.82119">
        <ele>371</ele>
        <time>2015-03-01T10:35:18.000Z</time>
      </trkpt>
      <trkpt lat="47.47755" lon="6.8212">
        <ele>371</ele>
        <time>2015-03-01T10:35:19.000Z</time>
      </trkpt>
      <trkpt lat="47.47763" lon="6.8212">
        <ele>371</ele>
        <time>2015-03-01T10:35:20.000Z</time>
      </trkpt>
      <trkpt lat="47.47771" lon="6.82117">
        <ele>371</ele>
        <time>2015-03-01T10:35:21.000Z</time>
      </trkpt>
      <trkpt lat="47.47775" lon="6.8212">
        <ele>370</ele>
        <time>2015-03-01T10:35:22.000Z</time>
      </trkpt>
      <trkpt lat="47.47781" lon="6.82121">
        <ele>370</ele>
        <time>2015-03-01T10:35:23.000Z</time>
      </trkpt>
      <trkpt lat="47.47787" lon="6.82126">
        <ele>370</ele>
        <time>2015-03-01T10:35:24.000Z</time>
      </trkpt>
      <trkpt lat="47.47793" lon="6.8213">
        <ele>369</ele>
        <time>2015-03-01T10:35:25.000Z</time>
      </trkpt>
      <trkpt lat="47.47796" lon="6.82133">
        <ele>369</ele>
        <time>2015-03-01T10:35:26.000Z</time>
      </trkpt>
      <trkpt lat="47.47803" lon="6.82136">
        <ele>368</ele>
        <time>2015-03-01T10:35:27.000Z</time>
      </trkpt>
      <trkpt lat="47.47811" lon="6.82137">
        <ele>368</ele>
        <time>2015-03-01T10:35:28.000Z</time>
      </trkpt>
      <trkpt lat="47.47819" lon="6.82137">
        <ele>367</ele>
        <time>2015-03-01T10:35:29.000Z</time>
      </trkpt>
      <trkpt lat="47.47827" lon="6.82142">
        <ele>366</ele>
        <time>2015-03-01T10:35:30.000Z</time>
      </trkpt>
      <trkpt lat="47.47833" lon="6.82146">
        <ele>366</ele>
        <time>2015-03-01T10:35:31.000Z</time>
      </trkpt>
      <trkpt lat="47.47838" lon="6.82145">
        <ele>362</ele>
        <time>2015-03-01T10:35:32.000Z</time>
      </trkpt>
      <trkpt lat="47.47842" lon="6.82144">
        <ele>362</ele>
        <time>2015-03-01T10:35:33.000Z</time>
      </trkpt>
      <trkpt lat="47.47845" lon="6.82143">
        <ele>363</ele>
        <time>2015-03-01T10:35:34.000Z</time>
      </trkpt>
      <trkpt lat="47.47849" lon="6.82142">
        <ele>363</ele>
        <time>2015-03-01T10:35:35.000Z</time>
      </trkpt>
      <trkpt lat="47.47853" lon="6.82141">
        <ele>362</ele>
        <time>2015-03-01T10:35:36.000Z</time>
      </trkpt>
      <trkpt lat="47.47858" lon="6.82142">
        <ele>362</ele>
        <time>2015-03-01T10:35:37.000Z</time>
      </trkpt>
      <trkpt lat="47.47864" lon="6.82142">
        <ele>362</ele>
        <time>2015-03-01T10:35:38.000Z</time>
      </trkpt>
      <trkpt lat="47.47869" lon="6.82142">
        <ele>362</ele>
        <time>2015-03-01T10:35:39.000Z</time>
      </trkpt>
      <trkpt lat="47.47875" lon="6.82143">
        <ele>362</ele>
        <time>2015-03-01T10:35:40.000Z</time>
      </trkpt>
      <trkpt lat="47.4788" lon="6.82139">
        <ele>362</ele>
        <time>2015-03-01T10:35:41.000Z</time>
      </trkpt>
      <trkpt lat="47.47885" lon="6.82135">
        <ele>362</ele>
        <time>2015-03-01T10:35:42.000Z</time>
      </trkpt>
      <trkpt lat="47.47888" lon="6.82135">
        <ele>362</ele>
        <time>2015-03-01T10:35:43.000Z</time>
      </trkpt>
      <trkpt lat="47.47892" lon="6.82132">
        <ele>362</ele>
        <time>2015-03-01T10:35:44.000Z</time>
      </trkpt>
      <trkpt lat="47.47895" lon="6.8213">
        <ele>362</ele>
        <time>2015-03-01T10:35:45.000Z</time>
      </trkpt>
      <trkpt lat="47.47899" lon="6.82128">
        <ele>362</ele>
        <time>2015-03-01T10:35:46.000Z</time>
      </trkpt>
      <trkpt lat="47.47904" lon="6.82128">
        <ele>362</ele>
        <time>2015-03-01T10:35:50.000Z</time>
      </trkpt>
      <trkpt lat="47.47905" lon="6.82127">
        <ele>362</ele>
        <time>2015-03-01T10:35:51.000Z</time>
      </trkpt>
      <trkpt lat="47.47908" lon="6.82125">
        <ele>362</ele>
        <time>2015-03-01T10:35:53.000Z</time>
      </trkpt>
      <trkpt lat="47.47909" lon="6.82124">
        <ele>362</ele>
        <time>2015-03-01T10:35:54.000Z</time>
      </trkpt>
      <trkpt lat="47.47912" lon="6.82121">
        <ele>362</ele>
        <time>2015-03-01T10:35:59.000Z</time>
      </trkpt>
      <trkpt lat="47.47913" lon="6.82119">
        <ele>362</ele>
        <time>2015-03-01T10:36:00.000Z</time>
      </trkpt>
      <trkpt lat="47.47917" lon="6.82116">
        <ele>361</ele>
        <time>2015-03-01T10:36:02.000Z</time>
      </trkpt>
      <trkpt lat="47.47918" lon="6.82115">
        <ele>361</ele>
        <time>2015-03-01T10:36:03.000Z</time>
      </trkpt>
      <trkpt lat="47.47921" lon="6.82113">
        <ele>361</ele>
        <time>2015-03-01T10:36:05.000Z</time>
      </trkpt>
      <trkpt lat="47.47923" lon="6.8211">
        <ele>361</ele>
        <time>2015-03-01T10:36:06.000Z</time>
      </trkpt>
      <trkpt lat="47.47925" lon="6.82105">
        <ele>361</ele>
        <time>2015-03-01T10:36:08.000Z</time>
      </trkpt>
      <trkpt lat="47.47925" lon="6.821">
        <ele>361</ele>
        <time>2015-03-01T10:36:09.000Z</time>
      </trkpt>
      <trkpt lat="47.47925" lon="6.82096">
        <ele>361</ele>
        <time>2015-03-01T10:36:10.000Z</time>
      </trkpt>
      <trkpt lat="47.47925" lon="6.82093">
        <ele>361</ele>
        <time>2015-03-01T10:36:11.000Z</time>
      </trkpt>
      <trkpt lat="47.47924" lon="6.82089">
        <ele>361</ele>
        <time>2015-03-01T10:36:12.000Z</time>
      </trkpt>
      <trkpt lat="47.47923" lon="6.82086">
        <ele>362</ele>
        <time>2015-03-01T10:36:13.000Z</time>
      </trkpt>
      <trkpt lat="47.47922" lon="6.82082">
        <ele>361</ele>
        <time>2015-03-01T10:36:14.000Z</time>
      </trkpt>
      <trkpt lat="47.47921" lon="6.82078">
        <ele>361</ele>
        <time>2015-03-01T10:36:15.000Z</time>
      </trkpt>
      <trkpt lat="47.47921" lon="6.82074">
        <ele>361</ele>
        <time>2015-03-01T10:36:16.000Z</time>
      </trkpt>
      <trkpt lat="47.47921" lon="6.8207">
        <ele>360</ele>
        <time>2015-03-01T10:36:17.000Z</time>
      </trkpt>
      <trkpt lat="47.4792" lon="6.82065">
        <ele>360</ele>
        <time>2015-03-01T10:36:18.000Z</time>
      </trkpt>
      <trkpt lat="47.4792" lon="6.8206">
        <ele>360</ele>
        <time>2015-03-01T10:36:19.000Z</time>
      </trkpt>
      <trkpt lat="47.4792" lon="6.82056">
        <ele>360</ele>
        <time>2015-03-01T10:36:20.000Z</time>
      </trkpt>
      <trkpt lat="47.47919" lon="6.82051">
        <ele>359</ele>
        <time>2015-03-01T10:36:21.000Z</time>
      </trkpt>
      <trkpt lat="47.47919" lon="6.82046">
        <ele>359</ele>
        <time>2015-03-01T10:36:22.000Z</time>
      </trkpt>
      <trkpt lat="47.47918" lon="6.82041">
        <ele>359</ele>
        <time>2015-03-01T10:36:23.000Z</time>
      </trkpt>
      <trkpt lat="47.47917" lon="6.82035">
        <ele>359</ele>
        <time>2015-03-01T10:36:24.000Z</time>
      </trkpt>
      <trkpt lat="47.47918" lon="6.82026">
        <ele>359</ele>
        <time>2015-03-01T10:36:25.000Z</time>
      </trkpt>
      <trkpt lat="47.47916" lon="6.82019">
        <ele>361</ele>
        <time>2015-03-01T10:36:26.000Z</time>
      </trkpt>
      <trkpt lat="47.47915" lon="6.82013">
        <ele>360</ele>
        <time>2015-03-01T10:36:27.001Z</time>
      </trkpt>
      <trkpt lat="47.47912" lon="6.82008">
        <ele>360</ele>
        <time>2015-03-01T10:36:27.999Z</time>
      </trkpt>
      <trkpt lat="47.47912" lon="6.82">
        <ele>359</ele>
        <time>2015-03-01T10:36:29.000Z</time>
      </trkpt>
      <trkpt lat="47.47911" lon="6.81994">
        <ele>359</ele>
        <time>2015-03-01T10:36:30.000Z</time>
      </trkpt>
      <trkpt lat="47.47912" lon="6.81988">
        <ele>359</ele>
        <time>2015-03-01T10:36:31.000Z</time>
      </trkpt>
      <trkpt lat="47.47909" lon="6.81983">
        <ele>360</ele>
        <time>2015-03-01T10:36:33.000Z</time>
      </trkpt>
      <trkpt lat="47.47908" lon="6.81977">
        <ele>360</ele>
        <time>2015-03-01T10:36:34.000Z</time>
      </trkpt>
      <trkpt lat="47.47908" lon="6.81973">
        <ele>360</ele>
        <time>2015-03-01T10:36:35.000Z</time>
      </trkpt>
      <trkpt lat="47.47908" lon="6.81968">
        <ele>360</ele>
        <time>2015-03-01T10:36:36.000Z</time>
      </trkpt>
      <trkpt lat="47.4791" lon="6.81961">
        <ele>360</ele>
        <time>2015-03-01T10:36:37.000Z</time>
      </trkpt>
      <trkpt lat="47.4791" lon="6.81955">
        <ele>360</ele>
        <time>2015-03-01T10:36:38.000Z</time>
      </trkpt>
      <trkpt lat="47.4791" lon="6.81951">
        <ele>360</ele>
        <time>2015-03-01T10:36:39.000Z</time>
      </trkpt>
      <trkpt lat="47.4791" lon="6.81946">
        <ele>360</ele>
        <time>2015-03-01T10:36:40.000Z</time>
      </trkpt>
      <trkpt lat="47.47913" lon="6.81936">
        <ele>360</ele>
        <time>2015-03-01T10:36:41.000Z</time>
      </trkpt>
      <trkpt lat="47.47914" lon="6.8193">
        <ele>359</ele>
        <time>2015-03-01T10:36:42.000Z</time>
      </trkpt>
      <trkpt lat="47.47917" lon="6.81924">
        <ele>358</ele>
        <time>2015-03-01T10:36:43.000Z</time>
      </trkpt>
      <trkpt lat="47.4792" lon="6.81918">
        <ele>358</ele>
        <time>2015-03-01T10:36:44.000Z</time>
      </trkpt>
      <trkpt lat="47.47921" lon="6.81913">
        <ele>357</ele>
        <time>2015-03-01T10:36:45.000Z</time>
      </trkpt>
      <trkpt lat="47.47922" lon="6.8191">
        <ele>357</ele>
        <time>2015-03-01T10:36:47.000Z</time>
      </trkpt>
      <trkpt lat="47.47924" lon="6.81906">
        <ele>357</ele>
        <time>2015-03-01T10:36:48.000Z</time>
      </trkpt>
      <trkpt lat="47.47925" lon="6.81902">
        <ele>356</ele>
        <time>2015-03-01T10:36:49.000Z</time>
      </trkpt>
      <trkpt lat="47.47925" lon="6.81898">
        <ele>356</ele>
        <time>2015-03-01T10:36:50.000Z</time>
      </trkpt>
      <trkpt lat="47.47926" lon="6.81894">
        <ele>356</ele>
        <time>2015-03-01T10:36:51.000Z</time>
      </trkpt>
      <trkpt lat="47.47927" lon="6.8189">
        <ele>356</ele>
        <time>2015-03-01T10:36:52.000Z</time>
      </trkpt>
      <trkpt lat="47.47928" lon="6.81887">
        <ele>356</ele>
        <time>2015-03-01T10:36:53.000Z</time>
      </trkpt>
      <trkpt lat="47.47928" lon="6.81883">
        <ele>355</ele>
        <time>2015-03-01T10:36:54.000Z</time>
      </trkpt>
      <trkpt lat="47.47928" lon="6.81879">
        <ele>355</ele>
        <time>2015-03-01T10:36:55.000Z</time>
      </trkpt>
      <trkpt lat="47.47928" lon="6.81875">
        <ele>355</ele>
        <time>2015-03-01T10:36:56.000Z</time>
      </trkpt>
      <trkpt lat="47.47927" lon="6.81871">
        <ele>355</ele>
        <time>2015-03-01T10:36:57.000Z</time>
      </trkpt>
      <trkpt lat="47.47925" lon="6.81867">
        <ele>355</ele>
        <time>2015-03-01T10:36:58.000Z</time>
      </trkpt>
      <trkpt lat="47.47923" lon="6.81863">
        <ele>355</ele>
        <time>2015-03-01T10:36:59.000Z</time>
      </trkpt>
      <trkpt lat="47.47922" lon="6.81858">
        <ele>355</ele>
        <time>2015-03-01T10:37:00.000Z</time>
      </trkpt>
      <trkpt lat="47.4792" lon="6.81852">
        <ele>355</ele>
        <time>2015-03-01T10:37:01.000Z</time>
      </trkpt>
      <trkpt lat="47.4792" lon="6.81847">
        <ele>355</ele>
        <time>2015-03-01T10:37:02.000Z</time>
      </trkpt>
      <trkpt lat="47.47919" lon="6.81842">
        <ele>356</ele>
        <time>2015-03-01T10:37:02.999Z</time>
      </trkpt>
      <trkpt lat="47.4792" lon="6.81839">
        <ele>356</ele>
        <time>2015-03-01T10:37:04.000Z</time>
      </trkpt>
      <trkpt lat="47.47917" lon="6.81834">
        <ele>356</ele>
        <time>2015-03-01T10:37:15.000Z</time>
      </trkpt>
      <trkpt lat="47.47917" lon="6.81831">
        <ele>356</ele>
        <time>2015-03-01T10:37:16.000Z</time>
      </trkpt>
      <trkpt lat="47.47915" lon="6.81826">
        <ele>356</ele>
        <time>2015-03-01T10:37:17.998Z</time>
      </trkpt>
      <trkpt lat="47.47914" lon="6.81821">
        <ele>355</ele>
        <time>2015-03-01T10:37:19.000Z</time>
      </trkpt>
      <trkpt lat="47.47914" lon="6.81817">
        <ele>355</ele>
        <time>2015-03-01T10:37:20.001Z</time>
      </trkpt>
      <trkpt lat="47.47913" lon="6.81813">
        <ele>355</ele>
        <time>2015-03-01T10:37:21.000Z</time>
      </trkpt>
      <trkpt lat="47.47912" lon="6.81809">
        <ele>355</ele>
        <time>2015-03-01T10:37:22.000Z</time>
      </trkpt>
      <trkpt lat="47.47911" lon="6.81806">
        <ele>355</ele>
        <time>2015-03-01T10:37:23.000Z</time>
      </trkpt>
      <trkpt lat="47.47909" lon="6.81803">
        <ele>355</ele>
        <time>2015-03-01T10:37:24.000Z</time>
      </trkpt>
      <trkpt lat="47.47908" lon="6.81801">
        <ele>355</ele>
        <time>2015-03-01T10:37:25.000Z</time>
      </trkpt>
      <trkpt lat="47.47904" lon="6.81798">
        <ele>355</ele>
        <time>2015-03-01T10:37:29.000Z</time>
      </trkpt>
      <trkpt lat="47.47903" lon="6.81798">
        <ele>355</ele>
        <time>2015-03-01T10:37:30.000Z</time>
      </trkpt>
      <trkpt lat="47.47905" lon="6.81793">
        <ele>355</ele>
        <time>2015-03-01T10:37:45.000Z</time>
      </trkpt>
      <trkpt lat="47.47905" lon="6.81791">
        <ele>355</ele>
        <time>2015-03-01T10:37:46.000Z</time>
      </trkpt>
      <trkpt lat="47.47904" lon="6.81785">
        <ele>355</ele>
        <time>2015-03-01T10:38:01.000Z</time>
      </trkpt>
      <trkpt lat="47.47904" lon="6.81784">
        <ele>355</ele>
        <time>2015-03-01T10:38:02.000Z</time>
      </trkpt>
      <trkpt lat="47.47908" lon="6.81781">
        <ele>355</ele>
        <time>2015-03-01T10:38:05.000Z</time>
      </trkpt>
      <trkpt lat="47.47909" lon="6.81779">
        <ele>355</ele>
        <time>2015-03-01T10:38:06.000Z</time>
      </trkpt>
      <trkpt lat="47.47906" lon="6.81774">
        <ele>355</ele>
        <time>2015-03-01T10:38:31.000Z</time>
      </trkpt>
      <trkpt lat="47.47906" lon="6.81774">
        <ele>355</ele>
        <time>2015-03-01T10:38:32.000Z</time>
      </trkpt>
      <trkpt lat="47.47902" lon="6.81771">
        <ele>355</ele>
        <time>2015-03-01T10:39:04.000Z</time>
      </trkpt>
      <trkpt lat="47.47902" lon="6.81771">
        <ele>355</ele>
        <time>2015-03-01T10:39:05.000Z</time>
      </trkpt>
      <trkpt lat="47.47898" lon="6.81772">
        <ele>355</ele>
        <time>2015-03-01T10:39:15.000Z</time>
      </trkpt>
      <trkpt lat="47.47897" lon="6.8177">
        <ele>355</ele>
        <time>2015-03-01T10:39:16.000Z</time>
      </trkpt>
      <trkpt lat="47.47894" lon="6.81767">
        <ele>354</ele>
        <time>2015-03-01T10:39:18.000Z</time>
      </trkpt>
      <trkpt lat="47.47893" lon="6.81765">
        <ele>354</ele>
        <time>2015-03-01T10:39:19.000Z</time>
      </trkpt>
      <trkpt lat="47.47891" lon="6.81762">
        <ele>354</ele>
        <time>2015-03-01T10:39:21.000Z</time>
      </trkpt>
      <trkpt lat="47.47893" lon="6.81756">
        <ele>354</ele>
        <time>2015-03-01T10:39:22.000Z</time>
      </trkpt>
      <trkpt lat="47.47893" lon="6.81752">
        <ele>354</ele>
        <time>2015-03-01T10:39:23.000Z</time>
      </trkpt>
      <trkpt lat="47.47894" lon="6.81748">
        <ele>356</ele>
        <time>2015-03-01T10:39:24.000Z</time>
      </trkpt>
      <trkpt lat="47.47894" lon="6.81744">
        <ele>356</ele>
        <time>2015-03-01T10:39:25.000Z</time>
      </trkpt>
      <trkpt lat="47.47895" lon="6.8174">
        <ele>356</ele>
        <time>2015-03-01T10:39:26.000Z</time>
      </trkpt>
      <trkpt lat="47.47895" lon="6.81736">
        <ele>356</ele>
        <time>2015-03-01T10:39:27.000Z</time>
      </trkpt>
      <trkpt lat="47.47895" lon="6.81732">
        <ele>356</ele>
        <time>2015-03-01T10:39:28.000Z</time>
      </trkpt>
      <trkpt lat="47.47893" lon="6.81727">
        <ele>356</ele>
        <time>2015-03-01T10:39:30.000Z</time>
      </trkpt>
      <trkpt lat="47.47892" lon="6.81726">
        <ele>356</ele>
        <time>2015-03-01T10:39:31.000Z</time>
      </trkpt>
      <trkpt lat="47.4789" lon="6.81722">
        <ele>357</ele>
        <time>2015-03-01T10:39:33.000Z</time>
      </trkpt>
      <trkpt lat="47.47889" lon="6.8172">
        <ele>357</ele>
        <time>2015-03-01T10:39:34.000Z</time>
      </trkpt>
      <trkpt lat="47.47888" lon="6.81717">
        <ele>357</ele>
        <time>2015-03-01T10:39:35.000Z</time>
      </trkpt>
      <trkpt lat="47.47887" lon="6.81713">
        <ele>357</ele>
        <time>2015-03-01T10:39:36.000Z</time>
      </trkpt>
      <trkpt lat="47.47887" lon="6.81709">
        <ele>357</ele>
        <time>2015-03-01T10:39:37.000Z</time>
      </trkpt>
      <trkpt lat="47.47887" lon="6.81704">
        <ele>357</ele>
        <time>2015-03-01T10:39:38.000Z</time>
      </trkpt>
      <trkpt lat="47.47887" lon="6.817">
        <ele>357</ele>
        <time>2015-03-01T10:39:39.000Z</time>
      </trkpt>
      <trkpt lat="47.47887" lon="6.81696">
        <ele>357</ele>
        <time>2015-03-01T10:39:40.000Z</time>
      </trkpt>
      <trkpt lat="47.47887" lon="6.81692">
        <ele>358</ele>
        <time>2015-03-01T10:39:41.000Z</time>
      </trkpt>
      <trkpt lat="47.47888" lon="6.81688">
        <ele>358</ele>
        <time>2015-03-01T10:39:42.000Z</time>
      </trkpt>
      <trkpt lat="47.47888" lon="6.81684">
        <ele>358</ele>
        <time>2015-03-01T10:39:43.000Z</time>
      </trkpt>
      <trkpt lat="47.47889" lon="6.8168">
        <ele>358</ele>
        <time>2015-03-01T10:39:44.000Z</time>
      </trkpt>
      <trkpt lat="47.4789" lon="6.81674">
        <ele>358</ele>
        <time>2015-03-01T10:39:46.000Z</time>
      </trkpt>
      <trkpt lat="47.47891" lon="6.81672">
        <ele>358</ele>
        <time>2015-03-01T10:39:47.000Z</time>
      </trkpt>
      <trkpt lat="47.47892" lon="6.81667">
        <ele>358</ele>
        <time>2015-03-01T10:39:49.000Z</time>
      </trkpt>
      <trkpt lat="47.47893" lon="6.81664">
        <ele>361</ele>
        <time>2015-03-01T10:39:50.000Z</time>
      </trkpt>
      <trkpt lat="47.47894" lon="6.81661">
        <ele>361</ele>
        <time>2015-03-01T10:39:51.000Z</time>
      </trkpt>
      <trkpt lat="47.47896" lon="6.81657">
        <ele>361</ele>
        <time>2015-03-01T10:39:52.000Z</time>
      </trkpt>
      <trkpt lat="47.47898" lon="6.81652">
        <ele>361</ele>
        <time>2015-03-01T10:39:53.000Z</time>
      </trkpt>
      <trkpt lat="47.47901" lon="6.81646">
        <ele>361</ele>
        <time>2015-03-01T10:39:54.000Z</time>
      </trkpt>
      <trkpt lat="47.47903" lon="6.8164">
        <ele>361</ele>
        <time>2015-03-01T10:39:55.000Z</time>
      </trkpt>
      <trkpt lat="47.47905" lon="6.81636">
        <ele>362</ele>
        <time>2015-03-01T10:39:56.000Z</time>
      </trkpt>
      <trkpt lat="47.47907" lon="6.81631">
        <ele>362</ele>
        <time>2015-03-01T10:39:57.000Z</time>
      </trkpt>
      <trkpt lat="47.47909" lon="6.81627">
        <ele>362</ele>
        <time>2015-03-01T10:39:58.000Z</time>
      </trkpt>
      <trkpt lat="47.47911" lon="6.81623">
        <ele>362</ele>
        <time>2015-03-01T10:39:59.000Z</time>
      </trkpt>
      <trkpt lat="47.47912" lon="6.81618">
        <ele>362</ele>
        <time>2015-03-01T10:40:00.000Z</time>
      </trkpt>
      <trkpt lat="47.47913" lon="6.81613">
        <ele>363</ele>
        <time>2015-03-01T10:40:01.000Z</time>
      </trkpt>
      <trkpt lat="47.47914" lon="6.81609">
        <ele>363</ele>
        <time>2015-03-01T10:40:02.000Z</time>
      </trkpt>
      <trkpt lat="47.47915" lon="6.81605">
        <ele>363</ele>
        <time>2015-03-01T10:40:03.000Z</time>
      </trkpt>
      <trkpt lat="47.47915" lon="6.81601">
        <ele>363</ele>
        <time>2015-03-01T10:40:04.000Z</time>
      </trkpt>
      <trkpt lat="47.47915" lon="6.81595">
        <ele>363</ele>
        <time>2015-03-01T10:40:06.000Z</time>
      </trkpt>
      <trkpt lat="47.47915" lon="6.81591">
        <ele>363</ele>
        <time>2015-03-01T10:40:07.000Z</time>
      </trkpt>
      <trkpt lat="47.47916" lon="6.81587">
        <ele>363</ele>
        <time>2015-03-01T10:40:08.000Z</time>
      </trkpt>
      <trkpt lat="47.47917" lon="6.81584">
        <ele>363</ele>
        <time>2015-03-01T10:40:09.000Z</time>
      </trkpt>
      <trkpt lat="47.47917" lon="6.8158">
        <ele>363</ele>
        <time>2015-03-01T10:40:10.000Z</time>
      </trkpt>
      <trkpt lat="47.47918" lon="6.81576">
        <ele>362</ele>
        <time>2015-03-01T10:40:11.000Z</time>
      </trkpt>
      <trkpt lat="47.47919" lon="6.81573">
        <ele>362</ele>
        <time>2015-03-01T10:40:12.000Z</time>
      </trkpt>
      <trkpt lat="47.4792" lon="6.8157">
        <ele>362</ele>
        <time>2015-03-01T10:40:13.000Z</time>
      </trkpt>
      <trkpt lat="47.47922" lon="6.81565">
        <ele>362</ele>
        <time>2015-03-01T10:40:15.000Z</time>
      </trkpt>
      <trkpt lat="47.47922" lon="6.81563">
        <ele>362</ele>
        <time>2015-03-01T10:40:16.000Z</time>
      </trkpt>
      <trkpt lat="47.47923" lon="6.81558">
        <ele>362</ele>
        <time>2015-03-01T10:40:18.000Z</time>
      </trkpt>
      <trkpt lat="47.47924" lon="6.81556">
        <ele>362</ele>
        <time>2015-03-01T10:40:19.000Z</time>
      </trkpt>
      <trkpt lat="47.47926" lon="6.8155">
        <ele>361</ele>
        <time>2015-03-01T10:40:21.000Z</time>
      </trkpt>
      <trkpt lat="47.47927" lon="6.81547">
        <ele>361</ele>
        <time>2015-03-01T10:40:22.000Z</time>
      </trkpt>
      <trkpt lat="47.47928" lon="6.81541">
        <ele>361</ele>
        <time>2015-03-01T10:40:25.000Z</time>
      </trkpt>
      <trkpt lat="47.47928" lon="6.81539">
        <ele>361</ele>
        <time>2015-03-01T10:40:26.000Z</time>
      </trkpt>
      <trkpt lat="47.47929" lon="6.81533">
        <ele>361</ele>
        <time>2015-03-01T10:40:28.000Z</time>
      </trkpt>
      <trkpt lat="47.4793" lon="6.8153">
        <ele>361</ele>
        <time>2015-03-01T10:40:29.000Z</time>
      </trkpt>
      <trkpt lat="47.47933" lon="6.81526">
        <ele>361</ele>
        <time>2015-03-01T10:40:31.000Z</time>
      </trkpt>
      <trkpt lat="47.47934" lon="6.81525">
        <ele>361</ele>
        <time>2015-03-01T10:40:32.000Z</time>
      </trkpt>
      <trkpt lat="47.47936" lon="6.81519">
        <ele>361</ele>
        <time>2015-03-01T10:40:37.000Z</time>
      </trkpt>
      <trkpt lat="47.47937" lon="6.81517">
        <ele>361</ele>
        <time>2015-03-01T10:40:38.000Z</time>
      </trkpt>
      <trkpt lat="47.47938" lon="6.81513">
        <ele>361</ele>
        <time>2015-03-01T10:40:40.000Z</time>
      </trkpt>
      <trkpt lat="47.47939" lon="6.8151">
        <ele>361</ele>
        <time>2015-03-01T10:40:41.000Z</time>
      </trkpt>
      <trkpt lat="47.4794" lon="6.81505">
        <ele>361</ele>
        <time>2015-03-01T10:40:43.000Z</time>
      </trkpt>
      <trkpt lat="47.47941" lon="6.81502">
        <ele>361</ele>
        <time>2015-03-01T10:40:43.999Z</time>
      </trkpt>
      <trkpt lat="47.47942" lon="6.81497">
        <ele>360</ele>
        <time>2015-03-01T10:40:46.000Z</time>
      </trkpt>
      <trkpt lat="47.47943" lon="6.81494">
        <ele>360</ele>
        <time>2015-03-01T10:40:47.000Z</time>
      </trkpt>
      <trkpt lat="47.47946" lon="6.8149">
        <ele>360</ele>
        <time>2015-03-01T10:40:49.000Z</time>
      </trkpt>
      <trkpt lat="47.47948" lon="6.81489">
        <ele>360</ele>
        <time>2015-03-01T10:40:50.000Z</time>
      </trkpt>
      <trkpt lat="47.4795" lon="6.81487">
        <ele>360</ele>
        <time>2015-03-01T10:40:51.000Z</time>
      </trkpt>
      <trkpt lat="47.47953" lon="6.81485">
        <ele>359</ele>
        <time>2015-03-01T10:40:52.000Z</time>
      </trkpt>
      <trkpt lat="47.47955" lon="6.81484">
        <ele>359</ele>
        <time>2015-03-01T10:40:53.000Z</time>
      </trkpt>
      <trkpt lat="47.47958" lon="6.81482">
        <ele>359</ele>
        <time>2015-03-01T10:40:54.000Z</time>
      </trkpt>
      <trkpt lat="47.47962" lon="6.81481">
        <ele>359</ele>
        <time>2015-03-01T10:40:56.000Z</time>
      </trkpt>
      <trkpt lat="47.47964" lon="6.8148">
        <ele>359</ele>
        <time>2015-03-01T10:40:57.000Z</time>
      </trkpt>
      <trkpt lat="47.47967" lon="6.8148">
        <ele>359</ele>
        <time>2015-03-01T10:40:58.000Z</time>
      </trkpt>
      <trkpt lat="47.4797" lon="6.81479">
        <ele>359</ele>
        <time>2015-03-01T10:40:59.000Z</time>
      </trkpt>
      <trkpt lat="47.47973" lon="6.81478">
        <ele>358</ele>
        <time>2015-03-01T10:41:00.000Z</time>
      </trkpt>
      <trkpt lat="47.47976" lon="6.81477">
        <ele>358</ele>
        <time>2015-03-01T10:41:01.000Z</time>
      </trkpt>
      <trkpt lat="47.47978" lon="6.81475">
        <ele>358</ele>
        <time>2015-03-01T10:41:02.000Z</time>
      </trkpt>
      <trkpt lat="47.47981" lon="6.81473">
        <ele>358</ele>
        <time>2015-03-01T10:41:03.000Z</time>
      </trkpt>
      <trkpt lat="47.47984" lon="6.81472">
        <ele>358</ele>
        <time>2015-03-01T10:41:04.000Z</time>
      </trkpt>
      <trkpt lat="47.47988" lon="6.8147">
        <ele>358</ele>
        <time>2015-03-01T10:41:05.000Z</time>
      </trkpt>
      <trkpt lat="47.47992" lon="6.81469">
        <ele>358</ele>
        <time>2015-03-01T10:41:06.000Z</time>
      </trkpt>
      <trkpt lat="47.47996" lon="6.81468">
        <ele>358</ele>
        <time>2015-03-01T10:41:07.000Z</time>
      </trkpt>
      <trkpt lat="47.48" lon="6.81468">
        <ele>353</ele>
        <time>2015-03-01T10:41:08.000Z</time>
      </trkpt>
      <trkpt lat="47.48004" lon="6.81467">
        <ele>352</ele>
        <time>2015-03-01T10:41:09.000Z</time>
      </trkpt>
      <trkpt lat="47.48008" lon="6.81466">
        <ele>352</ele>
        <time>2015-03-01T10:41:10.000Z</time>
      </trkpt>
      <trkpt lat="47.48012" lon="6.81465">
        <ele>352</ele>
        <time>2015-03-01T10:41:11.000Z</time>
      </trkpt>
      <trkpt lat="47.48015" lon="6.81464">
        <ele>352</ele>
        <time>2015-03-01T10:41:12.000Z</time>
      </trkpt>
      <trkpt lat="47.48019" lon="6.81465">
        <ele>352</ele>
        <time>2015-03-01T10:41:13.000Z</time>
      </trkpt>
      <trkpt lat="47.48023" lon="6.81466">
        <ele>352</ele>
        <time>2015-03-01T10:41:14.000Z</time>
      </trkpt>
      <trkpt lat="47.48026" lon="6.81466">
        <ele>351</ele>
        <time>2015-03-01T10:41:15.000Z</time>
      </trkpt>
      <trkpt lat="47.48029" lon="6.81467">
        <ele>351</ele>
        <time>2015-03-01T10:41:16.000Z</time>
      </trkpt>
      <trkpt lat="47.48032" lon="6.81468">
        <ele>351</ele>
        <time>2015-03-01T10:41:17.000Z</time>
      </trkpt>
      <trkpt lat="47.48035" lon="6.81467">
        <ele>351</ele>
        <time>2015-03-01T10:41:18.000Z</time>
      </trkpt>
      <trkpt lat="47.48037" lon="6.81467">
        <ele>351</ele>
        <time>2015-03-01T10:41:19.000Z</time>
      </trkpt>
      <trkpt lat="47.48039" lon="6.81465">
        <ele>351</ele>
        <time>2015-03-01T10:41:20.000Z</time>
      </trkpt>
      <trkpt lat="47.48041" lon="6.81462">
        <ele>351</ele>
        <time>2015-03-01T10:41:21.000Z</time>
      </trkpt>
      <trkpt lat="47.48042" lon="6.81458">
        <ele>350</ele>
        <time>2015-03-01T10:41:22.000Z</time>
      </trkpt>
      <trkpt lat="47.48043" lon="6.81453">
        <ele>350</ele>
        <time>2015-03-01T10:41:23.000Z</time>
      </trkpt>
      <trkpt lat="47.48043" lon="6.81449">
        <ele>350</ele>
        <time>2015-03-01T10:41:24.000Z</time>
      </trkpt>
      <trkpt lat="47.48047" lon="6.81435">
        <ele>350</ele>
        <time>2015-03-01T10:41:25.000Z</time>
      </trkpt>
      <trkpt lat="47.48052" lon="6.81427">
        <ele>349</ele>
        <time>2015-03-01T10:41:26.000Z</time>
      </trkpt>
      <trkpt lat="47.48056" lon="6.81424">
        <ele>349</ele>
        <time>2015-03-01T10:41:27.000Z</time>
      </trkpt>
      <trkpt lat="47.4806" lon="6.81422">
        <ele>349</ele>
        <time>2015-03-01T10:41:28.000Z</time>
      </trkpt>
      <trkpt lat="47.48065" lon="6.81423">
        <ele>348</ele>
        <time>2015-03-01T10:41:29.000Z</time>
      </trkpt>
      <trkpt lat="47.4807" lon="6.81425">
        <ele>348</ele>
        <time>2015-03-01T10:41:30.000Z</time>
      </trkpt>
      <trkpt lat="47.48074" lon="6.81427">
        <ele>348</ele>
        <time>2015-03-01T10:41:31.000Z</time>
      </trkpt>
      <trkpt lat="47.48078" lon="6.81427">
        <ele>348</ele>
        <time>2015-03-01T10:41:32.000Z</time>
      </trkpt>
      <trkpt lat="47.48081" lon="6.81428">
        <ele>348</ele>
        <time>2015-03-01T10:41:33.000Z</time>
      </trkpt>
      <trkpt lat="47.48084" lon="6.81428">
        <ele>345</ele>
        <time>2015-03-01T10:41:34.000Z</time>
      </trkpt>
      <trkpt lat="47.48088" lon="6.81429">
        <ele>344</ele>
        <time>2015-03-01T10:41:35.000Z</time>
      </trkpt>
      <trkpt lat="47.48092" lon="6.81431">
        <ele>344</ele>
        <time>2015-03-01T10:41:36.000Z</time>
      </trkpt>
      <trkpt lat="47.48096" lon="6.81432">
        <ele>344</ele>
        <time>2015-03-01T10:41:37.000Z</time>
      </trkpt>
      <trkpt lat="47.481" lon="6.81433">
        <ele>344</ele>
        <time>2015-03-01T10:41:38.000Z</time>
      </trkpt>
      <trkpt lat="47.48105" lon="6.81433">
        <ele>343</ele>
        <time>2015-03-01T10:41:39.000Z</time>
      </trkpt>
      <trkpt lat="47.48111" lon="6.81433">
        <ele>343</ele>
        <time>2015-03-01T10:41:40.000Z</time>
      </trkpt>
      <trkpt lat="47.48116" lon="6.81437">
        <ele>343</ele>
        <time>2015-03-01T10:41:41.000Z</time>
      </trkpt>
      <trkpt lat="47.48123" lon="6.81443">
        <ele>342</ele>
        <time>2015-03-01T10:41:42.000Z</time>
      </trkpt>
      <trkpt lat="47.48128" lon="6.81442">
        <ele>342</ele>
        <time>2015-03-01T10:41:43.000Z</time>
      </trkpt>
      <trkpt lat="47.48135" lon="6.81442">
        <ele>342</ele>
        <time>2015-03-01T10:41:44.000Z</time>
      </trkpt>
      <trkpt lat="47.4814" lon="6.8144">
        <ele>341</ele>
        <time>2015-03-01T10:41:45.000Z</time>
      </trkpt>
      <trkpt lat="47.48143" lon="6.81444">
        <ele>341</ele>
        <time>2015-03-01T10:41:46.000Z</time>
      </trkpt>
      <trkpt lat="47.48148" lon="6.81445">
        <ele>341</ele>
        <time>2015-03-01T10:41:47.000Z</time>
      </trkpt>
      <trkpt lat="47.48158" lon="6.81446">
        <ele>341</ele>
        <time>2015-03-01T10:41:48.000Z</time>
      </trkpt>
      <trkpt lat="47.48164" lon="6.81443">
        <ele>341</ele>
        <time>2015-03-01T10:41:49.000Z</time>
      </trkpt>
      <trkpt lat="47.48171" lon="6.81441">
        <ele>334</ele>
        <time>2015-03-01T10:41:50.000Z</time>
      </trkpt>
      <trkpt lat="47.48178" lon="6.81443">
        <ele>333</ele>
        <time>2015-03-01T10:41:51.000Z</time>
      </trkpt>
      <trkpt lat="47.48186" lon="6.81443">
        <ele>332</ele>
        <time>2015-03-01T10:41:52.000Z</time>
      </trkpt>
      <trkpt lat="47.48196" lon="6.81442">
        <ele>331</ele>
        <time>2015-03-01T10:41:53.000Z</time>
      </trkpt>
      <trkpt lat="47.48207" lon="6.81441">
        <ele>330</ele>
        <time>2015-03-01T10:41:54.000Z</time>
      </trkpt>
      <trkpt lat="47.48215" lon="6.81439">
        <ele>329</ele>
        <time>2015-03-01T10:41:55.000Z</time>
      </trkpt>
      <trkpt lat="47.48224" lon="6.81434">
        <ele>328</ele>
        <time>2015-03-01T10:41:56.000Z</time>
      </trkpt>
      <trkpt lat="47.48231" lon="6.81429">
        <ele>328</ele>
        <time>2015-03-01T10:41:57.000Z</time>
      </trkpt>
      <trkpt lat="47.48239" lon="6.81427">
        <ele>327</ele>
        <time>2015-03-01T10:41:58.000Z</time>
      </trkpt>
      <trkpt lat="47.48246" lon="6.81423">
        <ele>326</ele>
        <time>2015-03-01T10:41:59.000Z</time>
      </trkpt>
      <trkpt lat="47.48254" lon="6.81417">
        <ele>324</ele>
        <time>2015-03-01T10:42:00.000Z</time>
      </trkpt>
      <trkpt lat="47.48257" lon="6.81412">
        <ele>324</ele>
        <time>2015-03-01T10:42:01.000Z</time>
      </trkpt>
      <trkpt lat="47.48261" lon="6.81406">
        <ele>324</ele>
        <time>2015-03-01T10:42:02.000Z</time>
      </trkpt>
      <trkpt lat="47.48264" lon="6.81404">
        <ele>323</ele>
        <time>2015-03-01T10:42:03.000Z</time>
      </trkpt>
      <trkpt lat="47.48267" lon="6.814">
        <ele>323</ele>
        <time>2015-03-01T10:42:04.000Z</time>
      </trkpt>
      <trkpt lat="47.4827" lon="6.81395">
        <ele>323</ele>
        <time>2015-03-01T10:42:06.000Z</time>
      </trkpt>
      <trkpt lat="47.48272" lon="6.81397">
        <ele>323</ele>
        <time>2015-03-01T10:42:07.000Z</time>
      </trkpt>
      <trkpt lat="47.48273" lon="6.814">
        <ele>323</ele>
        <time>2015-03-01T10:42:08.000Z</time>
      </trkpt>
      <trkpt lat="47.48274" lon="6.81404">
        <ele>323</ele>
        <time>2015-03-01T10:42:09.000Z</time>
      </trkpt>
      <trkpt lat="47.48276" lon="6.81408">
        <ele>322</ele>
        <time>2015-03-01T10:42:10.000Z</time>
      </trkpt>
      <trkpt lat="47.48276" lon="6.81411">
        <ele>322</ele>
        <time>2015-03-01T10:42:11.000Z</time>
      </trkpt>
      <trkpt lat="47.48277" lon="6.81414">
        <ele>322</ele>
        <time>2015-03-01T10:42:12.000Z</time>
      </trkpt>
      <trkpt lat="47.48279" lon="6.81417">
        <ele>320</ele>
        <time>2015-03-01T10:42:13.000Z</time>
      </trkpt>
      <trkpt lat="47.48281" lon="6.8142">
        <ele>320</ele>
        <time>2015-03-01T10:42:14.000Z</time>
      </trkpt>
      <trkpt lat="47.48283" lon="6.81424">
        <ele>319</ele>
        <time>2015-03-01T10:42:15.000Z</time>
      </trkpt>
      <trkpt lat="47.48287" lon="6.81432">
        <ele>319</ele>
        <time>2015-03-01T10:42:16.000Z</time>
      </trkpt>
      <trkpt lat="47.4829" lon="6.81437">
        <ele>319</ele>
        <time>2015-03-01T10:42:17.000Z</time>
      </trkpt>
      <trkpt lat="47.48291" lon="6.81443">
        <ele>318</ele>
        <time>2015-03-01T10:42:18.000Z</time>
      </trkpt>
      <trkpt lat="47.48292" lon="6.81449">
        <ele>318</ele>
        <time>2015-03-01T10:42:19.000Z</time>
      </trkpt>
      <trkpt lat="47.48293" lon="6.81455">
        <ele>318</ele>
        <time>2015-03-01T10:42:20.000Z</time>
      </trkpt>
      <trkpt lat="47.48294" lon="6.81461">
        <ele>318</ele>
        <time>2015-03-01T10:42:21.000Z</time>
      </trkpt>
      <trkpt lat="47.48295" lon="6.81468">
        <ele>318</ele>
        <time>2015-03-01T10:42:22.000Z</time>
      </trkpt>
      <trkpt lat="47.48296" lon="6.81475">
        <ele>317</ele>
        <time>2015-03-01T10:42:23.000Z</time>
      </trkpt>
      <trkpt lat="47.48296" lon="6.81482">
        <ele>317</ele>
        <time>2015-03-01T10:42:24.000Z</time>
      </trkpt>
      <trkpt lat="47.48299" lon="6.81487">
        <ele>317</ele>
        <time>2015-03-01T10:42:25.000Z</time>
      </trkpt>
      <trkpt lat="47.48301" lon="6.81495">
        <ele>317</ele>
        <time>2015-03-01T10:42:26.000Z</time>
      </trkpt>
      <trkpt lat="47.48302" lon="6.81501">
        <ele>316</ele>
        <time>2015-03-01T10:42:27.000Z</time>
      </trkpt>
      <trkpt lat="47.48302" lon="6.81507">
        <ele>316</ele>
        <time>2015-03-01T10:42:28.000Z</time>
      </trkpt>
      <trkpt lat="47.48303" lon="6.81514">
        <ele>316</ele>
        <time>2015-03-01T10:42:29.000Z</time>
      </trkpt>
      <trkpt lat="47.48304" lon="6.8152">
        <ele>316</ele>
        <time>2015-03-01T10:42:30.000Z</time>
      </trkpt>
      <trkpt lat="47.48306" lon="6.81527">
        <ele>316</ele>
        <time>2015-03-01T10:42:31.000Z</time>
      </trkpt>
      <trkpt lat="47.48306" lon="6.81533">
        <ele>316</ele>
        <time>2015-03-01T10:42:32.000Z</time>
      </trkpt>
      <trkpt lat="47.48307" lon="6.81539">
        <ele>316</ele>
        <time>2015-03-01T10:42:33.000Z</time>
      </trkpt>
      <trkpt lat="47.48308" lon="6.81545">
        <ele>316</ele>
        <time>2015-03-01T10:42:34.000Z</time>
      </trkpt>
      <trkpt lat="47.48309" lon="6.81551">
        <ele>316</ele>
        <time>2015-03-01T10:42:35.000Z</time>
      </trkpt>
      <trkpt lat="47.4831" lon="6.81557">
        <ele>316</ele>
        <time>2015-03-01T10:42:36.000Z</time>
      </trkpt>
      <trkpt lat="47.48311" lon="6.81563">
        <ele>316</ele>
        <time>2015-03-01T10:42:37.000Z</time>
      </trkpt>
      <trkpt lat="47.48313" lon="6.81571">
        <ele>316</ele>
        <time>2015-03-01T10:42:38.000Z</time>
      </trkpt>
      <trkpt lat="47.48314" lon="6.81576">
        <ele>316</ele>
        <time>2015-03-01T10:42:39.000Z</time>
      </trkpt>
      <trkpt lat="47.48315" lon="6.81582">
        <ele>316</ele>
        <time>2015-03-01T10:42:40.000Z</time>
      </trkpt>
      <trkpt lat="47.48317" lon="6.81588">
        <ele>316</ele>
        <time>2015-03-01T10:42:41.000Z</time>
      </trkpt>
      <trkpt lat="47.48319" lon="6.81594">
        <ele>316</ele>
        <time>2015-03-01T10:42:42.000Z</time>
      </trkpt>
      <trkpt lat="47.48321" lon="6.81599">
        <ele>316</ele>
        <time>2015-03-01T10:42:43.000Z</time>
      </trkpt>
      <trkpt lat="47.48324" lon="6.81604">
        <ele>316</ele>
        <time>2015-03-01T10:42:44.000Z</time>
      </trkpt>
      <trkpt lat="47.48327" lon="6.81608">
        <ele>316</ele>
        <time>2015-03-01T10:42:45.000Z</time>
      </trkpt>
      <trkpt lat="47.48331" lon="6.81611">
        <ele>315</ele>
        <time>2015-03-01T10:42:46.000Z</time>
      </trkpt>
      <trkpt lat="47.48334" lon="6.81615">
        <ele>315</ele>
        <time>2015-03-01T10:42:47.000Z</time>
      </trkpt>
      <trkpt lat="47.48337" lon="6.81619">
        <ele>315</ele>
        <time>2015-03-01T10:42:48.000Z</time>
      </trkpt>
      <trkpt lat="47.48341" lon="6.81624">
        <ele>315</ele>
        <time>2015-03-01T10:42:49.000Z</time>
      </trkpt>
      <trkpt lat="47.48344" lon="6.81627">
        <ele>315</ele>
        <time>2015-03-01T10:42:50.000Z</time>
      </trkpt>
      <trkpt lat="47.48348" lon="6.81629">
        <ele>315</ele>
        <time>2015-03-01T10:42:51.000Z</time>
      </trkpt>
      <trkpt lat="47.48352" lon="6.81631">
        <ele>315</ele>
        <time>2015-03-01T10:42:52.000Z</time>
      </trkpt>
      <trkpt lat="47.48356" lon="6.81631">
        <ele>315</ele>
        <time>2015-03-01T10:42:53.000Z</time>
      </trkpt>
      <trkpt lat="47.4836" lon="6.8163">
        <ele>315</ele>
        <time>2015-03-01T10:42:54.000Z</time>
      </trkpt>
      <trkpt lat="47.48365" lon="6.81629">
        <ele>315</ele>
        <time>2015-03-01T10:42:55.000Z</time>
      </trkpt>
      <trkpt lat="47.48369" lon="6.81627">
        <ele>315</ele>
        <time>2015-03-01T10:42:56.000Z</time>
      </trkpt>
      <trkpt lat="47.48373" lon="6.81626">
        <ele>315</ele>
        <time>2015-03-01T10:42:57.000Z</time>
      </trkpt>
      <trkpt lat="47.48377" lon="6.81624">
        <ele>314</ele>
        <time>2015-03-01T10:42:58.000Z</time>
      </trkpt>
      <trkpt lat="47.48381" lon="6.81623">
        <ele>314</ele>
        <time>2015-03-01T10:42:59.000Z</time>
      </trkpt>
      <trkpt lat="47.48385" lon="6.81622">
        <ele>314</ele>
        <time>2015-03-01T10:43:00.000Z</time>
      </trkpt>
      <trkpt lat="47.48389" lon="6.81621">
        <ele>314</ele>
        <time>2015-03-01T10:43:01.000Z</time>
      </trkpt>
      <trkpt lat="47.48393" lon="6.8162">
        <ele>314</ele>
        <time>2015-03-01T10:43:02.000Z</time>
      </trkpt>
      <trkpt lat="47.48397" lon="6.81619">
        <ele>314</ele>
        <time>2015-03-01T10:43:03.000Z</time>
      </trkpt>
      <trkpt lat="47.48401" lon="6.81617">
        <ele>314</ele>
        <time>2015-03-01T10:43:04.000Z</time>
      </trkpt>
      <trkpt lat="47.48404" lon="6.81616">
        <ele>314</ele>
        <time>2015-03-01T10:43:05.000Z</time>
      </trkpt>
      <trkpt lat="47.48408" lon="6.81616">
        <ele>314</ele>
        <time>2015-03-01T10:43:06.000Z</time>
      </trkpt>
      <trkpt lat="47.48411" lon="6.81615">
        <ele>314</ele>
        <time>2015-03-01T10:43:07.000Z</time>
      </trkpt>
      <trkpt lat="47.48415" lon="6.81614">
        <ele>314</ele>
        <time>2015-03-01T10:43:08.000Z</time>
      </trkpt>
      <trkpt lat="47.48418" lon="6.81613">
        <ele>313</ele>
        <time>2015-03-01T10:43:09.000Z</time>
      </trkpt>
      <trkpt lat="47.4842" lon="6.81613">
        <ele>313</ele>
        <time>2015-03-01T10:43:10.000Z</time>
      </trkpt>
      <trkpt lat="47.48423" lon="6.81612">
        <ele>313</ele>
        <time>2015-03-01T10:43:11.000Z</time>
      </trkpt>
      <trkpt lat="47.48426" lon="6.81608">
        <ele>313</ele>
        <time>2015-03-01T10:43:14.000Z</time>
      </trkpt>
      <trkpt lat="47.48426" lon="6.81606">
        <ele>313</ele>
        <time>2015-03-01T10:43:15.000Z</time>
      </trkpt>
      <trkpt lat="47.48423" lon="6.81602">
        <ele>313</ele>
        <time>2015-03-01T10:43:17.000Z</time>
      </trkpt>
      <trkpt lat="47.4842" lon="6.81599">
        <ele>313</ele>
        <time>2015-03-01T10:43:18.000Z</time>
      </trkpt>
      <trkpt lat="47.48417" lon="6.81596">
        <ele>313</ele>
        <time>2015-03-01T10:43:19.000Z</time>
      </trkpt>
      <trkpt lat="47.48414" lon="6.81592">
        <ele>313</ele>
        <time>2015-03-01T10:43:20.000Z</time>
      </trkpt>
      <trkpt lat="47.4841" lon="6.81584">
        <ele>313</ele>
        <time>2015-03-01T10:43:21.000Z</time>
      </trkpt>
      <trkpt lat="47.48408" lon="6.81579">
        <ele>313</ele>
        <time>2015-03-01T10:43:22.000Z</time>
      </trkpt>
      <trkpt lat="47.48407" lon="6.81572">
        <ele>314</ele>
        <time>2015-03-01T10:43:23.000Z</time>
      </trkpt>
      <trkpt lat="47.48405" lon="6.81565">
        <ele>314</ele>
        <time>2015-03-01T10:43:24.000Z</time>
      </trkpt>
      <trkpt lat="47.48405" lon="6.81558">
        <ele>314</ele>
        <time>2015-03-01T10:43:25.000Z</time>
      </trkpt>
      <trkpt lat="47.48404" lon="6.81551">
        <ele>314</ele>
        <time>2015-03-01T10:43:26.000Z</time>
      </trkpt>
      <trkpt lat="47.48403" lon="6.81544">
        <ele>314</ele>
        <time>2015-03-01T10:43:27.000Z</time>
      </trkpt>
      <trkpt lat="47.48403" lon="6.81537">
        <ele>314</ele>
        <time>2015-03-01T10:43:28.000Z</time>
      </trkpt>
      <trkpt lat="47.48402" lon="6.81531">
        <ele>314</ele>
        <time>2015-03-01T10:43:29.000Z</time>
      </trkpt>
      <trkpt lat="47.48401" lon="6.81523">
        <ele>314</ele>
        <time>2015-03-01T10:43:30.000Z</time>
      </trkpt>
      <trkpt lat="47.48401" lon="6.81516">
        <ele>314</ele>
        <time>2015-03-01T10:43:31.000Z</time>
      </trkpt>
      <trkpt lat="47.484" lon="6.8151">
        <ele>314</ele>
        <time>2015-03-01T10:43:32.000Z</time>
      </trkpt>
      <trkpt lat="47.48399" lon="6.81503">
        <ele>314</ele>
        <time>2015-03-01T10:43:33.000Z</time>
      </trkpt>
      <trkpt lat="47.48398" lon="6.81496">
        <ele>314</ele>
        <time>2015-03-01T10:43:34.000Z</time>
      </trkpt>
      <trkpt lat="47.48397" lon="6.8149">
        <ele>314</ele>
        <time>2015-03-01T10:43:35.000Z</time>
      </trkpt>
      <trkpt lat="47.48396" lon="6.81483">
        <ele>314</ele>
        <time>2015-03-01T10:43:36.000Z</time>
      </trkpt>
      <trkpt lat="47.48395" lon="6.81476">
        <ele>314</ele>
        <time>2015-03-01T10:43:37.000Z</time>
      </trkpt>
      <trkpt lat="47.48395" lon="6.8147">
        <ele>314</ele>
        <time>2015-03-01T10:43:38.000Z</time>
      </trkpt>
      <trkpt lat="47.48394" lon="6.81463">
        <ele>314</ele>
        <time>2015-03-01T10:43:39.000Z</time>
      </trkpt>
      <trkpt lat="47.48394" lon="6.81456">
        <ele>314</ele>
        <time>2015-03-01T10:43:40.000Z</time>
      </trkpt>
      <trkpt lat="47.48393" lon="6.81449">
        <ele>314</ele>
        <time>2015-03-01T10:43:41.000Z</time>
      </trkpt>
      <trkpt lat="47.48392" lon="6.81442">
        <ele>314</ele>
        <time>2015-03-01T10:43:42.000Z</time>
      </trkpt>
      <trkpt lat="47.48391" lon="6.81436">
        <ele>314</ele>
        <time>2015-03-01T10:43:43.000Z</time>
      </trkpt>
      <trkpt lat="47.48391" lon="6.8143">
        <ele>314</ele>
        <time>2015-03-01T10:43:44.000Z</time>
      </trkpt>
      <trkpt lat="47.4839" lon="6.81423">
        <ele>314</ele>
        <time>2015-03-01T10:43:45.000Z</time>
      </trkpt>
      <trkpt lat="47.48389" lon="6.81417">
        <ele>314</ele>
        <time>2015-03-01T10:43:46.000Z</time>
      </trkpt>
      <trkpt lat="47.48389" lon="6.81409">
        <ele>314</ele>
        <time>2015-03-01T10:43:47.000Z</time>
      </trkpt>
      <trkpt lat="47.48389" lon="6.81403">
        <ele>314</ele>
        <time>2015-03-01T10:43:48.000Z</time>
      </trkpt>
      <trkpt lat="47.48389" lon="6.81395">
        <ele>314</ele>
        <time>2015-03-01T10:43:49.000Z</time>
      </trkpt>
      <trkpt lat="47.48388" lon="6.81389">
        <ele>314</ele>
        <time>2015-03-01T10:43:50.000Z</time>
      </trkpt>
      <trkpt lat="47.48386" lon="6.81382">
        <ele>314</ele>
        <time>2015-03-01T10:43:51.000Z</time>
      </trkpt>
      <trkpt lat="47.48385" lon="6.81374">
        <ele>314</ele>
        <time>2015-03-01T10:43:52.000Z</time>
      </trkpt>
      <trkpt lat="47.48384" lon="6.81367">
        <ele>314</ele>
        <time>2015-03-01T10:43:53.000Z</time>
      </trkpt>
      <trkpt lat="47.48385" lon="6.8136">
        <ele>314</ele>
        <time>2015-03-01T10:43:54.000Z</time>
      </trkpt>
      <trkpt lat="47.48384" lon="6.81353">
        <ele>314</ele>
        <time>2015-03-01T10:43:55.000Z</time>
      </trkpt>
      <trkpt lat="47.48383" lon="6.81346">
        <ele>314</ele>
        <time>2015-03-01T10:43:56.000Z</time>
      </trkpt>
      <trkpt lat="47.48383" lon="6.81339">
        <ele>314</ele>
        <time>2015-03-01T10:43:57.000Z</time>
      </trkpt>
      <trkpt lat="47.48383" lon="6.81332">
        <ele>315</ele>
        <time>2015-03-01T10:43:58.000Z</time>
      </trkpt>
      <trkpt lat="47.48383" lon="6.81325">
        <ele>315</ele>
        <time>2015-03-01T10:43:59.000Z</time>
      </trkpt>
      <trkpt lat="47.48383" lon="6.81318">
        <ele>315</ele>
        <time>2015-03-01T10:44:00.000Z</time>
      </trkpt>
      <trkpt lat="47.48383" lon="6.81311">
        <ele>315</ele>
        <time>2015-03-01T10:44:01.000Z</time>
      </trkpt>
      <trkpt lat="47.48383" lon="6.81304">
        <ele>315</ele>
        <time>2015-03-01T10:44:01.999Z</time>
      </trkpt>
      <trkpt lat="47.48384" lon="6.81297">
        <ele>315</ele>
        <time>2015-03-01T10:44:03.000Z</time>
      </trkpt>
      <trkpt lat="47.48385" lon="6.8129">
        <ele>315</ele>
        <time>2015-03-01T10:44:04.000Z</time>
      </trkpt>
      <trkpt lat="47.48385" lon="6.81283">
        <ele>315</ele>
        <time>2015-03-01T10:44:05.000Z</time>
      </trkpt>
      <trkpt lat="47.48386" lon="6.81275">
        <ele>315</ele>
        <time>2015-03-01T10:44:06.000Z</time>
      </trkpt>
      <trkpt lat="47.48386" lon="6.81268">
        <ele>315</ele>
        <time>2015-03-01T10:44:07.000Z</time>
      </trkpt>
      <trkpt lat="47.48388" lon="6.81261">
        <ele>315</ele>
        <time>2015-03-01T10:44:08.000Z</time>
      </trkpt>
      <trkpt lat="47.48389" lon="6.81254">
        <ele>315</ele>
        <time>2015-03-01T10:44:09.000Z</time>
      </trkpt>
      <trkpt lat="47.48391" lon="6.81245">
        <ele>316</ele>
        <time>2015-03-01T10:44:10.000Z</time>
      </trkpt>
      <trkpt lat="47.48393" lon="6.81237">
        <ele>316</ele>
        <time>2015-03-01T10:44:11.000Z</time>
      </trkpt>
      <trkpt lat="47.48394" lon="6.81231">
        <ele>316</ele>
        <time>2015-03-01T10:44:12.000Z</time>
      </trkpt>
      <trkpt lat="47.48396" lon="6.81224">
        <ele>316</ele>
        <time>2015-03-01T10:44:13.000Z</time>
      </trkpt>
      <trkpt lat="47.48397" lon="6.8122">
        <ele>316</ele>
        <time>2015-03-01T10:44:14.000Z</time>
      </trkpt>
      <trkpt lat="47.48398" lon="6.81214">
        <ele>316</ele>
        <time>2015-03-01T10:44:15.000Z</time>
      </trkpt>
      <trkpt lat="47.48399" lon="6.81208">
        <ele>316</ele>
        <time>2015-03-01T10:44:16.000Z</time>
      </trkpt>
      <trkpt lat="47.48401" lon="6.81203">
        <ele>316</ele>
        <time>2015-03-01T10:44:17.000Z</time>
      </trkpt>
      <trkpt lat="47.48402" lon="6.81195">
        <ele>317</ele>
        <time>2015-03-01T10:44:18.000Z</time>
      </trkpt>
      <trkpt lat="47.48403" lon="6.81187">
        <ele>317</ele>
        <time>2015-03-01T10:44:19.000Z</time>
      </trkpt>
      <trkpt lat="47.48404" lon="6.81178">
        <ele>316</ele>
        <time>2015-03-01T10:44:20.000Z</time>
      </trkpt>
      <trkpt lat="47.48405" lon="6.8117">
        <ele>316</ele>
        <time>2015-03-01T10:44:21.000Z</time>
      </trkpt>
      <trkpt lat="47.48407" lon="6.81162">
        <ele>318</ele>
        <time>2015-03-01T10:44:22.000Z</time>
      </trkpt>
      <trkpt lat="47.48409" lon="6.81153">
        <ele>318</ele>
        <time>2015-03-01T10:44:23.000Z</time>
      </trkpt>
      <trkpt lat="47.48411" lon="6.81144">
        <ele>319</ele>
        <time>2015-03-01T10:44:24.000Z</time>
      </trkpt>
      <trkpt lat="47.48412" lon="6.81136">
        <ele>319</ele>
        <time>2015-03-01T10:44:25.000Z</time>
      </trkpt>
      <trkpt lat="47.48413" lon="6.81128">
        <ele>319</ele>
        <time>2015-03-01T10:44:26.000Z</time>
      </trkpt>
      <trkpt lat="47.48414" lon="6.81121">
        <ele>319</ele>
        <time>2015-03-01T10:44:27.000Z</time>
      </trkpt>
      <trkpt lat="47.48415" lon="6.81113">
        <ele>319</ele>
        <time>2015-03-01T10:44:28.000Z</time>
      </trkpt>
      <trkpt lat="47.48416" lon="6.81105">
        <ele>319</ele>
        <time>2015-03-01T10:44:29.000Z</time>
      </trkpt>
      <trkpt lat="47.48418" lon="6.81098">
        <ele>317</ele>
        <time>2015-03-01T10:44:30.000Z</time>
      </trkpt>
      <trkpt lat="47.48419" lon="6.81091">
        <ele>317</ele>
        <time>2015-03-01T10:44:31.000Z</time>
      </trkpt>
      <trkpt lat="47.4842" lon="6.81084">
        <ele>317</ele>
        <time>2015-03-01T10:44:32.000Z</time>
      </trkpt>
      <trkpt lat="47.48422" lon="6.81077">
        <ele>317</ele>
        <time>2015-03-01T10:44:33.000Z</time>
      </trkpt>
      <trkpt lat="47.48424" lon="6.8107">
        <ele>317</ele>
        <time>2015-03-01T10:44:34.000Z</time>
      </trkpt>
      <trkpt lat="47.48426" lon="6.81061">
        <ele>317</ele>
        <time>2015-03-01T10:44:35.000Z</time>
      </trkpt>
      <trkpt lat="47.48427" lon="6.81053">
        <ele>317</ele>
        <time>2015-03-01T10:44:36.000Z</time>
      </trkpt>
      <trkpt lat="47.48428" lon="6.81045">
        <ele>317</ele>
        <time>2015-03-01T10:44:37.000Z</time>
      </trkpt>
      <trkpt lat="47.48429" lon="6.81038">
        <ele>317</ele>
        <time>2015-03-01T10:44:38.000Z</time>
      </trkpt>
      <trkpt lat="47.48431" lon="6.81032">
        <ele>317</ele>
        <time>2015-03-01T10:44:39.000Z</time>
      </trkpt>
      <trkpt lat="47.48432" lon="6.81027">
        <ele>317</ele>
        <time>2015-03-01T10:44:40.000Z</time>
      </trkpt>
      <trkpt lat="47.48433" lon="6.81021">
        <ele>317</ele>
        <time>2015-03-01T10:44:41.000Z</time>
      </trkpt>
      <trkpt lat="47.48434" lon="6.81014">
        <ele>317</ele>
        <time>2015-03-01T10:44:42.000Z</time>
      </trkpt>
      <trkpt lat="47.48436" lon="6.81007">
        <ele>317</ele>
        <time>2015-03-01T10:44:43.000Z</time>
      </trkpt>
      <trkpt lat="47.48438" lon="6.81">
        <ele>317</ele>
        <time>2015-03-01T10:44:44.000Z</time>
      </trkpt>
      <trkpt lat="47.48439" lon="6.80993">
        <ele>316</ele>
        <time>2015-03-01T10:44:45.000Z</time>
      </trkpt>
      <trkpt lat="47.4844" lon="6.80986">
        <ele>316</ele>
        <time>2015-03-01T10:44:46.000Z</time>
      </trkpt>
      <trkpt lat="47.48441" lon="6.80979">
        <ele>316</ele>
        <time>2015-03-01T10:44:47.000Z</time>
      </trkpt>
      <trkpt lat="47.48441" lon="6.80974">
        <ele>316</ele>
        <time>2015-03-01T10:44:48.000Z</time>
      </trkpt>
      <trkpt lat="47.48442" lon="6.80969">
        <ele>316</ele>
        <time>2015-03-01T10:44:49.000Z</time>
      </trkpt>
      <trkpt lat="47.48444" lon="6.80963">
        <ele>316</ele>
        <time>2015-03-01T10:44:50.000Z</time>
      </trkpt>
      <trkpt lat="47.48444" lon="6.80956">
        <ele>316</ele>
        <time>2015-03-01T10:44:51.000Z</time>
      </trkpt>
      <trkpt lat="47.48446" lon="6.80948">
        <ele>316</ele>
        <time>2015-03-01T10:44:52.000Z</time>
      </trkpt>
      <trkpt lat="47.48447" lon="6.80942">
        <ele>316</ele>
        <time>2015-03-01T10:44:53.000Z</time>
      </trkpt>
      <trkpt lat="47.48448" lon="6.80936">
        <ele>316</ele>
        <time>2015-03-01T10:44:54.000Z</time>
      </trkpt>
      <trkpt lat="47.48448" lon="6.80927">
        <ele>316</ele>
        <time>2015-03-01T10:44:55.000Z</time>
      </trkpt>
      <trkpt lat="47.48449" lon="6.8092">
        <ele>316</ele>
        <time>2015-03-01T10:44:56.000Z</time>
      </trkpt>
      <trkpt lat="47.4845" lon="6.80914">
        <ele>316</ele>
        <time>2015-03-01T10:44:57.000Z</time>
      </trkpt>
      <trkpt lat="47.48453" lon="6.80908">
        <ele>316</ele>
        <time>2015-03-01T10:44:58.000Z</time>
      </trkpt>
      <trkpt lat="47.48454" lon="6.80901">
        <ele>316</ele>
        <time>2015-03-01T10:44:59.000Z</time>
      </trkpt>
      <trkpt lat="47.48456" lon="6.80895">
        <ele>316</ele>
        <time>2015-03-01T10:45:00.000Z</time>
      </trkpt>
      <trkpt lat="47.48458" lon="6.80889">
        <ele>316</ele>
        <time>2015-03-01T10:45:01.000Z</time>
      </trkpt>
      <trkpt lat="47.48459" lon="6.80884">
        <ele>316</ele>
        <time>2015-03-01T10:45:02.000Z</time>
      </trkpt>
      <trkpt lat="47.48461" lon="6.80879">
        <ele>316</ele>
        <time>2015-03-01T10:45:03.000Z</time>
      </trkpt>
      <trkpt lat="47.48462" lon="6.8087">
        <ele>316</ele>
        <time>2015-03-01T10:45:04.000Z</time>
      </trkpt>
      <trkpt lat="47.48464" lon="6.80862">
        <ele>316</ele>
        <time>2015-03-01T10:45:05.000Z</time>
      </trkpt>
      <trkpt lat="47.48465" lon="6.80857">
        <ele>316</ele>
        <time>2015-03-01T10:45:06.000Z</time>
      </trkpt>
      <trkpt lat="47.48466" lon="6.80851">
        <ele>316</ele>
        <time>2015-03-01T10:45:07.000Z</time>
      </trkpt>
      <trkpt lat="47.48468" lon="6.80846">
        <ele>316</ele>
        <time>2015-03-01T10:45:08.000Z</time>
      </trkpt>
      <trkpt lat="47.4847" lon="6.80839">
        <ele>316</ele>
        <time>2015-03-01T10:45:09.000Z</time>
      </trkpt>
      <trkpt lat="47.48471" lon="6.80834">
        <ele>316</ele>
        <time>2015-03-01T10:45:10.000Z</time>
      </trkpt>
      <trkpt lat="47.48472" lon="6.80828">
        <ele>316</ele>
        <time>2015-03-01T10:45:11.000Z</time>
      </trkpt>
      <trkpt lat="47.48472" lon="6.80822">
        <ele>316</ele>
        <time>2015-03-01T10:45:12.000Z</time>
      </trkpt>
      <trkpt lat="47.48473" lon="6.80815">
        <ele>316</ele>
        <time>2015-03-01T10:45:13.000Z</time>
      </trkpt>
      <trkpt lat="47.48474" lon="6.80809">
        <ele>316</ele>
        <time>2015-03-01T10:45:14.000Z</time>
      </trkpt>
      <trkpt lat="47.48475" lon="6.80803">
        <ele>316</ele>
        <time>2015-03-01T10:45:15.000Z</time>
      </trkpt>
      <trkpt lat="47.48475" lon="6.80797">
        <ele>316</ele>
        <time>2015-03-01T10:45:16.000Z</time>
      </trkpt>
      <trkpt lat="47.48476" lon="6.80791">
        <ele>316</ele>
        <time>2015-03-01T10:45:17.000Z</time>
      </trkpt>
      <trkpt lat="47.48478" lon="6.80783">
        <ele>316</ele>
        <time>2015-03-01T10:45:18.000Z</time>
      </trkpt>
      <trkpt lat="47.48477" lon="6.80777">
        <ele>316</ele>
        <time>2015-03-01T10:45:19.000Z</time>
      </trkpt>
      <trkpt lat="47.48475" lon="6.80772">
        <ele>316</ele>
        <time>2015-03-01T10:45:20.000Z</time>
      </trkpt>
      <trkpt lat="47.48474" lon="6.80766">
        <ele>316</ele>
        <time>2015-03-01T10:45:21.000Z</time>
      </trkpt>
      <trkpt lat="47.48473" lon="6.8076">
        <ele>316</ele>
        <time>2015-03-01T10:45:22.000Z</time>
      </trkpt>
      <trkpt lat="47.48473" lon="6.80755">
        <ele>316</ele>
        <time>2015-03-01T10:45:23.000Z</time>
      </trkpt>
      <trkpt lat="47.48473" lon="6.80749">
        <ele>316</ele>
        <time>2015-03-01T10:45:24.000Z</time>
      </trkpt>
      <trkpt lat="47.48473" lon="6.80745">
        <ele>316</ele>
        <time>2015-03-01T10:45:25.000Z</time>
      </trkpt>
      <trkpt lat="47.48472" lon="6.80741">
        <ele>316</ele>
        <time>2015-03-01T10:45:26.000Z</time>
      </trkpt>
      <trkpt lat="47.48471" lon="6.80737">
        <ele>316</ele>
        <time>2015-03-01T10:45:27.000Z</time>
      </trkpt>
      <trkpt lat="47.48471" lon="6.80732">
        <ele>316</ele>
        <time>2015-03-01T10:45:28.000Z</time>
      </trkpt>
      <trkpt lat="47.4847" lon="6.80728">
        <ele>316</ele>
        <time>2015-03-01T10:45:29.000Z</time>
      </trkpt>
      <trkpt lat="47.4847" lon="6.80723">
        <ele>316</ele>
        <time>2015-03-01T10:45:30.000Z</time>
      </trkpt>
      <trkpt lat="47.48471" lon="6.80718">
        <ele>316</ele>
        <time>2015-03-01T10:45:31.000Z</time>
      </trkpt>
      <trkpt lat="47.48472" lon="6.80713">
        <ele>316</ele>
        <time>2015-03-01T10:45:32.000Z</time>
      </trkpt>
      <trkpt lat="47.48473" lon="6.80708">
        <ele>316</ele>
        <time>2015-03-01T10:45:33.000Z</time>
      </trkpt>
      <trkpt lat="47.48474" lon="6.80703">
        <ele>316</ele>
        <time>2015-03-01T10:45:33.999Z</time>
      </trkpt>
      <trkpt lat="47.48475" lon="6.80697">
        <ele>316</ele>
        <time>2015-03-01T10:45:35.001Z</time>
      </trkpt>
      <trkpt lat="47.48477" lon="6.80692">
        <ele>316</ele>
        <time>2015-03-01T10:45:36.000Z</time>
      </trkpt>
      <trkpt lat="47.48479" lon="6.80688">
        <ele>316</ele>
        <time>2015-03-01T10:45:37.000Z</time>
      </trkpt>
      <trkpt lat="47.4848" lon="6.80685">
        <ele>316</ele>
        <time>2015-03-01T10:45:38.000Z</time>
      </trkpt>
      <trkpt lat="47.48481" lon="6.8068">
        <ele>316</ele>
        <time>2015-03-01T10:45:41.000Z</time>
      </trkpt>
      <trkpt lat="47.48483" lon="6.80676">
        <ele>315</ele>
        <time>2015-03-01T10:45:42.000Z</time>
      </trkpt>
      <trkpt lat="47.48485" lon="6.80671">
        <ele>315</ele>
        <time>2015-03-01T10:45:43.000Z</time>
      </trkpt>
      <trkpt lat="47.48488" lon="6.80666">
        <ele>315</ele>
        <time>2015-03-01T10:45:44.000Z</time>
      </trkpt>
      <trkpt lat="47.48491" lon="6.80663">
        <ele>315</ele>
        <time>2015-03-01T10:45:45.000Z</time>
      </trkpt>
      <trkpt lat="47.48495" lon="6.8066">
        <ele>314</ele>
        <time>2015-03-01T10:45:46.000Z</time>
      </trkpt>
      <trkpt lat="47.48499" lon="6.80657">
        <ele>314</ele>
        <time>2015-03-01T10:45:47.000Z</time>
      </trkpt>
      <trkpt lat="47.48502" lon="6.80654">
        <ele>313</ele>
        <time>2015-03-01T10:45:48.000Z</time>
      </trkpt>
      <trkpt lat="47.48505" lon="6.8065">
        <ele>313</ele>
        <time>2015-03-01T10:45:49.000Z</time>
      </trkpt>
      <trkpt lat="47.48508" lon="6.80645">
        <ele>313</ele>
        <time>2015-03-01T10:45:50.000Z</time>
      </trkpt>
      <trkpt lat="47.4851" lon="6.8064">
        <ele>313</ele>
        <time>2015-03-01T10:45:51.000Z</time>
      </trkpt>
      <trkpt lat="47.48513" lon="6.80634">
        <ele>313</ele>
        <time>2015-03-01T10:45:52.000Z</time>
      </trkpt>
      <trkpt lat="47.48516" lon="6.80626">
        <ele>313</ele>
        <time>2015-03-01T10:45:53.000Z</time>
      </trkpt>
      <trkpt lat="47.48518" lon="6.8062">
        <ele>313</ele>
        <time>2015-03-01T10:45:54.000Z</time>
      </trkpt>
      <trkpt lat="47.4852" lon="6.80614">
        <ele>313</ele>
        <time>2015-03-01T10:45:55.000Z</time>
      </trkpt>
      <trkpt lat="47.48522" lon="6.80609">
        <ele>313</ele>
        <time>2015-03-01T10:45:56.000Z</time>
      </trkpt>
      <trkpt lat="47.48524" lon="6.80603">
        <ele>313</ele>
        <time>2015-03-01T10:45:57.000Z</time>
      </trkpt>
      <trkpt lat="47.48526" lon="6.80598">
        <ele>313</ele>
        <time>2015-03-01T10:45:58.000Z</time>
      </trkpt>
      <trkpt lat="47.48528" lon="6.80592">
        <ele>313</ele>
        <time>2015-03-01T10:45:59.000Z</time>
      </trkpt>
      <trkpt lat="47.4853" lon="6.80586">
        <ele>313</ele>
        <time>2015-03-01T10:46:00.000Z</time>
      </trkpt>
      <trkpt lat="47.48531" lon="6.8058">
        <ele>313</ele>
        <time>2015-03-01T10:46:01.001Z</time>
      </trkpt>
      <trkpt lat="47.48533" lon="6.80571">
        <ele>313</ele>
        <time>2015-03-01T10:46:02.000Z</time>
      </trkpt>
      <trkpt lat="47.48536" lon="6.80559">
        <ele>313</ele>
        <time>2015-03-01T10:46:04.000Z</time>
      </trkpt>
      <trkpt lat="47.48537" lon="6.80552">
        <ele>313</ele>
        <time>2015-03-01T10:46:05.000Z</time>
      </trkpt>
      <trkpt lat="47.48538" lon="6.80545">
        <ele>313</ele>
        <time>2015-03-01T10:46:06.000Z</time>
      </trkpt>
      <trkpt lat="47.4854" lon="6.80538">
        <ele>313</ele>
        <time>2015-03-01T10:46:07.000Z</time>
      </trkpt>
      <trkpt lat="47.48541" lon="6.80532">
        <ele>313</ele>
        <time>2015-03-01T10:46:08.000Z</time>
      </trkpt>
      <trkpt lat="47.48543" lon="6.80525">
        <ele>313</ele>
        <time>2015-03-01T10:46:09.000Z</time>
      </trkpt>
      <trkpt lat="47.48545" lon="6.80518">
        <ele>313</ele>
        <time>2015-03-01T10:46:10.000Z</time>
      </trkpt>
      <trkpt lat="47.48547" lon="6.80512">
        <ele>313</ele>
        <time>2015-03-01T10:46:11.000Z</time>
      </trkpt>
      <trkpt lat="47.48549" lon="6.80506">
        <ele>313</ele>
        <time>2015-03-01T10:46:12.000Z</time>
      </trkpt>
      <trkpt lat="47.4855" lon="6.805">
        <ele>313</ele>
        <time>2015-03-01T10:46:13.000Z</time>
      </trkpt>
      <trkpt lat="47.48552" lon="6.80494">
        <ele>314</ele>
        <time>2015-03-01T10:46:14.000Z</time>
      </trkpt>
      <trkpt lat="47.48554" lon="6.80489">
        <ele>314</ele>
        <time>2015-03-01T10:46:15.000Z</time>
      </trkpt>
      <trkpt lat="47.48555" lon="6.80484">
        <ele>314</ele>
        <time>2015-03-01T10:46:16.000Z</time>
      </trkpt>
      <trkpt lat="47.48556" lon="6.80479">
        <ele>314</ele>
        <time>2015-03-01T10:46:17.000Z</time>
      </trkpt>
      <trkpt lat="47.48558" lon="6.80472">
        <ele>314</ele>
        <time>2015-03-01T10:46:18.001Z</time>
      </trkpt>
      <trkpt lat="47.48561" lon="6.80465">
        <ele>314</ele>
        <time>2015-03-01T10:46:19.000Z</time>
      </trkpt>
      <trkpt lat="47.48562" lon="6.80458">
        <ele>314</ele>
        <time>2015-03-01T10:46:20.000Z</time>
      </trkpt>
      <trkpt lat="47.48564" lon="6.80451">
        <ele>314</ele>
        <time>2015-03-01T10:46:21.000Z</time>
      </trkpt>
      <trkpt lat="47.48566" lon="6.80445">
        <ele>314</ele>
        <time>2015-03-01T10:46:22.000Z</time>
      </trkpt>
      <trkpt lat="47.48568" lon="6.80438">
        <ele>314</ele>
        <time>2015-03-01T10:46:23.000Z</time>
      </trkpt>
      <trkpt lat="47.48571" lon="6.80433">
        <ele>314</ele>
        <time>2015-03-01T10:46:24.000Z</time>
      </trkpt>
      <trkpt lat="47.48574" lon="6.80428">
        <ele>314</ele>
        <time>2015-03-01T10:46:25.000Z</time>
      </trkpt>
      <trkpt lat="47.48576" lon="6.80423">
        <ele>314</ele>
        <time>2015-03-01T10:46:26.000Z</time>
      </trkpt>
      <trkpt lat="47.48579" lon="6.80417">
        <ele>314</ele>
        <time>2015-03-01T10:46:27.000Z</time>
      </trkpt>
      <trkpt lat="47.48581" lon="6.80412">
        <ele>314</ele>
        <time>2015-03-01T10:46:28.000Z</time>
      </trkpt>
      <trkpt lat="47.48583" lon="6.80408">
        <ele>314</ele>
        <time>2015-03-01T10:46:29.000Z</time>
      </trkpt>
      <trkpt lat="47.48586" lon="6.80403">
        <ele>314</ele>
        <time>2015-03-01T10:46:30.000Z</time>
      </trkpt>
      <trkpt lat="47.48588" lon="6.80398">
        <ele>314</ele>
        <time>2015-03-01T10:46:31.000Z</time>
      </trkpt>
      <trkpt lat="47.4859" lon="6.80393">
        <ele>313</ele>
        <time>2015-03-01T10:46:32.000Z</time>
      </trkpt>
      <trkpt lat="47.48592" lon="6.80388">
        <ele>313</ele>
        <time>2015-03-01T10:46:33.000Z</time>
      </trkpt>
      <trkpt lat="47.48595" lon="6.80382">
        <ele>313</ele>
        <time>2015-03-01T10:46:34.000Z</time>
      </trkpt>
      <trkpt lat="47.48598" lon="6.80377">
        <ele>313</ele>
        <time>2015-03-01T10:46:35.000Z</time>
      </trkpt>
      <trkpt lat="47.48601" lon="6.80372">
        <ele>313</ele>
        <time>2015-03-01T10:46:36.000Z</time>
      </trkpt>
      <trkpt lat="47.48604" lon="6.80367">
        <ele>313</ele>
        <time>2015-03-01T10:46:37.000Z</time>
      </trkpt>
      <trkpt lat="47.48606" lon="6.80363">
        <ele>313</ele>
        <time>2015-03-01T10:46:38.000Z</time>
      </trkpt>
      <trkpt lat="47.4861" lon="6.80357">
        <ele>313</ele>
        <time>2015-03-01T10:46:39.000Z</time>
      </trkpt>
      <trkpt lat="47.48613" lon="6.80352">
        <ele>313</ele>
        <time>2015-03-01T10:46:40.000Z</time>
      </trkpt>
      <trkpt lat="47.48616" lon="6.80346">
        <ele>313</ele>
        <time>2015-03-01T10:46:41.000Z</time>
      </trkpt>
      <trkpt lat="47.4862" lon="6.80342">
        <ele>313</ele>
        <time>2015-03-01T10:46:42.000Z</time>
      </trkpt>
      <trkpt lat="47.48623" lon="6.80338">
        <ele>313</ele>
        <time>2015-03-01T10:46:43.000Z</time>
      </trkpt>
      <trkpt lat="47.48626" lon="6.80334">
        <ele>313</ele>
        <time>2015-03-01T10:46:44.000Z</time>
      </trkpt>
      <trkpt lat="47.48628" lon="6.8033">
        <ele>314</ele>
        <time>2015-03-01T10:46:45.000Z</time>
      </trkpt>
      <trkpt lat="47.4863" lon="6.80322">
        <ele>314</ele>
        <time>2015-03-01T10:46:46.000Z</time>
      </trkpt>
      <trkpt lat="47.48633" lon="6.80315">
        <ele>314</ele>
        <time>2015-03-01T10:46:47.000Z</time>
      </trkpt>
      <trkpt lat="47.48636" lon="6.8031">
        <ele>314</ele>
        <time>2015-03-01T10:46:48.000Z</time>
      </trkpt>
      <trkpt lat="47.48639" lon="6.80303">
        <ele>314</ele>
        <time>2015-03-01T10:46:49.000Z</time>
      </trkpt>
      <trkpt lat="47.48643" lon="6.80298">
        <ele>314</ele>
        <time>2015-03-01T10:46:50.000Z</time>
      </trkpt>
      <trkpt lat="47.48646" lon="6.8029">
        <ele>314</ele>
        <time>2015-03-01T10:46:51.000Z</time>
      </trkpt>
      <trkpt lat="47.48649" lon="6.80285">
        <ele>314</ele>
        <time>2015-03-01T10:46:52.000Z</time>
      </trkpt>
      <trkpt lat="47.48651" lon="6.8028">
        <ele>314</ele>
        <time>2015-03-01T10:46:53.000Z</time>
      </trkpt>
      <trkpt lat="47.48655" lon="6.80276">
        <ele>314</ele>
        <time>2015-03-01T10:46:54.000Z</time>
      </trkpt>
      <trkpt lat="47.48658" lon="6.80267">
        <ele>314</ele>
        <time>2015-03-01T10:46:55.000Z</time>
      </trkpt>
      <trkpt lat="47.48662" lon="6.80265">
        <ele>314</ele>
        <time>2015-03-01T10:46:56.000Z</time>
      </trkpt>
      <trkpt lat="47.48665" lon="6.8026">
        <ele>314</ele>
        <time>2015-03-01T10:46:57.000Z</time>
      </trkpt>
      <trkpt lat="47.48668" lon="6.80258">
        <ele>315</ele>
        <time>2015-03-01T10:46:58.000Z</time>
      </trkpt>
      <trkpt lat="47.4867" lon="6.80252">
        <ele>315</ele>
        <time>2015-03-01T10:46:59.000Z</time>
      </trkpt>
      <trkpt lat="47.48673" lon="6.80247">
        <ele>315</ele>
        <time>2015-03-01T10:47:00.000Z</time>
      </trkpt>
      <trkpt lat="47.48677" lon="6.80243">
        <ele>315</ele>
        <time>2015-03-01T10:47:01.000Z</time>
      </trkpt>
      <trkpt lat="47.4868" lon="6.80237">
        <ele>315</ele>
        <time>2015-03-01T10:47:02.000Z</time>
      </trkpt>
      <trkpt lat="47.48683" lon="6.8023">
        <ele>314</ele>
        <time>2015-03-01T10:47:03.000Z</time>
      </trkpt>
      <trkpt lat="47.48686" lon="6.80226">
        <ele>314</ele>
        <time>2015-03-01T10:47:04.000Z</time>
      </trkpt>
      <trkpt lat="47.48688" lon="6.80222">
        <ele>314</ele>
        <time>2015-03-01T10:47:05.000Z</time>
      </trkpt>
      <trkpt lat="47.48689" lon="6.80218">
        <ele>314</ele>
        <time>2015-03-01T10:47:06.000Z</time>
      </trkpt>
      <trkpt lat="47.48692" lon="6.80212">
        <ele>314</ele>
        <time>2015-03-01T10:47:07.000Z</time>
      </trkpt>
      <trkpt lat="47.48694" lon="6.80208">
        <ele>314</ele>
        <time>2015-03-01T10:47:08.000Z</time>
      </trkpt>
      <trkpt lat="47.48698" lon="6.80202">
        <ele>314</ele>
        <time>2015-03-01T10:47:09.000Z</time>
      </trkpt>
      <trkpt lat="47.48699" lon="6.80198">
        <ele>314</ele>
        <time>2015-03-01T10:47:10.000Z</time>
      </trkpt>
      <trkpt lat="47.48701" lon="6.80193">
        <ele>314</ele>
        <time>2015-03-01T10:47:11.000Z</time>
      </trkpt>
      <trkpt lat="47.48702" lon="6.80188">
        <ele>314</ele>
        <time>2015-03-01T10:47:12.000Z</time>
      </trkpt>
      <trkpt lat="47.48703" lon="6.80183">
        <ele>314</ele>
        <time>2015-03-01T10:47:13.000Z</time>
      </trkpt>
      <trkpt lat="47.48704" lon="6.80178">
        <ele>314</ele>
        <time>2015-03-01T10:47:14.000Z</time>
      </trkpt>
      <trkpt lat="47.48705" lon="6.80173">
        <ele>314</ele>
        <time>2015-03-01T10:47:15.000Z</time>
      </trkpt>
      <trkpt lat="47.48706" lon="6.80167">
        <ele>314</ele>
        <time>2015-03-01T10:47:16.000Z</time>
      </trkpt>
      <trkpt lat="47.48706" lon="6.80161">
        <ele>313</ele>
        <time>2015-03-01T10:47:17.000Z</time>
      </trkpt>
      <trkpt lat="47.48706" lon="6.80155">
        <ele>313</ele>
        <time>2015-03-01T10:47:18.000Z</time>
      </trkpt>
      <trkpt lat="47.48706" lon="6.80149">
        <ele>313</ele>
        <time>2015-03-01T10:47:19.000Z</time>
      </trkpt>
      <trkpt lat="47.48704" lon="6.80141">
        <ele>313</ele>
        <time>2015-03-01T10:47:20.000Z</time>
      </trkpt>
      <trkpt lat="47.48704" lon="6.80135">
        <ele>313</ele>
        <time>2015-03-01T10:47:21.000Z</time>
      </trkpt>
      <trkpt lat="47.48704" lon="6.80128">
        <ele>313</ele>
        <time>2015-03-01T10:47:22.000Z</time>
      </trkpt>
      <trkpt lat="47.48703" lon="6.8012">
        <ele>313</ele>
        <time>2015-03-01T10:47:23.000Z</time>
      </trkpt>
      <trkpt lat="47.48703" lon="6.80112">
        <ele>313</ele>
        <time>2015-03-01T10:47:24.000Z</time>
      </trkpt>
      <trkpt lat="47.48702" lon="6.80104">
        <ele>313</ele>
        <time>2015-03-01T10:47:25.000Z</time>
      </trkpt>
      <trkpt lat="47.48702" lon="6.80097">
        <ele>313</ele>
        <time>2015-03-01T10:47:26.000Z</time>
      </trkpt>
      <trkpt lat="47.48702" lon="6.80089">
        <ele>313</ele>
        <time>2015-03-01T10:47:27.000Z</time>
      </trkpt>
      <trkpt lat="47.48703" lon="6.80082">
        <ele>312</ele>
        <time>2015-03-01T10:47:28.000Z</time>
      </trkpt>
      <trkpt lat="47.48702" lon="6.80076">
        <ele>312</ele>
        <time>2015-03-01T10:47:29.000Z</time>
      </trkpt>
      <trkpt lat="47.48702" lon="6.80069">
        <ele>312</ele>
        <time>2015-03-01T10:47:30.000Z</time>
      </trkpt>
      <trkpt lat="47.48702" lon="6.80062">
        <ele>312</ele>
        <time>2015-03-01T10:47:31.000Z</time>
      </trkpt>
      <trkpt lat="47.48702" lon="6.80055">
        <ele>311</ele>
        <time>2015-03-01T10:47:32.000Z</time>
      </trkpt>
      <trkpt lat="47.48701" lon="6.80048">
        <ele>311</ele>
        <time>2015-03-01T10:47:33.000Z</time>
      </trkpt>
      <trkpt lat="47.48702" lon="6.80041">
        <ele>311</ele>
        <time>2015-03-01T10:47:34.000Z</time>
      </trkpt>
      <trkpt lat="47.48702" lon="6.80035">
        <ele>311</ele>
        <time>2015-03-01T10:47:35.000Z</time>
      </trkpt>
      <trkpt lat="47.48702" lon="6.80028">
        <ele>311</ele>
        <time>2015-03-01T10:47:36.000Z</time>
      </trkpt>
      <trkpt lat="47.48702" lon="6.8002">
        <ele>311</ele>
        <time>2015-03-01T10:47:37.000Z</time>
      </trkpt>
      <trkpt lat="47.48702" lon="6.80013">
        <ele>311</ele>
        <time>2015-03-01T10:47:38.000Z</time>
      </trkpt>
      <trkpt lat="47.48702" lon="6.80005">
        <ele>311</ele>
        <time>2015-03-01T10:47:39.000Z</time>
      </trkpt>
      <trkpt lat="47.48702" lon="6.79998">
        <ele>311</ele>
        <time>2015-03-01T10:47:40.000Z</time>
      </trkpt>
      <trkpt lat="47.48702" lon="6.7999">
        <ele>311</ele>
        <time>2015-03-01T10:47:41.000Z</time>
      </trkpt>
      <trkpt lat="47.48702" lon="6.79983">
        <ele>311</ele>
        <time>2015-03-01T10:47:42.000Z</time>
      </trkpt>
      <trkpt lat="47.48702" lon="6.79976">
        <ele>311</ele>
        <time>2015-03-01T10:47:43.000Z</time>
      </trkpt>
      <trkpt lat="47.48701" lon="6.79969">
        <ele>311</ele>
        <time>2015-03-01T10:47:44.000Z</time>
      </trkpt>
      <trkpt lat="47.48702" lon="6.79961">
        <ele>312</ele>
        <time>2015-03-01T10:47:45.000Z</time>
      </trkpt>
      <trkpt lat="47.48701" lon="6.79954">
        <ele>312</ele>
        <time>2015-03-01T10:47:46.000Z</time>
      </trkpt>
      <trkpt lat="47.48701" lon="6.79946">
        <ele>312</ele>
        <time>2015-03-01T10:47:47.000Z</time>
      </trkpt>
      <trkpt lat="47.48701" lon="6.79938">
        <ele>312</ele>
        <time>2015-03-01T10:47:48.000Z</time>
      </trkpt>
      <trkpt lat="47.48701" lon="6.79931">
        <ele>312</ele>
        <time>2015-03-01T10:47:49.000Z</time>
      </trkpt>
      <trkpt lat="47.487" lon="6.79923">
        <ele>312</ele>
        <time>2015-03-01T10:47:50.000Z</time>
      </trkpt>
      <trkpt lat="47.48701" lon="6.79916">
        <ele>313</ele>
        <time>2015-03-01T10:47:51.000Z</time>
      </trkpt>
      <trkpt lat="47.48699" lon="6.79908">
        <ele>313</ele>
        <time>2015-03-01T10:47:52.000Z</time>
      </trkpt>
      <trkpt lat="47.48698" lon="6.799">
        <ele>313</ele>
        <time>2015-03-01T10:47:53.000Z</time>
      </trkpt>
      <trkpt lat="47.48697" lon="6.79893">
        <ele>313</ele>
        <time>2015-03-01T10:47:54.000Z</time>
      </trkpt>
      <trkpt lat="47.48697" lon="6.79885">
        <ele>312</ele>
        <time>2015-03-01T10:47:55.000Z</time>
      </trkpt>
      <trkpt lat="47.48697" lon="6.79876">
        <ele>312</ele>
        <time>2015-03-01T10:47:56.000Z</time>
      </trkpt>
      <trkpt lat="47.48696" lon="6.79867">
        <ele>312</ele>
        <time>2015-03-01T10:47:57.000Z</time>
      </trkpt>
      <trkpt lat="47.48695" lon="6.79859">
        <ele>312</ele>
        <time>2015-03-01T10:47:58.000Z</time>
      </trkpt>
      <trkpt lat="47.48694" lon="6.79851">
        <ele>312</ele>
        <time>2015-03-01T10:47:59.000Z</time>
      </trkpt>
      <trkpt lat="47.48694" lon="6.79842">
        <ele>312</ele>
        <time>2015-03-01T10:48:00.000Z</time>
      </trkpt>
      <trkpt lat="47.48693" lon="6.79834">
        <ele>312</ele>
        <time>2015-03-01T10:48:01.000Z</time>
      </trkpt>
      <trkpt lat="47.48692" lon="6.79826">
        <ele>312</ele>
        <time>2015-03-01T10:48:02.000Z</time>
      </trkpt>
      <trkpt lat="47.48691" lon="6.79818">
        <ele>312</ele>
        <time>2015-03-01T10:48:03.000Z</time>
      </trkpt>
      <trkpt lat="47.4869" lon="6.7981">
        <ele>312</ele>
        <time>2015-03-01T10:48:04.000Z</time>
      </trkpt>
      <trkpt lat="47.48689" lon="6.79802">
        <ele>312</ele>
        <time>2015-03-01T10:48:05.000Z</time>
      </trkpt>
      <trkpt lat="47.48688" lon="6.79795">
        <ele>312</ele>
        <time>2015-03-01T10:48:06.000Z</time>
      </trkpt>
      <trkpt lat="47.48686" lon="6.79788">
        <ele>312</ele>
        <time>2015-03-01T10:48:07.000Z</time>
      </trkpt>
      <trkpt lat="47.48686" lon="6.7978">
        <ele>312</ele>
        <time>2015-03-01T10:48:08.000Z</time>
      </trkpt>
      <trkpt lat="47.48685" lon="6.79772">
        <ele>312</ele>
        <time>2015-03-01T10:48:09.000Z</time>
      </trkpt>
      <trkpt lat="47.48683" lon="6.79764">
        <ele>312</ele>
        <time>2015-03-01T10:48:10.000Z</time>
      </trkpt>
      <trkpt lat="47.48682" lon="6.79757">
        <ele>311</ele>
        <time>2015-03-01T10:48:11.000Z</time>
      </trkpt>
      <trkpt lat="47.4868" lon="6.79749">
        <ele>312</ele>
        <time>2015-03-01T10:48:12.000Z</time>
      </trkpt>
      <trkpt lat="47.48679" lon="6.79742">
        <ele>312</ele>
        <time>2015-03-01T10:48:13.000Z</time>
      </trkpt>
      <trkpt lat="47.48677" lon="6.79735">
        <ele>312</ele>
        <time>2015-03-01T10:48:14.000Z</time>
      </trkpt>
      <trkpt lat="47.48676" lon="6.79726">
        <ele>312</ele>
        <time>2015-03-01T10:48:15.000Z</time>
      </trkpt>
      <trkpt lat="47.48674" lon="6.7972">
        <ele>312</ele>
        <time>2015-03-01T10:48:16.000Z</time>
      </trkpt>
      <trkpt lat="47.48672" lon="6.79713">
        <ele>312</ele>
        <time>2015-03-01T10:48:17.000Z</time>
      </trkpt>
      <trkpt lat="47.48671" lon="6.79707">
        <ele>313</ele>
        <time>2015-03-01T10:48:18.000Z</time>
      </trkpt>
      <trkpt lat="47.48669" lon="6.79699">
        <ele>313</ele>
        <time>2015-03-01T10:48:19.000Z</time>
      </trkpt>
      <trkpt lat="47.48668" lon="6.79692">
        <ele>313</ele>
        <time>2015-03-01T10:48:20.000Z</time>
      </trkpt>
      <trkpt lat="47.48667" lon="6.79684">
        <ele>313</ele>
        <time>2015-03-01T10:48:21.000Z</time>
      </trkpt>
      <trkpt lat="47.48666" lon="6.79676">
        <ele>313</ele>
        <time>2015-03-01T10:48:22.000Z</time>
      </trkpt>
      <trkpt lat="47.48664" lon="6.79669">
        <ele>313</ele>
        <time>2015-03-01T10:48:23.000Z</time>
      </trkpt>
      <trkpt lat="47.48662" lon="6.79661">
        <ele>313</ele>
        <time>2015-03-01T10:48:24.000Z</time>
      </trkpt>
      <trkpt lat="47.4866" lon="6.79654">
        <ele>313</ele>
        <time>2015-03-01T10:48:25.000Z</time>
      </trkpt>
      <trkpt lat="47.48659" lon="6.79647">
        <ele>313</ele>
        <time>2015-03-01T10:48:26.000Z</time>
      </trkpt>
      <trkpt lat="47.48656" lon="6.7964">
        <ele>313</ele>
        <time>2015-03-01T10:48:27.000Z</time>
      </trkpt>
      <trkpt lat="47.48655" lon="6.79633">
        <ele>313</ele>
        <time>2015-03-01T10:48:28.000Z</time>
      </trkpt>
      <trkpt lat="47.48653" lon="6.79625">
        <ele>313</ele>
        <time>2015-03-01T10:48:29.000Z</time>
      </trkpt>
      <trkpt lat="47.48651" lon="6.79618">
        <ele>313</ele>
        <time>2015-03-01T10:48:30.000Z</time>
      </trkpt>
      <trkpt lat="47.4865" lon="6.79611">
        <ele>313</ele>
        <time>2015-03-01T10:48:31.000Z</time>
      </trkpt>
      <trkpt lat="47.48648" lon="6.79604">
        <ele>313</ele>
        <time>2015-03-01T10:48:32.000Z</time>
      </trkpt>
      <trkpt lat="47.48645" lon="6.79598">
        <ele>313</ele>
        <time>2015-03-01T10:48:33.000Z</time>
      </trkpt>
      <trkpt lat="47.48643" lon="6.79592">
        <ele>313</ele>
        <time>2015-03-01T10:48:34.000Z</time>
      </trkpt>
      <trkpt lat="47.4864" lon="6.79587">
        <ele>313</ele>
        <time>2015-03-01T10:48:35.000Z</time>
      </trkpt>
      <trkpt lat="47.48637" lon="6.79581">
        <ele>313</ele>
        <time>2015-03-01T10:48:36.000Z</time>
      </trkpt>
      <trkpt lat="47.48634" lon="6.79573">
        <ele>313</ele>
        <time>2015-03-01T10:48:37.000Z</time>
      </trkpt>
      <trkpt lat="47.48631" lon="6.79567">
        <ele>313</ele>
        <time>2015-03-01T10:48:38.000Z</time>
      </trkpt>
      <trkpt lat="47.48628" lon="6.79561">
        <ele>313</ele>
        <time>2015-03-01T10:48:39.000Z</time>
      </trkpt>
      <trkpt lat="47.48624" lon="6.79554">
        <ele>313</ele>
        <time>2015-03-01T10:48:40.000Z</time>
      </trkpt>
      <trkpt lat="47.48622" lon="6.79548">
        <ele>313</ele>
        <time>2015-03-01T10:48:41.000Z</time>
      </trkpt>
      <trkpt lat="47.48619" lon="6.79542">
        <ele>312</ele>
        <time>2015-03-01T10:48:42.000Z</time>
      </trkpt>
      <trkpt lat="47.48616" lon="6.79537">
        <ele>312</ele>
        <time>2015-03-01T10:48:43.000Z</time>
      </trkpt>
      <trkpt lat="47.48614" lon="6.79532">
        <ele>312</ele>
        <time>2015-03-01T10:48:44.000Z</time>
      </trkpt>
      <trkpt lat="47.4861" lon="6.79526">
        <ele>312</ele>
        <time>2015-03-01T10:48:45.000Z</time>
      </trkpt>
      <trkpt lat="47.48607" lon="6.79519">
        <ele>312</ele>
        <time>2015-03-01T10:48:46.000Z</time>
      </trkpt>
      <trkpt lat="47.48604" lon="6.79514">
        <ele>312</ele>
        <time>2015-03-01T10:48:47.000Z</time>
      </trkpt>
      <trkpt lat="47.486" lon="6.79509">
        <ele>312</ele>
        <time>2015-03-01T10:48:48.000Z</time>
      </trkpt>
      <trkpt lat="47.48598" lon="6.79504">
        <ele>312</ele>
        <time>2015-03-01T10:48:49.000Z</time>
      </trkpt>
      <trkpt lat="47.48596" lon="6.79497">
        <ele>311</ele>
        <time>2015-03-01T10:48:50.000Z</time>
      </trkpt>
      <trkpt lat="47.48593" lon="6.79492">
        <ele>311</ele>
        <time>2015-03-01T10:48:51.000Z</time>
      </trkpt>
      <trkpt lat="47.4859" lon="6.79486">
        <ele>311</ele>
        <time>2015-03-01T10:48:52.000Z</time>
      </trkpt>
      <trkpt lat="47.48587" lon="6.79479">
        <ele>312</ele>
        <time>2015-03-01T10:48:53.000Z</time>
      </trkpt>
      <trkpt lat="47.48584" lon="6.79474">
        <ele>312</ele>
        <time>2015-03-01T10:48:54.000Z</time>
      </trkpt>
      <trkpt lat="47.48581" lon="6.79467">
        <ele>311</ele>
        <time>2015-03-01T10:48:55.000Z</time>
      </trkpt>
      <trkpt lat="47.48578" lon="6.79461">
        <ele>311</ele>
        <time>2015-03-01T10:48:56.000Z</time>
      </trkpt>
      <trkpt lat="47.48576" lon="6.79454">
        <ele>311</ele>
        <time>2015-03-01T10:48:57.000Z</time>
      </trkpt>
      <trkpt lat="47.48573" lon="6.79448">
        <ele>311</ele>
        <time>2015-03-01T10:48:58.000Z</time>
      </trkpt>
      <trkpt lat="47.48571" lon="6.7944">
        <ele>311</ele>
        <time>2015-03-01T10:48:59.000Z</time>
      </trkpt>
      <trkpt lat="47.48569" lon="6.79434">
        <ele>311</ele>
        <time>2015-03-01T10:49:00.000Z</time>
      </trkpt>
      <trkpt lat="47.48566" lon="6.79428">
        <ele>311</ele>
        <time>2015-03-01T10:49:01.000Z</time>
      </trkpt>
      <trkpt lat="47.48564" lon="6.79422">
        <ele>311</ele>
        <time>2015-03-01T10:49:02.000Z</time>
      </trkpt>
      <trkpt lat="47.48561" lon="6.79417">
        <ele>311</ele>
        <time>2015-03-01T10:49:03.000Z</time>
      </trkpt>
      <trkpt lat="47.48558" lon="6.79411">
        <ele>311</ele>
        <time>2015-03-01T10:49:04.000Z</time>
      </trkpt>
      <trkpt lat="47.48554" lon="6.79406">
        <ele>311</ele>
        <time>2015-03-01T10:49:05.000Z</time>
      </trkpt>
      <trkpt lat="47.48551" lon="6.79399">
        <ele>311</ele>
        <time>2015-03-01T10:49:06.000Z</time>
      </trkpt>
      <trkpt lat="47.4855" lon="6.79393">
        <ele>311</ele>
        <time>2015-03-01T10:49:07.000Z</time>
      </trkpt>
      <trkpt lat="47.48546" lon="6.79387">
        <ele>311</ele>
        <time>2015-03-01T10:49:08.000Z</time>
      </trkpt>
      <trkpt lat="47.48542" lon="6.79381">
        <ele>311</ele>
        <time>2015-03-01T10:49:09.000Z</time>
      </trkpt>
      <trkpt lat="47.4854" lon="6.79374">
        <ele>311</ele>
        <time>2015-03-01T10:49:10.000Z</time>
      </trkpt>
      <trkpt lat="47.48536" lon="6.79369">
        <ele>311</ele>
        <time>2015-03-01T10:49:11.000Z</time>
      </trkpt>
      <trkpt lat="47.48533" lon="6.79363">
        <ele>311</ele>
        <time>2015-03-01T10:49:12.000Z</time>
      </trkpt>
      <trkpt lat="47.4853" lon="6.79357">
        <ele>311</ele>
        <time>2015-03-01T10:49:13.000Z</time>
      </trkpt>
      <trkpt lat="47.48528" lon="6.79352">
        <ele>311</ele>
        <time>2015-03-01T10:49:14.000Z</time>
      </trkpt>
      <trkpt lat="47.48525" lon="6.79345">
        <ele>311</ele>
        <time>2015-03-01T10:49:15.000Z</time>
      </trkpt>
      <trkpt lat="47.48523" lon="6.79339">
        <ele>311</ele>
        <time>2015-03-01T10:49:16.000Z</time>
      </trkpt>
      <trkpt lat="47.48521" lon="6.79332">
        <ele>311</ele>
        <time>2015-03-01T10:49:17.000Z</time>
      </trkpt>
      <trkpt lat="47.48519" lon="6.79327">
        <ele>311</ele>
        <time>2015-03-01T10:49:18.000Z</time>
      </trkpt>
      <trkpt lat="47.48517" lon="6.7932">
        <ele>311</ele>
        <time>2015-03-01T10:49:19.000Z</time>
      </trkpt>
      <trkpt lat="47.48514" lon="6.79315">
        <ele>311</ele>
        <time>2015-03-01T10:49:20.000Z</time>
      </trkpt>
      <trkpt lat="47.4851" lon="6.79308">
        <ele>311</ele>
        <time>2015-03-01T10:49:21.000Z</time>
      </trkpt>
      <trkpt lat="47.48507" lon="6.79302">
        <ele>311</ele>
        <time>2015-03-01T10:49:22.000Z</time>
      </trkpt>
      <trkpt lat="47.48504" lon="6.79296">
        <ele>311</ele>
        <time>2015-03-01T10:49:23.000Z</time>
      </trkpt>
      <trkpt lat="47.48501" lon="6.7929">
        <ele>311</ele>
        <time>2015-03-01T10:49:24.000Z</time>
      </trkpt>
      <trkpt lat="47.48498" lon="6.79284">
        <ele>312</ele>
        <time>2015-03-01T10:49:25.000Z</time>
      </trkpt>
      <trkpt lat="47.48495" lon="6.79279">
        <ele>312</ele>
        <time>2015-03-01T10:49:26.000Z</time>
      </trkpt>
      <trkpt lat="47.48492" lon="6.79273">
        <ele>312</ele>
        <time>2015-03-01T10:49:27.000Z</time>
      </trkpt>
      <trkpt lat="47.48489" lon="6.79269">
        <ele>312</ele>
        <time>2015-03-01T10:49:28.000Z</time>
      </trkpt>
      <trkpt lat="47.48486" lon="6.79262">
        <ele>312</ele>
        <time>2015-03-01T10:49:29.000Z</time>
      </trkpt>
      <trkpt lat="47.48483" lon="6.79256">
        <ele>312</ele>
        <time>2015-03-01T10:49:30.000Z</time>
      </trkpt>
      <trkpt lat="47.48481" lon="6.79251">
        <ele>312</ele>
        <time>2015-03-01T10:49:31.000Z</time>
      </trkpt>
      <trkpt lat="47.48478" lon="6.79245">
        <ele>312</ele>
        <time>2015-03-01T10:49:32.000Z</time>
      </trkpt>
      <trkpt lat="47.48475" lon="6.79239">
        <ele>312</ele>
        <time>2015-03-01T10:49:33.000Z</time>
      </trkpt>
      <trkpt lat="47.48473" lon="6.79233">
        <ele>312</ele>
        <time>2015-03-01T10:49:34.000Z</time>
      </trkpt>
      <trkpt lat="47.4847" lon="6.79227">
        <ele>312</ele>
        <time>2015-03-01T10:49:35.000Z</time>
      </trkpt>
      <trkpt lat="47.48467" lon="6.79223">
        <ele>313</ele>
        <time>2015-03-01T10:49:36.000Z</time>
      </trkpt>
      <trkpt lat="47.48464" lon="6.79217">
        <ele>313</ele>
        <time>2015-03-01T10:49:37.000Z</time>
      </trkpt>
      <trkpt lat="47.48462" lon="6.79212">
        <ele>313</ele>
        <time>2015-03-01T10:49:38.000Z</time>
      </trkpt>
      <trkpt lat="47.48459" lon="6.79206">
        <ele>313</ele>
        <time>2015-03-01T10:49:39.000Z</time>
      </trkpt>
      <trkpt lat="47.48456" lon="6.79201">
        <ele>313</ele>
        <time>2015-03-01T10:49:40.000Z</time>
      </trkpt>
      <trkpt lat="47.48453" lon="6.79194">
        <ele>313</ele>
        <time>2015-03-01T10:49:41.000Z</time>
      </trkpt>
      <trkpt lat="47.48451" lon="6.79189">
        <ele>313</ele>
        <time>2015-03-01T10:49:42.000Z</time>
      </trkpt>
      <trkpt lat="47.48448" lon="6.79182">
        <ele>313</ele>
        <time>2015-03-01T10:49:43.000Z</time>
      </trkpt>
      <trkpt lat="47.48446" lon="6.79176">
        <ele>313</ele>
        <time>2015-03-01T10:49:44.000Z</time>
      </trkpt>
      <trkpt lat="47.48443" lon="6.79171">
        <ele>313</ele>
        <time>2015-03-01T10:49:45.000Z</time>
      </trkpt>
      <trkpt lat="47.4844" lon="6.79166">
        <ele>313</ele>
        <time>2015-03-01T10:49:46.000Z</time>
      </trkpt>
      <trkpt lat="47.48437" lon="6.79161">
        <ele>313</ele>
        <time>2015-03-01T10:49:47.000Z</time>
      </trkpt>
      <trkpt lat="47.48435" lon="6.79155">
        <ele>313</ele>
        <time>2015-03-01T10:49:48.000Z</time>
      </trkpt>
      <trkpt lat="47.48431" lon="6.7915">
        <ele>313</ele>
        <time>2015-03-01T10:49:49.000Z</time>
      </trkpt>
      <trkpt lat="47.48428" lon="6.79146">
        <ele>313</ele>
        <time>2015-03-01T10:49:50.000Z</time>
      </trkpt>
      <trkpt lat="47.48426" lon="6.79141">
        <ele>313</ele>
        <time>2015-03-01T10:49:51.000Z</time>
      </trkpt>
      <trkpt lat="47.48423" lon="6.79137">
        <ele>313</ele>
        <time>2015-03-01T10:49:52.000Z</time>
      </trkpt>
      <trkpt lat="47.48422" lon="6.79131">
        <ele>313</ele>
        <time>2015-03-01T10:49:53.000Z</time>
      </trkpt>
      <trkpt lat="47.4842" lon="6.79126">
        <ele>313</ele>
        <time>2015-03-01T10:49:54.000Z</time>
      </trkpt>
      <trkpt lat="47.48419" lon="6.7912">
        <ele>313</ele>
        <time>2015-03-01T10:49:55.000Z</time>
      </trkpt>
      <trkpt lat="47.48417" lon="6.79119">
        <ele>313</ele>
        <time>2015-03-01T10:49:56.000Z</time>
      </trkpt>
      <trkpt lat="47.48415" lon="6.79116">
        <ele>314</ele>
        <time>2015-03-01T10:49:57.000Z</time>
      </trkpt>
      <trkpt lat="47.48414" lon="6.79109">
        <ele>314</ele>
        <time>2015-03-01T10:49:58.000Z</time>
      </trkpt>
      <trkpt lat="47.48412" lon="6.79105">
        <ele>314</ele>
        <time>2015-03-01T10:49:59.000Z</time>
      </trkpt>
      <trkpt lat="47.48411" lon="6.79102">
        <ele>314</ele>
        <time>2015-03-01T10:50:00.000Z</time>
      </trkpt>
      <trkpt lat="47.48409" lon="6.79097">
        <ele>314</ele>
        <time>2015-03-01T10:50:01.000Z</time>
      </trkpt>
      <trkpt lat="47.48409" lon="6.79094">
        <ele>314</ele>
        <time>2015-03-01T10:50:02.000Z</time>
      </trkpt>
      <trkpt lat="47.48409" lon="6.7909">
        <ele>314</ele>
        <time>2015-03-01T10:50:03.000Z</time>
      </trkpt>
      <trkpt lat="47.48409" lon="6.79084">
        <ele>314</ele>
        <time>2015-03-01T10:50:04.000Z</time>
      </trkpt>
      <trkpt lat="47.4841" lon="6.79079">
        <ele>314</ele>
        <time>2015-03-01T10:50:05.000Z</time>
      </trkpt>
      <trkpt lat="47.4841" lon="6.79073">
        <ele>314</ele>
        <time>2015-03-01T10:50:06.000Z</time>
      </trkpt>
      <trkpt lat="47.48411" lon="6.79066">
        <ele>314</ele>
        <time>2015-03-01T10:50:07.000Z</time>
      </trkpt>
      <trkpt lat="47.48412" lon="6.7906">
        <ele>314</ele>
        <time>2015-03-01T10:50:08.000Z</time>
      </trkpt>
      <trkpt lat="47.48413" lon="6.79053">
        <ele>314</ele>
        <time>2015-03-01T10:50:09.000Z</time>
      </trkpt>
      <trkpt lat="47.48414" lon="6.79046">
        <ele>314</ele>
        <time>2015-03-01T10:50:10.000Z</time>
      </trkpt>
      <trkpt lat="47.48415" lon="6.79039">
        <ele>314</ele>
        <time>2015-03-01T10:50:11.000Z</time>
      </trkpt>
      <trkpt lat="47.48418" lon="6.79028">
        <ele>312</ele>
        <time>2015-03-01T10:50:12.000Z</time>
      </trkpt>
      <trkpt lat="47.48419" lon="6.79022">
        <ele>312</ele>
        <time>2015-03-01T10:50:13.000Z</time>
      </trkpt>
      <trkpt lat="47.4842" lon="6.79016">
        <ele>312</ele>
        <time>2015-03-01T10:50:14.000Z</time>
      </trkpt>
      <trkpt lat="47.48421" lon="6.79009">
        <ele>313</ele>
        <time>2015-03-01T10:50:15.000Z</time>
      </trkpt>
      <trkpt lat="47.48422" lon="6.79002">
        <ele>313</ele>
        <time>2015-03-01T10:50:16.000Z</time>
      </trkpt>
      <trkpt lat="47.48424" lon="6.78995">
        <ele>312</ele>
        <time>2015-03-01T10:50:17.000Z</time>
      </trkpt>
      <trkpt lat="47.48425" lon="6.78989">
        <ele>312</ele>
        <time>2015-03-01T10:50:18.000Z</time>
      </trkpt>
      <trkpt lat="47.48426" lon="6.78982">
        <ele>312</ele>
        <time>2015-03-01T10:50:19.000Z</time>
      </trkpt>
      <trkpt lat="47.48427" lon="6.78976">
        <ele>312</ele>
        <time>2015-03-01T10:50:20.000Z</time>
      </trkpt>
      <trkpt lat="47.48429" lon="6.7897">
        <ele>311</ele>
        <time>2015-03-01T10:50:21.000Z</time>
      </trkpt>
      <trkpt lat="47.48432" lon="6.78961">
        <ele>311</ele>
        <time>2015-03-01T10:50:22.000Z</time>
      </trkpt>
      <trkpt lat="47.48433" lon="6.78954">
        <ele>311</ele>
        <time>2015-03-01T10:50:23.000Z</time>
      </trkpt>
      <trkpt lat="47.48433" lon="6.78947">
        <ele>311</ele>
        <time>2015-03-01T10:50:24.000Z</time>
      </trkpt>
      <trkpt lat="47.48434" lon="6.7894">
        <ele>311</ele>
        <time>2015-03-01T10:50:25.000Z</time>
      </trkpt>
      <trkpt lat="47.48435" lon="6.78933">
        <ele>311</ele>
        <time>2015-03-01T10:50:26.000Z</time>
      </trkpt>
      <trkpt lat="47.48435" lon="6.78927">
        <ele>311</ele>
        <time>2015-03-01T10:50:27.000Z</time>
      </trkpt>
      <trkpt lat="47.48437" lon="6.78918">
        <ele>311</ele>
        <time>2015-03-01T10:50:28.000Z</time>
      </trkpt>
      <trkpt lat="47.48439" lon="6.78912">
        <ele>311</ele>
        <time>2015-03-01T10:50:29.000Z</time>
      </trkpt>
      <trkpt lat="47.4844" lon="6.78905">
        <ele>311</ele>
        <time>2015-03-01T10:50:30.000Z</time>
      </trkpt>
      <trkpt lat="47.48441" lon="6.78898">
        <ele>311</ele>
        <time>2015-03-01T10:50:31.000Z</time>
      </trkpt>
      <trkpt lat="47.48441" lon="6.78891">
        <ele>311</ele>
        <time>2015-03-01T10:50:32.000Z</time>
      </trkpt>
      <trkpt lat="47.48443" lon="6.78883">
        <ele>311</ele>
        <time>2015-03-01T10:50:33.000Z</time>
      </trkpt>
      <trkpt lat="47.48444" lon="6.78876">
        <ele>311</ele>
        <time>2015-03-01T10:50:34.000Z</time>
      </trkpt>
      <trkpt lat="47.48445" lon="6.78869">
        <ele>311</ele>
        <time>2015-03-01T10:50:35.000Z</time>
      </trkpt>
      <trkpt lat="47.48444" lon="6.78863">
        <ele>311</ele>
        <time>2015-03-01T10:50:36.000Z</time>
      </trkpt>
      <trkpt lat="47.48446" lon="6.78858">
        <ele>311</ele>
        <time>2015-03-01T10:50:37.000Z</time>
      </trkpt>
      <trkpt lat="47.48448" lon="6.78849">
        <ele>311</ele>
        <time>2015-03-01T10:50:38.000Z</time>
      </trkpt>
      <trkpt lat="47.48448" lon="6.78843">
        <ele>311</ele>
        <time>2015-03-01T10:50:39.000Z</time>
      </trkpt>
      <trkpt lat="47.4845" lon="6.78837">
        <ele>311</ele>
        <time>2015-03-01T10:50:40.000Z</time>
      </trkpt>
      <trkpt lat="47.4845" lon="6.7883">
        <ele>312</ele>
        <time>2015-03-01T10:50:41.000Z</time>
      </trkpt>
      <trkpt lat="47.48452" lon="6.78823">
        <ele>312</ele>
        <time>2015-03-01T10:50:42.000Z</time>
      </trkpt>
      <trkpt lat="47.48453" lon="6.78816">
        <ele>312</ele>
        <time>2015-03-01T10:50:43.000Z</time>
      </trkpt>
      <trkpt lat="47.48455" lon="6.78809">
        <ele>312</ele>
        <time>2015-03-01T10:50:44.000Z</time>
      </trkpt>
      <trkpt lat="47.48455" lon="6.78804">
        <ele>312</ele>
        <time>2015-03-01T10:50:45.000Z</time>
      </trkpt>
      <trkpt lat="47.48457" lon="6.78795">
        <ele>312</ele>
        <time>2015-03-01T10:50:46.000Z</time>
      </trkpt>
      <trkpt lat="47.48459" lon="6.78787">
        <ele>312</ele>
        <time>2015-03-01T10:50:47.000Z</time>
      </trkpt>
      <trkpt lat="47.4846" lon="6.7878">
        <ele>312</ele>
        <time>2015-03-01T10:50:48.000Z</time>
      </trkpt>
      <trkpt lat="47.48461" lon="6.78772">
        <ele>312</ele>
        <time>2015-03-01T10:50:49.000Z</time>
      </trkpt>
      <trkpt lat="47.48463" lon="6.78766">
        <ele>312</ele>
        <time>2015-03-01T10:50:50.000Z</time>
      </trkpt>
      <trkpt lat="47.48465" lon="6.78758">
        <ele>312</ele>
        <time>2015-03-01T10:50:51.000Z</time>
      </trkpt>
      <trkpt lat="47.48467" lon="6.7875">
        <ele>312</ele>
        <time>2015-03-01T10:50:52.000Z</time>
      </trkpt>
      <trkpt lat="47.48469" lon="6.78742">
        <ele>312</ele>
        <time>2015-03-01T10:50:53.000Z</time>
      </trkpt>
      <trkpt lat="47.48471" lon="6.78736">
        <ele>313</ele>
        <time>2015-03-01T10:50:54.000Z</time>
      </trkpt>
      <trkpt lat="47.48473" lon="6.7873">
        <ele>313</ele>
        <time>2015-03-01T10:50:55.000Z</time>
      </trkpt>
      <trkpt lat="47.48474" lon="6.78724">
        <ele>313</ele>
        <time>2015-03-01T10:50:56.000Z</time>
      </trkpt>
      <trkpt lat="47.48474" lon="6.78715">
        <ele>313</ele>
        <time>2015-03-01T10:50:57.000Z</time>
      </trkpt>
      <trkpt lat="47.48476" lon="6.78707">
        <ele>313</ele>
        <time>2015-03-01T10:50:58.000Z</time>
      </trkpt>
      <trkpt lat="47.48478" lon="6.787">
        <ele>313</ele>
        <time>2015-03-01T10:50:59.000Z</time>
      </trkpt>
      <trkpt lat="47.48479" lon="6.78693">
        <ele>313</ele>
        <time>2015-03-01T10:51:00.000Z</time>
      </trkpt>
      <trkpt lat="47.48481" lon="6.78687">
        <ele>313</ele>
        <time>2015-03-01T10:51:01.000Z</time>
      </trkpt>
      <trkpt lat="47.48483" lon="6.78678">
        <ele>313</ele>
        <time>2015-03-01T10:51:02.000Z</time>
      </trkpt>
      <trkpt lat="47.48484" lon="6.78671">
        <ele>313</ele>
        <time>2015-03-01T10:51:03.000Z</time>
      </trkpt>
      <trkpt lat="47.48485" lon="6.78664">
        <ele>313</ele>
        <time>2015-03-01T10:51:04.000Z</time>
      </trkpt>
      <trkpt lat="47.48486" lon="6.78654">
        <ele>313</ele>
        <time>2015-03-01T10:51:05.000Z</time>
      </trkpt>
      <trkpt lat="47.48488" lon="6.78648">
        <ele>313</ele>
        <time>2015-03-01T10:51:06.000Z</time>
      </trkpt>
      <trkpt lat="47.4849" lon="6.78642">
        <ele>313</ele>
        <time>2015-03-01T10:51:07.000Z</time>
      </trkpt>
      <trkpt lat="47.48491" lon="6.78636">
        <ele>313</ele>
        <time>2015-03-01T10:51:08.000Z</time>
      </trkpt>
      <trkpt lat="47.48492" lon="6.7863">
        <ele>313</ele>
        <time>2015-03-01T10:51:09.000Z</time>
      </trkpt>
      <trkpt lat="47.48493" lon="6.78622">
        <ele>312</ele>
        <time>2015-03-01T10:51:10.000Z</time>
      </trkpt>
      <trkpt lat="47.48495" lon="6.78616">
        <ele>312</ele>
        <time>2015-03-01T10:51:11.000Z</time>
      </trkpt>
      <trkpt lat="47.48497" lon="6.78609">
        <ele>312</ele>
        <time>2015-03-01T10:51:12.000Z</time>
      </trkpt>
      <trkpt lat="47.48497" lon="6.78602">
        <ele>312</ele>
        <time>2015-03-01T10:51:13.000Z</time>
      </trkpt>
      <trkpt lat="47.48498" lon="6.78597">
        <ele>312</ele>
        <time>2015-03-01T10:51:14.000Z</time>
      </trkpt>
      <trkpt lat="47.485" lon="6.7859">
        <ele>311</ele>
        <time>2015-03-01T10:51:15.000Z</time>
      </trkpt>
      <trkpt lat="47.48502" lon="6.78583">
        <ele>311</ele>
        <time>2015-03-01T10:51:16.000Z</time>
      </trkpt>
      <trkpt lat="47.48503" lon="6.78577">
        <ele>311</ele>
        <time>2015-03-01T10:51:17.000Z</time>
      </trkpt>
      <trkpt lat="47.48504" lon="6.7857">
        <ele>312</ele>
        <time>2015-03-01T10:51:18.000Z</time>
      </trkpt>
      <trkpt lat="47.48504" lon="6.78563">
        <ele>312</ele>
        <time>2015-03-01T10:51:19.000Z</time>
      </trkpt>
      <trkpt lat="47.48504" lon="6.78555">
        <ele>312</ele>
        <time>2015-03-01T10:51:20.000Z</time>
      </trkpt>
      <trkpt lat="47.48503" lon="6.78547">
        <ele>312</ele>
        <time>2015-03-01T10:51:21.000Z</time>
      </trkpt>
      <trkpt lat="47.48501" lon="6.78539">
        <ele>312</ele>
        <time>2015-03-01T10:51:22.000Z</time>
      </trkpt>
      <trkpt lat="47.48499" lon="6.78531">
        <ele>312</ele>
        <time>2015-03-01T10:51:23.000Z</time>
      </trkpt>
      <trkpt lat="47.48497" lon="6.78525">
        <ele>312</ele>
        <time>2015-03-01T10:51:24.000Z</time>
      </trkpt>
      <trkpt lat="47.48494" lon="6.78518">
        <ele>312</ele>
        <time>2015-03-01T10:51:25.000Z</time>
      </trkpt>
      <trkpt lat="47.48492" lon="6.78513">
        <ele>312</ele>
        <time>2015-03-01T10:51:26.000Z</time>
      </trkpt>
      <trkpt lat="47.48492" lon="6.78505">
        <ele>311</ele>
        <time>2015-03-01T10:51:27.000Z</time>
      </trkpt>
      <trkpt lat="47.48491" lon="6.78497">
        <ele>312</ele>
        <time>2015-03-01T10:51:28.000Z</time>
      </trkpt>
      <trkpt lat="47.48489" lon="6.7849">
        <ele>312</ele>
        <time>2015-03-01T10:51:29.000Z</time>
      </trkpt>
      <trkpt lat="47.48488" lon="6.78484">
        <ele>312</ele>
        <time>2015-03-01T10:51:30.000Z</time>
      </trkpt>
      <trkpt lat="47.48487" lon="6.78476">
        <ele>312</ele>
        <time>2015-03-01T10:51:31.000Z</time>
      </trkpt>
      <trkpt lat="47.48486" lon="6.78469">
        <ele>312</ele>
        <time>2015-03-01T10:51:31.999Z</time>
      </trkpt>
      <trkpt lat="47.48485" lon="6.78463">
        <ele>312</ele>
        <time>2015-03-01T10:51:33.000Z</time>
      </trkpt>
      <trkpt lat="47.48483" lon="6.78458">
        <ele>313</ele>
        <time>2015-03-01T10:51:34.000Z</time>
      </trkpt>
      <trkpt lat="47.48482" lon="6.7845">
        <ele>313</ele>
        <time>2015-03-01T10:51:35.000Z</time>
      </trkpt>
      <trkpt lat="47.48481" lon="6.78444">
        <ele>313</ele>
        <time>2015-03-01T10:51:36.000Z</time>
      </trkpt>
      <trkpt lat="47.4848" lon="6.78437">
        <ele>313</ele>
        <time>2015-03-01T10:51:37.000Z</time>
      </trkpt>
      <trkpt lat="47.48478" lon="6.78431">
        <ele>313</ele>
        <time>2015-03-01T10:51:38.000Z</time>
      </trkpt>
      <trkpt lat="47.48477" lon="6.78424">
        <ele>313</ele>
        <time>2015-03-01T10:51:39.000Z</time>
      </trkpt>
      <trkpt lat="47.48477" lon="6.78416">
        <ele>313</ele>
        <time>2015-03-01T10:51:40.000Z</time>
      </trkpt>
      <trkpt lat="47.48477" lon="6.78409">
        <ele>313</ele>
        <time>2015-03-01T10:51:41.000Z</time>
      </trkpt>
      <trkpt lat="47.48476" lon="6.78403">
        <ele>313</ele>
        <time>2015-03-01T10:51:42.000Z</time>
      </trkpt>
      <trkpt lat="47.48475" lon="6.78395">
        <ele>313</ele>
        <time>2015-03-01T10:51:43.000Z</time>
      </trkpt>
      <trkpt lat="47.48475" lon="6.78387">
        <ele>313</ele>
        <time>2015-03-01T10:51:44.000Z</time>
      </trkpt>
      <trkpt lat="47.48474" lon="6.7838">
        <ele>313</ele>
        <time>2015-03-01T10:51:45.000Z</time>
      </trkpt>
      <trkpt lat="47.48472" lon="6.78374">
        <ele>313</ele>
        <time>2015-03-01T10:51:46.000Z</time>
      </trkpt>
      <trkpt lat="47.48471" lon="6.78366">
        <ele>313</ele>
        <time>2015-03-01T10:51:47.000Z</time>
      </trkpt>
      <trkpt lat="47.48471" lon="6.78359">
        <ele>313</ele>
        <time>2015-03-01T10:51:48.000Z</time>
      </trkpt>
      <trkpt lat="47.48469" lon="6.78352">
        <ele>313</ele>
        <time>2015-03-01T10:51:49.000Z</time>
      </trkpt>
      <trkpt lat="47.48468" lon="6.78345">
        <ele>313</ele>
        <time>2015-03-01T10:51:50.000Z</time>
      </trkpt>
      <trkpt lat="47.48468" lon="6.78336">
        <ele>313</ele>
        <time>2015-03-01T10:51:51.000Z</time>
      </trkpt>
      <trkpt lat="47.48467" lon="6.78329">
        <ele>312</ele>
        <time>2015-03-01T10:51:52.000Z</time>
      </trkpt>
      <trkpt lat="47.48465" lon="6.78323">
        <ele>312</ele>
        <time>2015-03-01T10:51:53.000Z</time>
      </trkpt>
      <trkpt lat="47.48464" lon="6.78316">
        <ele>312</ele>
        <time>2015-03-01T10:51:54.000Z</time>
      </trkpt>
      <trkpt lat="47.48463" lon="6.78307">
        <ele>312</ele>
        <time>2015-03-01T10:51:55.000Z</time>
      </trkpt>
      <trkpt lat="47.48463" lon="6.783">
        <ele>312</ele>
        <time>2015-03-01T10:51:56.000Z</time>
      </trkpt>
      <trkpt lat="47.48462" lon="6.78293">
        <ele>312</ele>
        <time>2015-03-01T10:51:57.000Z</time>
      </trkpt>
      <trkpt lat="47.48462" lon="6.78286">
        <ele>312</ele>
        <time>2015-03-01T10:51:58.000Z</time>
      </trkpt>
      <trkpt lat="47.48461" lon="6.7828">
        <ele>312</ele>
        <time>2015-03-01T10:51:59.000Z</time>
      </trkpt>
      <trkpt lat="47.4846" lon="6.78273">
        <ele>312</ele>
        <time>2015-03-01T10:52:00.000Z</time>
      </trkpt>
      <trkpt lat="47.4846" lon="6.78266">
        <ele>312</ele>
        <time>2015-03-01T10:52:01.000Z</time>
      </trkpt>
      <trkpt lat="47.4846" lon="6.78259">
        <ele>312</ele>
        <time>2015-03-01T10:52:02.000Z</time>
      </trkpt>
      <trkpt lat="47.48459" lon="6.78252">
        <ele>312</ele>
        <time>2015-03-01T10:52:03.000Z</time>
      </trkpt>
      <trkpt lat="47.48458" lon="6.78246">
        <ele>312</ele>
        <time>2015-03-01T10:52:04.000Z</time>
      </trkpt>
      <trkpt lat="47.48455" lon="6.78238">
        <ele>312</ele>
        <time>2015-03-01T10:52:05.000Z</time>
      </trkpt>
      <trkpt lat="47.48454" lon="6.7823">
        <ele>312</ele>
        <time>2015-03-01T10:52:06.000Z</time>
      </trkpt>
      <trkpt lat="47.48453" lon="6.78222">
        <ele>312</ele>
        <time>2015-03-01T10:52:07.000Z</time>
      </trkpt>
      <trkpt lat="47.48451" lon="6.78214">
        <ele>312</ele>
        <time>2015-03-01T10:52:08.000Z</time>
      </trkpt>
      <trkpt lat="47.4845" lon="6.78208">
        <ele>312</ele>
        <time>2015-03-01T10:52:09.000Z</time>
      </trkpt>
      <trkpt lat="47.4845" lon="6.78201">
        <ele>312</ele>
        <time>2015-03-01T10:52:10.000Z</time>
      </trkpt>
      <trkpt lat="47.48449" lon="6.78194">
        <ele>312</ele>
        <time>2015-03-01T10:52:11.000Z</time>
      </trkpt>
      <trkpt lat="47.4845" lon="6.78186">
        <ele>312</ele>
        <time>2015-03-01T10:52:12.000Z</time>
      </trkpt>
      <trkpt lat="47.4845" lon="6.78178">
        <ele>312</ele>
        <time>2015-03-01T10:52:13.000Z</time>
      </trkpt>
      <trkpt lat="47.48451" lon="6.7817">
        <ele>312</ele>
        <time>2015-03-01T10:52:14.000Z</time>
      </trkpt>
      <trkpt lat="47.48452" lon="6.78161">
        <ele>312</ele>
        <time>2015-03-01T10:52:15.000Z</time>
      </trkpt>
      <trkpt lat="47.48453" lon="6.78152">
        <ele>312</ele>
        <time>2015-03-01T10:52:16.000Z</time>
      </trkpt>
      <trkpt lat="47.48454" lon="6.78144">
        <ele>312</ele>
        <time>2015-03-01T10:52:17.000Z</time>
      </trkpt>
      <trkpt lat="47.48457" lon="6.78135">
        <ele>312</ele>
        <time>2015-03-01T10:52:18.000Z</time>
      </trkpt>
      <trkpt lat="47.48458" lon="6.78126">
        <ele>312</ele>
        <time>2015-03-01T10:52:19.000Z</time>
      </trkpt>
      <trkpt lat="47.4846" lon="6.78121">
        <ele>313</ele>
        <time>2015-03-01T10:52:20.000Z</time>
      </trkpt>
      <trkpt lat="47.48461" lon="6.78113">
        <ele>313</ele>
        <time>2015-03-01T10:52:21.000Z</time>
      </trkpt>
      <trkpt lat="47.48463" lon="6.78108">
        <ele>313</ele>
        <time>2015-03-01T10:52:22.000Z</time>
      </trkpt>
      <trkpt lat="47.48466" lon="6.781">
        <ele>313</ele>
        <time>2015-03-01T10:52:23.000Z</time>
      </trkpt>
      <trkpt lat="47.48468" lon="6.78093">
        <ele>313</ele>
        <time>2015-03-01T10:52:24.000Z</time>
      </trkpt>
      <trkpt lat="47.4847" lon="6.78086">
        <ele>313</ele>
        <time>2015-03-01T10:52:25.000Z</time>
      </trkpt>
      <trkpt lat="47.4847" lon="6.7808">
        <ele>313</ele>
        <time>2015-03-01T10:52:26.000Z</time>
      </trkpt>
      <trkpt lat="47.48473" lon="6.78072">
        <ele>313</ele>
        <time>2015-03-01T10:52:27.000Z</time>
      </trkpt>
      <trkpt lat="47.48475" lon="6.78063">
        <ele>313</ele>
        <time>2015-03-01T10:52:28.000Z</time>
      </trkpt>
      <trkpt lat="47.48476" lon="6.78056">
        <ele>313</ele>
        <time>2015-03-01T10:52:29.000Z</time>
      </trkpt>
      <trkpt lat="47.48478" lon="6.7805">
        <ele>313</ele>
        <time>2015-03-01T10:52:30.000Z</time>
      </trkpt>
      <trkpt lat="47.4848" lon="6.78044">
        <ele>313</ele>
        <time>2015-03-01T10:52:31.000Z</time>
      </trkpt>
      <trkpt lat="47.48482" lon="6.78037">
        <ele>313</ele>
        <time>2015-03-01T10:52:32.000Z</time>
      </trkpt>
      <trkpt lat="47.48484" lon="6.78031">
        <ele>313</ele>
        <time>2015-03-01T10:52:33.000Z</time>
      </trkpt>
      <trkpt lat="47.48485" lon="6.78023">
        <ele>313</ele>
        <time>2015-03-01T10:52:34.000Z</time>
      </trkpt>
      <trkpt lat="47.48485" lon="6.78015">
        <ele>314</ele>
        <time>2015-03-01T10:52:35.000Z</time>
      </trkpt>
      <trkpt lat="47.48487" lon="6.78009">
        <ele>314</ele>
        <time>2015-03-01T10:52:36.000Z</time>
      </trkpt>
      <trkpt lat="47.4849" lon="6.78003">
        <ele>314</ele>
        <time>2015-03-01T10:52:37.000Z</time>
      </trkpt>
      <trkpt lat="47.48493" lon="6.77998">
        <ele>314</ele>
        <time>2015-03-01T10:52:38.000Z</time>
      </trkpt>
      <trkpt lat="47.48496" lon="6.77995">
        <ele>314</ele>
        <time>2015-03-01T10:52:39.000Z</time>
      </trkpt>
      <trkpt lat="47.48498" lon="6.7799">
        <ele>314</ele>
        <time>2015-03-01T10:52:40.000Z</time>
      </trkpt>
      <trkpt lat="47.48502" lon="6.77986">
        <ele>314</ele>
        <time>2015-03-01T10:52:41.000Z</time>
      </trkpt>
      <trkpt lat="47.48506" lon="6.77981">
        <ele>313</ele>
        <time>2015-03-01T10:52:42.000Z</time>
      </trkpt>
      <trkpt lat="47.4851" lon="6.77978">
        <ele>313</ele>
        <time>2015-03-01T10:52:43.000Z</time>
      </trkpt>
      <trkpt lat="47.48515" lon="6.77975">
        <ele>313</ele>
        <time>2015-03-01T10:52:44.000Z</time>
      </trkpt>
      <trkpt lat="47.48519" lon="6.77972">
        <ele>313</ele>
        <time>2015-03-01T10:52:45.000Z</time>
      </trkpt>
      <trkpt lat="47.48523" lon="6.77971">
        <ele>313</ele>
        <time>2015-03-01T10:52:46.000Z</time>
      </trkpt>
      <trkpt lat="47.48527" lon="6.77971">
        <ele>313</ele>
        <time>2015-03-01T10:52:47.000Z</time>
      </trkpt>
      <trkpt lat="47.48532" lon="6.77969">
        <ele>313</ele>
        <time>2015-03-01T10:52:48.000Z</time>
      </trkpt>
      <trkpt lat="47.48536" lon="6.77968">
        <ele>313</ele>
        <time>2015-03-01T10:52:49.000Z</time>
      </trkpt>
      <trkpt lat="47.48538" lon="6.77962">
        <ele>313</ele>
        <time>2015-03-01T10:52:50.000Z</time>
      </trkpt>
      <trkpt lat="47.48539" lon="6.77957">
        <ele>313</ele>
        <time>2015-03-01T10:52:51.000Z</time>
      </trkpt>
      <trkpt lat="47.48541" lon="6.77952">
        <ele>313</ele>
        <time>2015-03-01T10:52:52.000Z</time>
      </trkpt>
      <trkpt lat="47.48543" lon="6.77945">
        <ele>313</ele>
        <time>2015-03-01T10:52:53.000Z</time>
      </trkpt>
      <trkpt lat="47.48545" lon="6.77939">
        <ele>313</ele>
        <time>2015-03-01T10:52:54.000Z</time>
      </trkpt>
      <trkpt lat="47.48547" lon="6.77933">
        <ele>313</ele>
        <time>2015-03-01T10:52:55.000Z</time>
      </trkpt>
      <trkpt lat="47.48548" lon="6.77927">
        <ele>313</ele>
        <time>2015-03-01T10:52:56.000Z</time>
      </trkpt>
      <trkpt lat="47.48549" lon="6.77919">
        <ele>313</ele>
        <time>2015-03-01T10:52:57.000Z</time>
      </trkpt>
      <trkpt lat="47.4855" lon="6.77912">
        <ele>312</ele>
        <time>2015-03-01T10:52:58.000Z</time>
      </trkpt>
      <trkpt lat="47.4855" lon="6.77905">
        <ele>312</ele>
        <time>2015-03-01T10:52:59.000Z</time>
      </trkpt>
      <trkpt lat="47.48552" lon="6.77898">
        <ele>312</ele>
        <time>2015-03-01T10:53:00.000Z</time>
      </trkpt>
      <trkpt lat="47.48554" lon="6.77891">
        <ele>312</ele>
        <time>2015-03-01T10:53:01.000Z</time>
      </trkpt>
      <trkpt lat="47.48555" lon="6.77884">
        <ele>312</ele>
        <time>2015-03-01T10:53:02.000Z</time>
      </trkpt>
      <trkpt lat="47.48556" lon="6.77879">
        <ele>312</ele>
        <time>2015-03-01T10:53:03.000Z</time>
      </trkpt>
      <trkpt lat="47.48557" lon="6.77873">
        <ele>312</ele>
        <time>2015-03-01T10:53:04.000Z</time>
      </trkpt>
      <trkpt lat="47.48558" lon="6.77867">
        <ele>312</ele>
        <time>2015-03-01T10:53:05.000Z</time>
      </trkpt>
      <trkpt lat="47.48559" lon="6.77861">
        <ele>312</ele>
        <time>2015-03-01T10:53:06.000Z</time>
      </trkpt>
      <trkpt lat="47.4856" lon="6.77854">
        <ele>312</ele>
        <time>2015-03-01T10:53:07.000Z</time>
      </trkpt>
      <trkpt lat="47.48561" lon="6.77846">
        <ele>312</ele>
        <time>2015-03-01T10:53:08.000Z</time>
      </trkpt>
      <trkpt lat="47.48562" lon="6.77839">
        <ele>312</ele>
        <time>2015-03-01T10:53:09.000Z</time>
      </trkpt>
      <trkpt lat="47.48563" lon="6.77833">
        <ele>312</ele>
        <time>2015-03-01T10:53:10.000Z</time>
      </trkpt>
      <trkpt lat="47.48564" lon="6.77825">
        <ele>312</ele>
        <time>2015-03-01T10:53:11.000Z</time>
      </trkpt>
      <trkpt lat="47.48565" lon="6.77817">
        <ele>312</ele>
        <time>2015-03-01T10:53:12.000Z</time>
      </trkpt>
      <trkpt lat="47.48565" lon="6.77811">
        <ele>312</ele>
        <time>2015-03-01T10:53:13.000Z</time>
      </trkpt>
      <trkpt lat="47.48567" lon="6.77805">
        <ele>312</ele>
        <time>2015-03-01T10:53:14.000Z</time>
      </trkpt>
      <trkpt lat="47.48567" lon="6.77798">
        <ele>312</ele>
        <time>2015-03-01T10:53:15.000Z</time>
      </trkpt>
      <trkpt lat="47.48569" lon="6.77793">
        <ele>312</ele>
        <time>2015-03-01T10:53:16.000Z</time>
      </trkpt>
      <trkpt lat="47.48571" lon="6.77785">
        <ele>312</ele>
        <time>2015-03-01T10:53:17.000Z</time>
      </trkpt>
      <trkpt lat="47.48573" lon="6.77777">
        <ele>312</ele>
        <time>2015-03-01T10:53:18.000Z</time>
      </trkpt>
      <trkpt lat="47.48574" lon="6.77769">
        <ele>313</ele>
        <time>2015-03-01T10:53:19.000Z</time>
      </trkpt>
      <trkpt lat="47.48576" lon="6.77762">
        <ele>313</ele>
        <time>2015-03-01T10:53:20.000Z</time>
      </trkpt>
      <trkpt lat="47.48577" lon="6.77756">
        <ele>313</ele>
        <time>2015-03-01T10:53:21.000Z</time>
      </trkpt>
      <trkpt lat="47.48579" lon="6.77749">
        <ele>313</ele>
        <time>2015-03-01T10:53:22.000Z</time>
      </trkpt>
      <trkpt lat="47.4858" lon="6.77742">
        <ele>313</ele>
        <time>2015-03-01T10:53:23.000Z</time>
      </trkpt>
      <trkpt lat="47.4858" lon="6.77735">
        <ele>313</ele>
        <time>2015-03-01T10:53:24.000Z</time>
      </trkpt>
      <trkpt lat="47.4858" lon="6.77729">
        <ele>313</ele>
        <time>2015-03-01T10:53:25.000Z</time>
      </trkpt>
      <trkpt lat="47.4858" lon="6.77722">
        <ele>313</ele>
        <time>2015-03-01T10:53:26.000Z</time>
      </trkpt>
      <trkpt lat="47.48581" lon="6.77715">
        <ele>313</ele>
        <time>2015-03-01T10:53:27.000Z</time>
      </trkpt>
      <trkpt lat="47.48581" lon="6.7771">
        <ele>313</ele>
        <time>2015-03-01T10:53:28.000Z</time>
      </trkpt>
      <trkpt lat="47.48582" lon="6.77704">
        <ele>313</ele>
        <time>2015-03-01T10:53:29.000Z</time>
      </trkpt>
      <trkpt lat="47.48583" lon="6.77699">
        <ele>313</ele>
        <time>2015-03-01T10:53:30.000Z</time>
      </trkpt>
      <trkpt lat="47.48585" lon="6.77693">
        <ele>313</ele>
        <time>2015-03-01T10:53:31.000Z</time>
      </trkpt>
      <trkpt lat="47.48587" lon="6.77684">
        <ele>313</ele>
        <time>2015-03-01T10:53:32.000Z</time>
      </trkpt>
      <trkpt lat="47.48588" lon="6.77678">
        <ele>313</ele>
        <time>2015-03-01T10:53:33.000Z</time>
      </trkpt>
      <trkpt lat="47.4859" lon="6.77671">
        <ele>313</ele>
        <time>2015-03-01T10:53:34.000Z</time>
      </trkpt>
      <trkpt lat="47.48591" lon="6.77663">
        <ele>315</ele>
        <time>2015-03-01T10:53:35.000Z</time>
      </trkpt>
      <trkpt lat="47.48593" lon="6.77657">
        <ele>315</ele>
        <time>2015-03-01T10:53:36.000Z</time>
      </trkpt>
      <trkpt lat="47.48596" lon="6.77651">
        <ele>316</ele>
        <time>2015-03-01T10:53:37.000Z</time>
      </trkpt>
      <trkpt lat="47.48597" lon="6.77644">
        <ele>317</ele>
        <time>2015-03-01T10:53:38.000Z</time>
      </trkpt>
      <trkpt lat="47.48599" lon="6.77637">
        <ele>317</ele>
        <time>2015-03-01T10:53:39.000Z</time>
      </trkpt>
      <trkpt lat="47.48601" lon="6.77629">
        <ele>318</ele>
        <time>2015-03-01T10:53:40.000Z</time>
      </trkpt>
      <trkpt lat="47.48604" lon="6.77621">
        <ele>318</ele>
        <time>2015-03-01T10:53:41.000Z</time>
      </trkpt>
      <trkpt lat="47.48605" lon="6.77614">
        <ele>318</ele>
        <time>2015-03-01T10:53:42.000Z</time>
      </trkpt>
      <trkpt lat="47.48605" lon="6.77607">
        <ele>319</ele>
        <time>2015-03-01T10:53:43.000Z</time>
      </trkpt>
      <trkpt lat="47.48605" lon="6.776">
        <ele>319</ele>
        <time>2015-03-01T10:53:44.000Z</time>
      </trkpt>
      <trkpt lat="47.48604" lon="6.77593">
        <ele>318</ele>
        <time>2015-03-01T10:53:45.000Z</time>
      </trkpt>
      <trkpt lat="47.486" lon="6.77589">
        <ele>318</ele>
        <time>2015-03-01T10:53:46.000Z</time>
      </trkpt>
      <trkpt lat="47.48597" lon="6.77583">
        <ele>318</ele>
        <time>2015-03-01T10:53:47.000Z</time>
      </trkpt>
      <trkpt lat="47.48594" lon="6.77578">
        <ele>321</ele>
        <time>2015-03-01T10:53:47.999Z</time>
      </trkpt>
      <trkpt lat="47.48592" lon="6.77571">
        <ele>322</ele>
        <time>2015-03-01T10:53:49.000Z</time>
      </trkpt>
      <trkpt lat="47.48589" lon="6.77566">
        <ele>322</ele>
        <time>2015-03-01T10:53:50.000Z</time>
      </trkpt>
      <trkpt lat="47.48587" lon="6.77561">
        <ele>323</ele>
        <time>2015-03-01T10:53:51.000Z</time>
      </trkpt>
      <trkpt lat="47.48584" lon="6.77556">
        <ele>324</ele>
        <time>2015-03-01T10:53:52.000Z</time>
      </trkpt>
      <trkpt lat="47.48582" lon="6.77551">
        <ele>318</ele>
        <time>2015-03-01T10:53:53.000Z</time>
      </trkpt>
      <trkpt lat="47.48579" lon="6.77546">
        <ele>318</ele>
        <time>2015-03-01T10:53:54.000Z</time>
      </trkpt>
      <trkpt lat="47.48576" lon="6.77541">
        <ele>318</ele>
        <time>2015-03-01T10:53:55.000Z</time>
      </trkpt>
      <trkpt lat="47.48572" lon="6.77537">
        <ele>319</ele>
        <time>2015-03-01T10:53:56.000Z</time>
      </trkpt>
      <trkpt lat="47.48569" lon="6.77532">
        <ele>319</ele>
        <time>2015-03-01T10:53:57.000Z</time>
      </trkpt>
      <trkpt lat="47.48565" lon="6.77527">
        <ele>319</ele>
        <time>2015-03-01T10:53:58.000Z</time>
      </trkpt>
      <trkpt lat="47.48563" lon="6.77523">
        <ele>319</ele>
        <time>2015-03-01T10:53:59.000Z</time>
      </trkpt>
      <trkpt lat="47.48561" lon="6.77517">
        <ele>320</ele>
        <time>2015-03-01T10:54:00.000Z</time>
      </trkpt>
      <trkpt lat="47.48559" lon="6.77511">
        <ele>320</ele>
        <time>2015-03-01T10:54:01.000Z</time>
      </trkpt>
      <trkpt lat="47.48558" lon="6.77505">
        <ele>320</ele>
        <time>2015-03-01T10:54:02.000Z</time>
      </trkpt>
      <trkpt lat="47.48556" lon="6.77492">
        <ele>326</ele>
        <time>2015-03-01T10:54:04.000Z</time>
      </trkpt>
      <trkpt lat="47.48554" lon="6.77487">
        <ele>326</ele>
        <time>2015-03-01T10:54:05.000Z</time>
      </trkpt>
      <trkpt lat="47.48551" lon="6.77482">
        <ele>326</ele>
        <time>2015-03-01T10:54:06.000Z</time>
      </trkpt>
      <trkpt lat="47.48547" lon="6.77477">
        <ele>326</ele>
        <time>2015-03-01T10:54:07.000Z</time>
      </trkpt>
      <trkpt lat="47.48543" lon="6.77473">
        <ele>326</ele>
        <time>2015-03-01T10:54:08.000Z</time>
      </trkpt>
      <trkpt lat="47.48539" lon="6.7747">
        <ele>326</ele>
        <time>2015-03-01T10:54:09.000Z</time>
      </trkpt>
      <trkpt lat="47.48535" lon="6.77466">
        <ele>326</ele>
        <time>2015-03-01T10:54:10.000Z</time>
      </trkpt>
      <trkpt lat="47.48531" lon="6.77463">
        <ele>326</ele>
        <time>2015-03-01T10:54:11.000Z</time>
      </trkpt>
      <trkpt lat="47.48528" lon="6.77457">
        <ele>326</ele>
        <time>2015-03-01T10:54:12.000Z</time>
      </trkpt>
      <trkpt lat="47.48524" lon="6.77454">
        <ele>326</ele>
        <time>2015-03-01T10:54:13.000Z</time>
      </trkpt>
      <trkpt lat="47.48521" lon="6.77448">
        <ele>326</ele>
        <time>2015-03-01T10:54:14.000Z</time>
      </trkpt>
      <trkpt lat="47.48518" lon="6.77442">
        <ele>326</ele>
        <time>2015-03-01T10:54:15.000Z</time>
      </trkpt>
      <trkpt lat="47.48515" lon="6.77438">
        <ele>326</ele>
        <time>2015-03-01T10:54:16.000Z</time>
      </trkpt>
      <trkpt lat="47.48512" lon="6.77434">
        <ele>326</ele>
        <time>2015-03-01T10:54:17.000Z</time>
      </trkpt>
      <trkpt lat="47.48508" lon="6.7743">
        <ele>326</ele>
        <time>2015-03-01T10:54:18.000Z</time>
      </trkpt>
      <trkpt lat="47.48504" lon="6.77425">
        <ele>326</ele>
        <time>2015-03-01T10:54:19.000Z</time>
      </trkpt>
      <trkpt lat="47.485" lon="6.7742">
        <ele>326</ele>
        <time>2015-03-01T10:54:20.000Z</time>
      </trkpt>
      <trkpt lat="47.48497" lon="6.77416">
        <ele>326</ele>
        <time>2015-03-01T10:54:21.000Z</time>
      </trkpt>
      <trkpt lat="47.48494" lon="6.77411">
        <ele>326</ele>
        <time>2015-03-01T10:54:22.000Z</time>
      </trkpt>
      <trkpt lat="47.4849" lon="6.77406">
        <ele>326</ele>
        <time>2015-03-01T10:54:23.000Z</time>
      </trkpt>
      <trkpt lat="47.48485" lon="6.77401">
        <ele>326</ele>
        <time>2015-03-01T10:54:24.000Z</time>
      </trkpt>
      <trkpt lat="47.48482" lon="6.77396">
        <ele>327</ele>
        <time>2015-03-01T10:54:25.000Z</time>
      </trkpt>
      <trkpt lat="47.48478" lon="6.7739">
        <ele>327</ele>
        <time>2015-03-01T10:54:26.000Z</time>
      </trkpt>
      <trkpt lat="47.48474" lon="6.77386">
        <ele>327</ele>
        <time>2015-03-01T10:54:27.000Z</time>
      </trkpt>
      <trkpt lat="47.4847" lon="6.77381">
        <ele>327</ele>
        <time>2015-03-01T10:54:28.000Z</time>
      </trkpt>
      <trkpt lat="47.48465" lon="6.77377">
        <ele>327</ele>
        <time>2015-03-01T10:54:29.000Z</time>
      </trkpt>
      <trkpt lat="47.48462" lon="6.77371">
        <ele>327</ele>
        <time>2015-03-01T10:54:30.000Z</time>
      </trkpt>
      <trkpt lat="47.48457" lon="6.77366">
        <ele>327</ele>
        <time>2015-03-01T10:54:31.000Z</time>
      </trkpt>
      <trkpt lat="47.48453" lon="6.7736">
        <ele>327</ele>
        <time>2015-03-01T10:54:32.000Z</time>
      </trkpt>
      <trkpt lat="47.48447" lon="6.77356">
        <ele>327</ele>
        <time>2015-03-01T10:54:33.000Z</time>
      </trkpt>
      <trkpt lat="47.48443" lon="6.77352">
        <ele>327</ele>
        <time>2015-03-01T10:54:34.000Z</time>
      </trkpt>
      <trkpt lat="47.48438" lon="6.77347">
        <ele>327</ele>
        <time>2015-03-01T10:54:35.001Z</time>
      </trkpt>
      <trkpt lat="47.48434" lon="6.77342">
        <ele>327</ele>
        <time>2015-03-01T10:54:36.000Z</time>
      </trkpt>
      <trkpt lat="47.4843" lon="6.77337">
        <ele>326</ele>
        <time>2015-03-01T10:54:37.000Z</time>
      </trkpt>
      <trkpt lat="47.48425" lon="6.77332">
        <ele>329</ele>
        <time>2015-03-01T10:54:38.000Z</time>
      </trkpt>
      <trkpt lat="47.48421" lon="6.77328">
        <ele>328</ele>
        <time>2015-03-01T10:54:39.000Z</time>
      </trkpt>
      <trkpt lat="47.48416" lon="6.77324">
        <ele>326</ele>
        <time>2015-03-01T10:54:40.000Z</time>
      </trkpt>
      <trkpt lat="47.48412" lon="6.7732">
        <ele>325</ele>
        <time>2015-03-01T10:54:41.000Z</time>
      </trkpt>
      <trkpt lat="47.48407" lon="6.77316">
        <ele>325</ele>
        <time>2015-03-01T10:54:42.000Z</time>
      </trkpt>
      <trkpt lat="47.48402" lon="6.77313">
        <ele>325</ele>
        <time>2015-03-01T10:54:43.000Z</time>
      </trkpt>
      <trkpt lat="47.48397" lon="6.77308">
        <ele>325</ele>
        <time>2015-03-01T10:54:44.000Z</time>
      </trkpt>
      <trkpt lat="47.48393" lon="6.77304">
        <ele>325</ele>
        <time>2015-03-01T10:54:45.000Z</time>
      </trkpt>
      <trkpt lat="47.48388" lon="6.773">
        <ele>325</ele>
        <time>2015-03-01T10:54:46.000Z</time>
      </trkpt>
      <trkpt lat="47.48383" lon="6.77296">
        <ele>325</ele>
        <time>2015-03-01T10:54:47.000Z</time>
      </trkpt>
      <trkpt lat="47.48378" lon="6.77291">
        <ele>325</ele>
        <time>2015-03-01T10:54:48.000Z</time>
      </trkpt>
      <trkpt lat="47.48372" lon="6.77287">
        <ele>325</ele>
        <time>2015-03-01T10:54:49.000Z</time>
      </trkpt>
      <trkpt lat="47.48368" lon="6.77283">
        <ele>325</ele>
        <time>2015-03-01T10:54:50.000Z</time>
      </trkpt>
      <trkpt lat="47.48362" lon="6.77279">
        <ele>324</ele>
        <time>2015-03-01T10:54:51.000Z</time>
      </trkpt>
      <trkpt lat="47.48357" lon="6.77276">
        <ele>324</ele>
        <time>2015-03-01T10:54:52.000Z</time>
      </trkpt>
      <trkpt lat="47.48352" lon="6.77273">
        <ele>324</ele>
        <time>2015-03-01T10:54:53.000Z</time>
      </trkpt>
      <trkpt lat="47.48347" lon="6.77269">
        <ele>324</ele>
        <time>2015-03-01T10:54:54.000Z</time>
      </trkpt>
      <trkpt lat="47.48342" lon="6.77266">
        <ele>324</ele>
        <time>2015-03-01T10:54:55.000Z</time>
      </trkpt>
      <trkpt lat="47.48338" lon="6.77264">
        <ele>324</ele>
        <time>2015-03-01T10:54:56.000Z</time>
      </trkpt>
      <trkpt lat="47.48332" lon="6.77262">
        <ele>321</ele>
        <time>2015-03-01T10:54:57.000Z</time>
      </trkpt>
      <trkpt lat="47.48326" lon="6.77258">
        <ele>321</ele>
        <time>2015-03-01T10:54:58.000Z</time>
      </trkpt>
      <trkpt lat="47.48321" lon="6.77255">
        <ele>321</ele>
        <time>2015-03-01T10:54:59.000Z</time>
      </trkpt>
      <trkpt lat="47.48317" lon="6.77252">
        <ele>321</ele>
        <time>2015-03-01T10:55:00.000Z</time>
      </trkpt>
      <trkpt lat="47.48311" lon="6.77249">
        <ele>323</ele>
        <time>2015-03-01T10:55:01.000Z</time>
      </trkpt>
      <trkpt lat="47.48307" lon="6.77247">
        <ele>323</ele>
        <time>2015-03-01T10:55:02.000Z</time>
      </trkpt>
      <trkpt lat="47.48299" lon="6.7724">
        <ele>323</ele>
        <time>2015-03-01T10:55:04.000Z</time>
      </trkpt>
      <trkpt lat="47.48294" lon="6.77237">
        <ele>322</ele>
        <time>2015-03-01T10:55:05.000Z</time>
      </trkpt>
      <trkpt lat="47.4829" lon="6.77234">
        <ele>322</ele>
        <time>2015-03-01T10:55:06.000Z</time>
      </trkpt>
      <trkpt lat="47.48286" lon="6.77232">
        <ele>322</ele>
        <time>2015-03-01T10:55:07.000Z</time>
      </trkpt>
      <trkpt lat="47.48281" lon="6.77231">
        <ele>322</ele>
        <time>2015-03-01T10:55:08.000Z</time>
      </trkpt>
      <trkpt lat="47.48276" lon="6.77228">
        <ele>321</ele>
        <time>2015-03-01T10:55:09.000Z</time>
      </trkpt>
      <trkpt lat="47.48271" lon="6.77226">
        <ele>321</ele>
        <time>2015-03-01T10:55:10.000Z</time>
      </trkpt>
      <trkpt lat="47.48267" lon="6.77223">
        <ele>321</ele>
        <time>2015-03-01T10:55:11.000Z</time>
      </trkpt>
      <trkpt lat="47.48262" lon="6.77221">
        <ele>321</ele>
        <time>2015-03-01T10:55:12.000Z</time>
      </trkpt>
      <trkpt lat="47.48258" lon="6.77218">
        <ele>321</ele>
        <time>2015-03-01T10:55:13.000Z</time>
      </trkpt>
      <trkpt lat="47.48255" lon="6.77216">
        <ele>321</ele>
        <time>2015-03-01T10:55:14.000Z</time>
      </trkpt>
      <trkpt lat="47.48251" lon="6.77214">
        <ele>321</ele>
        <time>2015-03-01T10:55:15.000Z</time>
      </trkpt>
      <trkpt lat="47.48247" lon="6.77212">
        <ele>316</ele>
        <time>2015-03-01T10:55:16.000Z</time>
      </trkpt>
      <trkpt lat="47.48245" lon="6.77207">
        <ele>316</ele>
        <time>2015-03-01T10:55:17.000Z</time>
      </trkpt>
      <trkpt lat="47.48243" lon="6.77201">
        <ele>317</ele>
        <time>2015-03-01T10:55:18.000Z</time>
      </trkpt>
      <trkpt lat="47.48241" lon="6.77195">
        <ele>317</ele>
        <time>2015-03-01T10:55:19.000Z</time>
      </trkpt>
      <trkpt lat="47.48241" lon="6.77189">
        <ele>317</ele>
        <time>2015-03-01T10:55:20.000Z</time>
      </trkpt>
      <trkpt lat="47.48242" lon="6.77182">
        <ele>318</ele>
        <time>2015-03-01T10:55:21.000Z</time>
      </trkpt>
      <trkpt lat="47.48242" lon="6.77177">
        <ele>318</ele>
        <time>2015-03-01T10:55:22.000Z</time>
      </trkpt>
      <trkpt lat="47.48243" lon="6.7717">
        <ele>319</ele>
        <time>2015-03-01T10:55:23.000Z</time>
      </trkpt>
      <trkpt lat="47.48244" lon="6.77163">
        <ele>319</ele>
        <time>2015-03-01T10:55:24.000Z</time>
      </trkpt>
      <trkpt lat="47.48245" lon="6.77156">
        <ele>318</ele>
        <time>2015-03-01T10:55:25.000Z</time>
      </trkpt>
      <trkpt lat="47.48246" lon="6.7715">
        <ele>318</ele>
        <time>2015-03-01T10:55:26.000Z</time>
      </trkpt>
      <trkpt lat="47.48247" lon="6.77143">
        <ele>317</ele>
        <time>2015-03-01T10:55:27.000Z</time>
      </trkpt>
      <trkpt lat="47.48249" lon="6.77135">
        <ele>317</ele>
        <time>2015-03-01T10:55:28.000Z</time>
      </trkpt>
      <trkpt lat="47.48251" lon="6.77129">
        <ele>321</ele>
        <time>2015-03-01T10:55:29.000Z</time>
      </trkpt>
      <trkpt lat="47.48252" lon="6.77123">
        <ele>321</ele>
        <time>2015-03-01T10:55:30.000Z</time>
      </trkpt>
      <trkpt lat="47.48254" lon="6.77117">
        <ele>321</ele>
        <time>2015-03-01T10:55:31.000Z</time>
      </trkpt>
      <trkpt lat="47.48256" lon="6.77112">
        <ele>321</ele>
        <time>2015-03-01T10:55:32.000Z</time>
      </trkpt>
      <trkpt lat="47.48257" lon="6.77107">
        <ele>321</ele>
        <time>2015-03-01T10:55:33.000Z</time>
      </trkpt>
      <trkpt lat="47.48258" lon="6.77101">
        <ele>320</ele>
        <time>2015-03-01T10:55:34.000Z</time>
      </trkpt>
      <trkpt lat="47.4826" lon="6.77095">
        <ele>320</ele>
        <time>2015-03-01T10:55:35.001Z</time>
      </trkpt>
      <trkpt lat="47.48261" lon="6.77089">
        <ele>319</ele>
        <time>2015-03-01T10:55:36.000Z</time>
      </trkpt>
      <trkpt lat="47.48263" lon="6.77083">
        <ele>317</ele>
        <time>2015-03-01T10:55:37.000Z</time>
      </trkpt>
      <trkpt lat="47.48264" lon="6.77077">
        <ele>317</ele>
        <time>2015-03-01T10:55:38.000Z</time>
      </trkpt>
      <trkpt lat="47.48266" lon="6.77071">
        <ele>317</ele>
        <time>2015-03-01T10:55:38.999Z</time>
      </trkpt>
      <trkpt lat="47.48268" lon="6.77065">
        <ele>317</ele>
        <time>2015-03-01T10:55:40.000Z</time>
      </trkpt>
      <trkpt lat="47.48269" lon="6.77058">
        <ele>317</ele>
        <time>2015-03-01T10:55:41.000Z</time>
      </trkpt>
      <trkpt lat="47.4827" lon="6.77052">
        <ele>316</ele>
        <time>2015-03-01T10:55:42.000Z</time>
      </trkpt>
      <trkpt lat="47.4827" lon="6.77046">
        <ele>316</ele>
        <time>2015-03-01T10:55:43.000Z</time>
      </trkpt>
      <trkpt lat="47.4827" lon="6.77042">
        <ele>316</ele>
        <time>2015-03-01T10:55:44.000Z</time>
      </trkpt>
      <trkpt lat="47.48271" lon="6.77036">
        <ele>316</ele>
        <time>2015-03-01T10:55:45.000Z</time>
      </trkpt>
      <trkpt lat="47.48272" lon="6.77032">
        <ele>316</ele>
        <time>2015-03-01T10:55:46.000Z</time>
      </trkpt>
      <trkpt lat="47.48272" lon="6.77029">
        <ele>315</ele>
        <time>2015-03-01T10:55:47.000Z</time>
      </trkpt>
      <trkpt lat="47.48274" lon="6.77025">
        <ele>315</ele>
        <time>2015-03-01T10:55:49.000Z</time>
      </trkpt>
      <trkpt lat="47.48274" lon="6.77023">
        <ele>315</ele>
        <time>2015-03-01T10:55:50.000Z</time>
      </trkpt>
      <trkpt lat="47.48276" lon="6.77017">
        <ele>315</ele>
        <time>2015-03-01T10:56:03.000Z</time>
      </trkpt>
      <trkpt lat="47.48276" lon="6.77016">
        <ele>315</ele>
        <time>2015-03-01T10:56:04.000Z</time>
      </trkpt>
      <trkpt lat="47.48275" lon="6.77012">
        <ele>315</ele>
        <time>2015-03-01T10:56:07.000Z</time>
      </trkpt>
      <trkpt lat="47.48274" lon="6.7701">
        <ele>315</ele>
        <time>2015-03-01T10:56:08.000Z</time>
      </trkpt>
      <trkpt lat="47.48271" lon="6.77007">
        <ele>314</ele>
        <time>2015-03-01T10:56:10.000Z</time>
      </trkpt>
      <trkpt lat="47.48269" lon="6.77006">
        <ele>314</ele>
        <time>2015-03-01T10:56:11.000Z</time>
      </trkpt>
      <trkpt lat="47.48264" lon="6.77004">
        <ele>314</ele>
        <time>2015-03-01T10:56:13.000Z</time>
      </trkpt>
      <trkpt lat="47.48262" lon="6.77003">
        <ele>314</ele>
        <time>2015-03-01T10:56:13.999Z</time>
      </trkpt>
      <trkpt lat="47.48259" lon="6.77001">
        <ele>313</ele>
        <time>2015-03-01T10:56:15.000Z</time>
      </trkpt>
      <trkpt lat="47.48257" lon="6.77">
        <ele>313</ele>
        <time>2015-03-01T10:56:16.000Z</time>
      </trkpt>
      <trkpt lat="47.48254" lon="6.76999">
        <ele>312</ele>
        <time>2015-03-01T10:56:17.000Z</time>
      </trkpt>
      <trkpt lat="47.48251" lon="6.76998">
        <ele>312</ele>
        <time>2015-03-01T10:56:18.000Z</time>
      </trkpt>
      <trkpt lat="47.48248" lon="6.76997">
        <ele>312</ele>
        <time>2015-03-01T10:56:19.000Z</time>
      </trkpt>
      <trkpt lat="47.48245" lon="6.76996">
        <ele>312</ele>
        <time>2015-03-01T10:56:20.000Z</time>
      </trkpt>
      <trkpt lat="47.48242" lon="6.76995">
        <ele>312</ele>
        <time>2015-03-01T10:56:21.000Z</time>
      </trkpt>
      <trkpt lat="47.48238" lon="6.76993">
        <ele>312</ele>
        <time>2015-03-01T10:56:22.000Z</time>
      </trkpt>
      <trkpt lat="47.48234" lon="6.76991">
        <ele>312</ele>
        <time>2015-03-01T10:56:23.000Z</time>
      </trkpt>
      <trkpt lat="47.4823" lon="6.7699">
        <ele>312</ele>
        <time>2015-03-01T10:56:24.000Z</time>
      </trkpt>
      <trkpt lat="47.48226" lon="6.76988">
        <ele>311</ele>
        <time>2015-03-01T10:56:25.000Z</time>
      </trkpt>
      <trkpt lat="47.48221" lon="6.76986">
        <ele>311</ele>
        <time>2015-03-01T10:56:26.000Z</time>
      </trkpt>
      <trkpt lat="47.48218" lon="6.76985">
        <ele>311</ele>
        <time>2015-03-01T10:56:27.000Z</time>
      </trkpt>
      <trkpt lat="47.48215" lon="6.76983">
        <ele>311</ele>
        <time>2015-03-01T10:56:28.000Z</time>
      </trkpt>
      <trkpt lat="47.48211" lon="6.7698">
        <ele>311</ele>
        <time>2015-03-01T10:56:29.000Z</time>
      </trkpt>
      <trkpt lat="47.48208" lon="6.76978">
        <ele>311</ele>
        <time>2015-03-01T10:56:30.000Z</time>
      </trkpt>
      <trkpt lat="47.48204" lon="6.76974">
        <ele>311</ele>
        <time>2015-03-01T10:56:31.000Z</time>
      </trkpt>
      <trkpt lat="47.48201" lon="6.76971">
        <ele>311</ele>
        <time>2015-03-01T10:56:32.000Z</time>
      </trkpt>
      <trkpt lat="47.48197" lon="6.76968">
        <ele>311</ele>
        <time>2015-03-01T10:56:33.000Z</time>
      </trkpt>
      <trkpt lat="47.48192" lon="6.76966">
        <ele>311</ele>
        <time>2015-03-01T10:56:34.000Z</time>
      </trkpt>
      <trkpt lat="47.48188" lon="6.76963">
        <ele>311</ele>
        <time>2015-03-01T10:56:35.000Z</time>
      </trkpt>
      <trkpt lat="47.48184" lon="6.76961">
        <ele>311</ele>
        <time>2015-03-01T10:56:36.000Z</time>
      </trkpt>
      <trkpt lat="47.4818" lon="6.76959">
        <ele>311</ele>
        <time>2015-03-01T10:56:37.000Z</time>
      </trkpt>
      <trkpt lat="47.48176" lon="6.76957">
        <ele>311</ele>
        <time>2015-03-01T10:56:38.000Z</time>
      </trkpt>
      <trkpt lat="47.48172" lon="6.76954">
        <ele>311</ele>
        <time>2015-03-01T10:56:39.000Z</time>
      </trkpt>
      <trkpt lat="47.48168" lon="6.76951">
        <ele>311</ele>
        <time>2015-03-01T10:56:40.000Z</time>
      </trkpt>
      <trkpt lat="47.48164" lon="6.76949">
        <ele>312</ele>
        <time>2015-03-01T10:56:41.000Z</time>
      </trkpt>
      <trkpt lat="47.4816" lon="6.76945">
        <ele>312</ele>
        <time>2015-03-01T10:56:42.000Z</time>
      </trkpt>
      <trkpt lat="47.48156" lon="6.76942">
        <ele>312</ele>
        <time>2015-03-01T10:56:43.000Z</time>
      </trkpt>
      <trkpt lat="47.48152" lon="6.7694">
        <ele>312</ele>
        <time>2015-03-01T10:56:44.000Z</time>
      </trkpt>
      <trkpt lat="47.48147" lon="6.76938">
        <ele>312</ele>
        <time>2015-03-01T10:56:45.000Z</time>
      </trkpt>
      <trkpt lat="47.48143" lon="6.76936">
        <ele>312</ele>
        <time>2015-03-01T10:56:46.000Z</time>
      </trkpt>
      <trkpt lat="47.48139" lon="6.76934">
        <ele>312</ele>
        <time>2015-03-01T10:56:47.000Z</time>
      </trkpt>
      <trkpt lat="47.48135" lon="6.7693">
        <ele>312</ele>
        <time>2015-03-01T10:56:48.000Z</time>
      </trkpt>
      <trkpt lat="47.48131" lon="6.76927">
        <ele>312</ele>
        <time>2015-03-01T10:56:49.000Z</time>
      </trkpt>
      <trkpt lat="47.48127" lon="6.76924">
        <ele>312</ele>
        <time>2015-03-01T10:56:50.000Z</time>
      </trkpt>
      <trkpt lat="47.48123" lon="6.76921">
        <ele>312</ele>
        <time>2015-03-01T10:56:51.000Z</time>
      </trkpt>
      <trkpt lat="47.48119" lon="6.76918">
        <ele>312</ele>
        <time>2015-03-01T10:56:52.000Z</time>
      </trkpt>
      <trkpt lat="47.48115" lon="6.76916">
        <ele>312</ele>
        <time>2015-03-01T10:56:53.000Z</time>
      </trkpt>
      <trkpt lat="47.48111" lon="6.76914">
        <ele>312</ele>
        <time>2015-03-01T10:56:54.000Z</time>
      </trkpt>
      <trkpt lat="47.48108" lon="6.7691">
        <ele>312</ele>
        <time>2015-03-01T10:56:55.000Z</time>
      </trkpt>
      <trkpt lat="47.48104" lon="6.76907">
        <ele>312</ele>
        <time>2015-03-01T10:56:56.000Z</time>
      </trkpt>
      <trkpt lat="47.481" lon="6.76904">
        <ele>312</ele>
        <time>2015-03-01T10:56:57.000Z</time>
      </trkpt>
      <trkpt lat="47.48096" lon="6.76902">
        <ele>312</ele>
        <time>2015-03-01T10:56:58.000Z</time>
      </trkpt>
      <trkpt lat="47.48091" lon="6.76898">
        <ele>312</ele>
        <time>2015-03-01T10:56:59.000Z</time>
      </trkpt>
      <trkpt lat="47.48087" lon="6.76894">
        <ele>312</ele>
        <time>2015-03-01T10:57:00.000Z</time>
      </trkpt>
      <trkpt lat="47.48083" lon="6.76889">
        <ele>312</ele>
        <time>2015-03-01T10:57:01.000Z</time>
      </trkpt>
      <trkpt lat="47.48079" lon="6.76886">
        <ele>312</ele>
        <time>2015-03-01T10:57:02.000Z</time>
      </trkpt>
      <trkpt lat="47.48071" lon="6.7688">
        <ele>312</ele>
        <time>2015-03-01T10:57:04.000Z</time>
      </trkpt>
      <trkpt lat="47.48066" lon="6.76877">
        <ele>312</ele>
        <time>2015-03-01T10:57:05.000Z</time>
      </trkpt>
      <trkpt lat="47.48063" lon="6.76873">
        <ele>313</ele>
        <time>2015-03-01T10:57:06.000Z</time>
      </trkpt>
      <trkpt lat="47.48059" lon="6.76869">
        <ele>313</ele>
        <time>2015-03-01T10:57:07.000Z</time>
      </trkpt>
      <trkpt lat="47.48055" lon="6.76865">
        <ele>313</ele>
        <time>2015-03-01T10:57:08.000Z</time>
      </trkpt>
      <trkpt lat="47.48051" lon="6.76861">
        <ele>313</ele>
        <time>2015-03-01T10:57:09.000Z</time>
      </trkpt>
      <trkpt lat="47.48048" lon="6.76856">
        <ele>313</ele>
        <time>2015-03-01T10:57:10.000Z</time>
      </trkpt>
      <trkpt lat="47.48044" lon="6.76851">
        <ele>313</ele>
        <time>2015-03-01T10:57:11.000Z</time>
      </trkpt>
      <trkpt lat="47.4804" lon="6.76844">
        <ele>313</ele>
        <time>2015-03-01T10:57:12.000Z</time>
      </trkpt>
      <trkpt lat="47.48037" lon="6.76839">
        <ele>313</ele>
        <time>2015-03-01T10:57:13.000Z</time>
      </trkpt>
      <trkpt lat="47.48033" lon="6.76832">
        <ele>313</ele>
        <time>2015-03-01T10:57:14.000Z</time>
      </trkpt>
      <trkpt lat="47.4803" lon="6.76827">
        <ele>313</ele>
        <time>2015-03-01T10:57:15.000Z</time>
      </trkpt>
      <trkpt lat="47.48026" lon="6.76823">
        <ele>313</ele>
        <time>2015-03-01T10:57:16.000Z</time>
      </trkpt>
      <trkpt lat="47.48023" lon="6.76816">
        <ele>313</ele>
        <time>2015-03-01T10:57:17.000Z</time>
      </trkpt>
      <trkpt lat="47.4802" lon="6.76812">
        <ele>313</ele>
        <time>2015-03-01T10:57:18.000Z</time>
      </trkpt>
      <trkpt lat="47.48017" lon="6.76808">
        <ele>313</ele>
        <time>2015-03-01T10:57:19.000Z</time>
      </trkpt>
      <trkpt lat="47.48013" lon="6.76802">
        <ele>313</ele>
        <time>2015-03-01T10:57:20.000Z</time>
      </trkpt>
      <trkpt lat="47.48011" lon="6.76796">
        <ele>313</ele>
        <time>2015-03-01T10:57:21.000Z</time>
      </trkpt>
      <trkpt lat="47.48008" lon="6.76791">
        <ele>313</ele>
        <time>2015-03-01T10:57:22.000Z</time>
      </trkpt>
      <trkpt lat="47.48005" lon="6.76784">
        <ele>313</ele>
        <time>2015-03-01T10:57:23.000Z</time>
      </trkpt>
      <trkpt lat="47.48002" lon="6.76777">
        <ele>313</ele>
        <time>2015-03-01T10:57:24.000Z</time>
      </trkpt>
      <trkpt lat="47.47998" lon="6.76771">
        <ele>313</ele>
        <time>2015-03-01T10:57:25.000Z</time>
      </trkpt>
      <trkpt lat="47.47995" lon="6.76765">
        <ele>313</ele>
        <time>2015-03-01T10:57:26.000Z</time>
      </trkpt>
      <trkpt lat="47.47992" lon="6.76759">
        <ele>313</ele>
        <time>2015-03-01T10:57:27.000Z</time>
      </trkpt>
      <trkpt lat="47.4799" lon="6.76753">
        <ele>313</ele>
        <time>2015-03-01T10:57:28.000Z</time>
      </trkpt>
      <trkpt lat="47.47988" lon="6.76747">
        <ele>312</ele>
        <time>2015-03-01T10:57:29.000Z</time>
      </trkpt>
      <trkpt lat="47.47986" lon="6.76741">
        <ele>312</ele>
        <time>2015-03-01T10:57:30.000Z</time>
      </trkpt>
      <trkpt lat="47.47985" lon="6.76734">
        <ele>312</ele>
        <time>2015-03-01T10:57:31.000Z</time>
      </trkpt>
      <trkpt lat="47.47982" lon="6.76728">
        <ele>312</ele>
        <time>2015-03-01T10:57:32.000Z</time>
      </trkpt>
      <trkpt lat="47.47981" lon="6.76722">
        <ele>312</ele>
        <time>2015-03-01T10:57:33.000Z</time>
      </trkpt>
      <trkpt lat="47.47979" lon="6.76716">
        <ele>312</ele>
        <time>2015-03-01T10:57:34.000Z</time>
      </trkpt>
      <trkpt lat="47.47978" lon="6.76709">
        <ele>312</ele>
        <time>2015-03-01T10:57:35.000Z</time>
      </trkpt>
      <trkpt lat="47.47977" lon="6.76704">
        <ele>312</ele>
        <time>2015-03-01T10:57:36.000Z</time>
      </trkpt>
      <trkpt lat="47.47976" lon="6.76698">
        <ele>312</ele>
        <time>2015-03-01T10:57:37.000Z</time>
      </trkpt>
      <trkpt lat="47.47975" lon="6.76693">
        <ele>312</ele>
        <time>2015-03-01T10:57:38.000Z</time>
      </trkpt>
      <trkpt lat="47.47974" lon="6.76685">
        <ele>312</ele>
        <time>2015-03-01T10:57:39.000Z</time>
      </trkpt>
      <trkpt lat="47.47973" lon="6.76679">
        <ele>312</ele>
        <time>2015-03-01T10:57:40.000Z</time>
      </trkpt>
      <trkpt lat="47.4797" lon="6.76673">
        <ele>312</ele>
        <time>2015-03-01T10:57:41.000Z</time>
      </trkpt>
      <trkpt lat="47.47969" lon="6.76665">
        <ele>311</ele>
        <time>2015-03-01T10:57:42.000Z</time>
      </trkpt>
      <trkpt lat="47.47968" lon="6.76659">
        <ele>311</ele>
        <time>2015-03-01T10:57:43.000Z</time>
      </trkpt>
      <trkpt lat="47.47966" lon="6.76653">
        <ele>311</ele>
        <time>2015-03-01T10:57:44.000Z</time>
      </trkpt>
      <trkpt lat="47.47964" lon="6.76649">
        <ele>311</ele>
        <time>2015-03-01T10:57:45.000Z</time>
      </trkpt>
      <trkpt lat="47.47962" lon="6.76643">
        <ele>311</ele>
        <time>2015-03-01T10:57:46.000Z</time>
      </trkpt>
      <trkpt lat="47.47961" lon="6.76639">
        <ele>311</ele>
        <time>2015-03-01T10:57:47.000Z</time>
      </trkpt>
      <trkpt lat="47.47959" lon="6.76634">
        <ele>311</ele>
        <time>2015-03-01T10:57:49.000Z</time>
      </trkpt>
      <trkpt lat="47.47958" lon="6.76631">
        <ele>311</ele>
        <time>2015-03-01T10:57:50.000Z</time>
      </trkpt>
      <trkpt lat="47.47958" lon="6.76627">
        <ele>311</ele>
        <time>2015-03-01T10:57:51.000Z</time>
      </trkpt>
      <trkpt lat="47.4796" lon="6.76625">
        <ele>311</ele>
        <time>2015-03-01T10:57:52.000Z</time>
      </trkpt>
      <trkpt lat="47.47962" lon="6.76623">
        <ele>311</ele>
        <time>2015-03-01T10:57:53.000Z</time>
      </trkpt>
      <trkpt lat="47.47964" lon="6.76621">
        <ele>311</ele>
        <time>2015-03-01T10:57:54.000Z</time>
      </trkpt>
      <trkpt lat="47.47967" lon="6.76619">
        <ele>311</ele>
        <time>2015-03-01T10:57:55.000Z</time>
      </trkpt>
      <trkpt lat="47.4797" lon="6.76618">
        <ele>311</ele>
        <time>2015-03-01T10:57:56.000Z</time>
      </trkpt>
      <trkpt lat="47.47973" lon="6.76616">
        <ele>311</ele>
        <time>2015-03-01T10:57:57.000Z</time>
      </trkpt>
      <trkpt lat="47.47977" lon="6.76614">
        <ele>311</ele>
        <time>2015-03-01T10:57:58.000Z</time>
      </trkpt>
      <trkpt lat="47.4798" lon="6.76611">
        <ele>311</ele>
        <time>2015-03-01T10:57:59.000Z</time>
      </trkpt>
      <trkpt lat="47.47984" lon="6.76609">
        <ele>311</ele>
        <time>2015-03-01T10:58:00.000Z</time>
      </trkpt>
      <trkpt lat="47.47988" lon="6.76606">
        <ele>312</ele>
        <time>2015-03-01T10:58:01.000Z</time>
      </trkpt>
      <trkpt lat="47.47992" lon="6.76604">
        <ele>312</ele>
        <time>2015-03-01T10:58:02.000Z</time>
      </trkpt>
      <trkpt lat="47.47996" lon="6.76601">
        <ele>312</ele>
        <time>2015-03-01T10:58:03.000Z</time>
      </trkpt>
      <trkpt lat="47.48" lon="6.76599">
        <ele>312</ele>
        <time>2015-03-01T10:58:04.000Z</time>
      </trkpt>
      <trkpt lat="47.48005" lon="6.76596">
        <ele>312</ele>
        <time>2015-03-01T10:58:05.000Z</time>
      </trkpt>
      <trkpt lat="47.48009" lon="6.76593">
        <ele>312</ele>
        <time>2015-03-01T10:58:06.000Z</time>
      </trkpt>
      <trkpt lat="47.48013" lon="6.76591">
        <ele>312</ele>
        <time>2015-03-01T10:58:07.000Z</time>
      </trkpt>
      <trkpt lat="47.48017" lon="6.76588">
        <ele>312</ele>
        <time>2015-03-01T10:58:08.000Z</time>
      </trkpt>
      <trkpt lat="47.48021" lon="6.76586">
        <ele>312</ele>
        <time>2015-03-01T10:58:09.000Z</time>
      </trkpt>
      <trkpt lat="47.48025" lon="6.76583">
        <ele>312</ele>
        <time>2015-03-01T10:58:10.000Z</time>
      </trkpt>
      <trkpt lat="47.48029" lon="6.7658">
        <ele>312</ele>
        <time>2015-03-01T10:58:11.000Z</time>
      </trkpt>
      <trkpt lat="47.48034" lon="6.76575">
        <ele>312</ele>
        <time>2015-03-01T10:58:12.000Z</time>
      </trkpt>
      <trkpt lat="47.48039" lon="6.76571">
        <ele>312</ele>
        <time>2015-03-01T10:58:13.000Z</time>
      </trkpt>
      <trkpt lat="47.48043" lon="6.76567">
        <ele>312</ele>
        <time>2015-03-01T10:58:14.000Z</time>
      </trkpt>
      <trkpt lat="47.48047" lon="6.76563">
        <ele>312</ele>
        <time>2015-03-01T10:58:15.000Z</time>
      </trkpt>
      <trkpt lat="47.48052" lon="6.76559">
        <ele>312</ele>
        <time>2015-03-01T10:58:16.000Z</time>
      </trkpt>
      <trkpt lat="47.48056" lon="6.76554">
        <ele>312</ele>
        <time>2015-03-01T10:58:17.000Z</time>
      </trkpt>
      <trkpt lat="47.4806" lon="6.7655">
        <ele>312</ele>
        <time>2015-03-01T10:58:18.000Z</time>
      </trkpt>
      <trkpt lat="47.48064" lon="6.76545">
        <ele>312</ele>
        <time>2015-03-01T10:58:19.000Z</time>
      </trkpt>
      <trkpt lat="47.48068" lon="6.76541">
        <ele>312</ele>
        <time>2015-03-01T10:58:20.000Z</time>
      </trkpt>
      <trkpt lat="47.48072" lon="6.76537">
        <ele>312</ele>
        <time>2015-03-01T10:58:21.000Z</time>
      </trkpt>
      <trkpt lat="47.48076" lon="6.76533">
        <ele>312</ele>
        <time>2015-03-01T10:58:22.000Z</time>
      </trkpt>
      <trkpt lat="47.4808" lon="6.7653">
        <ele>312</ele>
        <time>2015-03-01T10:58:22.999Z</time>
      </trkpt>
      <trkpt lat="47.48083" lon="6.76526">
        <ele>312</ele>
        <time>2015-03-01T10:58:24.000Z</time>
      </trkpt>
      <trkpt lat="47.48086" lon="6.76522">
        <ele>317</ele>
        <time>2015-03-01T10:58:25.000Z</time>
      </trkpt>
      <trkpt lat="47.48091" lon="6.76518">
        <ele>317</ele>
        <time>2015-03-01T10:58:26.000Z</time>
      </trkpt>
      <trkpt lat="47.48094" lon="6.76515">
        <ele>317</ele>
        <time>2015-03-01T10:58:27.000Z</time>
      </trkpt>
      <trkpt lat="47.48097" lon="6.76513">
        <ele>317</ele>
        <time>2015-03-01T10:58:28.000Z</time>
      </trkpt>
      <trkpt lat="47.481" lon="6.76511">
        <ele>317</ele>
        <time>2015-03-01T10:58:29.000Z</time>
      </trkpt>
      <trkpt lat="47.48103" lon="6.76512">
        <ele>318</ele>
        <time>2015-03-01T10:58:30.000Z</time>
      </trkpt>
      <trkpt lat="47.48106" lon="6.76514">
        <ele>318</ele>
        <time>2015-03-01T10:58:31.000Z</time>
      </trkpt>
      <trkpt lat="47.48109" lon="6.76516">
        <ele>319</ele>
        <time>2015-03-01T10:58:32.000Z</time>
      </trkpt>
      <trkpt lat="47.48112" lon="6.76519">
        <ele>319</ele>
        <time>2015-03-01T10:58:33.000Z</time>
      </trkpt>
      <trkpt lat="47.48114" lon="6.76523">
        <ele>320</ele>
        <time>2015-03-01T10:58:34.000Z</time>
      </trkpt>
      <trkpt lat="47.48116" lon="6.76527">
        <ele>320</ele>
        <time>2015-03-01T10:58:35.000Z</time>
      </trkpt>
      <trkpt lat="47.48119" lon="6.76532">
        <ele>320</ele>
        <time>2015-03-01T10:58:36.000Z</time>
      </trkpt>
      <trkpt lat="47.48122" lon="6.76537">
        <ele>320</ele>
        <time>2015-03-01T10:58:37.000Z</time>
      </trkpt>
      <trkpt lat="47.48124" lon="6.76541">
        <ele>320</ele>
        <time>2015-03-01T10:58:38.000Z</time>
      </trkpt>
      <trkpt lat="47.48124" lon="6.76547">
        <ele>320</ele>
        <time>2015-03-01T10:58:39.000Z</time>
      </trkpt>
      <trkpt lat="47.48116" lon="6.76557">
        <ele>318</ele>
        <time>2015-03-01T10:58:40.000Z</time>
      </trkpt>
      <trkpt lat="47.48114" lon="6.76564">
        <ele>318</ele>
        <time>2015-03-01T10:58:41.000Z</time>
      </trkpt>
      <trkpt lat="47.4811" lon="6.7657">
        <ele>317</ele>
        <time>2015-03-01T10:58:42.000Z</time>
      </trkpt>
      <trkpt lat="47.48107" lon="6.76575">
        <ele>317</ele>
        <time>2015-03-01T10:58:43.000Z</time>
      </trkpt>
      <trkpt lat="47.48104" lon="6.76582">
        <ele>316</ele>
        <time>2015-03-01T10:58:44.000Z</time>
      </trkpt>
      <trkpt lat="47.48102" lon="6.76588">
        <ele>313</ele>
        <time>2015-03-01T10:58:45.000Z</time>
      </trkpt>
      <trkpt lat="47.48101" lon="6.76595">
        <ele>313</ele>
        <time>2015-03-01T10:58:46.000Z</time>
      </trkpt>
      <trkpt lat="47.481" lon="6.76602">
        <ele>313</ele>
        <time>2015-03-01T10:58:47.000Z</time>
      </trkpt>
      <trkpt lat="47.481" lon="6.76609">
        <ele>313</ele>
        <time>2015-03-01T10:58:48.000Z</time>
      </trkpt>
      <trkpt lat="47.48102" lon="6.76616">
        <ele>313</ele>
        <time>2015-03-01T10:58:49.001Z</time>
      </trkpt>
      <trkpt lat="47.48102" lon="6.76621">
        <ele>313</ele>
        <time>2015-03-01T10:58:50.000Z</time>
      </trkpt>
      <trkpt lat="47.48103" lon="6.76628">
        <ele>313</ele>
        <time>2015-03-01T10:58:51.000Z</time>
      </trkpt>
      <trkpt lat="47.48106" lon="6.7663">
        <ele>313</ele>
        <time>2015-03-01T10:58:52.000Z</time>
      </trkpt>
      <trkpt lat="47.4811" lon="6.76638">
        <ele>313</ele>
        <time>2015-03-01T10:58:53.000Z</time>
      </trkpt>
      <trkpt lat="47.48111" lon="6.76644">
        <ele>313</ele>
        <time>2015-03-01T10:58:54.000Z</time>
      </trkpt>
      <trkpt lat="47.48114" lon="6.76651">
        <ele>313</ele>
        <time>2015-03-01T10:58:55.000Z</time>
      </trkpt>
      <trkpt lat="47.48118" lon="6.76657">
        <ele>313</ele>
        <time>2015-03-01T10:58:56.000Z</time>
      </trkpt>
      <trkpt lat="47.48121" lon="6.76663">
        <ele>313</ele>
        <time>2015-03-01T10:58:57.000Z</time>
      </trkpt>
      <trkpt lat="47.48125" lon="6.76669">
        <ele>312</ele>
        <time>2015-03-01T10:58:58.000Z</time>
      </trkpt>
      <trkpt lat="47.48129" lon="6.76674">
        <ele>312</ele>
        <time>2015-03-01T10:58:59.000Z</time>
      </trkpt>
      <trkpt lat="47.48133" lon="6.76679">
        <ele>312</ele>
        <time>2015-03-01T10:59:00.000Z</time>
      </trkpt>
      <trkpt lat="47.48137" lon="6.76685">
        <ele>312</ele>
        <time>2015-03-01T10:59:01.000Z</time>
      </trkpt>
      <trkpt lat="47.48141" lon="6.76692">
        <ele>312</ele>
        <time>2015-03-01T10:59:02.000Z</time>
      </trkpt>
      <trkpt lat="47.48145" lon="6.767">
        <ele>312</ele>
        <time>2015-03-01T10:59:03.000Z</time>
      </trkpt>
      <trkpt lat="47.48148" lon="6.76707">
        <ele>312</ele>
        <time>2015-03-01T10:59:04.000Z</time>
      </trkpt>
      <trkpt lat="47.48151" lon="6.76713">
        <ele>312</ele>
        <time>2015-03-01T10:59:05.000Z</time>
      </trkpt>
      <trkpt lat="47.48154" lon="6.7672">
        <ele>312</ele>
        <time>2015-03-01T10:59:06.000Z</time>
      </trkpt>
      <trkpt lat="47.48156" lon="6.76726">
        <ele>312</ele>
        <time>2015-03-01T10:59:07.000Z</time>
      </trkpt>
      <trkpt lat="47.48159" lon="6.76732">
        <ele>312</ele>
        <time>2015-03-01T10:59:08.000Z</time>
      </trkpt>
      <trkpt lat="47.48161" lon="6.76739">
        <ele>313</ele>
        <time>2015-03-01T10:59:09.000Z</time>
      </trkpt>
      <trkpt lat="47.48164" lon="6.76744">
        <ele>313</ele>
        <time>2015-03-01T10:59:10.000Z</time>
      </trkpt>
      <trkpt lat="47.48167" lon="6.76749">
        <ele>313</ele>
        <time>2015-03-01T10:59:11.000Z</time>
      </trkpt>
      <trkpt lat="47.4817" lon="6.76754">
        <ele>313</ele>
        <time>2015-03-01T10:59:12.000Z</time>
      </trkpt>
      <trkpt lat="47.48174" lon="6.76758">
        <ele>313</ele>
        <time>2015-03-01T10:59:13.000Z</time>
      </trkpt>
      <trkpt lat="47.48178" lon="6.76762">
        <ele>313</ele>
        <time>2015-03-01T10:59:14.000Z</time>
      </trkpt>
      <trkpt lat="47.48183" lon="6.76767">
        <ele>312</ele>
        <time>2015-03-01T10:59:15.000Z</time>
      </trkpt>
      <trkpt lat="47.48189" lon="6.7677">
        <ele>312</ele>
        <time>2015-03-01T10:59:16.000Z</time>
      </trkpt>
      <trkpt lat="47.48193" lon="6.76773">
        <ele>312</ele>
        <time>2015-03-01T10:59:17.000Z</time>
      </trkpt>
      <trkpt lat="47.48198" lon="6.76776">
        <ele>312</ele>
        <time>2015-03-01T10:59:18.000Z</time>
      </trkpt>
      <trkpt lat="47.48204" lon="6.76779">
        <ele>312</ele>
        <time>2015-03-01T10:59:19.000Z</time>
      </trkpt>
      <trkpt lat="47.48209" lon="6.76785">
        <ele>312</ele>
        <time>2015-03-01T10:59:20.000Z</time>
      </trkpt>
      <trkpt lat="47.48214" lon="6.76788">
        <ele>312</ele>
        <time>2015-03-01T10:59:21.000Z</time>
      </trkpt>
      <trkpt lat="47.48219" lon="6.7679">
        <ele>312</ele>
        <time>2015-03-01T10:59:22.000Z</time>
      </trkpt>
      <trkpt lat="47.48224" lon="6.76793">
        <ele>312</ele>
        <time>2015-03-01T10:59:23.000Z</time>
      </trkpt>
      <trkpt lat="47.48229" lon="6.76796">
        <ele>312</ele>
        <time>2015-03-01T10:59:24.000Z</time>
      </trkpt>
      <trkpt lat="47.48234" lon="6.76799">
        <ele>312</ele>
        <time>2015-03-01T10:59:25.000Z</time>
      </trkpt>
      <trkpt lat="47.4824" lon="6.76803">
        <ele>312</ele>
        <time>2015-03-01T10:59:26.000Z</time>
      </trkpt>
      <trkpt lat="47.48245" lon="6.76805">
        <ele>312</ele>
        <time>2015-03-01T10:59:27.000Z</time>
      </trkpt>
      <trkpt lat="47.48249" lon="6.76809">
        <ele>312</ele>
        <time>2015-03-01T10:59:28.000Z</time>
      </trkpt>
      <trkpt lat="47.48253" lon="6.76814">
        <ele>312</ele>
        <time>2015-03-01T10:59:29.000Z</time>
      </trkpt>
      <trkpt lat="47.48257" lon="6.7682">
        <ele>312</ele>
        <time>2015-03-01T10:59:30.000Z</time>
      </trkpt>
      <trkpt lat="47.4826" lon="6.76825">
        <ele>312</ele>
        <time>2015-03-01T10:59:31.000Z</time>
      </trkpt>
      <trkpt lat="47.48265" lon="6.76831">
        <ele>312</ele>
        <time>2015-03-01T10:59:32.000Z</time>
      </trkpt>
      <trkpt lat="47.48268" lon="6.76837">
        <ele>311</ele>
        <time>2015-03-01T10:59:33.000Z</time>
      </trkpt>
      <trkpt lat="47.48272" lon="6.76844">
        <ele>311</ele>
        <time>2015-03-01T10:59:34.000Z</time>
      </trkpt>
      <trkpt lat="47.48277" lon="6.7685">
        <ele>311</ele>
        <time>2015-03-01T10:59:35.000Z</time>
      </trkpt>
      <trkpt lat="47.48281" lon="6.76855">
        <ele>310</ele>
        <time>2015-03-01T10:59:36.000Z</time>
      </trkpt>
      <trkpt lat="47.48285" lon="6.76861">
        <ele>310</ele>
        <time>2015-03-01T10:59:37.000Z</time>
      </trkpt>
      <trkpt lat="47.4829" lon="6.76867">
        <ele>310</ele>
        <time>2015-03-01T10:59:38.000Z</time>
      </trkpt>
      <trkpt lat="47.48295" lon="6.76871">
        <ele>310</ele>
        <time>2015-03-01T10:59:39.000Z</time>
      </trkpt>
      <trkpt lat="47.483" lon="6.76876">
        <ele>310</ele>
        <time>2015-03-01T10:59:40.000Z</time>
      </trkpt>
      <trkpt lat="47.48305" lon="6.76879">
        <ele>310</ele>
        <time>2015-03-01T10:59:41.000Z</time>
      </trkpt>
      <trkpt lat="47.4831" lon="6.76884">
        <ele>310</ele>
        <time>2015-03-01T10:59:42.000Z</time>
      </trkpt>
      <trkpt lat="47.48315" lon="6.76889">
        <ele>310</ele>
        <time>2015-03-01T10:59:43.000Z</time>
      </trkpt>
      <trkpt lat="47.48321" lon="6.76894">
        <ele>310</ele>
        <time>2015-03-01T10:59:44.000Z</time>
      </trkpt>
      <trkpt lat="47.48326" lon="6.76898">
        <ele>310</ele>
        <time>2015-03-01T10:59:45.000Z</time>
      </trkpt>
      <trkpt lat="47.48331" lon="6.76902">
        <ele>310</ele>
        <time>2015-03-01T10:59:46.000Z</time>
      </trkpt>
      <trkpt lat="47.48336" lon="6.76906">
        <ele>310</ele>
        <time>2015-03-01T10:59:47.000Z</time>
      </trkpt>
      <trkpt lat="47.48342" lon="6.7691">
        <ele>310</ele>
        <time>2015-03-01T10:59:48.000Z</time>
      </trkpt>
      <trkpt lat="47.48348" lon="6.76914">
        <ele>310</ele>
        <time>2015-03-01T10:59:49.000Z</time>
      </trkpt>
      <trkpt lat="47.48353" lon="6.76917">
        <ele>311</ele>
        <time>2015-03-01T10:59:50.000Z</time>
      </trkpt>
      <trkpt lat="47.48359" lon="6.76921">
        <ele>311</ele>
        <time>2015-03-01T10:59:51.000Z</time>
      </trkpt>
      <trkpt lat="47.48365" lon="6.76924">
        <ele>311</ele>
        <time>2015-03-01T10:59:52.000Z</time>
      </trkpt>
      <trkpt lat="47.48371" lon="6.76927">
        <ele>312</ele>
        <time>2015-03-01T10:59:53.000Z</time>
      </trkpt>
      <trkpt lat="47.48377" lon="6.7693">
        <ele>312</ele>
        <time>2015-03-01T10:59:54.000Z</time>
      </trkpt>
      <trkpt lat="47.48382" lon="6.76933">
        <ele>312</ele>
        <time>2015-03-01T10:59:55.000Z</time>
      </trkpt>
      <trkpt lat="47.48388" lon="6.76937">
        <ele>312</ele>
        <time>2015-03-01T10:59:56.000Z</time>
      </trkpt>
      <trkpt lat="47.48393" lon="6.7694">
        <ele>312</ele>
        <time>2015-03-01T10:59:57.000Z</time>
      </trkpt>
      <trkpt lat="47.48399" lon="6.76943">
        <ele>312</ele>
        <time>2015-03-01T10:59:58.000Z</time>
      </trkpt>
      <trkpt lat="47.48405" lon="6.76946">
        <ele>312</ele>
        <time>2015-03-01T10:59:59.000Z</time>
      </trkpt>
      <trkpt lat="47.48411" lon="6.7695">
        <ele>312</ele>
        <time>2015-03-01T11:00:00.000Z</time>
      </trkpt>
      <trkpt lat="47.48417" lon="6.76954">
        <ele>314</ele>
        <time>2015-03-01T11:00:01.000Z</time>
      </trkpt>
      <trkpt lat="47.48422" lon="6.76957">
        <ele>314</ele>
        <time>2015-03-01T11:00:02.000Z</time>
      </trkpt>
      <trkpt lat="47.48427" lon="6.76959">
        <ele>314</ele>
        <time>2015-03-01T11:00:03.000Z</time>
      </trkpt>
      <trkpt lat="47.48433" lon="6.76961">
        <ele>314</ele>
        <time>2015-03-01T11:00:04.000Z</time>
      </trkpt>
      <trkpt lat="47.48438" lon="6.76964">
        <ele>315</ele>
        <time>2015-03-01T11:00:05.000Z</time>
      </trkpt>
      <trkpt lat="47.48443" lon="6.76967">
        <ele>315</ele>
        <time>2015-03-01T11:00:06.000Z</time>
      </trkpt>
      <trkpt lat="47.48449" lon="6.76972">
        <ele>315</ele>
        <time>2015-03-01T11:00:07.000Z</time>
      </trkpt>
      <trkpt lat="47.48454" lon="6.76976">
        <ele>315</ele>
        <time>2015-03-01T11:00:08.000Z</time>
      </trkpt>
      <trkpt lat="47.4846" lon="6.76979">
        <ele>315</ele>
        <time>2015-03-01T11:00:09.000Z</time>
      </trkpt>
      <trkpt lat="47.48465" lon="6.76983">
        <ele>315</ele>
        <time>2015-03-01T11:00:09.999Z</time>
      </trkpt>
      <trkpt lat="47.4847" lon="6.76986">
        <ele>315</ele>
        <time>2015-03-01T11:00:11.000Z</time>
      </trkpt>
      <trkpt lat="47.48475" lon="6.7699">
        <ele>315</ele>
        <time>2015-03-01T11:00:12.000Z</time>
      </trkpt>
      <trkpt lat="47.4848" lon="6.76993">
        <ele>315</ele>
        <time>2015-03-01T11:00:13.000Z</time>
      </trkpt>
      <trkpt lat="47.48485" lon="6.76997">
        <ele>316</ele>
        <time>2015-03-01T11:00:14.000Z</time>
      </trkpt>
      <trkpt lat="47.4849" lon="6.77">
        <ele>316</ele>
        <time>2015-03-01T11:00:14.999Z</time>
      </trkpt>
      <trkpt lat="47.48495" lon="6.77004">
        <ele>315</ele>
        <time>2015-03-01T11:00:16.000Z</time>
      </trkpt>
      <trkpt lat="47.48501" lon="6.77007">
        <ele>315</ele>
        <time>2015-03-01T11:00:17.000Z</time>
      </trkpt>
      <trkpt lat="47.48506" lon="6.77011">
        <ele>315</ele>
        <time>2015-03-01T11:00:18.000Z</time>
      </trkpt>
      <trkpt lat="47.48511" lon="6.77015">
        <ele>315</ele>
        <time>2015-03-01T11:00:19.000Z</time>
      </trkpt>
      <trkpt lat="47.48516" lon="6.77019">
        <ele>315</ele>
        <time>2015-03-01T11:00:20.000Z</time>
      </trkpt>
      <trkpt lat="47.48521" lon="6.77022">
        <ele>315</ele>
        <time>2015-03-01T11:00:21.000Z</time>
      </trkpt>
      <trkpt lat="47.48525" lon="6.77026">
        <ele>314</ele>
        <time>2015-03-01T11:00:22.000Z</time>
      </trkpt>
      <trkpt lat="47.4853" lon="6.77031">
        <ele>314</ele>
        <time>2015-03-01T11:00:23.000Z</time>
      </trkpt>
      <trkpt lat="47.48536" lon="6.77034">
        <ele>314</ele>
        <time>2015-03-01T11:00:24.000Z</time>
      </trkpt>
      <trkpt lat="47.48541" lon="6.77037">
        <ele>314</ele>
        <time>2015-03-01T11:00:25.000Z</time>
      </trkpt>
      <trkpt lat="47.48546" lon="6.77042">
        <ele>314</ele>
        <time>2015-03-01T11:00:26.000Z</time>
      </trkpt>
      <trkpt lat="47.48552" lon="6.77044">
        <ele>314</ele>
        <time>2015-03-01T11:00:27.000Z</time>
      </trkpt>
      <trkpt lat="47.48556" lon="6.77044">
        <ele>314</ele>
        <time>2015-03-01T11:00:28.000Z</time>
      </trkpt>
      <trkpt lat="47.48561" lon="6.77045">
        <ele>314</ele>
        <time>2015-03-01T11:00:29.000Z</time>
      </trkpt>
      <trkpt lat="47.48565" lon="6.77047">
        <ele>314</ele>
        <time>2015-03-01T11:00:30.000Z</time>
      </trkpt>
      <trkpt lat="47.48569" lon="6.77049">
        <ele>314</ele>
        <time>2015-03-01T11:00:31.000Z</time>
      </trkpt>
      <trkpt lat="47.48573" lon="6.77052">
        <ele>314</ele>
        <time>2015-03-01T11:00:32.000Z</time>
      </trkpt>
      <trkpt lat="47.48578" lon="6.77054">
        <ele>314</ele>
        <time>2015-03-01T11:00:33.000Z</time>
      </trkpt>
      <trkpt lat="47.48582" lon="6.77056">
        <ele>314</ele>
        <time>2015-03-01T11:00:34.000Z</time>
      </trkpt>
      <trkpt lat="47.48587" lon="6.77059">
        <ele>313</ele>
        <time>2015-03-01T11:00:35.000Z</time>
      </trkpt>
      <trkpt lat="47.48593" lon="6.77062">
        <ele>313</ele>
        <time>2015-03-01T11:00:36.000Z</time>
      </trkpt>
      <trkpt lat="47.48599" lon="6.77064">
        <ele>313</ele>
        <time>2015-03-01T11:00:37.000Z</time>
      </trkpt>
      <trkpt lat="47.48603" lon="6.77067">
        <ele>313</ele>
        <time>2015-03-01T11:00:38.000Z</time>
      </trkpt>
      <trkpt lat="47.48609" lon="6.77069">
        <ele>313</ele>
        <time>2015-03-01T11:00:39.000Z</time>
      </trkpt>
      <trkpt lat="47.48613" lon="6.77073">
        <ele>313</ele>
        <time>2015-03-01T11:00:40.000Z</time>
      </trkpt>
      <trkpt lat="47.48618" lon="6.77076">
        <ele>313</ele>
        <time>2015-03-01T11:00:41.000Z</time>
      </trkpt>
      <trkpt lat="47.48623" lon="6.7708">
        <ele>313</ele>
        <time>2015-03-01T11:00:42.000Z</time>
      </trkpt>
      <trkpt lat="47.48628" lon="6.77082">
        <ele>313</ele>
        <time>2015-03-01T11:00:43.000Z</time>
      </trkpt>
      <trkpt lat="47.48632" lon="6.77087">
        <ele>312</ele>
        <time>2015-03-01T11:00:44.000Z</time>
      </trkpt>
      <trkpt lat="47.48637" lon="6.77091">
        <ele>312</ele>
        <time>2015-03-01T11:00:45.000Z</time>
      </trkpt>
      <trkpt lat="47.48642" lon="6.77097">
        <ele>312</ele>
        <time>2015-03-01T11:00:46.000Z</time>
      </trkpt>
      <trkpt lat="47.48647" lon="6.77102">
        <ele>312</ele>
        <time>2015-03-01T11:00:47.000Z</time>
      </trkpt>
      <trkpt lat="47.48651" lon="6.77107">
        <ele>312</ele>
        <time>2015-03-01T11:00:48.000Z</time>
      </trkpt>
      <trkpt lat="47.48656" lon="6.77113">
        <ele>312</ele>
        <time>2015-03-01T11:00:49.000Z</time>
      </trkpt>
      <trkpt lat="47.48661" lon="6.77117">
        <ele>312</ele>
        <time>2015-03-01T11:00:50.000Z</time>
      </trkpt>
      <trkpt lat="47.48666" lon="6.77123">
        <ele>312</ele>
        <time>2015-03-01T11:00:51.000Z</time>
      </trkpt>
      <trkpt lat="47.4867" lon="6.77129">
        <ele>312</ele>
        <time>2015-03-01T11:00:52.000Z</time>
      </trkpt>
      <trkpt lat="47.48675" lon="6.77134">
        <ele>312</ele>
        <time>2015-03-01T11:00:53.000Z</time>
      </trkpt>
      <trkpt lat="47.4868" lon="6.77139">
        <ele>311</ele>
        <time>2015-03-01T11:00:54.000Z</time>
      </trkpt>
      <trkpt lat="47.48684" lon="6.77144">
        <ele>311</ele>
        <time>2015-03-01T11:00:55.000Z</time>
      </trkpt>
      <trkpt lat="47.48689" lon="6.77148">
        <ele>311</ele>
        <time>2015-03-01T11:00:56.000Z</time>
      </trkpt>
      <trkpt lat="47.48694" lon="6.77152">
        <ele>311</ele>
        <time>2015-03-01T11:00:57.000Z</time>
      </trkpt>
      <trkpt lat="47.48699" lon="6.77158">
        <ele>311</ele>
        <time>2015-03-01T11:00:58.000Z</time>
      </trkpt>
      <trkpt lat="47.48704" lon="6.77162">
        <ele>311</ele>
        <time>2015-03-01T11:00:59.000Z</time>
      </trkpt>
      <trkpt lat="47.48709" lon="6.77167">
        <ele>311</ele>
        <time>2015-03-01T11:01:00.000Z</time>
      </trkpt>
      <trkpt lat="47.48713" lon="6.77171">
        <ele>311</ele>
        <time>2015-03-01T11:01:01.000Z</time>
      </trkpt>
      <trkpt lat="47.48718" lon="6.77175">
        <ele>311</ele>
        <time>2015-03-01T11:01:02.000Z</time>
      </trkpt>
      <trkpt lat="47.48723" lon="6.77179">
        <ele>311</ele>
        <time>2015-03-01T11:01:03.000Z</time>
      </trkpt>
      <trkpt lat="47.48729" lon="6.77183">
        <ele>310</ele>
        <time>2015-03-01T11:01:04.000Z</time>
      </trkpt>
      <trkpt lat="47.48733" lon="6.77186">
        <ele>310</ele>
        <time>2015-03-01T11:01:05.000Z</time>
      </trkpt>
      <trkpt lat="47.48738" lon="6.7719">
        <ele>310</ele>
        <time>2015-03-01T11:01:06.000Z</time>
      </trkpt>
      <trkpt lat="47.48743" lon="6.77194">
        <ele>310</ele>
        <time>2015-03-01T11:01:07.000Z</time>
      </trkpt>
      <trkpt lat="47.48748" lon="6.77198">
        <ele>310</ele>
        <time>2015-03-01T11:01:08.000Z</time>
      </trkpt>
      <trkpt lat="47.48753" lon="6.77202">
        <ele>310</ele>
        <time>2015-03-01T11:01:09.000Z</time>
      </trkpt>
      <trkpt lat="47.48758" lon="6.77205">
        <ele>310</ele>
        <time>2015-03-01T11:01:10.000Z</time>
      </trkpt>
      <trkpt lat="47.48764" lon="6.77209">
        <ele>310</ele>
        <time>2015-03-01T11:01:11.000Z</time>
      </trkpt>
      <trkpt lat="47.48768" lon="6.77213">
        <ele>310</ele>
        <time>2015-03-01T11:01:12.000Z</time>
      </trkpt>
      <trkpt lat="47.48774" lon="6.77216">
        <ele>310</ele>
        <time>2015-03-01T11:01:13.000Z</time>
      </trkpt>
      <trkpt lat="47.48778" lon="6.7722">
        <ele>310</ele>
        <time>2015-03-01T11:01:14.000Z</time>
      </trkpt>
      <trkpt lat="47.48784" lon="6.77224">
        <ele>310</ele>
        <time>2015-03-01T11:01:15.000Z</time>
      </trkpt>
      <trkpt lat="47.48789" lon="6.77228">
        <ele>310</ele>
        <time>2015-03-01T11:01:16.000Z</time>
      </trkpt>
      <trkpt lat="47.48793" lon="6.77231">
        <ele>310</ele>
        <time>2015-03-01T11:01:17.000Z</time>
      </trkpt>
      <trkpt lat="47.48798" lon="6.77235">
        <ele>310</ele>
        <time>2015-03-01T11:01:18.000Z</time>
      </trkpt>
      <trkpt lat="47.48804" lon="6.77239">
        <ele>311</ele>
        <time>2015-03-01T11:01:19.000Z</time>
      </trkpt>
      <trkpt lat="47.48809" lon="6.77243">
        <ele>311</ele>
        <time>2015-03-01T11:01:20.000Z</time>
      </trkpt>
      <trkpt lat="47.48814" lon="6.77246">
        <ele>311</ele>
        <time>2015-03-01T11:01:21.000Z</time>
      </trkpt>
      <trkpt lat="47.48819" lon="6.7725">
        <ele>310</ele>
        <time>2015-03-01T11:01:22.000Z</time>
      </trkpt>
      <trkpt lat="47.48824" lon="6.77254">
        <ele>311</ele>
        <time>2015-03-01T11:01:23.000Z</time>
      </trkpt>
      <trkpt lat="47.48829" lon="6.77258">
        <ele>311</ele>
        <time>2015-03-01T11:01:24.000Z</time>
      </trkpt>
      <trkpt lat="47.48835" lon="6.77261">
        <ele>311</ele>
        <time>2015-03-01T11:01:25.000Z</time>
      </trkpt>
      <trkpt lat="47.4884" lon="6.77265">
        <ele>310</ele>
        <time>2015-03-01T11:01:26.000Z</time>
      </trkpt>
      <trkpt lat="47.48844" lon="6.77268">
        <ele>310</ele>
        <time>2015-03-01T11:01:27.000Z</time>
      </trkpt>
      <trkpt lat="47.4885" lon="6.77272">
        <ele>310</ele>
        <time>2015-03-01T11:01:28.000Z</time>
      </trkpt>
      <trkpt lat="47.48854" lon="6.77274">
        <ele>310</ele>
        <time>2015-03-01T11:01:29.000Z</time>
      </trkpt>
      <trkpt lat="47.48859" lon="6.77276">
        <ele>310</ele>
        <time>2015-03-01T11:01:30.000Z</time>
      </trkpt>
      <trkpt lat="47.48864" lon="6.77278">
        <ele>310</ele>
        <time>2015-03-01T11:01:31.000Z</time>
      </trkpt>
      <trkpt lat="47.48868" lon="6.77281">
        <ele>310</ele>
        <time>2015-03-01T11:01:32.000Z</time>
      </trkpt>
      <trkpt lat="47.48874" lon="6.77282">
        <ele>310</ele>
        <time>2015-03-01T11:01:33.000Z</time>
      </trkpt>
      <trkpt lat="47.48879" lon="6.77284">
        <ele>310</ele>
        <time>2015-03-01T11:01:34.000Z</time>
      </trkpt>
      <trkpt lat="47.48884" lon="6.77284">
        <ele>310</ele>
        <time>2015-03-01T11:01:35.000Z</time>
      </trkpt>
      <trkpt lat="47.4889" lon="6.77288">
        <ele>310</ele>
        <time>2015-03-01T11:01:36.000Z</time>
      </trkpt>
      <trkpt lat="47.48897" lon="6.7729">
        <ele>310</ele>
        <time>2015-03-01T11:01:37.000Z</time>
      </trkpt>
      <trkpt lat="47.48903" lon="6.77292">
        <ele>310</ele>
        <time>2015-03-01T11:01:38.000Z</time>
      </trkpt>
      <trkpt lat="47.48907" lon="6.77294">
        <ele>310</ele>
        <time>2015-03-01T11:01:39.000Z</time>
      </trkpt>
      <trkpt lat="47.48912" lon="6.77297">
        <ele>310</ele>
        <time>2015-03-01T11:01:40.000Z</time>
      </trkpt>
      <trkpt lat="47.48918" lon="6.77299">
        <ele>311</ele>
        <time>2015-03-01T11:01:41.000Z</time>
      </trkpt>
      <trkpt lat="47.48924" lon="6.77301">
        <ele>311</ele>
        <time>2015-03-01T11:01:42.000Z</time>
      </trkpt>
      <trkpt lat="47.48931" lon="6.77304">
        <ele>311</ele>
        <time>2015-03-01T11:01:43.000Z</time>
      </trkpt>
      <trkpt lat="47.48936" lon="6.77306">
        <ele>311</ele>
        <time>2015-03-01T11:01:44.000Z</time>
      </trkpt>
      <trkpt lat="47.48941" lon="6.77308">
        <ele>311</ele>
        <time>2015-03-01T11:01:45.000Z</time>
      </trkpt>
      <trkpt lat="47.48946" lon="6.7731">
        <ele>311</ele>
        <time>2015-03-01T11:01:46.000Z</time>
      </trkpt>
      <trkpt lat="47.48952" lon="6.77313">
        <ele>311</ele>
        <time>2015-03-01T11:01:47.000Z</time>
      </trkpt>
      <trkpt lat="47.48958" lon="6.77314">
        <ele>311</ele>
        <time>2015-03-01T11:01:48.000Z</time>
      </trkpt>
      <trkpt lat="47.48963" lon="6.77315">
        <ele>311</ele>
        <time>2015-03-01T11:01:49.000Z</time>
      </trkpt>
      <trkpt lat="47.48969" lon="6.77316">
        <ele>311</ele>
        <time>2015-03-01T11:01:50.000Z</time>
      </trkpt>
      <trkpt lat="47.48974" lon="6.77317">
        <ele>311</ele>
        <time>2015-03-01T11:01:51.000Z</time>
      </trkpt>
      <trkpt lat="47.48979" lon="6.77317">
        <ele>311</ele>
        <time>2015-03-01T11:01:52.000Z</time>
      </trkpt>
      <trkpt lat="47.48985" lon="6.77318">
        <ele>311</ele>
        <time>2015-03-01T11:01:53.000Z</time>
      </trkpt>
      <trkpt lat="47.4899" lon="6.77318">
        <ele>311</ele>
        <time>2015-03-01T11:01:54.000Z</time>
      </trkpt>
      <trkpt lat="47.48995" lon="6.77319">
        <ele>311</ele>
        <time>2015-03-01T11:01:55.000Z</time>
      </trkpt>
      <trkpt lat="47.49" lon="6.77319">
        <ele>311</ele>
        <time>2015-03-01T11:01:56.000Z</time>
      </trkpt>
      <trkpt lat="47.49005" lon="6.7732">
        <ele>311</ele>
        <time>2015-03-01T11:01:57.000Z</time>
      </trkpt>
      <trkpt lat="47.49011" lon="6.77321">
        <ele>311</ele>
        <time>2015-03-01T11:01:58.000Z</time>
      </trkpt>
      <trkpt lat="47.49016" lon="6.77321">
        <ele>311</ele>
        <time>2015-03-01T11:01:59.000Z</time>
      </trkpt>
      <trkpt lat="47.49021" lon="6.77321">
        <ele>311</ele>
        <time>2015-03-01T11:02:00.000Z</time>
      </trkpt>
      <trkpt lat="47.49026" lon="6.77321">
        <ele>311</ele>
        <time>2015-03-01T11:02:01.000Z</time>
      </trkpt>
      <trkpt lat="47.4903" lon="6.77319">
        <ele>311</ele>
        <time>2015-03-01T11:02:02.000Z</time>
      </trkpt>
      <trkpt lat="47.49035" lon="6.77319">
        <ele>311</ele>
        <time>2015-03-01T11:02:03.000Z</time>
      </trkpt>
      <trkpt lat="47.4904" lon="6.7732">
        <ele>311</ele>
        <time>2015-03-01T11:02:04.000Z</time>
      </trkpt>
      <trkpt lat="47.49044" lon="6.77321">
        <ele>311</ele>
        <time>2015-03-01T11:02:05.000Z</time>
      </trkpt>
      <trkpt lat="47.49049" lon="6.77322">
        <ele>311</ele>
        <time>2015-03-01T11:02:06.000Z</time>
      </trkpt>
      <trkpt lat="47.49053" lon="6.77322">
        <ele>311</ele>
        <time>2015-03-01T11:02:07.000Z</time>
      </trkpt>
      <trkpt lat="47.49057" lon="6.77321">
        <ele>311</ele>
        <time>2015-03-01T11:02:08.000Z</time>
      </trkpt>
      <trkpt lat="47.49062" lon="6.77321">
        <ele>311</ele>
        <time>2015-03-01T11:02:09.000Z</time>
      </trkpt>
      <trkpt lat="47.49067" lon="6.77322">
        <ele>311</ele>
        <time>2015-03-01T11:02:10.000Z</time>
      </trkpt>
      <trkpt lat="47.49072" lon="6.77322">
        <ele>311</ele>
        <time>2015-03-01T11:02:11.000Z</time>
      </trkpt>
      <trkpt lat="47.49077" lon="6.77322">
        <ele>311</ele>
        <time>2015-03-01T11:02:12.000Z</time>
      </trkpt>
      <trkpt lat="47.49081" lon="6.77323">
        <ele>311</ele>
        <time>2015-03-01T11:02:13.000Z</time>
      </trkpt>
      <trkpt lat="47.49085" lon="6.77323">
        <ele>311</ele>
        <time>2015-03-01T11:02:14.000Z</time>
      </trkpt>
      <trkpt lat="47.4909" lon="6.77323">
        <ele>311</ele>
        <time>2015-03-01T11:02:15.000Z</time>
      </trkpt>
      <trkpt lat="47.49095" lon="6.77323">
        <ele>311</ele>
        <time>2015-03-01T11:02:16.000Z</time>
      </trkpt>
      <trkpt lat="47.49099" lon="6.77323">
        <ele>311</ele>
        <time>2015-03-01T11:02:17.000Z</time>
      </trkpt>
      <trkpt lat="47.49103" lon="6.77324">
        <ele>311</ele>
        <time>2015-03-01T11:02:18.000Z</time>
      </trkpt>
      <trkpt lat="47.49108" lon="6.77325">
        <ele>311</ele>
        <time>2015-03-01T11:02:19.000Z</time>
      </trkpt>
      <trkpt lat="47.49112" lon="6.77326">
        <ele>311</ele>
        <time>2015-03-01T11:02:20.000Z</time>
      </trkpt>
      <trkpt lat="47.49117" lon="6.77326">
        <ele>311</ele>
        <time>2015-03-01T11:02:21.000Z</time>
      </trkpt>
      <trkpt lat="47.49121" lon="6.77326">
        <ele>311</ele>
        <time>2015-03-01T11:02:22.000Z</time>
      </trkpt>
      <trkpt lat="47.49125" lon="6.77326">
        <ele>311</ele>
        <time>2015-03-01T11:02:23.000Z</time>
      </trkpt>
      <trkpt lat="47.49129" lon="6.77326">
        <ele>311</ele>
        <time>2015-03-01T11:02:24.000Z</time>
      </trkpt>
      <trkpt lat="47.49133" lon="6.77326">
        <ele>311</ele>
        <time>2015-03-01T11:02:25.001Z</time>
      </trkpt>
      <trkpt lat="47.49136" lon="6.77325">
        <ele>311</ele>
        <time>2015-03-01T11:02:26.000Z</time>
      </trkpt>
      <trkpt lat="47.49139" lon="6.77325">
        <ele>311</ele>
        <time>2015-03-01T11:02:27.000Z</time>
      </trkpt>
      <trkpt lat="47.49142" lon="6.77326">
        <ele>311</ele>
        <time>2015-03-01T11:02:28.000Z</time>
      </trkpt>
      <trkpt lat="47.49145" lon="6.77326">
        <ele>311</ele>
        <time>2015-03-01T11:02:29.000Z</time>
      </trkpt>
      <trkpt lat="47.49148" lon="6.77326">
        <ele>311</ele>
        <time>2015-03-01T11:02:30.000Z</time>
      </trkpt>
      <trkpt lat="47.49151" lon="6.77327">
        <ele>311</ele>
        <time>2015-03-01T11:02:31.000Z</time>
      </trkpt>
      <trkpt lat="47.49154" lon="6.77327">
        <ele>311</ele>
        <time>2015-03-01T11:02:32.000Z</time>
      </trkpt>
      <trkpt lat="47.49156" lon="6.77327">
        <ele>310</ele>
        <time>2015-03-01T11:02:33.000Z</time>
      </trkpt>
      <trkpt lat="47.49159" lon="6.77327">
        <ele>310</ele>
        <time>2015-03-01T11:02:34.000Z</time>
      </trkpt>
      <trkpt lat="47.49161" lon="6.77327">
        <ele>310</ele>
        <time>2015-03-01T11:02:35.000Z</time>
      </trkpt>
      <trkpt lat="47.49163" lon="6.77327">
        <ele>310</ele>
        <time>2015-03-01T11:02:36.000Z</time>
      </trkpt>
      <trkpt lat="47.49165" lon="6.77327">
        <ele>310</ele>
        <time>2015-03-01T11:02:37.000Z</time>
      </trkpt>
      <trkpt lat="47.4917" lon="6.77327">
        <ele>310</ele>
        <time>2015-03-01T11:02:39.000Z</time>
      </trkpt>
      <trkpt lat="47.49172" lon="6.77327">
        <ele>310</ele>
        <time>2015-03-01T11:02:40.000Z</time>
      </trkpt>
      <trkpt lat="47.49175" lon="6.77328">
        <ele>310</ele>
        <time>2015-03-01T11:02:42.000Z</time>
      </trkpt>
      <trkpt lat="47.49177" lon="6.77328">
        <ele>310</ele>
        <time>2015-03-01T11:02:43.000Z</time>
      </trkpt>
      <trkpt lat="47.4918" lon="6.77328">
        <ele>310</ele>
        <time>2015-03-01T11:02:46.000Z</time>
      </trkpt>
      <trkpt lat="47.49181" lon="6.77327">
        <ele>310</ele>
        <time>2015-03-01T11:02:47.000Z</time>
      </trkpt>
      <trkpt lat="47.49184" lon="6.77331">
        <ele>310</ele>
        <time>2015-03-01T11:04:28.000Z</time>
      </trkpt>
      <trkpt lat="47.49186" lon="6.77332">
        <ele>310</ele>
        <time>2015-03-01T11:04:29.000Z</time>
      </trkpt>
      <trkpt lat="47.49188" lon="6.77332">
        <ele>310</ele>
        <time>2015-03-01T11:04:30.000Z</time>
      </trkpt>
      <trkpt lat="47.49192" lon="6.77333">
        <ele>310</ele>
        <time>2015-03-01T11:04:31.000Z</time>
      </trkpt>
      <trkpt lat="47.49196" lon="6.77333">
        <ele>310</ele>
        <time>2015-03-01T11:04:32.000Z</time>
      </trkpt>
      <trkpt lat="47.492" lon="6.77333">
        <ele>310</ele>
        <time>2015-03-01T11:04:33.000Z</time>
      </trkpt>
      <trkpt lat="47.49204" lon="6.77333">
        <ele>310</ele>
        <time>2015-03-01T11:04:34.000Z</time>
      </trkpt>
      <trkpt lat="47.49209" lon="6.77333">
        <ele>310</ele>
        <time>2015-03-01T11:04:35.000Z</time>
      </trkpt>
      <trkpt lat="47.49216" lon="6.77332">
        <ele>310</ele>
        <time>2015-03-01T11:04:36.000Z</time>
      </trkpt>
      <trkpt lat="47.4922" lon="6.77334">
        <ele>309</ele>
        <time>2015-03-01T11:04:37.000Z</time>
      </trkpt>
      <trkpt lat="47.49223" lon="6.77334">
        <ele>309</ele>
        <time>2015-03-01T11:04:38.000Z</time>
      </trkpt>
      <trkpt lat="47.49227" lon="6.77334">
        <ele>309</ele>
        <time>2015-03-01T11:04:39.000Z</time>
      </trkpt>
      <trkpt lat="47.49231" lon="6.77334">
        <ele>310</ele>
        <time>2015-03-01T11:04:40.000Z</time>
      </trkpt>
      <trkpt lat="47.49235" lon="6.77334">
        <ele>310</ele>
        <time>2015-03-01T11:04:41.000Z</time>
      </trkpt>
      <trkpt lat="47.49238" lon="6.77334">
        <ele>310</ele>
        <time>2015-03-01T11:04:42.000Z</time>
      </trkpt>
      <trkpt lat="47.49241" lon="6.77334">
        <ele>310</ele>
        <time>2015-03-01T11:04:43.000Z</time>
      </trkpt>
      <trkpt lat="47.49244" lon="6.77333">
        <ele>310</ele>
        <time>2015-03-01T11:04:44.000Z</time>
      </trkpt>
      <trkpt lat="47.49247" lon="6.77331">
        <ele>310</ele>
        <time>2015-03-01T11:04:45.000Z</time>
      </trkpt>
      <trkpt lat="47.4925" lon="6.7733">
        <ele>310</ele>
        <time>2015-03-01T11:04:46.000Z</time>
      </trkpt>
      <trkpt lat="47.49253" lon="6.77328">
        <ele>310</ele>
        <time>2015-03-01T11:04:47.000Z</time>
      </trkpt>
      <trkpt lat="47.49256" lon="6.77326">
        <ele>310</ele>
        <time>2015-03-01T11:04:48.000Z</time>
      </trkpt>
      <trkpt lat="47.49259" lon="6.77324">
        <ele>310</ele>
        <time>2015-03-01T11:04:49.000Z</time>
      </trkpt>
      <trkpt lat="47.49262" lon="6.77322">
        <ele>310</ele>
        <time>2015-03-01T11:04:50.000Z</time>
      </trkpt>
      <trkpt lat="47.49266" lon="6.77321">
        <ele>310</ele>
        <time>2015-03-01T11:04:51.000Z</time>
      </trkpt>
      <trkpt lat="47.49272" lon="6.77323">
        <ele>310</ele>
        <time>2015-03-01T11:04:52.000Z</time>
      </trkpt>
      <trkpt lat="47.49277" lon="6.77323">
        <ele>310</ele>
        <time>2015-03-01T11:04:53.000Z</time>
      </trkpt>
      <trkpt lat="47.49282" lon="6.77323">
        <ele>310</ele>
        <time>2015-03-01T11:04:54.000Z</time>
      </trkpt>
      <trkpt lat="47.49288" lon="6.77323">
        <ele>310</ele>
        <time>2015-03-01T11:04:55.000Z</time>
      </trkpt>
      <trkpt lat="47.49293" lon="6.77324">
        <ele>311</ele>
        <time>2015-03-01T11:04:56.000Z</time>
      </trkpt>
      <trkpt lat="47.49299" lon="6.77324">
        <ele>310</ele>
        <time>2015-03-01T11:04:57.000Z</time>
      </trkpt>
      <trkpt lat="47.49305" lon="6.77325">
        <ele>310</ele>
        <time>2015-03-01T11:04:58.000Z</time>
      </trkpt>
      <trkpt lat="47.49311" lon="6.77329">
        <ele>310</ele>
        <time>2015-03-01T11:04:59.000Z</time>
      </trkpt>
      <trkpt lat="47.49316" lon="6.7733">
        <ele>310</ele>
        <time>2015-03-01T11:05:00.000Z</time>
      </trkpt>
      <trkpt lat="47.49321" lon="6.77331">
        <ele>310</ele>
        <time>2015-03-01T11:05:01.000Z</time>
      </trkpt>
      <trkpt lat="47.49325" lon="6.77332">
        <ele>310</ele>
        <time>2015-03-01T11:05:02.000Z</time>
      </trkpt>
      <trkpt lat="47.49328" lon="6.77334">
        <ele>310</ele>
        <time>2015-03-01T11:05:03.000Z</time>
      </trkpt>
      <trkpt lat="47.49332" lon="6.77337">
        <ele>310</ele>
        <time>2015-03-01T11:05:04.000Z</time>
      </trkpt>
      <trkpt lat="47.49336" lon="6.7734">
        <ele>310</ele>
        <time>2015-03-01T11:05:05.000Z</time>
      </trkpt>
      <trkpt lat="47.49339" lon="6.77341">
        <ele>310</ele>
        <time>2015-03-01T11:05:06.000Z</time>
      </trkpt>
      <trkpt lat="47.49344" lon="6.77342">
        <ele>310</ele>
        <time>2015-03-01T11:05:07.000Z</time>
      </trkpt>
      <trkpt lat="47.49349" lon="6.77342">
        <ele>310</ele>
        <time>2015-03-01T11:05:08.000Z</time>
      </trkpt>
      <trkpt lat="47.49354" lon="6.77344">
        <ele>310</ele>
        <time>2015-03-01T11:05:09.000Z</time>
      </trkpt>
      <trkpt lat="47.4936" lon="6.77346">
        <ele>310</ele>
        <time>2015-03-01T11:05:10.000Z</time>
      </trkpt>
      <trkpt lat="47.49365" lon="6.77348">
        <ele>310</ele>
        <time>2015-03-01T11:05:11.000Z</time>
      </trkpt>
      <trkpt lat="47.4937" lon="6.77348">
        <ele>310</ele>
        <time>2015-03-01T11:05:12.000Z</time>
      </trkpt>
      <trkpt lat="47.49375" lon="6.77348">
        <ele>310</ele>
        <time>2015-03-01T11:05:13.000Z</time>
      </trkpt>
      <trkpt lat="47.4938" lon="6.77348">
        <ele>310</ele>
        <time>2015-03-01T11:05:14.000Z</time>
      </trkpt>
      <trkpt lat="47.49385" lon="6.77349">
        <ele>310</ele>
        <time>2015-03-01T11:05:15.000Z</time>
      </trkpt>
      <trkpt lat="47.4939" lon="6.77349">
        <ele>310</ele>
        <time>2015-03-01T11:05:16.000Z</time>
      </trkpt>
      <trkpt lat="47.49395" lon="6.77349">
        <ele>310</ele>
        <time>2015-03-01T11:05:17.000Z</time>
      </trkpt>
      <trkpt lat="47.49399" lon="6.7735">
        <ele>310</ele>
        <time>2015-03-01T11:05:18.000Z</time>
      </trkpt>
      <trkpt lat="47.49405" lon="6.7735">
        <ele>310</ele>
        <time>2015-03-01T11:05:19.000Z</time>
      </trkpt>
      <trkpt lat="47.4941" lon="6.7735">
        <ele>311</ele>
        <time>2015-03-01T11:05:20.000Z</time>
      </trkpt>
      <trkpt lat="47.49416" lon="6.77351">
        <ele>311</ele>
        <time>2015-03-01T11:05:21.000Z</time>
      </trkpt>
      <trkpt lat="47.49421" lon="6.77351">
        <ele>311</ele>
        <time>2015-03-01T11:05:22.000Z</time>
      </trkpt>
      <trkpt lat="47.49427" lon="6.77351">
        <ele>311</ele>
        <time>2015-03-01T11:05:23.000Z</time>
      </trkpt>
      <trkpt lat="47.49432" lon="6.77351">
        <ele>311</ele>
        <time>2015-03-01T11:05:24.000Z</time>
      </trkpt>
      <trkpt lat="47.49438" lon="6.77352">
        <ele>311</ele>
        <time>2015-03-01T11:05:25.000Z</time>
      </trkpt>
      <trkpt lat="47.49443" lon="6.77353">
        <ele>311</ele>
        <time>2015-03-01T11:05:26.000Z</time>
      </trkpt>
      <trkpt lat="47.49448" lon="6.77353">
        <ele>311</ele>
        <time>2015-03-01T11:05:27.000Z</time>
      </trkpt>
      <trkpt lat="47.49453" lon="6.77355">
        <ele>311</ele>
        <time>2015-03-01T11:05:28.000Z</time>
      </trkpt>
      <trkpt lat="47.49459" lon="6.77355">
        <ele>311</ele>
        <time>2015-03-01T11:05:29.000Z</time>
      </trkpt>
      <trkpt lat="47.49464" lon="6.77356">
        <ele>311</ele>
        <time>2015-03-01T11:05:30.000Z</time>
      </trkpt>
      <trkpt lat="47.49469" lon="6.77356">
        <ele>311</ele>
        <time>2015-03-01T11:05:31.000Z</time>
      </trkpt>
      <trkpt lat="47.49475" lon="6.77356">
        <ele>311</ele>
        <time>2015-03-01T11:05:32.000Z</time>
      </trkpt>
      <trkpt lat="47.4948" lon="6.77355">
        <ele>311</ele>
        <time>2015-03-01T11:05:33.000Z</time>
      </trkpt>
      <trkpt lat="47.49485" lon="6.77356">
        <ele>311</ele>
        <time>2015-03-01T11:05:34.000Z</time>
      </trkpt>
      <trkpt lat="47.49491" lon="6.77356">
        <ele>312</ele>
        <time>2015-03-01T11:05:35.000Z</time>
      </trkpt>
      <trkpt lat="47.49497" lon="6.77356">
        <ele>312</ele>
        <time>2015-03-01T11:05:36.000Z</time>
      </trkpt>
      <trkpt lat="47.49502" lon="6.77357">
        <ele>312</ele>
        <time>2015-03-01T11:05:37.000Z</time>
      </trkpt>
      <trkpt lat="47.49507" lon="6.77357">
        <ele>312</ele>
        <time>2015-03-01T11:05:38.000Z</time>
      </trkpt>
      <trkpt lat="47.49513" lon="6.77358">
        <ele>312</ele>
        <time>2015-03-01T11:05:39.000Z</time>
      </trkpt>
      <trkpt lat="47.4952" lon="6.77358">
        <ele>312</ele>
        <time>2015-03-01T11:05:40.000Z</time>
      </trkpt>
      <trkpt lat="47.49525" lon="6.77358">
        <ele>312</ele>
        <time>2015-03-01T11:05:41.000Z</time>
      </trkpt>
      <trkpt lat="47.49531" lon="6.77359">
        <ele>312</ele>
        <time>2015-03-01T11:05:42.000Z</time>
      </trkpt>
      <trkpt lat="47.49537" lon="6.77359">
        <ele>312</ele>
        <time>2015-03-01T11:05:43.000Z</time>
      </trkpt>
      <trkpt lat="47.49542" lon="6.77359">
        <ele>312</ele>
        <time>2015-03-01T11:05:44.000Z</time>
      </trkpt>
      <trkpt lat="47.49547" lon="6.77359">
        <ele>312</ele>
        <time>2015-03-01T11:05:45.000Z</time>
      </trkpt>
      <trkpt lat="47.49551" lon="6.77361">
        <ele>312</ele>
        <time>2015-03-01T11:05:46.000Z</time>
      </trkpt>
      <trkpt lat="47.49556" lon="6.77361">
        <ele>312</ele>
        <time>2015-03-01T11:05:47.000Z</time>
      </trkpt>
      <trkpt lat="47.49562" lon="6.77361">
        <ele>312</ele>
        <time>2015-03-01T11:05:48.000Z</time>
      </trkpt>
      <trkpt lat="47.49569" lon="6.77361">
        <ele>313</ele>
        <time>2015-03-01T11:05:49.000Z</time>
      </trkpt>
      <trkpt lat="47.49574" lon="6.77361">
        <ele>313</ele>
        <time>2015-03-01T11:05:50.000Z</time>
      </trkpt>
      <trkpt lat="47.4958" lon="6.7736">
        <ele>313</ele>
        <time>2015-03-01T11:05:51.000Z</time>
      </trkpt>
      <trkpt lat="47.49585" lon="6.77361">
        <ele>313</ele>
        <time>2015-03-01T11:05:52.000Z</time>
      </trkpt>
      <trkpt lat="47.49591" lon="6.77362">
        <ele>313</ele>
        <time>2015-03-01T11:05:53.000Z</time>
      </trkpt>
      <trkpt lat="47.49597" lon="6.77362">
        <ele>313</ele>
        <time>2015-03-01T11:05:54.000Z</time>
      </trkpt>
      <trkpt lat="47.49602" lon="6.77361">
        <ele>313</ele>
        <time>2015-03-01T11:05:55.000Z</time>
      </trkpt>
      <trkpt lat="47.49607" lon="6.7736">
        <ele>313</ele>
        <time>2015-03-01T11:05:56.000Z</time>
      </trkpt>
      <trkpt lat="47.49613" lon="6.77359">
        <ele>313</ele>
        <time>2015-03-01T11:05:57.000Z</time>
      </trkpt>
      <trkpt lat="47.49619" lon="6.77358">
        <ele>313</ele>
        <time>2015-03-01T11:05:58.000Z</time>
      </trkpt>
      <trkpt lat="47.49624" lon="6.77356">
        <ele>313</ele>
        <time>2015-03-01T11:05:59.000Z</time>
      </trkpt>
      <trkpt lat="47.4963" lon="6.77355">
        <ele>313</ele>
        <time>2015-03-01T11:06:00.000Z</time>
      </trkpt>
      <trkpt lat="47.49635" lon="6.77354">
        <ele>313</ele>
        <time>2015-03-01T11:06:01.000Z</time>
      </trkpt>
      <trkpt lat="47.49641" lon="6.77354">
        <ele>313</ele>
        <time>2015-03-01T11:06:02.000Z</time>
      </trkpt>
      <trkpt lat="47.49647" lon="6.77353">
        <ele>313</ele>
        <time>2015-03-01T11:06:03.000Z</time>
      </trkpt>
      <trkpt lat="47.49652" lon="6.77351">
        <ele>313</ele>
        <time>2015-03-01T11:06:04.000Z</time>
      </trkpt>
      <trkpt lat="47.49657" lon="6.7735">
        <ele>313</ele>
        <time>2015-03-01T11:06:05.000Z</time>
      </trkpt>
      <trkpt lat="47.49662" lon="6.77348">
        <ele>313</ele>
        <time>2015-03-01T11:06:06.000Z</time>
      </trkpt>
      <trkpt lat="47.49668" lon="6.77346">
        <ele>313</ele>
        <time>2015-03-01T11:06:07.000Z</time>
      </trkpt>
      <trkpt lat="47.49673" lon="6.77344">
        <ele>313</ele>
        <time>2015-03-01T11:06:08.000Z</time>
      </trkpt>
      <trkpt lat="47.49679" lon="6.77343">
        <ele>313</ele>
        <time>2015-03-01T11:06:09.000Z</time>
      </trkpt>
      <trkpt lat="47.49685" lon="6.7734">
        <ele>313</ele>
        <time>2015-03-01T11:06:10.000Z</time>
      </trkpt>
      <trkpt lat="47.49691" lon="6.77338">
        <ele>313</ele>
        <time>2015-03-01T11:06:11.000Z</time>
      </trkpt>
      <trkpt lat="47.49696" lon="6.77335">
        <ele>313</ele>
        <time>2015-03-01T11:06:12.000Z</time>
      </trkpt>
      <trkpt lat="47.49702" lon="6.77334">
        <ele>313</ele>
        <time>2015-03-01T11:06:13.000Z</time>
      </trkpt>
      <trkpt lat="47.49708" lon="6.77333">
        <ele>315</ele>
        <time>2015-03-01T11:06:14.000Z</time>
      </trkpt>
      <trkpt lat="47.49713" lon="6.77332">
        <ele>315</ele>
        <time>2015-03-01T11:06:15.000Z</time>
      </trkpt>
      <trkpt lat="47.49718" lon="6.7733">
        <ele>314</ele>
        <time>2015-03-01T11:06:16.000Z</time>
      </trkpt>
      <trkpt lat="47.49723" lon="6.77329">
        <ele>314</ele>
        <time>2015-03-01T11:06:17.000Z</time>
      </trkpt>
      <trkpt lat="47.49727" lon="6.77328">
        <ele>314</ele>
        <time>2015-03-01T11:06:18.000Z</time>
      </trkpt>
      <trkpt lat="47.49732" lon="6.77325">
        <ele>314</ele>
        <time>2015-03-01T11:06:19.000Z</time>
      </trkpt>
      <trkpt lat="47.49736" lon="6.77324">
        <ele>314</ele>
        <time>2015-03-01T11:06:20.000Z</time>
      </trkpt>
      <trkpt lat="47.4974" lon="6.7732">
        <ele>314</ele>
        <time>2015-03-01T11:06:21.000Z</time>
      </trkpt>
      <trkpt lat="47.49745" lon="6.77317">
        <ele>314</ele>
        <time>2015-03-01T11:06:22.000Z</time>
      </trkpt>
      <trkpt lat="47.49749" lon="6.77314">
        <ele>314</ele>
        <time>2015-03-01T11:06:23.000Z</time>
      </trkpt>
      <trkpt lat="47.49754" lon="6.77313">
        <ele>316</ele>
        <time>2015-03-01T11:06:24.000Z</time>
      </trkpt>
      <trkpt lat="47.49758" lon="6.77311">
        <ele>316</ele>
        <time>2015-03-01T11:06:25.000Z</time>
      </trkpt>
      <trkpt lat="47.49764" lon="6.77308">
        <ele>316</ele>
        <time>2015-03-01T11:06:26.000Z</time>
      </trkpt>
      <trkpt lat="47.49769" lon="6.77308">
        <ele>316</ele>
        <time>2015-03-01T11:06:27.000Z</time>
      </trkpt>
      <trkpt lat="47.49774" lon="6.77308">
        <ele>316</ele>
        <time>2015-03-01T11:06:28.000Z</time>
      </trkpt>
      <trkpt lat="47.49778" lon="6.77307">
        <ele>317</ele>
        <time>2015-03-01T11:06:29.000Z</time>
      </trkpt>
      <trkpt lat="47.49784" lon="6.77308">
        <ele>317</ele>
        <time>2015-03-01T11:06:30.000Z</time>
      </trkpt>
      <trkpt lat="47.4979" lon="6.77307">
        <ele>317</ele>
        <time>2015-03-01T11:06:31.000Z</time>
      </trkpt>
      <trkpt lat="47.49796" lon="6.77306">
        <ele>317</ele>
        <time>2015-03-01T11:06:32.000Z</time>
      </trkpt>
      <trkpt lat="47.49801" lon="6.77304">
        <ele>317</ele>
        <time>2015-03-01T11:06:33.000Z</time>
      </trkpt>
      <trkpt lat="47.49807" lon="6.77303">
        <ele>317</ele>
        <time>2015-03-01T11:06:34.000Z</time>
      </trkpt>
      <trkpt lat="47.49813" lon="6.77302">
        <ele>317</ele>
        <time>2015-03-01T11:06:35.000Z</time>
      </trkpt>
      <trkpt lat="47.49819" lon="6.77302">
        <ele>317</ele>
        <time>2015-03-01T11:06:36.000Z</time>
      </trkpt>
      <trkpt lat="47.49825" lon="6.77302">
        <ele>317</ele>
        <time>2015-03-01T11:06:37.000Z</time>
      </trkpt>
      <trkpt lat="47.49831" lon="6.77301">
        <ele>318</ele>
        <time>2015-03-01T11:06:38.000Z</time>
      </trkpt>
      <trkpt lat="47.49836" lon="6.773">
        <ele>318</ele>
        <time>2015-03-01T11:06:39.000Z</time>
      </trkpt>
      <trkpt lat="47.49842" lon="6.773">
        <ele>318</ele>
        <time>2015-03-01T11:06:40.000Z</time>
      </trkpt>
      <trkpt lat="47.49848" lon="6.77299">
        <ele>318</ele>
        <time>2015-03-01T11:06:41.000Z</time>
      </trkpt>
      <trkpt lat="47.49854" lon="6.77299">
        <ele>319</ele>
        <time>2015-03-01T11:06:42.000Z</time>
      </trkpt>
      <trkpt lat="47.49861" lon="6.773">
        <ele>318</ele>
        <time>2015-03-01T11:06:43.000Z</time>
      </trkpt>
      <trkpt lat="47.49866" lon="6.773">
        <ele>318</ele>
        <time>2015-03-01T11:06:44.000Z</time>
      </trkpt>
      <trkpt lat="47.49871" lon="6.77299">
        <ele>318</ele>
        <time>2015-03-01T11:06:45.000Z</time>
      </trkpt>
      <trkpt lat="47.49877" lon="6.77296">
        <ele>319</ele>
        <time>2015-03-01T11:06:46.000Z</time>
      </trkpt>
      <trkpt lat="47.49882" lon="6.77293">
        <ele>319</ele>
        <time>2015-03-01T11:06:47.000Z</time>
      </trkpt>
      <trkpt lat="47.49887" lon="6.7729">
        <ele>319</ele>
        <time>2015-03-01T11:06:48.000Z</time>
      </trkpt>
      <trkpt lat="47.49893" lon="6.77286">
        <ele>319</ele>
        <time>2015-03-01T11:06:49.000Z</time>
      </trkpt>
      <trkpt lat="47.499" lon="6.77283">
        <ele>320</ele>
        <time>2015-03-01T11:06:50.000Z</time>
      </trkpt>
      <trkpt lat="47.49906" lon="6.77277">
        <ele>320</ele>
        <time>2015-03-01T11:06:51.000Z</time>
      </trkpt>
      <trkpt lat="47.49912" lon="6.77274">
        <ele>321</ele>
        <time>2015-03-01T11:06:52.000Z</time>
      </trkpt>
      <trkpt lat="47.49918" lon="6.77271">
        <ele>319</ele>
        <time>2015-03-01T11:06:53.000Z</time>
      </trkpt>
      <trkpt lat="47.49923" lon="6.7727">
        <ele>319</ele>
        <time>2015-03-01T11:06:54.000Z</time>
      </trkpt>
      <trkpt lat="47.49929" lon="6.77266">
        <ele>320</ele>
        <time>2015-03-01T11:06:55.000Z</time>
      </trkpt>
      <trkpt lat="47.49935" lon="6.77262">
        <ele>319</ele>
        <time>2015-03-01T11:06:56.000Z</time>
      </trkpt>
      <trkpt lat="47.4994" lon="6.77258">
        <ele>319</ele>
        <time>2015-03-01T11:06:57.000Z</time>
      </trkpt>
      <trkpt lat="47.49945" lon="6.77252">
        <ele>319</ele>
        <time>2015-03-01T11:06:58.000Z</time>
      </trkpt>
      <trkpt lat="47.49949" lon="6.77248">
        <ele>330</ele>
        <time>2015-03-01T11:06:59.000Z</time>
      </trkpt>
      <trkpt lat="47.49954" lon="6.77245">
        <ele>330</ele>
        <time>2015-03-01T11:07:00.000Z</time>
      </trkpt>
      <trkpt lat="47.4996" lon="6.77242">
        <ele>329</ele>
        <time>2015-03-01T11:07:01.000Z</time>
      </trkpt>
      <trkpt lat="47.49966" lon="6.77238">
        <ele>329</ele>
        <time>2015-03-01T11:07:02.000Z</time>
      </trkpt>
      <trkpt lat="47.49972" lon="6.77238">
        <ele>328</ele>
        <time>2015-03-01T11:07:03.000Z</time>
      </trkpt>
      <trkpt lat="47.49977" lon="6.77234">
        <ele>328</ele>
        <time>2015-03-01T11:07:04.000Z</time>
      </trkpt>
      <trkpt lat="47.49981" lon="6.77233">
        <ele>328</ele>
        <time>2015-03-01T11:07:05.000Z</time>
      </trkpt>
      <trkpt lat="47.49988" lon="6.77229">
        <ele>328</ele>
        <time>2015-03-01T11:07:06.000Z</time>
      </trkpt>
      <trkpt lat="47.49993" lon="6.77227">
        <ele>328</ele>
        <time>2015-03-01T11:07:07.000Z</time>
      </trkpt>
      <trkpt lat="47.49998" lon="6.77225">
        <ele>329</ele>
        <time>2015-03-01T11:07:08.000Z</time>
      </trkpt>
      <trkpt lat="47.50003" lon="6.77222">
        <ele>327</ele>
        <time>2015-03-01T11:07:09.000Z</time>
      </trkpt>
      <trkpt lat="47.50008" lon="6.77218">
        <ele>328</ele>
        <time>2015-03-01T11:07:10.000Z</time>
      </trkpt>
      <trkpt lat="47.50014" lon="6.77217">
        <ele>329</ele>
        <time>2015-03-01T11:07:11.000Z</time>
      </trkpt>
      <trkpt lat="47.50017" lon="6.77217">
        <ele>329</ele>
        <time>2015-03-01T11:07:12.000Z</time>
      </trkpt>
      <trkpt lat="47.50021" lon="6.77216">
        <ele>329</ele>
        <time>2015-03-01T11:07:13.000Z</time>
      </trkpt>
      <trkpt lat="47.50025" lon="6.77213">
        <ele>330</ele>
        <time>2015-03-01T11:07:14.000Z</time>
      </trkpt>
      <trkpt lat="47.5003" lon="6.77211">
        <ele>330</ele>
        <time>2015-03-01T11:07:15.000Z</time>
      </trkpt>
      <trkpt lat="47.50035" lon="6.77208">
        <ele>330</ele>
        <time>2015-03-01T11:07:16.000Z</time>
      </trkpt>
      <trkpt lat="47.50039" lon="6.77203">
        <ele>331</ele>
        <time>2015-03-01T11:07:17.000Z</time>
      </trkpt>
      <trkpt lat="47.50044" lon="6.77198">
        <ele>332</ele>
        <time>2015-03-01T11:07:18.000Z</time>
      </trkpt>
      <trkpt lat="47.50049" lon="6.77194">
        <ele>332</ele>
        <time>2015-03-01T11:07:19.000Z</time>
      </trkpt>
      <trkpt lat="47.50054" lon="6.77194">
        <ele>332</ele>
        <time>2015-03-01T11:07:20.000Z</time>
      </trkpt>
      <trkpt lat="47.50051" lon="6.77189">
        <ele>333</ele>
        <time>2015-03-01T11:13:11.000Z</time>
      </trkpt>
      <trkpt lat="47.50051" lon="6.77189">
        <ele>333</ele>
        <time>2015-03-01T11:13:12.000Z</time>
      </trkpt>
      <trkpt lat="47.50052" lon="6.77194">
        <ele>332</ele>
        <time>2015-03-01T11:14:15.000Z</time>
      </trkpt>
      <trkpt lat="47.50051" lon="6.77196">
        <ele>332</ele>
        <time>2015-03-01T11:14:16.000Z</time>
      </trkpt>
      <trkpt lat="47.50055" lon="6.77196">
        <ele>332</ele>
        <time>2015-03-01T11:16:25.000Z</time>
      </trkpt>
      <trkpt lat="47.50056" lon="6.77196">
        <ele>332</ele>
        <time>2015-03-01T11:16:26.000Z</time>
      </trkpt>
      <trkpt lat="47.5006" lon="6.77195">
        <ele>332</ele>
        <time>2015-03-01T11:16:29.000Z</time>
      </trkpt>
      <trkpt lat="47.50062" lon="6.77195">
        <ele>332</ele>
        <time>2015-03-01T11:16:30.000Z</time>
      </trkpt>
      <trkpt lat="47.50064" lon="6.77194">
        <ele>332</ele>
        <time>2015-03-01T11:16:30.998Z</time>
      </trkpt>
      <trkpt lat="47.50069" lon="6.77193">
        <ele>332</ele>
        <time>2015-03-01T11:16:32.000Z</time>
      </trkpt>
      <trkpt lat="47.50073" lon="6.77191">
        <ele>333</ele>
        <time>2015-03-01T11:16:33.000Z</time>
      </trkpt>
      <trkpt lat="47.50077" lon="6.7719">
        <ele>333</ele>
        <time>2015-03-01T11:16:34.000Z</time>
      </trkpt>
      <trkpt lat="47.50085" lon="6.77189">
        <ele>329</ele>
        <time>2015-03-01T11:16:35.000Z</time>
      </trkpt>
      <trkpt lat="47.50089" lon="6.77187">
        <ele>330</ele>
        <time>2015-03-01T11:16:35.999Z</time>
      </trkpt>
      <trkpt lat="47.50093" lon="6.77186">
        <ele>329</ele>
        <time>2015-03-01T11:16:37.000Z</time>
      </trkpt>
      <trkpt lat="47.50097" lon="6.77185">
        <ele>329</ele>
        <time>2015-03-01T11:16:38.000Z</time>
      </trkpt>
      <trkpt lat="47.50103" lon="6.77182">
        <ele>329</ele>
        <time>2015-03-01T11:16:39.000Z</time>
      </trkpt>
      <trkpt lat="47.50108" lon="6.77183">
        <ele>328</ele>
        <time>2015-03-01T11:16:40.000Z</time>
      </trkpt>
      <trkpt lat="47.50113" lon="6.77184">
        <ele>327</ele>
        <time>2015-03-01T11:16:41.000Z</time>
      </trkpt>
      <trkpt lat="47.50118" lon="6.77186">
        <ele>326</ele>
        <time>2015-03-01T11:16:42.000Z</time>
      </trkpt>
      <trkpt lat="47.50123" lon="6.77186">
        <ele>325</ele>
        <time>2015-03-01T11:16:43.000Z</time>
      </trkpt>
      <trkpt lat="47.50129" lon="6.77186">
        <ele>325</ele>
        <time>2015-03-01T11:16:44.000Z</time>
      </trkpt>
      <trkpt lat="47.50135" lon="6.77189">
        <ele>324</ele>
        <time>2015-03-01T11:16:45.000Z</time>
      </trkpt>
      <trkpt lat="47.5014" lon="6.77191">
        <ele>324</ele>
        <time>2015-03-01T11:16:46.000Z</time>
      </trkpt>
      <trkpt lat="47.50145" lon="6.77195">
        <ele>323</ele>
        <time>2015-03-01T11:16:47.000Z</time>
      </trkpt>
      <trkpt lat="47.5015" lon="6.77199">
        <ele>322</ele>
        <time>2015-03-01T11:16:48.000Z</time>
      </trkpt>
      <trkpt lat="47.50155" lon="6.77201">
        <ele>322</ele>
        <time>2015-03-01T11:16:49.000Z</time>
      </trkpt>
      <trkpt lat="47.50158" lon="6.77205">
        <ele>322</ele>
        <time>2015-03-01T11:16:50.000Z</time>
      </trkpt>
      <trkpt lat="47.50162" lon="6.77209">
        <ele>321</ele>
        <time>2015-03-01T11:16:51.000Z</time>
      </trkpt>
      <trkpt lat="47.50167" lon="6.77216">
        <ele>317</ele>
        <time>2015-03-01T11:16:52.000Z</time>
      </trkpt>
      <trkpt lat="47.50171" lon="6.7722">
        <ele>317</ele>
        <time>2015-03-01T11:16:53.000Z</time>
      </trkpt>
      <trkpt lat="47.50175" lon="6.77224">
        <ele>316</ele>
        <time>2015-03-01T11:16:54.000Z</time>
      </trkpt>
      <trkpt lat="47.50179" lon="6.77227">
        <ele>316</ele>
        <time>2015-03-01T11:16:55.000Z</time>
      </trkpt>
      <trkpt lat="47.50183" lon="6.77231">
        <ele>316</ele>
        <time>2015-03-01T11:16:56.000Z</time>
      </trkpt>
      <trkpt lat="47.50188" lon="6.77237">
        <ele>316</ele>
        <time>2015-03-01T11:16:57.000Z</time>
      </trkpt>
      <trkpt lat="47.50193" lon="6.7724">
        <ele>316</ele>
        <time>2015-03-01T11:16:58.000Z</time>
      </trkpt>
      <trkpt lat="47.50197" lon="6.77245">
        <ele>316</ele>
        <time>2015-03-01T11:16:59.000Z</time>
      </trkpt>
      <trkpt lat="47.50202" lon="6.77249">
        <ele>316</ele>
        <time>2015-03-01T11:17:00.000Z</time>
      </trkpt>
      <trkpt lat="47.50206" lon="6.77253">
        <ele>313</ele>
        <time>2015-03-01T11:17:01.000Z</time>
      </trkpt>
      <trkpt lat="47.50211" lon="6.77256">
        <ele>313</ele>
        <time>2015-03-01T11:17:02.000Z</time>
      </trkpt>
      <trkpt lat="47.50216" lon="6.77258">
        <ele>313</ele>
        <time>2015-03-01T11:17:03.000Z</time>
      </trkpt>
      <trkpt lat="47.50221" lon="6.77262">
        <ele>313</ele>
        <time>2015-03-01T11:17:04.000Z</time>
      </trkpt>
      <trkpt lat="47.50227" lon="6.77266">
        <ele>313</ele>
        <time>2015-03-01T11:17:05.000Z</time>
      </trkpt>
      <trkpt lat="47.50231" lon="6.77269">
        <ele>313</ele>
        <time>2015-03-01T11:17:06.000Z</time>
      </trkpt>
      <trkpt lat="47.50235" lon="6.77273">
        <ele>313</ele>
        <time>2015-03-01T11:17:07.000Z</time>
      </trkpt>
      <trkpt lat="47.5024" lon="6.77276">
        <ele>313</ele>
        <time>2015-03-01T11:17:08.000Z</time>
      </trkpt>
      <trkpt lat="47.50245" lon="6.7728">
        <ele>313</ele>
        <time>2015-03-01T11:17:09.000Z</time>
      </trkpt>
      <trkpt lat="47.50249" lon="6.77284">
        <ele>313</ele>
        <time>2015-03-01T11:17:10.000Z</time>
      </trkpt>
      <trkpt lat="47.50253" lon="6.77288">
        <ele>313</ele>
        <time>2015-03-01T11:17:11.000Z</time>
      </trkpt>
      <trkpt lat="47.50258" lon="6.77292">
        <ele>313</ele>
        <time>2015-03-01T11:17:12.000Z</time>
      </trkpt>
      <trkpt lat="47.50263" lon="6.77295">
        <ele>313</ele>
        <time>2015-03-01T11:17:13.000Z</time>
      </trkpt>
      <trkpt lat="47.50268" lon="6.77299">
        <ele>313</ele>
        <time>2015-03-01T11:17:14.000Z</time>
      </trkpt>
      <trkpt lat="47.50273" lon="6.77303">
        <ele>313</ele>
        <time>2015-03-01T11:17:15.000Z</time>
      </trkpt>
      <trkpt lat="47.50277" lon="6.77306">
        <ele>313</ele>
        <time>2015-03-01T11:17:16.000Z</time>
      </trkpt>
      <trkpt lat="47.50283" lon="6.7731">
        <ele>313</ele>
        <time>2015-03-01T11:17:17.000Z</time>
      </trkpt>
      <trkpt lat="47.50288" lon="6.77312">
        <ele>313</ele>
        <time>2015-03-01T11:17:18.000Z</time>
      </trkpt>
      <trkpt lat="47.50292" lon="6.77316">
        <ele>313</ele>
        <time>2015-03-01T11:17:19.000Z</time>
      </trkpt>
      <trkpt lat="47.50297" lon="6.77319">
        <ele>313</ele>
        <time>2015-03-01T11:17:20.000Z</time>
      </trkpt>
      <trkpt lat="47.50301" lon="6.77324">
        <ele>312</ele>
        <time>2015-03-01T11:17:21.000Z</time>
      </trkpt>
      <trkpt lat="47.50307" lon="6.77329">
        <ele>312</ele>
        <time>2015-03-01T11:17:22.000Z</time>
      </trkpt>
      <trkpt lat="47.50312" lon="6.77333">
        <ele>312</ele>
        <time>2015-03-01T11:17:23.000Z</time>
      </trkpt>
      <trkpt lat="47.50317" lon="6.77338">
        <ele>312</ele>
        <time>2015-03-01T11:17:24.000Z</time>
      </trkpt>
      <trkpt lat="47.50321" lon="6.7734">
        <ele>312</ele>
        <time>2015-03-01T11:17:25.000Z</time>
      </trkpt>
      <trkpt lat="47.50326" lon="6.77343">
        <ele>312</ele>
        <time>2015-03-01T11:17:26.000Z</time>
      </trkpt>
      <trkpt lat="47.50331" lon="6.77348">
        <ele>312</ele>
        <time>2015-03-01T11:17:27.000Z</time>
      </trkpt>
      <trkpt lat="47.50335" lon="6.77351">
        <ele>312</ele>
        <time>2015-03-01T11:17:28.000Z</time>
      </trkpt>
      <trkpt lat="47.5034" lon="6.77354">
        <ele>312</ele>
        <time>2015-03-01T11:17:29.000Z</time>
      </trkpt>
      <trkpt lat="47.50345" lon="6.77357">
        <ele>312</ele>
        <time>2015-03-01T11:17:30.000Z</time>
      </trkpt>
      <trkpt lat="47.5035" lon="6.77362">
        <ele>312</ele>
        <time>2015-03-01T11:17:31.000Z</time>
      </trkpt>
      <trkpt lat="47.50355" lon="6.77365">
        <ele>312</ele>
        <time>2015-03-01T11:17:32.000Z</time>
      </trkpt>
      <trkpt lat="47.5036" lon="6.77368">
        <ele>312</ele>
        <time>2015-03-01T11:17:33.000Z</time>
      </trkpt>
      <trkpt lat="47.50364" lon="6.77373">
        <ele>312</ele>
        <time>2015-03-01T11:17:34.000Z</time>
      </trkpt>
      <trkpt lat="47.50369" lon="6.77377">
        <ele>312</ele>
        <time>2015-03-01T11:17:35.000Z</time>
      </trkpt>
      <trkpt lat="47.50374" lon="6.77381">
        <ele>312</ele>
        <time>2015-03-01T11:17:36.000Z</time>
      </trkpt>
      <trkpt lat="47.50378" lon="6.77385">
        <ele>312</ele>
        <time>2015-03-01T11:17:37.000Z</time>
      </trkpt>
      <trkpt lat="47.50384" lon="6.77388">
        <ele>312</ele>
        <time>2015-03-01T11:17:38.000Z</time>
      </trkpt>
      <trkpt lat="47.50388" lon="6.77392">
        <ele>312</ele>
        <time>2015-03-01T11:17:39.000Z</time>
      </trkpt>
      <trkpt lat="47.50393" lon="6.77395">
        <ele>312</ele>
        <time>2015-03-01T11:17:40.000Z</time>
      </trkpt>
      <trkpt lat="47.50397" lon="6.77399">
        <ele>312</ele>
        <time>2015-03-01T11:17:41.000Z</time>
      </trkpt>
      <trkpt lat="47.50402" lon="6.77403">
        <ele>312</ele>
        <time>2015-03-01T11:17:42.000Z</time>
      </trkpt>
      <trkpt lat="47.50406" lon="6.77407">
        <ele>311</ele>
        <time>2015-03-01T11:17:43.000Z</time>
      </trkpt>
      <trkpt lat="47.5041" lon="6.77412">
        <ele>311</ele>
        <time>2015-03-01T11:17:44.000Z</time>
      </trkpt>
      <trkpt lat="47.50415" lon="6.77417">
        <ele>311</ele>
        <time>2015-03-01T11:17:45.000Z</time>
      </trkpt>
      <trkpt lat="47.50419" lon="6.7742">
        <ele>311</ele>
        <time>2015-03-01T11:17:46.000Z</time>
      </trkpt>
      <trkpt lat="47.50423" lon="6.77425">
        <ele>312</ele>
        <time>2015-03-01T11:17:47.000Z</time>
      </trkpt>
      <trkpt lat="47.50427" lon="6.77428">
        <ele>312</ele>
        <time>2015-03-01T11:17:48.000Z</time>
      </trkpt>
      <trkpt lat="47.50432" lon="6.77432">
        <ele>312</ele>
        <time>2015-03-01T11:17:49.000Z</time>
      </trkpt>
      <trkpt lat="47.50436" lon="6.77435">
        <ele>312</ele>
        <time>2015-03-01T11:17:50.000Z</time>
      </trkpt>
      <trkpt lat="47.50441" lon="6.77439">
        <ele>312</ele>
        <time>2015-03-01T11:17:51.000Z</time>
      </trkpt>
      <trkpt lat="47.50445" lon="6.77444">
        <ele>312</ele>
        <time>2015-03-01T11:17:52.000Z</time>
      </trkpt>
      <trkpt lat="47.5045" lon="6.77448">
        <ele>312</ele>
        <time>2015-03-01T11:17:53.000Z</time>
      </trkpt>
      <trkpt lat="47.50455" lon="6.77452">
        <ele>312</ele>
        <time>2015-03-01T11:17:54.000Z</time>
      </trkpt>
      <trkpt lat="47.50461" lon="6.77456">
        <ele>313</ele>
        <time>2015-03-01T11:17:55.000Z</time>
      </trkpt>
      <trkpt lat="47.50466" lon="6.7746">
        <ele>313</ele>
        <time>2015-03-01T11:17:56.000Z</time>
      </trkpt>
      <trkpt lat="47.5047" lon="6.77464">
        <ele>313</ele>
        <time>2015-03-01T11:17:57.000Z</time>
      </trkpt>
      <trkpt lat="47.50475" lon="6.77469">
        <ele>313</ele>
        <time>2015-03-01T11:17:58.000Z</time>
      </trkpt>
      <trkpt lat="47.50479" lon="6.77474">
        <ele>313</ele>
        <time>2015-03-01T11:17:59.000Z</time>
      </trkpt>
      <trkpt lat="47.50483" lon="6.77478">
        <ele>313</ele>
        <time>2015-03-01T11:18:00.000Z</time>
      </trkpt>
      <trkpt lat="47.50488" lon="6.77481">
        <ele>313</ele>
        <time>2015-03-01T11:18:01.000Z</time>
      </trkpt>
      <trkpt lat="47.50493" lon="6.77486">
        <ele>313</ele>
        <time>2015-03-01T11:18:02.000Z</time>
      </trkpt>
      <trkpt lat="47.50503" lon="6.77492">
        <ele>314</ele>
        <time>2015-03-01T11:18:04.000Z</time>
      </trkpt>
      <trkpt lat="47.50507" lon="6.77498">
        <ele>314</ele>
        <time>2015-03-01T11:18:05.000Z</time>
      </trkpt>
      <trkpt lat="47.50512" lon="6.775">
        <ele>314</ele>
        <time>2015-03-01T11:18:06.000Z</time>
      </trkpt>
      <trkpt lat="47.50518" lon="6.77505">
        <ele>314</ele>
        <time>2015-03-01T11:18:07.000Z</time>
      </trkpt>
      <trkpt lat="47.50524" lon="6.77507">
        <ele>314</ele>
        <time>2015-03-01T11:18:08.000Z</time>
      </trkpt>
      <trkpt lat="47.50528" lon="6.7751">
        <ele>314</ele>
        <time>2015-03-01T11:18:09.000Z</time>
      </trkpt>
      <trkpt lat="47.50534" lon="6.77514">
        <ele>313</ele>
        <time>2015-03-01T11:18:10.000Z</time>
      </trkpt>
      <trkpt lat="47.50539" lon="6.77519">
        <ele>313</ele>
        <time>2015-03-01T11:18:11.000Z</time>
      </trkpt>
      <trkpt lat="47.50544" lon="6.77522">
        <ele>313</ele>
        <time>2015-03-01T11:18:12.000Z</time>
      </trkpt>
      <trkpt lat="47.50549" lon="6.77528">
        <ele>313</ele>
        <time>2015-03-01T11:18:13.000Z</time>
      </trkpt>
      <trkpt lat="47.50552" lon="6.77533">
        <ele>313</ele>
        <time>2015-03-01T11:18:14.000Z</time>
      </trkpt>
      <trkpt lat="47.50556" lon="6.77539">
        <ele>313</ele>
        <time>2015-03-01T11:18:15.000Z</time>
      </trkpt>
      <trkpt lat="47.50558" lon="6.77545">
        <ele>313</ele>
        <time>2015-03-01T11:18:16.000Z</time>
      </trkpt>
      <trkpt lat="47.50561" lon="6.77549">
        <ele>313</ele>
        <time>2015-03-01T11:18:17.000Z</time>
      </trkpt>
      <trkpt lat="47.50564" lon="6.77551">
        <ele>313</ele>
        <time>2015-03-01T11:18:18.000Z</time>
      </trkpt>
      <trkpt lat="47.50568" lon="6.77551">
        <ele>313</ele>
        <time>2015-03-01T11:18:19.001Z</time>
      </trkpt>
      <trkpt lat="47.50572" lon="6.77548">
        <ele>313</ele>
        <time>2015-03-01T11:18:20.000Z</time>
      </trkpt>
      <trkpt lat="47.50576" lon="6.77546">
        <ele>313</ele>
        <time>2015-03-01T11:18:21.000Z</time>
      </trkpt>
      <trkpt lat="47.50579" lon="6.77543">
        <ele>313</ele>
        <time>2015-03-01T11:18:22.000Z</time>
      </trkpt>
      <trkpt lat="47.50581" lon="6.77538">
        <ele>313</ele>
        <time>2015-03-01T11:18:23.000Z</time>
      </trkpt>
      <trkpt lat="47.50584" lon="6.77533">
        <ele>313</ele>
        <time>2015-03-01T11:18:24.000Z</time>
      </trkpt>
      <trkpt lat="47.50587" lon="6.77531">
        <ele>313</ele>
        <time>2015-03-01T11:18:25.000Z</time>
      </trkpt>
      <trkpt lat="47.50591" lon="6.77529">
        <ele>313</ele>
        <time>2015-03-01T11:18:26.000Z</time>
      </trkpt>
      <trkpt lat="47.50596" lon="6.77528">
        <ele>313</ele>
        <time>2015-03-01T11:18:27.000Z</time>
      </trkpt>
      <trkpt lat="47.50601" lon="6.77528">
        <ele>313</ele>
        <time>2015-03-01T11:18:28.000Z</time>
      </trkpt>
      <trkpt lat="47.50605" lon="6.77527">
        <ele>313</ele>
        <time>2015-03-01T11:18:29.000Z</time>
      </trkpt>
      <trkpt lat="47.50609" lon="6.77527">
        <ele>313</ele>
        <time>2015-03-01T11:18:30.000Z</time>
      </trkpt>
      <trkpt lat="47.50614" lon="6.77527">
        <ele>313</ele>
        <time>2015-03-01T11:18:31.000Z</time>
      </trkpt>
      <trkpt lat="47.50618" lon="6.77527">
        <ele>313</ele>
        <time>2015-03-01T11:18:32.000Z</time>
      </trkpt>
      <trkpt lat="47.50622" lon="6.77523">
        <ele>313</ele>
        <time>2015-03-01T11:18:33.000Z</time>
      </trkpt>
      <trkpt lat="47.50627" lon="6.77523">
        <ele>313</ele>
        <time>2015-03-01T11:18:34.000Z</time>
      </trkpt>
      <trkpt lat="47.50632" lon="6.77524">
        <ele>313</ele>
        <time>2015-03-01T11:18:35.000Z</time>
      </trkpt>
      <trkpt lat="47.50637" lon="6.77524">
        <ele>313</ele>
        <time>2015-03-01T11:18:36.000Z</time>
      </trkpt>
      <trkpt lat="47.50642" lon="6.77525">
        <ele>313</ele>
        <time>2015-03-01T11:18:37.000Z</time>
      </trkpt>
      <trkpt lat="47.50647" lon="6.77525">
        <ele>313</ele>
        <time>2015-03-01T11:18:38.000Z</time>
      </trkpt>
      <trkpt lat="47.50652" lon="6.77526">
        <ele>313</ele>
        <time>2015-03-01T11:18:38.999Z</time>
      </trkpt>
      <trkpt lat="47.50658" lon="6.77527">
        <ele>313</ele>
        <time>2015-03-01T11:18:40.000Z</time>
      </trkpt>
      <trkpt lat="47.50663" lon="6.77527">
        <ele>313</ele>
        <time>2015-03-01T11:18:41.000Z</time>
      </trkpt>
      <trkpt lat="47.50668" lon="6.77527">
        <ele>313</ele>
        <time>2015-03-01T11:18:42.000Z</time>
      </trkpt>
      <trkpt lat="47.50674" lon="6.77527">
        <ele>313</ele>
        <time>2015-03-01T11:18:43.000Z</time>
      </trkpt>
      <trkpt lat="47.5068" lon="6.77526">
        <ele>313</ele>
        <time>2015-03-01T11:18:44.000Z</time>
      </trkpt>
      <trkpt lat="47.50685" lon="6.77524">
        <ele>313</ele>
        <time>2015-03-01T11:18:45.000Z</time>
      </trkpt>
      <trkpt lat="47.5069" lon="6.77524">
        <ele>313</ele>
        <time>2015-03-01T11:18:46.000Z</time>
      </trkpt>
      <trkpt lat="47.50695" lon="6.77524">
        <ele>313</ele>
        <time>2015-03-01T11:18:47.000Z</time>
      </trkpt>
      <trkpt lat="47.50701" lon="6.77525">
        <ele>313</ele>
        <time>2015-03-01T11:18:48.000Z</time>
      </trkpt>
      <trkpt lat="47.50707" lon="6.77527">
        <ele>313</ele>
        <time>2015-03-01T11:18:49.000Z</time>
      </trkpt>
      <trkpt lat="47.50713" lon="6.77529">
        <ele>313</ele>
        <time>2015-03-01T11:18:50.000Z</time>
      </trkpt>
      <trkpt lat="47.50719" lon="6.77532">
        <ele>313</ele>
        <time>2015-03-01T11:18:51.000Z</time>
      </trkpt>
      <trkpt lat="47.50724" lon="6.77535">
        <ele>313</ele>
        <time>2015-03-01T11:18:52.000Z</time>
      </trkpt>
      <trkpt lat="47.50731" lon="6.77539">
        <ele>313</ele>
        <time>2015-03-01T11:18:53.000Z</time>
      </trkpt>
      <trkpt lat="47.50736" lon="6.77542">
        <ele>313</ele>
        <time>2015-03-01T11:18:54.000Z</time>
      </trkpt>
      <trkpt lat="47.50742" lon="6.77547">
        <ele>313</ele>
        <time>2015-03-01T11:18:55.000Z</time>
      </trkpt>
      <trkpt lat="47.50746" lon="6.7755">
        <ele>313</ele>
        <time>2015-03-01T11:18:56.000Z</time>
      </trkpt>
      <trkpt lat="47.50751" lon="6.77555">
        <ele>314</ele>
        <time>2015-03-01T11:18:57.000Z</time>
      </trkpt>
      <trkpt lat="47.50755" lon="6.7756">
        <ele>314</ele>
        <time>2015-03-01T11:18:58.000Z</time>
      </trkpt>
      <trkpt lat="47.50759" lon="6.77564">
        <ele>314</ele>
        <time>2015-03-01T11:18:59.000Z</time>
      </trkpt>
      <trkpt lat="47.50763" lon="6.77567">
        <ele>314</ele>
        <time>2015-03-01T11:19:00.000Z</time>
      </trkpt>
      <trkpt lat="47.50767" lon="6.77569">
        <ele>314</ele>
        <time>2015-03-01T11:19:01.000Z</time>
      </trkpt>
      <trkpt lat="47.50772" lon="6.77572">
        <ele>314</ele>
        <time>2015-03-01T11:19:02.000Z</time>
      </trkpt>
      <trkpt lat="47.50776" lon="6.77576">
        <ele>314</ele>
        <time>2015-03-01T11:19:03.000Z</time>
      </trkpt>
      <trkpt lat="47.5078" lon="6.77579">
        <ele>314</ele>
        <time>2015-03-01T11:19:04.000Z</time>
      </trkpt>
      <trkpt lat="47.50784" lon="6.77581">
        <ele>315</ele>
        <time>2015-03-01T11:19:05.000Z</time>
      </trkpt>
      <trkpt lat="47.50789" lon="6.77584">
        <ele>315</ele>
        <time>2015-03-01T11:19:06.000Z</time>
      </trkpt>
      <trkpt lat="47.50794" lon="6.77589">
        <ele>315</ele>
        <time>2015-03-01T11:19:07.000Z</time>
      </trkpt>
      <trkpt lat="47.50798" lon="6.77592">
        <ele>315</ele>
        <time>2015-03-01T11:19:08.000Z</time>
      </trkpt>
      <trkpt lat="47.50802" lon="6.77596">
        <ele>315</ele>
        <time>2015-03-01T11:19:09.000Z</time>
      </trkpt>
      <trkpt lat="47.50807" lon="6.77599">
        <ele>315</ele>
        <time>2015-03-01T11:19:10.000Z</time>
      </trkpt>
      <trkpt lat="47.50812" lon="6.77604">
        <ele>316</ele>
        <time>2015-03-01T11:19:11.000Z</time>
      </trkpt>
      <trkpt lat="47.50816" lon="6.77607">
        <ele>316</ele>
        <time>2015-03-01T11:19:12.000Z</time>
      </trkpt>
      <trkpt lat="47.50821" lon="6.7761">
        <ele>316</ele>
        <time>2015-03-01T11:19:13.000Z</time>
      </trkpt>
      <trkpt lat="47.50824" lon="6.77614">
        <ele>316</ele>
        <time>2015-03-01T11:19:14.000Z</time>
      </trkpt>
      <trkpt lat="47.50829" lon="6.77619">
        <ele>316</ele>
        <time>2015-03-01T11:19:15.000Z</time>
      </trkpt>
      <trkpt lat="47.50834" lon="6.77623">
        <ele>317</ele>
        <time>2015-03-01T11:19:16.000Z</time>
      </trkpt>
      <trkpt lat="47.50839" lon="6.77629">
        <ele>317</ele>
        <time>2015-03-01T11:19:17.000Z</time>
      </trkpt>
      <trkpt lat="47.50844" lon="6.77635">
        <ele>317</ele>
        <time>2015-03-01T11:19:18.000Z</time>
      </trkpt>
      <trkpt lat="47.50848" lon="6.77639">
        <ele>317</ele>
        <time>2015-03-01T11:19:19.000Z</time>
      </trkpt>
      <trkpt lat="47.50852" lon="6.77644">
        <ele>317</ele>
        <time>2015-03-01T11:19:20.000Z</time>
      </trkpt>
      <trkpt lat="47.50855" lon="6.77649">
        <ele>317</ele>
        <time>2015-03-01T11:19:21.000Z</time>
      </trkpt>
      <trkpt lat="47.50859" lon="6.77655">
        <ele>316</ele>
        <time>2015-03-01T11:19:22.000Z</time>
      </trkpt>
      <trkpt lat="47.50863" lon="6.7766">
        <ele>316</ele>
        <time>2015-03-01T11:19:23.000Z</time>
      </trkpt>
      <trkpt lat="47.50867" lon="6.77666">
        <ele>316</ele>
        <time>2015-03-01T11:19:24.000Z</time>
      </trkpt>
      <trkpt lat="47.50871" lon="6.77672">
        <ele>316</ele>
        <time>2015-03-01T11:19:25.000Z</time>
      </trkpt>
      <trkpt lat="47.50874" lon="6.77678">
        <ele>316</ele>
        <time>2015-03-01T11:19:26.000Z</time>
      </trkpt>
      <trkpt lat="47.50877" lon="6.77684">
        <ele>316</ele>
        <time>2015-03-01T11:19:27.000Z</time>
      </trkpt>
      <trkpt lat="47.5088" lon="6.77688">
        <ele>316</ele>
        <time>2015-03-01T11:19:28.000Z</time>
      </trkpt>
      <trkpt lat="47.50883" lon="6.77694">
        <ele>316</ele>
        <time>2015-03-01T11:19:29.000Z</time>
      </trkpt>
      <trkpt lat="47.50885" lon="6.77698">
        <ele>316</ele>
        <time>2015-03-01T11:19:30.000Z</time>
      </trkpt>
      <trkpt lat="47.50887" lon="6.77702">
        <ele>316</ele>
        <time>2015-03-01T11:19:31.000Z</time>
      </trkpt>
      <trkpt lat="47.50892" lon="6.777">
        <ele>316</ele>
        <time>2015-03-01T11:19:32.000Z</time>
      </trkpt>
      <trkpt lat="47.50896" lon="6.77697">
        <ele>316</ele>
        <time>2015-03-01T11:19:33.000Z</time>
      </trkpt>
      <trkpt lat="47.509" lon="6.77694">
        <ele>316</ele>
        <time>2015-03-01T11:19:34.000Z</time>
      </trkpt>
      <trkpt lat="47.50905" lon="6.77695">
        <ele>316</ele>
        <time>2015-03-01T11:19:35.000Z</time>
      </trkpt>
      <trkpt lat="47.5091" lon="6.77695">
        <ele>316</ele>
        <time>2015-03-01T11:19:36.000Z</time>
      </trkpt>
      <trkpt lat="47.50915" lon="6.77695">
        <ele>316</ele>
        <time>2015-03-01T11:19:37.000Z</time>
      </trkpt>
      <trkpt lat="47.50919" lon="6.77696">
        <ele>315</ele>
        <time>2015-03-01T11:19:38.000Z</time>
      </trkpt>
      <trkpt lat="47.50923" lon="6.77696">
        <ele>315</ele>
        <time>2015-03-01T11:19:39.000Z</time>
      </trkpt>
      <trkpt lat="47.50927" lon="6.77695">
        <ele>315</ele>
        <time>2015-03-01T11:19:40.000Z</time>
      </trkpt>
      <trkpt lat="47.50929" lon="6.77694">
        <ele>315</ele>
        <time>2015-03-01T11:19:41.000Z</time>
      </trkpt>
      <trkpt lat="47.50932" lon="6.77694">
        <ele>315</ele>
        <time>2015-03-01T11:19:42.000Z</time>
      </trkpt>
      <trkpt lat="47.50935" lon="6.77694">
        <ele>315</ele>
        <time>2015-03-01T11:19:43.000Z</time>
      </trkpt>
      <trkpt lat="47.50937" lon="6.77695">
        <ele>315</ele>
        <time>2015-03-01T11:19:44.000Z</time>
      </trkpt>
      <trkpt lat="47.5094" lon="6.77695">
        <ele>315</ele>
        <time>2015-03-01T11:19:45.000Z</time>
      </trkpt>
      <trkpt lat="47.50943" lon="6.77697">
        <ele>315</ele>
        <time>2015-03-01T11:19:47.000Z</time>
      </trkpt>
      <trkpt lat="47.50944" lon="6.77698">
        <ele>315</ele>
        <time>2015-03-01T11:19:48.000Z</time>
      </trkpt>
      <trkpt lat="47.50948" lon="6.77697">
        <ele>315</ele>
        <time>2015-03-01T11:19:58.000Z</time>
      </trkpt>
      <trkpt lat="47.5095" lon="6.77695">
        <ele>315</ele>
        <time>2015-03-01T11:19:59.000Z</time>
      </trkpt>
      <trkpt lat="47.50953" lon="6.77692">
        <ele>315</ele>
        <time>2015-03-01T11:20:00.000Z</time>
      </trkpt>
      <trkpt lat="47.50956" lon="6.77688">
        <ele>315</ele>
        <time>2015-03-01T11:20:01.000Z</time>
      </trkpt>
      <trkpt lat="47.50959" lon="6.77684">
        <ele>315</ele>
        <time>2015-03-01T11:20:02.000Z</time>
      </trkpt>
      <trkpt lat="47.50966" lon="6.77679">
        <ele>315</ele>
        <time>2015-03-01T11:20:04.000Z</time>
      </trkpt>
      <trkpt lat="47.50969" lon="6.7768">
        <ele>315</ele>
        <time>2015-03-01T11:20:05.000Z</time>
      </trkpt>
      <trkpt lat="47.50972" lon="6.77684">
        <ele>315</ele>
        <time>2015-03-01T11:20:06.000Z</time>
      </trkpt>
      <trkpt lat="47.50976" lon="6.77695">
        <ele>315</ele>
        <time>2015-03-01T11:20:07.000Z</time>
      </trkpt>
      <trkpt lat="47.5098" lon="6.77698">
        <ele>315</ele>
        <time>2015-03-01T11:20:08.000Z</time>
      </trkpt>
      <trkpt lat="47.50983" lon="6.77701">
        <ele>315</ele>
        <time>2015-03-01T11:20:09.000Z</time>
      </trkpt>
      <trkpt lat="47.50988" lon="6.77705">
        <ele>315</ele>
        <time>2015-03-01T11:20:10.000Z</time>
      </trkpt>
      <trkpt lat="47.50992" lon="6.77709">
        <ele>315</ele>
        <time>2015-03-01T11:20:11.000Z</time>
      </trkpt>
      <trkpt lat="47.50997" lon="6.77712">
        <ele>315</ele>
        <time>2015-03-01T11:20:12.000Z</time>
      </trkpt>
      <trkpt lat="47.51001" lon="6.77717">
        <ele>316</ele>
        <time>2015-03-01T11:20:13.000Z</time>
      </trkpt>
      <trkpt lat="47.51005" lon="6.77721">
        <ele>316</ele>
        <time>2015-03-01T11:20:14.000Z</time>
      </trkpt>
      <trkpt lat="47.5101" lon="6.77725">
        <ele>317</ele>
        <time>2015-03-01T11:20:15.000Z</time>
      </trkpt>
      <trkpt lat="47.51015" lon="6.77729">
        <ele>317</ele>
        <time>2015-03-01T11:20:16.000Z</time>
      </trkpt>
      <trkpt lat="47.51019" lon="6.77734">
        <ele>317</ele>
        <time>2015-03-01T11:20:17.000Z</time>
      </trkpt>
      <trkpt lat="47.51023" lon="6.77736">
        <ele>317</ele>
        <time>2015-03-01T11:20:18.000Z</time>
      </trkpt>
      <trkpt lat="47.51028" lon="6.77739">
        <ele>317</ele>
        <time>2015-03-01T11:20:19.000Z</time>
      </trkpt>
      <trkpt lat="47.51032" lon="6.77743">
        <ele>317</ele>
        <time>2015-03-01T11:20:20.000Z</time>
      </trkpt>
      <trkpt lat="47.51035" lon="6.77746">
        <ele>317</ele>
        <time>2015-03-01T11:20:21.000Z</time>
      </trkpt>
      <trkpt lat="47.51038" lon="6.7775">
        <ele>317</ele>
        <time>2015-03-01T11:20:22.000Z</time>
      </trkpt>
      <trkpt lat="47.51042" lon="6.77752">
        <ele>318</ele>
        <time>2015-03-01T11:20:23.000Z</time>
      </trkpt>
      <trkpt lat="47.51044" lon="6.77754">
        <ele>318</ele>
        <time>2015-03-01T11:20:24.000Z</time>
      </trkpt>
      <trkpt lat="47.51048" lon="6.77755">
        <ele>318</ele>
        <time>2015-03-01T11:20:26.000Z</time>
      </trkpt>
      <trkpt lat="47.51051" lon="6.77755">
        <ele>318</ele>
        <time>2015-03-01T11:20:27.000Z</time>
      </trkpt>
      <trkpt lat="47.51054" lon="6.77757">
        <ele>318</ele>
        <time>2015-03-01T11:20:29.000Z</time>
      </trkpt>
      <trkpt lat="47.51056" lon="6.77757">
        <ele>318</ele>
        <time>2015-03-01T11:20:30.000Z</time>
      </trkpt>
      <trkpt lat="47.51058" lon="6.77757">
        <ele>318</ele>
        <time>2015-03-01T11:20:31.000Z</time>
      </trkpt>
      <trkpt lat="47.51061" lon="6.77758">
        <ele>319</ele>
        <time>2015-03-01T11:20:32.000Z</time>
      </trkpt>
      <trkpt lat="47.51064" lon="6.77759">
        <ele>319</ele>
        <time>2015-03-01T11:20:33.000Z</time>
      </trkpt>
      <trkpt lat="47.51067" lon="6.7776">
        <ele>319</ele>
        <time>2015-03-01T11:20:34.000Z</time>
      </trkpt>
      <trkpt lat="47.51071" lon="6.77762">
        <ele>319</ele>
        <time>2015-03-01T11:20:35.000Z</time>
      </trkpt>
      <trkpt lat="47.51075" lon="6.77763">
        <ele>319</ele>
        <time>2015-03-01T11:20:36.000Z</time>
      </trkpt>
      <trkpt lat="47.51079" lon="6.77765">
        <ele>319</ele>
        <time>2015-03-01T11:20:37.000Z</time>
      </trkpt>
      <trkpt lat="47.51084" lon="6.77766">
        <ele>321</ele>
        <time>2015-03-01T11:20:38.000Z</time>
      </trkpt>
      <trkpt lat="47.51088" lon="6.77768">
        <ele>321</ele>
        <time>2015-03-01T11:20:39.000Z</time>
      </trkpt>
      <trkpt lat="47.51092" lon="6.77769">
        <ele>321</ele>
        <time>2015-03-01T11:20:40.000Z</time>
      </trkpt>
      <trkpt lat="47.51096" lon="6.77771">
        <ele>321</ele>
        <time>2015-03-01T11:20:41.000Z</time>
      </trkpt>
      <trkpt lat="47.511" lon="6.77772">
        <ele>321</ele>
        <time>2015-03-01T11:20:42.000Z</time>
      </trkpt>
      <trkpt lat="47.51103" lon="6.77773">
        <ele>322</ele>
        <time>2015-03-01T11:20:43.000Z</time>
      </trkpt>
      <trkpt lat="47.51107" lon="6.77774">
        <ele>322</ele>
        <time>2015-03-01T11:20:44.000Z</time>
      </trkpt>
      <trkpt lat="47.51111" lon="6.77775">
        <ele>322</ele>
        <time>2015-03-01T11:20:45.000Z</time>
      </trkpt>
      <trkpt lat="47.51115" lon="6.77776">
        <ele>322</ele>
        <time>2015-03-01T11:20:46.000Z</time>
      </trkpt>
      <trkpt lat="47.51118" lon="6.77777">
        <ele>322</ele>
        <time>2015-03-01T11:20:47.000Z</time>
      </trkpt>
      <trkpt lat="47.51122" lon="6.77777">
        <ele>322</ele>
        <time>2015-03-01T11:20:48.000Z</time>
      </trkpt>
      <trkpt lat="47.51126" lon="6.77778">
        <ele>322</ele>
        <time>2015-03-01T11:20:49.000Z</time>
      </trkpt>
      <trkpt lat="47.51129" lon="6.77778">
        <ele>322</ele>
        <time>2015-03-01T11:20:50.000Z</time>
      </trkpt>
      <trkpt lat="47.51133" lon="6.77779">
        <ele>322</ele>
        <time>2015-03-01T11:20:51.000Z</time>
      </trkpt>
      <trkpt lat="47.51137" lon="6.77779">
        <ele>323</ele>
        <time>2015-03-01T11:20:52.000Z</time>
      </trkpt>
      <trkpt lat="47.5114" lon="6.7778">
        <ele>323</ele>
        <time>2015-03-01T11:20:53.000Z</time>
      </trkpt>
      <trkpt lat="47.51144" lon="6.7778">
        <ele>323</ele>
        <time>2015-03-01T11:20:54.000Z</time>
      </trkpt>
      <trkpt lat="47.51147" lon="6.77781">
        <ele>323</ele>
        <time>2015-03-01T11:20:55.000Z</time>
      </trkpt>
      <trkpt lat="47.51151" lon="6.77781">
        <ele>323</ele>
        <time>2015-03-01T11:20:56.000Z</time>
      </trkpt>
      <trkpt lat="47.51154" lon="6.77782">
        <ele>323</ele>
        <time>2015-03-01T11:20:57.000Z</time>
      </trkpt>
      <trkpt lat="47.51157" lon="6.77782">
        <ele>323</ele>
        <time>2015-03-01T11:20:58.000Z</time>
      </trkpt>
      <trkpt lat="47.5116" lon="6.77782">
        <ele>323</ele>
        <time>2015-03-01T11:20:59.000Z</time>
      </trkpt>
      <trkpt lat="47.51163" lon="6.77782">
        <ele>323</ele>
        <time>2015-03-01T11:21:00.000Z</time>
      </trkpt>
      <trkpt lat="47.51166" lon="6.77781">
        <ele>323</ele>
        <time>2015-03-01T11:21:01.000Z</time>
      </trkpt>
      <trkpt lat="47.51169" lon="6.77781">
        <ele>326</ele>
        <time>2015-03-01T11:21:02.000Z</time>
      </trkpt>
      <trkpt lat="47.51172" lon="6.7778">
        <ele>326</ele>
        <time>2015-03-01T11:21:03.000Z</time>
      </trkpt>
      <trkpt lat="47.51177" lon="6.77779">
        <ele>326</ele>
        <time>2015-03-01T11:21:05.000Z</time>
      </trkpt>
      <trkpt lat="47.5118" lon="6.77779">
        <ele>326</ele>
        <time>2015-03-01T11:21:06.000Z</time>
      </trkpt>
      <trkpt lat="47.51182" lon="6.77779">
        <ele>326</ele>
        <time>2015-03-01T11:21:07.000Z</time>
      </trkpt>
      <trkpt lat="47.51186" lon="6.77778">
        <ele>326</ele>
        <time>2015-03-01T11:21:09.000Z</time>
      </trkpt>
      <trkpt lat="47.51189" lon="6.77778">
        <ele>326</ele>
        <time>2015-03-01T11:21:10.000Z</time>
      </trkpt>
      <trkpt lat="47.51191" lon="6.77778">
        <ele>326</ele>
        <time>2015-03-01T11:21:11.000Z</time>
      </trkpt>
      <trkpt lat="47.51193" lon="6.77779">
        <ele>326</ele>
        <time>2015-03-01T11:21:12.000Z</time>
      </trkpt>
      <trkpt lat="47.51196" lon="6.77779">
        <ele>327</ele>
        <time>2015-03-01T11:21:13.000Z</time>
      </trkpt>
      <trkpt lat="47.51198" lon="6.77779">
        <ele>327</ele>
        <time>2015-03-01T11:21:14.000Z</time>
      </trkpt>
      <trkpt lat="47.51201" lon="6.7778">
        <ele>327</ele>
        <time>2015-03-01T11:21:15.000Z</time>
      </trkpt>
      <trkpt lat="47.51204" lon="6.7778">
        <ele>327</ele>
        <time>2015-03-01T11:21:16.000Z</time>
      </trkpt>
      <trkpt lat="47.51207" lon="6.7778">
        <ele>327</ele>
        <time>2015-03-01T11:21:17.000Z</time>
      </trkpt>
      <trkpt lat="47.51209" lon="6.7778">
        <ele>327</ele>
        <time>2015-03-01T11:21:18.000Z</time>
      </trkpt>
      <trkpt lat="47.51213" lon="6.7778">
        <ele>327</ele>
        <time>2015-03-01T11:21:20.000Z</time>
      </trkpt>
      <trkpt lat="47.51214" lon="6.7778">
        <ele>327</ele>
        <time>2015-03-01T11:21:21.000Z</time>
      </trkpt>
      <trkpt lat="47.51219" lon="6.7778">
        <ele>327</ele>
        <time>2015-03-01T11:21:25.000Z</time>
      </trkpt>
      <trkpt lat="47.5122" lon="6.7778">
        <ele>327</ele>
        <time>2015-03-01T11:21:26.000Z</time>
      </trkpt>
      <trkpt lat="47.51225" lon="6.77779">
        <ele>327</ele>
        <time>2015-03-01T11:21:28.000Z</time>
      </trkpt>
      <trkpt lat="47.51227" lon="6.77779">
        <ele>327</ele>
        <time>2015-03-01T11:21:29.000Z</time>
      </trkpt>
      <trkpt lat="47.51231" lon="6.77777">
        <ele>328</ele>
        <time>2015-03-01T11:21:31.000Z</time>
      </trkpt>
      <trkpt lat="47.51233" lon="6.77776">
        <ele>328</ele>
        <time>2015-03-01T11:21:32.000Z</time>
      </trkpt>
      <trkpt lat="47.51237" lon="6.77775">
        <ele>328</ele>
        <time>2015-03-01T11:21:34.000Z</time>
      </trkpt>
      <trkpt lat="47.51239" lon="6.77775">
        <ele>328</ele>
        <time>2015-03-01T11:21:35.000Z</time>
      </trkpt>
      <trkpt lat="47.51243" lon="6.77774">
        <ele>328</ele>
        <time>2015-03-01T11:21:37.000Z</time>
      </trkpt>
      <trkpt lat="47.51245" lon="6.77774">
        <ele>328</ele>
        <time>2015-03-01T11:21:38.000Z</time>
      </trkpt>
      <trkpt lat="47.51248" lon="6.77773">
        <ele>328</ele>
        <time>2015-03-01T11:21:39.000Z</time>
      </trkpt>
      <trkpt lat="47.5125" lon="6.77773">
        <ele>328</ele>
        <time>2015-03-01T11:21:40.000Z</time>
      </trkpt>
      <trkpt lat="47.51254" lon="6.77773">
        <ele>333</ele>
        <time>2015-03-01T11:21:42.000Z</time>
      </trkpt>
      <trkpt lat="47.51256" lon="6.77773">
        <ele>333</ele>
        <time>2015-03-01T11:21:43.000Z</time>
      </trkpt>
      <trkpt lat="47.51261" lon="6.77774">
        <ele>333</ele>
        <time>2015-03-01T11:21:45.000Z</time>
      </trkpt>
      <trkpt lat="47.51263" lon="6.77774">
        <ele>334</ele>
        <time>2015-03-01T11:21:46.000Z</time>
      </trkpt>
      <trkpt lat="47.51265" lon="6.77774">
        <ele>334</ele>
        <time>2015-03-01T11:21:47.000Z</time>
      </trkpt>
      <trkpt lat="47.51268" lon="6.77774">
        <ele>334</ele>
        <time>2015-03-01T11:21:48.000Z</time>
      </trkpt>
      <trkpt lat="47.5127" lon="6.77774">
        <ele>334</ele>
        <time>2015-03-01T11:21:49.000Z</time>
      </trkpt>
      <trkpt lat="47.51272" lon="6.77773">
        <ele>334</ele>
        <time>2015-03-01T11:21:50.000Z</time>
      </trkpt>
      <trkpt lat="47.51277" lon="6.77772">
        <ele>335</ele>
        <time>2015-03-01T11:21:52.000Z</time>
      </trkpt>
      <trkpt lat="47.51279" lon="6.77772">
        <ele>335</ele>
        <time>2015-03-01T11:21:53.000Z</time>
      </trkpt>
      <trkpt lat="47.51283" lon="6.77771">
        <ele>335</ele>
        <time>2015-03-01T11:21:55.000Z</time>
      </trkpt>
      <trkpt lat="47.51285" lon="6.77771">
        <ele>335</ele>
        <time>2015-03-01T11:21:56.000Z</time>
      </trkpt>
      <trkpt lat="47.51289" lon="6.77772">
        <ele>336</ele>
        <time>2015-03-01T11:21:58.000Z</time>
      </trkpt>
      <trkpt lat="47.51291" lon="6.77772">
        <ele>336</ele>
        <time>2015-03-01T11:21:59.000Z</time>
      </trkpt>
      <trkpt lat="47.51295" lon="6.77771">
        <ele>336</ele>
        <time>2015-03-01T11:22:01.000Z</time>
      </trkpt>
      <trkpt lat="47.51297" lon="6.77771">
        <ele>337</ele>
        <time>2015-03-01T11:22:02.000Z</time>
      </trkpt>
      <trkpt lat="47.51301" lon="6.7777">
        <ele>337</ele>
        <time>2015-03-01T11:22:04.000Z</time>
      </trkpt>
      <trkpt lat="47.51303" lon="6.77769">
        <ele>337</ele>
        <time>2015-03-01T11:22:05.000Z</time>
      </trkpt>
      <trkpt lat="47.51307" lon="6.77768">
        <ele>338</ele>
        <time>2015-03-01T11:22:07.000Z</time>
      </trkpt>
      <trkpt lat="47.51308" lon="6.77768">
        <ele>338</ele>
        <time>2015-03-01T11:22:08.000Z</time>
      </trkpt>
      <trkpt lat="47.51312" lon="6.77767">
        <ele>338</ele>
        <time>2015-03-01T11:22:11.000Z</time>
      </trkpt>
      <trkpt lat="47.51314" lon="6.77766">
        <ele>339</ele>
        <time>2015-03-01T11:22:12.000Z</time>
      </trkpt>
      <trkpt lat="47.51318" lon="6.77765">
        <ele>339</ele>
        <time>2015-03-01T11:22:14.000Z</time>
      </trkpt>
      <trkpt lat="47.5132" lon="6.77765">
        <ele>339</ele>
        <time>2015-03-01T11:22:15.000Z</time>
      </trkpt>
      <trkpt lat="47.51324" lon="6.77766">
        <ele>340</ele>
        <time>2015-03-01T11:22:17.000Z</time>
      </trkpt>
      <trkpt lat="47.51326" lon="6.77766">
        <ele>340</ele>
        <time>2015-03-01T11:22:18.000Z</time>
      </trkpt>
      <trkpt lat="47.51329" lon="6.77768">
        <ele>340</ele>
        <time>2015-03-01T11:22:20.000Z</time>
      </trkpt>
      <trkpt lat="47.5133" lon="6.77769">
        <ele>340</ele>
        <time>2015-03-01T11:22:21.000Z</time>
      </trkpt>
      <trkpt lat="47.51334" lon="6.77772">
        <ele>347</ele>
        <time>2015-03-01T11:22:24.000Z</time>
      </trkpt>
      <trkpt lat="47.51335" lon="6.77773">
        <ele>347</ele>
        <time>2015-03-01T11:22:25.000Z</time>
      </trkpt>
      <trkpt lat="47.51339" lon="6.77773">
        <ele>348</ele>
        <time>2015-03-01T11:22:27.000Z</time>
      </trkpt>
      <trkpt lat="47.5134" lon="6.77773">
        <ele>348</ele>
        <time>2015-03-01T11:22:28.000Z</time>
      </trkpt>
      <trkpt lat="47.51344" lon="6.77771">
        <ele>348</ele>
        <time>2015-03-01T11:22:30.000Z</time>
      </trkpt>
      <trkpt lat="47.51346" lon="6.77769">
        <ele>348</ele>
        <time>2015-03-01T11:22:31.000Z</time>
      </trkpt>
      <trkpt lat="47.51349" lon="6.77767">
        <ele>348</ele>
        <time>2015-03-01T11:22:33.000Z</time>
      </trkpt>
      <trkpt lat="47.51351" lon="6.77766">
        <ele>348</ele>
        <time>2015-03-01T11:22:34.000Z</time>
      </trkpt>
      <trkpt lat="47.51355" lon="6.77764">
        <ele>348</ele>
        <time>2015-03-01T11:22:36.000Z</time>
      </trkpt>
      <trkpt lat="47.51358" lon="6.77762">
        <ele>349</ele>
        <time>2015-03-01T11:22:37.000Z</time>
      </trkpt>
      <trkpt lat="47.51362" lon="6.7776">
        <ele>349</ele>
        <time>2015-03-01T11:22:39.000Z</time>
      </trkpt>
      <trkpt lat="47.51364" lon="6.77759">
        <ele>349</ele>
        <time>2015-03-01T11:22:40.000Z</time>
      </trkpt>
      <trkpt lat="47.51368" lon="6.77757">
        <ele>350</ele>
        <time>2015-03-01T11:22:42.000Z</time>
      </trkpt>
      <trkpt lat="47.5137" lon="6.77755">
        <ele>350</ele>
        <time>2015-03-01T11:22:43.000Z</time>
      </trkpt>
      <trkpt lat="47.51374" lon="6.77753">
        <ele>351</ele>
        <time>2015-03-01T11:22:45.000Z</time>
      </trkpt>
      <trkpt lat="47.51376" lon="6.77752">
        <ele>351</ele>
        <time>2015-03-01T11:22:46.000Z</time>
      </trkpt>
      <trkpt lat="47.51378" lon="6.77751">
        <ele>351</ele>
        <time>2015-03-01T11:22:47.000Z</time>
      </trkpt>
      <trkpt lat="47.5138" lon="6.77749">
        <ele>354</ele>
        <time>2015-03-01T11:22:48.000Z</time>
      </trkpt>
      <trkpt lat="47.51384" lon="6.77747">
        <ele>354</ele>
        <time>2015-03-01T11:22:50.000Z</time>
      </trkpt>
      <trkpt lat="47.51386" lon="6.77746">
        <ele>355</ele>
        <time>2015-03-01T11:22:51.000Z</time>
      </trkpt>
      <trkpt lat="47.5139" lon="6.77744">
        <ele>355</ele>
        <time>2015-03-01T11:22:53.000Z</time>
      </trkpt>
      <trkpt lat="47.51392" lon="6.77744">
        <ele>355</ele>
        <time>2015-03-01T11:22:54.000Z</time>
      </trkpt>
      <trkpt lat="47.51396" lon="6.77743">
        <ele>355</ele>
        <time>2015-03-01T11:22:56.000Z</time>
      </trkpt>
      <trkpt lat="47.51397" lon="6.77743">
        <ele>356</ele>
        <time>2015-03-01T11:22:57.000Z</time>
      </trkpt>
      <trkpt lat="47.514" lon="6.77741">
        <ele>356</ele>
        <time>2015-03-01T11:22:59.000Z</time>
      </trkpt>
      <trkpt lat="47.51402" lon="6.7774">
        <ele>356</ele>
        <time>2015-03-01T11:23:00.000Z</time>
      </trkpt>
      <trkpt lat="47.51405" lon="6.77738">
        <ele>356</ele>
        <time>2015-03-01T11:23:02.000Z</time>
      </trkpt>
      <trkpt lat="47.51408" lon="6.77736">
        <ele>356</ele>
        <time>2015-03-01T11:23:04.000Z</time>
      </trkpt>
      <trkpt lat="47.51411" lon="6.77734">
        <ele>356</ele>
        <time>2015-03-01T11:23:06.000Z</time>
      </trkpt>
      <trkpt lat="47.51412" lon="6.77733">
        <ele>356</ele>
        <time>2015-03-01T11:23:07.000Z</time>
      </trkpt>
      <trkpt lat="47.51416" lon="6.77729">
        <ele>357</ele>
        <time>2015-03-01T11:23:10.000Z</time>
      </trkpt>
      <trkpt lat="47.51417" lon="6.77728">
        <ele>362</ele>
        <time>2015-03-01T11:23:11.000Z</time>
      </trkpt>
      <trkpt lat="47.5142" lon="6.77726">
        <ele>363</ele>
        <time>2015-03-01T11:23:13.000Z</time>
      </trkpt>
      <trkpt lat="47.51422" lon="6.77725">
        <ele>363</ele>
        <time>2015-03-01T11:23:14.000Z</time>
      </trkpt>
      <trkpt lat="47.51425" lon="6.77723">
        <ele>364</ele>
        <time>2015-03-01T11:23:16.000Z</time>
      </trkpt>
      <trkpt lat="47.51427" lon="6.77722">
        <ele>364</ele>
        <time>2015-03-01T11:23:17.000Z</time>
      </trkpt>
      <trkpt lat="47.5143" lon="6.77721">
        <ele>364</ele>
        <time>2015-03-01T11:23:19.000Z</time>
      </trkpt>
      <trkpt lat="47.51431" lon="6.77721">
        <ele>364</ele>
        <time>2015-03-01T11:23:20.000Z</time>
      </trkpt>
      <trkpt lat="47.51435" lon="6.77721">
        <ele>364</ele>
        <time>2015-03-01T11:23:22.000Z</time>
      </trkpt>
      <trkpt lat="47.51437" lon="6.7772">
        <ele>365</ele>
        <time>2015-03-01T11:23:23.000Z</time>
      </trkpt>
      <trkpt lat="47.51441" lon="6.77717">
        <ele>365</ele>
        <time>2015-03-01T11:23:25.000Z</time>
      </trkpt>
      <trkpt lat="47.51443" lon="6.77716">
        <ele>365</ele>
        <time>2015-03-01T11:23:26.000Z</time>
      </trkpt>
      <trkpt lat="47.51446" lon="6.77714">
        <ele>366</ele>
        <time>2015-03-01T11:23:28.000Z</time>
      </trkpt>
      <trkpt lat="47.51448" lon="6.77714">
        <ele>366</ele>
        <time>2015-03-01T11:23:29.000Z</time>
      </trkpt>
      <trkpt lat="47.51452" lon="6.77713">
        <ele>366</ele>
        <time>2015-03-01T11:23:31.003Z</time>
      </trkpt>
      <trkpt lat="47.51453" lon="6.77713">
        <ele>366</ele>
        <time>2015-03-01T11:23:32.000Z</time>
      </trkpt>
      <trkpt lat="47.51457" lon="6.77714">
        <ele>366</ele>
        <time>2015-03-01T11:23:34.000Z</time>
      </trkpt>
      <trkpt lat="47.51458" lon="6.77714">
        <ele>366</ele>
        <time>2015-03-01T11:23:35.000Z</time>
      </trkpt>
      <trkpt lat="47.51462" lon="6.77717">
        <ele>366</ele>
        <time>2015-03-01T11:23:38.000Z</time>
      </trkpt>
      <trkpt lat="47.51462" lon="6.77717">
        <ele>366</ele>
        <time>2015-03-01T11:23:39.000Z</time>
      </trkpt>
      <trkpt lat="47.51466" lon="6.77719">
        <ele>366</ele>
        <time>2015-03-01T11:23:42.000Z</time>
      </trkpt>
      <trkpt lat="47.51467" lon="6.7772">
        <ele>366</ele>
        <time>2015-03-01T11:23:43.000Z</time>
      </trkpt>
      <trkpt lat="47.51471" lon="6.77721">
        <ele>366</ele>
        <time>2015-03-01T11:23:46.000Z</time>
      </trkpt>
      <trkpt lat="47.51472" lon="6.77722">
        <ele>366</ele>
        <time>2015-03-01T11:23:47.000Z</time>
      </trkpt>
      <trkpt lat="47.51476" lon="6.77723">
        <ele>366</ele>
        <time>2015-03-01T11:23:50.000Z</time>
      </trkpt>
      <trkpt lat="47.51478" lon="6.77723">
        <ele>366</ele>
        <time>2015-03-01T11:23:51.000Z</time>
      </trkpt>
      <trkpt lat="47.51482" lon="6.77723">
        <ele>366</ele>
        <time>2015-03-01T11:23:53.000Z</time>
      </trkpt>
      <trkpt lat="47.51484" lon="6.77722">
        <ele>366</ele>
        <time>2015-03-01T11:23:54.000Z</time>
      </trkpt>
      <trkpt lat="47.51488" lon="6.77722">
        <ele>366</ele>
        <time>2015-03-01T11:23:56.000Z</time>
      </trkpt>
      <trkpt lat="47.5149" lon="6.77721">
        <ele>366</ele>
        <time>2015-03-01T11:23:57.000Z</time>
      </trkpt>
      <trkpt lat="47.51494" lon="6.77718">
        <ele>367</ele>
        <time>2015-03-01T11:23:59.000Z</time>
      </trkpt>
      <trkpt lat="47.51496" lon="6.77717">
        <ele>367</ele>
        <time>2015-03-01T11:24:00.000Z</time>
      </trkpt>
      <trkpt lat="47.515" lon="6.77719">
        <ele>367</ele>
        <time>2015-03-01T11:24:05.000Z</time>
      </trkpt>
      <trkpt lat="47.51501" lon="6.77719">
        <ele>371</ele>
        <time>2015-03-01T11:24:06.000Z</time>
      </trkpt>
      <trkpt lat="47.51505" lon="6.77719">
        <ele>371</ele>
        <time>2015-03-01T11:24:08.000Z</time>
      </trkpt>
      <trkpt lat="47.51507" lon="6.77719">
        <ele>371</ele>
        <time>2015-03-01T11:24:09.000Z</time>
      </trkpt>
      <trkpt lat="47.51511" lon="6.77719">
        <ele>371</ele>
        <time>2015-03-01T11:24:11.000Z</time>
      </trkpt>
      <trkpt lat="47.51513" lon="6.7772">
        <ele>371</ele>
        <time>2015-03-01T11:24:12.000Z</time>
      </trkpt>
      <trkpt lat="47.51516" lon="6.7772">
        <ele>372</ele>
        <time>2015-03-01T11:24:13.000Z</time>
      </trkpt>
      <trkpt lat="47.51518" lon="6.7772">
        <ele>372</ele>
        <time>2015-03-01T11:24:14.000Z</time>
      </trkpt>
      <trkpt lat="47.51521" lon="6.77719">
        <ele>372</ele>
        <time>2015-03-01T11:24:15.000Z</time>
      </trkpt>
      <trkpt lat="47.51524" lon="6.77718">
        <ele>372</ele>
        <time>2015-03-01T11:24:16.000Z</time>
      </trkpt>
      <trkpt lat="47.51526" lon="6.77717">
        <ele>372</ele>
        <time>2015-03-01T11:24:17.000Z</time>
      </trkpt>
      <trkpt lat="47.51529" lon="6.77716">
        <ele>373</ele>
        <time>2015-03-01T11:24:18.000Z</time>
      </trkpt>
      <trkpt lat="47.51531" lon="6.77715">
        <ele>373</ele>
        <time>2015-03-01T11:24:19.000Z</time>
      </trkpt>
      <trkpt lat="47.51534" lon="6.77716">
        <ele>373</ele>
        <time>2015-03-01T11:24:20.000Z</time>
      </trkpt>
      <trkpt lat="47.51536" lon="6.77716">
        <ele>373</ele>
        <time>2015-03-01T11:24:21.000Z</time>
      </trkpt>
      <trkpt lat="47.51539" lon="6.77716">
        <ele>373</ele>
        <time>2015-03-01T11:24:22.000Z</time>
      </trkpt>
      <trkpt lat="47.51543" lon="6.77715">
        <ele>374</ele>
        <time>2015-03-01T11:24:24.000Z</time>
      </trkpt>
      <trkpt lat="47.51545" lon="6.77714">
        <ele>374</ele>
        <time>2015-03-01T11:24:25.000Z</time>
      </trkpt>
      <trkpt lat="47.51549" lon="6.77712">
        <ele>374</ele>
        <time>2015-03-01T11:24:27.000Z</time>
      </trkpt>
      <trkpt lat="47.51551" lon="6.77711">
        <ele>374</ele>
        <time>2015-03-01T11:24:28.000Z</time>
      </trkpt>
      <trkpt lat="47.51555" lon="6.77711">
        <ele>374</ele>
        <time>2015-03-01T11:24:31.000Z</time>
      </trkpt>
      <trkpt lat="47.51556" lon="6.77712">
        <ele>374</ele>
        <time>2015-03-01T11:24:32.000Z</time>
      </trkpt>
      <trkpt lat="47.51559" lon="6.77714">
        <ele>374</ele>
        <time>2015-03-01T11:24:34.001Z</time>
      </trkpt>
      <trkpt lat="47.51561" lon="6.77715">
        <ele>375</ele>
        <time>2015-03-01T11:24:35.000Z</time>
      </trkpt>
      <trkpt lat="47.51564" lon="6.77716">
        <ele>375</ele>
        <time>2015-03-01T11:24:37.000Z</time>
      </trkpt>
      <trkpt lat="47.51566" lon="6.77717">
        <ele>375</ele>
        <time>2015-03-01T11:24:38.000Z</time>
      </trkpt>
      <trkpt lat="47.51569" lon="6.77717">
        <ele>375</ele>
        <time>2015-03-01T11:24:40.000Z</time>
      </trkpt>
      <trkpt lat="47.51571" lon="6.77717">
        <ele>375</ele>
        <time>2015-03-01T11:24:41.000Z</time>
      </trkpt>
      <trkpt lat="47.51574" lon="6.77718">
        <ele>375</ele>
        <time>2015-03-01T11:24:43.000Z</time>
      </trkpt>
      <trkpt lat="47.51576" lon="6.7772">
        <ele>375</ele>
        <time>2015-03-01T11:24:44.000Z</time>
      </trkpt>
      <trkpt lat="47.51579" lon="6.77722">
        <ele>375</ele>
        <time>2015-03-01T11:24:46.000Z</time>
      </trkpt>
      <trkpt lat="47.5158" lon="6.77723">
        <ele>375</ele>
        <time>2015-03-01T11:24:47.000Z</time>
      </trkpt>
      <trkpt lat="47.51583" lon="6.77725">
        <ele>375</ele>
        <time>2015-03-01T11:24:49.000Z</time>
      </trkpt>
      <trkpt lat="47.51585" lon="6.77726">
        <ele>379</ele>
        <time>2015-03-01T11:24:50.000Z</time>
      </trkpt>
      <trkpt lat="47.51589" lon="6.77729">
        <ele>379</ele>
        <time>2015-03-01T11:24:52.000Z</time>
      </trkpt>
      <trkpt lat="47.5159" lon="6.7773">
        <ele>379</ele>
        <time>2015-03-01T11:24:53.000Z</time>
      </trkpt>
      <trkpt lat="47.51594" lon="6.77733">
        <ele>379</ele>
        <time>2015-03-01T11:24:55.000Z</time>
      </trkpt>
      <trkpt lat="47.51595" lon="6.77734">
        <ele>379</ele>
        <time>2015-03-01T11:24:56.000Z</time>
      </trkpt>
      <trkpt lat="47.51598" lon="6.77737">
        <ele>379</ele>
        <time>2015-03-01T11:24:58.000Z</time>
      </trkpt>
      <trkpt lat="47.51599" lon="6.77739">
        <ele>379</ele>
        <time>2015-03-01T11:24:59.000Z</time>
      </trkpt>
      <trkpt lat="47.51604" lon="6.7774">
        <ele>379</ele>
        <time>2015-03-01T11:25:02.000Z</time>
      </trkpt>
      <trkpt lat="47.51605" lon="6.77741">
        <ele>380</ele>
        <time>2015-03-01T11:25:03.000Z</time>
      </trkpt>
      <trkpt lat="47.51609" lon="6.7774">
        <ele>380</ele>
        <time>2015-03-01T11:25:05.000Z</time>
      </trkpt>
      <trkpt lat="47.51611" lon="6.77739">
        <ele>380</ele>
        <time>2015-03-01T11:25:06.000Z</time>
      </trkpt>
      <trkpt lat="47.51615" lon="6.77738">
        <ele>380</ele>
        <time>2015-03-01T11:25:08.000Z</time>
      </trkpt>
      <trkpt lat="47.51618" lon="6.77738">
        <ele>381</ele>
        <time>2015-03-01T11:25:09.000Z</time>
      </trkpt>
      <trkpt lat="47.5162" lon="6.77739">
        <ele>381</ele>
        <time>2015-03-01T11:25:10.000Z</time>
      </trkpt>
      <trkpt lat="47.51623" lon="6.77739">
        <ele>381</ele>
        <time>2015-03-01T11:25:11.000Z</time>
      </trkpt>
      <trkpt lat="47.51626" lon="6.7774">
        <ele>381</ele>
        <time>2015-03-01T11:25:12.000Z</time>
      </trkpt>
      <trkpt lat="47.51628" lon="6.7774">
        <ele>381</ele>
        <time>2015-03-01T11:25:13.000Z</time>
      </trkpt>
      <trkpt lat="47.51632" lon="6.77741">
        <ele>381</ele>
        <time>2015-03-01T11:25:15.000Z</time>
      </trkpt>
      <trkpt lat="47.51633" lon="6.77741">
        <ele>381</ele>
        <time>2015-03-01T11:25:16.000Z</time>
      </trkpt>
      <trkpt lat="47.51637" lon="6.77741">
        <ele>382</ele>
        <time>2015-03-01T11:25:18.000Z</time>
      </trkpt>
      <trkpt lat="47.51639" lon="6.77741">
        <ele>382</ele>
        <time>2015-03-01T11:25:19.000Z</time>
      </trkpt>
      <trkpt lat="47.51644" lon="6.77741">
        <ele>382</ele>
        <time>2015-03-01T11:25:21.000Z</time>
      </trkpt>
      <trkpt lat="47.51645" lon="6.77741">
        <ele>382</ele>
        <time>2015-03-01T11:25:22.000Z</time>
      </trkpt>
      <trkpt lat="47.51649" lon="6.7774">
        <ele>382</ele>
        <time>2015-03-01T11:25:24.000Z</time>
      </trkpt>
      <trkpt lat="47.51651" lon="6.77739">
        <ele>382</ele>
        <time>2015-03-01T11:25:25.000Z</time>
      </trkpt>
      <trkpt lat="47.51654" lon="6.77737">
        <ele>382</ele>
        <time>2015-03-01T11:25:27.000Z</time>
      </trkpt>
      <trkpt lat="47.51656" lon="6.77737">
        <ele>382</ele>
        <time>2015-03-01T11:25:28.000Z</time>
      </trkpt>
      <trkpt lat="47.51659" lon="6.77735">
        <ele>382</ele>
        <time>2015-03-01T11:25:30.000Z</time>
      </trkpt>
      <trkpt lat="47.5166" lon="6.77735">
        <ele>382</ele>
        <time>2015-03-01T11:25:31.000Z</time>
      </trkpt>
      <trkpt lat="47.51665" lon="6.77736">
        <ele>383</ele>
        <time>2015-03-01T11:25:33.000Z</time>
      </trkpt>
      <trkpt lat="47.51667" lon="6.77736">
        <ele>385</ele>
        <time>2015-03-01T11:25:34.000Z</time>
      </trkpt>
      <trkpt lat="47.51669" lon="6.77737">
        <ele>385</ele>
        <time>2015-03-01T11:25:35.000Z</time>
      </trkpt>
      <trkpt lat="47.51671" lon="6.77738">
        <ele>385</ele>
        <time>2015-03-01T11:25:36.000Z</time>
      </trkpt>
      <trkpt lat="47.51675" lon="6.77741">
        <ele>385</ele>
        <time>2015-03-01T11:25:38.000Z</time>
      </trkpt>
      <trkpt lat="47.51677" lon="6.77743">
        <ele>385</ele>
        <time>2015-03-01T11:25:39.000Z</time>
      </trkpt>
      <trkpt lat="47.5168" lon="6.77745">
        <ele>385</ele>
        <time>2015-03-01T11:25:41.000Z</time>
      </trkpt>
      <trkpt lat="47.51682" lon="6.77745">
        <ele>385</ele>
        <time>2015-03-01T11:25:42.000Z</time>
      </trkpt>
      <trkpt lat="47.51686" lon="6.77745">
        <ele>386</ele>
        <time>2015-03-01T11:25:44.000Z</time>
      </trkpt>
      <trkpt lat="47.51688" lon="6.77745">
        <ele>386</ele>
        <time>2015-03-01T11:25:45.000Z</time>
      </trkpt>
      <trkpt lat="47.51691" lon="6.7774">
        <ele>386</ele>
        <time>2015-03-01T11:25:47.000Z</time>
      </trkpt>
      <trkpt lat="47.51693" lon="6.77737">
        <ele>386</ele>
        <time>2015-03-01T11:25:48.000Z</time>
      </trkpt>
      <trkpt lat="47.51695" lon="6.77734">
        <ele>386</ele>
        <time>2015-03-01T11:25:49.000Z</time>
      </trkpt>
      <trkpt lat="47.51697" lon="6.77731">
        <ele>387</ele>
        <time>2015-03-01T11:25:50.000Z</time>
      </trkpt>
      <trkpt lat="47.517" lon="6.77727">
        <ele>387</ele>
        <time>2015-03-01T11:25:52.000Z</time>
      </trkpt>
      <trkpt lat="47.51701" lon="6.77725">
        <ele>387</ele>
        <time>2015-03-01T11:25:53.000Z</time>
      </trkpt>
      <trkpt lat="47.51703" lon="6.7772">
        <ele>387</ele>
        <time>2015-03-01T11:25:56.000Z</time>
      </trkpt>
      <trkpt lat="47.51704" lon="6.77718">
        <ele>387</ele>
        <time>2015-03-01T11:25:57.000Z</time>
      </trkpt>
      <trkpt lat="47.51705" lon="6.77714">
        <ele>387</ele>
        <time>2015-03-01T11:25:59.000Z</time>
      </trkpt>
      <trkpt lat="47.51704" lon="6.77711">
        <ele>387</ele>
        <time>2015-03-01T11:26:00.000Z</time>
      </trkpt>
      <trkpt lat="47.51704" lon="6.77705">
        <ele>387</ele>
        <time>2015-03-01T11:26:03.000Z</time>
      </trkpt>
      <trkpt lat="47.51704" lon="6.77703">
        <ele>387</ele>
        <time>2015-03-01T11:26:04.000Z</time>
      </trkpt>
      <trkpt lat="47.51704" lon="6.77696">
        <ele>388</ele>
        <time>2015-03-01T11:26:07.000Z</time>
      </trkpt>
      <trkpt lat="47.51704" lon="6.77694">
        <ele>388</ele>
        <time>2015-03-01T11:26:08.000Z</time>
      </trkpt>
      <trkpt lat="47.51705" lon="6.77688">
        <ele>388</ele>
        <time>2015-03-01T11:26:10.000Z</time>
      </trkpt>
      <trkpt lat="47.51705" lon="6.77686">
        <ele>388</ele>
        <time>2015-03-01T11:26:11.000Z</time>
      </trkpt>
      <trkpt lat="47.51707" lon="6.7768">
        <ele>388</ele>
        <time>2015-03-01T11:26:13.000Z</time>
      </trkpt>
      <trkpt lat="47.51707" lon="6.77678">
        <ele>388</ele>
        <time>2015-03-01T11:26:14.000Z</time>
      </trkpt>
      <trkpt lat="47.51709" lon="6.77672">
        <ele>388</ele>
        <time>2015-03-01T11:26:16.000Z</time>
      </trkpt>
      <trkpt lat="47.5171" lon="6.77669">
        <ele>388</ele>
        <time>2015-03-01T11:26:17.000Z</time>
      </trkpt>
      <trkpt lat="47.5171" lon="6.77663">
        <ele>390</ele>
        <time>2015-03-01T11:26:19.000Z</time>
      </trkpt>
      <trkpt lat="47.5171" lon="6.7766">
        <ele>390</ele>
        <time>2015-03-01T11:26:20.000Z</time>
      </trkpt>
      <trkpt lat="47.5171" lon="6.77657">
        <ele>390</ele>
        <time>2015-03-01T11:26:21.000Z</time>
      </trkpt>
      <trkpt lat="47.5171" lon="6.77653">
        <ele>390</ele>
        <time>2015-03-01T11:26:22.000Z</time>
      </trkpt>
      <trkpt lat="47.5171" lon="6.77649">
        <ele>390</ele>
        <time>2015-03-01T11:26:23.000Z</time>
      </trkpt>
      <trkpt lat="47.5171" lon="6.77645">
        <ele>390</ele>
        <time>2015-03-01T11:26:24.000Z</time>
      </trkpt>
      <trkpt lat="47.5171" lon="6.77642">
        <ele>390</ele>
        <time>2015-03-01T11:26:25.000Z</time>
      </trkpt>
      <trkpt lat="47.5171" lon="6.77638">
        <ele>390</ele>
        <time>2015-03-01T11:26:26.000Z</time>
      </trkpt>
      <trkpt lat="47.5171" lon="6.77635">
        <ele>390</ele>
        <time>2015-03-01T11:26:27.000Z</time>
      </trkpt>
      <trkpt lat="47.5171" lon="6.77631">
        <ele>390</ele>
        <time>2015-03-01T11:26:28.000Z</time>
      </trkpt>
      <trkpt lat="47.5171" lon="6.77628">
        <ele>390</ele>
        <time>2015-03-01T11:26:29.000Z</time>
      </trkpt>
      <trkpt lat="47.5171" lon="6.77624">
        <ele>390</ele>
        <time>2015-03-01T11:26:30.000Z</time>
      </trkpt>
      <trkpt lat="47.5171" lon="6.7762">
        <ele>390</ele>
        <time>2015-03-01T11:26:31.000Z</time>
      </trkpt>
      <trkpt lat="47.51709" lon="6.77617">
        <ele>390</ele>
        <time>2015-03-01T11:26:32.000Z</time>
      </trkpt>
      <trkpt lat="47.51709" lon="6.77613">
        <ele>390</ele>
        <time>2015-03-01T11:26:33.000Z</time>
      </trkpt>
      <trkpt lat="47.51709" lon="6.7761">
        <ele>390</ele>
        <time>2015-03-01T11:26:34.000Z</time>
      </trkpt>
      <trkpt lat="47.51708" lon="6.77603">
        <ele>390</ele>
        <time>2015-03-01T11:26:36.000Z</time>
      </trkpt>
      <trkpt lat="47.51708" lon="6.776">
        <ele>390</ele>
        <time>2015-03-01T11:26:37.000Z</time>
      </trkpt>
      <trkpt lat="47.51708" lon="6.77594">
        <ele>390</ele>
        <time>2015-03-01T11:26:39.000Z</time>
      </trkpt>
      <trkpt lat="47.5171" lon="6.77591">
        <ele>390</ele>
        <time>2015-03-01T11:26:40.000Z</time>
      </trkpt>
      <trkpt lat="47.51711" lon="6.77587">
        <ele>390</ele>
        <time>2015-03-01T11:26:41.000Z</time>
      </trkpt>
      <trkpt lat="47.51714" lon="6.77584">
        <ele>390</ele>
        <time>2015-03-01T11:26:42.000Z</time>
      </trkpt>
      <trkpt lat="47.51716" lon="6.77582">
        <ele>390</ele>
        <time>2015-03-01T11:26:43.000Z</time>
      </trkpt>
      <trkpt lat="47.51719" lon="6.7758">
        <ele>390</ele>
        <time>2015-03-01T11:26:44.000Z</time>
      </trkpt>
      <trkpt lat="47.51721" lon="6.77577">
        <ele>390</ele>
        <time>2015-03-01T11:26:45.000Z</time>
      </trkpt>
      <trkpt lat="47.51722" lon="6.77574">
        <ele>391</ele>
        <time>2015-03-01T11:26:46.000Z</time>
      </trkpt>
      <trkpt lat="47.51722" lon="6.7757">
        <ele>390</ele>
        <time>2015-03-01T11:26:47.000Z</time>
      </trkpt>
      <trkpt lat="47.51721" lon="6.77566">
        <ele>390</ele>
        <time>2015-03-01T11:26:48.000Z</time>
      </trkpt>
      <trkpt lat="47.5172" lon="6.77562">
        <ele>390</ele>
        <time>2015-03-01T11:26:49.000Z</time>
      </trkpt>
      <trkpt lat="47.51719" lon="6.77557">
        <ele>390</ele>
        <time>2015-03-01T11:26:50.000Z</time>
      </trkpt>
      <trkpt lat="47.51718" lon="6.77552">
        <ele>390</ele>
        <time>2015-03-01T11:26:51.000Z</time>
      </trkpt>
      <trkpt lat="47.51717" lon="6.77547">
        <ele>390</ele>
        <time>2015-03-01T11:26:52.000Z</time>
      </trkpt>
      <trkpt lat="47.51718" lon="6.77541">
        <ele>390</ele>
        <time>2015-03-01T11:26:53.000Z</time>
      </trkpt>
      <trkpt lat="47.51719" lon="6.77535">
        <ele>390</ele>
        <time>2015-03-01T11:26:54.000Z</time>
      </trkpt>
      <trkpt lat="47.5172" lon="6.77529">
        <ele>390</ele>
        <time>2015-03-01T11:26:55.000Z</time>
      </trkpt>
      <trkpt lat="47.51721" lon="6.77523">
        <ele>390</ele>
        <time>2015-03-01T11:26:56.000Z</time>
      </trkpt>
      <trkpt lat="47.51722" lon="6.77517">
        <ele>390</ele>
        <time>2015-03-01T11:26:57.000Z</time>
      </trkpt>
      <trkpt lat="47.51724" lon="6.77509">
        <ele>390</ele>
        <time>2015-03-01T11:26:58.000Z</time>
      </trkpt>
      <trkpt lat="47.51726" lon="6.77503">
        <ele>390</ele>
        <time>2015-03-01T11:26:59.000Z</time>
      </trkpt>
      <trkpt lat="47.51726" lon="6.77498">
        <ele>389</ele>
        <time>2015-03-01T11:27:00.000Z</time>
      </trkpt>
      <trkpt lat="47.51727" lon="6.77493">
        <ele>389</ele>
        <time>2015-03-01T11:27:01.000Z</time>
      </trkpt>
      <trkpt lat="47.51728" lon="6.77487">
        <ele>389</ele>
        <time>2015-03-01T11:27:02.000Z</time>
      </trkpt>
      <trkpt lat="47.5173" lon="6.77483">
        <ele>389</ele>
        <time>2015-03-01T11:27:03.000Z</time>
      </trkpt>
      <trkpt lat="47.51732" lon="6.7748">
        <ele>389</ele>
        <time>2015-03-01T11:27:04.000Z</time>
      </trkpt>
      <trkpt lat="47.51734" lon="6.77478">
        <ele>389</ele>
        <time>2015-03-01T11:27:05.000Z</time>
      </trkpt>
      <trkpt lat="47.51737" lon="6.77478">
        <ele>389</ele>
        <time>2015-03-01T11:27:06.000Z</time>
      </trkpt>
      <trkpt lat="47.5174" lon="6.77479">
        <ele>389</ele>
        <time>2015-03-01T11:27:07.000Z</time>
      </trkpt>
      <trkpt lat="47.51743" lon="6.77479">
        <ele>389</ele>
        <time>2015-03-01T11:27:08.000Z</time>
      </trkpt>
      <trkpt lat="47.51745" lon="6.77479">
        <ele>389</ele>
        <time>2015-03-01T11:27:09.000Z</time>
      </trkpt>
      <trkpt lat="47.51747" lon="6.7748">
        <ele>389</ele>
        <time>2015-03-01T11:27:10.000Z</time>
      </trkpt>
      <trkpt lat="47.5175" lon="6.77479">
        <ele>389</ele>
        <time>2015-03-01T11:27:11.000Z</time>
      </trkpt>
      <trkpt lat="47.51753" lon="6.77479">
        <ele>389</ele>
        <time>2015-03-01T11:27:12.000Z</time>
      </trkpt>
      <trkpt lat="47.51756" lon="6.77478">
        <ele>389</ele>
        <time>2015-03-01T11:27:13.000Z</time>
      </trkpt>
      <trkpt lat="47.5176" lon="6.77478">
        <ele>389</ele>
        <time>2015-03-01T11:27:14.000Z</time>
      </trkpt>
      <trkpt lat="47.51764" lon="6.77479">
        <ele>389</ele>
        <time>2015-03-01T11:27:15.000Z</time>
      </trkpt>
      <trkpt lat="47.51767" lon="6.77479">
        <ele>388</ele>
        <time>2015-03-01T11:27:16.000Z</time>
      </trkpt>
      <trkpt lat="47.51771" lon="6.7748">
        <ele>388</ele>
        <time>2015-03-01T11:27:17.000Z</time>
      </trkpt>
      <trkpt lat="47.51775" lon="6.77481">
        <ele>388</ele>
        <time>2015-03-01T11:27:18.000Z</time>
      </trkpt>
      <trkpt lat="47.5178" lon="6.77483">
        <ele>388</ele>
        <time>2015-03-01T11:27:19.000Z</time>
      </trkpt>
      <trkpt lat="47.51784" lon="6.77484">
        <ele>388</ele>
        <time>2015-03-01T11:27:20.000Z</time>
      </trkpt>
      <trkpt lat="47.51788" lon="6.77486">
        <ele>388</ele>
        <time>2015-03-01T11:27:21.000Z</time>
      </trkpt>
      <trkpt lat="47.51793" lon="6.77489">
        <ele>388</ele>
        <time>2015-03-01T11:27:22.000Z</time>
      </trkpt>
      <trkpt lat="47.51797" lon="6.77491">
        <ele>388</ele>
        <time>2015-03-01T11:27:23.000Z</time>
      </trkpt>
      <trkpt lat="47.51801" lon="6.77492">
        <ele>388</ele>
        <time>2015-03-01T11:27:24.000Z</time>
      </trkpt>
      <trkpt lat="47.51805" lon="6.77492">
        <ele>388</ele>
        <time>2015-03-01T11:27:25.000Z</time>
      </trkpt>
      <trkpt lat="47.51809" lon="6.77491">
        <ele>388</ele>
        <time>2015-03-01T11:27:26.000Z</time>
      </trkpt>
      <trkpt lat="47.51809" lon="6.77487">
        <ele>388</ele>
        <time>2015-03-01T11:27:27.000Z</time>
      </trkpt>
      <trkpt lat="47.51809" lon="6.77484">
        <ele>388</ele>
        <time>2015-03-01T11:27:28.000Z</time>
      </trkpt>
      <trkpt lat="47.5181" lon="6.77479">
        <ele>388</ele>
        <time>2015-03-01T11:27:30.000Z</time>
      </trkpt>
      <trkpt lat="47.51809" lon="6.77476">
        <ele>388</ele>
        <time>2015-03-01T11:27:31.000Z</time>
      </trkpt>
      <trkpt lat="47.51808" lon="6.77472">
        <ele>388</ele>
        <time>2015-03-01T11:27:33.000Z</time>
      </trkpt>
      <trkpt lat="47.51807" lon="6.7747">
        <ele>388</ele>
        <time>2015-03-01T11:27:34.000Z</time>
      </trkpt>
      <trkpt lat="47.51806" lon="6.77466">
        <ele>388</ele>
        <time>2015-03-01T11:27:36.000Z</time>
      </trkpt>
      <trkpt lat="47.51805" lon="6.77464">
        <ele>388</ele>
        <time>2015-03-01T11:27:37.001Z</time>
      </trkpt>
      <trkpt lat="47.51806" lon="6.77458">
        <ele>388</ele>
        <time>2015-03-01T11:27:40.000Z</time>
      </trkpt>
      <trkpt lat="47.51805" lon="6.77457">
        <ele>388</ele>
        <time>2015-03-01T11:27:41.000Z</time>
      </trkpt>
      <trkpt lat="47.51803" lon="6.77451">
        <ele>388</ele>
        <time>2015-03-01T11:28:06.000Z</time>
      </trkpt>
      <trkpt lat="47.51804" lon="6.7745">
        <ele>387</ele>
        <time>2015-03-01T11:28:07.000Z</time>
      </trkpt>
      <trkpt lat="47.51807" lon="6.77454">
        <ele>387</ele>
        <time>2015-03-01T11:28:11.000Z</time>
      </trkpt>
      <trkpt lat="47.51807" lon="6.77456">
        <ele>388</ele>
        <time>2015-03-01T11:28:12.000Z</time>
      </trkpt>
      <trkpt lat="47.51809" lon="6.77461">
        <ele>388</ele>
        <time>2015-03-01T11:28:15.000Z</time>
      </trkpt>
      <trkpt lat="47.51809" lon="6.77463">
        <ele>388</ele>
        <time>2015-03-01T11:28:16.000Z</time>
      </trkpt>
      <trkpt lat="47.51808" lon="6.7747">
        <ele>388</ele>
        <time>2015-03-01T11:28:19.000Z</time>
      </trkpt>
      <trkpt lat="47.51806" lon="6.77475">
        <ele>388</ele>
        <time>2015-03-01T11:28:20.000Z</time>
      </trkpt>
      <trkpt lat="47.51805" lon="6.77473">
        <ele>388</ele>
        <time>2015-03-01T11:30:18.000Z</time>
      </trkpt>
    </trkseg>
  </trk>
</gpx>